<?xml version='1.0' encoding='UTF-8'?><gpx version="1.1" creator="JPX - https://github.com/jenetics/jpx" xmlns="http://www.topografix.com/GPX/1/1"><trk><trkseg><trkpt lat="39.7944039" lon="8.5475633"><ele>10.0</ele><time>2026-05-02T06:54:39.365Z</time></trkpt><trkpt lat="39.7944033" lon="8.547655"><ele>10.0</ele><time>2026-05-02T07:22:14.364Z</time></trkpt><trkpt lat="39.7944133" lon="8.547755"><ele>10.0</ele><time>2026-05-02T07:22:16.364Z</time></trkpt><trkpt lat="39.79442" lon="8.5478633"><ele>10.0</ele><time>2026-05-02T07:22:18.364Z</time></trkpt><trkpt lat="39.7944217" lon="8.5479817"><ele>10.0</ele><time>2026-05-02T07:22:20.364Z</time></trkpt><trkpt lat="39.794415" lon="8.54811"><ele>10.0</ele><time>2026-05-02T07:22:22.364Z</time></trkpt><trkpt lat="39.794415" lon="8.5482267"><ele>10.0</ele><time>2026-05-02T07:22:24.364Z</time></trkpt><trkpt lat="39.794415" lon="8.5483317"><ele>10.0</ele><time>2026-05-02T07:22:26.364Z</time></trkpt><trkpt lat="39.7944133" lon="8.54845"><ele>10.0</ele><time>2026-05-02T07:22:28.364Z</time></trkpt><trkpt lat="39.7944167" lon="8.5485583"><ele>10.0</ele><time>2026-05-02T07:22:30.364Z</time></trkpt><trkpt lat="39.7944183" lon="8.5486433"><ele>10.0</ele><time>2026-05-02T07:22:32.364Z</time></trkpt><trkpt lat="39.7944233" lon="8.54874"><ele>10.0</ele><time>2026-05-02T07:22:34.364Z</time></trkpt><trkpt lat="39.79444" lon="8.54883"><ele>10.0</ele><time>2026-05-02T07:22:36.364Z</time></trkpt><trkpt lat="39.794435" lon="8.5489133"><ele>10.0</ele><time>2026-05-02T07:22:38.364Z</time></trkpt><trkpt lat="39.7944383" lon="8.5490283"><ele>10.0</ele><time>2026-05-02T07:22:41.364Z</time></trkpt><trkpt lat="39.794435" lon="8.549115"><ele>10.0</ele><time>2026-05-02T07:22:43.364Z</time></trkpt><trkpt lat="39.7944267" lon="8.54921"><ele>10.0</ele><time>2026-05-02T07:22:45.364Z</time></trkpt><trkpt lat="39.794405" lon="8.54929"><ele>10.0</ele><time>2026-05-02T07:22:46.364Z</time></trkpt><trkpt lat="39.79439" lon="8.549375"><ele>10.0</ele><time>2026-05-02T07:22:47.364Z</time></trkpt><trkpt lat="39.794375" lon="8.5494617"><ele>10.0</ele><time>2026-05-02T07:22:48.364Z</time></trkpt><trkpt lat="39.7943733" lon="8.5496217"><ele>10.0</ele><time>2026-05-02T07:22:50.364Z</time></trkpt><trkpt lat="39.794385" lon="8.5497067"><ele>10.0</ele><time>2026-05-02T07:22:51.364Z</time></trkpt><trkpt lat="39.79439" lon="8.54981"><ele>10.0</ele><time>2026-05-02T07:22:52.364Z</time></trkpt><trkpt lat="39.7943933" lon="8.549895"><ele>10.0</ele><time>2026-05-02T07:22:53.364Z</time></trkpt><trkpt lat="39.7943933" lon="8.549985"><ele>10.0</ele><time>2026-05-02T07:22:54.364Z</time></trkpt><trkpt lat="39.7943983" lon="8.5500817"><ele>10.0</ele><time>2026-05-02T07:22:55.364Z</time></trkpt><trkpt lat="39.794395" lon="8.5501733"><ele>10.0</ele><time>2026-05-02T07:22:56.364Z</time></trkpt><trkpt lat="39.79441" lon="8.5502717"><ele>10.0</ele><time>2026-05-02T07:22:57.364Z</time></trkpt><trkpt lat="39.794415" lon="8.5503717"><ele>10.0</ele><time>2026-05-02T07:22:58.364Z</time></trkpt><trkpt lat="39.7944133" lon="8.5504667"><ele>10.0</ele><time>2026-05-02T07:22:59.364Z</time></trkpt><trkpt lat="39.7944117" lon="8.5505633"><ele>10.0</ele><time>2026-05-02T07:23:00.364Z</time></trkpt><trkpt lat="39.79441" lon="8.5506533"><ele>10.0</ele><time>2026-05-02T07:23:01.364Z</time></trkpt><trkpt lat="39.7944083" lon="8.55074"><ele>9.571428571428571</ele><time>2026-05-02T07:23:02.364Z</time></trkpt><trkpt lat="39.79441" lon="8.5508267"><ele>9.142857142857142</ele><time>2026-05-02T07:23:03.364Z</time></trkpt><trkpt lat="39.7944183" lon="8.550915"><ele>8.714285714285715</ele><time>2026-05-02T07:23:04.364Z</time></trkpt><trkpt lat="39.7944267" lon="8.551"><ele>8.285714285714285</ele><time>2026-05-02T07:23:05.364Z</time></trkpt><trkpt lat="39.7944217" lon="8.5510817"><ele>7.857142857142858</ele><time>2026-05-02T07:23:06.364Z</time></trkpt><trkpt lat="39.7944183" lon="8.5511683"><ele>7.428571428571429</ele><time>2026-05-02T07:23:07.364Z</time></trkpt><trkpt lat="39.7944167" lon="8.5512517"><ele>7.0</ele><time>2026-05-02T07:23:08.364Z</time></trkpt><trkpt lat="39.7944083" lon="8.5513333"><ele>7.000000000000001</ele><time>2026-05-02T07:23:09.364Z</time></trkpt><trkpt lat="39.794405" lon="8.551425"><ele>7.0</ele><time>2026-05-02T07:23:10.364Z</time></trkpt><trkpt lat="39.794405" lon="8.5515117"><ele>7.0</ele><time>2026-05-02T07:23:11.364Z</time></trkpt><trkpt lat="39.794405" lon="8.551595"><ele>7.0</ele><time>2026-05-02T07:23:12.364Z</time></trkpt><trkpt lat="39.7944067" lon="8.5516883"><ele>7.000000000000001</ele><time>2026-05-02T07:23:13.364Z</time></trkpt><trkpt lat="39.794415" lon="8.55177"><ele>7.0</ele><time>2026-05-02T07:23:14.364Z</time></trkpt><trkpt lat="39.794425" lon="8.5519183"><ele>7.000000000000001</ele><time>2026-05-02T07:23:16.364Z</time></trkpt><trkpt lat="39.79441" lon="8.5520717"><ele>7.0</ele><time>2026-05-02T07:23:18.364Z</time></trkpt><trkpt lat="39.7944033" lon="8.552175"><ele>7.0</ele><time>2026-05-02T07:23:19.364Z</time></trkpt><trkpt lat="39.7944" lon="8.5522683"><ele>7.0</ele><time>2026-05-02T07:23:20.364Z</time></trkpt><trkpt lat="39.79441" lon="8.5523683"><ele>7.000000000000001</ele><time>2026-05-02T07:23:21.364Z</time></trkpt><trkpt lat="39.7944083" lon="8.5524567"><ele>7.0</ele><time>2026-05-02T07:23:22.364Z</time></trkpt><trkpt lat="39.7944067" lon="8.5525483"><ele>7.000000000000001</ele><time>2026-05-02T07:23:23.364Z</time></trkpt><trkpt lat="39.79441" lon="8.5526383"><ele>7.0</ele><time>2026-05-02T07:23:24.364Z</time></trkpt><trkpt lat="39.79441" lon="8.5527267"><ele>7.0</ele><time>2026-05-02T07:23:25.364Z</time></trkpt><trkpt lat="39.794415" lon="8.552815"><ele>7.0</ele><time>2026-05-02T07:23:26.364Z</time></trkpt><trkpt lat="39.794415" lon="8.5529817"><ele>7.000000000000001</ele><time>2026-05-02T07:23:28.364Z</time></trkpt><trkpt lat="39.7944133" lon="8.5530717"><ele>7.0</ele><time>2026-05-02T07:23:29.364Z</time></trkpt><trkpt lat="39.7944233" lon="8.5531617"><ele>6.333333333333334</ele><time>2026-05-02T07:23:30.364Z</time></trkpt><trkpt lat="39.7944283" lon="8.55333"><ele>5.666666666666667</ele><time>2026-05-02T07:23:32.364Z</time></trkpt><trkpt lat="39.79443" lon="8.553415"><ele>5.0</ele><time>2026-05-02T07:23:33.364Z</time></trkpt><trkpt lat="39.7944367" lon="8.5535067"><ele>4.333333333333334</ele><time>2026-05-02T07:23:34.364Z</time></trkpt><trkpt lat="39.794445" lon="8.5536183"><ele>3.666666666666667</ele><time>2026-05-02T07:23:35.364Z</time></trkpt><trkpt lat="39.794445" lon="8.5537333"><ele>3.0</ele><time>2026-05-02T07:23:36.364Z</time></trkpt><trkpt lat="39.794445" lon="8.5538583"><ele>3.0</ele><time>2026-05-02T07:23:37.364Z</time></trkpt><trkpt lat="39.7944417" lon="8.5539983"><ele>3.0</ele><time>2026-05-02T07:23:38.364Z</time></trkpt><trkpt lat="39.7944367" lon="8.5541417"><ele>3.0</ele><time>2026-05-02T07:23:39.364Z</time></trkpt><trkpt lat="39.7944367" lon="8.55428"><ele>3.0</ele><time>2026-05-02T07:23:40.364Z</time></trkpt><trkpt lat="39.79443" lon="8.5544233"><ele>3.0</ele><time>2026-05-02T07:23:41.364Z</time></trkpt><trkpt lat="39.7944267" lon="8.5545683"><ele>3.2</ele><time>2026-05-02T07:23:42.364Z</time></trkpt><trkpt lat="39.7944217" lon="8.5547017"><ele>3.4</ele><time>2026-05-02T07:23:43.364Z</time></trkpt><trkpt lat="39.7944183" lon="8.5548333"><ele>3.6000000000000005</ele><time>2026-05-02T07:23:44.365Z</time></trkpt><trkpt lat="39.794415" lon="8.55497"><ele>3.8000000000000003</ele><time>2026-05-02T07:23:45.364Z</time></trkpt><trkpt lat="39.7944117" lon="8.5550983"><ele>4.0</ele><time>2026-05-02T07:23:46.365Z</time></trkpt><trkpt lat="39.7944167" lon="8.5552017"><ele>3.9999999999999996</ele><time>2026-05-02T07:23:47.364Z</time></trkpt><trkpt lat="39.7944217" lon="8.5552933"><ele>4.0</ele><time>2026-05-02T07:23:48.364Z</time></trkpt><trkpt lat="39.7944217" lon="8.5553783"><ele>4.0</ele><time>2026-05-02T07:23:49.364Z</time></trkpt><trkpt lat="39.79442" lon="8.5554783"><ele>4.0</ele><time>2026-05-02T07:23:50.364Z</time></trkpt><trkpt lat="39.7944217" lon="8.555595"><ele>3.9999999999999996</ele><time>2026-05-02T07:23:51.364Z</time></trkpt><trkpt lat="39.7944183" lon="8.5557133"><ele>4.0</ele><time>2026-05-02T07:23:52.364Z</time></trkpt><trkpt lat="39.7944167" lon="8.55584"><ele>4.25</ele><time>2026-05-02T07:23:53.364Z</time></trkpt><trkpt lat="39.7944067" lon="8.5559833"><ele>4.5</ele><time>2026-05-02T07:23:54.364Z</time></trkpt><trkpt lat="39.7944083" lon="8.5561483"><ele>4.75</ele><time>2026-05-02T07:23:55.364Z</time></trkpt><trkpt lat="39.794415" lon="8.55633"><ele>5.0</ele><time>2026-05-02T07:23:56.364Z</time></trkpt><trkpt lat="39.7944183" lon="8.5565267"><ele>5.0</ele><time>2026-05-02T07:23:57.364Z</time></trkpt><trkpt lat="39.7944233" lon="8.5567383"><ele>5.0</ele><time>2026-05-02T07:23:58.364Z</time></trkpt><trkpt lat="39.794425" lon="8.5569483"><ele>5.0</ele><time>2026-05-02T07:23:59.364Z</time></trkpt><trkpt lat="39.7944233" lon="8.5571367"><ele>5.25</ele><time>2026-05-02T07:24:00.364Z</time></trkpt><trkpt lat="39.7944233" lon="8.55733"><ele>5.5</ele><time>2026-05-02T07:24:01.364Z</time></trkpt><trkpt lat="39.7944283" lon="8.5575183"><ele>5.75</ele><time>2026-05-02T07:24:02.364Z</time></trkpt><trkpt lat="39.79443" lon="8.557685"><ele>6.0</ele><time>2026-05-02T07:24:03.364Z</time></trkpt><trkpt lat="39.79443" lon="8.5578667"><ele>6.0</ele><time>2026-05-02T07:24:04.364Z</time></trkpt><trkpt lat="39.794435" lon="8.5580517"><ele>6.0</ele><time>2026-05-02T07:24:05.364Z</time></trkpt><trkpt lat="39.7944317" lon="8.5582433"><ele>6.0</ele><time>2026-05-02T07:24:06.364Z</time></trkpt><trkpt lat="39.7944383" lon="8.5584333"><ele>6.0</ele><time>2026-05-02T07:24:07.364Z</time></trkpt><trkpt lat="39.79446" lon="8.5586183"><ele>5.8</ele><time>2026-05-02T07:24:08.364Z</time></trkpt><trkpt lat="39.7944417" lon="8.55872"><ele>5.6</ele><time>2026-05-02T07:24:09.364Z</time></trkpt><trkpt lat="39.7944383" lon="8.5588167"><ele>5.4</ele><time>2026-05-02T07:24:10.364Z</time></trkpt><trkpt lat="39.7944383" lon="8.5589333"><ele>5.2</ele><time>2026-05-02T07:24:11.364Z</time></trkpt><trkpt lat="39.7944383" lon="8.55908"><ele>5.0</ele><time>2026-05-02T07:24:12.364Z</time></trkpt><trkpt lat="39.79444" lon="8.5592533"><ele>5.0</ele><time>2026-05-02T07:24:13.364Z</time></trkpt><trkpt lat="39.794445" lon="8.5594433"><ele>5.0</ele><time>2026-05-02T07:24:14.364Z</time></trkpt><trkpt lat="39.794445" lon="8.5596467"><ele>5.0</ele><time>2026-05-02T07:24:15.364Z</time></trkpt><trkpt lat="39.79445" lon="8.559855"><ele>4.666666666666667</ele><time>2026-05-02T07:24:16.364Z</time></trkpt><trkpt lat="39.7944517" lon="8.5600683"><ele>4.333333333333333</ele><time>2026-05-02T07:24:17.364Z</time></trkpt><trkpt lat="39.7944433" lon="8.5602917"><ele>4.0</ele><time>2026-05-02T07:24:18.364Z</time></trkpt><trkpt lat="39.7944433" lon="8.5605183"><ele>3.6666666666666665</ele><time>2026-05-02T07:24:19.364Z</time></trkpt><trkpt lat="39.79444" lon="8.5607383"><ele>3.333333333333333</ele><time>2026-05-02T07:24:20.364Z</time></trkpt><trkpt lat="39.7944417" lon="8.5609533"><ele>3.0</ele><time>2026-05-02T07:24:21.364Z</time></trkpt><trkpt lat="39.7944367" lon="8.56117"><ele>2.6666666666666665</ele><time>2026-05-02T07:24:22.364Z</time></trkpt><trkpt lat="39.7944383" lon="8.5613933"><ele>2.333333333333333</ele><time>2026-05-02T07:24:23.364Z</time></trkpt><trkpt lat="39.79444" lon="8.56161"><ele>2.0</ele><time>2026-05-02T07:24:24.364Z</time></trkpt><trkpt lat="39.7944367" lon="8.5618117"><ele>2.0</ele><time>2026-05-02T07:24:25.364Z</time></trkpt><trkpt lat="39.794435" lon="8.5620083"><ele>2.0</ele><time>2026-05-02T07:24:26.364Z</time></trkpt><trkpt lat="39.794435" lon="8.5621967"><ele>2.0</ele><time>2026-05-02T07:24:27.364Z</time></trkpt><trkpt lat="39.794435" lon="8.562375"><ele>2.0</ele><time>2026-05-02T07:24:28.364Z</time></trkpt><trkpt lat="39.7944367" lon="8.5625567"><ele>2.5</ele><time>2026-05-02T07:24:29.364Z</time></trkpt><trkpt lat="39.7944383" lon="8.56274"><ele>3.0</ele><time>2026-05-02T07:24:30.364Z</time></trkpt><trkpt lat="39.79444" lon="8.562925"><ele>3.5</ele><time>2026-05-02T07:24:31.364Z</time></trkpt><trkpt lat="39.7944383" lon="8.5631083"><ele>4.0</ele><time>2026-05-02T07:24:32.364Z</time></trkpt><trkpt lat="39.79444" lon="8.5632917"><ele>4.0</ele><time>2026-05-02T07:24:33.364Z</time></trkpt><trkpt lat="39.7944383" lon="8.5634633"><ele>4.0</ele><time>2026-05-02T07:24:34.364Z</time></trkpt><trkpt lat="39.794445" lon="8.563655"><ele>4.0</ele><time>2026-05-02T07:24:35.364Z</time></trkpt><trkpt lat="39.79445" lon="8.56383"><ele>4.0</ele><time>2026-05-02T07:24:36.364Z</time></trkpt><trkpt lat="39.7944467" lon="8.5640283"><ele>4.0</ele><time>2026-05-02T07:24:37.364Z</time></trkpt><trkpt lat="39.794445" lon="8.5642267"><ele>4.0</ele><time>2026-05-02T07:24:38.364Z</time></trkpt><trkpt lat="39.79444" lon="8.5644417"><ele>4.0</ele><time>2026-05-02T07:24:39.364Z</time></trkpt><trkpt lat="39.7944333" lon="8.5646783"><ele>4.0</ele><time>2026-05-02T07:24:40.364Z</time></trkpt><trkpt lat="39.7944417" lon="8.5649083"><ele>4.0</ele><time>2026-05-02T07:24:41.364Z</time></trkpt><trkpt lat="39.7944433" lon="8.5651383"><ele>4.0</ele><time>2026-05-02T07:24:42.364Z</time></trkpt><trkpt lat="39.7944483" lon="8.565375"><ele>4.333333333333333</ele><time>2026-05-02T07:24:43.364Z</time></trkpt><trkpt lat="39.7944517" lon="8.565615"><ele>4.666666666666667</ele><time>2026-05-02T07:24:44.364Z</time></trkpt><trkpt lat="39.7944517" lon="8.5658567"><ele>5.0</ele><time>2026-05-02T07:24:45.364Z</time></trkpt><trkpt lat="39.794455" lon="8.566075"><ele>5.0</ele><time>2026-05-02T07:24:46.363Z</time></trkpt><trkpt lat="39.7944567" lon="8.5662767"><ele>5.0</ele><time>2026-05-02T07:24:47.363Z</time></trkpt><trkpt lat="39.7944517" lon="8.56646"><ele>5.0</ele><time>2026-05-02T07:24:48.363Z</time></trkpt><trkpt lat="39.7944483" lon="8.5666533"><ele>5.0</ele><time>2026-05-02T07:24:49.363Z</time></trkpt><trkpt lat="39.7944533" lon="8.5668533"><ele>5.333333333333334</ele><time>2026-05-02T07:24:50.363Z</time></trkpt><trkpt lat="39.7944467" lon="8.5670483"><ele>5.666666666666667</ele><time>2026-05-02T07:24:51.363Z</time></trkpt><trkpt lat="39.7944483" lon="8.56726"><ele>6.0</ele><time>2026-05-02T07:24:52.363Z</time></trkpt><trkpt lat="39.794445" lon="8.56749"><ele>6.0</ele><time>2026-05-02T07:24:53.363Z</time></trkpt><trkpt lat="39.7944467" lon="8.5677267"><ele>6.0</ele><time>2026-05-02T07:24:54.363Z</time></trkpt><trkpt lat="39.794445" lon="8.56798"><ele>6.0</ele><time>2026-05-02T07:24:55.363Z</time></trkpt><trkpt lat="39.7944433" lon="8.5682317"><ele>5.333333333333333</ele><time>2026-05-02T07:24:56.363Z</time></trkpt><trkpt lat="39.7944533" lon="8.5684967"><ele>4.666666666666666</ele><time>2026-05-02T07:24:57.363Z</time></trkpt><trkpt lat="39.7944517" lon="8.5687567"><ele>4.0</ele><time>2026-05-02T07:24:58.363Z</time></trkpt><trkpt lat="39.7944483" lon="8.569025"><ele>4.0</ele><time>2026-05-02T07:24:59.363Z</time></trkpt><trkpt lat="39.7944383" lon="8.5693017"><ele>4.0</ele><time>2026-05-02T07:25:00.363Z</time></trkpt><trkpt lat="39.7944483" lon="8.5695767"><ele>4.0</ele><time>2026-05-02T07:25:01.363Z</time></trkpt><trkpt lat="39.79445" lon="8.569845"><ele>4.333333333333333</ele><time>2026-05-02T07:25:02.363Z</time></trkpt><trkpt lat="39.7944533" lon="8.5701133"><ele>4.666666666666667</ele><time>2026-05-02T07:25:03.363Z</time></trkpt><trkpt lat="39.7944517" lon="8.5703717"><ele>5.0</ele><time>2026-05-02T07:25:04.363Z</time></trkpt><trkpt lat="39.794455" lon="8.570625"><ele>5.333333333333334</ele><time>2026-05-02T07:25:05.363Z</time></trkpt><trkpt lat="39.7944517" lon="8.5708683"><ele>5.666666666666667</ele><time>2026-05-02T07:25:06.363Z</time></trkpt><trkpt lat="39.79445" lon="8.5711117"><ele>6.0</ele><time>2026-05-02T07:25:07.363Z</time></trkpt><trkpt lat="39.7944517" lon="8.5713567"><ele>6.666666666666666</ele><time>2026-05-02T07:25:08.363Z</time></trkpt><trkpt lat="39.794455" lon="8.5715983"><ele>7.333333333333333</ele><time>2026-05-02T07:25:09.364Z</time></trkpt><trkpt lat="39.7944633" lon="8.5718483"><ele>8.0</ele><time>2026-05-02T07:25:10.363Z</time></trkpt><trkpt lat="39.7944633" lon="8.572095"><ele>8.333333333333332</ele><time>2026-05-02T07:25:11.363Z</time></trkpt><trkpt lat="39.7944633" lon="8.572345"><ele>8.666666666666666</ele><time>2026-05-02T07:25:12.363Z</time></trkpt><trkpt lat="39.79446" lon="8.57259"><ele>9.0</ele><time>2026-05-02T07:25:13.363Z</time></trkpt><trkpt lat="39.794455" lon="8.57283"><ele>8.666666666666666</ele><time>2026-05-02T07:25:14.363Z</time></trkpt><trkpt lat="39.7944517" lon="8.5730717"><ele>8.333333333333332</ele><time>2026-05-02T07:25:15.363Z</time></trkpt><trkpt lat="39.7944533" lon="8.5733083"><ele>8.0</ele><time>2026-05-02T07:25:16.363Z</time></trkpt><trkpt lat="39.79446" lon="8.5735467"><ele>7.333333333333333</ele><time>2026-05-02T07:25:17.363Z</time></trkpt><trkpt lat="39.7944683" lon="8.573785"><ele>6.666666666666666</ele><time>2026-05-02T07:25:18.363Z</time></trkpt><trkpt lat="39.7944733" lon="8.5740217"><ele>6.0</ele><time>2026-05-02T07:25:19.363Z</time></trkpt><trkpt lat="39.7944733" lon="8.5742483"><ele>6.0</ele><time>2026-05-02T07:25:20.363Z</time></trkpt><trkpt lat="39.7944683" lon="8.5744733"><ele>6.0</ele><time>2026-05-02T07:25:21.363Z</time></trkpt><trkpt lat="39.794465" lon="8.5746867"><ele>6.0</ele><time>2026-05-02T07:25:22.363Z</time></trkpt><trkpt lat="39.7944617" lon="8.574905"><ele>6.0</ele><time>2026-05-02T07:25:23.363Z</time></trkpt><trkpt lat="39.7944633" lon="8.5751267"><ele>6.0</ele><time>2026-05-02T07:25:24.363Z</time></trkpt><trkpt lat="39.7944667" lon="8.575365"><ele>6.0</ele><time>2026-05-02T07:25:25.363Z</time></trkpt><trkpt lat="39.7944667" lon="8.5755917"><ele>5.666666666666667</ele><time>2026-05-02T07:25:26.363Z</time></trkpt><trkpt lat="39.794465" lon="8.5758133"><ele>5.333333333333334</ele><time>2026-05-02T07:25:27.363Z</time></trkpt><trkpt lat="39.79446" lon="8.5760317"><ele>5.0</ele><time>2026-05-02T07:25:28.363Z</time></trkpt><trkpt lat="39.7944617" lon="8.5762433"><ele>5.0</ele><time>2026-05-02T07:25:29.363Z</time></trkpt><trkpt lat="39.79446" lon="8.5764583"><ele>5.0</ele><time>2026-05-02T07:25:30.363Z</time></trkpt><trkpt lat="39.7944617" lon="8.5766833"><ele>5.0</ele><time>2026-05-02T07:25:31.363Z</time></trkpt><trkpt lat="39.7944533" lon="8.57692"><ele>5.0</ele><time>2026-05-02T07:25:32.363Z</time></trkpt><trkpt lat="39.7944483" lon="8.577165"><ele>5.0</ele><time>2026-05-02T07:25:33.363Z</time></trkpt><trkpt lat="39.79445" lon="8.577415"><ele>5.0</ele><time>2026-05-02T07:25:34.363Z</time></trkpt><trkpt lat="39.79446" lon="8.5776717"><ele>5.666666666666667</ele><time>2026-05-02T07:25:35.363Z</time></trkpt><trkpt lat="39.7944633" lon="8.5779317"><ele>6.333333333333334</ele><time>2026-05-02T07:25:36.363Z</time></trkpt><trkpt lat="39.7944667" lon="8.5781983"><ele>7.0</ele><time>2026-05-02T07:25:37.363Z</time></trkpt><trkpt lat="39.79447" lon="8.578475"><ele>7.333333333333334</ele><time>2026-05-02T07:25:38.363Z</time></trkpt><trkpt lat="39.7944783" lon="8.5787467"><ele>7.666666666666666</ele><time>2026-05-02T07:25:39.363Z</time></trkpt><trkpt lat="39.7944833" lon="8.579015"><ele>8.0</ele><time>2026-05-02T07:25:40.363Z</time></trkpt><trkpt lat="39.7944833" lon="8.5792883"><ele>7.666666666666666</ele><time>2026-05-02T07:25:41.363Z</time></trkpt><trkpt lat="39.7944833" lon="8.5795617"><ele>7.333333333333334</ele><time>2026-05-02T07:25:42.363Z</time></trkpt><trkpt lat="39.7944783" lon="8.5798283"><ele>7.0</ele><time>2026-05-02T07:25:43.363Z</time></trkpt><trkpt lat="39.7944717" lon="8.5800917"><ele>7.0</ele><time>2026-05-02T07:25:44.363Z</time></trkpt><trkpt lat="39.7944683" lon="8.580345"><ele>7.0</ele><time>2026-05-02T07:25:45.363Z</time></trkpt><trkpt lat="39.794465" lon="8.5806017"><ele>7.0</ele><time>2026-05-02T07:25:46.363Z</time></trkpt><trkpt lat="39.79447" lon="8.5808433"><ele>7.5</ele><time>2026-05-02T07:25:47.363Z</time></trkpt><trkpt lat="39.7944667" lon="8.5810533"><ele>8.0</ele><time>2026-05-02T07:25:48.363Z</time></trkpt><trkpt lat="39.7944667" lon="8.5812383"><ele>8.5</ele><time>2026-05-02T07:25:49.363Z</time></trkpt><trkpt lat="39.7944683" lon="8.5814017"><ele>9.0</ele><time>2026-05-02T07:25:50.363Z</time></trkpt><trkpt lat="39.7944733" lon="8.58155"><ele>9.0</ele><time>2026-05-02T07:25:51.363Z</time></trkpt><trkpt lat="39.7944733" lon="8.5816817"><ele>9.0</ele><time>2026-05-02T07:25:52.363Z</time></trkpt><trkpt lat="39.7944683" lon="8.5818017"><ele>9.0</ele><time>2026-05-02T07:25:53.363Z</time></trkpt><trkpt lat="39.794465" lon="8.581915"><ele>9.0</ele><time>2026-05-02T07:25:54.363Z</time></trkpt><trkpt lat="39.7944683" lon="8.5820183"><ele>9.0</ele><time>2026-05-02T07:25:55.363Z</time></trkpt><trkpt lat="39.7944683" lon="8.5821433"><ele>10.25</ele><time>2026-05-02T07:25:57.363Z</time></trkpt><trkpt lat="39.7945617" lon="8.5822467"><ele>11.5</ele><time>2026-05-02T07:26:08.363Z</time></trkpt><trkpt lat="39.79466" lon="8.58226"><ele>12.75</ele><time>2026-05-02T07:26:09.363Z</time></trkpt><trkpt lat="39.7948" lon="8.5822467"><ele>14.0</ele><time>2026-05-02T07:26:10.363Z</time></trkpt><trkpt lat="39.7949617" lon="8.5822317"><ele>14.0</ele><time>2026-05-02T07:26:11.363Z</time></trkpt><trkpt lat="39.79513" lon="8.5822317"><ele>14.0</ele><time>2026-05-02T07:26:12.363Z</time></trkpt><trkpt lat="39.7952967" lon="8.5822283"><ele>14.0</ele><time>2026-05-02T07:26:13.363Z</time></trkpt><trkpt lat="39.7954567" lon="8.5822333"><ele>14.0</ele><time>2026-05-02T07:26:14.363Z</time></trkpt><trkpt lat="39.79562" lon="8.5822383"><ele>14.0</ele><time>2026-05-02T07:26:15.363Z</time></trkpt><trkpt lat="39.7958033" lon="8.5822467"><ele>14.0</ele><time>2026-05-02T07:26:16.363Z</time></trkpt><trkpt lat="39.7959917" lon="8.5822583"><ele>12.666666666666668</ele><time>2026-05-02T07:26:17.363Z</time></trkpt><trkpt lat="39.79619" lon="8.5822483"><ele>11.333333333333334</ele><time>2026-05-02T07:26:18.363Z</time></trkpt><trkpt lat="39.7963967" lon="8.5822467"><ele>10.0</ele><time>2026-05-02T07:26:19.363Z</time></trkpt><trkpt lat="39.7966" lon="8.58225"><ele>10.0</ele><time>2026-05-02T07:26:20.363Z</time></trkpt><trkpt lat="39.796805" lon="8.5822533"><ele>10.0</ele><time>2026-05-02T07:26:21.363Z</time></trkpt><trkpt lat="39.7970067" lon="8.582245"><ele>10.0</ele><time>2026-05-02T07:26:22.363Z</time></trkpt><trkpt lat="39.7972067" lon="8.5822433"><ele>9.666666666666668</ele><time>2026-05-02T07:26:23.363Z</time></trkpt><trkpt lat="39.79741" lon="8.5822333"><ele>9.333333333333334</ele><time>2026-05-02T07:26:24.363Z</time></trkpt><trkpt lat="39.797615" lon="8.582225"><ele>9.0</ele><time>2026-05-02T07:26:25.363Z</time></trkpt><trkpt lat="39.7978167" lon="8.5822317"><ele>8.0</ele><time>2026-05-02T07:26:26.363Z</time></trkpt><trkpt lat="39.7980283" lon="8.58222"><ele>7.0</ele><time>2026-05-02T07:26:27.363Z</time></trkpt><trkpt lat="39.7982333" lon="8.5822183"><ele>6.0</ele><time>2026-05-02T07:26:28.363Z</time></trkpt><trkpt lat="39.79843" lon="8.5822167"><ele>5.333333333333333</ele><time>2026-05-02T07:26:29.363Z</time></trkpt><trkpt lat="39.7986433" lon="8.58221"><ele>4.666666666666666</ele><time>2026-05-02T07:26:30.363Z</time></trkpt><trkpt lat="39.798855" lon="8.5822183"><ele>4.0</ele><time>2026-05-02T07:26:31.363Z</time></trkpt><trkpt lat="39.79906" lon="8.5822283"><ele>4.0</ele><time>2026-05-02T07:26:32.363Z</time></trkpt><trkpt lat="39.799245" lon="8.58223"><ele>4.0</ele><time>2026-05-02T07:26:33.363Z</time></trkpt><trkpt lat="39.7994183" lon="8.58222"><ele>4.0</ele><time>2026-05-02T07:26:34.363Z</time></trkpt><trkpt lat="39.79959" lon="8.5822283"><ele>4.333333333333333</ele><time>2026-05-02T07:26:35.363Z</time></trkpt><trkpt lat="39.7997667" lon="8.582225"><ele>4.666666666666667</ele><time>2026-05-02T07:26:36.363Z</time></trkpt><trkpt lat="39.7999383" lon="8.5822267"><ele>5.0</ele><time>2026-05-02T07:26:37.363Z</time></trkpt><trkpt lat="39.8001183" lon="8.5822183"><ele>5.0</ele><time>2026-05-02T07:26:38.363Z</time></trkpt><trkpt lat="39.8002833" lon="8.5822067"><ele>5.0</ele><time>2026-05-02T07:26:39.363Z</time></trkpt><trkpt lat="39.8004417" lon="8.5821983"><ele>5.0</ele><time>2026-05-02T07:26:40.363Z</time></trkpt><trkpt lat="39.8006133" lon="8.5822033"><ele>5.0</ele><time>2026-05-02T07:26:41.363Z</time></trkpt><trkpt lat="39.8007733" lon="8.5822133"><ele>5.0</ele><time>2026-05-02T07:26:42.363Z</time></trkpt><trkpt lat="39.8009183" lon="8.5822217"><ele>5.0</ele><time>2026-05-02T07:26:43.363Z</time></trkpt><trkpt lat="39.8010467" lon="8.5822133"><ele>5.0</ele><time>2026-05-02T07:26:44.363Z</time></trkpt><trkpt lat="39.8011683" lon="8.58221"><ele>5.4</ele><time>2026-05-02T07:26:45.363Z</time></trkpt><trkpt lat="39.8012717" lon="8.5822167"><ele>5.8</ele><time>2026-05-02T07:26:46.363Z</time></trkpt><trkpt lat="39.8013717" lon="8.5822183"><ele>6.199999999999999</ele><time>2026-05-02T07:26:47.363Z</time></trkpt><trkpt lat="39.801465" lon="8.5822133"><ele>6.6</ele><time>2026-05-02T07:26:48.363Z</time></trkpt><trkpt lat="39.8015583" lon="8.582215"><ele>7.0</ele><time>2026-05-02T07:26:49.363Z</time></trkpt><trkpt lat="39.8016467" lon="8.582215"><ele>7.0</ele><time>2026-05-02T07:26:50.363Z</time></trkpt><trkpt lat="39.801725" lon="8.582215"><ele>6.999999999999999</ele><time>2026-05-02T07:26:51.363Z</time></trkpt><trkpt lat="39.8018283" lon="8.5821967"><ele>6.999999999999999</ele><time>2026-05-02T07:26:53.363Z</time></trkpt><trkpt lat="39.8019183" lon="8.5821983"><ele>7.0</ele><time>2026-05-02T07:27:03.363Z</time></trkpt><trkpt lat="39.802005" lon="8.5822033"><ele>7.0</ele><time>2026-05-02T07:27:04.363Z</time></trkpt><trkpt lat="39.8021133" lon="8.582205"><ele>6.5</ele><time>2026-05-02T07:27:05.363Z</time></trkpt><trkpt lat="39.8022283" lon="8.5822"><ele>6.0</ele><time>2026-05-02T07:27:06.363Z</time></trkpt><trkpt lat="39.8023433" lon="8.5822067"><ele>5.5</ele><time>2026-05-02T07:27:07.363Z</time></trkpt><trkpt lat="39.8024617" lon="8.58221"><ele>5.0</ele><time>2026-05-02T07:27:08.363Z</time></trkpt><trkpt lat="39.8025967" lon="8.58221"><ele>4.666666666666667</ele><time>2026-05-02T07:27:09.363Z</time></trkpt><trkpt lat="39.802745" lon="8.5822067"><ele>4.333333333333333</ele><time>2026-05-02T07:27:10.363Z</time></trkpt><trkpt lat="39.8028933" lon="8.5821967"><ele>4.0</ele><time>2026-05-02T07:27:11.363Z</time></trkpt><trkpt lat="39.803055" lon="8.58219"><ele>4.0</ele><time>2026-05-02T07:27:12.363Z</time></trkpt><trkpt lat="39.8032283" lon="8.582195"><ele>4.0</ele><time>2026-05-02T07:27:13.363Z</time></trkpt><trkpt lat="39.803425" lon="8.5821917"><ele>4.0</ele><time>2026-05-02T07:27:14.363Z</time></trkpt><trkpt lat="39.8036183" lon="8.5821817"><ele>4.0</ele><time>2026-05-02T07:27:15.363Z</time></trkpt><trkpt lat="39.8037983" lon="8.5821817"><ele>4.0</ele><time>2026-05-02T07:27:16.363Z</time></trkpt><trkpt lat="39.80396" lon="8.5821933"><ele>4.0</ele><time>2026-05-02T07:27:17.363Z</time></trkpt><trkpt lat="39.80412" lon="8.5821967"><ele>4.0</ele><time>2026-05-02T07:27:18.363Z</time></trkpt><trkpt lat="39.8043033" lon="8.5822"><ele>4.0</ele><time>2026-05-02T07:27:19.363Z</time></trkpt><trkpt lat="39.8045017" lon="8.5821967"><ele>4.0</ele><time>2026-05-02T07:27:20.363Z</time></trkpt><trkpt lat="39.8047167" lon="8.582195"><ele>5.5</ele><time>2026-05-02T07:27:21.363Z</time></trkpt><trkpt lat="39.804945" lon="8.58218"><ele>7.0</ele><time>2026-05-02T07:27:22.363Z</time></trkpt><trkpt lat="39.8051783" lon="8.582175"><ele>7.0</ele><time>2026-05-02T07:27:23.363Z</time></trkpt><trkpt lat="39.80541" lon="8.5821767"><ele>7.0</ele><time>2026-05-02T07:27:24.363Z</time></trkpt><trkpt lat="39.80563" lon="8.5821867"><ele>7.0</ele><time>2026-05-02T07:27:25.363Z</time></trkpt><trkpt lat="39.80585" lon="8.5821767"><ele>7.0</ele><time>2026-05-02T07:27:26.363Z</time></trkpt><trkpt lat="39.8060667" lon="8.582175"><ele>7.0</ele><time>2026-05-02T07:27:27.363Z</time></trkpt><trkpt lat="39.80629" lon="8.5821767"><ele>7.0</ele><time>2026-05-02T07:27:28.363Z</time></trkpt><trkpt lat="39.8065083" lon="8.5821767"><ele>7.0</ele><time>2026-05-02T07:27:29.363Z</time></trkpt><trkpt lat="39.8067367" lon="8.5821733"><ele>7.0</ele><time>2026-05-02T07:27:30.363Z</time></trkpt><trkpt lat="39.8069733" lon="8.5821783"><ele>6.0</ele><time>2026-05-02T07:27:31.363Z</time></trkpt><trkpt lat="39.807185" lon="8.5821817"><ele>5.0</ele><time>2026-05-02T07:27:32.363Z</time></trkpt><trkpt lat="39.8073933" lon="8.5821783"><ele>4.0</ele><time>2026-05-02T07:27:33.363Z</time></trkpt><trkpt lat="39.8076117" lon="8.5821767"><ele>4.333333333333333</ele><time>2026-05-02T07:27:34.364Z</time></trkpt><trkpt lat="39.8078167" lon="8.5821733"><ele>4.666666666666667</ele><time>2026-05-02T07:27:35.363Z</time></trkpt><trkpt lat="39.8080217" lon="8.582175"><ele>5.0</ele><time>2026-05-02T07:27:36.363Z</time></trkpt><trkpt lat="39.8082367" lon="8.582175"><ele>5.0</ele><time>2026-05-02T07:27:37.363Z</time></trkpt><trkpt lat="39.8084483" lon="8.5821767"><ele>5.0</ele><time>2026-05-02T07:27:38.363Z</time></trkpt><trkpt lat="39.8086583" lon="8.5821717"><ele>5.0</ele><time>2026-05-02T07:27:39.363Z</time></trkpt><trkpt lat="39.8088733" lon="8.58217"><ele>4.666666666666667</ele><time>2026-05-02T07:27:40.363Z</time></trkpt><trkpt lat="39.8090717" lon="8.5821667"><ele>4.333333333333333</ele><time>2026-05-02T07:27:41.363Z</time></trkpt><trkpt lat="39.8092617" lon="8.582165"><ele>4.0</ele><time>2026-05-02T07:27:42.363Z</time></trkpt><trkpt lat="39.80945" lon="8.582175"><ele>4.0</ele><time>2026-05-02T07:27:43.363Z</time></trkpt><trkpt lat="39.8096183" lon="8.5821817"><ele>4.0</ele><time>2026-05-02T07:27:44.363Z</time></trkpt><trkpt lat="39.8097683" lon="8.58217"><ele>4.0</ele><time>2026-05-02T07:27:45.363Z</time></trkpt><trkpt lat="39.8099183" lon="8.5821317"><ele>4.0</ele><time>2026-05-02T07:27:46.363Z</time></trkpt><trkpt lat="39.810075" lon="8.58205"><ele>4.0</ele><time>2026-05-02T07:27:47.363Z</time></trkpt><trkpt lat="39.810235" lon="8.5819167"><ele>4.0</ele><time>2026-05-02T07:27:48.363Z</time></trkpt><trkpt lat="39.8103883" lon="8.5817383"><ele>4.0</ele><time>2026-05-02T07:27:49.363Z</time></trkpt><trkpt lat="39.8105433" lon="8.58156"><ele>4.0</ele><time>2026-05-02T07:27:50.363Z</time></trkpt><trkpt lat="39.8107033" lon="8.581385"><ele>4.0</ele><time>2026-05-02T07:27:51.363Z</time></trkpt><trkpt lat="39.8108783" lon="8.5812017"><ele>3.0</ele><time>2026-05-02T07:27:52.363Z</time></trkpt><trkpt lat="39.81105" lon="8.58102"><ele>2.0</ele><time>2026-05-02T07:27:53.363Z</time></trkpt><trkpt lat="39.811225" lon="8.5808433"><ele>1.0</ele><time>2026-05-02T07:27:54.363Z</time></trkpt><trkpt lat="39.8114183" lon="8.58067"><ele>1.0</ele><time>2026-05-02T07:27:55.363Z</time></trkpt><trkpt lat="39.81162" lon="8.5805033"><ele>1.0</ele><time>2026-05-02T07:27:56.363Z</time></trkpt><trkpt lat="39.8118417" lon="8.580335"><ele>1.5</ele><time>2026-05-02T07:27:57.363Z</time></trkpt><trkpt lat="39.81207" lon="8.5801583"><ele>2.0</ele><time>2026-05-02T07:27:58.363Z</time></trkpt><trkpt lat="39.812285" lon="8.5799767"><ele>2.0</ele><time>2026-05-02T07:27:59.363Z</time></trkpt><trkpt lat="39.8124883" lon="8.5797833"><ele>2.0</ele><time>2026-05-02T07:28:00.363Z</time></trkpt><trkpt lat="39.8127" lon="8.5795767"><ele>1.5</ele><time>2026-05-02T07:28:01.363Z</time></trkpt><trkpt lat="39.81291" lon="8.57935"><ele>1.0</ele><time>2026-05-02T07:28:02.363Z</time></trkpt><trkpt lat="39.813115" lon="8.579125"><ele>1.0</ele><time>2026-05-02T07:28:03.363Z</time></trkpt><trkpt lat="39.8133133" lon="8.5788917"><ele>1.0</ele><time>2026-05-02T07:28:04.363Z</time></trkpt><trkpt lat="39.8134917" lon="8.5786433"><ele>1.0</ele><time>2026-05-02T07:28:05.363Z</time></trkpt><trkpt lat="39.813665" lon="8.578395"><ele>1.0</ele><time>2026-05-02T07:28:06.363Z</time></trkpt><trkpt lat="39.8138233" lon="8.5781467"><ele>1.0</ele><time>2026-05-02T07:28:07.363Z</time></trkpt><trkpt lat="39.8139733" lon="8.5778983"><ele>1.0</ele><time>2026-05-02T07:28:08.363Z</time></trkpt><trkpt lat="39.8141183" lon="8.5776417"><ele>0.5</ele><time>2026-05-02T07:28:09.363Z</time></trkpt><trkpt lat="39.8142467" lon="8.5773817"><ele>0.0</ele><time>2026-05-02T07:28:10.363Z</time></trkpt><trkpt lat="39.8143667" lon="8.5771067"><ele>1.5</ele><time>2026-05-02T07:28:11.363Z</time></trkpt><trkpt lat="39.8145" lon="8.5768167"><ele>3.0</ele><time>2026-05-02T07:28:12.363Z</time></trkpt><trkpt lat="39.8146367" lon="8.5765333"><ele>3.0</ele><time>2026-05-02T07:28:13.363Z</time></trkpt><trkpt lat="39.81476" lon="8.5762583"><ele>3.0</ele><time>2026-05-02T07:28:14.363Z</time></trkpt><trkpt lat="39.814875" lon="8.5759767"><ele>3.5</ele><time>2026-05-02T07:28:15.363Z</time></trkpt><trkpt lat="39.8149917" lon="8.5757033"><ele>4.0</ele><time>2026-05-02T07:28:16.363Z</time></trkpt><trkpt lat="39.8151133" lon="8.5754067"><ele>2.5</ele><time>2026-05-02T07:28:17.363Z</time></trkpt><trkpt lat="39.8152533" lon="8.5751067"><ele>1.0</ele><time>2026-05-02T07:28:18.363Z</time></trkpt><trkpt lat="39.8153783" lon="8.574815"><ele>1.0</ele><time>2026-05-02T07:28:19.363Z</time></trkpt><trkpt lat="39.8155033" lon="8.5745433"><ele>1.0</ele><time>2026-05-02T07:28:20.363Z</time></trkpt><trkpt lat="39.8156167" lon="8.5742683"><ele>1.3333333333333333</ele><time>2026-05-02T07:28:21.363Z</time></trkpt><trkpt lat="39.81571" lon="8.57404"><ele>1.6666666666666665</ele><time>2026-05-02T07:28:22.363Z</time></trkpt><trkpt lat="39.8158167" lon="8.5738517"><ele>2.0</ele><time>2026-05-02T07:28:23.363Z</time></trkpt><trkpt lat="39.815955" lon="8.5736833"><ele>2.0</ele><time>2026-05-02T07:28:24.363Z</time></trkpt><trkpt lat="39.81612" lon="8.573575"><ele>2.0</ele><time>2026-05-02T07:28:25.363Z</time></trkpt><trkpt lat="39.8163117" lon="8.5735083"><ele>2.0</ele><time>2026-05-02T07:28:26.363Z</time></trkpt><trkpt lat="39.8165083" lon="8.5734883"><ele>2.0</ele><time>2026-05-02T07:28:27.363Z</time></trkpt><trkpt lat="39.8167083" lon="8.5735167"><ele>2.0</ele><time>2026-05-02T07:28:28.363Z</time></trkpt><trkpt lat="39.8169017" lon="8.57359"><ele>2.0</ele><time>2026-05-02T07:28:29.363Z</time></trkpt><trkpt lat="39.8171133" lon="8.573695"><ele>2.0</ele><time>2026-05-02T07:28:30.363Z</time></trkpt><trkpt lat="39.8173317" lon="8.5738133"><ele>2.0</ele><time>2026-05-02T07:28:31.363Z</time></trkpt><trkpt lat="39.8175583" lon="8.5739217"><ele>1.5</ele><time>2026-05-02T07:28:32.363Z</time></trkpt><trkpt lat="39.8177767" lon="8.5740233"><ele>1.0</ele><time>2026-05-02T07:28:33.363Z</time></trkpt><trkpt lat="39.818005" lon="8.5741217"><ele>1.0</ele><time>2026-05-02T07:28:34.363Z</time></trkpt><trkpt lat="39.8182367" lon="8.5741817"><ele>1.0</ele><time>2026-05-02T07:28:35.363Z</time></trkpt><trkpt lat="39.8184717" lon="8.57423"><ele>1.0</ele><time>2026-05-02T07:28:36.363Z</time></trkpt><trkpt lat="39.8187117" lon="8.5742767"><ele>1.0</ele><time>2026-05-02T07:28:37.363Z</time></trkpt><trkpt lat="39.8189483" lon="8.5743267"><ele>1.0</ele><time>2026-05-02T07:28:38.363Z</time></trkpt><trkpt lat="39.819205" lon="8.574385"><ele>1.0</ele><time>2026-05-02T07:28:39.363Z</time></trkpt><trkpt lat="39.819435" lon="8.5744817"><ele>0.0</ele><time>2026-05-02T07:28:40.363Z</time></trkpt><trkpt lat="39.8196383" lon="8.5746517"><ele>-1.0</ele><time>2026-05-02T07:28:41.363Z</time></trkpt><trkpt lat="39.819805" lon="8.5748383"><ele>-1.0</ele><time>2026-05-02T07:28:42.363Z</time></trkpt><trkpt lat="39.8199533" lon="8.5750283"><ele>-1.0</ele><time>2026-05-02T07:28:43.363Z</time></trkpt><trkpt lat="39.820105" lon="8.5752083"><ele>-1.0</ele><time>2026-05-02T07:28:44.363Z</time></trkpt><trkpt lat="39.8202617" lon="8.5753867"><ele>-0.6666666666666666</ele><time>2026-05-02T07:28:45.363Z</time></trkpt><trkpt lat="39.8204267" lon="8.5755617"><ele>-0.3333333333333333</ele><time>2026-05-02T07:28:46.363Z</time></trkpt><trkpt lat="39.82059" lon="8.5757383"><ele>0.0</ele><time>2026-05-02T07:28:47.363Z</time></trkpt><trkpt lat="39.8207483" lon="8.5759133"><ele>0.0</ele><time>2026-05-02T07:28:48.363Z</time></trkpt><trkpt lat="39.8209017" lon="8.576085"><ele>0.0</ele><time>2026-05-02T07:28:49.363Z</time></trkpt><trkpt lat="39.8210483" lon="8.57625"><ele>0.0</ele><time>2026-05-02T07:28:50.363Z</time></trkpt><trkpt lat="39.821195" lon="8.5764117"><ele>0.0</ele><time>2026-05-02T07:28:51.363Z</time></trkpt><trkpt lat="39.8213417" lon="8.5765733"><ele>0.0</ele><time>2026-05-02T07:28:52.363Z</time></trkpt><trkpt lat="39.8214817" lon="8.5767333"><ele>0.0</ele><time>2026-05-02T07:28:53.363Z</time></trkpt><trkpt lat="39.8216317" lon="8.5768733"><ele>0.0</ele><time>2026-05-02T07:28:54.363Z</time></trkpt><trkpt lat="39.8218" lon="8.57698"><ele>0.0</ele><time>2026-05-02T07:28:55.363Z</time></trkpt><trkpt lat="39.821985" lon="8.5770583"><ele>0.0</ele><time>2026-05-02T07:28:56.363Z</time></trkpt><trkpt lat="39.8221717" lon="8.5770867"><ele>0.3333333333333333</ele><time>2026-05-02T07:28:57.363Z</time></trkpt><trkpt lat="39.8223717" lon="8.5770867"><ele>0.6666666666666666</ele><time>2026-05-02T07:28:58.363Z</time></trkpt><trkpt lat="39.8225683" lon="8.577065"><ele>1.0</ele><time>2026-05-02T07:28:59.363Z</time></trkpt><trkpt lat="39.82277" lon="8.5770067"><ele>1.0</ele><time>2026-05-02T07:29:00.363Z</time></trkpt><trkpt lat="39.82297" lon="8.5769583"><ele>1.0</ele><time>2026-05-02T07:29:01.363Z</time></trkpt><trkpt lat="39.8231517" lon="8.5769217"><ele>1.0</ele><time>2026-05-02T07:29:02.363Z</time></trkpt><trkpt lat="39.8233317" lon="8.5768983"><ele>1.0</ele><time>2026-05-02T07:29:03.363Z</time></trkpt><trkpt lat="39.8235" lon="8.5768867"><ele>1.0</ele><time>2026-05-02T07:29:04.363Z</time></trkpt><trkpt lat="39.8236833" lon="8.5769167"><ele>1.0</ele><time>2026-05-02T07:29:05.363Z</time></trkpt><trkpt lat="39.8238617" lon="8.5769717"><ele>0.6666666666666666</ele><time>2026-05-02T07:29:06.363Z</time></trkpt><trkpt lat="39.8240367" lon="8.5770367"><ele>0.3333333333333333</ele><time>2026-05-02T07:29:07.363Z</time></trkpt><trkpt lat="39.824205" lon="8.5771167"><ele>0.0</ele><time>2026-05-02T07:29:08.363Z</time></trkpt><trkpt lat="39.8243767" lon="8.5771883"><ele>1.3333333333333333</ele><time>2026-05-02T07:29:09.363Z</time></trkpt><trkpt lat="39.8245417" lon="8.57724"><ele>2.6666666666666665</ele><time>2026-05-02T07:29:10.363Z</time></trkpt><trkpt lat="39.8247083" lon="8.5773017"><ele>4.0</ele><time>2026-05-02T07:29:11.363Z</time></trkpt><trkpt lat="39.8248733" lon="8.5773917"><ele>4.0</ele><time>2026-05-02T07:29:12.363Z</time></trkpt><trkpt lat="39.82503" lon="8.5775217"><ele>4.0</ele><time>2026-05-02T07:29:13.363Z</time></trkpt><trkpt lat="39.8251783" lon="8.5776633"><ele>4.0</ele><time>2026-05-02T07:29:14.363Z</time></trkpt><trkpt lat="39.8253117" lon="8.5778067"><ele>4.333333333333333</ele><time>2026-05-02T07:29:15.363Z</time></trkpt><trkpt lat="39.8254517" lon="8.577955"><ele>4.666666666666667</ele><time>2026-05-02T07:29:16.363Z</time></trkpt><trkpt lat="39.825585" lon="8.578105"><ele>5.0</ele><time>2026-05-02T07:29:17.363Z</time></trkpt><trkpt lat="39.8257317" lon="8.578265"><ele>5.0</ele><time>2026-05-02T07:29:18.363Z</time></trkpt><trkpt lat="39.825875" lon="8.5784233"><ele>5.0</ele><time>2026-05-02T07:29:19.363Z</time></trkpt><trkpt lat="39.82602" lon="8.5785883"><ele>5.0</ele><time>2026-05-02T07:29:20.363Z</time></trkpt><trkpt lat="39.8261617" lon="8.5787467"><ele>6.0</ele><time>2026-05-02T07:29:21.363Z</time></trkpt><trkpt lat="39.8263067" lon="8.5788933"><ele>7.0</ele><time>2026-05-02T07:29:22.363Z</time></trkpt><trkpt lat="39.8264533" lon="8.579035"><ele>8.0</ele><time>2026-05-02T07:29:23.363Z</time></trkpt><trkpt lat="39.8266083" lon="8.579165"><ele>8.0</ele><time>2026-05-02T07:29:24.363Z</time></trkpt><trkpt lat="39.82677" lon="8.5792833"><ele>8.0</ele><time>2026-05-02T07:29:25.363Z</time></trkpt><trkpt lat="39.8269567" lon="8.5793933"><ele>8.0</ele><time>2026-05-02T07:29:26.363Z</time></trkpt><trkpt lat="39.8271567" lon="8.5795067"><ele>8.0</ele><time>2026-05-02T07:29:27.363Z</time></trkpt><trkpt lat="39.8273633" lon="8.5796133"><ele>8.0</ele><time>2026-05-02T07:29:28.363Z</time></trkpt><trkpt lat="39.8275733" lon="8.5797217"><ele>8.0</ele><time>2026-05-02T07:29:29.363Z</time></trkpt><trkpt lat="39.82777" lon="8.57982"><ele>8.0</ele><time>2026-05-02T07:29:30.363Z</time></trkpt><trkpt lat="39.8279617" lon="8.5799367"><ele>8.0</ele><time>2026-05-02T07:29:31.363Z</time></trkpt><trkpt lat="39.8281483" lon="8.5800517"><ele>8.0</ele><time>2026-05-02T07:29:32.363Z</time></trkpt><trkpt lat="39.8283267" lon="8.580155"><ele>8.333333333333332</ele><time>2026-05-02T07:29:33.363Z</time></trkpt><trkpt lat="39.8285117" lon="8.580255"><ele>8.666666666666666</ele><time>2026-05-02T07:29:34.363Z</time></trkpt><trkpt lat="39.828695" lon="8.5803617"><ele>9.0</ele><time>2026-05-02T07:29:35.363Z</time></trkpt><trkpt lat="39.8288817" lon="8.5804617"><ele>9.0</ele><time>2026-05-02T07:29:36.363Z</time></trkpt><trkpt lat="39.82907" lon="8.58057"><ele>9.0</ele><time>2026-05-02T07:29:37.363Z</time></trkpt><trkpt lat="39.8292683" lon="8.5806717"><ele>9.0</ele><time>2026-05-02T07:29:38.363Z</time></trkpt><trkpt lat="39.829475" lon="8.5807733"><ele>8.333333333333334</ele><time>2026-05-02T07:29:39.363Z</time></trkpt><trkpt lat="39.829695" lon="8.5808867"><ele>7.666666666666667</ele><time>2026-05-02T07:29:40.363Z</time></trkpt><trkpt lat="39.8298833" lon="8.5809867"><ele>7.0</ele><time>2026-05-02T07:29:41.363Z</time></trkpt><trkpt lat="39.8300667" lon="8.5810967"><ele>6.666666666666667</ele><time>2026-05-02T07:29:42.363Z</time></trkpt><trkpt lat="39.8302483" lon="8.5811967"><ele>6.333333333333334</ele><time>2026-05-02T07:29:43.363Z</time></trkpt><trkpt lat="39.83043" lon="8.5813033"><ele>6.0</ele><time>2026-05-02T07:29:44.363Z</time></trkpt><trkpt lat="39.83063" lon="8.58141"><ele>6.0</ele><time>2026-05-02T07:29:45.363Z</time></trkpt><trkpt lat="39.8308217" lon="8.581515"><ele>6.0</ele><time>2026-05-02T07:29:46.363Z</time></trkpt><trkpt lat="39.831015" lon="8.58162"><ele>6.0</ele><time>2026-05-02T07:29:47.363Z</time></trkpt><trkpt lat="39.83121" lon="8.5817217"><ele>6.0</ele><time>2026-05-02T07:29:48.363Z</time></trkpt><trkpt lat="39.8314017" lon="8.5818217"><ele>6.0</ele><time>2026-05-02T07:29:49.363Z</time></trkpt><trkpt lat="39.8315917" lon="8.5819233"><ele>6.0</ele><time>2026-05-02T07:29:50.363Z</time></trkpt><trkpt lat="39.831785" lon="8.5820367"><ele>5.666666666666667</ele><time>2026-05-02T07:29:51.363Z</time></trkpt><trkpt lat="39.8319783" lon="8.582145"><ele>5.333333333333334</ele><time>2026-05-02T07:29:52.363Z</time></trkpt><trkpt lat="39.8321767" lon="8.5822467"><ele>5.0</ele><time>2026-05-02T07:29:53.363Z</time></trkpt><trkpt lat="39.832365" lon="8.58235"><ele>5.0</ele><time>2026-05-02T07:29:54.363Z</time></trkpt><trkpt lat="39.83256" lon="8.5824617"><ele>5.0</ele><time>2026-05-02T07:29:55.363Z</time></trkpt><trkpt lat="39.832755" lon="8.58258"><ele>5.0</ele><time>2026-05-02T07:29:56.363Z</time></trkpt><trkpt lat="39.832955" lon="8.5826917"><ele>5.0</ele><time>2026-05-02T07:29:57.363Z</time></trkpt><trkpt lat="39.8331533" lon="8.5828067"><ele>5.0</ele><time>2026-05-02T07:29:58.363Z</time></trkpt><trkpt lat="39.833355" lon="8.5829183"><ele>5.0</ele><time>2026-05-02T07:29:59.363Z</time></trkpt><trkpt lat="39.8335667" lon="8.5830333"><ele>5.0</ele><time>2026-05-02T07:30:00.363Z</time></trkpt><trkpt lat="39.8337767" lon="8.5831517"><ele>5.0</ele><time>2026-05-02T07:30:01.363Z</time></trkpt><trkpt lat="39.8339933" lon="8.5832617"><ele>5.0</ele><time>2026-05-02T07:30:02.363Z</time></trkpt><trkpt lat="39.8342" lon="8.5833717"><ele>5.0</ele><time>2026-05-02T07:30:03.363Z</time></trkpt><trkpt lat="39.8344117" lon="8.5834783"><ele>5.0</ele><time>2026-05-02T07:30:04.363Z</time></trkpt><trkpt lat="39.834625" lon="8.5836"><ele>5.0</ele><time>2026-05-02T07:30:05.363Z</time></trkpt><trkpt lat="39.8348417" lon="8.5837217"><ele>5.0</ele><time>2026-05-02T07:30:06.363Z</time></trkpt><trkpt lat="39.8350583" lon="8.5838567"><ele>5.0</ele><time>2026-05-02T07:30:07.363Z</time></trkpt><trkpt lat="39.8352667" lon="8.5839783"><ele>5.5</ele><time>2026-05-02T07:30:08.363Z</time></trkpt><trkpt lat="39.835475" lon="8.5840983"><ele>6.0</ele><time>2026-05-02T07:30:09.363Z</time></trkpt><trkpt lat="39.8356867" lon="8.5842117"><ele>6.0</ele><time>2026-05-02T07:30:10.363Z</time></trkpt><trkpt lat="39.8358883" lon="8.58432"><ele>6.0</ele><time>2026-05-02T07:30:11.363Z</time></trkpt><trkpt lat="39.8360817" lon="8.5844383"><ele>6.0</ele><time>2026-05-02T07:30:12.363Z</time></trkpt><trkpt lat="39.83629" lon="8.584545"><ele>5.333333333333333</ele><time>2026-05-02T07:30:13.363Z</time></trkpt><trkpt lat="39.8365" lon="8.5846333"><ele>4.666666666666666</ele><time>2026-05-02T07:30:14.363Z</time></trkpt><trkpt lat="39.8367067" lon="8.58473"><ele>4.0</ele><time>2026-05-02T07:30:15.363Z</time></trkpt><trkpt lat="39.8369033" lon="8.584815"><ele>4.0</ele><time>2026-05-02T07:30:16.363Z</time></trkpt><trkpt lat="39.837095" lon="8.5848967"><ele>4.0</ele><time>2026-05-02T07:30:17.363Z</time></trkpt><trkpt lat="39.8372833" lon="8.5849883"><ele>4.0</ele><time>2026-05-02T07:30:18.363Z</time></trkpt><trkpt lat="39.837485" lon="8.5850883"><ele>2.5</ele><time>2026-05-02T07:30:19.363Z</time></trkpt><trkpt lat="39.8377" lon="8.585185"><ele>1.0</ele><time>2026-05-02T07:30:20.363Z</time></trkpt><trkpt lat="39.837925" lon="8.5852833"><ele>2.0</ele><time>2026-05-02T07:30:21.363Z</time></trkpt><trkpt lat="39.8381483" lon="8.58539"><ele>3.0</ele><time>2026-05-02T07:30:22.363Z</time></trkpt><trkpt lat="39.8383633" lon="8.58548"><ele>3.5</ele><time>2026-05-02T07:30:23.363Z</time></trkpt><trkpt lat="39.8385783" lon="8.5855867"><ele>4.0</ele><time>2026-05-02T07:30:24.363Z</time></trkpt><trkpt lat="39.8387933" lon="8.5856817"><ele>4.0</ele><time>2026-05-02T07:30:25.363Z</time></trkpt><trkpt lat="39.8390083" lon="8.5857717"><ele>4.0</ele><time>2026-05-02T07:30:26.363Z</time></trkpt><trkpt lat="39.8392233" lon="8.5858667"><ele>3.5</ele><time>2026-05-02T07:30:27.363Z</time></trkpt><trkpt lat="39.8394367" lon="8.5859617"><ele>3.0</ele><time>2026-05-02T07:30:28.363Z</time></trkpt><trkpt lat="39.83965" lon="8.586055"><ele>3.0</ele><time>2026-05-02T07:30:29.363Z</time></trkpt><trkpt lat="39.839875" lon="8.586165"><ele>3.0</ele><time>2026-05-02T07:30:30.363Z</time></trkpt><trkpt lat="39.840095" lon="8.5862717"><ele>4.5</ele><time>2026-05-02T07:30:31.363Z</time></trkpt><trkpt lat="39.840315" lon="8.5863683"><ele>6.0</ele><time>2026-05-02T07:30:32.363Z</time></trkpt><trkpt lat="39.8405367" lon="8.5864567"><ele>6.0</ele><time>2026-05-02T07:30:33.363Z</time></trkpt><trkpt lat="39.84076" lon="8.58656"><ele>6.0</ele><time>2026-05-02T07:30:34.363Z</time></trkpt><trkpt lat="39.840975" lon="8.586655"><ele>6.0</ele><time>2026-05-02T07:30:35.363Z</time></trkpt><trkpt lat="39.84119" lon="8.5867583"><ele>6.0</ele><time>2026-05-02T07:30:36.363Z</time></trkpt><trkpt lat="39.8414167" lon="8.5868533"><ele>6.0</ele><time>2026-05-02T07:30:37.363Z</time></trkpt><trkpt lat="39.84164" lon="8.586955"><ele>6.0</ele><time>2026-05-02T07:30:38.363Z</time></trkpt><trkpt lat="39.8418633" lon="8.5870467"><ele>5.5</ele><time>2026-05-02T07:30:39.363Z</time></trkpt><trkpt lat="39.8420783" lon="8.5871483"><ele>5.0</ele><time>2026-05-02T07:30:40.363Z</time></trkpt><trkpt lat="39.8422883" lon="8.5872517"><ele>5.0</ele><time>2026-05-02T07:30:41.363Z</time></trkpt><trkpt lat="39.8425" lon="8.587345"><ele>5.0</ele><time>2026-05-02T07:30:42.363Z</time></trkpt><trkpt lat="39.8427133" lon="8.5874433"><ele>4.0</ele><time>2026-05-02T07:30:43.363Z</time></trkpt><trkpt lat="39.8429217" lon="8.5875333"><ele>3.0</ele><time>2026-05-02T07:30:44.363Z</time></trkpt><trkpt lat="39.8431367" lon="8.5876283"><ele>2.0</ele><time>2026-05-02T07:30:45.363Z</time></trkpt><trkpt lat="39.843345" lon="8.587725"><ele>1.6666666666666665</ele><time>2026-05-02T07:30:46.363Z</time></trkpt><trkpt lat="39.84356" lon="8.5878183"><ele>1.3333333333333333</ele><time>2026-05-02T07:30:47.363Z</time></trkpt><trkpt lat="39.8437633" lon="8.5879233"><ele>1.0</ele><time>2026-05-02T07:30:48.363Z</time></trkpt><trkpt lat="39.8439517" lon="8.5880033"><ele>1.6666666666666665</ele><time>2026-05-02T07:30:49.363Z</time></trkpt><trkpt lat="39.84413" lon="8.588085"><ele>2.3333333333333335</ele><time>2026-05-02T07:30:50.363Z</time></trkpt><trkpt lat="39.8443067" lon="8.5881583"><ele>3.0</ele><time>2026-05-02T07:30:51.363Z</time></trkpt><trkpt lat="39.844485" lon="8.58824"><ele>3.0</ele><time>2026-05-02T07:30:52.363Z</time></trkpt><trkpt lat="39.8446767" lon="8.5883333"><ele>3.0</ele><time>2026-05-02T07:30:53.363Z</time></trkpt><trkpt lat="39.8448683" lon="8.5884183"><ele>3.0</ele><time>2026-05-02T07:30:54.363Z</time></trkpt><trkpt lat="39.8450617" lon="8.5885017"><ele>2.6666666666666665</ele><time>2026-05-02T07:30:55.363Z</time></trkpt><trkpt lat="39.845255" lon="8.588605"><ele>2.333333333333333</ele><time>2026-05-02T07:30:56.363Z</time></trkpt><trkpt lat="39.8454383" lon="8.5887317"><ele>2.0</ele><time>2026-05-02T07:30:57.363Z</time></trkpt><trkpt lat="39.845615" lon="8.58886"><ele>2.0</ele><time>2026-05-02T07:30:58.363Z</time></trkpt><trkpt lat="39.8457583" lon="8.5889817"><ele>2.0</ele><time>2026-05-02T07:30:59.363Z</time></trkpt><trkpt lat="39.84589" lon="8.5890883"><ele>2.0</ele><time>2026-05-02T07:31:00.363Z</time></trkpt><trkpt lat="39.8460033" lon="8.58919"><ele>2.0</ele><time>2026-05-02T07:31:01.363Z</time></trkpt><trkpt lat="39.8461183" lon="8.5892883"><ele>2.0</ele><time>2026-05-02T07:31:02.363Z</time></trkpt><trkpt lat="39.84623" lon="8.5893917"><ele>2.0</ele><time>2026-05-02T07:31:03.363Z</time></trkpt><trkpt lat="39.8463367" lon="8.589485"><ele>2.0</ele><time>2026-05-02T07:31:04.363Z</time></trkpt><trkpt lat="39.8464333" lon="8.5895567"><ele>2.2</ele><time>2026-05-02T07:31:05.363Z</time></trkpt><trkpt lat="39.8465233" lon="8.5896183"><ele>2.4000000000000004</ele><time>2026-05-02T07:31:06.363Z</time></trkpt><trkpt lat="39.8466067" lon="8.589645"><ele>2.5999999999999996</ele><time>2026-05-02T07:31:07.363Z</time></trkpt><trkpt lat="39.8466867" lon="8.5896317"><ele>2.8</ele><time>2026-05-02T07:31:08.363Z</time></trkpt><trkpt lat="39.8467717" lon="8.5895633"><ele>3.0</ele><time>2026-05-02T07:31:09.363Z</time></trkpt><trkpt lat="39.8468483" lon="8.5894483"><ele>3.0</ele><time>2026-05-02T07:31:10.363Z</time></trkpt><trkpt lat="39.8469267" lon="8.5893033"><ele>3.0</ele><time>2026-05-02T07:31:11.363Z</time></trkpt><trkpt lat="39.846995" lon="8.58914"><ele>3.0</ele><time>2026-05-02T07:31:12.363Z</time></trkpt><trkpt lat="39.8470767" lon="8.5889683"><ele>3.0</ele><time>2026-05-02T07:31:13.363Z</time></trkpt><trkpt lat="39.847165" lon="8.5887867"><ele>3.666666666666667</ele><time>2026-05-02T07:31:14.363Z</time></trkpt><trkpt lat="39.847265" lon="8.5885967"><ele>4.333333333333334</ele><time>2026-05-02T07:31:15.363Z</time></trkpt><trkpt lat="39.847365" lon="8.5884"><ele>5.0</ele><time>2026-05-02T07:31:16.363Z</time></trkpt><trkpt lat="39.8474683" lon="8.58821"><ele>5.0</ele><time>2026-05-02T07:31:17.363Z</time></trkpt><trkpt lat="39.8475717" lon="8.5880083"><ele>5.0</ele><time>2026-05-02T07:31:18.363Z</time></trkpt><trkpt lat="39.8476767" lon="8.5877933"><ele>5.0</ele><time>2026-05-02T07:31:19.363Z</time></trkpt><trkpt lat="39.847785" lon="8.587575"><ele>4.666666666666667</ele><time>2026-05-02T07:31:20.363Z</time></trkpt><trkpt lat="39.8479017" lon="8.58736"><ele>4.333333333333333</ele><time>2026-05-02T07:31:21.363Z</time></trkpt><trkpt lat="39.848015" lon="8.5871333"><ele>4.0</ele><time>2026-05-02T07:31:22.363Z</time></trkpt><trkpt lat="39.848125" lon="8.58691"><ele>4.0</ele><time>2026-05-02T07:31:23.363Z</time></trkpt><trkpt lat="39.8482233" lon="8.5866967"><ele>4.0</ele><time>2026-05-02T07:31:24.363Z</time></trkpt><trkpt lat="39.8483333" lon="8.586495"><ele>4.0</ele><time>2026-05-02T07:31:25.363Z</time></trkpt><trkpt lat="39.84844" lon="8.5862817"><ele>3.6666666666666665</ele><time>2026-05-02T07:31:26.363Z</time></trkpt><trkpt lat="39.8485517" lon="8.5860667"><ele>3.333333333333333</ele><time>2026-05-02T07:31:27.363Z</time></trkpt><trkpt lat="39.848665" lon="8.5858467"><ele>3.0</ele><time>2026-05-02T07:31:28.363Z</time></trkpt><trkpt lat="39.84878" lon="8.5856183"><ele>3.0</ele><time>2026-05-02T07:31:29.363Z</time></trkpt><trkpt lat="39.8488967" lon="8.5853867"><ele>3.0</ele><time>2026-05-02T07:31:30.363Z</time></trkpt><trkpt lat="39.8490117" lon="8.5851517"><ele>3.0</ele><time>2026-05-02T07:31:31.362Z</time></trkpt><trkpt lat="39.8491317" lon="8.5849283"><ele>3.0</ele><time>2026-05-02T07:31:32.363Z</time></trkpt><trkpt lat="39.84925" lon="8.5846883"><ele>3.0</ele><time>2026-05-02T07:31:33.363Z</time></trkpt><trkpt lat="39.849375" lon="8.5844367"><ele>3.0</ele><time>2026-05-02T07:31:34.363Z</time></trkpt><trkpt lat="39.8494967" lon="8.584195"><ele>3.0</ele><time>2026-05-02T07:31:35.363Z</time></trkpt><trkpt lat="39.8496183" lon="8.5839567"><ele>3.0</ele><time>2026-05-02T07:31:36.363Z</time></trkpt><trkpt lat="39.8497367" lon="8.5837167"><ele>3.0</ele><time>2026-05-02T07:31:37.363Z</time></trkpt><trkpt lat="39.849865" lon="8.5834783"><ele>3.5</ele><time>2026-05-02T07:31:38.363Z</time></trkpt><trkpt lat="39.849985" lon="8.5832217"><ele>4.0</ele><time>2026-05-02T07:31:39.363Z</time></trkpt><trkpt lat="39.8501117" lon="8.5829533"><ele>3.5</ele><time>2026-05-02T07:31:40.363Z</time></trkpt><trkpt lat="39.8502433" lon="8.5826967"><ele>3.0</ele><time>2026-05-02T07:31:41.363Z</time></trkpt><trkpt lat="39.85037" lon="8.582445"><ele>3.0</ele><time>2026-05-02T07:31:42.363Z</time></trkpt><trkpt lat="39.8505" lon="8.582185"><ele>3.0</ele><time>2026-05-02T07:31:43.363Z</time></trkpt><trkpt lat="39.8506267" lon="8.5819267"><ele>3.0</ele><time>2026-05-02T07:31:44.363Z</time></trkpt><trkpt lat="39.850755" lon="8.5816933"><ele>3.0</ele><time>2026-05-02T07:31:45.363Z</time></trkpt><trkpt lat="39.850895" lon="8.581465"><ele>3.0</ele><time>2026-05-02T07:31:46.363Z</time></trkpt><trkpt lat="39.8510383" lon="8.58124"><ele>2.6666666666666665</ele><time>2026-05-02T07:31:47.363Z</time></trkpt><trkpt lat="39.85119" lon="8.5810217"><ele>2.333333333333333</ele><time>2026-05-02T07:31:48.363Z</time></trkpt><trkpt lat="39.85134" lon="8.5808067"><ele>2.0</ele><time>2026-05-02T07:31:49.363Z</time></trkpt><trkpt lat="39.8514967" lon="8.5806067"><ele>2.0</ele><time>2026-05-02T07:31:50.363Z</time></trkpt><trkpt lat="39.85167" lon="8.5804433"><ele>2.0</ele><time>2026-05-02T07:31:51.363Z</time></trkpt><trkpt lat="39.851825" lon="8.5802417"><ele>2.0</ele><time>2026-05-02T07:31:52.363Z</time></trkpt><trkpt lat="39.851985" lon="8.5800217"><ele>2.333333333333333</ele><time>2026-05-02T07:31:53.363Z</time></trkpt><trkpt lat="39.85214" lon="8.57981"><ele>2.6666666666666665</ele><time>2026-05-02T07:31:54.363Z</time></trkpt><trkpt lat="39.8522967" lon="8.5796083"><ele>3.0</ele><time>2026-05-02T07:31:55.363Z</time></trkpt><trkpt lat="39.8524617" lon="8.5794083"><ele>3.0</ele><time>2026-05-02T07:31:56.363Z</time></trkpt><trkpt lat="39.8526217" lon="8.5792083"><ele>3.0</ele><time>2026-05-02T07:31:57.363Z</time></trkpt><trkpt lat="39.8527783" lon="8.5790133"><ele>3.0</ele><time>2026-05-02T07:31:58.363Z</time></trkpt><trkpt lat="39.8529183" lon="8.578835"><ele>2.3333333333333335</ele><time>2026-05-02T07:31:59.363Z</time></trkpt><trkpt lat="39.853055" lon="8.5786767"><ele>1.6666666666666665</ele><time>2026-05-02T07:32:00.363Z</time></trkpt><trkpt lat="39.85319" lon="8.57853"><ele>1.0</ele><time>2026-05-02T07:32:01.364Z</time></trkpt><trkpt lat="39.8533083" lon="8.5783883"><ele>1.0</ele><time>2026-05-02T07:32:02.363Z</time></trkpt><trkpt lat="39.85342" lon="8.5782583"><ele>1.0</ele><time>2026-05-02T07:32:03.363Z</time></trkpt><trkpt lat="39.853525" lon="8.5781483"><ele>1.0</ele><time>2026-05-02T07:32:04.363Z</time></trkpt><trkpt lat="39.8536317" lon="8.5780533"><ele>1.0</ele><time>2026-05-02T07:32:05.363Z</time></trkpt><trkpt lat="39.8537383" lon="8.57796"><ele>1.75</ele><time>2026-05-02T07:32:06.363Z</time></trkpt><trkpt lat="39.85383" lon="8.5778567"><ele>2.5</ele><time>2026-05-02T07:32:07.363Z</time></trkpt><trkpt lat="39.85392" lon="8.5777183"><ele>3.25</ele><time>2026-05-02T07:32:08.363Z</time></trkpt><trkpt lat="39.8540233" lon="8.5775583"><ele>4.0</ele><time>2026-05-02T07:32:09.363Z</time></trkpt><trkpt lat="39.8541367" lon="8.5773933"><ele>4.0</ele><time>2026-05-02T07:32:10.363Z</time></trkpt><trkpt lat="39.8542617" lon="8.57723"><ele>4.0</ele><time>2026-05-02T07:32:11.363Z</time></trkpt><trkpt lat="39.8544067" lon="8.5770483"><ele>4.0</ele><time>2026-05-02T07:32:12.363Z</time></trkpt><trkpt lat="39.85457" lon="8.576865"><ele>4.5</ele><time>2026-05-02T07:32:13.363Z</time></trkpt><trkpt lat="39.8547467" lon="8.5766617"><ele>5.0</ele><time>2026-05-02T07:32:14.363Z</time></trkpt><trkpt lat="39.8549167" lon="8.57645"><ele>5.0</ele><time>2026-05-02T07:32:15.363Z</time></trkpt><trkpt lat="39.8550917" lon="8.5762333"><ele>5.0</ele><time>2026-05-02T07:32:16.363Z</time></trkpt><trkpt lat="39.8552717" lon="8.576015"><ele>5.0</ele><time>2026-05-02T07:32:17.363Z</time></trkpt><trkpt lat="39.855455" lon="8.5757917"><ele>5.0</ele><time>2026-05-02T07:32:18.363Z</time></trkpt><trkpt lat="39.8556333" lon="8.5755667"><ele>5.0</ele><time>2026-05-02T07:32:19.363Z</time></trkpt><trkpt lat="39.85581" lon="8.5753583"><ele>5.0</ele><time>2026-05-02T07:32:20.363Z</time></trkpt><trkpt lat="39.8559833" lon="8.5751533"><ele>6.0</ele><time>2026-05-02T07:32:21.363Z</time></trkpt><trkpt lat="39.8561483" lon="8.57495"><ele>7.0</ele><time>2026-05-02T07:32:22.363Z</time></trkpt><trkpt lat="39.856325" lon="8.57475"><ele>7.0</ele><time>2026-05-02T07:32:23.363Z</time></trkpt><trkpt lat="39.8564983" lon="8.5745533"><ele>7.0</ele><time>2026-05-02T07:32:24.363Z</time></trkpt><trkpt lat="39.85667" lon="8.5743667"><ele>6.333333333333334</ele><time>2026-05-02T07:32:25.363Z</time></trkpt><trkpt lat="39.8568467" lon="8.5741983"><ele>5.666666666666667</ele><time>2026-05-02T07:32:26.363Z</time></trkpt><trkpt lat="39.857035" lon="8.5740683"><ele>5.0</ele><time>2026-05-02T07:32:27.363Z</time></trkpt><trkpt lat="39.8572183" lon="8.5739517"><ele>5.0</ele><time>2026-05-02T07:32:28.363Z</time></trkpt><trkpt lat="39.85741" lon="8.5738667"><ele>5.0</ele><time>2026-05-02T07:32:29.363Z</time></trkpt><trkpt lat="39.8576183" lon="8.5737967"><ele>5.0</ele><time>2026-05-02T07:32:30.363Z</time></trkpt><trkpt lat="39.8578433" lon="8.5737433"><ele>4.5</ele><time>2026-05-02T07:32:31.363Z</time></trkpt><trkpt lat="39.858065" lon="8.5737"><ele>4.0</ele><time>2026-05-02T07:32:32.363Z</time></trkpt><trkpt lat="39.8582967" lon="8.5736617"><ele>3.0</ele><time>2026-05-02T07:32:33.363Z</time></trkpt><trkpt lat="39.858525" lon="8.5736417"><ele>2.0</ele><time>2026-05-02T07:32:34.363Z</time></trkpt><trkpt lat="39.8587583" lon="8.5736167"><ele>2.0</ele><time>2026-05-02T07:32:35.363Z</time></trkpt><trkpt lat="39.8589867" lon="8.57358"><ele>2.0</ele><time>2026-05-02T07:32:36.363Z</time></trkpt><trkpt lat="39.8592067" lon="8.5735383"><ele>3.0</ele><time>2026-05-02T07:32:37.363Z</time></trkpt><trkpt lat="39.8594283" lon="8.5734983"><ele>4.0</ele><time>2026-05-02T07:32:38.363Z</time></trkpt><trkpt lat="39.859655" lon="8.5734567"><ele>4.0</ele><time>2026-05-02T07:32:39.363Z</time></trkpt><trkpt lat="39.8598917" lon="8.5734183"><ele>4.0</ele><time>2026-05-02T07:32:40.363Z</time></trkpt><trkpt lat="39.8601283" lon="8.5733833"><ele>4.0</ele><time>2026-05-02T07:32:41.363Z</time></trkpt><trkpt lat="39.8603633" lon="8.5733533"><ele>4.0</ele><time>2026-05-02T07:32:42.363Z</time></trkpt><trkpt lat="39.8606067" lon="8.573325"><ele>4.0</ele><time>2026-05-02T07:32:43.363Z</time></trkpt><trkpt lat="39.8608517" lon="8.57329"><ele>4.0</ele><time>2026-05-02T07:32:44.363Z</time></trkpt><trkpt lat="39.8610933" lon="8.5732567"><ele>4.0</ele><time>2026-05-02T07:32:45.363Z</time></trkpt><trkpt lat="39.861335" lon="8.5732233"><ele>4.0</ele><time>2026-05-02T07:32:46.363Z</time></trkpt><trkpt lat="39.861575" lon="8.5731883"><ele>4.5</ele><time>2026-05-02T07:32:47.363Z</time></trkpt><trkpt lat="39.8618133" lon="8.5731533"><ele>5.0</ele><time>2026-05-02T07:32:48.363Z</time></trkpt><trkpt lat="39.8620467" lon="8.5731233"><ele>5.0</ele><time>2026-05-02T07:32:49.363Z</time></trkpt><trkpt lat="39.8622783" lon="8.57309"><ele>5.0</ele><time>2026-05-02T07:32:50.363Z</time></trkpt><trkpt lat="39.86251" lon="8.573055"><ele>5.0</ele><time>2026-05-02T07:32:51.363Z</time></trkpt><trkpt lat="39.8627367" lon="8.5730233"><ele>5.0</ele><time>2026-05-02T07:32:52.363Z</time></trkpt><trkpt lat="39.8629633" lon="8.572995"><ele>5.0</ele><time>2026-05-02T07:32:53.363Z</time></trkpt><trkpt lat="39.8631917" lon="8.5729683"><ele>5.0</ele><time>2026-05-02T07:32:54.363Z</time></trkpt><trkpt lat="39.863415" lon="8.5729383"><ele>4.0</ele><time>2026-05-02T07:32:55.363Z</time></trkpt><trkpt lat="39.86364" lon="8.57291"><ele>3.0</ele><time>2026-05-02T07:32:56.363Z</time></trkpt><trkpt lat="39.8638667" lon="8.5728833"><ele>3.0</ele><time>2026-05-02T07:32:57.363Z</time></trkpt><trkpt lat="39.86409" lon="8.5728583"><ele>3.0</ele><time>2026-05-02T07:32:58.363Z</time></trkpt><trkpt lat="39.864315" lon="8.5728367"><ele>3.5</ele><time>2026-05-02T07:32:59.363Z</time></trkpt><trkpt lat="39.8645417" lon="8.5727933"><ele>4.0</ele><time>2026-05-02T07:33:00.363Z</time></trkpt><trkpt lat="39.86476" lon="8.572745"><ele>4.0</ele><time>2026-05-02T07:33:01.363Z</time></trkpt><trkpt lat="39.8649633" lon="8.5726983"><ele>4.0</ele><time>2026-05-02T07:33:02.363Z</time></trkpt><trkpt lat="39.8651767" lon="8.57259"><ele>4.0</ele><time>2026-05-02T07:33:03.363Z</time></trkpt><trkpt lat="39.865385" lon="8.57245"><ele>4.0</ele><time>2026-05-02T07:33:04.363Z</time></trkpt><trkpt lat="39.865585" lon="8.5722933"><ele>4.0</ele><time>2026-05-02T07:33:05.363Z</time></trkpt><trkpt lat="39.8657717" lon="8.572105"><ele>3.5</ele><time>2026-05-02T07:33:06.363Z</time></trkpt><trkpt lat="39.8659483" lon="8.5718967"><ele>3.0</ele><time>2026-05-02T07:33:07.363Z</time></trkpt><trkpt lat="39.8661317" lon="8.5716617"><ele>3.0</ele><time>2026-05-02T07:33:08.363Z</time></trkpt><trkpt lat="39.86629" lon="8.5714283"><ele>3.0</ele><time>2026-05-02T07:33:09.363Z</time></trkpt><trkpt lat="39.8664533" lon="8.57119"><ele>3.5</ele><time>2026-05-02T07:33:10.363Z</time></trkpt><trkpt lat="39.8666167" lon="8.5709583"><ele>4.0</ele><time>2026-05-02T07:33:11.363Z</time></trkpt><trkpt lat="39.8667683" lon="8.5707467"><ele>4.0</ele><time>2026-05-02T07:33:12.363Z</time></trkpt><trkpt lat="39.86692" lon="8.5705433"><ele>4.0</ele><time>2026-05-02T07:33:13.363Z</time></trkpt><trkpt lat="39.8670717" lon="8.5703533"><ele>4.0</ele><time>2026-05-02T07:33:14.363Z</time></trkpt><trkpt lat="39.867205" lon="8.5701683"><ele>4.333333333333333</ele><time>2026-05-02T07:33:15.363Z</time></trkpt><trkpt lat="39.8673283" lon="8.569995"><ele>4.666666666666667</ele><time>2026-05-02T07:33:16.363Z</time></trkpt><trkpt lat="39.8674467" lon="8.5698317"><ele>5.0</ele><time>2026-05-02T07:33:17.363Z</time></trkpt><trkpt lat="39.867575" lon="8.56968"><ele>4.666666666666667</ele><time>2026-05-02T07:33:18.363Z</time></trkpt><trkpt lat="39.867715" lon="8.569545"><ele>4.333333333333333</ele><time>2026-05-02T07:33:19.363Z</time></trkpt><trkpt lat="39.8678617" lon="8.5694333"><ele>4.0</ele><time>2026-05-02T07:33:20.363Z</time></trkpt><trkpt lat="39.8680317" lon="8.56934"><ele>4.0</ele><time>2026-05-02T07:33:21.363Z</time></trkpt><trkpt lat="39.8682133" lon="8.56926"><ele>4.0</ele><time>2026-05-02T07:33:22.363Z</time></trkpt><trkpt lat="39.8683983" lon="8.5692"><ele>4.0</ele><time>2026-05-02T07:33:23.363Z</time></trkpt><trkpt lat="39.8686017" lon="8.5691733"><ele>3.0</ele><time>2026-05-02T07:33:24.363Z</time></trkpt><trkpt lat="39.8688" lon="8.5691367"><ele>2.0</ele><time>2026-05-02T07:33:25.363Z</time></trkpt><trkpt lat="39.8690083" lon="8.5691033"><ele>1.0</ele><time>2026-05-02T07:33:26.363Z</time></trkpt><trkpt lat="39.8692183" lon="8.5690717"><ele>1.0</ele><time>2026-05-02T07:33:27.363Z</time></trkpt><trkpt lat="39.869435" lon="8.569045"><ele>1.0</ele><time>2026-05-02T07:33:28.363Z</time></trkpt><trkpt lat="39.8696617" lon="8.569015"><ele>1.0</ele><time>2026-05-02T07:33:29.363Z</time></trkpt><trkpt lat="39.869885" lon="8.56898"><ele>1.6666666666666665</ele><time>2026-05-02T07:33:30.363Z</time></trkpt><trkpt lat="39.8701117" lon="8.5689567"><ele>2.3333333333333335</ele><time>2026-05-02T07:33:31.363Z</time></trkpt><trkpt lat="39.8703283" lon="8.568945"><ele>3.0</ele><time>2026-05-02T07:33:32.363Z</time></trkpt><trkpt lat="39.8705433" lon="8.5689267"><ele>3.0</ele><time>2026-05-02T07:33:33.363Z</time></trkpt><trkpt lat="39.87076" lon="8.5689083"><ele>3.0</ele><time>2026-05-02T07:33:34.363Z</time></trkpt><trkpt lat="39.8709817" lon="8.56888"><ele>3.0</ele><time>2026-05-02T07:33:35.363Z</time></trkpt><trkpt lat="39.8711817" lon="8.5688533"><ele>2.6666666666666665</ele><time>2026-05-02T07:33:36.363Z</time></trkpt><trkpt lat="39.8713717" lon="8.5688383"><ele>2.333333333333333</ele><time>2026-05-02T07:33:37.363Z</time></trkpt><trkpt lat="39.8715533" lon="8.5688233"><ele>2.0</ele><time>2026-05-02T07:33:38.363Z</time></trkpt><trkpt lat="39.8717283" lon="8.5688233"><ele>2.6666666666666665</ele><time>2026-05-02T07:33:39.363Z</time></trkpt><trkpt lat="39.8718933" lon="8.568845"><ele>3.333333333333333</ele><time>2026-05-02T07:33:40.363Z</time></trkpt><trkpt lat="39.872045" lon="8.5688933"><ele>4.0</ele><time>2026-05-02T07:33:41.363Z</time></trkpt><trkpt lat="39.8722083" lon="8.5689783"><ele>4.0</ele><time>2026-05-02T07:33:42.363Z</time></trkpt><trkpt lat="39.8723633" lon="8.5690917"><ele>4.0</ele><time>2026-05-02T07:33:43.363Z</time></trkpt><trkpt lat="39.8725133" lon="8.5692217"><ele>4.0</ele><time>2026-05-02T07:33:44.363Z</time></trkpt><trkpt lat="39.87265" lon="8.56939"><ele>3.6666666666666665</ele><time>2026-05-02T07:33:45.363Z</time></trkpt><trkpt lat="39.872775" lon="8.5695817"><ele>3.333333333333333</ele><time>2026-05-02T07:33:46.363Z</time></trkpt><trkpt lat="39.8728883" lon="8.5697717"><ele>3.0</ele><time>2026-05-02T07:33:47.363Z</time></trkpt><trkpt lat="39.8730067" lon="8.5699667"><ele>3.0</ele><time>2026-05-02T07:33:48.363Z</time></trkpt><trkpt lat="39.873135" lon="8.57016"><ele>3.0</ele><time>2026-05-02T07:33:49.363Z</time></trkpt><trkpt lat="39.8732567" lon="8.5703533"><ele>3.0</ele><time>2026-05-02T07:33:50.363Z</time></trkpt><trkpt lat="39.8733817" lon="8.570535"><ele>2.6666666666666665</ele><time>2026-05-02T07:33:51.363Z</time></trkpt><trkpt lat="39.8735067" lon="8.57072"><ele>2.333333333333333</ele><time>2026-05-02T07:33:52.363Z</time></trkpt><trkpt lat="39.8736283" lon="8.5709017"><ele>2.0</ele><time>2026-05-02T07:33:53.363Z</time></trkpt><trkpt lat="39.8737517" lon="8.5710833"><ele>2.0</ele><time>2026-05-02T07:33:54.363Z</time></trkpt><trkpt lat="39.8738633" lon="8.5712533"><ele>2.0</ele><time>2026-05-02T07:33:55.363Z</time></trkpt><trkpt lat="39.8739633" lon="8.5714067"><ele>2.0</ele><time>2026-05-02T07:33:56.363Z</time></trkpt><trkpt lat="39.8740517" lon="8.5715283"><ele>1.9999999999999998</ele><time>2026-05-02T07:33:57.363Z</time></trkpt><trkpt lat="39.8741233" lon="8.571625"><ele>2.0</ele><time>2026-05-02T07:33:58.363Z</time></trkpt><trkpt lat="39.8741783" lon="8.571705"><ele>2.0</ele><time>2026-05-02T07:33:59.363Z</time></trkpt><trkpt lat="39.8742283" lon="8.5717717"><ele>2.0</ele><time>2026-05-02T07:34:00.363Z</time></trkpt><trkpt lat="39.8742883" lon="8.5718"><ele>1.9999999999999998</ele><time>2026-05-02T07:34:01.363Z</time></trkpt><trkpt lat="39.8743883" lon="8.57177"><ele>2.0</ele><time>2026-05-02T07:34:03.363Z</time></trkpt><trkpt lat="39.87447" lon="8.5717033"><ele>1.8</ele><time>2026-05-02T07:34:05.363Z</time></trkpt><trkpt lat="39.8745717" lon="8.5716583"><ele>1.6</ele><time>2026-05-02T07:34:07.363Z</time></trkpt><trkpt lat="39.8746767" lon="8.5717083"><ele>1.4000000000000001</ele><time>2026-05-02T07:34:09.363Z</time></trkpt><trkpt lat="39.8747217" lon="8.57177"><ele>1.2000000000000002</ele><time>2026-05-02T07:34:10.363Z</time></trkpt><trkpt lat="39.8747767" lon="8.5718583"><ele>1.0</ele><time>2026-05-02T07:34:11.363Z</time></trkpt><trkpt lat="39.8748333" lon="8.5719483"><ele>1.0</ele><time>2026-05-02T07:34:12.363Z</time></trkpt><trkpt lat="39.8748883" lon="8.5720333"><ele>1.0</ele><time>2026-05-02T07:34:13.363Z</time></trkpt><trkpt lat="39.8749367" lon="8.5721083"><ele>1.0</ele><time>2026-05-02T07:34:14.363Z</time></trkpt><trkpt lat="39.8749933" lon="8.572195"><ele>1.0</ele><time>2026-05-02T07:34:15.363Z</time></trkpt><trkpt lat="39.8750617" lon="8.5722867"><ele>1.0</ele><time>2026-05-02T07:34:16.363Z</time></trkpt><trkpt lat="39.8751417" lon="8.5723933"><ele>1.0</ele><time>2026-05-02T07:34:17.363Z</time></trkpt><trkpt lat="39.8752217" lon="8.5724917"><ele>1.0</ele><time>2026-05-02T07:34:18.363Z</time></trkpt><trkpt lat="39.8753033" lon="8.572595"><ele>1.0</ele><time>2026-05-02T07:34:19.363Z</time></trkpt><trkpt lat="39.8753867" lon="8.5727017"><ele>1.0</ele><time>2026-05-02T07:34:20.363Z</time></trkpt><trkpt lat="39.8754633" lon="8.57282"><ele>1.5</ele><time>2026-05-02T07:34:21.363Z</time></trkpt><trkpt lat="39.8755467" lon="8.572935"><ele>2.0</ele><time>2026-05-02T07:34:22.363Z</time></trkpt><trkpt lat="39.8756467" lon="8.5730733"><ele>2.5</ele><time>2026-05-02T07:34:23.363Z</time></trkpt><trkpt lat="39.8757433" lon="8.573205"><ele>3.0</ele><time>2026-05-02T07:34:24.363Z</time></trkpt><trkpt lat="39.87583" lon="8.5733217"><ele>3.0</ele><time>2026-05-02T07:34:25.363Z</time></trkpt><trkpt lat="39.8759033" lon="8.573415"><ele>3.0</ele><time>2026-05-02T07:34:26.363Z</time></trkpt><trkpt lat="39.87597" lon="8.5734867"><ele>3.0</ele><time>2026-05-02T07:34:27.363Z</time></trkpt><trkpt lat="39.8760267" lon="8.5735617"><ele>3.0</ele><time>2026-05-02T07:34:28.363Z</time></trkpt><trkpt lat="39.8760867" lon="8.5736167"><ele>3.0</ele><time>2026-05-02T07:34:29.363Z</time></trkpt><trkpt lat="39.876205" lon="8.5736583"><ele>2.75</ele><time>2026-05-02T07:34:31.363Z</time></trkpt><trkpt lat="39.8762967" lon="8.5735967"><ele>2.5</ele><time>2026-05-02T07:34:33.363Z</time></trkpt><trkpt lat="39.8763867" lon="8.5734367"><ele>2.25</ele><time>2026-05-02T07:34:35.363Z</time></trkpt><trkpt lat="39.8764517" lon="8.57334"><ele>2.0</ele><time>2026-05-02T07:34:36.363Z</time></trkpt><trkpt lat="39.8765383" lon="8.5732483"><ele>2.0</ele><time>2026-05-02T07:34:37.363Z</time></trkpt><trkpt lat="39.8766383" lon="8.573155"><ele>2.0</ele><time>2026-05-02T07:34:38.363Z</time></trkpt><trkpt lat="39.8767433" lon="8.573065"><ele>2.0</ele><time>2026-05-02T07:34:39.363Z</time></trkpt><trkpt lat="39.8768483" lon="8.5729683"><ele>2.0</ele><time>2026-05-02T07:34:40.363Z</time></trkpt><trkpt lat="39.8769517" lon="8.5728633"><ele>1.75</ele><time>2026-05-02T07:34:41.363Z</time></trkpt><trkpt lat="39.8770417" lon="8.5727583"><ele>1.5</ele><time>2026-05-02T07:34:42.363Z</time></trkpt><trkpt lat="39.877135" lon="8.57266"><ele>1.25</ele><time>2026-05-02T07:34:43.363Z</time></trkpt><trkpt lat="39.8772283" lon="8.5725567"><ele>1.0</ele><time>2026-05-02T07:34:44.363Z</time></trkpt><trkpt lat="39.8773333" lon="8.5724533"><ele>1.0</ele><time>2026-05-02T07:34:45.363Z</time></trkpt><trkpt lat="39.877435" lon="8.5723617"><ele>1.0</ele><time>2026-05-02T07:34:46.363Z</time></trkpt><trkpt lat="39.87753" lon="8.5722667"><ele>1.0</ele><time>2026-05-02T07:34:47.363Z</time></trkpt><trkpt lat="39.8776333" lon="8.5721717"><ele>1.0</ele><time>2026-05-02T07:34:48.363Z</time></trkpt><trkpt lat="39.8777417" lon="8.5720767"><ele>1.25</ele><time>2026-05-02T07:34:49.363Z</time></trkpt><trkpt lat="39.87784" lon="8.5719683"><ele>1.5</ele><time>2026-05-02T07:34:50.363Z</time></trkpt><trkpt lat="39.87794" lon="8.57186"><ele>1.75</ele><time>2026-05-02T07:34:51.363Z</time></trkpt><trkpt lat="39.8780433" lon="8.5717533"><ele>2.0</ele><time>2026-05-02T07:34:52.363Z</time></trkpt><trkpt lat="39.8781567" lon="8.5716467"><ele>2.0</ele><time>2026-05-02T07:34:53.363Z</time></trkpt><trkpt lat="39.8782733" lon="8.57154"><ele>2.0</ele><time>2026-05-02T07:34:54.363Z</time></trkpt><trkpt lat="39.8783767" lon="8.5714367"><ele>2.0</ele><time>2026-05-02T07:34:55.363Z</time></trkpt><trkpt lat="39.8784767" lon="8.5713333"><ele>2.0</ele><time>2026-05-02T07:34:56.363Z</time></trkpt><trkpt lat="39.8785767" lon="8.57123"><ele>1.75</ele><time>2026-05-02T07:34:57.363Z</time></trkpt><trkpt lat="39.8786767" lon="8.5711233"><ele>1.5</ele><time>2026-05-02T07:34:58.363Z</time></trkpt><trkpt lat="39.8787783" lon="8.571015"><ele>1.25</ele><time>2026-05-02T07:34:59.363Z</time></trkpt><trkpt lat="39.8788867" lon="8.5709017"><ele>1.0</ele><time>2026-05-02T07:35:00.363Z</time></trkpt><trkpt lat="39.8789983" lon="8.5708"><ele>1.0</ele><time>2026-05-02T07:35:01.363Z</time></trkpt><trkpt lat="39.8791033" lon="8.5706983"><ele>1.0</ele><time>2026-05-02T07:35:02.363Z</time></trkpt><trkpt lat="39.8792033" lon="8.5706033"><ele>1.0</ele><time>2026-05-02T07:35:03.363Z</time></trkpt><trkpt lat="39.87929" lon="8.57051"><ele>1.0</ele><time>2026-05-02T07:35:04.363Z</time></trkpt><trkpt lat="39.8793817" lon="8.5704383"><ele>1.0</ele><time>2026-05-02T07:35:05.363Z</time></trkpt><trkpt lat="39.8794833" lon="8.5704017"><ele>1.0</ele><time>2026-05-02T07:35:06.363Z</time></trkpt><trkpt lat="39.8796" lon="8.57039"><ele>1.0</ele><time>2026-05-02T07:35:07.363Z</time></trkpt><trkpt lat="39.879725" lon="8.5703967"><ele>1.0</ele><time>2026-05-02T07:35:08.363Z</time></trkpt><trkpt lat="39.8798683" lon="8.5704183"><ele>1.0</ele><time>2026-05-02T07:35:09.363Z</time></trkpt><trkpt lat="39.8800117" lon="8.570425"><ele>1.0</ele><time>2026-05-02T07:35:10.363Z</time></trkpt><trkpt lat="39.88016" lon="8.57043"><ele>1.0</ele><time>2026-05-02T07:35:11.363Z</time></trkpt><trkpt lat="39.880305" lon="8.5704367"><ele>1.0</ele><time>2026-05-02T07:35:12.363Z</time></trkpt><trkpt lat="39.88045" lon="8.5704367"><ele>0.75</ele><time>2026-05-02T07:35:13.363Z</time></trkpt><trkpt lat="39.88059" lon="8.570445"><ele>0.5</ele><time>2026-05-02T07:35:14.363Z</time></trkpt><trkpt lat="39.8807167" lon="8.5704583"><ele>0.25</ele><time>2026-05-02T07:35:15.363Z</time></trkpt><trkpt lat="39.88083" lon="8.5704717"><ele>0.0</ele><time>2026-05-02T07:35:16.363Z</time></trkpt><trkpt lat="39.88093" lon="8.5704833"><ele>0.0</ele><time>2026-05-02T07:35:17.363Z</time></trkpt><trkpt lat="39.881015" lon="8.5704917"><ele>0.0</ele><time>2026-05-02T07:35:18.363Z</time></trkpt><trkpt lat="39.8810833" lon="8.5704767"><ele>0.0</ele><time>2026-05-02T07:35:19.363Z</time></trkpt><trkpt lat="39.881135" lon="8.570375"><ele>0.0</ele><time>2026-05-02T07:35:21.363Z</time></trkpt><trkpt lat="39.8811283" lon="8.5702917"><ele>0.0</ele><time>2026-05-02T07:35:22.363Z</time></trkpt><trkpt lat="39.8811133" lon="8.5702033"><ele>0.0</ele><time>2026-05-02T07:35:23.363Z</time></trkpt><trkpt lat="39.8810917" lon="8.5700967"><ele>0.0</ele><time>2026-05-02T07:35:24.363Z</time></trkpt><trkpt lat="39.8810733" lon="8.5699867"><ele>0.0</ele><time>2026-05-02T07:35:25.363Z</time></trkpt><trkpt lat="39.8810533" lon="8.5698567"><ele>0.0</ele><time>2026-05-02T07:35:26.363Z</time></trkpt><trkpt lat="39.8810417" lon="8.5697183"><ele>0.0</ele><time>2026-05-02T07:35:27.363Z</time></trkpt><trkpt lat="39.881045" lon="8.569615"><ele>0.0</ele><time>2026-05-02T07:35:28.363Z</time></trkpt><trkpt lat="39.88111" lon="8.5695"><ele>0.2</ele><time>2026-05-02T07:35:30.363Z</time></trkpt><trkpt lat="39.8811917" lon="8.5694567"><ele>0.4</ele><time>2026-05-02T07:35:32.363Z</time></trkpt><trkpt lat="39.8812317" lon="8.5693317"><ele>0.6000000000000001</ele><time>2026-05-02T07:35:34.363Z</time></trkpt><trkpt lat="39.8812267" lon="8.569225"><ele>0.8</ele><time>2026-05-02T07:35:35.363Z</time></trkpt><trkpt lat="39.8812083" lon="8.5690967"><ele>1.0</ele><time>2026-05-02T07:35:36.363Z</time></trkpt><trkpt lat="39.881195" lon="8.5689583"><ele>1.0</ele><time>2026-05-02T07:35:37.363Z</time></trkpt><trkpt lat="39.8811767" lon="8.5688083"><ele>1.0</ele><time>2026-05-02T07:35:38.363Z</time></trkpt><trkpt lat="39.8811633" lon="8.5686433"><ele>1.0</ele><time>2026-05-02T07:35:39.363Z</time></trkpt><trkpt lat="39.8811467" lon="8.5684883"><ele>1.0</ele><time>2026-05-02T07:35:40.363Z</time></trkpt><trkpt lat="39.8811333" lon="8.56833"><ele>1.0</ele><time>2026-05-02T07:35:41.363Z</time></trkpt><trkpt lat="39.8811267" lon="8.5681683"><ele>1.0</ele><time>2026-05-02T07:35:42.363Z</time></trkpt><trkpt lat="39.881115" lon="8.5680033"><ele>1.0</ele><time>2026-05-02T07:35:43.363Z</time></trkpt><trkpt lat="39.8811" lon="8.5678317"><ele>1.0</ele><time>2026-05-02T07:35:44.363Z</time></trkpt><trkpt lat="39.881085" lon="8.5676567"><ele>1.0</ele><time>2026-05-02T07:35:45.363Z</time></trkpt><trkpt lat="39.8810633" lon="8.5674817"><ele>1.0</ele><time>2026-05-02T07:35:46.363Z</time></trkpt><trkpt lat="39.8810433" lon="8.5672933"><ele>1.0</ele><time>2026-05-02T07:35:47.363Z</time></trkpt><trkpt lat="39.8810283" lon="8.5671167"><ele>1.0</ele><time>2026-05-02T07:35:48.363Z</time></trkpt><trkpt lat="39.8810133" lon="8.5669517"><ele>1.0</ele><time>2026-05-02T07:35:49.363Z</time></trkpt><trkpt lat="39.8810017" lon="8.5667867"><ele>1.0</ele><time>2026-05-02T07:35:50.363Z</time></trkpt><trkpt lat="39.8809933" lon="8.566615"><ele>1.0</ele><time>2026-05-02T07:35:51.363Z</time></trkpt><trkpt lat="39.88098" lon="8.5664583"><ele>1.0</ele><time>2026-05-02T07:35:52.363Z</time></trkpt><trkpt lat="39.8809667" lon="8.5663"><ele>0.75</ele><time>2026-05-02T07:35:53.363Z</time></trkpt><trkpt lat="39.88096" lon="8.5661317"><ele>0.5</ele><time>2026-05-02T07:35:54.363Z</time></trkpt><trkpt lat="39.8809433" lon="8.5659667"><ele>0.25</ele><time>2026-05-02T07:35:55.363Z</time></trkpt><trkpt lat="39.88093" lon="8.565805"><ele>0.0</ele><time>2026-05-02T07:35:56.363Z</time></trkpt><trkpt lat="39.8809267" lon="8.565645"><ele>0.0</ele><time>2026-05-02T07:35:57.363Z</time></trkpt><trkpt lat="39.8809317" lon="8.5654733"><ele>0.0</ele><time>2026-05-02T07:35:58.363Z</time></trkpt><trkpt lat="39.8809467" lon="8.565285"><ele>0.0</ele><time>2026-05-02T07:35:59.363Z</time></trkpt><trkpt lat="39.88098" lon="8.5650933"><ele>0.0</ele><time>2026-05-02T07:36:00.363Z</time></trkpt><trkpt lat="39.88102" lon="8.5649083"><ele>0.0</ele><time>2026-05-02T07:36:01.363Z</time></trkpt><trkpt lat="39.8810767" lon="8.5647133"><ele>0.0</ele><time>2026-05-02T07:36:02.363Z</time></trkpt><trkpt lat="39.8811333" lon="8.56452"><ele>0.0</ele><time>2026-05-02T07:36:03.363Z</time></trkpt><trkpt lat="39.8811933" lon="8.5643217"><ele>-0.3333333333333333</ele><time>2026-05-02T07:36:04.363Z</time></trkpt><trkpt lat="39.8812567" lon="8.56412"><ele>-0.6666666666666666</ele><time>2026-05-02T07:36:05.363Z</time></trkpt><trkpt lat="39.8813167" lon="8.5639117"><ele>-1.0</ele><time>2026-05-02T07:36:06.363Z</time></trkpt><trkpt lat="39.8813833" lon="8.5637183"><ele>-0.3333333333333333</ele><time>2026-05-02T07:36:07.363Z</time></trkpt><trkpt lat="39.881455" lon="8.5635183"><ele>0.3333333333333333</ele><time>2026-05-02T07:36:08.363Z</time></trkpt><trkpt lat="39.8815133" lon="8.5633067"><ele>1.0</ele><time>2026-05-02T07:36:09.363Z</time></trkpt><trkpt lat="39.88159" lon="8.563085"><ele>1.0</ele><time>2026-05-02T07:36:10.363Z</time></trkpt><trkpt lat="39.8816617" lon="8.562875"><ele>1.0</ele><time>2026-05-02T07:36:11.363Z</time></trkpt><trkpt lat="39.8817433" lon="8.5626533"><ele>1.0</ele><time>2026-05-02T07:36:12.363Z</time></trkpt><trkpt lat="39.8818233" lon="8.562435"><ele>1.0</ele><time>2026-05-02T07:36:13.363Z</time></trkpt><trkpt lat="39.88191" lon="8.5622167"><ele>1.0</ele><time>2026-05-02T07:36:14.363Z</time></trkpt><trkpt lat="39.8819983" lon="8.561995"><ele>1.0</ele><time>2026-05-02T07:36:15.363Z</time></trkpt><trkpt lat="39.88208" lon="8.561775"><ele>1.0</ele><time>2026-05-02T07:36:16.363Z</time></trkpt><trkpt lat="39.88216" lon="8.5615533"><ele>1.0</ele><time>2026-05-02T07:36:17.363Z</time></trkpt><trkpt lat="39.8822333" lon="8.5613433"><ele>1.0</ele><time>2026-05-02T07:36:18.363Z</time></trkpt><trkpt lat="39.8823083" lon="8.5611383"><ele>1.3333333333333333</ele><time>2026-05-02T07:36:19.363Z</time></trkpt><trkpt lat="39.8823717" lon="8.5609367"><ele>1.6666666666666665</ele><time>2026-05-02T07:36:20.363Z</time></trkpt><trkpt lat="39.882435" lon="8.5607433"><ele>2.0</ele><time>2026-05-02T07:36:21.363Z</time></trkpt><trkpt lat="39.8824983" lon="8.5605483"><ele>1.6666666666666665</ele><time>2026-05-02T07:36:22.363Z</time></trkpt><trkpt lat="39.8825617" lon="8.5603533"><ele>1.3333333333333333</ele><time>2026-05-02T07:36:23.363Z</time></trkpt><trkpt lat="39.8826317" lon="8.5601417"><ele>1.0</ele><time>2026-05-02T07:36:24.363Z</time></trkpt><trkpt lat="39.882705" lon="8.559935"><ele>1.0</ele><time>2026-05-02T07:36:25.363Z</time></trkpt><trkpt lat="39.8827717" lon="8.559725"><ele>1.0</ele><time>2026-05-02T07:36:26.363Z</time></trkpt><trkpt lat="39.88284" lon="8.5595167"><ele>1.0</ele><time>2026-05-02T07:36:27.363Z</time></trkpt><trkpt lat="39.8829" lon="8.55933"><ele>0.75</ele><time>2026-05-02T07:36:28.363Z</time></trkpt><trkpt lat="39.8829617" lon="8.5591467"><ele>0.5</ele><time>2026-05-02T07:36:29.363Z</time></trkpt><trkpt lat="39.8830233" lon="8.55898"><ele>0.25</ele><time>2026-05-02T07:36:30.363Z</time></trkpt><trkpt lat="39.8830683" lon="8.5588367"><ele>0.0</ele><time>2026-05-02T07:36:31.363Z</time></trkpt><trkpt lat="39.88311" lon="8.5587267"><ele>-0.2</ele><time>2026-05-02T07:36:32.363Z</time></trkpt><trkpt lat="39.8831467" lon="8.5586433"><ele>-0.4</ele><time>2026-05-02T07:36:33.363Z</time></trkpt><trkpt lat="39.883235" lon="8.5585333"><ele>-0.6000000000000001</ele><time>2026-05-02T07:36:35.363Z</time></trkpt><trkpt lat="39.8833067" lon="8.5585067"><ele>-0.8</ele><time>2026-05-02T07:36:36.363Z</time></trkpt><trkpt lat="39.8833933" lon="8.5585"><ele>-1.0</ele><time>2026-05-02T07:36:37.363Z</time></trkpt><trkpt lat="39.8834883" lon="8.5584967"><ele>-0.6000000000000001</ele><time>2026-05-02T07:36:38.363Z</time></trkpt><trkpt lat="39.883585" lon="8.5584883"><ele>-0.20000000000000007</ele><time>2026-05-02T07:36:39.363Z</time></trkpt><trkpt lat="39.8836967" lon="8.5584567"><ele>0.20000000000000007</ele><time>2026-05-02T07:36:40.363Z</time></trkpt><trkpt lat="39.8837917" lon="8.5584283"><ele>0.6000000000000001</ele><time>2026-05-02T07:36:41.363Z</time></trkpt><trkpt lat="39.8839017" lon="8.55839"><ele>1.0</ele><time>2026-05-02T07:36:42.363Z</time></trkpt><trkpt lat="39.8840083" lon="8.55836"><ele>1.0</ele><time>2026-05-02T07:36:43.363Z</time></trkpt><trkpt lat="39.88412" lon="8.5583317"><ele>1.0</ele><time>2026-05-02T07:36:44.363Z</time></trkpt><trkpt lat="39.88423" lon="8.5583067"><ele>1.0</ele><time>2026-05-02T07:36:45.363Z</time></trkpt><trkpt lat="39.8843383" lon="8.55828"><ele>1.0</ele><time>2026-05-02T07:36:46.363Z</time></trkpt><trkpt lat="39.88445" lon="8.5582533"><ele>1.0</ele><time>2026-05-02T07:36:47.363Z</time></trkpt><trkpt lat="39.8845633" lon="8.558225"><ele>1.0</ele><time>2026-05-02T07:36:48.363Z</time></trkpt><trkpt lat="39.88468" lon="8.55819"><ele>1.0</ele><time>2026-05-02T07:36:49.363Z</time></trkpt><trkpt lat="39.8847983" lon="8.5581517"><ele>1.0</ele><time>2026-05-02T07:36:50.363Z</time></trkpt><trkpt lat="39.8849233" lon="8.558105"><ele>1.0</ele><time>2026-05-02T07:36:51.363Z</time></trkpt><trkpt lat="39.8850617" lon="8.5580583"><ele>1.0</ele><time>2026-05-02T07:36:52.363Z</time></trkpt><trkpt lat="39.8851983" lon="8.558025"><ele>1.0</ele><time>2026-05-02T07:36:53.363Z</time></trkpt><trkpt lat="39.8853367" lon="8.5579867"><ele>1.0</ele><time>2026-05-02T07:36:54.363Z</time></trkpt><trkpt lat="39.8854817" lon="8.557955"><ele>1.0</ele><time>2026-05-02T07:36:55.363Z</time></trkpt><trkpt lat="39.8856267" lon="8.5579183"><ele>1.0</ele><time>2026-05-02T07:36:56.363Z</time></trkpt><trkpt lat="39.88578" lon="8.5578717"><ele>1.0</ele><time>2026-05-02T07:36:57.363Z</time></trkpt><trkpt lat="39.8859333" lon="8.557825"><ele>1.0</ele><time>2026-05-02T07:36:58.363Z</time></trkpt><trkpt lat="39.88609" lon="8.5577733"><ele>0.6666666666666666</ele><time>2026-05-02T07:36:59.363Z</time></trkpt><trkpt lat="39.8862583" lon="8.5577367"><ele>0.3333333333333333</ele><time>2026-05-02T07:37:00.363Z</time></trkpt><trkpt lat="39.886415" lon="8.5576783"><ele>0.0</ele><time>2026-05-02T07:37:01.363Z</time></trkpt><trkpt lat="39.8865817" lon="8.5576333"><ele>0.0</ele><time>2026-05-02T07:37:02.363Z</time></trkpt><trkpt lat="39.8867467" lon="8.557585"><ele>0.0</ele><time>2026-05-02T07:37:03.363Z</time></trkpt><trkpt lat="39.8869167" lon="8.5575383"><ele>0.0</ele><time>2026-05-02T07:37:04.363Z</time></trkpt><trkpt lat="39.8870817" lon="8.5574917"><ele>0.3333333333333333</ele><time>2026-05-02T07:37:05.363Z</time></trkpt><trkpt lat="39.8872433" lon="8.5574467"><ele>0.6666666666666666</ele><time>2026-05-02T07:37:06.363Z</time></trkpt><trkpt lat="39.8874017" lon="8.5573983"><ele>1.0</ele><time>2026-05-02T07:37:07.363Z</time></trkpt><trkpt lat="39.8875617" lon="8.55736"><ele>1.0</ele><time>2026-05-02T07:37:08.363Z</time></trkpt><trkpt lat="39.887715" lon="8.55732"><ele>1.0</ele><time>2026-05-02T07:37:09.363Z</time></trkpt><trkpt lat="39.8878717" lon="8.5572867"><ele>1.0</ele><time>2026-05-02T07:37:10.363Z</time></trkpt><trkpt lat="39.8880233" lon="8.5572533"><ele>1.0</ele><time>2026-05-02T07:37:11.363Z</time></trkpt><trkpt lat="39.888175" lon="8.5572067"><ele>1.0</ele><time>2026-05-02T07:37:12.363Z</time></trkpt><trkpt lat="39.8883283" lon="8.557155"><ele>1.0</ele><time>2026-05-02T07:37:13.363Z</time></trkpt><trkpt lat="39.8884733" lon="8.5571083"><ele>1.0</ele><time>2026-05-02T07:37:14.363Z</time></trkpt><trkpt lat="39.8886183" lon="8.5570667"><ele>1.0</ele><time>2026-05-02T07:37:15.363Z</time></trkpt><trkpt lat="39.8887533" lon="8.5570167"><ele>1.0</ele><time>2026-05-02T07:37:16.363Z</time></trkpt><trkpt lat="39.8889017" lon="8.5569783"><ele>1.0</ele><time>2026-05-02T07:37:17.363Z</time></trkpt><trkpt lat="39.88906" lon="8.5569383"><ele>1.0</ele><time>2026-05-02T07:37:18.363Z</time></trkpt><trkpt lat="39.8892217" lon="8.556925"><ele>1.0</ele><time>2026-05-02T07:37:19.363Z</time></trkpt><trkpt lat="39.8893817" lon="8.5568983"><ele>1.0</ele><time>2026-05-02T07:37:20.363Z</time></trkpt><trkpt lat="39.889545" lon="8.5568517"><ele>1.3333333333333333</ele><time>2026-05-02T07:37:21.363Z</time></trkpt><trkpt lat="39.8897133" lon="8.5567983"><ele>1.6666666666666665</ele><time>2026-05-02T07:37:22.363Z</time></trkpt><trkpt lat="39.88987" lon="8.5567383"><ele>2.0</ele><time>2026-05-02T07:37:23.363Z</time></trkpt><trkpt lat="39.890015" lon="8.5566717"><ele>2.0</ele><time>2026-05-02T07:37:24.363Z</time></trkpt><trkpt lat="39.89017" lon="8.5566167"><ele>2.0</ele><time>2026-05-02T07:37:25.363Z</time></trkpt><trkpt lat="39.8903283" lon="8.55657"><ele>2.0</ele><time>2026-05-02T07:37:26.363Z</time></trkpt><trkpt lat="39.8904883" lon="8.5565283"><ele>2.0</ele><time>2026-05-02T07:37:27.363Z</time></trkpt><trkpt lat="39.89065" lon="8.5564883"><ele>2.0</ele><time>2026-05-02T07:37:28.363Z</time></trkpt><trkpt lat="39.8908217" lon="8.5564433"><ele>2.0</ele><time>2026-05-02T07:37:29.363Z</time></trkpt><trkpt lat="39.890995" lon="8.5563917"><ele>2.0</ele><time>2026-05-02T07:37:30.363Z</time></trkpt><trkpt lat="39.891175" lon="8.556335"><ele>2.0</ele><time>2026-05-02T07:37:31.363Z</time></trkpt><trkpt lat="39.8913483" lon="8.55629"><ele>2.0</ele><time>2026-05-02T07:37:32.363Z</time></trkpt><trkpt lat="39.8915317" lon="8.5562467"><ele>2.0</ele><time>2026-05-02T07:37:33.363Z</time></trkpt><trkpt lat="39.8916983" lon="8.5562033"><ele>2.0</ele><time>2026-05-02T07:37:34.363Z</time></trkpt><trkpt lat="39.8918733" lon="8.5561667"><ele>2.0</ele><time>2026-05-02T07:37:35.363Z</time></trkpt><trkpt lat="39.8920383" lon="8.5561167"><ele>2.0</ele><time>2026-05-02T07:37:36.363Z</time></trkpt><trkpt lat="39.8921967" lon="8.5560567"><ele>2.0</ele><time>2026-05-02T07:37:37.363Z</time></trkpt><trkpt lat="39.8923567" lon="8.55601"><ele>2.0</ele><time>2026-05-02T07:37:38.363Z</time></trkpt><trkpt lat="39.8925217" lon="8.5559717"><ele>1.3333333333333333</ele><time>2026-05-02T07:37:39.363Z</time></trkpt><trkpt lat="39.8926733" lon="8.5559383"><ele>0.6666666666666666</ele><time>2026-05-02T07:37:40.363Z</time></trkpt><trkpt lat="39.8928283" lon="8.5558883"><ele>0.0</ele><time>2026-05-02T07:37:41.363Z</time></trkpt><trkpt lat="39.8929967" lon="8.55584"><ele>0.0</ele><time>2026-05-02T07:37:42.363Z</time></trkpt><trkpt lat="39.8931617" lon="8.5558017"><ele>0.0</ele><time>2026-05-02T07:37:43.363Z</time></trkpt><trkpt lat="39.8933217" lon="8.5557683"><ele>0.0</ele><time>2026-05-02T07:37:44.363Z</time></trkpt><trkpt lat="39.89348" lon="8.55575"><ele>0.3333333333333333</ele><time>2026-05-02T07:37:45.363Z</time></trkpt><trkpt lat="39.893635" lon="8.555725"><ele>0.6666666666666666</ele><time>2026-05-02T07:37:46.363Z</time></trkpt><trkpt lat="39.8937933" lon="8.555705"><ele>1.0</ele><time>2026-05-02T07:37:47.363Z</time></trkpt><trkpt lat="39.89395" lon="8.5556667"><ele>1.0</ele><time>2026-05-02T07:37:48.363Z</time></trkpt><trkpt lat="39.8941117" lon="8.5556233"><ele>1.0</ele><time>2026-05-02T07:37:49.363Z</time></trkpt><trkpt lat="39.8942717" lon="8.555585"><ele>1.0</ele><time>2026-05-02T07:37:50.363Z</time></trkpt><trkpt lat="39.8944383" lon="8.5555433"><ele>1.3333333333333333</ele><time>2026-05-02T07:37:51.363Z</time></trkpt><trkpt lat="39.8946" lon="8.5555067"><ele>1.6666666666666665</ele><time>2026-05-02T07:37:52.363Z</time></trkpt><trkpt lat="39.89477" lon="8.555485"><ele>2.0</ele><time>2026-05-02T07:37:53.363Z</time></trkpt><trkpt lat="39.8949467" lon="8.555465"><ele>1.6666666666666665</ele><time>2026-05-02T07:37:54.363Z</time></trkpt><trkpt lat="39.8951233" lon="8.5554467"><ele>1.3333333333333333</ele><time>2026-05-02T07:37:55.363Z</time></trkpt><trkpt lat="39.8952967" lon="8.5554317"><ele>1.0</ele><time>2026-05-02T07:37:56.363Z</time></trkpt><trkpt lat="39.895475" lon="8.5554033"><ele>1.0</ele><time>2026-05-02T07:37:57.363Z</time></trkpt><trkpt lat="39.8956683" lon="8.555365"><ele>1.0</ele><time>2026-05-02T07:37:58.363Z</time></trkpt><trkpt lat="39.8958617" lon="8.5553417"><ele>1.0</ele><time>2026-05-02T07:37:59.363Z</time></trkpt><trkpt lat="39.896055" lon="8.5553433"><ele>1.0</ele><time>2026-05-02T07:38:00.363Z</time></trkpt><trkpt lat="39.896245" lon="8.5553333"><ele>1.0</ele><time>2026-05-02T07:38:01.363Z</time></trkpt><trkpt lat="39.8964333" lon="8.5553083"><ele>1.0</ele><time>2026-05-02T07:38:02.363Z</time></trkpt><trkpt lat="39.896615" lon="8.5552767"><ele>1.6666666666666665</ele><time>2026-05-02T07:38:03.363Z</time></trkpt><trkpt lat="39.8967933" lon="8.55525"><ele>2.3333333333333335</ele><time>2026-05-02T07:38:04.363Z</time></trkpt><trkpt lat="39.8969817" lon="8.5552367"><ele>3.0</ele><time>2026-05-02T07:38:05.363Z</time></trkpt><trkpt lat="39.8971533" lon="8.5552183"><ele>3.0</ele><time>2026-05-02T07:38:06.363Z</time></trkpt><trkpt lat="39.897325" lon="8.5551983"><ele>3.0</ele><time>2026-05-02T07:38:07.363Z</time></trkpt><trkpt lat="39.897495" lon="8.55518"><ele>3.0</ele><time>2026-05-02T07:38:08.363Z</time></trkpt><trkpt lat="39.8976733" lon="8.55515"><ele>3.0</ele><time>2026-05-02T07:38:09.363Z</time></trkpt><trkpt lat="39.8978533" lon="8.55512"><ele>3.0</ele><time>2026-05-02T07:38:10.363Z</time></trkpt><trkpt lat="39.8980167" lon="8.5551033"><ele>3.0</ele><time>2026-05-02T07:38:11.363Z</time></trkpt><trkpt lat="39.898185" lon="8.5550817"><ele>3.0</ele><time>2026-05-02T07:38:12.363Z</time></trkpt><trkpt lat="39.898325" lon="8.5550633"><ele>3.0</ele><time>2026-05-02T07:38:13.363Z</time></trkpt><trkpt lat="39.8984617" lon="8.5550467"><ele>3.0</ele><time>2026-05-02T07:38:14.363Z</time></trkpt><trkpt lat="39.8985917" lon="8.5550167"><ele>3.0</ele><time>2026-05-02T07:38:15.363Z</time></trkpt><trkpt lat="39.898705" lon="8.554985"><ele>3.0</ele><time>2026-05-02T07:38:16.363Z</time></trkpt><trkpt lat="39.8987917" lon="8.5549617"><ele>3.0</ele><time>2026-05-02T07:38:17.363Z</time></trkpt><trkpt lat="39.89888" lon="8.5549167"><ele>3.0</ele><time>2026-05-02T07:38:19.363Z</time></trkpt><trkpt lat="39.8987967" lon="8.5549167"><ele>3.0</ele><time>2026-05-02T07:38:23.363Z</time></trkpt><trkpt lat="39.89874" lon="8.55497"><ele>3.0</ele><time>2026-05-02T07:38:24.363Z</time></trkpt><trkpt lat="39.8986883" lon="8.5550267"><ele>3.0</ele><time>2026-05-02T07:38:25.363Z</time></trkpt><trkpt lat="39.8986483" lon="8.555095"><ele>3.0</ele><time>2026-05-02T07:38:26.363Z</time></trkpt><trkpt lat="39.8986267" lon="8.5552517"><ele>3.0</ele><time>2026-05-02T07:38:28.363Z</time></trkpt><trkpt lat="39.898645" lon="8.5553467"><ele>3.0</ele><time>2026-05-02T07:38:29.363Z</time></trkpt><trkpt lat="39.898675" lon="8.555455"><ele>3.0</ele><time>2026-05-02T07:38:30.363Z</time></trkpt><trkpt lat="39.8987083" lon="8.5555717"><ele>3.0</ele><time>2026-05-02T07:38:31.363Z</time></trkpt><trkpt lat="39.8987367" lon="8.555665"><ele>2.8</ele><time>2026-05-02T07:38:32.363Z</time></trkpt><trkpt lat="39.8987833" lon="8.5557717"><ele>2.5999999999999996</ele><time>2026-05-02T07:38:34.363Z</time></trkpt><trkpt lat="39.898895" lon="8.5557983"><ele>2.4000000000000004</ele><time>2026-05-02T07:38:36.363Z</time></trkpt><trkpt lat="39.89897" lon="8.555785"><ele>2.2</ele><time>2026-05-02T07:38:37.363Z</time></trkpt><trkpt lat="39.8990567" lon="8.555755"><ele>2.0</ele><time>2026-05-02T07:38:38.363Z</time></trkpt><trkpt lat="39.8991367" lon="8.555715"><ele>1.9999999999999998</ele><time>2026-05-02T07:38:39.363Z</time></trkpt><trkpt lat="39.899205" lon="8.5556833"><ele>2.0</ele><time>2026-05-02T07:38:40.363Z</time></trkpt><trkpt lat="39.899325" lon="8.5556367"><ele>2.0</ele><time>2026-05-02T07:38:42.363Z</time></trkpt><trkpt lat="39.8993883" lon="8.5556033"><ele>2.0</ele><time>2026-05-02T07:38:43.363Z</time></trkpt><trkpt lat="39.8995" lon="8.555585"><ele>1.9999999999999998</ele><time>2026-05-02T07:38:45.363Z</time></trkpt><trkpt lat="39.8995617" lon="8.5556217"><ele>2.0</ele><time>2026-05-02T07:38:46.363Z</time></trkpt><trkpt lat="39.8996317" lon="8.5556817"><ele>1.8333333333333333</ele><time>2026-05-02T07:38:47.363Z</time></trkpt><trkpt lat="39.8996967" lon="8.5557283"><ele>1.6666666666666665</ele><time>2026-05-02T07:38:48.363Z</time></trkpt><trkpt lat="39.8997583" lon="8.5557533"><ele>1.5</ele><time>2026-05-02T07:38:49.363Z</time></trkpt><trkpt lat="39.8998217" lon="8.5557617"><ele>1.3333333333333333</ele><time>2026-05-02T07:38:50.363Z</time></trkpt><trkpt lat="39.8999283" lon="8.5557317"><ele>1.1666666666666665</ele><time>2026-05-02T07:38:52.363Z</time></trkpt><trkpt lat="39.8999833" lon="8.5556767"><ele>1.0</ele><time>2026-05-02T07:38:53.363Z</time></trkpt><trkpt lat="39.90005" lon="8.5556133"><ele>1.4</ele><time>2026-05-02T07:38:54.363Z</time></trkpt><trkpt lat="39.9001183" lon="8.5555383"><ele>1.8</ele><time>2026-05-02T07:38:55.363Z</time></trkpt><trkpt lat="39.9001817" lon="8.55545"><ele>2.1999999999999997</ele><time>2026-05-02T07:38:56.363Z</time></trkpt><trkpt lat="39.9002617" lon="8.55535"><ele>2.6</ele><time>2026-05-02T07:38:57.363Z</time></trkpt><trkpt lat="39.900355" lon="8.5552667"><ele>3.0</ele><time>2026-05-02T07:38:58.363Z</time></trkpt><trkpt lat="39.9004583" lon="8.5551983"><ele>3.0</ele><time>2026-05-02T07:38:59.363Z</time></trkpt><trkpt lat="39.9005833" lon="8.555135"><ele>3.0</ele><time>2026-05-02T07:39:00.362Z</time></trkpt><trkpt lat="39.9007167" lon="8.55508"><ele>3.0</ele><time>2026-05-02T07:39:01.363Z</time></trkpt><trkpt lat="39.9008567" lon="8.5550283"><ele>3.0</ele><time>2026-05-02T07:39:02.363Z</time></trkpt><trkpt lat="39.900995" lon="8.5549833"><ele>3.5</ele><time>2026-05-02T07:39:03.363Z</time></trkpt><trkpt lat="39.9011233" lon="8.5549383"><ele>4.0</ele><time>2026-05-02T07:39:04.363Z</time></trkpt><trkpt lat="39.9012583" lon="8.55489"><ele>4.5</ele><time>2026-05-02T07:39:05.363Z</time></trkpt><trkpt lat="39.9013983" lon="8.554845"><ele>5.0</ele><time>2026-05-02T07:39:06.363Z</time></trkpt><trkpt lat="39.9015333" lon="8.554805"><ele>5.0</ele><time>2026-05-02T07:39:07.363Z</time></trkpt><trkpt lat="39.9016617" lon="8.554775"><ele>5.0</ele><time>2026-05-02T07:39:08.363Z</time></trkpt><trkpt lat="39.9017883" lon="8.5547417"><ele>5.0</ele><time>2026-05-02T07:39:09.363Z</time></trkpt><trkpt lat="39.90191" lon="8.5547167"><ele>5.0</ele><time>2026-05-02T07:39:10.363Z</time></trkpt><trkpt lat="39.902025" lon="8.55469"><ele>5.0</ele><time>2026-05-02T07:39:11.363Z</time></trkpt><trkpt lat="39.902135" lon="8.554665"><ele>5.0</ele><time>2026-05-02T07:39:12.363Z</time></trkpt><trkpt lat="39.9022483" lon="8.5546417"><ele>5.0</ele><time>2026-05-02T07:39:13.363Z</time></trkpt><trkpt lat="39.90236" lon="8.5546283"><ele>5.0</ele><time>2026-05-02T07:39:14.363Z</time></trkpt><trkpt lat="39.9024817" lon="8.5546083"><ele>4.5</ele><time>2026-05-02T07:39:15.363Z</time></trkpt><trkpt lat="39.9025983" lon="8.5546033"><ele>4.0</ele><time>2026-05-02T07:39:16.363Z</time></trkpt><trkpt lat="39.9027133" lon="8.5545967"><ele>3.5</ele><time>2026-05-02T07:39:17.363Z</time></trkpt><trkpt lat="39.902825" lon="8.5545883"><ele>3.0</ele><time>2026-05-02T07:39:18.363Z</time></trkpt><trkpt lat="39.9029417" lon="8.5545717"><ele>3.0</ele><time>2026-05-02T07:39:19.363Z</time></trkpt><trkpt lat="39.9030633" lon="8.5545567"><ele>3.0</ele><time>2026-05-02T07:39:20.363Z</time></trkpt><trkpt lat="39.903185" lon="8.5545333"><ele>3.0</ele><time>2026-05-02T07:39:21.363Z</time></trkpt><trkpt lat="39.903315" lon="8.5545133"><ele>3.0</ele><time>2026-05-02T07:39:22.363Z</time></trkpt><trkpt lat="39.9034667" lon="8.5545"><ele>3.0</ele><time>2026-05-02T07:39:23.363Z</time></trkpt><trkpt lat="39.903625" lon="8.5544817"><ele>3.0</ele><time>2026-05-02T07:39:24.363Z</time></trkpt><trkpt lat="39.9037817" lon="8.5544667"><ele>3.0</ele><time>2026-05-02T07:39:25.363Z</time></trkpt><trkpt lat="39.9039317" lon="8.554445"><ele>3.0</ele><time>2026-05-02T07:39:26.363Z</time></trkpt><trkpt lat="39.9040833" lon="8.5544283"><ele>3.0</ele><time>2026-05-02T07:39:27.363Z</time></trkpt><trkpt lat="39.904235" lon="8.5544217"><ele>3.0</ele><time>2026-05-02T07:39:28.363Z</time></trkpt><trkpt lat="39.9043917" lon="8.5544317"><ele>3.0</ele><time>2026-05-02T07:39:29.363Z</time></trkpt><trkpt lat="39.904555" lon="8.5544367"><ele>3.0</ele><time>2026-05-02T07:39:30.363Z</time></trkpt><trkpt lat="39.90472" lon="8.5544367"><ele>3.0</ele><time>2026-05-02T07:39:31.363Z</time></trkpt><trkpt lat="39.904875" lon="8.5544367"><ele>3.0</ele><time>2026-05-02T07:39:32.363Z</time></trkpt><trkpt lat="39.905035" lon="8.5544533"><ele>3.0</ele><time>2026-05-02T07:39:33.363Z</time></trkpt><trkpt lat="39.9052" lon="8.55449"><ele>3.0</ele><time>2026-05-02T07:39:34.363Z</time></trkpt><trkpt lat="39.9053717" lon="8.554535"><ele>3.0</ele><time>2026-05-02T07:39:35.363Z</time></trkpt><trkpt lat="39.90553" lon="8.5545733"><ele>3.0</ele><time>2026-05-02T07:39:36.363Z</time></trkpt><trkpt lat="39.90569" lon="8.5546133"><ele>3.0</ele><time>2026-05-02T07:39:37.363Z</time></trkpt><trkpt lat="39.9058467" lon="8.5546583"><ele>3.666666666666667</ele><time>2026-05-02T07:39:38.363Z</time></trkpt><trkpt lat="39.9060083" lon="8.5547117"><ele>4.333333333333334</ele><time>2026-05-02T07:39:39.363Z</time></trkpt><trkpt lat="39.9061683" lon="8.5547583"><ele>5.0</ele><time>2026-05-02T07:39:40.363Z</time></trkpt><trkpt lat="39.9063167" lon="8.554805"><ele>5.0</ele><time>2026-05-02T07:39:41.363Z</time></trkpt><trkpt lat="39.9064617" lon="8.55484"><ele>5.0</ele><time>2026-05-02T07:39:42.364Z</time></trkpt><trkpt lat="39.9066017" lon="8.5548717"><ele>5.0</ele><time>2026-05-02T07:39:43.363Z</time></trkpt><trkpt lat="39.9067433" lon="8.55491"><ele>5.0</ele><time>2026-05-02T07:39:44.363Z</time></trkpt><trkpt lat="39.9068917" lon="8.5549583"><ele>4.666666666666667</ele><time>2026-05-02T07:39:45.363Z</time></trkpt><trkpt lat="39.907045" lon="8.55502"><ele>4.333333333333333</ele><time>2026-05-02T07:39:46.363Z</time></trkpt><trkpt lat="39.907195" lon="8.5550883"><ele>4.0</ele><time>2026-05-02T07:39:47.363Z</time></trkpt><trkpt lat="39.9073433" lon="8.5551567"><ele>4.0</ele><time>2026-05-02T07:39:48.363Z</time></trkpt><trkpt lat="39.9074917" lon="8.5552283"><ele>4.0</ele><time>2026-05-02T07:39:49.363Z</time></trkpt><trkpt lat="39.907645" lon="8.5553033"><ele>4.0</ele><time>2026-05-02T07:39:50.363Z</time></trkpt><trkpt lat="39.9077767" lon="8.5553633"><ele>3.5</ele><time>2026-05-02T07:39:51.363Z</time></trkpt><trkpt lat="39.9079033" lon="8.5554383"><ele>3.0</ele><time>2026-05-02T07:39:52.363Z</time></trkpt><trkpt lat="39.90802" lon="8.5555083"><ele>2.5</ele><time>2026-05-02T07:39:53.363Z</time></trkpt><trkpt lat="39.9081367" lon="8.55558"><ele>2.0</ele><time>2026-05-02T07:39:54.363Z</time></trkpt><trkpt lat="39.9082467" lon="8.5556433"><ele>2.0</ele><time>2026-05-02T07:39:55.363Z</time></trkpt><trkpt lat="39.9083633" lon="8.5557233"><ele>2.0</ele><time>2026-05-02T07:39:56.363Z</time></trkpt><trkpt lat="39.9084817" lon="8.5557983"><ele>2.0</ele><time>2026-05-02T07:39:57.363Z</time></trkpt><trkpt lat="39.9086" lon="8.5558817"><ele>2.0</ele><time>2026-05-02T07:39:58.363Z</time></trkpt><trkpt lat="39.9087217" lon="8.555965"><ele>2.25</ele><time>2026-05-02T07:39:59.363Z</time></trkpt><trkpt lat="39.9088383" lon="8.556055"><ele>2.5</ele><time>2026-05-02T07:40:00.363Z</time></trkpt><trkpt lat="39.9089583" lon="8.5561567"><ele>2.75</ele><time>2026-05-02T07:40:01.363Z</time></trkpt><trkpt lat="39.909075" lon="8.556255"><ele>3.0</ele><time>2026-05-02T07:40:02.363Z</time></trkpt><trkpt lat="39.9091917" lon="8.5563583"><ele>3.0</ele><time>2026-05-02T07:40:03.363Z</time></trkpt><trkpt lat="39.90931" lon="8.5564633"><ele>3.0</ele><time>2026-05-02T07:40:04.363Z</time></trkpt><trkpt lat="39.9094417" lon="8.5565633"><ele>3.0</ele><time>2026-05-02T07:40:05.363Z</time></trkpt><trkpt lat="39.909575" lon="8.5566683"><ele>3.0</ele><time>2026-05-02T07:40:06.363Z</time></trkpt><trkpt lat="39.9096767" lon="8.5567633"><ele>3.0</ele><time>2026-05-02T07:40:07.363Z</time></trkpt><trkpt lat="39.9097733" lon="8.5568583"><ele>3.0</ele><time>2026-05-02T07:40:08.363Z</time></trkpt><trkpt lat="39.9098733" lon="8.556955"><ele>3.0</ele><time>2026-05-02T07:40:09.363Z</time></trkpt><trkpt lat="39.9099683" lon="8.55707"><ele>3.0</ele><time>2026-05-02T07:40:10.363Z</time></trkpt><trkpt lat="39.910055" lon="8.557195"><ele>3.0</ele><time>2026-05-02T07:40:11.363Z</time></trkpt><trkpt lat="39.91014" lon="8.5573217"><ele>3.0</ele><time>2026-05-02T07:40:12.363Z</time></trkpt><trkpt lat="39.91022" lon="8.557445"><ele>3.0</ele><time>2026-05-02T07:40:13.363Z</time></trkpt><trkpt lat="39.9102933" lon="8.5575567"><ele>3.2</ele><time>2026-05-02T07:40:14.363Z</time></trkpt><trkpt lat="39.9103583" lon="8.5576533"><ele>3.4</ele><time>2026-05-02T07:40:15.363Z</time></trkpt><trkpt lat="39.9104217" lon="8.55775"><ele>3.6000000000000005</ele><time>2026-05-02T07:40:16.363Z</time></trkpt><trkpt lat="39.91048" lon="8.5578467"><ele>3.8000000000000003</ele><time>2026-05-02T07:40:17.363Z</time></trkpt><trkpt lat="39.9105283" lon="8.5579417"><ele>4.0</ele><time>2026-05-02T07:40:18.363Z</time></trkpt><trkpt lat="39.91056" lon="8.55806"><ele>3.6</ele><time>2026-05-02T07:40:19.363Z</time></trkpt><trkpt lat="39.91057" lon="8.5581767"><ele>3.2</ele><time>2026-05-02T07:40:20.363Z</time></trkpt><trkpt lat="39.9105767" lon="8.5583033"><ele>2.8000000000000003</ele><time>2026-05-02T07:40:21.363Z</time></trkpt><trkpt lat="39.9106117" lon="8.5584217"><ele>2.4000000000000004</ele><time>2026-05-02T07:40:22.363Z</time></trkpt><trkpt lat="39.9106783" lon="8.558525"><ele>2.0</ele><time>2026-05-02T07:40:23.363Z</time></trkpt><trkpt lat="39.910775" lon="8.558585"><ele>2.0</ele><time>2026-05-02T07:40:24.363Z</time></trkpt><trkpt lat="39.9108783" lon="8.55861"><ele>2.0</ele><time>2026-05-02T07:40:25.363Z</time></trkpt><trkpt lat="39.91098" lon="8.5585783"><ele>2.0</ele><time>2026-05-02T07:40:26.363Z</time></trkpt><trkpt lat="39.91108" lon="8.558505"><ele>2.0</ele><time>2026-05-02T07:40:27.363Z</time></trkpt><trkpt lat="39.9111517" lon="8.558395"><ele>2.0</ele><time>2026-05-02T07:40:28.363Z</time></trkpt><trkpt lat="39.9111817" lon="8.5582617"><ele>2.2</ele><time>2026-05-02T07:40:29.363Z</time></trkpt><trkpt lat="39.91117" lon="8.5581167"><ele>2.4000000000000004</ele><time>2026-05-02T07:40:30.363Z</time></trkpt><trkpt lat="39.911125" lon="8.5579783"><ele>2.5999999999999996</ele><time>2026-05-02T07:40:31.363Z</time></trkpt><trkpt lat="39.9110733" lon="8.557865"><ele>2.8</ele><time>2026-05-02T07:40:32.363Z</time></trkpt><trkpt lat="39.91102" lon="8.5577533"><ele>3.0</ele><time>2026-05-02T07:40:33.363Z</time></trkpt><trkpt lat="39.9109717" lon="8.5576467"><ele>3.0</ele><time>2026-05-02T07:40:34.363Z</time></trkpt><trkpt lat="39.91095" lon="8.5575367"><ele>3.0</ele><time>2026-05-02T07:40:35.363Z</time></trkpt><trkpt lat="39.91095" lon="8.5573933"><ele>3.0</ele><time>2026-05-02T07:40:36.363Z</time></trkpt><trkpt lat="39.9109667" lon="8.5572217"><ele>3.0</ele><time>2026-05-02T07:40:37.363Z</time></trkpt><trkpt lat="39.9109833" lon="8.5570483"><ele>2.6666666666666665</ele><time>2026-05-02T07:40:38.363Z</time></trkpt><trkpt lat="39.9110017" lon="8.5568483"><ele>2.333333333333333</ele><time>2026-05-02T07:40:39.363Z</time></trkpt><trkpt lat="39.9110217" lon="8.5566217"><ele>2.0</ele><time>2026-05-02T07:40:40.363Z</time></trkpt><trkpt lat="39.9110433" lon="8.55635"><ele>2.0</ele><time>2026-05-02T07:40:41.363Z</time></trkpt><trkpt lat="39.9110717" lon="8.556055"><ele>2.0</ele><time>2026-05-02T07:40:42.363Z</time></trkpt><trkpt lat="39.91111" lon="8.5557417"><ele>2.0</ele><time>2026-05-02T07:40:43.363Z</time></trkpt><trkpt lat="39.9111533" lon="8.55541"><ele>2.0</ele><time>2026-05-02T07:40:44.363Z</time></trkpt><trkpt lat="39.9111917" lon="8.5550567"><ele>2.0</ele><time>2026-05-02T07:40:45.363Z</time></trkpt><trkpt lat="39.911225" lon="8.5546733"><ele>2.0</ele><time>2026-05-02T07:40:46.363Z</time></trkpt><trkpt lat="39.9112633" lon="8.5542833"><ele>2.0</ele><time>2026-05-02T07:40:47.363Z</time></trkpt><trkpt lat="39.9112983" lon="8.55389"><ele>2.0</ele><time>2026-05-02T07:40:48.363Z</time></trkpt><trkpt lat="39.9113333" lon="8.5535017"><ele>2.0</ele><time>2026-05-02T07:40:49.363Z</time></trkpt><trkpt lat="39.9113583" lon="8.55314"><ele>2.0</ele><time>2026-05-02T07:40:50.363Z</time></trkpt><trkpt lat="39.9113917" lon="8.5527883"><ele>2.5</ele><time>2026-05-02T07:40:51.363Z</time></trkpt><trkpt lat="39.91143" lon="8.55245"><ele>3.0</ele><time>2026-05-02T07:40:52.363Z</time></trkpt><trkpt lat="39.9114583" lon="8.5521167"><ele>3.0</ele><time>2026-05-02T07:40:53.363Z</time></trkpt><trkpt lat="39.9114867" lon="8.5517767"><ele>3.0</ele><time>2026-05-02T07:40:54.363Z</time></trkpt><trkpt lat="39.9115233" lon="8.551455"><ele>3.0</ele><time>2026-05-02T07:40:55.363Z</time></trkpt><trkpt lat="39.9115667" lon="8.5511517"><ele>3.0</ele><time>2026-05-02T07:40:56.363Z</time></trkpt><trkpt lat="39.9116" lon="8.5508317"><ele>3.0</ele><time>2026-05-02T07:40:57.363Z</time></trkpt><trkpt lat="39.9116283" lon="8.55051"><ele>3.0</ele><time>2026-05-02T07:40:58.363Z</time></trkpt><trkpt lat="39.911655" lon="8.550185"><ele>3.0</ele><time>2026-05-02T07:40:59.363Z</time></trkpt><trkpt lat="39.9116817" lon="8.5498617"><ele>3.0</ele><time>2026-05-02T07:41:00.363Z</time></trkpt><trkpt lat="39.9117083" lon="8.549545"><ele>3.0</ele><time>2026-05-02T07:41:01.363Z</time></trkpt><trkpt lat="39.9117417" lon="8.5492333"><ele>3.0</ele><time>2026-05-02T07:41:02.363Z</time></trkpt><trkpt lat="39.9117717" lon="8.5489067"><ele>3.0</ele><time>2026-05-02T07:41:03.363Z</time></trkpt><trkpt lat="39.9117967" lon="8.5486117"><ele>3.0</ele><time>2026-05-02T07:41:04.363Z</time></trkpt><trkpt lat="39.9118267" lon="8.54832"><ele>3.0</ele><time>2026-05-02T07:41:05.363Z</time></trkpt><trkpt lat="39.9118517" lon="8.54803"><ele>3.0</ele><time>2026-05-02T07:41:06.363Z</time></trkpt><trkpt lat="39.91188" lon="8.5477533"><ele>3.0</ele><time>2026-05-02T07:41:07.363Z</time></trkpt><trkpt lat="39.911905" lon="8.5474767"><ele>3.0</ele><time>2026-05-02T07:41:08.363Z</time></trkpt><trkpt lat="39.911925" lon="8.5472183"><ele>3.0</ele><time>2026-05-02T07:41:09.363Z</time></trkpt><trkpt lat="39.911945" lon="8.5469517"><ele>3.0</ele><time>2026-05-02T07:41:10.363Z</time></trkpt><trkpt lat="39.9119667" lon="8.546695"><ele>3.0</ele><time>2026-05-02T07:41:11.363Z</time></trkpt><trkpt lat="39.9119933" lon="8.5464217"><ele>3.0</ele><time>2026-05-02T07:41:12.363Z</time></trkpt><trkpt lat="39.912035" lon="8.5461667"><ele>3.0</ele><time>2026-05-02T07:41:13.363Z</time></trkpt><trkpt lat="39.91207" lon="8.5459217"><ele>2.6666666666666665</ele><time>2026-05-02T07:41:14.363Z</time></trkpt><trkpt lat="39.9121233" lon="8.5456767"><ele>2.333333333333333</ele><time>2026-05-02T07:41:15.363Z</time></trkpt><trkpt lat="39.912185" lon="8.5454383"><ele>2.0</ele><time>2026-05-02T07:41:16.363Z</time></trkpt><trkpt lat="39.91225" lon="8.5452067"><ele>2.0</ele><time>2026-05-02T07:41:17.363Z</time></trkpt><trkpt lat="39.91233" lon="8.54497"><ele>2.0</ele><time>2026-05-02T07:41:18.363Z</time></trkpt><trkpt lat="39.9124233" lon="8.5447317"><ele>2.0</ele><time>2026-05-02T07:41:19.363Z</time></trkpt><trkpt lat="39.91253" lon="8.544505"><ele>2.0</ele><time>2026-05-02T07:41:20.363Z</time></trkpt><trkpt lat="39.91264" lon="8.5442817"><ele>2.0</ele><time>2026-05-02T07:41:21.363Z</time></trkpt><trkpt lat="39.9127667" lon="8.5440767"><ele>2.0</ele><time>2026-05-02T07:41:22.363Z</time></trkpt><trkpt lat="39.91289" lon="8.5438933"><ele>1.6666666666666665</ele><time>2026-05-02T07:41:23.363Z</time></trkpt><trkpt lat="39.9130183" lon="8.5437117"><ele>1.3333333333333333</ele><time>2026-05-02T07:41:24.363Z</time></trkpt><trkpt lat="39.9131517" lon="8.5435317"><ele>1.0</ele><time>2026-05-02T07:41:25.363Z</time></trkpt><trkpt lat="39.9132833" lon="8.5433517"><ele>1.6666666666666665</ele><time>2026-05-02T07:41:26.363Z</time></trkpt><trkpt lat="39.91341" lon="8.5431783"><ele>2.3333333333333335</ele><time>2026-05-02T07:41:27.363Z</time></trkpt><trkpt lat="39.9135217" lon="8.5430283"><ele>3.0</ele><time>2026-05-02T07:41:28.363Z</time></trkpt><trkpt lat="39.9136317" lon="8.5428933"><ele>3.2</ele><time>2026-05-02T07:41:29.363Z</time></trkpt><trkpt lat="39.9137333" lon="8.5428017"><ele>3.4</ele><time>2026-05-02T07:41:30.363Z</time></trkpt><trkpt lat="39.9138217" lon="8.5427217"><ele>3.6000000000000005</ele><time>2026-05-02T07:41:31.363Z</time></trkpt><trkpt lat="39.9139167" lon="8.5426767"><ele>3.8000000000000003</ele><time>2026-05-02T07:41:32.363Z</time></trkpt><trkpt lat="39.9140117" lon="8.5426683"><ele>4.0</ele><time>2026-05-02T07:41:33.363Z</time></trkpt><trkpt lat="39.9141167" lon="8.5427017"><ele>4.0</ele><time>2026-05-02T07:41:34.363Z</time></trkpt><trkpt lat="39.9142083" lon="8.5427467"><ele>4.0</ele><time>2026-05-02T07:41:35.363Z</time></trkpt><trkpt lat="39.9143083" lon="8.54278"><ele>4.0</ele><time>2026-05-02T07:41:36.363Z</time></trkpt><trkpt lat="39.914415" lon="8.542765"><ele>4.0</ele><time>2026-05-02T07:41:37.363Z</time></trkpt><trkpt lat="39.9145283" lon="8.542695"><ele>4.0</ele><time>2026-05-02T07:41:38.363Z</time></trkpt><trkpt lat="39.91462" lon="8.5426017"><ele>4.4</ele><time>2026-05-02T07:41:39.363Z</time></trkpt><trkpt lat="39.9146733" lon="8.542475"><ele>4.800000000000001</ele><time>2026-05-02T07:41:40.363Z</time></trkpt><trkpt lat="39.9147" lon="8.54232"><ele>5.199999999999999</ele><time>2026-05-02T07:41:41.363Z</time></trkpt><trkpt lat="39.914695" lon="8.5421767"><ele>5.6</ele><time>2026-05-02T07:41:42.363Z</time></trkpt><trkpt lat="39.9146617" lon="8.54205"><ele>6.0</ele><time>2026-05-02T07:41:43.363Z</time></trkpt><trkpt lat="39.91461" lon="8.5419483"><ele>6.0</ele><time>2026-05-02T07:41:44.363Z</time></trkpt><trkpt lat="39.9145667" lon="8.5418717"><ele>6.0</ele><time>2026-05-02T07:41:45.363Z</time></trkpt><trkpt lat="39.9145283" lon="8.54179"><ele>6.0</ele><time>2026-05-02T07:41:46.363Z</time></trkpt><trkpt lat="39.9145117" lon="8.541705"><ele>6.0</ele><time>2026-05-02T07:41:47.363Z</time></trkpt><trkpt lat="39.9145117" lon="8.5416083"><ele>6.0</ele><time>2026-05-02T07:41:48.363Z</time></trkpt><trkpt lat="39.9145367" lon="8.5415"><ele>6.0</ele><time>2026-05-02T07:41:49.363Z</time></trkpt><trkpt lat="39.9145717" lon="8.5414"><ele>6.0</ele><time>2026-05-02T07:41:50.363Z</time></trkpt><trkpt lat="39.9146033" lon="8.54131"><ele>6.0</ele><time>2026-05-02T07:41:51.363Z</time></trkpt><trkpt lat="39.9146283" lon="8.541215"><ele>6.0</ele><time>2026-05-02T07:41:52.363Z</time></trkpt><trkpt lat="39.91462" lon="8.54107"><ele>6.0</ele><time>2026-05-02T07:41:54.363Z</time></trkpt><trkpt lat="39.914555" lon="8.5409917"><ele>6.0</ele><time>2026-05-02T07:41:56.363Z</time></trkpt><trkpt lat="39.9144867" lon="8.540965"><ele>6.0</ele><time>2026-05-02T07:41:58.363Z</time></trkpt><trkpt lat="39.9144217" lon="8.54092"><ele>5.833333333333333</ele><time>2026-05-02T07:42:01.363Z</time></trkpt><trkpt lat="39.9143433" lon="8.5409"><ele>5.666666666666667</ele><time>2026-05-02T07:42:05.363Z</time></trkpt><trkpt lat="39.91432" lon="8.5409783"><ele>5.5</ele><time>2026-05-02T07:42:13.363Z</time></trkpt><trkpt lat="39.914385" lon="8.540965"><ele>5.333333333333334</ele><time>2026-05-02T07:42:16.363Z</time></trkpt><trkpt lat="39.91445" lon="8.5410083"><ele>5.166666666666667</ele><time>2026-05-02T07:42:20.363Z</time></trkpt><trkpt lat="39.914345" lon="8.5410233"><ele>5.0</ele><time>2026-05-02T07:47:19.362Z</time></trkpt><trkpt lat="39.91429" lon="8.540975"><ele>5.0</ele><time>2026-05-02T07:47:22.362Z</time></trkpt><trkpt lat="39.9144067" lon="8.5408733"><ele>5.0</ele><time>2026-05-02T07:47:45.362Z</time></trkpt><trkpt lat="39.91451" lon="8.5409217"><ele>5.0</ele><time>2026-05-02T07:47:47.362Z</time></trkpt><trkpt lat="39.9145833" lon="8.5410033"><ele>5.0</ele><time>2026-05-02T07:47:49.362Z</time></trkpt><trkpt lat="39.9146117" lon="8.5410767"><ele>5.0</ele><time>2026-05-02T07:47:51.362Z</time></trkpt><trkpt lat="39.9146233" lon="8.541175"><ele>5.166666666666667</ele><time>2026-05-02T07:47:54.362Z</time></trkpt><trkpt lat="39.9145967" lon="8.5412733"><ele>5.333333333333334</ele><time>2026-05-02T07:47:58.362Z</time></trkpt><trkpt lat="39.91455" lon="8.5413517"><ele>5.5</ele><time>2026-05-02T07:48:00.362Z</time></trkpt><trkpt lat="39.9145117" lon="8.5414717"><ele>5.666666666666667</ele><time>2026-05-02T07:48:02.362Z</time></trkpt><trkpt lat="39.9144767" lon="8.5415883"><ele>5.833333333333333</ele><time>2026-05-02T07:48:04.362Z</time></trkpt><trkpt lat="39.914425" lon="8.5416917"><ele>6.0</ele><time>2026-05-02T07:48:06.362Z</time></trkpt><trkpt lat="39.9143117" lon="8.54177"><ele>5.6</ele><time>2026-05-02T07:48:08.362Z</time></trkpt><trkpt lat="39.9142317" lon="8.5418017"><ele>5.199999999999999</ele><time>2026-05-02T07:48:09.362Z</time></trkpt><trkpt lat="39.9141483" lon="8.54184"><ele>4.800000000000001</ele><time>2026-05-02T07:48:10.362Z</time></trkpt><trkpt lat="39.914075" lon="8.541905"><ele>4.4</ele><time>2026-05-02T07:48:11.362Z</time></trkpt><trkpt lat="39.91401" lon="8.54199"><ele>4.0</ele><time>2026-05-02T07:48:12.362Z</time></trkpt><trkpt lat="39.91396" lon="8.5421117"><ele>4.0</ele><time>2026-05-02T07:48:13.362Z</time></trkpt><trkpt lat="39.9139383" lon="8.5422383"><ele>4.0</ele><time>2026-05-02T07:48:14.362Z</time></trkpt><trkpt lat="39.9139283" lon="8.542365"><ele>4.0</ele><time>2026-05-02T07:48:15.362Z</time></trkpt><trkpt lat="39.9139467" lon="8.5424867"><ele>4.0</ele><time>2026-05-02T07:48:16.362Z</time></trkpt><trkpt lat="39.9139917" lon="8.5426133"><ele>4.0</ele><time>2026-05-02T07:48:17.362Z</time></trkpt><trkpt lat="39.9140617" lon="8.5427117"><ele>4.0</ele><time>2026-05-02T07:48:18.362Z</time></trkpt><trkpt lat="39.9141367" lon="8.542775"><ele>4.0</ele><time>2026-05-02T07:48:19.362Z</time></trkpt><trkpt lat="39.91422" lon="8.5428283"><ele>4.0</ele><time>2026-05-02T07:48:20.362Z</time></trkpt><trkpt lat="39.91431" lon="8.5428433"><ele>4.0</ele><time>2026-05-02T07:48:21.362Z</time></trkpt><trkpt lat="39.9144033" lon="8.5428317"><ele>4.0</ele><time>2026-05-02T07:48:22.362Z</time></trkpt><trkpt lat="39.91449" lon="8.5427833"><ele>4.4</ele><time>2026-05-02T07:48:23.362Z</time></trkpt><trkpt lat="39.914575" lon="8.5427067"><ele>4.800000000000001</ele><time>2026-05-02T07:48:24.362Z</time></trkpt><trkpt lat="39.914655" lon="8.5426067"><ele>5.199999999999999</ele><time>2026-05-02T07:48:25.362Z</time></trkpt><trkpt lat="39.9147083" lon="8.54249"><ele>5.6</ele><time>2026-05-02T07:48:26.362Z</time></trkpt><trkpt lat="39.9147433" lon="8.5423717"><ele>6.0</ele><time>2026-05-02T07:48:27.362Z</time></trkpt><trkpt lat="39.9147633" lon="8.5422667"><ele>6.0</ele><time>2026-05-02T07:48:28.362Z</time></trkpt><trkpt lat="39.91479" lon="8.5421467"><ele>6.0</ele><time>2026-05-02T07:48:30.362Z</time></trkpt><trkpt lat="39.9148167" lon="8.5420483"><ele>6.0</ele><time>2026-05-02T07:48:46.362Z</time></trkpt><trkpt lat="39.9148533" lon="8.5419283"><ele>6.0</ele><time>2026-05-02T07:48:47.362Z</time></trkpt><trkpt lat="39.9149067" lon="8.5417983"><ele>6.0</ele><time>2026-05-02T07:48:48.362Z</time></trkpt><trkpt lat="39.9149767" lon="8.5416567"><ele>6.0</ele><time>2026-05-02T07:48:49.363Z</time></trkpt><trkpt lat="39.91505" lon="8.541505"><ele>6.0</ele><time>2026-05-02T07:48:50.362Z</time></trkpt><trkpt lat="39.9151383" lon="8.5413383"><ele>6.0</ele><time>2026-05-02T07:48:51.362Z</time></trkpt><trkpt lat="39.9152333" lon="8.5411883"><ele>6.0</ele><time>2026-05-02T07:48:52.362Z</time></trkpt><trkpt lat="39.91534" lon="8.541055"><ele>5.5</ele><time>2026-05-02T07:48:53.362Z</time></trkpt><trkpt lat="39.9154483" lon="8.540935"><ele>5.0</ele><time>2026-05-02T07:48:54.362Z</time></trkpt><trkpt lat="39.915555" lon="8.5408317"><ele>4.5</ele><time>2026-05-02T07:48:55.362Z</time></trkpt><trkpt lat="39.9156767" lon="8.5407367"><ele>4.0</ele><time>2026-05-02T07:48:56.362Z</time></trkpt><trkpt lat="39.9158117" lon="8.5406667"><ele>3.75</ele><time>2026-05-02T07:48:57.362Z</time></trkpt><trkpt lat="39.9159383" lon="8.540605"><ele>3.5</ele><time>2026-05-02T07:48:58.362Z</time></trkpt><trkpt lat="39.9160617" lon="8.5405383"><ele>3.25</ele><time>2026-05-02T07:48:59.362Z</time></trkpt><trkpt lat="39.916185" lon="8.5404667"><ele>3.0</ele><time>2026-05-02T07:49:00.362Z</time></trkpt><trkpt lat="39.9162967" lon="8.5403983"><ele>3.0</ele><time>2026-05-02T07:49:01.362Z</time></trkpt><trkpt lat="39.9164133" lon="8.540315"><ele>3.0</ele><time>2026-05-02T07:49:02.362Z</time></trkpt><trkpt lat="39.9165533" lon="8.5402467"><ele>3.0</ele><time>2026-05-02T07:49:03.362Z</time></trkpt><trkpt lat="39.9166917" lon="8.5401567"><ele>3.0</ele><time>2026-05-02T07:49:04.362Z</time></trkpt><trkpt lat="39.916835" lon="8.5400683"><ele>3.0</ele><time>2026-05-02T07:49:05.362Z</time></trkpt><trkpt lat="39.9169867" lon="8.5399617"><ele>3.0</ele><time>2026-05-02T07:49:06.362Z</time></trkpt><trkpt lat="39.91713" lon="8.5398333"><ele>3.0</ele><time>2026-05-02T07:49:07.362Z</time></trkpt><trkpt lat="39.9172633" lon="8.5396933"><ele>3.0</ele><time>2026-05-02T07:49:08.362Z</time></trkpt><trkpt lat="39.9174" lon="8.5395433"><ele>3.0</ele><time>2026-05-02T07:49:09.362Z</time></trkpt><trkpt lat="39.9175417" lon="8.5394017"><ele>3.0</ele><time>2026-05-02T07:49:10.362Z</time></trkpt><trkpt lat="39.917685" lon="8.5392567"><ele>3.0</ele><time>2026-05-02T07:49:11.362Z</time></trkpt><trkpt lat="39.9178267" lon="8.5391117"><ele>3.0</ele><time>2026-05-02T07:49:12.362Z</time></trkpt><trkpt lat="39.917965" lon="8.5389767"><ele>3.0</ele><time>2026-05-02T07:49:13.362Z</time></trkpt><trkpt lat="39.91809" lon="8.53884"><ele>3.0</ele><time>2026-05-02T07:49:14.362Z</time></trkpt><trkpt lat="39.9182067" lon="8.5387233"><ele>3.0</ele><time>2026-05-02T07:49:15.362Z</time></trkpt><trkpt lat="39.9183167" lon="8.5386067"><ele>3.0</ele><time>2026-05-02T07:49:16.362Z</time></trkpt><trkpt lat="39.918415" lon="8.5384933"><ele>3.0</ele><time>2026-05-02T07:49:17.362Z</time></trkpt><trkpt lat="39.9185233" lon="8.5383767"><ele>2.75</ele><time>2026-05-02T07:49:18.362Z</time></trkpt><trkpt lat="39.9186333" lon="8.538265"><ele>2.5</ele><time>2026-05-02T07:49:19.362Z</time></trkpt><trkpt lat="39.9187517" lon="8.53816"><ele>2.25</ele><time>2026-05-02T07:49:20.362Z</time></trkpt><trkpt lat="39.918845" lon="8.5380683"><ele>2.0</ele><time>2026-05-02T07:49:21.362Z</time></trkpt><trkpt lat="39.9189317" lon="8.5379933"><ele>2.0</ele><time>2026-05-02T07:49:22.362Z</time></trkpt><trkpt lat="39.9190283" lon="8.5379433"><ele>2.0</ele><time>2026-05-02T07:49:23.362Z</time></trkpt><trkpt lat="39.91912" lon="8.5379333"><ele>2.0</ele><time>2026-05-02T07:49:24.362Z</time></trkpt><trkpt lat="39.9192217" lon="8.5379517"><ele>2.0</ele><time>2026-05-02T07:49:25.362Z</time></trkpt><trkpt lat="39.9193167" lon="8.5379417"><ele>2.0</ele><time>2026-05-02T07:49:26.362Z</time></trkpt><trkpt lat="39.9194233" lon="8.5378967"><ele>1.8</ele><time>2026-05-02T07:49:27.362Z</time></trkpt><trkpt lat="39.9195" lon="8.5378167"><ele>1.6</ele><time>2026-05-02T07:49:28.362Z</time></trkpt><trkpt lat="39.9195467" lon="8.5376933"><ele>1.4000000000000001</ele><time>2026-05-02T07:49:29.362Z</time></trkpt><trkpt lat="39.9195533" lon="8.5375567"><ele>1.2000000000000002</ele><time>2026-05-02T07:49:30.362Z</time></trkpt><trkpt lat="39.9195267" lon="8.5374167"><ele>1.0</ele><time>2026-05-02T07:49:31.362Z</time></trkpt><trkpt lat="39.9194717" lon="8.53728"><ele>1.0</ele><time>2026-05-02T07:49:32.362Z</time></trkpt><trkpt lat="39.9194017" lon="8.537145"><ele>1.0</ele><time>2026-05-02T07:49:33.362Z</time></trkpt><trkpt lat="39.91932" lon="8.5369983"><ele>1.0</ele><time>2026-05-02T07:49:34.362Z</time></trkpt><trkpt lat="39.9192517" lon="8.5368267"><ele>1.0</ele><time>2026-05-02T07:49:35.362Z</time></trkpt><trkpt lat="39.9191967" lon="8.5366467"><ele>1.0</ele><time>2026-05-02T07:49:36.362Z</time></trkpt><trkpt lat="39.9191483" lon="8.5364517"><ele>1.0</ele><time>2026-05-02T07:49:37.362Z</time></trkpt><trkpt lat="39.9191067" lon="8.53625"><ele>1.0</ele><time>2026-05-02T07:49:38.362Z</time></trkpt><trkpt lat="39.9190683" lon="8.536025"><ele>1.0</ele><time>2026-05-02T07:49:39.362Z</time></trkpt><trkpt lat="39.9190333" lon="8.5357983"><ele>1.0</ele><time>2026-05-02T07:49:40.362Z</time></trkpt><trkpt lat="39.91899" lon="8.535585"><ele>1.0</ele><time>2026-05-02T07:49:41.362Z</time></trkpt><trkpt lat="39.9189517" lon="8.5353667"><ele>1.3333333333333333</ele><time>2026-05-02T07:49:42.362Z</time></trkpt><trkpt lat="39.91891" lon="8.53514"><ele>1.6666666666666665</ele><time>2026-05-02T07:49:43.362Z</time></trkpt><trkpt lat="39.9188683" lon="8.53491"><ele>2.0</ele><time>2026-05-02T07:49:44.362Z</time></trkpt><trkpt lat="39.918825" lon="8.5346633"><ele>1.6666666666666665</ele><time>2026-05-02T07:49:45.362Z</time></trkpt><trkpt lat="39.91877" lon="8.53442"><ele>1.3333333333333333</ele><time>2026-05-02T07:49:46.362Z</time></trkpt><trkpt lat="39.9187183" lon="8.534165"><ele>1.0</ele><time>2026-05-02T07:49:47.362Z</time></trkpt><trkpt lat="39.9186717" lon="8.5339083"><ele>1.0</ele><time>2026-05-02T07:49:48.362Z</time></trkpt><trkpt lat="39.9186233" lon="8.5336417"><ele>1.0</ele><time>2026-05-02T07:49:49.362Z</time></trkpt><trkpt lat="39.9185717" lon="8.5333783"><ele>1.0</ele><time>2026-05-02T07:49:50.362Z</time></trkpt><trkpt lat="39.9185233" lon="8.5331183"><ele>1.0</ele><time>2026-05-02T07:49:51.362Z</time></trkpt><trkpt lat="39.91848" lon="8.532855"><ele>1.0</ele><time>2026-05-02T07:49:52.362Z</time></trkpt><trkpt lat="39.918435" lon="8.5326033"><ele>1.0</ele><time>2026-05-02T07:49:53.362Z</time></trkpt><trkpt lat="39.9183917" lon="8.5323617"><ele>1.3333333333333333</ele><time>2026-05-02T07:49:54.362Z</time></trkpt><trkpt lat="39.9183517" lon="8.5321067"><ele>1.6666666666666665</ele><time>2026-05-02T07:49:55.362Z</time></trkpt><trkpt lat="39.9182967" lon="8.5318517"><ele>2.0</ele><time>2026-05-02T07:49:56.362Z</time></trkpt><trkpt lat="39.9182417" lon="8.5316033"><ele>2.0</ele><time>2026-05-02T07:49:57.362Z</time></trkpt><trkpt lat="39.9182017" lon="8.531345"><ele>2.0</ele><time>2026-05-02T07:49:58.362Z</time></trkpt><trkpt lat="39.918155" lon="8.5310817"><ele>2.0</ele><time>2026-05-02T07:49:59.362Z</time></trkpt><trkpt lat="39.918105" lon="8.530815"><ele>1.6666666666666665</ele><time>2026-05-02T07:50:00.362Z</time></trkpt><trkpt lat="39.9180517" lon="8.5305633"><ele>1.3333333333333333</ele><time>2026-05-02T07:50:01.362Z</time></trkpt><trkpt lat="39.9180067" lon="8.53031"><ele>1.0</ele><time>2026-05-02T07:50:02.362Z</time></trkpt><trkpt lat="39.91797" lon="8.5300533"><ele>1.0</ele><time>2026-05-02T07:50:03.362Z</time></trkpt><trkpt lat="39.91795" lon="8.52979"><ele>1.0</ele><time>2026-05-02T07:50:04.362Z</time></trkpt><trkpt lat="39.9179367" lon="8.5295183"><ele>1.0</ele><time>2026-05-02T07:50:05.362Z</time></trkpt><trkpt lat="39.9179317" lon="8.5292517"><ele>1.3333333333333333</ele><time>2026-05-02T07:50:06.362Z</time></trkpt><trkpt lat="39.9179383" lon="8.5289917"><ele>1.6666666666666665</ele><time>2026-05-02T07:50:07.362Z</time></trkpt><trkpt lat="39.91795" lon="8.5287133"><ele>2.0</ele><time>2026-05-02T07:50:08.362Z</time></trkpt><trkpt lat="39.9179733" lon="8.5284517"><ele>2.0</ele><time>2026-05-02T07:50:09.362Z</time></trkpt><trkpt lat="39.9180033" lon="8.5281917"><ele>2.0</ele><time>2026-05-02T07:50:10.362Z</time></trkpt><trkpt lat="39.9180433" lon="8.5279367"><ele>2.0</ele><time>2026-05-02T07:50:11.362Z</time></trkpt><trkpt lat="39.9180867" lon="8.5276867"><ele>1.6666666666666665</ele><time>2026-05-02T07:50:12.362Z</time></trkpt><trkpt lat="39.9181383" lon="8.527415"><ele>1.3333333333333333</ele><time>2026-05-02T07:50:13.362Z</time></trkpt><trkpt lat="39.9181833" lon="8.5271483"><ele>1.0</ele><time>2026-05-02T07:50:14.362Z</time></trkpt><trkpt lat="39.9182317" lon="8.5268983"><ele>1.0</ele><time>2026-05-02T07:50:15.362Z</time></trkpt><trkpt lat="39.91829" lon="8.526645"><ele>1.0</ele><time>2026-05-02T07:50:16.362Z</time></trkpt><trkpt lat="39.91835" lon="8.526375"><ele>1.0</ele><time>2026-05-02T07:50:17.362Z</time></trkpt><trkpt lat="39.9183983" lon="8.5261033"><ele>0.6666666666666666</ele><time>2026-05-02T07:50:18.362Z</time></trkpt><trkpt lat="39.9184533" lon="8.5258367"><ele>0.3333333333333333</ele><time>2026-05-02T07:50:19.362Z</time></trkpt><trkpt lat="39.9185067" lon="8.5255617"><ele>0.0</ele><time>2026-05-02T07:50:20.362Z</time></trkpt><trkpt lat="39.9185483" lon="8.5252983"><ele>0.0</ele><time>2026-05-02T07:50:21.362Z</time></trkpt><trkpt lat="39.9186017" lon="8.525025"><ele>0.0</ele><time>2026-05-02T07:50:22.362Z</time></trkpt><trkpt lat="39.918655" lon="8.5247467"><ele>0.0</ele><time>2026-05-02T07:50:23.362Z</time></trkpt><trkpt lat="39.918715" lon="8.5244683"><ele>0.0</ele><time>2026-05-02T07:50:24.362Z</time></trkpt><trkpt lat="39.9187717" lon="8.5241917"><ele>0.0</ele><time>2026-05-02T07:50:25.362Z</time></trkpt><trkpt lat="39.9188267" lon="8.523915"><ele>0.0</ele><time>2026-05-02T07:50:26.362Z</time></trkpt><trkpt lat="39.918875" lon="8.5236433"><ele>0.0</ele><time>2026-05-02T07:50:27.362Z</time></trkpt><trkpt lat="39.9189217" lon="8.5233767"><ele>0.0</ele><time>2026-05-02T07:50:28.362Z</time></trkpt><trkpt lat="39.918975" lon="8.5231167"><ele>0.0</ele><time>2026-05-02T07:50:29.362Z</time></trkpt><trkpt lat="39.9190283" lon="8.5228533"><ele>0.0</ele><time>2026-05-02T07:50:30.362Z</time></trkpt><trkpt lat="39.919065" lon="8.5225933"><ele>0.0</ele><time>2026-05-02T07:50:31.362Z</time></trkpt><trkpt lat="39.9190983" lon="8.5223383"><ele>0.0</ele><time>2026-05-02T07:50:32.362Z</time></trkpt><trkpt lat="39.9191183" lon="8.5221033"><ele>0.5</ele><time>2026-05-02T07:50:33.362Z</time></trkpt><trkpt lat="39.9191333" lon="8.52188"><ele>1.0</ele><time>2026-05-02T07:50:34.362Z</time></trkpt><trkpt lat="39.91913" lon="8.521695"><ele>1.5</ele><time>2026-05-02T07:50:35.362Z</time></trkpt><trkpt lat="39.9191317" lon="8.5215383"><ele>2.0</ele><time>2026-05-02T07:50:36.362Z</time></trkpt><trkpt lat="39.91914" lon="8.52139"><ele>2.0</ele><time>2026-05-02T07:50:37.362Z</time></trkpt><trkpt lat="39.91915" lon="8.5212483"><ele>2.0</ele><time>2026-05-02T07:50:38.362Z</time></trkpt><trkpt lat="39.9191733" lon="8.5211233"><ele>2.0</ele><time>2026-05-02T07:50:39.362Z</time></trkpt><trkpt lat="39.9191883" lon="8.5209917"><ele>2.0</ele><time>2026-05-02T07:50:40.362Z</time></trkpt><trkpt lat="39.919155" lon="8.5208783"><ele>2.0</ele><time>2026-05-02T07:50:41.362Z</time></trkpt><trkpt lat="39.9191083" lon="8.5207433"><ele>1.75</ele><time>2026-05-02T07:50:42.362Z</time></trkpt><trkpt lat="39.919045" lon="8.5206133"><ele>1.5</ele><time>2026-05-02T07:50:43.362Z</time></trkpt><trkpt lat="39.9189717" lon="8.520505"><ele>1.25</ele><time>2026-05-02T07:50:44.362Z</time></trkpt><trkpt lat="39.9188933" lon="8.520365"><ele>1.0</ele><time>2026-05-02T07:50:45.362Z</time></trkpt><trkpt lat="39.9188033" lon="8.520215"><ele>0.3333333333333333</ele><time>2026-05-02T07:50:46.362Z</time></trkpt><trkpt lat="39.9187233" lon="8.5200383"><ele>-0.3333333333333333</ele><time>2026-05-02T07:50:47.362Z</time></trkpt><trkpt lat="39.9186283" lon="8.519855"><ele>-1.0</ele><time>2026-05-02T07:50:48.362Z</time></trkpt><trkpt lat="39.9185333" lon="8.5196633"><ele>-0.6666666666666666</ele><time>2026-05-02T07:50:49.362Z</time></trkpt><trkpt lat="39.91845" lon="8.5194517"><ele>-0.3333333333333333</ele><time>2026-05-02T07:50:50.362Z</time></trkpt><trkpt lat="39.91836" lon="8.51924"><ele>0.0</ele><time>2026-05-02T07:50:51.362Z</time></trkpt><trkpt lat="39.9182767" lon="8.5190233"><ele>0.0</ele><time>2026-05-02T07:50:52.362Z</time></trkpt><trkpt lat="39.9181817" lon="8.518805"><ele>0.0</ele><time>2026-05-02T07:50:53.362Z</time></trkpt><trkpt lat="39.91809" lon="8.518575"><ele>0.0</ele><time>2026-05-02T07:50:54.362Z</time></trkpt><trkpt lat="39.9180117" lon="8.518345"><ele>0.0</ele><time>2026-05-02T07:50:55.362Z</time></trkpt><trkpt lat="39.9179417" lon="8.5181"><ele>0.0</ele><time>2026-05-02T07:50:56.362Z</time></trkpt><trkpt lat="39.91791" lon="8.5178483"><ele>0.0</ele><time>2026-05-02T07:50:57.362Z</time></trkpt><trkpt lat="39.9179017" lon="8.517595"><ele>0.6666666666666666</ele><time>2026-05-02T07:50:58.362Z</time></trkpt><trkpt lat="39.9179283" lon="8.5173383"><ele>1.3333333333333333</ele><time>2026-05-02T07:50:59.362Z</time></trkpt><trkpt lat="39.9179817" lon="8.5170733"><ele>2.0</ele><time>2026-05-02T07:51:00.362Z</time></trkpt><trkpt lat="39.91806" lon="8.5168267"><ele>2.0</ele><time>2026-05-02T07:51:01.362Z</time></trkpt><trkpt lat="39.9181433" lon="8.5165767"><ele>2.0</ele><time>2026-05-02T07:51:02.362Z</time></trkpt><trkpt lat="39.9182383" lon="8.51632"><ele>2.0</ele><time>2026-05-02T07:51:03.362Z</time></trkpt><trkpt lat="39.9183217" lon="8.516065"><ele>2.0</ele><time>2026-05-02T07:51:04.362Z</time></trkpt><trkpt lat="39.9184" lon="8.5158167"><ele>2.0</ele><time>2026-05-02T07:51:05.362Z</time></trkpt><trkpt lat="39.9184833" lon="8.5155617"><ele>2.0</ele><time>2026-05-02T07:51:06.362Z</time></trkpt><trkpt lat="39.9185717" lon="8.5153017"><ele>2.0</ele><time>2026-05-02T07:51:07.362Z</time></trkpt><trkpt lat="39.9186517" lon="8.5150583"><ele>2.0</ele><time>2026-05-02T07:51:08.362Z</time></trkpt><trkpt lat="39.9187267" lon="8.5148167"><ele>2.0</ele><time>2026-05-02T07:51:09.362Z</time></trkpt><trkpt lat="39.9187917" lon="8.5146"><ele>2.0</ele><time>2026-05-02T07:51:10.362Z</time></trkpt><trkpt lat="39.9188483" lon="8.5143717"><ele>2.0</ele><time>2026-05-02T07:51:11.362Z</time></trkpt><trkpt lat="39.9188717" lon="8.5141233"><ele>2.0</ele><time>2026-05-02T07:51:12.362Z</time></trkpt><trkpt lat="39.9188633" lon="8.5138833"><ele>2.0</ele><time>2026-05-02T07:51:13.362Z</time></trkpt><trkpt lat="39.918835" lon="8.5136283"><ele>2.0</ele><time>2026-05-02T07:51:14.362Z</time></trkpt><trkpt lat="39.9188067" lon="8.5133617"><ele>2.0</ele><time>2026-05-02T07:51:15.362Z</time></trkpt><trkpt lat="39.9187683" lon="8.5131033"><ele>1.6666666666666665</ele><time>2026-05-02T07:51:16.362Z</time></trkpt><trkpt lat="39.9187383" lon="8.5128683"><ele>1.3333333333333333</ele><time>2026-05-02T07:51:17.362Z</time></trkpt><trkpt lat="39.9187083" lon="8.5126467"><ele>1.0</ele><time>2026-05-02T07:51:18.362Z</time></trkpt><trkpt lat="39.918685" lon="8.5124183"><ele>1.0</ele><time>2026-05-02T07:51:19.362Z</time></trkpt><trkpt lat="39.9186717" lon="8.5121833"><ele>1.0</ele><time>2026-05-02T07:51:20.362Z</time></trkpt><trkpt lat="39.9186417" lon="8.5119333"><ele>1.0</ele><time>2026-05-02T07:51:21.362Z</time></trkpt><trkpt lat="39.9186133" lon="8.5116833"><ele>1.0</ele><time>2026-05-02T07:51:22.362Z</time></trkpt><trkpt lat="39.9185767" lon="8.511405"><ele>1.0</ele><time>2026-05-02T07:51:23.362Z</time></trkpt><trkpt lat="39.9185483" lon="8.511135"><ele>1.0</ele><time>2026-05-02T07:51:24.362Z</time></trkpt><trkpt lat="39.91852" lon="8.510865"><ele>0.6666666666666666</ele><time>2026-05-02T07:51:25.362Z</time></trkpt><trkpt lat="39.918485" lon="8.5105867"><ele>0.3333333333333333</ele><time>2026-05-02T07:51:26.362Z</time></trkpt><trkpt lat="39.9184467" lon="8.5102883"><ele>0.0</ele><time>2026-05-02T07:51:27.362Z</time></trkpt><trkpt lat="39.9184083" lon="8.5099883"><ele>0.0</ele><time>2026-05-02T07:51:28.362Z</time></trkpt><trkpt lat="39.9183933" lon="8.50968"><ele>0.0</ele><time>2026-05-02T07:51:29.362Z</time></trkpt><trkpt lat="39.918375" lon="8.509365"><ele>0.0</ele><time>2026-05-02T07:51:30.362Z</time></trkpt><trkpt lat="39.918345" lon="8.5090567"><ele>0.0</ele><time>2026-05-02T07:51:31.362Z</time></trkpt><trkpt lat="39.91832" lon="8.5087567"><ele>0.3333333333333333</ele><time>2026-05-02T07:51:32.362Z</time></trkpt><trkpt lat="39.9182767" lon="8.5084683"><ele>0.6666666666666666</ele><time>2026-05-02T07:51:33.362Z</time></trkpt><trkpt lat="39.91822" lon="8.508195"><ele>1.0</ele><time>2026-05-02T07:51:34.362Z</time></trkpt><trkpt lat="39.9181617" lon="8.5079367"><ele>1.3333333333333333</ele><time>2026-05-02T07:51:35.362Z</time></trkpt><trkpt lat="39.9180933" lon="8.5077017"><ele>1.6666666666666665</ele><time>2026-05-02T07:51:36.362Z</time></trkpt><trkpt lat="39.918035" lon="8.5074667"><ele>2.0</ele><time>2026-05-02T07:51:37.362Z</time></trkpt><trkpt lat="39.91798" lon="8.5072367"><ele>2.333333333333333</ele><time>2026-05-02T07:51:38.362Z</time></trkpt><trkpt lat="39.9179217" lon="8.5069967"><ele>2.6666666666666665</ele><time>2026-05-02T07:51:39.362Z</time></trkpt><trkpt lat="39.9178667" lon="8.506755"><ele>3.0</ele><time>2026-05-02T07:51:40.362Z</time></trkpt><trkpt lat="39.91781" lon="8.5065117"><ele>3.0</ele><time>2026-05-02T07:51:41.362Z</time></trkpt><trkpt lat="39.91775" lon="8.5062667"><ele>3.0</ele><time>2026-05-02T07:51:42.362Z</time></trkpt><trkpt lat="39.9176817" lon="8.5060017"><ele>3.0</ele><time>2026-05-02T07:51:43.362Z</time></trkpt><trkpt lat="39.9176067" lon="8.5057433"><ele>3.0</ele><time>2026-05-02T07:51:44.362Z</time></trkpt><trkpt lat="39.9175217" lon="8.5055117"><ele>3.0</ele><time>2026-05-02T07:51:45.362Z</time></trkpt><trkpt lat="39.9174117" lon="8.5052733"><ele>3.0</ele><time>2026-05-02T07:51:46.362Z</time></trkpt><trkpt lat="39.917295" lon="8.5050283"><ele>3.0</ele><time>2026-05-02T07:51:47.362Z</time></trkpt><trkpt lat="39.9171717" lon="8.5048033"><ele>3.0</ele><time>2026-05-02T07:51:48.362Z</time></trkpt><trkpt lat="39.9170417" lon="8.5045817"><ele>3.0</ele><time>2026-05-02T07:51:49.362Z</time></trkpt><trkpt lat="39.9169017" lon="8.5043667"><ele>3.0</ele><time>2026-05-02T07:51:50.362Z</time></trkpt><trkpt lat="39.9167717" lon="8.5041433"><ele>3.0</ele><time>2026-05-02T07:51:51.362Z</time></trkpt><trkpt lat="39.9166417" lon="8.5039217"><ele>3.0</ele><time>2026-05-02T07:51:52.362Z</time></trkpt><trkpt lat="39.91652" lon="8.5037083"><ele>3.0</ele><time>2026-05-02T07:51:53.362Z</time></trkpt><trkpt lat="39.9163967" lon="8.5034833"><ele>3.0</ele><time>2026-05-02T07:51:54.362Z</time></trkpt><trkpt lat="39.9162867" lon="8.503235"><ele>3.0</ele><time>2026-05-02T07:51:55.362Z</time></trkpt><trkpt lat="39.9161983" lon="8.5029817"><ele>3.0</ele><time>2026-05-02T07:51:56.362Z</time></trkpt><trkpt lat="39.9161217" lon="8.5027333"><ele>3.0</ele><time>2026-05-02T07:51:57.362Z</time></trkpt><trkpt lat="39.9160733" lon="8.502475"><ele>3.0</ele><time>2026-05-02T07:51:58.362Z</time></trkpt><trkpt lat="39.9160333" lon="8.5021983"><ele>3.0</ele><time>2026-05-02T07:51:59.362Z</time></trkpt><trkpt lat="39.91602" lon="8.5019133"><ele>3.0</ele><time>2026-05-02T07:52:00.362Z</time></trkpt><trkpt lat="39.916015" lon="8.5016233"><ele>3.0</ele><time>2026-05-02T07:52:01.362Z</time></trkpt><trkpt lat="39.9160083" lon="8.5013433"><ele>3.0</ele><time>2026-05-02T07:52:02.362Z</time></trkpt><trkpt lat="39.91604" lon="8.5010833"><ele>3.0</ele><time>2026-05-02T07:52:03.362Z</time></trkpt><trkpt lat="39.9160717" lon="8.500835"><ele>3.0</ele><time>2026-05-02T07:52:04.362Z</time></trkpt><trkpt lat="39.9161233" lon="8.5005717"><ele>2.6666666666666665</ele><time>2026-05-02T07:52:05.362Z</time></trkpt><trkpt lat="39.916185" lon="8.5003283"><ele>2.333333333333333</ele><time>2026-05-02T07:52:06.362Z</time></trkpt><trkpt lat="39.9162783" lon="8.5000883"><ele>2.0</ele><time>2026-05-02T07:52:07.362Z</time></trkpt><trkpt lat="39.9163833" lon="8.4998533"><ele>2.0</ele><time>2026-05-02T07:52:08.362Z</time></trkpt><trkpt lat="39.9165017" lon="8.4996367"><ele>2.0</ele><time>2026-05-02T07:52:09.362Z</time></trkpt><trkpt lat="39.9166267" lon="8.4994317"><ele>2.0</ele><time>2026-05-02T07:52:10.362Z</time></trkpt><trkpt lat="39.9167467" lon="8.49925"><ele>1.3333333333333333</ele><time>2026-05-02T07:52:11.362Z</time></trkpt><trkpt lat="39.9168683" lon="8.49907"><ele>0.6666666666666666</ele><time>2026-05-02T07:52:12.362Z</time></trkpt><trkpt lat="39.9169917" lon="8.49889"><ele>0.0</ele><time>2026-05-02T07:52:13.362Z</time></trkpt><trkpt lat="39.9171083" lon="8.4987067"><ele>0.0</ele><time>2026-05-02T07:52:14.362Z</time></trkpt><trkpt lat="39.9172333" lon="8.4985217"><ele>0.0</ele><time>2026-05-02T07:52:15.362Z</time></trkpt><trkpt lat="39.9173467" lon="8.4983417"><ele>0.0</ele><time>2026-05-02T07:52:16.362Z</time></trkpt><trkpt lat="39.9174733" lon="8.4981583"><ele>0.0</ele><time>2026-05-02T07:52:17.362Z</time></trkpt><trkpt lat="39.9175867" lon="8.4979633"><ele>0.0</ele><time>2026-05-02T07:52:18.362Z</time></trkpt><trkpt lat="39.9177" lon="8.49778"><ele>0.0</ele><time>2026-05-02T07:52:19.362Z</time></trkpt><trkpt lat="39.9178117" lon="8.4975933"><ele>0.3333333333333333</ele><time>2026-05-02T07:52:20.362Z</time></trkpt><trkpt lat="39.91792" lon="8.4974017"><ele>0.6666666666666666</ele><time>2026-05-02T07:52:21.362Z</time></trkpt><trkpt lat="39.9180233" lon="8.4972317"><ele>1.0</ele><time>2026-05-02T07:52:22.362Z</time></trkpt><trkpt lat="39.9181283" lon="8.4970433"><ele>1.6666666666666665</ele><time>2026-05-02T07:52:23.362Z</time></trkpt><trkpt lat="39.9182317" lon="8.49685"><ele>2.3333333333333335</ele><time>2026-05-02T07:52:24.362Z</time></trkpt><trkpt lat="39.91833" lon="8.4966417"><ele>3.0</ele><time>2026-05-02T07:52:25.362Z</time></trkpt><trkpt lat="39.9184033" lon="8.4964333"><ele>3.0</ele><time>2026-05-02T07:52:26.362Z</time></trkpt><trkpt lat="39.9184783" lon="8.4962133"><ele>3.0</ele><time>2026-05-02T07:52:27.362Z</time></trkpt><trkpt lat="39.9185383" lon="8.4959967"><ele>3.0</ele><time>2026-05-02T07:52:28.362Z</time></trkpt><trkpt lat="39.918595" lon="8.4957767"><ele>3.0</ele><time>2026-05-02T07:52:29.362Z</time></trkpt><trkpt lat="39.9186417" lon="8.495555"><ele>3.0</ele><time>2026-05-02T07:52:30.362Z</time></trkpt><trkpt lat="39.9186717" lon="8.4953217"><ele>3.0</ele><time>2026-05-02T07:52:31.362Z</time></trkpt><trkpt lat="39.9186867" lon="8.495085"><ele>2.6666666666666665</ele><time>2026-05-02T07:52:32.362Z</time></trkpt><trkpt lat="39.918695" lon="8.4948383"><ele>2.333333333333333</ele><time>2026-05-02T07:52:33.362Z</time></trkpt><trkpt lat="39.9186933" lon="8.4946033"><ele>2.0</ele><time>2026-05-02T07:52:34.362Z</time></trkpt><trkpt lat="39.9186733" lon="8.4943917"><ele>2.0</ele><time>2026-05-02T07:52:35.362Z</time></trkpt><trkpt lat="39.91865" lon="8.49419"><ele>2.0</ele><time>2026-05-02T07:52:36.362Z</time></trkpt><trkpt lat="39.918615" lon="8.4940067"><ele>2.0</ele><time>2026-05-02T07:52:37.362Z</time></trkpt><trkpt lat="39.9185867" lon="8.493825"><ele>2.0</ele><time>2026-05-02T07:52:38.362Z</time></trkpt><trkpt lat="39.9185333" lon="8.4936333"><ele>1.6666666666666665</ele><time>2026-05-02T07:52:39.362Z</time></trkpt><trkpt lat="39.9184667" lon="8.493435"><ele>1.3333333333333333</ele><time>2026-05-02T07:52:40.362Z</time></trkpt><trkpt lat="39.9184017" lon="8.49324"><ele>1.0</ele><time>2026-05-02T07:52:41.362Z</time></trkpt><trkpt lat="39.91834" lon="8.4930767"><ele>1.0</ele><time>2026-05-02T07:52:42.362Z</time></trkpt><trkpt lat="39.9182967" lon="8.49295"><ele>1.0</ele><time>2026-05-02T07:52:43.362Z</time></trkpt><trkpt lat="39.9182567" lon="8.4928417"><ele>1.0</ele><time>2026-05-02T07:52:44.362Z</time></trkpt><trkpt lat="39.9182133" lon="8.492725"><ele>1.0</ele><time>2026-05-02T07:52:45.362Z</time></trkpt><trkpt lat="39.9181567" lon="8.4925967"><ele>1.0</ele><time>2026-05-02T07:52:46.362Z</time></trkpt><trkpt lat="39.9181167" lon="8.4924867"><ele>1.0</ele><time>2026-05-02T07:52:47.362Z</time></trkpt><trkpt lat="39.918085" lon="8.4923967"><ele>1.0</ele><time>2026-05-02T07:52:48.362Z</time></trkpt><trkpt lat="39.9180833" lon="8.4923"><ele>1.0</ele><time>2026-05-02T07:52:49.362Z</time></trkpt><trkpt lat="39.9181017" lon="8.4922033"><ele>1.0</ele><time>2026-05-02T07:52:50.362Z</time></trkpt><trkpt lat="39.9181483" lon="8.4920883"><ele>1.0</ele><time>2026-05-02T07:52:51.362Z</time></trkpt><trkpt lat="39.9182233" lon="8.4919217"><ele>1.0</ele><time>2026-05-02T07:52:52.362Z</time></trkpt><trkpt lat="39.9183033" lon="8.4917483"><ele>1.0</ele><time>2026-05-02T07:52:53.362Z</time></trkpt><trkpt lat="39.9183783" lon="8.491595"><ele>1.0</ele><time>2026-05-02T07:52:54.362Z</time></trkpt><trkpt lat="39.918445" lon="8.4914583"><ele>1.0</ele><time>2026-05-02T07:52:55.362Z</time></trkpt><trkpt lat="39.918515" lon="8.49132"><ele>1.0</ele><time>2026-05-02T07:52:56.362Z</time></trkpt><trkpt lat="39.9185833" lon="8.4911767"><ele>1.0</ele><time>2026-05-02T07:52:57.362Z</time></trkpt><trkpt lat="39.9186483" lon="8.491045"><ele>1.0</ele><time>2026-05-02T07:52:58.362Z</time></trkpt><trkpt lat="39.9187167" lon="8.490925"><ele>1.0</ele><time>2026-05-02T07:52:59.362Z</time></trkpt><trkpt lat="39.918765" lon="8.4908017"><ele>1.0</ele><time>2026-05-02T07:53:00.362Z</time></trkpt><trkpt lat="39.9188183" lon="8.4906733"><ele>1.0</ele><time>2026-05-02T07:53:01.362Z</time></trkpt><trkpt lat="39.918855" lon="8.4905283"><ele>1.0</ele><time>2026-05-02T07:53:02.362Z</time></trkpt><trkpt lat="39.9188783" lon="8.4903667"><ele>1.0</ele><time>2026-05-02T07:53:03.362Z</time></trkpt><trkpt lat="39.91889" lon="8.4902"><ele>1.0</ele><time>2026-05-02T07:53:04.362Z</time></trkpt><trkpt lat="39.9189083" lon="8.4900283"><ele>1.0</ele><time>2026-05-02T07:53:05.362Z</time></trkpt><trkpt lat="39.918925" lon="8.4898483"><ele>1.0</ele><time>2026-05-02T07:53:06.362Z</time></trkpt><trkpt lat="39.9189367" lon="8.48967"><ele>1.0</ele><time>2026-05-02T07:53:07.362Z</time></trkpt><trkpt lat="39.9189717" lon="8.4894933"><ele>1.0</ele><time>2026-05-02T07:53:08.362Z</time></trkpt><trkpt lat="39.9190083" lon="8.4893217"><ele>1.0</ele><time>2026-05-02T07:53:09.362Z</time></trkpt><trkpt lat="39.9190533" lon="8.489145"><ele>1.0</ele><time>2026-05-02T07:53:10.362Z</time></trkpt><trkpt lat="39.9190867" lon="8.4889667"><ele>1.0</ele><time>2026-05-02T07:53:11.362Z</time></trkpt><trkpt lat="39.91912" lon="8.4887933"><ele>0.75</ele><time>2026-05-02T07:53:12.362Z</time></trkpt><trkpt lat="39.9191483" lon="8.48861"><ele>0.5</ele><time>2026-05-02T07:53:13.362Z</time></trkpt><trkpt lat="39.9191783" lon="8.4884283"><ele>0.25</ele><time>2026-05-02T07:53:14.362Z</time></trkpt><trkpt lat="39.9192117" lon="8.4882367"><ele>0.0</ele><time>2026-05-02T07:53:15.362Z</time></trkpt><trkpt lat="39.9192483" lon="8.4880533"><ele>0.25</ele><time>2026-05-02T07:53:16.362Z</time></trkpt><trkpt lat="39.9192717" lon="8.4878733"><ele>0.5</ele><time>2026-05-02T07:53:17.362Z</time></trkpt><trkpt lat="39.91929" lon="8.4876933"><ele>0.75</ele><time>2026-05-02T07:53:18.362Z</time></trkpt><trkpt lat="39.9193033" lon="8.4875133"><ele>1.0</ele><time>2026-05-02T07:53:19.362Z</time></trkpt><trkpt lat="39.9193183" lon="8.4873317"><ele>1.0</ele><time>2026-05-02T07:53:20.362Z</time></trkpt><trkpt lat="39.9193333" lon="8.487155"><ele>1.0</ele><time>2026-05-02T07:53:21.362Z</time></trkpt><trkpt lat="39.9193583" lon="8.4869767"><ele>1.0</ele><time>2026-05-02T07:53:22.362Z</time></trkpt><trkpt lat="39.9193867" lon="8.4867917"><ele>1.0</ele><time>2026-05-02T07:53:23.362Z</time></trkpt><trkpt lat="39.9194117" lon="8.4866167"><ele>1.0</ele><time>2026-05-02T07:53:24.362Z</time></trkpt><trkpt lat="39.9194467" lon="8.4864283"><ele>1.0</ele><time>2026-05-02T07:53:25.362Z</time></trkpt><trkpt lat="39.9194783" lon="8.4862483"><ele>1.0</ele><time>2026-05-02T07:53:26.362Z</time></trkpt><trkpt lat="39.919495" lon="8.4860533"><ele>1.0</ele><time>2026-05-02T07:53:27.362Z</time></trkpt><trkpt lat="39.9195217" lon="8.48585"><ele>1.0</ele><time>2026-05-02T07:53:28.362Z</time></trkpt><trkpt lat="39.9195417" lon="8.4856583"><ele>1.0</ele><time>2026-05-02T07:53:29.362Z</time></trkpt><trkpt lat="39.9195467" lon="8.4854683"><ele>1.0</ele><time>2026-05-02T07:53:30.362Z</time></trkpt><trkpt lat="39.9195567" lon="8.4852833"><ele>1.0</ele><time>2026-05-02T07:53:31.362Z</time></trkpt><trkpt lat="39.91957" lon="8.4850933"><ele>1.0</ele><time>2026-05-02T07:53:32.362Z</time></trkpt><trkpt lat="39.919595" lon="8.484905"><ele>1.0</ele><time>2026-05-02T07:53:33.362Z</time></trkpt><trkpt lat="39.9196217" lon="8.48472"><ele>1.0</ele><time>2026-05-02T07:53:34.362Z</time></trkpt><trkpt lat="39.9196433" lon="8.484525"><ele>1.0</ele><time>2026-05-02T07:53:35.362Z</time></trkpt><trkpt lat="39.919665" lon="8.484325"><ele>1.0</ele><time>2026-05-02T07:53:36.362Z</time></trkpt><trkpt lat="39.9196867" lon="8.4841317"><ele>1.0</ele><time>2026-05-02T07:53:37.362Z</time></trkpt><trkpt lat="39.9197083" lon="8.4839433"><ele>1.0</ele><time>2026-05-02T07:53:38.362Z</time></trkpt><trkpt lat="39.9197333" lon="8.4837483"><ele>1.0</ele><time>2026-05-02T07:53:39.362Z</time></trkpt><trkpt lat="39.9197533" lon="8.4835567"><ele>1.0</ele><time>2026-05-02T07:53:40.362Z</time></trkpt><trkpt lat="39.9197783" lon="8.4833683"><ele>1.0</ele><time>2026-05-02T07:53:41.362Z</time></trkpt><trkpt lat="39.919795" lon="8.48318"><ele>1.0</ele><time>2026-05-02T07:53:42.362Z</time></trkpt><trkpt lat="39.91981" lon="8.4830017"><ele>1.0</ele><time>2026-05-02T07:53:43.362Z</time></trkpt><trkpt lat="39.9198267" lon="8.482825"><ele>1.0</ele><time>2026-05-02T07:53:44.362Z</time></trkpt><trkpt lat="39.91985" lon="8.4826467"><ele>1.0</ele><time>2026-05-02T07:53:45.362Z</time></trkpt><trkpt lat="39.9198717" lon="8.48247"><ele>1.0</ele><time>2026-05-02T07:53:46.362Z</time></trkpt><trkpt lat="39.9199" lon="8.48228"><ele>1.0</ele><time>2026-05-02T07:53:47.362Z</time></trkpt><trkpt lat="39.919925" lon="8.4820967"><ele>1.0</ele><time>2026-05-02T07:53:48.362Z</time></trkpt><trkpt lat="39.91996" lon="8.4819033"><ele>1.0</ele><time>2026-05-02T07:53:49.362Z</time></trkpt><trkpt lat="39.91999" lon="8.481715"><ele>1.0</ele><time>2026-05-02T07:53:50.362Z</time></trkpt><trkpt lat="39.9200183" lon="8.4815333"><ele>1.0</ele><time>2026-05-02T07:53:51.362Z</time></trkpt><trkpt lat="39.9200483" lon="8.481345"><ele>1.0</ele><time>2026-05-02T07:53:52.362Z</time></trkpt><trkpt lat="39.92007" lon="8.4811683"><ele>1.0</ele><time>2026-05-02T07:53:53.362Z</time></trkpt><trkpt lat="39.9200883" lon="8.481"><ele>1.0</ele><time>2026-05-02T07:53:54.362Z</time></trkpt><trkpt lat="39.9201" lon="8.480825"><ele>1.0</ele><time>2026-05-02T07:53:55.362Z</time></trkpt><trkpt lat="39.9201067" lon="8.4806417"><ele>1.0</ele><time>2026-05-02T07:53:56.362Z</time></trkpt><trkpt lat="39.9200983" lon="8.4804583"><ele>1.0</ele><time>2026-05-02T07:53:57.362Z</time></trkpt><trkpt lat="39.9200867" lon="8.4802617"><ele>1.0</ele><time>2026-05-02T07:53:58.362Z</time></trkpt><trkpt lat="39.9200767" lon="8.4800733"><ele>1.0</ele><time>2026-05-02T07:53:59.362Z</time></trkpt><trkpt lat="39.9200633" lon="8.4799017"><ele>1.25</ele><time>2026-05-02T07:54:00.362Z</time></trkpt><trkpt lat="39.92005" lon="8.479735"><ele>1.5</ele><time>2026-05-02T07:54:01.362Z</time></trkpt><trkpt lat="39.9200367" lon="8.4795883"><ele>1.75</ele><time>2026-05-02T07:54:02.362Z</time></trkpt><trkpt lat="39.9200317" lon="8.4794483"><ele>2.0</ele><time>2026-05-02T07:54:03.362Z</time></trkpt><trkpt lat="39.9200383" lon="8.47931"><ele>2.0</ele><time>2026-05-02T07:54:04.362Z</time></trkpt><trkpt lat="39.920055" lon="8.47917"><ele>2.0</ele><time>2026-05-02T07:54:05.362Z</time></trkpt><trkpt lat="39.9200783" lon="8.4790383"><ele>2.0</ele><time>2026-05-02T07:54:06.362Z</time></trkpt><trkpt lat="39.9200933" lon="8.4789183"><ele>2.0</ele><time>2026-05-02T07:54:07.362Z</time></trkpt><trkpt lat="39.9201" lon="8.478805"><ele>2.0</ele><time>2026-05-02T07:54:08.362Z</time></trkpt><trkpt lat="39.9200917" lon="8.4786883"><ele>2.0</ele><time>2026-05-02T07:54:09.362Z</time></trkpt><trkpt lat="39.9200883" lon="8.47856"><ele>2.0</ele><time>2026-05-02T07:54:10.362Z</time></trkpt><trkpt lat="39.9200833" lon="8.47843"><ele>2.0</ele><time>2026-05-02T07:54:11.362Z</time></trkpt><trkpt lat="39.9200683" lon="8.478315"><ele>2.0</ele><time>2026-05-02T07:54:12.362Z</time></trkpt><trkpt lat="39.9200717" lon="8.4781933"><ele>2.0</ele><time>2026-05-02T07:54:13.362Z</time></trkpt><trkpt lat="39.920075" lon="8.47807"><ele>1.9999999999999998</ele><time>2026-05-02T07:54:14.362Z</time></trkpt><trkpt lat="39.92007" lon="8.4779533"><ele>2.0</ele><time>2026-05-02T07:54:15.362Z</time></trkpt><trkpt lat="39.9200633" lon="8.4778333"><ele>2.0</ele><time>2026-05-02T07:54:16.362Z</time></trkpt><trkpt lat="39.9200567" lon="8.47772"><ele>2.0</ele><time>2026-05-02T07:54:17.362Z</time></trkpt><trkpt lat="39.92005" lon="8.47762"><ele>1.9999999999999998</ele><time>2026-05-02T07:54:18.362Z</time></trkpt><trkpt lat="39.92005" lon="8.47752"><ele>2.0</ele><time>2026-05-02T07:54:19.362Z</time></trkpt><trkpt lat="39.9200517" lon="8.4774167"><ele>1.9999999999999998</ele><time>2026-05-02T07:54:20.362Z</time></trkpt><trkpt lat="39.9200517" lon="8.4773017"><ele>2.0</ele><time>2026-05-02T07:54:21.362Z</time></trkpt><trkpt lat="39.9200483" lon="8.4771933"><ele>2.0</ele><time>2026-05-02T07:54:22.362Z</time></trkpt><trkpt lat="39.9200417" lon="8.47709"><ele>2.0</ele><time>2026-05-02T07:54:23.362Z</time></trkpt><trkpt lat="39.9200417" lon="8.4769933"><ele>1.9999999999999998</ele><time>2026-05-02T07:54:24.362Z</time></trkpt><trkpt lat="39.9200367" lon="8.476885"><ele>2.0</ele><time>2026-05-02T07:54:25.362Z</time></trkpt><trkpt lat="39.9200383" lon="8.4767717"><ele>1.9999999999999998</ele><time>2026-05-02T07:54:26.362Z</time></trkpt><trkpt lat="39.9200367" lon="8.4766667"><ele>2.0</ele><time>2026-05-02T07:54:27.362Z</time></trkpt><trkpt lat="39.920035" lon="8.4765583"><ele>2.0</ele><time>2026-05-02T07:54:28.362Z</time></trkpt><trkpt lat="39.92003" lon="8.4764583"><ele>2.0</ele><time>2026-05-02T07:54:29.362Z</time></trkpt><trkpt lat="39.9200217" lon="8.4763467"><ele>1.9999999999999998</ele><time>2026-05-02T07:54:30.362Z</time></trkpt><trkpt lat="39.9200167" lon="8.476235"><ele>2.0</ele><time>2026-05-02T07:54:31.362Z</time></trkpt><trkpt lat="39.920015" lon="8.47612"><ele>2.0</ele><time>2026-05-02T07:54:32.362Z</time></trkpt><trkpt lat="39.9200133" lon="8.4759933"><ele>2.0</ele><time>2026-05-02T07:54:33.362Z</time></trkpt><trkpt lat="39.9200017" lon="8.4758617"><ele>2.0</ele><time>2026-05-02T07:54:34.362Z</time></trkpt><trkpt lat="39.9200067" lon="8.4757267"><ele>2.0</ele><time>2026-05-02T07:54:35.362Z</time></trkpt><trkpt lat="39.9200183" lon="8.4755833"><ele>2.0</ele><time>2026-05-02T07:54:36.362Z</time></trkpt><trkpt lat="39.9200267" lon="8.4754367"><ele>2.2</ele><time>2026-05-02T07:54:37.362Z</time></trkpt><trkpt lat="39.9200267" lon="8.4752883"><ele>2.4000000000000004</ele><time>2026-05-02T07:54:38.362Z</time></trkpt><trkpt lat="39.9200333" lon="8.475145"><ele>2.5999999999999996</ele><time>2026-05-02T07:54:39.362Z</time></trkpt><trkpt lat="39.9200317" lon="8.4750067"><ele>2.8</ele><time>2026-05-02T07:54:40.362Z</time></trkpt><trkpt lat="39.9200317" lon="8.4748717"><ele>3.0</ele><time>2026-05-02T07:54:41.362Z</time></trkpt><trkpt lat="39.92003" lon="8.4747333"><ele>3.0</ele><time>2026-05-02T07:54:42.362Z</time></trkpt><trkpt lat="39.9200233" lon="8.4745867"><ele>3.0</ele><time>2026-05-02T07:54:43.362Z</time></trkpt><trkpt lat="39.92002" lon="8.4744467"><ele>3.0</ele><time>2026-05-02T07:54:44.362Z</time></trkpt><trkpt lat="39.9200183" lon="8.4743117"><ele>3.0</ele><time>2026-05-02T07:54:45.362Z</time></trkpt><trkpt lat="39.92003" lon="8.4741583"><ele>3.0</ele><time>2026-05-02T07:54:46.362Z</time></trkpt><trkpt lat="39.9200517" lon="8.47402"><ele>3.0</ele><time>2026-05-02T07:54:47.362Z</time></trkpt><trkpt lat="39.920065" lon="8.4738833"><ele>3.0</ele><time>2026-05-02T07:54:48.362Z</time></trkpt><trkpt lat="39.920095" lon="8.4737333"><ele>3.0</ele><time>2026-05-02T07:54:49.362Z</time></trkpt><trkpt lat="39.9201133" lon="8.4735783"><ele>3.0</ele><time>2026-05-02T07:54:50.362Z</time></trkpt><trkpt lat="39.9201267" lon="8.47342"><ele>3.0</ele><time>2026-05-02T07:54:51.362Z</time></trkpt><trkpt lat="39.9201317" lon="8.4732717"><ele>3.0</ele><time>2026-05-02T07:54:52.362Z</time></trkpt><trkpt lat="39.9201217" lon="8.4731067"><ele>3.0</ele><time>2026-05-02T07:54:53.362Z</time></trkpt><trkpt lat="39.920105" lon="8.4729417"><ele>3.0</ele><time>2026-05-02T07:54:54.362Z</time></trkpt><trkpt lat="39.9200833" lon="8.4727633"><ele>3.0</ele><time>2026-05-02T07:54:55.362Z</time></trkpt><trkpt lat="39.9200683" lon="8.4725783"><ele>3.0</ele><time>2026-05-02T07:54:56.362Z</time></trkpt><trkpt lat="39.9200617" lon="8.472385"><ele>3.0</ele><time>2026-05-02T07:54:57.362Z</time></trkpt><trkpt lat="39.9200667" lon="8.4721817"><ele>3.0</ele><time>2026-05-02T07:54:58.362Z</time></trkpt><trkpt lat="39.9200883" lon="8.4719733"><ele>2.6666666666666665</ele><time>2026-05-02T07:54:59.362Z</time></trkpt><trkpt lat="39.920095" lon="8.4717683"><ele>2.333333333333333</ele><time>2026-05-02T07:55:00.362Z</time></trkpt><trkpt lat="39.9201017" lon="8.4715667"><ele>2.0</ele><time>2026-05-02T07:55:01.362Z</time></trkpt><trkpt lat="39.9201067" lon="8.4713667"><ele>2.0</ele><time>2026-05-02T07:55:02.362Z</time></trkpt><trkpt lat="39.920115" lon="8.4711817"><ele>2.0</ele><time>2026-05-02T07:55:03.362Z</time></trkpt><trkpt lat="39.9201183" lon="8.470995"><ele>2.0</ele><time>2026-05-02T07:55:04.362Z</time></trkpt><trkpt lat="39.9201267" lon="8.4708117"><ele>2.0</ele><time>2026-05-02T07:55:05.362Z</time></trkpt><trkpt lat="39.9201283" lon="8.47064"><ele>1.9999999999999998</ele><time>2026-05-02T07:55:06.362Z</time></trkpt><trkpt lat="39.9201133" lon="8.4705"><ele>2.0</ele><time>2026-05-02T07:55:07.362Z</time></trkpt><trkpt lat="39.9201" lon="8.4703933"><ele>2.0</ele><time>2026-05-02T07:55:08.362Z</time></trkpt><trkpt lat="39.9200733" lon="8.4702933"><ele>2.0</ele><time>2026-05-02T07:55:09.362Z</time></trkpt><trkpt lat="39.9200483" lon="8.470195"><ele>1.9999999999999998</ele><time>2026-05-02T07:55:10.362Z</time></trkpt><trkpt lat="39.9200267" lon="8.47009"><ele>2.0</ele><time>2026-05-02T07:55:11.362Z</time></trkpt><trkpt lat="39.9200083" lon="8.4699717"><ele>1.8</ele><time>2026-05-02T07:55:12.361Z</time></trkpt><trkpt lat="39.9200017" lon="8.4698333"><ele>1.6</ele><time>2026-05-02T07:55:13.361Z</time></trkpt><trkpt lat="39.9199983" lon="8.4696883"><ele>1.4000000000000001</ele><time>2026-05-02T07:55:14.361Z</time></trkpt><trkpt lat="39.919995" lon="8.4695483"><ele>1.2000000000000002</ele><time>2026-05-02T07:55:15.361Z</time></trkpt><trkpt lat="39.9199783" lon="8.4694183"><ele>1.0</ele><time>2026-05-02T07:55:16.361Z</time></trkpt><trkpt lat="39.9199667" lon="8.4692917"><ele>1.0</ele><time>2026-05-02T07:55:17.361Z</time></trkpt><trkpt lat="39.9199683" lon="8.4691567"><ele>1.0</ele><time>2026-05-02T07:55:18.361Z</time></trkpt><trkpt lat="39.919975" lon="8.4690017"><ele>1.0</ele><time>2026-05-02T07:55:19.361Z</time></trkpt><trkpt lat="39.919985" lon="8.4688533"><ele>1.0</ele><time>2026-05-02T07:55:20.361Z</time></trkpt><trkpt lat="39.91999" lon="8.468715"><ele>1.0</ele><time>2026-05-02T07:55:21.361Z</time></trkpt><trkpt lat="39.919995" lon="8.4685783"><ele>1.2000000000000002</ele><time>2026-05-02T07:55:22.361Z</time></trkpt><trkpt lat="39.9200033" lon="8.4684417"><ele>1.4000000000000001</ele><time>2026-05-02T07:55:23.361Z</time></trkpt><trkpt lat="39.9200067" lon="8.4683033"><ele>1.6</ele><time>2026-05-02T07:55:24.361Z</time></trkpt><trkpt lat="39.92001" lon="8.46817"><ele>1.8</ele><time>2026-05-02T07:55:25.361Z</time></trkpt><trkpt lat="39.9200117" lon="8.468025"><ele>2.0</ele><time>2026-05-02T07:55:26.361Z</time></trkpt><trkpt lat="39.9200067" lon="8.467875"><ele>2.0</ele><time>2026-05-02T07:55:27.361Z</time></trkpt><trkpt lat="39.9199867" lon="8.4677367"><ele>2.0</ele><time>2026-05-02T07:55:28.361Z</time></trkpt><trkpt lat="39.9199567" lon="8.4676133"><ele>2.0</ele><time>2026-05-02T07:55:29.361Z</time></trkpt><trkpt lat="39.9199167" lon="8.4674967"><ele>2.0</ele><time>2026-05-02T07:55:30.361Z</time></trkpt><trkpt lat="39.9198567" lon="8.4673833"><ele>2.0</ele><time>2026-05-02T07:55:31.361Z</time></trkpt><trkpt lat="39.9197883" lon="8.467275"><ele>2.0</ele><time>2026-05-02T07:55:32.361Z</time></trkpt><trkpt lat="39.9197233" lon="8.4671683"><ele>2.0</ele><time>2026-05-02T07:55:33.361Z</time></trkpt><trkpt lat="39.9196633" lon="8.46706"><ele>2.0</ele><time>2026-05-02T07:55:34.361Z</time></trkpt><trkpt lat="39.9196133" lon="8.4669433"><ele>2.0</ele><time>2026-05-02T07:55:35.361Z</time></trkpt><trkpt lat="39.9195767" lon="8.4668233"><ele>2.0</ele><time>2026-05-02T07:55:36.361Z</time></trkpt><trkpt lat="39.9195383" lon="8.4667033"><ele>2.0</ele><time>2026-05-02T07:55:37.361Z</time></trkpt><trkpt lat="39.9195017" lon="8.466575"><ele>2.0</ele><time>2026-05-02T07:55:38.361Z</time></trkpt><trkpt lat="39.9194517" lon="8.4664367"><ele>2.0</ele><time>2026-05-02T07:55:39.361Z</time></trkpt><trkpt lat="39.9194" lon="8.4662883"><ele>2.0</ele><time>2026-05-02T07:55:40.361Z</time></trkpt><trkpt lat="39.9193367" lon="8.4661333"><ele>2.25</ele><time>2026-05-02T07:55:41.361Z</time></trkpt><trkpt lat="39.91927" lon="8.4659717"><ele>2.5</ele><time>2026-05-02T07:55:42.361Z</time></trkpt><trkpt lat="39.9192067" lon="8.4658133"><ele>2.75</ele><time>2026-05-02T07:55:43.361Z</time></trkpt><trkpt lat="39.9191533" lon="8.4656483"><ele>3.0</ele><time>2026-05-02T07:55:44.361Z</time></trkpt><trkpt lat="39.9190967" lon="8.46549"><ele>2.75</ele><time>2026-05-02T07:55:45.361Z</time></trkpt><trkpt lat="39.9190567" lon="8.465345"><ele>2.5</ele><time>2026-05-02T07:55:46.361Z</time></trkpt><trkpt lat="39.91903" lon="8.4651917"><ele>2.25</ele><time>2026-05-02T07:55:47.361Z</time></trkpt><trkpt lat="39.9190083" lon="8.4650267"><ele>2.0</ele><time>2026-05-02T07:55:48.361Z</time></trkpt><trkpt lat="39.9189933" lon="8.4648583"><ele>2.0</ele><time>2026-05-02T07:55:49.361Z</time></trkpt><trkpt lat="39.9189767" lon="8.4646783"><ele>2.0</ele><time>2026-05-02T07:55:50.361Z</time></trkpt><trkpt lat="39.9189617" lon="8.4645067"><ele>2.0</ele><time>2026-05-02T07:55:51.361Z</time></trkpt><trkpt lat="39.9189617" lon="8.4643383"><ele>2.0</ele><time>2026-05-02T07:55:52.361Z</time></trkpt><trkpt lat="39.91896" lon="8.4641667"><ele>2.0</ele><time>2026-05-02T07:55:53.361Z</time></trkpt><trkpt lat="39.9189683" lon="8.4639917"><ele>2.0</ele><time>2026-05-02T07:55:54.361Z</time></trkpt><trkpt lat="39.9189767" lon="8.4638183"><ele>2.0</ele><time>2026-05-02T07:55:55.361Z</time></trkpt><trkpt lat="39.918995" lon="8.46362"><ele>2.0</ele><time>2026-05-02T07:55:56.361Z</time></trkpt><trkpt lat="39.919015" lon="8.4634217"><ele>2.0</ele><time>2026-05-02T07:55:57.361Z</time></trkpt><trkpt lat="39.91903" lon="8.463225"><ele>2.0</ele><time>2026-05-02T07:55:58.361Z</time></trkpt><trkpt lat="39.919045" lon="8.463035"><ele>2.0</ele><time>2026-05-02T07:55:59.361Z</time></trkpt><trkpt lat="39.9190683" lon="8.4628317"><ele>2.0</ele><time>2026-05-02T07:56:00.361Z</time></trkpt><trkpt lat="39.9190867" lon="8.46264"><ele>2.0</ele><time>2026-05-02T07:56:01.361Z</time></trkpt><trkpt lat="39.9191083" lon="8.46246"><ele>2.0</ele><time>2026-05-02T07:56:02.361Z</time></trkpt><trkpt lat="39.919115" lon="8.46228"><ele>2.0</ele><time>2026-05-02T07:56:03.361Z</time></trkpt><trkpt lat="39.9191283" lon="8.462105"><ele>2.25</ele><time>2026-05-02T07:56:04.361Z</time></trkpt><trkpt lat="39.9191367" lon="8.461925"><ele>2.5</ele><time>2026-05-02T07:56:05.361Z</time></trkpt><trkpt lat="39.9191417" lon="8.4617583"><ele>2.75</ele><time>2026-05-02T07:56:06.361Z</time></trkpt><trkpt lat="39.9191433" lon="8.4615817"><ele>3.0</ele><time>2026-05-02T07:56:07.361Z</time></trkpt><trkpt lat="39.9191417" lon="8.461425"><ele>3.0</ele><time>2026-05-02T07:56:08.361Z</time></trkpt><trkpt lat="39.9191467" lon="8.461245"><ele>3.0</ele><time>2026-05-02T07:56:09.361Z</time></trkpt><trkpt lat="39.919145" lon="8.46106"><ele>3.0</ele><time>2026-05-02T07:56:10.361Z</time></trkpt><trkpt lat="39.9191517" lon="8.4608817"><ele>3.0</ele><time>2026-05-02T07:56:11.361Z</time></trkpt><trkpt lat="39.9191567" lon="8.460685"><ele>3.0</ele><time>2026-05-02T07:56:12.361Z</time></trkpt><trkpt lat="39.9191683" lon="8.46049"><ele>3.0</ele><time>2026-05-02T07:56:13.361Z</time></trkpt><trkpt lat="39.919175" lon="8.4602817"><ele>3.0</ele><time>2026-05-02T07:56:14.361Z</time></trkpt><trkpt lat="39.919185" lon="8.4600817"><ele>3.0</ele><time>2026-05-02T07:56:15.361Z</time></trkpt><trkpt lat="39.91919" lon="8.45988"><ele>3.0</ele><time>2026-05-02T07:56:16.361Z</time></trkpt><trkpt lat="39.9191833" lon="8.4596767"><ele>3.0</ele><time>2026-05-02T07:56:17.361Z</time></trkpt><trkpt lat="39.91918" lon="8.4594767"><ele>3.0</ele><time>2026-05-02T07:56:18.361Z</time></trkpt><trkpt lat="39.9191867" lon="8.4592783"><ele>3.0</ele><time>2026-05-02T07:56:19.361Z</time></trkpt><trkpt lat="39.9192033" lon="8.4590867"><ele>3.0</ele><time>2026-05-02T07:56:20.361Z</time></trkpt><trkpt lat="39.919215" lon="8.458895"><ele>3.0</ele><time>2026-05-02T07:56:21.361Z</time></trkpt><trkpt lat="39.91922" lon="8.4587033"><ele>2.75</ele><time>2026-05-02T07:56:22.361Z</time></trkpt><trkpt lat="39.91922" lon="8.45851"><ele>2.5</ele><time>2026-05-02T07:56:23.361Z</time></trkpt><trkpt lat="39.91922" lon="8.4583267"><ele>2.25</ele><time>2026-05-02T07:56:24.361Z</time></trkpt><trkpt lat="39.919215" lon="8.4581417"><ele>2.0</ele><time>2026-05-02T07:56:25.361Z</time></trkpt><trkpt lat="39.91921" lon="8.457965"><ele>2.0</ele><time>2026-05-02T07:56:26.361Z</time></trkpt><trkpt lat="39.9192083" lon="8.4577933"><ele>2.0</ele><time>2026-05-02T07:56:27.361Z</time></trkpt><trkpt lat="39.91921" lon="8.4576167"><ele>2.0</ele><time>2026-05-02T07:56:28.361Z</time></trkpt><trkpt lat="39.919215" lon="8.457455"><ele>2.0</ele><time>2026-05-02T07:56:29.361Z</time></trkpt><trkpt lat="39.91922" lon="8.4572767"><ele>2.0</ele><time>2026-05-02T07:56:30.361Z</time></trkpt><trkpt lat="39.9192267" lon="8.45709"><ele>2.0</ele><time>2026-05-02T07:56:31.361Z</time></trkpt><trkpt lat="39.9192317" lon="8.4568883"><ele>2.0</ele><time>2026-05-02T07:56:32.361Z</time></trkpt><trkpt lat="39.9192333" lon="8.4566867"><ele>2.0</ele><time>2026-05-02T07:56:33.361Z</time></trkpt><trkpt lat="39.9192317" lon="8.456485"><ele>2.0</ele><time>2026-05-02T07:56:34.361Z</time></trkpt><trkpt lat="39.91923" lon="8.4562983"><ele>2.0</ele><time>2026-05-02T07:56:35.361Z</time></trkpt><trkpt lat="39.91923" lon="8.45611"><ele>2.0</ele><time>2026-05-02T07:56:36.361Z</time></trkpt><trkpt lat="39.9192433" lon="8.4559017"><ele>2.333333333333333</ele><time>2026-05-02T07:56:37.361Z</time></trkpt><trkpt lat="39.9192667" lon="8.4556883"><ele>2.6666666666666665</ele><time>2026-05-02T07:56:38.361Z</time></trkpt><trkpt lat="39.9192817" lon="8.4554567"><ele>3.0</ele><time>2026-05-02T07:56:39.361Z</time></trkpt><trkpt lat="39.9192983" lon="8.4552517"><ele>3.0</ele><time>2026-05-02T07:56:40.361Z</time></trkpt><trkpt lat="39.9193217" lon="8.4550667"><ele>3.0</ele><time>2026-05-02T07:56:41.361Z</time></trkpt><trkpt lat="39.9193383" lon="8.454895"><ele>3.0</ele><time>2026-05-02T07:56:42.361Z</time></trkpt><trkpt lat="39.9193633" lon="8.45473"><ele>3.0</ele><time>2026-05-02T07:56:43.361Z</time></trkpt><trkpt lat="39.9194" lon="8.4545717"><ele>3.0</ele><time>2026-05-02T07:56:44.361Z</time></trkpt><trkpt lat="39.9194167" lon="8.4544117"><ele>3.0</ele><time>2026-05-02T07:56:45.361Z</time></trkpt><trkpt lat="39.91943" lon="8.4542667"><ele>3.0</ele><time>2026-05-02T07:56:46.361Z</time></trkpt><trkpt lat="39.9194433" lon="8.4541067"><ele>3.0</ele><time>2026-05-02T07:56:47.361Z</time></trkpt><trkpt lat="39.91944" lon="8.4539433"><ele>3.25</ele><time>2026-05-02T07:56:48.361Z</time></trkpt><trkpt lat="39.9194383" lon="8.45378"><ele>3.5</ele><time>2026-05-02T07:56:49.361Z</time></trkpt><trkpt lat="39.91943" lon="8.4536283"><ele>3.75</ele><time>2026-05-02T07:56:50.361Z</time></trkpt><trkpt lat="39.919435" lon="8.4534717"><ele>4.0</ele><time>2026-05-02T07:56:51.361Z</time></trkpt><trkpt lat="39.9194517" lon="8.4533167"><ele>4.0</ele><time>2026-05-02T07:56:52.361Z</time></trkpt><trkpt lat="39.919475" lon="8.4531733"><ele>4.0</ele><time>2026-05-02T07:56:53.361Z</time></trkpt><trkpt lat="39.919505" lon="8.4530417"><ele>4.0</ele><time>2026-05-02T07:56:54.361Z</time></trkpt><trkpt lat="39.9195417" lon="8.45291"><ele>4.0</ele><time>2026-05-02T07:56:55.361Z</time></trkpt><trkpt lat="39.919585" lon="8.45279"><ele>4.0</ele><time>2026-05-02T07:56:56.361Z</time></trkpt><trkpt lat="39.91962" lon="8.452695"><ele>4.2</ele><time>2026-05-02T07:56:57.361Z</time></trkpt><trkpt lat="39.91965" lon="8.4525867"><ele>4.4</ele><time>2026-05-02T07:56:58.361Z</time></trkpt><trkpt lat="39.9196983" lon="8.45248"><ele>4.6</ele><time>2026-05-02T07:56:59.361Z</time></trkpt><trkpt lat="39.91975" lon="8.45237"><ele>4.8</ele><time>2026-05-02T07:57:00.361Z</time></trkpt><trkpt lat="39.9198067" lon="8.4522467"><ele>5.0</ele><time>2026-05-02T07:57:01.361Z</time></trkpt><trkpt lat="39.919865" lon="8.4521217"><ele>5.0</ele><time>2026-05-02T07:57:02.361Z</time></trkpt><trkpt lat="39.9199267" lon="8.4519983"><ele>5.0</ele><time>2026-05-02T07:57:03.361Z</time></trkpt><trkpt lat="39.9199767" lon="8.4518883"><ele>5.0</ele><time>2026-05-02T07:57:04.361Z</time></trkpt><trkpt lat="39.9200333" lon="8.4517717"><ele>5.0</ele><time>2026-05-02T07:57:05.361Z</time></trkpt><trkpt lat="39.9200933" lon="8.4516783"><ele>5.0</ele><time>2026-05-02T07:57:06.361Z</time></trkpt><trkpt lat="39.92016" lon="8.45159"><ele>5.4</ele><time>2026-05-02T07:57:07.361Z</time></trkpt><trkpt lat="39.920225" lon="8.4514917"><ele>5.8</ele><time>2026-05-02T07:57:08.361Z</time></trkpt><trkpt lat="39.9202783" lon="8.4514133"><ele>6.199999999999999</ele><time>2026-05-02T07:57:09.361Z</time></trkpt><trkpt lat="39.9203267" lon="8.4512933"><ele>6.6</ele><time>2026-05-02T07:57:11.361Z</time></trkpt><trkpt lat="39.9203117" lon="8.45119"><ele>7.0</ele><time>2026-05-02T07:57:14.361Z</time></trkpt><trkpt lat="39.9203683" lon="8.4510967"><ele>7.0</ele><time>2026-05-02T07:57:17.361Z</time></trkpt><trkpt lat="39.9204317" lon="8.4510517"><ele>6.999999999999999</ele><time>2026-05-02T07:57:18.361Z</time></trkpt><trkpt lat="39.920515" lon="8.4509783"><ele>6.999999999999999</ele><time>2026-05-02T07:57:19.361Z</time></trkpt><trkpt lat="39.9206133" lon="8.450915"><ele>7.0</ele><time>2026-05-02T07:57:20.361Z</time></trkpt><trkpt lat="39.920725" lon="8.450875"><ele>7.0</ele><time>2026-05-02T07:57:21.361Z</time></trkpt><trkpt lat="39.92085" lon="8.4508633"><ele>7.25</ele><time>2026-05-02T07:57:22.361Z</time></trkpt><trkpt lat="39.920995" lon="8.45089"><ele>7.5</ele><time>2026-05-02T07:57:23.361Z</time></trkpt><trkpt lat="39.9211217" lon="8.4509717"><ele>7.75</ele><time>2026-05-02T07:57:24.361Z</time></trkpt><trkpt lat="39.9212383" lon="8.4510867"><ele>8.0</ele><time>2026-05-02T07:57:25.361Z</time></trkpt><trkpt lat="39.9213633" lon="8.4512017"><ele>8.0</ele><time>2026-05-02T07:57:26.361Z</time></trkpt><trkpt lat="39.9214967" lon="8.4513217"><ele>8.0</ele><time>2026-05-02T07:57:27.361Z</time></trkpt><trkpt lat="39.9216417" lon="8.4514433"><ele>8.0</ele><time>2026-05-02T07:57:28.361Z</time></trkpt><trkpt lat="39.9217783" lon="8.4515683"><ele>8.0</ele><time>2026-05-02T07:57:29.361Z</time></trkpt><trkpt lat="39.9219167" lon="8.4516867"><ele>8.0</ele><time>2026-05-02T07:57:30.361Z</time></trkpt><trkpt lat="39.922065" lon="8.4518067"><ele>8.0</ele><time>2026-05-02T07:57:31.361Z</time></trkpt><trkpt lat="39.9221817" lon="8.4519367"><ele>8.0</ele><time>2026-05-02T07:57:32.361Z</time></trkpt><trkpt lat="39.9223167" lon="8.4520533"><ele>8.0</ele><time>2026-05-02T07:57:33.362Z</time></trkpt><trkpt lat="39.9224633" lon="8.4521717"><ele>8.0</ele><time>2026-05-02T07:57:34.361Z</time></trkpt><trkpt lat="39.9226233" lon="8.4523083"><ele>8.0</ele><time>2026-05-02T07:57:35.361Z</time></trkpt><trkpt lat="39.9227617" lon="8.452435"><ele>8.0</ele><time>2026-05-02T07:57:36.361Z</time></trkpt><trkpt lat="39.9229067" lon="8.4525517"><ele>8.0</ele><time>2026-05-02T07:57:37.361Z</time></trkpt><trkpt lat="39.923055" lon="8.452665"><ele>8.0</ele><time>2026-05-02T07:57:38.361Z</time></trkpt><trkpt lat="39.92321" lon="8.4527883"><ele>8.0</ele><time>2026-05-02T07:57:39.361Z</time></trkpt><trkpt lat="39.9233683" lon="8.4529017"><ele>8.0</ele><time>2026-05-02T07:57:40.361Z</time></trkpt><trkpt lat="39.92352" lon="8.4530033"><ele>9.0</ele><time>2026-05-02T07:57:41.361Z</time></trkpt><trkpt lat="39.9236783" lon="8.4531067"><ele>10.0</ele><time>2026-05-02T07:57:42.361Z</time></trkpt><trkpt lat="39.9238333" lon="8.4532117"><ele>11.0</ele><time>2026-05-02T07:57:43.361Z</time></trkpt><trkpt lat="39.9239917" lon="8.4533183"><ele>11.0</ele><time>2026-05-02T07:57:44.361Z</time></trkpt><trkpt lat="39.9241467" lon="8.4534267"><ele>11.0</ele><time>2026-05-02T07:57:45.361Z</time></trkpt><trkpt lat="39.9242867" lon="8.4535283"><ele>11.0</ele><time>2026-05-02T07:57:46.361Z</time></trkpt><trkpt lat="39.9244333" lon="8.4536433"><ele>10.666666666666666</ele><time>2026-05-02T07:57:47.361Z</time></trkpt><trkpt lat="39.9245817" lon="8.453765"><ele>10.333333333333334</ele><time>2026-05-02T07:57:48.361Z</time></trkpt><trkpt lat="39.9247267" lon="8.453885"><ele>10.0</ele><time>2026-05-02T07:57:49.361Z</time></trkpt><trkpt lat="39.924855" lon="8.45401"><ele>10.0</ele><time>2026-05-02T07:57:50.361Z</time></trkpt><trkpt lat="39.9249817" lon="8.4541117"><ele>10.0</ele><time>2026-05-02T07:57:51.361Z</time></trkpt><trkpt lat="39.9251133" lon="8.4542233"><ele>10.0</ele><time>2026-05-02T07:57:52.361Z</time></trkpt><trkpt lat="39.9252367" lon="8.454325"><ele>10.5</ele><time>2026-05-02T07:57:53.361Z</time></trkpt><trkpt lat="39.925355" lon="8.4544167"><ele>11.0</ele><time>2026-05-02T07:57:54.361Z</time></trkpt><trkpt lat="39.925485" lon="8.4544983"><ele>11.5</ele><time>2026-05-02T07:57:55.361Z</time></trkpt><trkpt lat="39.9256217" lon="8.4545617"><ele>12.0</ele><time>2026-05-02T07:57:56.361Z</time></trkpt><trkpt lat="39.9257767" lon="8.45461"><ele>12.0</ele><time>2026-05-02T07:57:57.361Z</time></trkpt><trkpt lat="39.92595" lon="8.4546433"><ele>12.0</ele><time>2026-05-02T07:57:58.361Z</time></trkpt><trkpt lat="39.926115" lon="8.4546583"><ele>12.0</ele><time>2026-05-02T07:57:59.361Z</time></trkpt><trkpt lat="39.9262717" lon="8.4546767"><ele>12.0</ele><time>2026-05-02T07:58:00.361Z</time></trkpt><trkpt lat="39.9264367" lon="8.454675"><ele>12.0</ele><time>2026-05-02T07:58:01.361Z</time></trkpt><trkpt lat="39.9266" lon="8.4546967"><ele>12.0</ele><time>2026-05-02T07:58:02.361Z</time></trkpt><trkpt lat="39.9267767" lon="8.454725"><ele>13.333333333333332</ele><time>2026-05-02T07:58:03.361Z</time></trkpt><trkpt lat="39.926955" lon="8.454765"><ele>14.666666666666666</ele><time>2026-05-02T07:58:04.361Z</time></trkpt><trkpt lat="39.9271367" lon="8.4548367"><ele>16.0</ele><time>2026-05-02T07:58:05.361Z</time></trkpt><trkpt lat="39.9273233" lon="8.4549083"><ele>16.0</ele><time>2026-05-02T07:58:06.361Z</time></trkpt><trkpt lat="39.927505" lon="8.45497"><ele>16.0</ele><time>2026-05-02T07:58:07.361Z</time></trkpt><trkpt lat="39.92768" lon="8.455045"><ele>16.0</ele><time>2026-05-02T07:58:08.361Z</time></trkpt><trkpt lat="39.92785" lon="8.4551067"><ele>16.666666666666664</ele><time>2026-05-02T07:58:09.361Z</time></trkpt><trkpt lat="39.9280183" lon="8.4551783"><ele>17.333333333333332</ele><time>2026-05-02T07:58:10.361Z</time></trkpt><trkpt lat="39.9281817" lon="8.4552367"><ele>18.0</ele><time>2026-05-02T07:58:11.361Z</time></trkpt><trkpt lat="39.9283333" lon="8.4553017"><ele>18.25</ele><time>2026-05-02T07:58:12.361Z</time></trkpt><trkpt lat="39.9284717" lon="8.4553517"><ele>18.5</ele><time>2026-05-02T07:58:13.361Z</time></trkpt><trkpt lat="39.9285967" lon="8.455405"><ele>18.75</ele><time>2026-05-02T07:58:14.361Z</time></trkpt><trkpt lat="39.9287217" lon="8.4554583"><ele>19.0</ele><time>2026-05-02T07:58:15.361Z</time></trkpt><trkpt lat="39.92883" lon="8.4554933"><ele>19.0</ele><time>2026-05-02T07:58:16.361Z</time></trkpt><trkpt lat="39.928945" lon="8.4555467"><ele>19.0</ele><time>2026-05-02T07:58:17.361Z</time></trkpt><trkpt lat="39.929035" lon="8.4555967"><ele>19.0</ele><time>2026-05-02T07:58:18.361Z</time></trkpt><trkpt lat="39.9291067" lon="8.4556367"><ele>19.0</ele><time>2026-05-02T07:58:19.361Z</time></trkpt><trkpt lat="39.9291867" lon="8.455665"><ele>19.0</ele><time>2026-05-02T07:58:20.361Z</time></trkpt><trkpt lat="39.929295" lon="8.455565"><ele>20.25</ele><time>2026-05-02T07:58:22.361Z</time></trkpt><trkpt lat="39.9293283" lon="8.455445"><ele>21.5</ele><time>2026-05-02T07:58:23.361Z</time></trkpt><trkpt lat="39.9293683" lon="8.455285"><ele>22.75</ele><time>2026-05-02T07:58:24.361Z</time></trkpt><trkpt lat="39.92943" lon="8.4551167"><ele>24.0</ele><time>2026-05-02T07:58:25.361Z</time></trkpt><trkpt lat="39.9295083" lon="8.4549233"><ele>24.0</ele><time>2026-05-02T07:58:26.361Z</time></trkpt><trkpt lat="39.9295967" lon="8.454715"><ele>24.0</ele><time>2026-05-02T07:58:27.361Z</time></trkpt><trkpt lat="39.9296933" lon="8.4544917"><ele>24.0</ele><time>2026-05-02T07:58:28.361Z</time></trkpt><trkpt lat="39.9297883" lon="8.4542617"><ele>25.333333333333336</ele><time>2026-05-02T07:58:29.361Z</time></trkpt><trkpt lat="39.929905" lon="8.4540167"><ele>26.666666666666668</ele><time>2026-05-02T07:58:30.361Z</time></trkpt><trkpt lat="39.9300333" lon="8.4537817"><ele>28.0</ele><time>2026-05-02T07:58:31.361Z</time></trkpt><trkpt lat="39.930165" lon="8.45354"><ele>32.0</ele><time>2026-05-02T07:58:32.361Z</time></trkpt><trkpt lat="39.9303167" lon="8.4533117"><ele>36.0</ele><time>2026-05-02T07:58:33.361Z</time></trkpt><trkpt lat="39.9304583" lon="8.45308"><ele>35.5</ele><time>2026-05-02T07:58:34.361Z</time></trkpt><trkpt lat="39.93059" lon="8.4528417"><ele>35.0</ele><time>2026-05-02T07:58:35.361Z</time></trkpt><trkpt lat="39.9307317" lon="8.4526067"><ele>35.0</ele><time>2026-05-02T07:58:36.361Z</time></trkpt><trkpt lat="39.9308617" lon="8.4523783"><ele>35.0</ele><time>2026-05-02T07:58:37.361Z</time></trkpt><trkpt lat="39.930975" lon="8.4521733"><ele>35.0</ele><time>2026-05-02T07:58:38.361Z</time></trkpt><trkpt lat="39.9310717" lon="8.4519967"><ele>39.33333333333333</ele><time>2026-05-02T07:58:39.361Z</time></trkpt><trkpt lat="39.9311617" lon="8.451825"><ele>43.666666666666664</ele><time>2026-05-02T07:58:40.361Z</time></trkpt><trkpt lat="39.9312317" lon="8.4516533"><ele>48.0</ele><time>2026-05-02T07:58:41.361Z</time></trkpt><trkpt lat="39.9312867" lon="8.4514817"><ele>48.0</ele><time>2026-05-02T07:58:42.361Z</time></trkpt><trkpt lat="39.931335" lon="8.4513017"><ele>48.0</ele><time>2026-05-02T07:58:43.361Z</time></trkpt><trkpt lat="39.9313717" lon="8.4511017"><ele>48.0</ele><time>2026-05-02T07:58:44.361Z</time></trkpt><trkpt lat="39.9314133" lon="8.4508933"><ele>47.666666666666664</ele><time>2026-05-02T07:58:45.361Z</time></trkpt><trkpt lat="39.9314467" lon="8.4506767"><ele>47.33333333333333</ele><time>2026-05-02T07:58:46.361Z</time></trkpt><trkpt lat="39.9314867" lon="8.4504583"><ele>47.0</ele><time>2026-05-02T07:58:47.361Z</time></trkpt><trkpt lat="39.9315233" lon="8.45024"><ele>47.0</ele><time>2026-05-02T07:58:48.361Z</time></trkpt><trkpt lat="39.9315683" lon="8.450015"><ele>47.0</ele><time>2026-05-02T07:58:49.361Z</time></trkpt><trkpt lat="39.9316317" lon="8.4497833"><ele>47.0</ele><time>2026-05-02T07:58:50.361Z</time></trkpt><trkpt lat="39.9317083" lon="8.449575"><ele>49.33333333333333</ele><time>2026-05-02T07:58:51.361Z</time></trkpt><trkpt lat="39.931815" lon="8.4493783"><ele>51.666666666666664</ele><time>2026-05-02T07:58:52.361Z</time></trkpt><trkpt lat="39.931935" lon="8.4491917"><ele>54.0</ele><time>2026-05-02T07:58:53.361Z</time></trkpt><trkpt lat="39.9320883" lon="8.44902"><ele>54.0</ele><time>2026-05-02T07:58:54.361Z</time></trkpt><trkpt lat="39.9322567" lon="8.4488617"><ele>54.0</ele><time>2026-05-02T07:58:55.361Z</time></trkpt><trkpt lat="39.9324417" lon="8.4487083"><ele>54.0</ele><time>2026-05-02T07:58:56.361Z</time></trkpt><trkpt lat="39.9326283" lon="8.4485733"><ele>55.66666666666667</ele><time>2026-05-02T07:58:57.361Z</time></trkpt><trkpt lat="39.93282" lon="8.4484267"><ele>57.333333333333336</ele><time>2026-05-02T07:58:58.361Z</time></trkpt><trkpt lat="39.9330033" lon="8.4482817"><ele>59.0</ele><time>2026-05-02T07:58:59.361Z</time></trkpt><trkpt lat="39.933185" lon="8.4481367"><ele>59.0</ele><time>2026-05-02T07:59:00.361Z</time></trkpt><trkpt lat="39.93336" lon="8.448"><ele>59.0</ele><time>2026-05-02T07:59:01.361Z</time></trkpt><trkpt lat="39.9335317" lon="8.4478717"><ele>59.0</ele><time>2026-05-02T07:59:02.361Z</time></trkpt><trkpt lat="39.9336983" lon="8.4477383"><ele>58.66666666666667</ele><time>2026-05-02T07:59:03.361Z</time></trkpt><trkpt lat="39.93386" lon="8.447595"><ele>58.33333333333333</ele><time>2026-05-02T07:59:04.361Z</time></trkpt><trkpt lat="39.9340283" lon="8.44745"><ele>58.0</ele><time>2026-05-02T07:59:05.361Z</time></trkpt><trkpt lat="39.9341817" lon="8.447285"><ele>58.33333333333333</ele><time>2026-05-02T07:59:06.361Z</time></trkpt><trkpt lat="39.93434" lon="8.4471083"><ele>58.66666666666667</ele><time>2026-05-02T07:59:07.361Z</time></trkpt><trkpt lat="39.934475" lon="8.4469133"><ele>59.0</ele><time>2026-05-02T07:59:08.361Z</time></trkpt><trkpt lat="39.9346133" lon="8.4467233"><ele>59.0</ele><time>2026-05-02T07:59:09.361Z</time></trkpt><trkpt lat="39.93476" lon="8.4465117"><ele>59.0</ele><time>2026-05-02T07:59:10.361Z</time></trkpt><trkpt lat="39.9349033" lon="8.4463067"><ele>59.0</ele><time>2026-05-02T07:59:11.361Z</time></trkpt><trkpt lat="39.9350333" lon="8.4460967"><ele>58.66666666666667</ele><time>2026-05-02T07:59:12.361Z</time></trkpt><trkpt lat="39.9351633" lon="8.4458933"><ele>58.33333333333333</ele><time>2026-05-02T07:59:13.361Z</time></trkpt><trkpt lat="39.9353033" lon="8.4457083"><ele>58.0</ele><time>2026-05-02T07:59:14.361Z</time></trkpt><trkpt lat="39.935435" lon="8.4455217"><ele>57.666666666666664</ele><time>2026-05-02T07:59:15.361Z</time></trkpt><trkpt lat="39.9355633" lon="8.4453283"><ele>57.33333333333333</ele><time>2026-05-02T07:59:16.361Z</time></trkpt><trkpt lat="39.93569" lon="8.445135"><ele>57.0</ele><time>2026-05-02T07:59:17.361Z</time></trkpt><trkpt lat="39.9358283" lon="8.44494"><ele>55.66666666666667</ele><time>2026-05-02T07:59:18.361Z</time></trkpt><trkpt lat="39.935965" lon="8.4447483"><ele>54.333333333333336</ele><time>2026-05-02T07:59:19.361Z</time></trkpt><trkpt lat="39.93609" lon="8.444575"><ele>53.0</ele><time>2026-05-02T07:59:20.361Z</time></trkpt><trkpt lat="39.9362283" lon="8.4443933"><ele>52.66666666666667</ele><time>2026-05-02T07:59:21.361Z</time></trkpt><trkpt lat="39.93637" lon="8.444205"><ele>52.33333333333333</ele><time>2026-05-02T07:59:22.361Z</time></trkpt><trkpt lat="39.9365033" lon="8.444015"><ele>52.0</ele><time>2026-05-02T07:59:23.361Z</time></trkpt><trkpt lat="39.93664" lon="8.4438283"><ele>51.33333333333333</ele><time>2026-05-02T07:59:24.361Z</time></trkpt><trkpt lat="39.93677" lon="8.4436283"><ele>50.66666666666667</ele><time>2026-05-02T07:59:25.361Z</time></trkpt><trkpt lat="39.9369033" lon="8.4434317"><ele>50.0</ele><time>2026-05-02T07:59:26.361Z</time></trkpt><trkpt lat="39.93704" lon="8.44324"><ele>50.0</ele><time>2026-05-02T07:59:27.361Z</time></trkpt><trkpt lat="39.9371783" lon="8.4430483"><ele>50.0</ele><time>2026-05-02T07:59:28.361Z</time></trkpt><trkpt lat="39.937305" lon="8.4428583"><ele>50.0</ele><time>2026-05-02T07:59:29.361Z</time></trkpt><trkpt lat="39.9374333" lon="8.4426633"><ele>49.0</ele><time>2026-05-02T07:59:30.361Z</time></trkpt><trkpt lat="39.93757" lon="8.4424833"><ele>48.0</ele><time>2026-05-02T07:59:31.361Z</time></trkpt><trkpt lat="39.937705" lon="8.44233"><ele>47.0</ele><time>2026-05-02T07:59:32.361Z</time></trkpt><trkpt lat="39.9378433" lon="8.4421917"><ele>47.0</ele><time>2026-05-02T07:59:33.361Z</time></trkpt><trkpt lat="39.9379933" lon="8.4420683"><ele>47.0</ele><time>2026-05-02T07:59:34.361Z</time></trkpt><trkpt lat="39.938155" lon="8.44195"><ele>47.0</ele><time>2026-05-02T07:59:35.361Z</time></trkpt><trkpt lat="39.9383317" lon="8.441835"><ele>47.33333333333333</ele><time>2026-05-02T07:59:36.361Z</time></trkpt><trkpt lat="39.9385083" lon="8.4417117"><ele>47.666666666666664</ele><time>2026-05-02T07:59:37.361Z</time></trkpt><trkpt lat="39.9386883" lon="8.441585"><ele>48.0</ele><time>2026-05-02T07:59:38.361Z</time></trkpt><trkpt lat="39.9388683" lon="8.441455"><ele>48.0</ele><time>2026-05-02T07:59:39.361Z</time></trkpt><trkpt lat="39.9390483" lon="8.4413317"><ele>48.0</ele><time>2026-05-02T07:59:40.361Z</time></trkpt><trkpt lat="39.93923" lon="8.4412067"><ele>48.0</ele><time>2026-05-02T07:59:41.361Z</time></trkpt><trkpt lat="39.9394017" lon="8.4410867"><ele>47.333333333333336</ele><time>2026-05-02T07:59:42.361Z</time></trkpt><trkpt lat="39.9395717" lon="8.440945"><ele>46.66666666666667</ele><time>2026-05-02T07:59:43.361Z</time></trkpt><trkpt lat="39.9397333" lon="8.4407917"><ele>46.0</ele><time>2026-05-02T07:59:44.361Z</time></trkpt><trkpt lat="39.939875" lon="8.4406333"><ele>45.66666666666667</ele><time>2026-05-02T07:59:45.361Z</time></trkpt><trkpt lat="39.9400183" lon="8.4404617"><ele>45.333333333333336</ele><time>2026-05-02T07:59:46.361Z</time></trkpt><trkpt lat="39.9401583" lon="8.4402717"><ele>45.0</ele><time>2026-05-02T07:59:47.361Z</time></trkpt><trkpt lat="39.94028" lon="8.4400633"><ele>45.0</ele><time>2026-05-02T07:59:48.361Z</time></trkpt><trkpt lat="39.9403967" lon="8.4398367"><ele>45.0</ele><time>2026-05-02T07:59:49.361Z</time></trkpt><trkpt lat="39.940525" lon="8.4396167"><ele>45.0</ele><time>2026-05-02T07:59:50.361Z</time></trkpt><trkpt lat="39.940655" lon="8.4393883"><ele>44.666666666666664</ele><time>2026-05-02T07:59:51.361Z</time></trkpt><trkpt lat="39.9407867" lon="8.4391667"><ele>44.33333333333333</ele><time>2026-05-02T07:59:52.361Z</time></trkpt><trkpt lat="39.9409167" lon="8.4389467"><ele>44.0</ele><time>2026-05-02T07:59:53.361Z</time></trkpt><trkpt lat="39.9410417" lon="8.4387217"><ele>43.666666666666664</ele><time>2026-05-02T07:59:54.361Z</time></trkpt><trkpt lat="39.9411717" lon="8.4384983"><ele>43.333333333333336</ele><time>2026-05-02T07:59:55.361Z</time></trkpt><trkpt lat="39.9413083" lon="8.4382783"><ele>43.0</ele><time>2026-05-02T07:59:56.361Z</time></trkpt><trkpt lat="39.941445" lon="8.4380717"><ele>42.66666666666667</ele><time>2026-05-02T07:59:57.361Z</time></trkpt><trkpt lat="39.941595" lon="8.4378867"><ele>42.333333333333336</ele><time>2026-05-02T07:59:58.361Z</time></trkpt><trkpt lat="39.941745" lon="8.4377317"><ele>42.0</ele><time>2026-05-02T07:59:59.361Z</time></trkpt><trkpt lat="39.9419" lon="8.4375883"><ele>42.0</ele><time>2026-05-02T08:00:00.361Z</time></trkpt><trkpt lat="39.94206" lon="8.4374583"><ele>42.0</ele><time>2026-05-02T08:00:01.361Z</time></trkpt><trkpt lat="39.9422117" lon="8.4373133"><ele>42.0</ele><time>2026-05-02T08:00:02.361Z</time></trkpt><trkpt lat="39.94237" lon="8.437155"><ele>41.333333333333336</ele><time>2026-05-02T08:00:03.361Z</time></trkpt><trkpt lat="39.942525" lon="8.43701"><ele>40.66666666666667</ele><time>2026-05-02T08:00:04.361Z</time></trkpt><trkpt lat="39.94266" lon="8.4368767"><ele>40.0</ele><time>2026-05-02T08:00:05.361Z</time></trkpt><trkpt lat="39.9427883" lon="8.4367533"><ele>40.0</ele><time>2026-05-02T08:00:06.361Z</time></trkpt><trkpt lat="39.9429017" lon="8.4366233"><ele>40.0</ele><time>2026-05-02T08:00:07.361Z</time></trkpt><trkpt lat="39.9430183" lon="8.4365"><ele>40.0</ele><time>2026-05-02T08:00:08.361Z</time></trkpt><trkpt lat="39.9431417" lon="8.4363667"><ele>40.0</ele><time>2026-05-02T08:00:09.361Z</time></trkpt><trkpt lat="39.94326" lon="8.43625"><ele>40.0</ele><time>2026-05-02T08:00:10.361Z</time></trkpt><trkpt lat="39.9433717" lon="8.43613"><ele>40.0</ele><time>2026-05-02T08:00:11.361Z</time></trkpt><trkpt lat="39.9434667" lon="8.4360217"><ele>40.0</ele><time>2026-05-02T08:00:12.361Z</time></trkpt><trkpt lat="39.94354" lon="8.435925"><ele>40.16666666666667</ele><time>2026-05-02T08:00:13.361Z</time></trkpt><trkpt lat="39.9435867" lon="8.43585"><ele>40.333333333333336</ele><time>2026-05-02T08:00:14.361Z</time></trkpt><trkpt lat="39.9436" lon="8.435725"><ele>40.5</ele><time>2026-05-02T08:00:16.361Z</time></trkpt><trkpt lat="39.9435767" lon="8.4355867"><ele>40.666666666666664</ele><time>2026-05-02T08:00:18.361Z</time></trkpt><trkpt lat="39.9435783" lon="8.435495"><ele>40.83333333333333</ele><time>2026-05-02T08:00:19.361Z</time></trkpt><trkpt lat="39.94359" lon="8.4353867"><ele>41.0</ele><time>2026-05-02T08:00:20.361Z</time></trkpt><trkpt lat="39.9436083" lon="8.4352617"><ele>40.25</ele><time>2026-05-02T08:00:21.361Z</time></trkpt><trkpt lat="39.94362" lon="8.4351367"><ele>39.5</ele><time>2026-05-02T08:00:22.361Z</time></trkpt><trkpt lat="39.94365" lon="8.4349917"><ele>38.75</ele><time>2026-05-02T08:00:23.361Z</time></trkpt><trkpt lat="39.9436733" lon="8.4348317"><ele>38.0</ele><time>2026-05-02T08:00:24.361Z</time></trkpt><trkpt lat="39.9436883" lon="8.4346717"><ele>37.5</ele><time>2026-05-02T08:00:25.361Z</time></trkpt><trkpt lat="39.943705" lon="8.434515"><ele>37.0</ele><time>2026-05-02T08:00:26.361Z</time></trkpt><trkpt lat="39.943695" lon="8.4343567"><ele>36.5</ele><time>2026-05-02T08:00:27.361Z</time></trkpt><trkpt lat="39.9436733" lon="8.4341933"><ele>36.0</ele><time>2026-05-02T08:00:28.361Z</time></trkpt><trkpt lat="39.94366" lon="8.4340383"><ele>36.0</ele><time>2026-05-02T08:00:29.361Z</time></trkpt><trkpt lat="39.94365" lon="8.4339067"><ele>36.0</ele><time>2026-05-02T08:00:30.361Z</time></trkpt><trkpt lat="39.9436683" lon="8.4337967"><ele>36.0</ele><time>2026-05-02T08:00:31.361Z</time></trkpt><trkpt lat="39.9436933" lon="8.4336933"><ele>36.0</ele><time>2026-05-02T08:00:32.361Z</time></trkpt><trkpt lat="39.9437467" lon="8.4335817"><ele>36.0</ele><time>2026-05-02T08:00:33.361Z</time></trkpt><trkpt lat="39.94382" lon="8.433455"><ele>36.0</ele><time>2026-05-02T08:00:34.361Z</time></trkpt><trkpt lat="39.9438933" lon="8.433335"><ele>36.0</ele><time>2026-05-02T08:00:35.361Z</time></trkpt><trkpt lat="39.9439683" lon="8.4332133"><ele>36.0</ele><time>2026-05-02T08:00:36.362Z</time></trkpt><trkpt lat="39.94404" lon="8.433095"><ele>36.0</ele><time>2026-05-02T08:00:37.361Z</time></trkpt><trkpt lat="39.9441167" lon="8.4329583"><ele>36.0</ele><time>2026-05-02T08:00:38.361Z</time></trkpt><trkpt lat="39.9441883" lon="8.4328083"><ele>36.0</ele><time>2026-05-02T08:00:39.361Z</time></trkpt><trkpt lat="39.944245" lon="8.4326533"><ele>36.0</ele><time>2026-05-02T08:00:40.361Z</time></trkpt><trkpt lat="39.9442833" lon="8.4324983"><ele>36.0</ele><time>2026-05-02T08:00:41.361Z</time></trkpt><trkpt lat="39.9443183" lon="8.4323283"><ele>35.75</ele><time>2026-05-02T08:00:42.361Z</time></trkpt><trkpt lat="39.9443683" lon="8.4321483"><ele>35.5</ele><time>2026-05-02T08:00:43.361Z</time></trkpt><trkpt lat="39.9444333" lon="8.4319817"><ele>35.25</ele><time>2026-05-02T08:00:44.361Z</time></trkpt><trkpt lat="39.9445133" lon="8.4318167"><ele>35.0</ele><time>2026-05-02T08:00:45.361Z</time></trkpt><trkpt lat="39.944605" lon="8.4316433"><ele>34.75</ele><time>2026-05-02T08:00:46.361Z</time></trkpt><trkpt lat="39.9447033" lon="8.431485"><ele>34.5</ele><time>2026-05-02T08:00:47.361Z</time></trkpt><trkpt lat="39.9447967" lon="8.4313367"><ele>34.25</ele><time>2026-05-02T08:00:48.361Z</time></trkpt><trkpt lat="39.9448767" lon="8.431185"><ele>34.0</ele><time>2026-05-02T08:00:49.361Z</time></trkpt><trkpt lat="39.94495" lon="8.431025"><ele>33.75</ele><time>2026-05-02T08:00:50.361Z</time></trkpt><trkpt lat="39.9450117" lon="8.4308733"><ele>33.5</ele><time>2026-05-02T08:00:51.361Z</time></trkpt><trkpt lat="39.9450717" lon="8.43072"><ele>33.25</ele><time>2026-05-02T08:00:52.361Z</time></trkpt><trkpt lat="39.9451367" lon="8.4305633"><ele>33.0</ele><time>2026-05-02T08:00:53.361Z</time></trkpt><trkpt lat="39.9451767" lon="8.4304033"><ele>33.5</ele><time>2026-05-02T08:00:54.361Z</time></trkpt><trkpt lat="39.9452083" lon="8.430245"><ele>34.0</ele><time>2026-05-02T08:00:55.361Z</time></trkpt><trkpt lat="39.945225" lon="8.4300767"><ele>34.5</ele><time>2026-05-02T08:00:56.361Z</time></trkpt><trkpt lat="39.945245" lon="8.4299067"><ele>35.0</ele><time>2026-05-02T08:00:57.361Z</time></trkpt><trkpt lat="39.9452683" lon="8.4297383"><ele>35.0</ele><time>2026-05-02T08:00:58.361Z</time></trkpt><trkpt lat="39.9453067" lon="8.42958"><ele>35.0</ele><time>2026-05-02T08:00:59.361Z</time></trkpt><trkpt lat="39.945355" lon="8.429415"><ele>35.0</ele><time>2026-05-02T08:01:00.361Z</time></trkpt><trkpt lat="39.9454133" lon="8.4292533"><ele>35.0</ele><time>2026-05-02T08:01:01.361Z</time></trkpt><trkpt lat="39.94547" lon="8.4291133"><ele>35.0</ele><time>2026-05-02T08:01:02.361Z</time></trkpt><trkpt lat="39.9455317" lon="8.428975"><ele>35.0</ele><time>2026-05-02T08:01:03.361Z</time></trkpt><trkpt lat="39.9455767" lon="8.4288433"><ele>35.0</ele><time>2026-05-02T08:01:04.361Z</time></trkpt><trkpt lat="39.9456117" lon="8.42869"><ele>35.0</ele><time>2026-05-02T08:01:05.361Z</time></trkpt><trkpt lat="39.9456333" lon="8.42851"><ele>35.0</ele><time>2026-05-02T08:01:06.361Z</time></trkpt><trkpt lat="39.9456433" lon="8.428335"><ele>35.0</ele><time>2026-05-02T08:01:07.361Z</time></trkpt><trkpt lat="39.9456417" lon="8.4281667"><ele>35.0</ele><time>2026-05-02T08:01:08.361Z</time></trkpt><trkpt lat="39.9456267" lon="8.4280033"><ele>35.0</ele><time>2026-05-02T08:01:09.361Z</time></trkpt><trkpt lat="39.9455983" lon="8.4278433"><ele>35.0</ele><time>2026-05-02T08:01:10.361Z</time></trkpt><trkpt lat="39.9455683" lon="8.42769"><ele>35.0</ele><time>2026-05-02T08:01:11.361Z</time></trkpt><trkpt lat="39.9455383" lon="8.427555"><ele>35.0</ele><time>2026-05-02T08:01:12.361Z</time></trkpt><trkpt lat="39.9455167" lon="8.427425"><ele>35.0</ele><time>2026-05-02T08:01:13.361Z</time></trkpt><trkpt lat="39.9455083" lon="8.4272833"><ele>35.0</ele><time>2026-05-02T08:01:14.361Z</time></trkpt><trkpt lat="39.9455283" lon="8.427115"><ele>35.5</ele><time>2026-05-02T08:01:15.361Z</time></trkpt><trkpt lat="39.9455383" lon="8.426945"><ele>36.0</ele><time>2026-05-02T08:01:16.361Z</time></trkpt><trkpt lat="39.9455233" lon="8.4267867"><ele>36.5</ele><time>2026-05-02T08:01:17.361Z</time></trkpt><trkpt lat="39.9454933" lon="8.4266367"><ele>37.0</ele><time>2026-05-02T08:01:18.361Z</time></trkpt><trkpt lat="39.9454367" lon="8.42648"><ele>37.0</ele><time>2026-05-02T08:01:19.361Z</time></trkpt><trkpt lat="39.945365" lon="8.426315"><ele>37.0</ele><time>2026-05-02T08:01:20.361Z</time></trkpt><trkpt lat="39.94529" lon="8.4261483"><ele>37.0</ele><time>2026-05-02T08:01:21.361Z</time></trkpt><trkpt lat="39.945215" lon="8.4259933"><ele>37.0</ele><time>2026-05-02T08:01:22.361Z</time></trkpt><trkpt lat="39.9451417" lon="8.4258317"><ele>37.0</ele><time>2026-05-02T08:01:23.361Z</time></trkpt><trkpt lat="39.945055" lon="8.4256867"><ele>37.0</ele><time>2026-05-02T08:01:24.361Z</time></trkpt><trkpt lat="39.9449783" lon="8.4255333"><ele>37.0</ele><time>2026-05-02T08:01:25.361Z</time></trkpt><trkpt lat="39.9449233" lon="8.4253967"><ele>37.0</ele><time>2026-05-02T08:01:26.361Z</time></trkpt><trkpt lat="39.9448667" lon="8.42525"><ele>37.4</ele><time>2026-05-02T08:01:27.361Z</time></trkpt><trkpt lat="39.9448117" lon="8.425115"><ele>37.800000000000004</ele><time>2026-05-02T08:01:28.361Z</time></trkpt><trkpt lat="39.9447517" lon="8.424985"><ele>38.2</ele><time>2026-05-02T08:01:29.361Z</time></trkpt><trkpt lat="39.94469" lon="8.4248733"><ele>38.6</ele><time>2026-05-02T08:01:30.361Z</time></trkpt><trkpt lat="39.9446433" lon="8.424765"><ele>39.0</ele><time>2026-05-02T08:01:31.361Z</time></trkpt><trkpt lat="39.944605" lon="8.4246433"><ele>39.25</ele><time>2026-05-02T08:01:32.361Z</time></trkpt><trkpt lat="39.944575" lon="8.42451"><ele>39.5</ele><time>2026-05-02T08:01:33.361Z</time></trkpt><trkpt lat="39.94457" lon="8.4243567"><ele>39.75</ele><time>2026-05-02T08:01:34.361Z</time></trkpt><trkpt lat="39.944575" lon="8.4241867"><ele>40.0</ele><time>2026-05-02T08:01:35.361Z</time></trkpt><trkpt lat="39.9445833" lon="8.4240117"><ele>40.0</ele><time>2026-05-02T08:01:36.361Z</time></trkpt><trkpt lat="39.944585" lon="8.42385"><ele>40.0</ele><time>2026-05-02T08:01:37.361Z</time></trkpt><trkpt lat="39.9445733" lon="8.4236917"><ele>40.0</ele><time>2026-05-02T08:01:38.361Z</time></trkpt><trkpt lat="39.9445617" lon="8.42352"><ele>40.0</ele><time>2026-05-02T08:01:39.361Z</time></trkpt><trkpt lat="39.9445233" lon="8.4233367"><ele>40.0</ele><time>2026-05-02T08:01:40.361Z</time></trkpt><trkpt lat="39.9444717" lon="8.4231517"><ele>40.0</ele><time>2026-05-02T08:01:41.361Z</time></trkpt><trkpt lat="39.9444233" lon="8.4229533"><ele>40.0</ele><time>2026-05-02T08:01:42.361Z</time></trkpt><trkpt lat="39.944365" lon="8.4227633"><ele>40.333333333333336</ele><time>2026-05-02T08:01:43.361Z</time></trkpt><trkpt lat="39.9442933" lon="8.4225717"><ele>40.666666666666664</ele><time>2026-05-02T08:01:44.361Z</time></trkpt><trkpt lat="39.94422" lon="8.422385"><ele>41.0</ele><time>2026-05-02T08:01:45.361Z</time></trkpt><trkpt lat="39.944145" lon="8.4222083"><ele>40.5</ele><time>2026-05-02T08:01:46.361Z</time></trkpt><trkpt lat="39.94407" lon="8.422055"><ele>40.0</ele><time>2026-05-02T08:01:47.361Z</time></trkpt><trkpt lat="39.9439883" lon="8.4219117"><ele>39.5</ele><time>2026-05-02T08:01:48.361Z</time></trkpt><trkpt lat="39.9439167" lon="8.4217583"><ele>39.0</ele><time>2026-05-02T08:01:49.361Z</time></trkpt><trkpt lat="39.9438433" lon="8.4216"><ele>39.0</ele><time>2026-05-02T08:01:50.361Z</time></trkpt><trkpt lat="39.9437717" lon="8.4214517"><ele>39.0</ele><time>2026-05-02T08:01:51.361Z</time></trkpt><trkpt lat="39.943715" lon="8.421325"><ele>39.0</ele><time>2026-05-02T08:01:52.361Z</time></trkpt><trkpt lat="39.9436667" lon="8.4212167"><ele>39.0</ele><time>2026-05-02T08:01:53.361Z</time></trkpt><trkpt lat="39.9436217" lon="8.4211283"><ele>39.0</ele><time>2026-05-02T08:01:54.361Z</time></trkpt><trkpt lat="39.9435667" lon="8.4210633"><ele>38.666666666666664</ele><time>2026-05-02T08:01:55.361Z</time></trkpt><trkpt lat="39.9435" lon="8.421025"><ele>38.333333333333336</ele><time>2026-05-02T08:01:56.361Z</time></trkpt><trkpt lat="39.9434217" lon="8.4210117"><ele>38.0</ele><time>2026-05-02T08:01:57.361Z</time></trkpt><trkpt lat="39.9433383" lon="8.42102"><ele>37.66666666666667</ele><time>2026-05-02T08:01:58.361Z</time></trkpt><trkpt lat="39.943245" lon="8.42104"><ele>37.333333333333336</ele><time>2026-05-02T08:01:59.361Z</time></trkpt><trkpt lat="39.9431317" lon="8.421085"><ele>37.0</ele><time>2026-05-02T08:02:00.361Z</time></trkpt><trkpt lat="39.9430233" lon="8.421135"><ele>38.0</ele><time>2026-05-02T08:02:01.361Z</time></trkpt><trkpt lat="39.9429083" lon="8.4211883"><ele>39.0</ele><time>2026-05-02T08:02:02.361Z</time></trkpt><trkpt lat="39.9427767" lon="8.421245"><ele>40.0</ele><time>2026-05-02T08:02:03.361Z</time></trkpt><trkpt lat="39.9426533" lon="8.4213033"><ele>41.0</ele><time>2026-05-02T08:02:04.361Z</time></trkpt><trkpt lat="39.9425117" lon="8.42139"><ele>41.25</ele><time>2026-05-02T08:02:05.361Z</time></trkpt><trkpt lat="39.9424033" lon="8.4214517"><ele>41.5</ele><time>2026-05-02T08:02:06.361Z</time></trkpt><trkpt lat="39.9422967" lon="8.4215083"><ele>41.75</ele><time>2026-05-02T08:02:07.361Z</time></trkpt><trkpt lat="39.942185" lon="8.4215667"><ele>42.0</ele><time>2026-05-02T08:02:08.361Z</time></trkpt><trkpt lat="39.94207" lon="8.4215967"><ele>42.0</ele><time>2026-05-02T08:02:09.361Z</time></trkpt><trkpt lat="39.9419483" lon="8.4216183"><ele>42.0</ele><time>2026-05-02T08:02:10.361Z</time></trkpt><trkpt lat="39.9418267" lon="8.42163"><ele>42.0</ele><time>2026-05-02T08:02:11.361Z</time></trkpt><trkpt lat="39.9417017" lon="8.4216533"><ele>42.0</ele><time>2026-05-02T08:02:12.361Z</time></trkpt><trkpt lat="39.9415767" lon="8.421685"><ele>42.25</ele><time>2026-05-02T08:02:13.361Z</time></trkpt><trkpt lat="39.9414483" lon="8.4217367"><ele>42.5</ele><time>2026-05-02T08:02:14.361Z</time></trkpt><trkpt lat="39.9413217" lon="8.4217933"><ele>42.75</ele><time>2026-05-02T08:02:15.361Z</time></trkpt><trkpt lat="39.9412" lon="8.421865"><ele>43.0</ele><time>2026-05-02T08:02:16.361Z</time></trkpt><trkpt lat="39.941085" lon="8.4219367"><ele>43.0</ele><time>2026-05-02T08:02:17.361Z</time></trkpt><trkpt lat="39.9409833" lon="8.4220117"><ele>43.0</ele><time>2026-05-02T08:02:18.361Z</time></trkpt><trkpt lat="39.9408933" lon="8.422075"><ele>43.0</ele><time>2026-05-02T08:02:19.361Z</time></trkpt><trkpt lat="39.940795" lon="8.4221433"><ele>43.0</ele><time>2026-05-02T08:02:20.361Z</time></trkpt><trkpt lat="39.9406817" lon="8.422195"><ele>43.5</ele><time>2026-05-02T08:02:21.361Z</time></trkpt><trkpt lat="39.9405617" lon="8.422235"><ele>44.0</ele><time>2026-05-02T08:02:22.361Z</time></trkpt><trkpt lat="39.9404333" lon="8.4222733"><ele>44.5</ele><time>2026-05-02T08:02:23.361Z</time></trkpt><trkpt lat="39.9403033" lon="8.422315"><ele>45.0</ele><time>2026-05-02T08:02:24.361Z</time></trkpt><trkpt lat="39.94017" lon="8.4223683"><ele>44.75</ele><time>2026-05-02T08:02:25.361Z</time></trkpt><trkpt lat="39.94004" lon="8.4224083"><ele>44.5</ele><time>2026-05-02T08:02:26.361Z</time></trkpt><trkpt lat="39.9398983" lon="8.422425"><ele>44.25</ele><time>2026-05-02T08:02:27.361Z</time></trkpt><trkpt lat="39.9397517" lon="8.42244"><ele>44.0</ele><time>2026-05-02T08:02:28.361Z</time></trkpt><trkpt lat="39.939605" lon="8.4224417"><ele>44.0</ele><time>2026-05-02T08:02:29.361Z</time></trkpt><trkpt lat="39.9394567" lon="8.4224383"><ele>44.0</ele><time>2026-05-02T08:02:30.361Z</time></trkpt><trkpt lat="39.9393183" lon="8.42244"><ele>44.0</ele><time>2026-05-02T08:02:31.361Z</time></trkpt><trkpt lat="39.9391783" lon="8.422455"><ele>44.0</ele><time>2026-05-02T08:02:32.361Z</time></trkpt><trkpt lat="39.9390367" lon="8.422465"><ele>43.5</ele><time>2026-05-02T08:02:33.361Z</time></trkpt><trkpt lat="39.938895" lon="8.4225017"><ele>43.0</ele><time>2026-05-02T08:02:34.361Z</time></trkpt><trkpt lat="39.9387467" lon="8.4225267"><ele>42.5</ele><time>2026-05-02T08:02:35.361Z</time></trkpt><trkpt lat="39.9385983" lon="8.4225517"><ele>42.0</ele><time>2026-05-02T08:02:36.361Z</time></trkpt><trkpt lat="39.9384567" lon="8.42256"><ele>41.75</ele><time>2026-05-02T08:02:37.361Z</time></trkpt><trkpt lat="39.93832" lon="8.4225683"><ele>41.5</ele><time>2026-05-02T08:02:38.361Z</time></trkpt><trkpt lat="39.9381833" lon="8.42256"><ele>41.25</ele><time>2026-05-02T08:02:39.361Z</time></trkpt><trkpt lat="39.9380517" lon="8.4225483"><ele>41.0</ele><time>2026-05-02T08:02:40.361Z</time></trkpt><trkpt lat="39.9379183" lon="8.422545"><ele>41.0</ele><time>2026-05-02T08:02:41.361Z</time></trkpt><trkpt lat="39.93779" lon="8.4225467"><ele>41.0</ele><time>2026-05-02T08:02:42.361Z</time></trkpt><trkpt lat="39.9376783" lon="8.4225517"><ele>41.0</ele><time>2026-05-02T08:02:43.361Z</time></trkpt><trkpt lat="39.937565" lon="8.42254"><ele>41.0</ele><time>2026-05-02T08:02:44.361Z</time></trkpt><trkpt lat="39.9374683" lon="8.42252"><ele>41.4</ele><time>2026-05-02T08:02:45.361Z</time></trkpt><trkpt lat="39.93738" lon="8.422465"><ele>41.8</ele><time>2026-05-02T08:02:46.361Z</time></trkpt><trkpt lat="39.9372967" lon="8.42239"><ele>42.199999999999996</ele><time>2026-05-02T08:02:47.361Z</time></trkpt><trkpt lat="39.9372033" lon="8.4223117"><ele>42.599999999999994</ele><time>2026-05-02T08:02:48.361Z</time></trkpt><trkpt lat="39.9371067" lon="8.4222467"><ele>43.0</ele><time>2026-05-02T08:02:49.361Z</time></trkpt><trkpt lat="39.937005" lon="8.422205"><ele>43.0</ele><time>2026-05-02T08:02:50.361Z</time></trkpt><trkpt lat="39.9368983" lon="8.4221967"><ele>43.0</ele><time>2026-05-02T08:02:51.361Z</time></trkpt><trkpt lat="39.9367967" lon="8.422215"><ele>43.0</ele><time>2026-05-02T08:02:52.361Z</time></trkpt><trkpt lat="39.936695" lon="8.422245"><ele>43.0</ele><time>2026-05-02T08:02:53.361Z</time></trkpt><trkpt lat="39.936575" lon="8.4222733"><ele>43.0</ele><time>2026-05-02T08:02:54.361Z</time></trkpt><trkpt lat="39.9364617" lon="8.4222783"><ele>42.8</ele><time>2026-05-02T08:02:55.361Z</time></trkpt><trkpt lat="39.9363483" lon="8.422255"><ele>42.599999999999994</ele><time>2026-05-02T08:02:56.361Z</time></trkpt><trkpt lat="39.9362467" lon="8.4222267"><ele>42.400000000000006</ele><time>2026-05-02T08:02:57.361Z</time></trkpt><trkpt lat="39.9361433" lon="8.4221867"><ele>42.2</ele><time>2026-05-02T08:02:58.361Z</time></trkpt><trkpt lat="39.93604" lon="8.4221533"><ele>42.0</ele><time>2026-05-02T08:02:59.361Z</time></trkpt><trkpt lat="39.93593" lon="8.4221233"><ele>41.0</ele><time>2026-05-02T08:03:00.361Z</time></trkpt><trkpt lat="39.93582" lon="8.4220867"><ele>40.0</ele><time>2026-05-02T08:03:01.361Z</time></trkpt><trkpt lat="39.9357167" lon="8.42204"><ele>39.0</ele><time>2026-05-02T08:03:02.361Z</time></trkpt><trkpt lat="39.9356117" lon="8.4219667"><ele>38.0</ele><time>2026-05-02T08:03:03.361Z</time></trkpt><trkpt lat="39.9354933" lon="8.4218883"><ele>38.0</ele><time>2026-05-02T08:03:04.361Z</time></trkpt><trkpt lat="39.93536" lon="8.421805"><ele>38.0</ele><time>2026-05-02T08:03:05.361Z</time></trkpt><trkpt lat="39.9352367" lon="8.421715"><ele>38.0</ele><time>2026-05-02T08:03:06.361Z</time></trkpt><trkpt lat="39.9351217" lon="8.4216417"><ele>38.0</ele><time>2026-05-02T08:03:07.361Z</time></trkpt><trkpt lat="39.9349983" lon="8.421585"><ele>37.75</ele><time>2026-05-02T08:03:08.361Z</time></trkpt><trkpt lat="39.9348717" lon="8.4215217"><ele>37.5</ele><time>2026-05-02T08:03:09.361Z</time></trkpt><trkpt lat="39.9347367" lon="8.42147"><ele>37.25</ele><time>2026-05-02T08:03:10.361Z</time></trkpt><trkpt lat="39.9346117" lon="8.4214117"><ele>37.0</ele><time>2026-05-02T08:03:11.361Z</time></trkpt><trkpt lat="39.9344883" lon="8.4213717"><ele>37.0</ele><time>2026-05-02T08:03:12.361Z</time></trkpt><trkpt lat="39.9343717" lon="8.421325"><ele>37.0</ele><time>2026-05-02T08:03:13.361Z</time></trkpt><trkpt lat="39.9342567" lon="8.4212783"><ele>37.0</ele><time>2026-05-02T08:03:14.361Z</time></trkpt><trkpt lat="39.93415" lon="8.4212367"><ele>37.0</ele><time>2026-05-02T08:03:15.361Z</time></trkpt><trkpt lat="39.9340467" lon="8.4212017"><ele>37.0</ele><time>2026-05-02T08:03:16.361Z</time></trkpt><trkpt lat="39.9339417" lon="8.421185"><ele>37.0</ele><time>2026-05-02T08:03:17.361Z</time></trkpt><trkpt lat="39.9338333" lon="8.421205"><ele>37.0</ele><time>2026-05-02T08:03:18.361Z</time></trkpt><trkpt lat="39.9337317" lon="8.421255"><ele>37.0</ele><time>2026-05-02T08:03:19.361Z</time></trkpt><trkpt lat="39.93363" lon="8.4213383"><ele>37.0</ele><time>2026-05-02T08:03:20.361Z</time></trkpt><trkpt lat="39.9335267" lon="8.4214483"><ele>37.0</ele><time>2026-05-02T08:03:21.361Z</time></trkpt><trkpt lat="39.93341" lon="8.421565"><ele>37.0</ele><time>2026-05-02T08:03:22.361Z</time></trkpt><trkpt lat="39.9332967" lon="8.421685"><ele>37.0</ele><time>2026-05-02T08:03:23.361Z</time></trkpt><trkpt lat="39.9331917" lon="8.4217967"><ele>37.0</ele><time>2026-05-02T08:03:24.361Z</time></trkpt><trkpt lat="39.93309" lon="8.4218933"><ele>36.75</ele><time>2026-05-02T08:03:25.361Z</time></trkpt><trkpt lat="39.933" lon="8.4219967"><ele>36.5</ele><time>2026-05-02T08:03:26.361Z</time></trkpt><trkpt lat="39.932905" lon="8.4220817"><ele>36.25</ele><time>2026-05-02T08:03:27.361Z</time></trkpt><trkpt lat="39.932805" lon="8.4221333"><ele>36.0</ele><time>2026-05-02T08:03:28.361Z</time></trkpt><trkpt lat="39.9326967" lon="8.4221683"><ele>36.2</ele><time>2026-05-02T08:03:29.361Z</time></trkpt><trkpt lat="39.9326067" lon="8.4221967"><ele>36.400000000000006</ele><time>2026-05-02T08:03:30.361Z</time></trkpt><trkpt lat="39.932525" lon="8.42224"><ele>36.6</ele><time>2026-05-02T08:03:31.361Z</time></trkpt><trkpt lat="39.9324533" lon="8.4223117"><ele>36.800000000000004</ele><time>2026-05-02T08:03:32.361Z</time></trkpt><trkpt lat="39.9323917" lon="8.4224133"><ele>37.0</ele><time>2026-05-02T08:03:33.361Z</time></trkpt><trkpt lat="39.9323467" lon="8.4225383"><ele>37.0</ele><time>2026-05-02T08:03:34.361Z</time></trkpt><trkpt lat="39.9322883" lon="8.4227"><ele>37.0</ele><time>2026-05-02T08:03:35.361Z</time></trkpt><trkpt lat="39.932225" lon="8.4228817"><ele>37.0</ele><time>2026-05-02T08:03:36.361Z</time></trkpt><trkpt lat="39.9321733" lon="8.4230833"><ele>37.66666666666667</ele><time>2026-05-02T08:03:37.361Z</time></trkpt><trkpt lat="39.9321233" lon="8.4232883"><ele>38.333333333333336</ele><time>2026-05-02T08:03:38.361Z</time></trkpt><trkpt lat="39.9320683" lon="8.4234783"><ele>39.0</ele><time>2026-05-02T08:03:39.361Z</time></trkpt><trkpt lat="39.9320083" lon="8.423645"><ele>39.0</ele><time>2026-05-02T08:03:40.361Z</time></trkpt><trkpt lat="39.93196" lon="8.4237783"><ele>39.0</ele><time>2026-05-02T08:03:41.361Z</time></trkpt><trkpt lat="39.9319133" lon="8.4238717"><ele>39.0</ele><time>2026-05-02T08:03:42.361Z</time></trkpt><trkpt lat="39.9318533" lon="8.4239817"><ele>39.0</ele><time>2026-05-02T08:03:44.361Z</time></trkpt><trkpt lat="39.931775" lon="8.4239633"><ele>39.0</ele><time>2026-05-02T08:03:46.361Z</time></trkpt><trkpt lat="39.9316883" lon="8.4238633"><ele>38.6</ele><time>2026-05-02T08:03:48.361Z</time></trkpt><trkpt lat="39.931645" lon="8.423775"><ele>38.2</ele><time>2026-05-02T08:03:49.361Z</time></trkpt><trkpt lat="39.9315983" lon="8.4236583"><ele>37.800000000000004</ele><time>2026-05-02T08:03:50.361Z</time></trkpt><trkpt lat="39.9315317" lon="8.42352"><ele>37.4</ele><time>2026-05-02T08:03:51.361Z</time></trkpt><trkpt lat="39.9314417" lon="8.42338"><ele>37.0</ele><time>2026-05-02T08:03:52.361Z</time></trkpt><trkpt lat="39.931355" lon="8.4232567"><ele>37.0</ele><time>2026-05-02T08:03:53.361Z</time></trkpt><trkpt lat="39.9312617" lon="8.4231583"><ele>37.0</ele><time>2026-05-02T08:03:54.361Z</time></trkpt><trkpt lat="39.9311667" lon="8.4230817"><ele>37.0</ele><time>2026-05-02T08:03:55.361Z</time></trkpt><trkpt lat="39.9310567" lon="8.4230067"><ele>37.0</ele><time>2026-05-02T08:03:56.361Z</time></trkpt><trkpt lat="39.9309383" lon="8.4229433"><ele>36.5</ele><time>2026-05-02T08:03:57.361Z</time></trkpt><trkpt lat="39.9308367" lon="8.422875"><ele>36.0</ele><time>2026-05-02T08:03:58.361Z</time></trkpt><trkpt lat="39.930745" lon="8.4227733"><ele>35.5</ele><time>2026-05-02T08:03:59.362Z</time></trkpt><trkpt lat="39.930665" lon="8.4226583"><ele>35.0</ele><time>2026-05-02T08:04:00.361Z</time></trkpt><trkpt lat="39.9305933" lon="8.4225183"><ele>35.0</ele><time>2026-05-02T08:04:01.361Z</time></trkpt><trkpt lat="39.9305317" lon="8.422365"><ele>35.0</ele><time>2026-05-02T08:04:02.361Z</time></trkpt><trkpt lat="39.9304733" lon="8.422225"><ele>35.0</ele><time>2026-05-02T08:04:03.361Z</time></trkpt><trkpt lat="39.9303933" lon="8.4220967"><ele>35.0</ele><time>2026-05-02T08:04:04.361Z</time></trkpt><trkpt lat="39.9302967" lon="8.4219867"><ele>34.75</ele><time>2026-05-02T08:04:05.361Z</time></trkpt><trkpt lat="39.93018" lon="8.4218767"><ele>34.5</ele><time>2026-05-02T08:04:06.361Z</time></trkpt><trkpt lat="39.9300617" lon="8.4217617"><ele>34.25</ele><time>2026-05-02T08:04:07.361Z</time></trkpt><trkpt lat="39.929945" lon="8.4216367"><ele>34.0</ele><time>2026-05-02T08:04:08.361Z</time></trkpt><trkpt lat="39.9298333" lon="8.4215"><ele>34.0</ele><time>2026-05-02T08:04:09.361Z</time></trkpt><trkpt lat="39.9297267" lon="8.421375"><ele>34.0</ele><time>2026-05-02T08:04:10.361Z</time></trkpt><trkpt lat="39.9296217" lon="8.4212583"><ele>34.0</ele><time>2026-05-02T08:04:11.361Z</time></trkpt><trkpt lat="39.929505" lon="8.4211517"><ele>34.0</ele><time>2026-05-02T08:04:12.361Z</time></trkpt><trkpt lat="39.9293917" lon="8.4210467"><ele>33.75</ele><time>2026-05-02T08:04:13.361Z</time></trkpt><trkpt lat="39.9292667" lon="8.42095"><ele>33.5</ele><time>2026-05-02T08:04:14.361Z</time></trkpt><trkpt lat="39.9291367" lon="8.4208483"><ele>33.25</ele><time>2026-05-02T08:04:15.361Z</time></trkpt><trkpt lat="39.929005" lon="8.4207483"><ele>33.0</ele><time>2026-05-02T08:04:16.361Z</time></trkpt><trkpt lat="39.9288833" lon="8.4206417"><ele>33.0</ele><time>2026-05-02T08:04:17.361Z</time></trkpt><trkpt lat="39.9287767" lon="8.4205233"><ele>33.0</ele><time>2026-05-02T08:04:18.361Z</time></trkpt><trkpt lat="39.9286733" lon="8.420405"><ele>33.0</ele><time>2026-05-02T08:04:19.361Z</time></trkpt><trkpt lat="39.9285683" lon="8.4202933"><ele>33.0</ele><time>2026-05-02T08:04:20.361Z</time></trkpt><trkpt lat="39.9284533" lon="8.42017"><ele>33.0</ele><time>2026-05-02T08:04:21.361Z</time></trkpt><trkpt lat="39.92834" lon="8.4200467"><ele>33.0</ele><time>2026-05-02T08:04:22.361Z</time></trkpt><trkpt lat="39.9282267" lon="8.4199167"><ele>33.0</ele><time>2026-05-02T08:04:23.361Z</time></trkpt><trkpt lat="39.9281133" lon="8.4198033"><ele>33.0</ele><time>2026-05-02T08:04:24.361Z</time></trkpt><trkpt lat="39.9280017" lon="8.4196883"><ele>33.0</ele><time>2026-05-02T08:04:25.361Z</time></trkpt><trkpt lat="39.927885" lon="8.419585"><ele>33.0</ele><time>2026-05-02T08:04:26.361Z</time></trkpt><trkpt lat="39.9277717" lon="8.4194983"><ele>33.0</ele><time>2026-05-02T08:04:27.361Z</time></trkpt><trkpt lat="39.9276517" lon="8.419405"><ele>33.0</ele><time>2026-05-02T08:04:28.361Z</time></trkpt><trkpt lat="39.92753" lon="8.419325"><ele>33.0</ele><time>2026-05-02T08:04:29.361Z</time></trkpt><trkpt lat="39.9274217" lon="8.419265"><ele>33.0</ele><time>2026-05-02T08:04:30.361Z</time></trkpt><trkpt lat="39.9273283" lon="8.419235"><ele>33.0</ele><time>2026-05-02T08:04:31.361Z</time></trkpt><trkpt lat="39.9272333" lon="8.4192383"><ele>33.0</ele><time>2026-05-02T08:04:32.361Z</time></trkpt><trkpt lat="39.9271383" lon="8.4192767"><ele>33.0</ele><time>2026-05-02T08:04:33.361Z</time></trkpt><trkpt lat="39.92705" lon="8.41933"><ele>33.0</ele><time>2026-05-02T08:04:34.361Z</time></trkpt><trkpt lat="39.926955" lon="8.4193683"><ele>33.0</ele><time>2026-05-02T08:04:35.361Z</time></trkpt><trkpt lat="39.9268533" lon="8.419375"><ele>33.0</ele><time>2026-05-02T08:04:36.361Z</time></trkpt><trkpt lat="39.9267433" lon="8.4193617"><ele>33.0</ele><time>2026-05-02T08:04:37.361Z</time></trkpt><trkpt lat="39.9266233" lon="8.41933"><ele>33.0</ele><time>2026-05-02T08:04:38.361Z</time></trkpt><trkpt lat="39.926495" lon="8.4192967"><ele>33.75</ele><time>2026-05-02T08:04:39.361Z</time></trkpt><trkpt lat="39.926365" lon="8.4192783"><ele>34.5</ele><time>2026-05-02T08:04:40.361Z</time></trkpt><trkpt lat="39.9262367" lon="8.41924"><ele>35.25</ele><time>2026-05-02T08:04:41.361Z</time></trkpt><trkpt lat="39.9261183" lon="8.4191767"><ele>36.0</ele><time>2026-05-02T08:04:42.361Z</time></trkpt><trkpt lat="39.9259967" lon="8.4191133"><ele>36.5</ele><time>2026-05-02T08:04:43.361Z</time></trkpt><trkpt lat="39.9258717" lon="8.4190617"><ele>37.0</ele><time>2026-05-02T08:04:44.361Z</time></trkpt><trkpt lat="39.9257367" lon="8.4190233"><ele>37.5</ele><time>2026-05-02T08:04:45.361Z</time></trkpt><trkpt lat="39.92561" lon="8.418995"><ele>38.0</ele><time>2026-05-02T08:04:46.361Z</time></trkpt><trkpt lat="39.9254833" lon="8.4189783"><ele>38.0</ele><time>2026-05-02T08:04:47.361Z</time></trkpt><trkpt lat="39.925365" lon="8.4189467"><ele>38.0</ele><time>2026-05-02T08:04:48.361Z</time></trkpt><trkpt lat="39.9252517" lon="8.4189017"><ele>38.0</ele><time>2026-05-02T08:04:49.361Z</time></trkpt><trkpt lat="39.9251333" lon="8.4188583"><ele>38.0</ele><time>2026-05-02T08:04:50.361Z</time></trkpt><trkpt lat="39.925015" lon="8.418835"><ele>38.0</ele><time>2026-05-02T08:04:51.361Z</time></trkpt><trkpt lat="39.9248983" lon="8.418825"><ele>38.0</ele><time>2026-05-02T08:04:52.361Z</time></trkpt><trkpt lat="39.9247917" lon="8.4188033"><ele>38.0</ele><time>2026-05-02T08:04:53.361Z</time></trkpt><trkpt lat="39.924695" lon="8.41877"><ele>38.0</ele><time>2026-05-02T08:04:54.361Z</time></trkpt><trkpt lat="39.92461" lon="8.418725"><ele>38.0</ele><time>2026-05-02T08:04:55.361Z</time></trkpt><trkpt lat="39.9245283" lon="8.4186583"><ele>38.0</ele><time>2026-05-02T08:04:56.361Z</time></trkpt><trkpt lat="39.9244483" lon="8.41858"><ele>38.0</ele><time>2026-05-02T08:04:57.361Z</time></trkpt><trkpt lat="39.924345" lon="8.418495"><ele>38.0</ele><time>2026-05-02T08:04:58.361Z</time></trkpt><trkpt lat="39.9242367" lon="8.4184117"><ele>38.0</ele><time>2026-05-02T08:04:59.361Z</time></trkpt><trkpt lat="39.9241117" lon="8.4183333"><ele>38.0</ele><time>2026-05-02T08:05:00.361Z</time></trkpt><trkpt lat="39.9239783" lon="8.418245"><ele>38.0</ele><time>2026-05-02T08:05:01.361Z</time></trkpt><trkpt lat="39.9238583" lon="8.4181533"><ele>38.0</ele><time>2026-05-02T08:05:02.361Z</time></trkpt><trkpt lat="39.92373" lon="8.4180517"><ele>38.0</ele><time>2026-05-02T08:05:03.361Z</time></trkpt><trkpt lat="39.9236017" lon="8.417955"><ele>38.0</ele><time>2026-05-02T08:05:04.361Z</time></trkpt><trkpt lat="39.9234683" lon="8.41787"><ele>38.0</ele><time>2026-05-02T08:05:05.361Z</time></trkpt><trkpt lat="39.9233283" lon="8.4178017"><ele>38.0</ele><time>2026-05-02T08:05:06.361Z</time></trkpt><trkpt lat="39.9231667" lon="8.4177367"><ele>38.25</ele><time>2026-05-02T08:05:07.361Z</time></trkpt><trkpt lat="39.9230233" lon="8.417685"><ele>38.5</ele><time>2026-05-02T08:05:08.361Z</time></trkpt><trkpt lat="39.922885" lon="8.4176183"><ele>38.75</ele><time>2026-05-02T08:05:09.361Z</time></trkpt><trkpt lat="39.9227633" lon="8.41755"><ele>39.0</ele><time>2026-05-02T08:05:10.361Z</time></trkpt><trkpt lat="39.9226383" lon="8.4174767"><ele>39.25</ele><time>2026-05-02T08:05:11.361Z</time></trkpt><trkpt lat="39.9225167" lon="8.4174117"><ele>39.5</ele><time>2026-05-02T08:05:12.361Z</time></trkpt><trkpt lat="39.9223967" lon="8.4173617"><ele>39.75</ele><time>2026-05-02T08:05:13.361Z</time></trkpt><trkpt lat="39.9222617" lon="8.4173267"><ele>40.0</ele><time>2026-05-02T08:05:14.361Z</time></trkpt><trkpt lat="39.922125" lon="8.4172967"><ele>40.0</ele><time>2026-05-02T08:05:15.361Z</time></trkpt><trkpt lat="39.9219967" lon="8.4172767"><ele>40.0</ele><time>2026-05-02T08:05:16.361Z</time></trkpt><trkpt lat="39.9218683" lon="8.4172517"><ele>40.0</ele><time>2026-05-02T08:05:17.361Z</time></trkpt><trkpt lat="39.9217533" lon="8.417205"><ele>40.0</ele><time>2026-05-02T08:05:18.361Z</time></trkpt><trkpt lat="39.9216383" lon="8.4171467"><ele>40.0</ele><time>2026-05-02T08:05:19.361Z</time></trkpt><trkpt lat="39.921525" lon="8.4170617"><ele>40.0</ele><time>2026-05-02T08:05:20.361Z</time></trkpt><trkpt lat="39.9214017" lon="8.416965"><ele>40.0</ele><time>2026-05-02T08:05:21.361Z</time></trkpt><trkpt lat="39.92127" lon="8.4168567"><ele>40.0</ele><time>2026-05-02T08:05:22.361Z</time></trkpt><trkpt lat="39.9211517" lon="8.4167417"><ele>40.0</ele><time>2026-05-02T08:05:23.361Z</time></trkpt><trkpt lat="39.9210367" lon="8.4166317"><ele>40.0</ele><time>2026-05-02T08:05:24.361Z</time></trkpt><trkpt lat="39.9209283" lon="8.416545"><ele>40.0</ele><time>2026-05-02T08:05:25.361Z</time></trkpt><trkpt lat="39.9208233" lon="8.416455"><ele>40.0</ele><time>2026-05-02T08:05:26.361Z</time></trkpt><trkpt lat="39.9207233" lon="8.41638"><ele>39.2</ele><time>2026-05-02T08:05:27.361Z</time></trkpt><trkpt lat="39.9206217" lon="8.4163083"><ele>38.4</ele><time>2026-05-02T08:05:28.361Z</time></trkpt><trkpt lat="39.9205183" lon="8.4162367"><ele>37.6</ele><time>2026-05-02T08:05:29.361Z</time></trkpt><trkpt lat="39.9204217" lon="8.4161733"><ele>36.8</ele><time>2026-05-02T08:05:30.361Z</time></trkpt><trkpt lat="39.92033" lon="8.4161117"><ele>36.0</ele><time>2026-05-02T08:05:31.361Z</time></trkpt><trkpt lat="39.9202333" lon="8.4160567"><ele>36.0</ele><time>2026-05-02T08:05:32.361Z</time></trkpt><trkpt lat="39.9201283" lon="8.4160117"><ele>36.0</ele><time>2026-05-02T08:05:33.361Z</time></trkpt><trkpt lat="39.92002" lon="8.4159783"><ele>36.0</ele><time>2026-05-02T08:05:34.361Z</time></trkpt><trkpt lat="39.91991" lon="8.4159417"><ele>36.0</ele><time>2026-05-02T08:05:35.361Z</time></trkpt><trkpt lat="39.9198167" lon="8.4159117"><ele>36.0</ele><time>2026-05-02T08:05:36.361Z</time></trkpt><trkpt lat="39.9197383" lon="8.41587"><ele>36.4</ele><time>2026-05-02T08:05:38.361Z</time></trkpt><trkpt lat="39.919795" lon="8.415765"><ele>36.8</ele><time>2026-05-02T08:05:41.361Z</time></trkpt><trkpt lat="39.9198633" lon="8.415625"><ele>37.199999999999996</ele><time>2026-05-02T08:05:43.361Z</time></trkpt><trkpt lat="39.9199017" lon="8.4155383"><ele>37.6</ele><time>2026-05-02T08:05:44.361Z</time></trkpt><trkpt lat="39.91995" lon="8.41543"><ele>38.0</ele><time>2026-05-02T08:05:45.361Z</time></trkpt><trkpt lat="39.9200067" lon="8.41532"><ele>36.75</ele><time>2026-05-02T08:05:46.361Z</time></trkpt><trkpt lat="39.9200667" lon="8.4151967"><ele>35.5</ele><time>2026-05-02T08:05:47.361Z</time></trkpt><trkpt lat="39.9201267" lon="8.41507"><ele>34.25</ele><time>2026-05-02T08:05:48.361Z</time></trkpt><trkpt lat="39.9201917" lon="8.4149433"><ele>33.0</ele><time>2026-05-02T08:05:49.361Z</time></trkpt><trkpt lat="39.9202583" lon="8.4148217"><ele>33.0</ele><time>2026-05-02T08:05:50.361Z</time></trkpt><trkpt lat="39.92032" lon="8.414695"><ele>33.0</ele><time>2026-05-02T08:05:51.361Z</time></trkpt><trkpt lat="39.9203817" lon="8.41457"><ele>33.0</ele><time>2026-05-02T08:05:52.361Z</time></trkpt><trkpt lat="39.9204483" lon="8.4144467"><ele>33.0</ele><time>2026-05-02T08:05:53.361Z</time></trkpt><trkpt lat="39.9205067" lon="8.414335"><ele>33.0</ele><time>2026-05-02T08:05:54.361Z</time></trkpt><trkpt lat="39.920565" lon="8.4142183"><ele>32.6</ele><time>2026-05-02T08:05:55.361Z</time></trkpt><trkpt lat="39.92061" lon="8.4141067"><ele>32.199999999999996</ele><time>2026-05-02T08:05:56.361Z</time></trkpt><trkpt lat="39.9206467" lon="8.413975"><ele>31.8</ele><time>2026-05-02T08:05:57.361Z</time></trkpt><trkpt lat="39.9206883" lon="8.413855"><ele>31.4</ele><time>2026-05-02T08:05:58.361Z</time></trkpt><trkpt lat="39.9207167" lon="8.4137283"><ele>31.0</ele><time>2026-05-02T08:05:59.361Z</time></trkpt><trkpt lat="39.920755" lon="8.4135983"><ele>31.0</ele><time>2026-05-02T08:06:00.361Z</time></trkpt><trkpt lat="39.9208017" lon="8.4134733"><ele>31.0</ele><time>2026-05-02T08:06:01.361Z</time></trkpt><trkpt lat="39.9208417" lon="8.4133567"><ele>31.0</ele><time>2026-05-02T08:06:02.361Z</time></trkpt><trkpt lat="39.920895" lon="8.4132367"><ele>31.0</ele><time>2026-05-02T08:06:03.361Z</time></trkpt><trkpt lat="39.9209567" lon="8.41314"><ele>31.0</ele><time>2026-05-02T08:06:04.361Z</time></trkpt><trkpt lat="39.9210217" lon="8.41305"><ele>30.200000000000003</ele><time>2026-05-02T08:06:05.361Z</time></trkpt><trkpt lat="39.9210917" lon="8.4129783"><ele>29.400000000000002</ele><time>2026-05-02T08:06:06.361Z</time></trkpt><trkpt lat="39.9211633" lon="8.4129233"><ele>28.6</ele><time>2026-05-02T08:06:07.361Z</time></trkpt><trkpt lat="39.9212467" lon="8.41286"><ele>27.8</ele><time>2026-05-02T08:06:08.361Z</time></trkpt><trkpt lat="39.9213467" lon="8.4128033"><ele>27.0</ele><time>2026-05-02T08:06:09.361Z</time></trkpt><trkpt lat="39.921455" lon="8.412745"><ele>27.0</ele><time>2026-05-02T08:06:10.361Z</time></trkpt><trkpt lat="39.9215883" lon="8.4127"><ele>27.0</ele><time>2026-05-02T08:06:11.361Z</time></trkpt><trkpt lat="39.92172" lon="8.41266"><ele>27.0</ele><time>2026-05-02T08:06:12.361Z</time></trkpt><trkpt lat="39.9218367" lon="8.4126233"><ele>27.0</ele><time>2026-05-02T08:06:13.361Z</time></trkpt><trkpt lat="39.9219517" lon="8.4125817"><ele>27.0</ele><time>2026-05-02T08:06:14.361Z</time></trkpt><trkpt lat="39.9220633" lon="8.4125333"><ele>27.0</ele><time>2026-05-02T08:06:15.361Z</time></trkpt><trkpt lat="39.9221833" lon="8.4125"><ele>27.0</ele><time>2026-05-02T08:06:16.361Z</time></trkpt><trkpt lat="39.9223033" lon="8.4124683"><ele>27.0</ele><time>2026-05-02T08:06:17.361Z</time></trkpt><trkpt lat="39.9224267" lon="8.4124483"><ele>27.0</ele><time>2026-05-02T08:06:18.361Z</time></trkpt><trkpt lat="39.9225417" lon="8.4124283"><ele>27.0</ele><time>2026-05-02T08:06:19.361Z</time></trkpt><trkpt lat="39.9226533" lon="8.4123983"><ele>27.0</ele><time>2026-05-02T08:06:20.361Z</time></trkpt><trkpt lat="39.9227617" lon="8.412345"><ele>27.0</ele><time>2026-05-02T08:06:21.361Z</time></trkpt><trkpt lat="39.9228633" lon="8.4122633"><ele>26.75</ele><time>2026-05-02T08:06:22.361Z</time></trkpt><trkpt lat="39.922965" lon="8.4121617"><ele>26.5</ele><time>2026-05-02T08:06:23.361Z</time></trkpt><trkpt lat="39.92306" lon="8.412075"><ele>26.25</ele><time>2026-05-02T08:06:24.361Z</time></trkpt><trkpt lat="39.9231583" lon="8.4120067"><ele>26.0</ele><time>2026-05-02T08:06:25.361Z</time></trkpt><trkpt lat="39.9232567" lon="8.4119583"><ele>26.0</ele><time>2026-05-02T08:06:26.361Z</time></trkpt><trkpt lat="39.923355" lon="8.41191"><ele>26.0</ele><time>2026-05-02T08:06:27.361Z</time></trkpt><trkpt lat="39.9234683" lon="8.411875"><ele>26.0</ele><time>2026-05-02T08:06:28.361Z</time></trkpt><trkpt lat="39.9235817" lon="8.4118417"><ele>26.0</ele><time>2026-05-02T08:06:29.361Z</time></trkpt><trkpt lat="39.923695" lon="8.4118"><ele>26.5</ele><time>2026-05-02T08:06:30.361Z</time></trkpt><trkpt lat="39.923805" lon="8.4117617"><ele>27.0</ele><time>2026-05-02T08:06:31.361Z</time></trkpt><trkpt lat="39.9239117" lon="8.4117483"><ele>27.5</ele><time>2026-05-02T08:06:32.361Z</time></trkpt><trkpt lat="39.9240267" lon="8.41172"><ele>28.0</ele><time>2026-05-02T08:06:33.361Z</time></trkpt><trkpt lat="39.92415" lon="8.411685"><ele>28.5</ele><time>2026-05-02T08:06:34.361Z</time></trkpt><trkpt lat="39.924275" lon="8.411665"><ele>29.0</ele><time>2026-05-02T08:06:35.361Z</time></trkpt><trkpt lat="39.92441" lon="8.4116367"><ele>29.5</ele><time>2026-05-02T08:06:36.361Z</time></trkpt><trkpt lat="39.9245333" lon="8.4115967"><ele>30.0</ele><time>2026-05-02T08:06:37.361Z</time></trkpt><trkpt lat="39.924655" lon="8.41155"><ele>30.0</ele><time>2026-05-02T08:06:38.361Z</time></trkpt><trkpt lat="39.9247583" lon="8.4114917"><ele>30.0</ele><time>2026-05-02T08:06:39.361Z</time></trkpt><trkpt lat="39.9248567" lon="8.4114317"><ele>30.0</ele><time>2026-05-02T08:06:40.361Z</time></trkpt><trkpt lat="39.924955" lon="8.4113733"><ele>30.0</ele><time>2026-05-02T08:06:41.361Z</time></trkpt><trkpt lat="39.925045" lon="8.4112817"><ele>30.0</ele><time>2026-05-02T08:06:42.361Z</time></trkpt><trkpt lat="39.9251333" lon="8.4111883"><ele>30.0</ele><time>2026-05-02T08:06:43.361Z</time></trkpt><trkpt lat="39.9252117" lon="8.4110817"><ele>30.0</ele><time>2026-05-02T08:06:44.361Z</time></trkpt><trkpt lat="39.9252783" lon="8.4109617"><ele>30.0</ele><time>2026-05-02T08:06:45.361Z</time></trkpt><trkpt lat="39.925345" lon="8.4108433"><ele>30.0</ele><time>2026-05-02T08:06:46.361Z</time></trkpt><trkpt lat="39.9254067" lon="8.410725"><ele>30.0</ele><time>2026-05-02T08:06:47.361Z</time></trkpt><trkpt lat="39.9254733" lon="8.4106017"><ele>29.6</ele><time>2026-05-02T08:06:48.361Z</time></trkpt><trkpt lat="39.925535" lon="8.4104883"><ele>29.2</ele><time>2026-05-02T08:06:49.361Z</time></trkpt><trkpt lat="39.9255933" lon="8.4103767"><ele>28.799999999999997</ele><time>2026-05-02T08:06:50.361Z</time></trkpt><trkpt lat="39.9256633" lon="8.4102883"><ele>28.4</ele><time>2026-05-02T08:06:51.361Z</time></trkpt><trkpt lat="39.9257417" lon="8.41021"><ele>28.0</ele><time>2026-05-02T08:06:52.361Z</time></trkpt><trkpt lat="39.9258467" lon="8.4101367"><ele>28.0</ele><time>2026-05-02T08:06:53.361Z</time></trkpt><trkpt lat="39.9259683" lon="8.4100833"><ele>28.0</ele><time>2026-05-02T08:06:54.361Z</time></trkpt><trkpt lat="39.9261017" lon="8.410045"><ele>28.0</ele><time>2026-05-02T08:06:55.361Z</time></trkpt><trkpt lat="39.926225" lon="8.4100183"><ele>28.0</ele><time>2026-05-02T08:06:56.361Z</time></trkpt><trkpt lat="39.9263417" lon="8.4100083"><ele>28.0</ele><time>2026-05-02T08:06:57.361Z</time></trkpt><trkpt lat="39.9264517" lon="8.410005"><ele>27.999999999999996</ele><time>2026-05-02T08:06:58.361Z</time></trkpt><trkpt lat="39.9265583" lon="8.4099783"><ele>27.999999999999996</ele><time>2026-05-02T08:06:59.361Z</time></trkpt><trkpt lat="39.926665" lon="8.409935"><ele>28.0</ele><time>2026-05-02T08:07:00.361Z</time></trkpt><trkpt lat="39.9267683" lon="8.4098917"><ele>28.0</ele><time>2026-05-02T08:07:01.361Z</time></trkpt><trkpt lat="39.9268717" lon="8.4098467"><ele>28.0</ele><time>2026-05-02T08:07:02.361Z</time></trkpt><trkpt lat="39.92698" lon="8.4097917"><ele>28.0</ele><time>2026-05-02T08:07:03.361Z</time></trkpt><trkpt lat="39.9271017" lon="8.4097167"><ele>28.0</ele><time>2026-05-02T08:07:04.361Z</time></trkpt><trkpt lat="39.9272083" lon="8.40964"><ele>28.0</ele><time>2026-05-02T08:07:05.361Z</time></trkpt><trkpt lat="39.9273083" lon="8.409555"><ele>27.5</ele><time>2026-05-02T08:07:06.361Z</time></trkpt><trkpt lat="39.9273983" lon="8.4094683"><ele>27.0</ele><time>2026-05-02T08:07:07.361Z</time></trkpt><trkpt lat="39.9274833" lon="8.4093733"><ele>26.5</ele><time>2026-05-02T08:07:08.361Z</time></trkpt><trkpt lat="39.9275567" lon="8.4092633"><ele>26.0</ele><time>2026-05-02T08:07:09.361Z</time></trkpt><trkpt lat="39.927625" lon="8.4091367"><ele>26.0</ele><time>2026-05-02T08:07:10.361Z</time></trkpt><trkpt lat="39.92769" lon="8.409005"><ele>26.0</ele><time>2026-05-02T08:07:11.361Z</time></trkpt><trkpt lat="39.9277567" lon="8.4088517"><ele>26.0</ele><time>2026-05-02T08:07:12.361Z</time></trkpt><trkpt lat="39.927825" lon="8.40871"><ele>26.0</ele><time>2026-05-02T08:07:13.361Z</time></trkpt><trkpt lat="39.9278983" lon="8.408585"><ele>25.5</ele><time>2026-05-02T08:07:14.361Z</time></trkpt><trkpt lat="39.9279683" lon="8.4084683"><ele>25.0</ele><time>2026-05-02T08:07:15.361Z</time></trkpt><trkpt lat="39.9280467" lon="8.4083567"><ele>24.5</ele><time>2026-05-02T08:07:16.361Z</time></trkpt><trkpt lat="39.928125" lon="8.4082383"><ele>24.0</ele><time>2026-05-02T08:07:17.361Z</time></trkpt><trkpt lat="39.9282083" lon="8.408115"><ele>23.0</ele><time>2026-05-02T08:07:18.361Z</time></trkpt><trkpt lat="39.92829" lon="8.4079933"><ele>22.0</ele><time>2026-05-02T08:07:19.361Z</time></trkpt><trkpt lat="39.9283717" lon="8.4078833"><ele>21.0</ele><time>2026-05-02T08:07:20.361Z</time></trkpt><trkpt lat="39.9284567" lon="8.407805"><ele>20.0</ele><time>2026-05-02T08:07:21.361Z</time></trkpt><trkpt lat="39.92855" lon="8.4077383"><ele>19.75</ele><time>2026-05-02T08:07:22.361Z</time></trkpt><trkpt lat="39.92866" lon="8.4076517"><ele>19.5</ele><time>2026-05-02T08:07:23.361Z</time></trkpt><trkpt lat="39.9287633" lon="8.40757"><ele>19.25</ele><time>2026-05-02T08:07:24.361Z</time></trkpt><trkpt lat="39.9288683" lon="8.4074817"><ele>19.0</ele><time>2026-05-02T08:07:25.361Z</time></trkpt><trkpt lat="39.928975" lon="8.4073733"><ele>19.0</ele><time>2026-05-02T08:07:26.361Z</time></trkpt><trkpt lat="39.92908" lon="8.40727"><ele>19.0</ele><time>2026-05-02T08:07:27.361Z</time></trkpt><trkpt lat="39.9291817" lon="8.4071583"><ele>19.0</ele><time>2026-05-02T08:07:28.361Z</time></trkpt><trkpt lat="39.9292817" lon="8.4070617"><ele>19.0</ele><time>2026-05-02T08:07:29.361Z</time></trkpt><trkpt lat="39.92938" lon="8.4069767"><ele>19.0</ele><time>2026-05-02T08:07:30.361Z</time></trkpt><trkpt lat="39.9294783" lon="8.406905"><ele>19.0</ele><time>2026-05-02T08:07:31.361Z</time></trkpt><trkpt lat="39.92958" lon="8.4068333"><ele>19.0</ele><time>2026-05-02T08:07:32.362Z</time></trkpt><trkpt lat="39.9296867" lon="8.4067533"><ele>19.0</ele><time>2026-05-02T08:07:33.361Z</time></trkpt><trkpt lat="39.92979" lon="8.4066783"><ele>19.0</ele><time>2026-05-02T08:07:34.361Z</time></trkpt><trkpt lat="39.9298833" lon="8.4065967"><ele>19.0</ele><time>2026-05-02T08:07:35.361Z</time></trkpt><trkpt lat="39.9299817" lon="8.406515"><ele>19.0</ele><time>2026-05-02T08:07:36.361Z</time></trkpt><trkpt lat="39.9300767" lon="8.4064367"><ele>19.0</ele><time>2026-05-02T08:07:37.361Z</time></trkpt><trkpt lat="39.9301683" lon="8.40635"><ele>18.4</ele><time>2026-05-02T08:07:38.361Z</time></trkpt><trkpt lat="39.93026" lon="8.40627"><ele>17.799999999999997</ele><time>2026-05-02T08:07:39.361Z</time></trkpt><trkpt lat="39.9303367" lon="8.406195"><ele>17.200000000000003</ele><time>2026-05-02T08:07:40.361Z</time></trkpt><trkpt lat="39.9304067" lon="8.40612"><ele>16.6</ele><time>2026-05-02T08:07:41.361Z</time></trkpt><trkpt lat="39.93047" lon="8.4060417"><ele>16.0</ele><time>2026-05-02T08:07:42.361Z</time></trkpt><trkpt lat="39.9305467" lon="8.4059783"><ele>15.999999999999998</ele><time>2026-05-02T08:07:43.361Z</time></trkpt><trkpt lat="39.9306217" lon="8.405925"><ele>16.0</ele><time>2026-05-02T08:07:44.361Z</time></trkpt><trkpt lat="39.9307067" lon="8.4058933"><ele>16.0</ele><time>2026-05-02T08:07:45.361Z</time></trkpt><trkpt lat="39.93078" lon="8.4058617"><ele>16.0</ele><time>2026-05-02T08:07:46.361Z</time></trkpt><trkpt lat="39.9308483" lon="8.40584"><ele>15.999999999999998</ele><time>2026-05-02T08:07:47.361Z</time></trkpt><trkpt lat="39.9309183" lon="8.4058317"><ele>16.0</ele><time>2026-05-02T08:07:48.361Z</time></trkpt><trkpt lat="39.9309883" lon="8.40582"><ele>15.857142857142856</ele><time>2026-05-02T08:07:49.361Z</time></trkpt><trkpt lat="39.9310567" lon="8.4057967"><ele>15.714285714285712</ele><time>2026-05-02T08:07:50.361Z</time></trkpt><trkpt lat="39.931135" lon="8.4057533"><ele>15.571428571428571</ele><time>2026-05-02T08:07:51.361Z</time></trkpt><trkpt lat="39.93119" lon="8.4056983"><ele>15.428571428571427</ele><time>2026-05-02T08:07:52.361Z</time></trkpt><trkpt lat="39.9312517" lon="8.4056483"><ele>15.285714285714285</ele><time>2026-05-02T08:07:53.361Z</time></trkpt><trkpt lat="39.9313083" lon="8.4055967"><ele>15.142857142857142</ele><time>2026-05-02T08:07:54.361Z</time></trkpt><trkpt lat="39.9313667" lon="8.4055367"><ele>15.0</ele><time>2026-05-02T08:07:55.361Z</time></trkpt><trkpt lat="39.9314467" lon="8.4054267"><ele>15.0</ele><time>2026-05-02T08:07:57.361Z</time></trkpt><trkpt lat="39.931515" lon="8.4053317"><ele>15.0</ele><time>2026-05-02T08:07:59.361Z</time></trkpt><trkpt lat="39.9316067" lon="8.40529"><ele>15.0</ele><time>2026-05-02T08:08:01.361Z</time></trkpt><trkpt lat="39.9317217" lon="8.4053083"><ele>15.0</ele><time>2026-05-02T08:08:03.361Z</time></trkpt><trkpt lat="39.9318317" lon="8.4053567"><ele>15.0</ele><time>2026-05-02T08:08:05.361Z</time></trkpt><trkpt lat="39.931895" lon="8.4053683"><ele>14.833333333333334</ele><time>2026-05-02T08:08:06.361Z</time></trkpt><trkpt lat="39.9319583" lon="8.40537"><ele>14.666666666666668</ele><time>2026-05-02T08:08:07.361Z</time></trkpt><trkpt lat="39.932075" lon="8.40533"><ele>14.5</ele><time>2026-05-02T08:08:09.361Z</time></trkpt><trkpt lat="39.93214" lon="8.4052883"><ele>14.333333333333334</ele><time>2026-05-02T08:08:10.36Z</time></trkpt><trkpt lat="39.9322117" lon="8.4052467"><ele>14.166666666666668</ele><time>2026-05-02T08:08:11.36Z</time></trkpt><trkpt lat="39.9322817" lon="8.4052033"><ele>14.0</ele><time>2026-05-02T08:08:12.36Z</time></trkpt><trkpt lat="39.9323583" lon="8.405165"><ele>14.000000000000002</ele><time>2026-05-02T08:08:13.36Z</time></trkpt><trkpt lat="39.9324333" lon="8.4051317"><ele>14.0</ele><time>2026-05-02T08:08:14.36Z</time></trkpt><trkpt lat="39.932505" lon="8.4050883"><ele>14.0</ele><time>2026-05-02T08:08:15.36Z</time></trkpt><trkpt lat="39.9325733" lon="8.40505"><ele>14.0</ele><time>2026-05-02T08:08:16.36Z</time></trkpt><trkpt lat="39.9326317" lon="8.4050133"><ele>14.000000000000002</ele><time>2026-05-02T08:08:17.36Z</time></trkpt><trkpt lat="39.93276" lon="8.4049667"><ele>14.0</ele><time>2026-05-02T08:08:19.36Z</time></trkpt><trkpt lat="39.9328267" lon="8.4049383"><ele>13.500000000000002</ele><time>2026-05-02T08:08:20.36Z</time></trkpt><trkpt lat="39.9328883" lon="8.4048883"><ele>13.0</ele><time>2026-05-02T08:08:21.36Z</time></trkpt><trkpt lat="39.93295" lon="8.4048333"><ele>12.5</ele><time>2026-05-02T08:08:22.36Z</time></trkpt><trkpt lat="39.933015" lon="8.404765"><ele>12.0</ele><time>2026-05-02T08:08:23.36Z</time></trkpt><trkpt lat="39.9330917" lon="8.4047017"><ele>11.5</ele><time>2026-05-02T08:08:24.36Z</time></trkpt><trkpt lat="39.9331617" lon="8.4046217"><ele>11.0</ele><time>2026-05-02T08:08:25.36Z</time></trkpt><trkpt lat="39.9332283" lon="8.4045383"><ele>10.833333333333332</ele><time>2026-05-02T08:08:26.36Z</time></trkpt><trkpt lat="39.9332933" lon="8.4044567"><ele>10.666666666666666</ele><time>2026-05-02T08:08:27.36Z</time></trkpt><trkpt lat="39.93335" lon="8.4043867"><ele>10.5</ele><time>2026-05-02T08:08:28.36Z</time></trkpt><trkpt lat="39.9334167" lon="8.4043167"><ele>10.333333333333334</ele><time>2026-05-02T08:08:30.36Z</time></trkpt><trkpt lat="39.9334717" lon="8.4042583"><ele>10.166666666666668</ele><time>2026-05-02T08:08:33.36Z</time></trkpt><trkpt lat="39.9334717" lon="8.4041367"><ele>10.0</ele><time>2026-05-02T08:08:36.36Z</time></trkpt><trkpt lat="39.9335117" lon="8.40398"><ele>9.75</ele><time>2026-05-02T08:08:38.36Z</time></trkpt><trkpt lat="39.9335517" lon="8.4038583"><ele>9.5</ele><time>2026-05-02T08:08:39.36Z</time></trkpt><trkpt lat="39.9336017" lon="8.403735"><ele>9.25</ele><time>2026-05-02T08:08:40.361Z</time></trkpt><trkpt lat="39.9336617" lon="8.40359"><ele>9.0</ele><time>2026-05-02T08:08:41.36Z</time></trkpt><trkpt lat="39.9337217" lon="8.4034617"><ele>8.4</ele><time>2026-05-02T08:08:42.36Z</time></trkpt><trkpt lat="39.9337833" lon="8.4033367"><ele>7.800000000000001</ele><time>2026-05-02T08:08:43.36Z</time></trkpt><trkpt lat="39.9338317" lon="8.4031983"><ele>7.199999999999999</ele><time>2026-05-02T08:08:44.36Z</time></trkpt><trkpt lat="39.9338817" lon="8.4030717"><ele>6.6</ele><time>2026-05-02T08:08:45.36Z</time></trkpt><trkpt lat="39.9339183" lon="8.4029467"><ele>6.0</ele><time>2026-05-02T08:08:46.36Z</time></trkpt><trkpt lat="39.9339417" lon="8.4028367"><ele>5.5</ele><time>2026-05-02T08:08:47.36Z</time></trkpt><trkpt lat="39.9339667" lon="8.4027433"><ele>5.0</ele><time>2026-05-02T08:08:48.36Z</time></trkpt><trkpt lat="39.9339967" lon="8.4026183"><ele>4.5</ele><time>2026-05-02T08:08:50.36Z</time></trkpt><trkpt lat="39.9340767" lon="8.4025833"><ele>4.0</ele><time>2026-05-02T08:08:52.36Z</time></trkpt><trkpt lat="39.9341583" lon="8.402575"><ele>3.5</ele><time>2026-05-02T08:08:53.36Z</time></trkpt><trkpt lat="39.9342567" lon="8.402585"><ele>3.0</ele><time>2026-05-02T08:08:54.36Z</time></trkpt><trkpt lat="39.934355" lon="8.4025983"><ele>3.0</ele><time>2026-05-02T08:08:55.36Z</time></trkpt><trkpt lat="39.9344583" lon="8.4026117"><ele>3.0</ele><time>2026-05-02T08:08:56.36Z</time></trkpt><trkpt lat="39.9345633" lon="8.402635"><ele>3.0</ele><time>2026-05-02T08:08:57.36Z</time></trkpt><trkpt lat="39.934665" lon="8.4026517"><ele>3.0</ele><time>2026-05-02T08:08:58.36Z</time></trkpt><trkpt lat="39.9347517" lon="8.4026467"><ele>3.0</ele><time>2026-05-02T08:08:59.36Z</time></trkpt><trkpt lat="39.9348367" lon="8.4026233"><ele>3.0</ele><time>2026-05-02T08:09:00.36Z</time></trkpt><trkpt lat="39.9349167" lon="8.4025917"><ele>3.0</ele><time>2026-05-02T08:09:01.36Z</time></trkpt><trkpt lat="39.935" lon="8.4025467"><ele>3.0</ele><time>2026-05-02T08:09:02.36Z</time></trkpt><trkpt lat="39.9350817" lon="8.4024983"><ele>3.0</ele><time>2026-05-02T08:09:03.36Z</time></trkpt><trkpt lat="39.9351767" lon="8.4024617"><ele>3.0</ele><time>2026-05-02T08:09:04.36Z</time></trkpt><trkpt lat="39.9352683" lon="8.40243"><ele>2.6</ele><time>2026-05-02T08:09:05.36Z</time></trkpt><trkpt lat="39.9353633" lon="8.4024033"><ele>2.1999999999999997</ele><time>2026-05-02T08:09:06.361Z</time></trkpt><trkpt lat="39.935465" lon="8.4023883"><ele>1.8</ele><time>2026-05-02T08:09:07.36Z</time></trkpt><trkpt lat="39.93557" lon="8.402375"><ele>1.4</ele><time>2026-05-02T08:09:08.36Z</time></trkpt><trkpt lat="39.9356767" lon="8.4023667"><ele>1.0</ele><time>2026-05-02T08:09:09.36Z</time></trkpt><trkpt lat="39.9357883" lon="8.4023683"><ele>1.25</ele><time>2026-05-02T08:09:10.36Z</time></trkpt><trkpt lat="39.9359017" lon="8.4023517"><ele>1.5</ele><time>2026-05-02T08:09:11.36Z</time></trkpt><trkpt lat="39.93603" lon="8.402335"><ele>1.75</ele><time>2026-05-02T08:09:12.36Z</time></trkpt><trkpt lat="39.9361633" lon="8.402325"><ele>2.0</ele><time>2026-05-02T08:09:13.36Z</time></trkpt><trkpt lat="39.9363" lon="8.4023233"><ele>2.0</ele><time>2026-05-02T08:09:14.36Z</time></trkpt><trkpt lat="39.9364333" lon="8.4023233"><ele>2.0</ele><time>2026-05-02T08:09:15.36Z</time></trkpt><trkpt lat="39.9365633" lon="8.4023383"><ele>2.0</ele><time>2026-05-02T08:09:16.36Z</time></trkpt><trkpt lat="39.936685" lon="8.4023717"><ele>2.0</ele><time>2026-05-02T08:09:17.36Z</time></trkpt><trkpt lat="39.93681" lon="8.4024017"><ele>2.0</ele><time>2026-05-02T08:09:18.36Z</time></trkpt><trkpt lat="39.9369483" lon="8.4024433"><ele>2.0</ele><time>2026-05-02T08:09:19.36Z</time></trkpt><trkpt lat="39.9371" lon="8.4024783"><ele>2.0</ele><time>2026-05-02T08:09:20.36Z</time></trkpt><trkpt lat="39.93725" lon="8.402505"><ele>2.0</ele><time>2026-05-02T08:09:21.36Z</time></trkpt><trkpt lat="39.937395" lon="8.4025417"><ele>2.0</ele><time>2026-05-02T08:09:22.36Z</time></trkpt><trkpt lat="39.9375417" lon="8.4025767"><ele>2.0</ele><time>2026-05-02T08:09:23.361Z</time></trkpt><trkpt lat="39.9376783" lon="8.40261"><ele>2.0</ele><time>2026-05-02T08:09:24.36Z</time></trkpt><trkpt lat="39.9378033" lon="8.4026633"><ele>2.0</ele><time>2026-05-02T08:09:25.36Z</time></trkpt><trkpt lat="39.9379283" lon="8.4027267"><ele>2.0</ele><time>2026-05-02T08:09:26.36Z</time></trkpt><trkpt lat="39.938055" lon="8.4028"><ele>2.0</ele><time>2026-05-02T08:09:27.36Z</time></trkpt><trkpt lat="39.9381767" lon="8.4028767"><ele>2.0</ele><time>2026-05-02T08:09:28.36Z</time></trkpt><trkpt lat="39.9382917" lon="8.40296"><ele>2.0</ele><time>2026-05-02T08:09:29.36Z</time></trkpt><trkpt lat="39.9384" lon="8.403045"><ele>2.0</ele><time>2026-05-02T08:09:30.36Z</time></trkpt><trkpt lat="39.9385133" lon="8.4031217"><ele>2.0</ele><time>2026-05-02T08:09:31.36Z</time></trkpt><trkpt lat="39.9386333" lon="8.4031967"><ele>2.0</ele><time>2026-05-02T08:09:32.36Z</time></trkpt><trkpt lat="39.9387617" lon="8.4032517"><ele>2.0</ele><time>2026-05-02T08:09:33.36Z</time></trkpt><trkpt lat="39.93888" lon="8.4033183"><ele>2.0</ele><time>2026-05-02T08:09:34.36Z</time></trkpt><trkpt lat="39.9389917" lon="8.4033883"><ele>2.0</ele><time>2026-05-02T08:09:35.36Z</time></trkpt><trkpt lat="39.9390833" lon="8.40343"><ele>2.0</ele><time>2026-05-02T08:09:36.36Z</time></trkpt><trkpt lat="39.939165" lon="8.4034667"><ele>2.0</ele><time>2026-05-02T08:09:37.36Z</time></trkpt><trkpt lat="39.93925" lon="8.4034883"><ele>2.0</ele><time>2026-05-02T08:09:38.36Z</time></trkpt><trkpt lat="39.9393333" lon="8.4034817"><ele>2.0</ele><time>2026-05-02T08:09:39.36Z</time></trkpt><trkpt lat="39.9394217" lon="8.403465"><ele>2.0</ele><time>2026-05-02T08:09:40.36Z</time></trkpt><trkpt lat="39.9395133" lon="8.4034533"><ele>2.0</ele><time>2026-05-02T08:09:41.36Z</time></trkpt><trkpt lat="39.9396133" lon="8.40345"><ele>2.0</ele><time>2026-05-02T08:09:42.36Z</time></trkpt><trkpt lat="39.9397217" lon="8.4034533"><ele>2.0</ele><time>2026-05-02T08:09:43.36Z</time></trkpt><trkpt lat="39.93983" lon="8.4034583"><ele>2.0</ele><time>2026-05-02T08:09:44.36Z</time></trkpt><trkpt lat="39.9399433" lon="8.4034567"><ele>2.0</ele><time>2026-05-02T08:09:45.36Z</time></trkpt><trkpt lat="39.94006" lon="8.4034567"><ele>2.0</ele><time>2026-05-02T08:09:46.36Z</time></trkpt><trkpt lat="39.9401733" lon="8.4034433"><ele>2.0</ele><time>2026-05-02T08:09:47.36Z</time></trkpt><trkpt lat="39.94029" lon="8.4034167"><ele>2.25</ele><time>2026-05-02T08:09:48.36Z</time></trkpt><trkpt lat="39.9404033" lon="8.4033933"><ele>2.5</ele><time>2026-05-02T08:09:49.36Z</time></trkpt><trkpt lat="39.940515" lon="8.403375"><ele>2.75</ele><time>2026-05-02T08:09:50.36Z</time></trkpt><trkpt lat="39.9406267" lon="8.4033833"><ele>3.0</ele><time>2026-05-02T08:09:51.36Z</time></trkpt><trkpt lat="39.9407417" lon="8.4033833"><ele>3.0</ele><time>2026-05-02T08:09:52.36Z</time></trkpt><trkpt lat="39.940865" lon="8.4033733"><ele>3.0</ele><time>2026-05-02T08:09:53.36Z</time></trkpt><trkpt lat="39.9409867" lon="8.403355"><ele>3.0</ele><time>2026-05-02T08:09:54.36Z</time></trkpt><trkpt lat="39.9410983" lon="8.403325"><ele>3.0</ele><time>2026-05-02T08:09:55.36Z</time></trkpt><trkpt lat="39.9412167" lon="8.4032817"><ele>3.5</ele><time>2026-05-02T08:09:56.36Z</time></trkpt><trkpt lat="39.941345" lon="8.403245"><ele>4.0</ele><time>2026-05-02T08:09:57.36Z</time></trkpt><trkpt lat="39.9414633" lon="8.4032183"><ele>4.5</ele><time>2026-05-02T08:09:58.36Z</time></trkpt><trkpt lat="39.941585" lon="8.4031833"><ele>5.0</ele><time>2026-05-02T08:09:59.36Z</time></trkpt><trkpt lat="39.941705" lon="8.4031517"><ele>5.0</ele><time>2026-05-02T08:10:00.36Z</time></trkpt><trkpt lat="39.94184" lon="8.4031233"><ele>5.0</ele><time>2026-05-02T08:10:01.36Z</time></trkpt><trkpt lat="39.9419833" lon="8.4030983"><ele>5.0</ele><time>2026-05-02T08:10:02.36Z</time></trkpt><trkpt lat="39.9421267" lon="8.403085"><ele>5.0</ele><time>2026-05-02T08:10:03.36Z</time></trkpt><trkpt lat="39.9422683" lon="8.4030883"><ele>5.0</ele><time>2026-05-02T08:10:04.36Z</time></trkpt><trkpt lat="39.942395" lon="8.4031033"><ele>5.0</ele><time>2026-05-02T08:10:05.36Z</time></trkpt><trkpt lat="39.942525" lon="8.4031333"><ele>5.0</ele><time>2026-05-02T08:10:06.36Z</time></trkpt><trkpt lat="39.9426583" lon="8.4031817"><ele>5.0</ele><time>2026-05-02T08:10:07.36Z</time></trkpt><trkpt lat="39.9428083" lon="8.4032217"><ele>4.75</ele><time>2026-05-02T08:10:08.36Z</time></trkpt><trkpt lat="39.9429567" lon="8.4032733"><ele>4.5</ele><time>2026-05-02T08:10:09.36Z</time></trkpt><trkpt lat="39.9430983" lon="8.4033083"><ele>4.25</ele><time>2026-05-02T08:10:10.36Z</time></trkpt><trkpt lat="39.9432383" lon="8.403345"><ele>4.0</ele><time>2026-05-02T08:10:11.36Z</time></trkpt><trkpt lat="39.9433667" lon="8.4033783"><ele>4.2</ele><time>2026-05-02T08:10:12.36Z</time></trkpt><trkpt lat="39.94348" lon="8.4034083"><ele>4.4</ele><time>2026-05-02T08:10:13.36Z</time></trkpt><trkpt lat="39.9435817" lon="8.403435"><ele>4.6</ele><time>2026-05-02T08:10:14.36Z</time></trkpt><trkpt lat="39.9436817" lon="8.40347"><ele>4.8</ele><time>2026-05-02T08:10:15.36Z</time></trkpt><trkpt lat="39.9437633" lon="8.4035017"><ele>5.0</ele><time>2026-05-02T08:10:16.36Z</time></trkpt><trkpt lat="39.94384" lon="8.4035483"><ele>5.0</ele><time>2026-05-02T08:10:17.36Z</time></trkpt><trkpt lat="39.94391" lon="8.40358"><ele>5.0</ele><time>2026-05-02T08:10:18.36Z</time></trkpt><trkpt lat="39.9439817" lon="8.403615"><ele>5.0</ele><time>2026-05-02T08:10:19.36Z</time></trkpt><trkpt lat="39.9440667" lon="8.4036583"><ele>5.0</ele><time>2026-05-02T08:10:20.36Z</time></trkpt><trkpt lat="39.9441567" lon="8.4036983"><ele>5.0</ele><time>2026-05-02T08:10:21.36Z</time></trkpt><trkpt lat="39.944235" lon="8.4037383"><ele>5.0</ele><time>2026-05-02T08:10:22.36Z</time></trkpt><trkpt lat="39.9443117" lon="8.4037667"><ele>5.6</ele><time>2026-05-02T08:10:23.36Z</time></trkpt><trkpt lat="39.9443967" lon="8.4037667"><ele>6.2</ele><time>2026-05-02T08:10:24.36Z</time></trkpt><trkpt lat="39.9444883" lon="8.4037617"><ele>6.800000000000001</ele><time>2026-05-02T08:10:25.36Z</time></trkpt><trkpt lat="39.9446067" lon="8.40375"><ele>7.4</ele><time>2026-05-02T08:10:26.36Z</time></trkpt><trkpt lat="39.944725" lon="8.40377"><ele>8.0</ele><time>2026-05-02T08:10:27.36Z</time></trkpt><trkpt lat="39.9448383" lon="8.4037883"><ele>8.0</ele><time>2026-05-02T08:10:28.36Z</time></trkpt><trkpt lat="39.9449533" lon="8.4038133"><ele>8.0</ele><time>2026-05-02T08:10:29.36Z</time></trkpt><trkpt lat="39.9450717" lon="8.4038467"><ele>8.0</ele><time>2026-05-02T08:10:30.36Z</time></trkpt><trkpt lat="39.9452017" lon="8.4038883"><ele>8.0</ele><time>2026-05-02T08:10:31.36Z</time></trkpt><trkpt lat="39.9453217" lon="8.4039033"><ele>8.0</ele><time>2026-05-02T08:10:32.36Z</time></trkpt><trkpt lat="39.945415" lon="8.4039083"><ele>8.0</ele><time>2026-05-02T08:10:33.36Z</time></trkpt><trkpt lat="39.945505" lon="8.4039083"><ele>8.0</ele><time>2026-05-02T08:10:34.36Z</time></trkpt><trkpt lat="39.94559" lon="8.4038783"><ele>8.0</ele><time>2026-05-02T08:10:35.36Z</time></trkpt><trkpt lat="39.9456833" lon="8.4038383"><ele>8.0</ele><time>2026-05-02T08:10:36.36Z</time></trkpt><trkpt lat="39.9457933" lon="8.403815"><ele>7.0</ele><time>2026-05-02T08:10:37.36Z</time></trkpt><trkpt lat="39.94592" lon="8.4038017"><ele>6.0</ele><time>2026-05-02T08:10:38.36Z</time></trkpt><trkpt lat="39.9460667" lon="8.4038"><ele>5.0</ele><time>2026-05-02T08:10:39.36Z</time></trkpt><trkpt lat="39.94622" lon="8.4037733"><ele>4.0</ele><time>2026-05-02T08:10:40.36Z</time></trkpt><trkpt lat="39.9463783" lon="8.4037583"><ele>4.0</ele><time>2026-05-02T08:10:41.36Z</time></trkpt><trkpt lat="39.946535" lon="8.403745"><ele>4.0</ele><time>2026-05-02T08:10:42.36Z</time></trkpt><trkpt lat="39.9466833" lon="8.4037583"><ele>4.0</ele><time>2026-05-02T08:10:43.36Z</time></trkpt><trkpt lat="39.9468117" lon="8.4037817"><ele>4.0</ele><time>2026-05-02T08:10:44.36Z</time></trkpt><trkpt lat="39.9469283" lon="8.4037983"><ele>4.4</ele><time>2026-05-02T08:10:45.36Z</time></trkpt><trkpt lat="39.9470267" lon="8.40381"><ele>4.800000000000001</ele><time>2026-05-02T08:10:46.36Z</time></trkpt><trkpt lat="39.9471283" lon="8.4038167"><ele>5.199999999999999</ele><time>2026-05-02T08:10:47.36Z</time></trkpt><trkpt lat="39.947225" lon="8.4038"><ele>5.6</ele><time>2026-05-02T08:10:48.36Z</time></trkpt><trkpt lat="39.9473217" lon="8.403795"><ele>6.0</ele><time>2026-05-02T08:10:49.36Z</time></trkpt><trkpt lat="39.94742" lon="8.4038133"><ele>6.4</ele><time>2026-05-02T08:10:50.36Z</time></trkpt><trkpt lat="39.94751" lon="8.4038317"><ele>6.8</ele><time>2026-05-02T08:10:51.36Z</time></trkpt><trkpt lat="39.9475983" lon="8.4038417"><ele>7.200000000000001</ele><time>2026-05-02T08:10:52.36Z</time></trkpt><trkpt lat="39.947685" lon="8.4038317"><ele>7.6000000000000005</ele><time>2026-05-02T08:10:53.36Z</time></trkpt><trkpt lat="39.9477733" lon="8.4038"><ele>8.0</ele><time>2026-05-02T08:10:54.36Z</time></trkpt><trkpt lat="39.9478683" lon="8.4037617"><ele>8.0</ele><time>2026-05-02T08:10:55.36Z</time></trkpt><trkpt lat="39.9479717" lon="8.4037233"><ele>8.0</ele><time>2026-05-02T08:10:56.36Z</time></trkpt><trkpt lat="39.9480733" lon="8.4036767"><ele>8.0</ele><time>2026-05-02T08:10:57.36Z</time></trkpt><trkpt lat="39.948175" lon="8.4036133"><ele>8.0</ele><time>2026-05-02T08:10:58.36Z</time></trkpt><trkpt lat="39.9482683" lon="8.40354"><ele>8.0</ele><time>2026-05-02T08:10:59.36Z</time></trkpt><trkpt lat="39.948345" lon="8.4034817"><ele>8.166666666666666</ele><time>2026-05-02T08:11:00.36Z</time></trkpt><trkpt lat="39.948415" lon="8.4034083"><ele>8.333333333333332</ele><time>2026-05-02T08:11:01.36Z</time></trkpt><trkpt lat="39.9484833" lon="8.4033267"><ele>8.5</ele><time>2026-05-02T08:11:02.36Z</time></trkpt><trkpt lat="39.9485483" lon="8.4032617"><ele>8.666666666666666</ele><time>2026-05-02T08:11:03.36Z</time></trkpt><trkpt lat="39.9486133" lon="8.4032083"><ele>8.833333333333334</ele><time>2026-05-02T08:11:04.36Z</time></trkpt><trkpt lat="39.9487133" lon="8.40317"><ele>9.0</ele><time>2026-05-02T08:11:06.36Z</time></trkpt><trkpt lat="39.94882" lon="8.4031883"><ele>9.0</ele><time>2026-05-02T08:11:08.36Z</time></trkpt><trkpt lat="39.94893" lon="8.40311"><ele>9.0</ele><time>2026-05-02T08:11:10.36Z</time></trkpt><trkpt lat="39.94898" lon="8.4030367"><ele>9.0</ele><time>2026-05-02T08:11:11.36Z</time></trkpt><trkpt lat="39.9490233" lon="8.402955"><ele>9.0</ele><time>2026-05-02T08:11:12.36Z</time></trkpt><trkpt lat="39.9490667" lon="8.4028783"><ele>9.0</ele><time>2026-05-02T08:11:13.36Z</time></trkpt><trkpt lat="39.9491133" lon="8.4028133"><ele>9.0</ele><time>2026-05-02T08:11:14.36Z</time></trkpt><trkpt lat="39.9491667" lon="8.4027433"><ele>8.166666666666666</ele><time>2026-05-02T08:11:15.36Z</time></trkpt><trkpt lat="39.9492283" lon="8.4026683"><ele>7.333333333333333</ele><time>2026-05-02T08:11:16.36Z</time></trkpt><trkpt lat="39.9492967" lon="8.4025817"><ele>6.5</ele><time>2026-05-02T08:11:17.36Z</time></trkpt><trkpt lat="39.949365" lon="8.4025"><ele>5.666666666666666</ele><time>2026-05-02T08:11:18.36Z</time></trkpt><trkpt lat="39.9494283" lon="8.402415"><ele>4.833333333333333</ele><time>2026-05-02T08:11:19.36Z</time></trkpt><trkpt lat="39.9494933" lon="8.4023567"><ele>4.0</ele><time>2026-05-02T08:11:20.36Z</time></trkpt><trkpt lat="39.9495567" lon="8.4023133"><ele>3.9999999999999996</ele><time>2026-05-02T08:11:21.36Z</time></trkpt><trkpt lat="39.9496267" lon="8.4022917"><ele>4.0</ele><time>2026-05-02T08:11:22.36Z</time></trkpt><trkpt lat="39.949705" lon="8.402285"><ele>4.0</ele><time>2026-05-02T08:11:23.36Z</time></trkpt><trkpt lat="39.9497817" lon="8.4022967"><ele>4.0</ele><time>2026-05-02T08:11:24.36Z</time></trkpt><trkpt lat="39.9498567" lon="8.40233"><ele>3.9999999999999996</ele><time>2026-05-02T08:11:25.36Z</time></trkpt><trkpt lat="39.9499317" lon="8.4023717"><ele>4.0</ele><time>2026-05-02T08:11:26.36Z</time></trkpt><trkpt lat="39.95" lon="8.4024317"><ele>3.833333333333333</ele><time>2026-05-02T08:11:27.36Z</time></trkpt><trkpt lat="39.9500633" lon="8.4025033"><ele>3.6666666666666665</ele><time>2026-05-02T08:11:28.36Z</time></trkpt><trkpt lat="39.9501233" lon="8.40259"><ele>3.5</ele><time>2026-05-02T08:11:29.36Z</time></trkpt><trkpt lat="39.9501833" lon="8.40268"><ele>3.333333333333333</ele><time>2026-05-02T08:11:30.36Z</time></trkpt><trkpt lat="39.9502183" lon="8.4027567"><ele>3.1666666666666665</ele><time>2026-05-02T08:11:31.36Z</time></trkpt><trkpt lat="39.95024" lon="8.4028417"><ele>3.0</ele><time>2026-05-02T08:11:32.36Z</time></trkpt><trkpt lat="39.95024" lon="8.4029433"><ele>3.4</ele><time>2026-05-02T08:11:33.36Z</time></trkpt><trkpt lat="39.950215" lon="8.40306"><ele>3.8</ele><time>2026-05-02T08:11:34.36Z</time></trkpt><trkpt lat="39.9501883" lon="8.4032"><ele>4.2</ele><time>2026-05-02T08:11:35.36Z</time></trkpt><trkpt lat="39.9501733" lon="8.403335"><ele>4.6</ele><time>2026-05-02T08:11:36.36Z</time></trkpt><trkpt lat="39.9501817" lon="8.40347"><ele>5.0</ele><time>2026-05-02T08:11:37.36Z</time></trkpt><trkpt lat="39.9502083" lon="8.403595"><ele>5.0</ele><time>2026-05-02T08:11:38.36Z</time></trkpt><trkpt lat="39.9502367" lon="8.403685"><ele>5.0</ele><time>2026-05-02T08:11:39.36Z</time></trkpt><trkpt lat="39.9503033" lon="8.4037783"><ele>5.0</ele><time>2026-05-02T08:11:41.36Z</time></trkpt><trkpt lat="39.9504317" lon="8.4037783"><ele>5.0</ele><time>2026-05-02T08:11:43.36Z</time></trkpt><trkpt lat="39.950505" lon="8.403735"><ele>5.0</ele><time>2026-05-02T08:11:44.36Z</time></trkpt><trkpt lat="39.950585" lon="8.4036733"><ele>5.0</ele><time>2026-05-02T08:11:45.36Z</time></trkpt><trkpt lat="39.950675" lon="8.40362"><ele>5.0</ele><time>2026-05-02T08:11:46.36Z</time></trkpt><trkpt lat="39.95079" lon="8.403575"><ele>5.0</ele><time>2026-05-02T08:11:47.36Z</time></trkpt><trkpt lat="39.950905" lon="8.4035467"><ele>5.0</ele><time>2026-05-02T08:11:48.36Z</time></trkpt><trkpt lat="39.9510217" lon="8.4035283"><ele>5.0</ele><time>2026-05-02T08:11:49.36Z</time></trkpt><trkpt lat="39.9511367" lon="8.403515"><ele>5.0</ele><time>2026-05-02T08:11:50.36Z</time></trkpt><trkpt lat="39.9512567" lon="8.40349"><ele>5.0</ele><time>2026-05-02T08:11:51.36Z</time></trkpt><trkpt lat="39.9513767" lon="8.4034767"><ele>5.0</ele><time>2026-05-02T08:11:52.36Z</time></trkpt><trkpt lat="39.9514883" lon="8.40346"><ele>5.0</ele><time>2026-05-02T08:11:53.36Z</time></trkpt><trkpt lat="39.9515933" lon="8.4034383"><ele>5.0</ele><time>2026-05-02T08:11:54.36Z</time></trkpt><trkpt lat="39.9517017" lon="8.4034283"><ele>5.0</ele><time>2026-05-02T08:11:55.36Z</time></trkpt><trkpt lat="39.951805" lon="8.4034167"><ele>5.0</ele><time>2026-05-02T08:11:56.36Z</time></trkpt><trkpt lat="39.9519183" lon="8.4034167"><ele>5.0</ele><time>2026-05-02T08:11:57.36Z</time></trkpt><trkpt lat="39.9520267" lon="8.40342"><ele>5.0</ele><time>2026-05-02T08:11:58.36Z</time></trkpt><trkpt lat="39.9521367" lon="8.4034233"><ele>5.0</ele><time>2026-05-02T08:11:59.36Z</time></trkpt><trkpt lat="39.952235" lon="8.40343"><ele>5.0</ele><time>2026-05-02T08:12:00.36Z</time></trkpt><trkpt lat="39.9523217" lon="8.4034333"><ele>5.0</ele><time>2026-05-02T08:12:01.36Z</time></trkpt><trkpt lat="39.9523983" lon="8.4034433"><ele>5.0</ele><time>2026-05-02T08:12:02.36Z</time></trkpt><trkpt lat="39.9524783" lon="8.4034483"><ele>5.4</ele><time>2026-05-02T08:12:03.36Z</time></trkpt><trkpt lat="39.95257" lon="8.4034567"><ele>5.8</ele><time>2026-05-02T08:12:04.36Z</time></trkpt><trkpt lat="39.95266" lon="8.4034483"><ele>6.199999999999999</ele><time>2026-05-02T08:12:05.36Z</time></trkpt><trkpt lat="39.952755" lon="8.4034483"><ele>6.6</ele><time>2026-05-02T08:12:06.36Z</time></trkpt><trkpt lat="39.952845" lon="8.4034733"><ele>7.0</ele><time>2026-05-02T08:12:07.36Z</time></trkpt><trkpt lat="39.95293" lon="8.403495"><ele>7.000000000000001</ele><time>2026-05-02T08:12:08.36Z</time></trkpt><trkpt lat="39.9530133" lon="8.40351"><ele>7.0</ele><time>2026-05-02T08:12:09.36Z</time></trkpt><trkpt lat="39.9531" lon="8.403505"><ele>7.0</ele><time>2026-05-02T08:12:10.36Z</time></trkpt><trkpt lat="39.9531767" lon="8.4035017"><ele>7.0</ele><time>2026-05-02T08:12:11.36Z</time></trkpt><trkpt lat="39.9532433" lon="8.403505"><ele>7.000000000000001</ele><time>2026-05-02T08:12:12.36Z</time></trkpt><trkpt lat="39.9533117" lon="8.4035267"><ele>7.0</ele><time>2026-05-02T08:12:14.36Z</time></trkpt><trkpt lat="39.9533683" lon="8.4036183"><ele>7.000000000000001</ele><time>2026-05-02T08:12:18.36Z</time></trkpt><trkpt lat="39.953415" lon="8.403705"><ele>7.0</ele><time>2026-05-02T08:12:20.36Z</time></trkpt><trkpt lat="39.9535033" lon="8.4037683"><ele>7.0</ele><time>2026-05-02T08:12:22.36Z</time></trkpt><trkpt lat="39.9535667" lon="8.4037967"><ele>7.0</ele><time>2026-05-02T08:12:23.36Z</time></trkpt><trkpt lat="39.95364" lon="8.4038367"><ele>7.000000000000001</ele><time>2026-05-02T08:12:24.36Z</time></trkpt><trkpt lat="39.9537133" lon="8.403885"><ele>7.0</ele><time>2026-05-02T08:12:25.36Z</time></trkpt><trkpt lat="39.9537933" lon="8.4039583"><ele>7.5</ele><time>2026-05-02T08:12:26.36Z</time></trkpt><trkpt lat="39.95389" lon="8.404035"><ele>8.0</ele><time>2026-05-02T08:12:27.36Z</time></trkpt><trkpt lat="39.95399" lon="8.4041283"><ele>8.5</ele><time>2026-05-02T08:12:28.36Z</time></trkpt><trkpt lat="39.9540933" lon="8.4042233"><ele>9.0</ele><time>2026-05-02T08:12:29.36Z</time></trkpt><trkpt lat="39.9541917" lon="8.4043267"><ele>9.25</ele><time>2026-05-02T08:12:30.36Z</time></trkpt><trkpt lat="39.95429" lon="8.40442"><ele>9.5</ele><time>2026-05-02T08:12:31.36Z</time></trkpt><trkpt lat="39.9543883" lon="8.4045233"><ele>9.75</ele><time>2026-05-02T08:12:32.36Z</time></trkpt><trkpt lat="39.95448" lon="8.40461"><ele>10.0</ele><time>2026-05-02T08:12:33.36Z</time></trkpt><trkpt lat="39.9545717" lon="8.40469"><ele>10.25</ele><time>2026-05-02T08:12:34.36Z</time></trkpt><trkpt lat="39.954665" lon="8.404765"><ele>10.5</ele><time>2026-05-02T08:12:35.36Z</time></trkpt><trkpt lat="39.954755" lon="8.40485"><ele>10.75</ele><time>2026-05-02T08:12:36.36Z</time></trkpt><trkpt lat="39.9548567" lon="8.4049483"><ele>11.0</ele><time>2026-05-02T08:12:37.36Z</time></trkpt><trkpt lat="39.9549583" lon="8.4050367"><ele>11.75</ele><time>2026-05-02T08:12:38.36Z</time></trkpt><trkpt lat="39.955055" lon="8.405125"><ele>12.5</ele><time>2026-05-02T08:12:39.36Z</time></trkpt><trkpt lat="39.9551667" lon="8.4052083"><ele>13.25</ele><time>2026-05-02T08:12:40.36Z</time></trkpt><trkpt lat="39.95529" lon="8.40531"><ele>14.0</ele><time>2026-05-02T08:12:41.36Z</time></trkpt><trkpt lat="39.9554067" lon="8.4054"><ele>14.0</ele><time>2026-05-02T08:12:42.36Z</time></trkpt><trkpt lat="39.9555167" lon="8.4054783"><ele>13.999999999999998</ele><time>2026-05-02T08:12:43.36Z</time></trkpt><trkpt lat="39.9556183" lon="8.40554"><ele>13.999999999999998</ele><time>2026-05-02T08:12:44.36Z</time></trkpt><trkpt lat="39.9557083" lon="8.40559"><ele>14.0</ele><time>2026-05-02T08:12:45.36Z</time></trkpt><trkpt lat="39.95581" lon="8.4056167"><ele>14.0</ele><time>2026-05-02T08:12:46.36Z</time></trkpt><trkpt lat="39.95592" lon="8.4056367"><ele>13.25</ele><time>2026-05-02T08:12:47.36Z</time></trkpt><trkpt lat="39.956035" lon="8.4056433"><ele>12.5</ele><time>2026-05-02T08:12:48.36Z</time></trkpt><trkpt lat="39.9561567" lon="8.40565"><ele>11.75</ele><time>2026-05-02T08:12:49.36Z</time></trkpt><trkpt lat="39.95628" lon="8.4056467"><ele>11.0</ele><time>2026-05-02T08:12:50.36Z</time></trkpt><trkpt lat="39.9564133" lon="8.4056367"><ele>11.0</ele><time>2026-05-02T08:12:51.36Z</time></trkpt><trkpt lat="39.9565417" lon="8.405625"><ele>11.0</ele><time>2026-05-02T08:12:52.36Z</time></trkpt><trkpt lat="39.9566617" lon="8.4056133"><ele>11.0</ele><time>2026-05-02T08:12:53.36Z</time></trkpt><trkpt lat="39.9567667" lon="8.4056"><ele>11.0</ele><time>2026-05-02T08:12:54.36Z</time></trkpt><trkpt lat="39.9568717" lon="8.4055967"><ele>11.0</ele><time>2026-05-02T08:12:55.36Z</time></trkpt><trkpt lat="39.9569717" lon="8.4055933"><ele>11.0</ele><time>2026-05-02T08:12:56.36Z</time></trkpt><trkpt lat="39.957065" lon="8.4055983"><ele>11.0</ele><time>2026-05-02T08:12:57.36Z</time></trkpt><trkpt lat="39.9571333" lon="8.4055933"><ele>11.0</ele><time>2026-05-02T08:12:58.36Z</time></trkpt><trkpt lat="39.9571967" lon="8.4055933"><ele>11.0</ele><time>2026-05-02T08:12:59.36Z</time></trkpt><trkpt lat="39.9572933" lon="8.4056083"><ele>11.0</ele><time>2026-05-02T08:13:01.36Z</time></trkpt><trkpt lat="39.9574317" lon="8.4056267"><ele>11.0</ele><time>2026-05-02T08:13:03.36Z</time></trkpt><trkpt lat="39.9575233" lon="8.4056567"><ele>11.0</ele><time>2026-05-02T08:13:04.36Z</time></trkpt><trkpt lat="39.9576383" lon="8.4056933"><ele>11.0</ele><time>2026-05-02T08:13:05.36Z</time></trkpt><trkpt lat="39.9577583" lon="8.4057517"><ele>11.0</ele><time>2026-05-02T08:13:06.36Z</time></trkpt><trkpt lat="39.9578783" lon="8.4058033"><ele>11.200000000000001</ele><time>2026-05-02T08:13:07.36Z</time></trkpt><trkpt lat="39.957995" lon="8.405845"><ele>11.4</ele><time>2026-05-02T08:13:08.36Z</time></trkpt><trkpt lat="39.9580883" lon="8.4058617"><ele>11.6</ele><time>2026-05-02T08:13:09.36Z</time></trkpt><trkpt lat="39.9581667" lon="8.4058783"><ele>11.8</ele><time>2026-05-02T08:13:10.36Z</time></trkpt><trkpt lat="39.9582417" lon="8.4059133"><ele>12.0</ele><time>2026-05-02T08:13:12.36Z</time></trkpt><trkpt lat="39.95817" lon="8.4060483"><ele>12.0</ele><time>2026-05-02T08:13:15.36Z</time></trkpt><trkpt lat="39.958105" lon="8.4061567"><ele>12.0</ele><time>2026-05-02T08:13:16.36Z</time></trkpt><trkpt lat="39.9580317" lon="8.4062883"><ele>12.0</ele><time>2026-05-02T08:13:17.36Z</time></trkpt><trkpt lat="39.9579667" lon="8.4064367"><ele>12.0</ele><time>2026-05-02T08:13:18.36Z</time></trkpt><trkpt lat="39.9579133" lon="8.4065867"><ele>12.399999999999999</ele><time>2026-05-02T08:13:19.36Z</time></trkpt><trkpt lat="39.957855" lon="8.4067383"><ele>12.799999999999999</ele><time>2026-05-02T08:13:20.36Z</time></trkpt><trkpt lat="39.9578133" lon="8.4068617"><ele>13.2</ele><time>2026-05-02T08:13:21.36Z</time></trkpt><trkpt lat="39.95779" lon="8.4069917"><ele>13.6</ele><time>2026-05-02T08:13:22.36Z</time></trkpt><trkpt lat="39.9577817" lon="8.4071367"><ele>14.0</ele><time>2026-05-02T08:13:23.36Z</time></trkpt><trkpt lat="39.9577767" lon="8.4072883"><ele>14.0</ele><time>2026-05-02T08:13:24.36Z</time></trkpt><trkpt lat="39.9577917" lon="8.40743"><ele>14.0</ele><time>2026-05-02T08:13:25.36Z</time></trkpt><trkpt lat="39.9578267" lon="8.4075583"><ele>14.0</ele><time>2026-05-02T08:13:26.36Z</time></trkpt><trkpt lat="39.9578767" lon="8.4076833"><ele>14.0</ele><time>2026-05-02T08:13:27.36Z</time></trkpt><trkpt lat="39.95794" lon="8.4078367"><ele>14.0</ele><time>2026-05-02T08:13:28.36Z</time></trkpt><trkpt lat="39.9580233" lon="8.40798"><ele>14.0</ele><time>2026-05-02T08:13:29.36Z</time></trkpt><trkpt lat="39.9581217" lon="8.4081167"><ele>14.0</ele><time>2026-05-02T08:13:30.36Z</time></trkpt><trkpt lat="39.9582283" lon="8.40825"><ele>14.0</ele><time>2026-05-02T08:13:31.36Z</time></trkpt><trkpt lat="39.95834" lon="8.4083817"><ele>14.0</ele><time>2026-05-02T08:13:32.36Z</time></trkpt><trkpt lat="39.9584617" lon="8.4085017"><ele>14.0</ele><time>2026-05-02T08:13:33.36Z</time></trkpt><trkpt lat="39.95858" lon="8.4086133"><ele>14.0</ele><time>2026-05-02T08:13:34.36Z</time></trkpt><trkpt lat="39.9587" lon="8.4087317"><ele>14.0</ele><time>2026-05-02T08:13:35.36Z</time></trkpt><trkpt lat="39.9588217" lon="8.40882"><ele>14.5</ele><time>2026-05-02T08:13:36.36Z</time></trkpt><trkpt lat="39.9589433" lon="8.4089183"><ele>15.0</ele><time>2026-05-02T08:13:37.36Z</time></trkpt><trkpt lat="39.959065" lon="8.4090117"><ele>15.5</ele><time>2026-05-02T08:13:38.36Z</time></trkpt><trkpt lat="39.9591817" lon="8.4091133"><ele>16.0</ele><time>2026-05-02T08:13:39.36Z</time></trkpt><trkpt lat="39.959295" lon="8.4092117"><ele>16.0</ele><time>2026-05-02T08:13:40.36Z</time></trkpt><trkpt lat="39.9594133" lon="8.40931"><ele>16.0</ele><time>2026-05-02T08:13:41.36Z</time></trkpt><trkpt lat="39.9595233" lon="8.4094117"><ele>16.0</ele><time>2026-05-02T08:13:42.36Z</time></trkpt><trkpt lat="39.95963" lon="8.4095117"><ele>16.0</ele><time>2026-05-02T08:13:43.36Z</time></trkpt><trkpt lat="39.95972" lon="8.4096017"><ele>16.8</ele><time>2026-05-02T08:13:44.36Z</time></trkpt><trkpt lat="39.9597933" lon="8.4096933"><ele>17.6</ele><time>2026-05-02T08:13:45.36Z</time></trkpt><trkpt lat="39.9598367" lon="8.4097983"><ele>18.4</ele><time>2026-05-02T08:13:46.36Z</time></trkpt><trkpt lat="39.9598517" lon="8.4099133"><ele>19.2</ele><time>2026-05-02T08:13:47.36Z</time></trkpt><trkpt lat="39.9598367" lon="8.41003"><ele>20.0</ele><time>2026-05-02T08:13:48.36Z</time></trkpt><trkpt lat="39.9597833" lon="8.41017"><ele>20.0</ele><time>2026-05-02T08:13:49.36Z</time></trkpt><trkpt lat="39.95972" lon="8.4103067"><ele>20.0</ele><time>2026-05-02T08:13:50.36Z</time></trkpt><trkpt lat="39.959665" lon="8.4104583"><ele>20.0</ele><time>2026-05-02T08:13:51.36Z</time></trkpt><trkpt lat="39.9596217" lon="8.41062"><ele>20.0</ele><time>2026-05-02T08:13:52.36Z</time></trkpt><trkpt lat="39.9596" lon="8.410775"><ele>20.5</ele><time>2026-05-02T08:13:53.36Z</time></trkpt><trkpt lat="39.9595883" lon="8.4108917"><ele>21.0</ele><time>2026-05-02T08:13:54.36Z</time></trkpt><trkpt lat="39.959595" lon="8.4109967"><ele>21.5</ele><time>2026-05-02T08:13:55.36Z</time></trkpt><trkpt lat="39.9596467" lon="8.4110617"><ele>22.0</ele><time>2026-05-02T08:13:56.36Z</time></trkpt><trkpt lat="39.9597233" lon="8.4110917"><ele>22.5</ele><time>2026-05-02T08:13:57.36Z</time></trkpt><trkpt lat="39.959825" lon="8.4110983"><ele>23.0</ele><time>2026-05-02T08:13:58.36Z</time></trkpt><trkpt lat="39.9599633" lon="8.4110983"><ele>23.25</ele><time>2026-05-02T08:13:59.36Z</time></trkpt><trkpt lat="39.9601067" lon="8.4110917"><ele>23.5</ele><time>2026-05-02T08:14:00.36Z</time></trkpt><trkpt lat="39.9602483" lon="8.4110867"><ele>23.75</ele><time>2026-05-02T08:14:01.36Z</time></trkpt><trkpt lat="39.9603667" lon="8.41106"><ele>24.0</ele><time>2026-05-02T08:14:02.36Z</time></trkpt><trkpt lat="39.9604967" lon="8.4110217"><ele>24.0</ele><time>2026-05-02T08:14:03.36Z</time></trkpt><trkpt lat="39.9606133" lon="8.410975"><ele>24.0</ele><time>2026-05-02T08:14:04.36Z</time></trkpt><trkpt lat="39.9607233" lon="8.4109217"><ele>24.0</ele><time>2026-05-02T08:14:05.36Z</time></trkpt><trkpt lat="39.9608383" lon="8.4108567"><ele>24.0</ele><time>2026-05-02T08:14:06.36Z</time></trkpt><trkpt lat="39.9609533" lon="8.4108"><ele>24.0</ele><time>2026-05-02T08:14:07.36Z</time></trkpt><trkpt lat="39.9610617" lon="8.4107367"><ele>24.0</ele><time>2026-05-02T08:14:08.36Z</time></trkpt><trkpt lat="39.9611683" lon="8.41067"><ele>24.0</ele><time>2026-05-02T08:14:09.36Z</time></trkpt><trkpt lat="39.9612767" lon="8.4106033"><ele>24.0</ele><time>2026-05-02T08:14:10.36Z</time></trkpt><trkpt lat="39.9613867" lon="8.4105417"><ele>23.75</ele><time>2026-05-02T08:14:11.36Z</time></trkpt><trkpt lat="39.9615033" lon="8.4104833"><ele>23.5</ele><time>2026-05-02T08:14:12.36Z</time></trkpt><trkpt lat="39.96162" lon="8.4104167"><ele>23.25</ele><time>2026-05-02T08:14:13.36Z</time></trkpt><trkpt lat="39.96174" lon="8.4103517"><ele>23.0</ele><time>2026-05-02T08:14:14.36Z</time></trkpt><trkpt lat="39.961855" lon="8.4103117"><ele>22.799999999999997</ele><time>2026-05-02T08:14:15.36Z</time></trkpt><trkpt lat="39.9619517" lon="8.410275"><ele>22.6</ele><time>2026-05-02T08:14:16.36Z</time></trkpt><trkpt lat="39.9620417" lon="8.4102217"><ele>22.4</ele><time>2026-05-02T08:14:17.36Z</time></trkpt><trkpt lat="39.9621167" lon="8.4101467"><ele>22.200000000000003</ele><time>2026-05-02T08:14:18.36Z</time></trkpt><trkpt lat="39.96218" lon="8.4100533"><ele>22.0</ele><time>2026-05-02T08:14:19.36Z</time></trkpt><trkpt lat="39.9622383" lon="8.4099333"><ele>22.0</ele><time>2026-05-02T08:14:20.36Z</time></trkpt><trkpt lat="39.96229" lon="8.4098133"><ele>22.0</ele><time>2026-05-02T08:14:21.36Z</time></trkpt><trkpt lat="39.9623633" lon="8.4097117"><ele>22.0</ele><time>2026-05-02T08:14:22.36Z</time></trkpt><trkpt lat="39.96245" lon="8.4096067"><ele>22.0</ele><time>2026-05-02T08:14:23.36Z</time></trkpt><trkpt lat="39.962555" lon="8.4095317"><ele>21.75</ele><time>2026-05-02T08:14:24.36Z</time></trkpt><trkpt lat="39.96266" lon="8.4094517"><ele>21.5</ele><time>2026-05-02T08:14:25.36Z</time></trkpt><trkpt lat="39.9627867" lon="8.4093617"><ele>21.25</ele><time>2026-05-02T08:14:26.36Z</time></trkpt><trkpt lat="39.96292" lon="8.4092883"><ele>21.0</ele><time>2026-05-02T08:14:27.36Z</time></trkpt><trkpt lat="39.9630733" lon="8.4092133"><ele>21.0</ele><time>2026-05-02T08:14:28.36Z</time></trkpt><trkpt lat="39.96321" lon="8.4091433"><ele>21.0</ele><time>2026-05-02T08:14:29.36Z</time></trkpt><trkpt lat="39.963335" lon="8.40908"><ele>21.0</ele><time>2026-05-02T08:14:30.36Z</time></trkpt><trkpt lat="39.9634533" lon="8.4090033"><ele>21.0</ele><time>2026-05-02T08:14:31.36Z</time></trkpt><trkpt lat="39.9635667" lon="8.408915"><ele>21.25</ele><time>2026-05-02T08:14:32.36Z</time></trkpt><trkpt lat="39.9636817" lon="8.4088167"><ele>21.5</ele><time>2026-05-02T08:14:33.36Z</time></trkpt><trkpt lat="39.96379" lon="8.4087033"><ele>21.75</ele><time>2026-05-02T08:14:34.36Z</time></trkpt><trkpt lat="39.9638933" lon="8.4085783"><ele>22.0</ele><time>2026-05-02T08:14:35.36Z</time></trkpt><trkpt lat="39.9639983" lon="8.4084417"><ele>22.0</ele><time>2026-05-02T08:14:36.36Z</time></trkpt><trkpt lat="39.9641133" lon="8.40831"><ele>22.0</ele><time>2026-05-02T08:14:37.36Z</time></trkpt><trkpt lat="39.9642183" lon="8.408165"><ele>22.0</ele><time>2026-05-02T08:14:38.36Z</time></trkpt><trkpt lat="39.9643267" lon="8.4080167"><ele>21.0</ele><time>2026-05-02T08:14:39.36Z</time></trkpt><trkpt lat="39.9644283" lon="8.4078633"><ele>20.0</ele><time>2026-05-02T08:14:40.36Z</time></trkpt><trkpt lat="39.9645317" lon="8.4077233"><ele>19.0</ele><time>2026-05-02T08:14:41.36Z</time></trkpt><trkpt lat="39.9646333" lon="8.4075767"><ele>19.0</ele><time>2026-05-02T08:14:42.36Z</time></trkpt><trkpt lat="39.964735" lon="8.4074367"><ele>19.0</ele><time>2026-05-02T08:14:43.36Z</time></trkpt><trkpt lat="39.9648317" lon="8.407285"><ele>19.0</ele><time>2026-05-02T08:14:44.36Z</time></trkpt><trkpt lat="39.96492" lon="8.407145"><ele>19.0</ele><time>2026-05-02T08:14:45.36Z</time></trkpt><trkpt lat="39.9650033" lon="8.4069967"><ele>18.75</ele><time>2026-05-02T08:14:46.36Z</time></trkpt><trkpt lat="39.965095" lon="8.4068667"><ele>18.5</ele><time>2026-05-02T08:14:47.36Z</time></trkpt><trkpt lat="39.9651917" lon="8.4067283"><ele>18.25</ele><time>2026-05-02T08:14:48.36Z</time></trkpt><trkpt lat="39.9652867" lon="8.406595"><ele>18.0</ele><time>2026-05-02T08:14:49.36Z</time></trkpt><trkpt lat="39.9653883" lon="8.4064733"><ele>18.0</ele><time>2026-05-02T08:14:50.36Z</time></trkpt><trkpt lat="39.965495" lon="8.4063567"><ele>18.0</ele><time>2026-05-02T08:14:51.36Z</time></trkpt><trkpt lat="39.9656133" lon="8.40624"><ele>18.0</ele><time>2026-05-02T08:14:52.36Z</time></trkpt><trkpt lat="39.9657283" lon="8.4061167"><ele>18.0</ele><time>2026-05-02T08:14:53.36Z</time></trkpt><trkpt lat="39.9658433" lon="8.4060067"><ele>17.5</ele><time>2026-05-02T08:14:54.36Z</time></trkpt><trkpt lat="39.965955" lon="8.40589"><ele>17.0</ele><time>2026-05-02T08:14:55.36Z</time></trkpt><trkpt lat="39.9660517" lon="8.4057767"><ele>16.5</ele><time>2026-05-02T08:14:56.36Z</time></trkpt><trkpt lat="39.9661483" lon="8.40564"><ele>16.0</ele><time>2026-05-02T08:14:57.36Z</time></trkpt><trkpt lat="39.9662517" lon="8.405515"><ele>15.75</ele><time>2026-05-02T08:14:58.36Z</time></trkpt><trkpt lat="39.9663567" lon="8.4053933"><ele>15.5</ele><time>2026-05-02T08:14:59.36Z</time></trkpt><trkpt lat="39.966465" lon="8.4052717"><ele>15.25</ele><time>2026-05-02T08:15:00.36Z</time></trkpt><trkpt lat="39.9665867" lon="8.40515"><ele>15.0</ele><time>2026-05-02T08:15:01.36Z</time></trkpt><trkpt lat="39.9667017" lon="8.4050433"><ele>15.0</ele><time>2026-05-02T08:15:02.36Z</time></trkpt><trkpt lat="39.966815" lon="8.4049567"><ele>15.0</ele><time>2026-05-02T08:15:03.36Z</time></trkpt><trkpt lat="39.966915" lon="8.404885"><ele>15.0</ele><time>2026-05-02T08:15:04.36Z</time></trkpt><trkpt lat="39.9670167" lon="8.4047933"><ele>15.0</ele><time>2026-05-02T08:15:05.36Z</time></trkpt><trkpt lat="39.9671217" lon="8.4047"><ele>14.5</ele><time>2026-05-02T08:15:06.36Z</time></trkpt><trkpt lat="39.9672317" lon="8.4046033"><ele>14.0</ele><time>2026-05-02T08:15:07.36Z</time></trkpt><trkpt lat="39.967325" lon="8.404505"><ele>13.5</ele><time>2026-05-02T08:15:08.36Z</time></trkpt><trkpt lat="39.9674283" lon="8.4044117"><ele>13.0</ele><time>2026-05-02T08:15:09.36Z</time></trkpt><trkpt lat="39.967535" lon="8.4043233"><ele>13.0</ele><time>2026-05-02T08:15:10.36Z</time></trkpt><trkpt lat="39.96765" lon="8.4042483"><ele>13.0</ele><time>2026-05-02T08:15:11.36Z</time></trkpt><trkpt lat="39.9677717" lon="8.40418"><ele>13.0</ele><time>2026-05-02T08:15:12.36Z</time></trkpt><trkpt lat="39.9679017" lon="8.4041133"><ele>13.0</ele><time>2026-05-02T08:15:13.36Z</time></trkpt><trkpt lat="39.9680233" lon="8.404045"><ele>13.0</ele><time>2026-05-02T08:15:14.36Z</time></trkpt><trkpt lat="39.9681517" lon="8.4039883"><ele>13.0</ele><time>2026-05-02T08:15:15.36Z</time></trkpt><trkpt lat="39.9682917" lon="8.403945"><ele>13.0</ele><time>2026-05-02T08:15:16.36Z</time></trkpt><trkpt lat="39.9684283" lon="8.40391"><ele>13.0</ele><time>2026-05-02T08:15:17.36Z</time></trkpt><trkpt lat="39.9685767" lon="8.4038883"><ele>13.0</ele><time>2026-05-02T08:15:18.36Z</time></trkpt><trkpt lat="39.9687417" lon="8.40386"><ele>13.0</ele><time>2026-05-02T08:15:19.36Z</time></trkpt><trkpt lat="39.968925" lon="8.40384"><ele>13.0</ele><time>2026-05-02T08:15:20.36Z</time></trkpt><trkpt lat="39.9691117" lon="8.4038083"><ele>13.0</ele><time>2026-05-02T08:15:21.36Z</time></trkpt><trkpt lat="39.969285" lon="8.403785"><ele>13.0</ele><time>2026-05-02T08:15:22.36Z</time></trkpt><trkpt lat="39.9694567" lon="8.4037467"><ele>13.0</ele><time>2026-05-02T08:15:23.36Z</time></trkpt><trkpt lat="39.9696133" lon="8.403715"><ele>13.0</ele><time>2026-05-02T08:15:24.36Z</time></trkpt><trkpt lat="39.96977" lon="8.4036867"><ele>13.0</ele><time>2026-05-02T08:15:25.36Z</time></trkpt><trkpt lat="39.9699083" lon="8.40366"><ele>13.0</ele><time>2026-05-02T08:15:26.36Z</time></trkpt><trkpt lat="39.970035" lon="8.4036333"><ele>13.0</ele><time>2026-05-02T08:15:27.36Z</time></trkpt><trkpt lat="39.9701433" lon="8.403595"><ele>12.999999999999998</ele><time>2026-05-02T08:15:28.36Z</time></trkpt><trkpt lat="39.9702333" lon="8.4035483"><ele>13.0</ele><time>2026-05-02T08:15:29.36Z</time></trkpt><trkpt lat="39.9703033" lon="8.403505"><ele>13.0</ele><time>2026-05-02T08:15:30.36Z</time></trkpt><trkpt lat="39.970375" lon="8.4034617"><ele>13.0</ele><time>2026-05-02T08:15:32.36Z</time></trkpt><trkpt lat="39.9704683" lon="8.403545"><ele>12.999999999999998</ele><time>2026-05-02T08:15:40.36Z</time></trkpt><trkpt lat="39.9705083" lon="8.4036317"><ele>13.0</ele><time>2026-05-02T08:15:41.36Z</time></trkpt><trkpt lat="39.9705667" lon="8.40376"><ele>13.25</ele><time>2026-05-02T08:15:42.36Z</time></trkpt><trkpt lat="39.9706367" lon="8.4038983"><ele>13.5</ele><time>2026-05-02T08:15:43.36Z</time></trkpt><trkpt lat="39.970715" lon="8.4040417"><ele>13.75</ele><time>2026-05-02T08:15:44.36Z</time></trkpt><trkpt lat="39.970795" lon="8.4041917"><ele>14.0</ele><time>2026-05-02T08:15:45.36Z</time></trkpt><trkpt lat="39.97088" lon="8.4043517"><ele>14.333333333333334</ele><time>2026-05-02T08:15:46.36Z</time></trkpt><trkpt lat="39.970965" lon="8.4045233"><ele>14.666666666666668</ele><time>2026-05-02T08:15:47.36Z</time></trkpt><trkpt lat="39.9710583" lon="8.4046967"><ele>15.0</ele><time>2026-05-02T08:15:48.36Z</time></trkpt><trkpt lat="39.971155" lon="8.4048867"><ele>16.0</ele><time>2026-05-02T08:15:49.36Z</time></trkpt><trkpt lat="39.97126" lon="8.4050933"><ele>17.0</ele><time>2026-05-02T08:15:50.36Z</time></trkpt><trkpt lat="39.9713783" lon="8.4053233"><ele>18.0</ele><time>2026-05-02T08:15:51.36Z</time></trkpt><trkpt lat="39.9714933" lon="8.4055717"><ele>18.0</ele><time>2026-05-02T08:15:52.36Z</time></trkpt><trkpt lat="39.97161" lon="8.4058233"><ele>18.0</ele><time>2026-05-02T08:15:53.36Z</time></trkpt><trkpt lat="39.9717067" lon="8.4060733"><ele>18.0</ele><time>2026-05-02T08:15:54.36Z</time></trkpt><trkpt lat="39.9717967" lon="8.40633"><ele>18.333333333333332</ele><time>2026-05-02T08:15:55.36Z</time></trkpt><trkpt lat="39.971875" lon="8.4065933"><ele>18.666666666666664</ele><time>2026-05-02T08:15:56.36Z</time></trkpt><trkpt lat="39.9719617" lon="8.4068717"><ele>19.0</ele><time>2026-05-02T08:15:57.36Z</time></trkpt><trkpt lat="39.9720533" lon="8.4071467"><ele>19.0</ele><time>2026-05-02T08:15:58.36Z</time></trkpt><trkpt lat="39.9721267" lon="8.4074217"><ele>19.0</ele><time>2026-05-02T08:15:59.36Z</time></trkpt><trkpt lat="39.9722083" lon="8.407695"><ele>19.0</ele><time>2026-05-02T08:16:00.36Z</time></trkpt><trkpt lat="39.9722833" lon="8.4079417"><ele>19.333333333333332</ele><time>2026-05-02T08:16:01.36Z</time></trkpt><trkpt lat="39.9723517" lon="8.4081683"><ele>19.666666666666668</ele><time>2026-05-02T08:16:02.36Z</time></trkpt><trkpt lat="39.972415" lon="8.4083917"><ele>20.0</ele><time>2026-05-02T08:16:03.36Z</time></trkpt><trkpt lat="39.9724633" lon="8.4085967"><ele>20.0</ele><time>2026-05-02T08:16:04.36Z</time></trkpt><trkpt lat="39.9725133" lon="8.408785"><ele>20.0</ele><time>2026-05-02T08:16:05.36Z</time></trkpt><trkpt lat="39.9725683" lon="8.40896"><ele>20.0</ele><time>2026-05-02T08:16:06.36Z</time></trkpt><trkpt lat="39.9726133" lon="8.4091383"><ele>20.0</ele><time>2026-05-02T08:16:07.36Z</time></trkpt><trkpt lat="39.9726517" lon="8.4093167"><ele>20.333333333333336</ele><time>2026-05-02T08:16:08.36Z</time></trkpt><trkpt lat="39.972695" lon="8.40951"><ele>20.666666666666668</ele><time>2026-05-02T08:16:09.36Z</time></trkpt><trkpt lat="39.9727433" lon="8.4097217"><ele>21.0</ele><time>2026-05-02T08:16:10.36Z</time></trkpt><trkpt lat="39.9727983" lon="8.409955"><ele>21.0</ele><time>2026-05-02T08:16:11.36Z</time></trkpt><trkpt lat="39.9728483" lon="8.4101933"><ele>21.0</ele><time>2026-05-02T08:16:12.36Z</time></trkpt><trkpt lat="39.9728983" lon="8.4104217"><ele>21.0</ele><time>2026-05-02T08:16:13.36Z</time></trkpt><trkpt lat="39.972955" lon="8.4106567"><ele>20.333333333333332</ele><time>2026-05-02T08:16:14.36Z</time></trkpt><trkpt lat="39.9730117" lon="8.4108883"><ele>19.666666666666664</ele><time>2026-05-02T08:16:15.36Z</time></trkpt><trkpt lat="39.973065" lon="8.4111217"><ele>19.0</ele><time>2026-05-02T08:16:16.36Z</time></trkpt><trkpt lat="39.973105" lon="8.41133"><ele>18.666666666666664</ele><time>2026-05-02T08:16:17.36Z</time></trkpt><trkpt lat="39.97315" lon="8.411535"><ele>18.333333333333332</ele><time>2026-05-02T08:16:18.36Z</time></trkpt><trkpt lat="39.9731983" lon="8.4117317"><ele>18.0</ele><time>2026-05-02T08:16:19.361Z</time></trkpt><trkpt lat="39.97324" lon="8.41193"><ele>18.0</ele><time>2026-05-02T08:16:20.36Z</time></trkpt><trkpt lat="39.9732833" lon="8.4121317"><ele>18.0</ele><time>2026-05-02T08:16:21.36Z</time></trkpt><trkpt lat="39.9733217" lon="8.41232"><ele>18.0</ele><time>2026-05-02T08:16:22.36Z</time></trkpt><trkpt lat="39.97336" lon="8.4125"><ele>17.8</ele><time>2026-05-02T08:16:23.36Z</time></trkpt><trkpt lat="39.9734033" lon="8.412675"><ele>17.6</ele><time>2026-05-02T08:16:24.36Z</time></trkpt><trkpt lat="39.97343" lon="8.4128017"><ele>17.4</ele><time>2026-05-02T08:16:25.36Z</time></trkpt><trkpt lat="39.9734533" lon="8.4129283"><ele>17.2</ele><time>2026-05-02T08:16:26.36Z</time></trkpt><trkpt lat="39.9734733" lon="8.4130083"><ele>17.0</ele><time>2026-05-02T08:16:27.36Z</time></trkpt><trkpt lat="39.97352" lon="8.413115"><ele>17.0</ele><time>2026-05-02T08:16:29.36Z</time></trkpt><trkpt lat="39.973595" lon="8.4131283"><ele>17.0</ele><time>2026-05-02T08:16:31.36Z</time></trkpt><trkpt lat="39.97372" lon="8.4130417"><ele>17.0</ele><time>2026-05-02T08:16:33.36Z</time></trkpt><trkpt lat="39.9738033" lon="8.4129733"><ele>17.0</ele><time>2026-05-02T08:16:34.36Z</time></trkpt><trkpt lat="39.973915" lon="8.4129083"><ele>17.0</ele><time>2026-05-02T08:16:35.36Z</time></trkpt><trkpt lat="39.9740367" lon="8.412845"><ele>17.0</ele><time>2026-05-02T08:16:36.36Z</time></trkpt><trkpt lat="39.974175" lon="8.4127867"><ele>17.0</ele><time>2026-05-02T08:16:37.36Z</time></trkpt><trkpt lat="39.9743033" lon="8.4127217"><ele>17.0</ele><time>2026-05-02T08:16:38.36Z</time></trkpt><trkpt lat="39.9744383" lon="8.4126617"><ele>17.0</ele><time>2026-05-02T08:16:39.36Z</time></trkpt><trkpt lat="39.97457" lon="8.4125983"><ele>17.4</ele><time>2026-05-02T08:16:40.36Z</time></trkpt><trkpt lat="39.9746933" lon="8.412535"><ele>17.799999999999997</ele><time>2026-05-02T08:16:41.36Z</time></trkpt><trkpt lat="39.9748017" lon="8.4124867"><ele>18.2</ele><time>2026-05-02T08:16:42.36Z</time></trkpt><trkpt lat="39.974895" lon="8.41245"><ele>18.599999999999998</ele><time>2026-05-02T08:16:43.36Z</time></trkpt><trkpt lat="39.9749867" lon="8.4124317"><ele>19.0</ele><time>2026-05-02T08:16:44.36Z</time></trkpt><trkpt lat="39.97508" lon="8.4124333"><ele>19.0</ele><time>2026-05-02T08:16:45.36Z</time></trkpt><trkpt lat="39.9751833" lon="8.4124483"><ele>19.0</ele><time>2026-05-02T08:16:46.36Z</time></trkpt><trkpt lat="39.9753083" lon="8.4124583"><ele>19.0</ele><time>2026-05-02T08:16:47.36Z</time></trkpt><trkpt lat="39.97545" lon="8.41248"><ele>19.0</ele><time>2026-05-02T08:16:48.36Z</time></trkpt><trkpt lat="39.9755983" lon="8.4125"><ele>19.0</ele><time>2026-05-02T08:16:49.36Z</time></trkpt><trkpt lat="39.97573" lon="8.4125267"><ele>19.0</ele><time>2026-05-02T08:16:50.36Z</time></trkpt><trkpt lat="39.9758683" lon="8.4125733"><ele>19.0</ele><time>2026-05-02T08:16:51.36Z</time></trkpt><trkpt lat="39.975995" lon="8.4126167"><ele>19.0</ele><time>2026-05-02T08:16:52.36Z</time></trkpt><trkpt lat="39.9761333" lon="8.4126667"><ele>19.0</ele><time>2026-05-02T08:16:53.36Z</time></trkpt><trkpt lat="39.97629" lon="8.4127433"><ele>19.0</ele><time>2026-05-02T08:16:54.361Z</time></trkpt><trkpt lat="39.9764417" lon="8.4128167"><ele>19.0</ele><time>2026-05-02T08:16:55.36Z</time></trkpt><trkpt lat="39.9766067" lon="8.4128833"><ele>19.0</ele><time>2026-05-02T08:16:56.36Z</time></trkpt><trkpt lat="39.976785" lon="8.4129583"><ele>19.0</ele><time>2026-05-02T08:16:57.36Z</time></trkpt><trkpt lat="39.9769467" lon="8.4130217"><ele>19.0</ele><time>2026-05-02T08:16:58.36Z</time></trkpt><trkpt lat="39.9770867" lon="8.413075"><ele>18.5</ele><time>2026-05-02T08:16:59.36Z</time></trkpt><trkpt lat="39.9772133" lon="8.4131133"><ele>18.0</ele><time>2026-05-02T08:17:00.36Z</time></trkpt><trkpt lat="39.9773433" lon="8.413145"><ele>17.5</ele><time>2026-05-02T08:17:01.36Z</time></trkpt><trkpt lat="39.9774733" lon="8.4131617"><ele>17.0</ele><time>2026-05-02T08:17:02.36Z</time></trkpt><trkpt lat="39.9776067" lon="8.4131733"><ele>17.0</ele><time>2026-05-02T08:17:03.36Z</time></trkpt><trkpt lat="39.9777417" lon="8.4131617"><ele>17.0</ele><time>2026-05-02T08:17:04.36Z</time></trkpt><trkpt lat="39.977865" lon="8.413135"><ele>17.0</ele><time>2026-05-02T08:17:05.36Z</time></trkpt><trkpt lat="39.9779883" lon="8.4131117"><ele>17.0</ele><time>2026-05-02T08:17:06.36Z</time></trkpt><trkpt lat="39.9781" lon="8.413075"><ele>17.0</ele><time>2026-05-02T08:17:07.36Z</time></trkpt><trkpt lat="39.9782317" lon="8.4130367"><ele>17.0</ele><time>2026-05-02T08:17:08.36Z</time></trkpt><trkpt lat="39.9783667" lon="8.413005"><ele>17.0</ele><time>2026-05-02T08:17:09.36Z</time></trkpt><trkpt lat="39.9785" lon="8.4129633"><ele>17.0</ele><time>2026-05-02T08:17:10.36Z</time></trkpt><trkpt lat="39.9786317" lon="8.4129217"><ele>17.5</ele><time>2026-05-02T08:17:11.36Z</time></trkpt><trkpt lat="39.97876" lon="8.4128833"><ele>18.0</ele><time>2026-05-02T08:17:12.36Z</time></trkpt><trkpt lat="39.978885" lon="8.4128517"><ele>18.5</ele><time>2026-05-02T08:17:13.36Z</time></trkpt><trkpt lat="39.9790183" lon="8.4128333"><ele>19.0</ele><time>2026-05-02T08:17:14.36Z</time></trkpt><trkpt lat="39.9791483" lon="8.4128"><ele>19.0</ele><time>2026-05-02T08:17:15.36Z</time></trkpt><trkpt lat="39.97928" lon="8.4127517"><ele>19.0</ele><time>2026-05-02T08:17:16.36Z</time></trkpt><trkpt lat="39.97941" lon="8.412735"><ele>19.0</ele><time>2026-05-02T08:17:17.36Z</time></trkpt><trkpt lat="39.9795317" lon="8.41275"><ele>19.0</ele><time>2026-05-02T08:17:18.36Z</time></trkpt><trkpt lat="39.979655" lon="8.4127733"><ele>19.0</ele><time>2026-05-02T08:17:19.36Z</time></trkpt><trkpt lat="39.97978" lon="8.412785"><ele>19.0</ele><time>2026-05-02T08:17:20.36Z</time></trkpt><trkpt lat="39.97991" lon="8.41278"><ele>19.0</ele><time>2026-05-02T08:17:21.36Z</time></trkpt><trkpt lat="39.9800367" lon="8.4127767"><ele>19.0</ele><time>2026-05-02T08:17:22.36Z</time></trkpt><trkpt lat="39.9801683" lon="8.4127717"><ele>19.5</ele><time>2026-05-02T08:17:23.36Z</time></trkpt><trkpt lat="39.9802867" lon="8.4127883"><ele>20.0</ele><time>2026-05-02T08:17:24.36Z</time></trkpt><trkpt lat="39.9804033" lon="8.4127967"><ele>20.5</ele><time>2026-05-02T08:17:25.36Z</time></trkpt><trkpt lat="39.9805233" lon="8.4128167"><ele>21.0</ele><time>2026-05-02T08:17:26.36Z</time></trkpt><trkpt lat="39.98064" lon="8.412825"><ele>21.0</ele><time>2026-05-02T08:17:27.36Z</time></trkpt><trkpt lat="39.980745" lon="8.4128183"><ele>21.0</ele><time>2026-05-02T08:17:28.36Z</time></trkpt><trkpt lat="39.9808817" lon="8.412805"><ele>21.0</ele><time>2026-05-02T08:17:29.36Z</time></trkpt><trkpt lat="39.9810233" lon="8.41279"><ele>21.0</ele><time>2026-05-02T08:17:30.36Z</time></trkpt><trkpt lat="39.981155" lon="8.412775"><ele>20.8</ele><time>2026-05-02T08:17:31.36Z</time></trkpt><trkpt lat="39.9812617" lon="8.4127567"><ele>20.6</ele><time>2026-05-02T08:17:32.36Z</time></trkpt><trkpt lat="39.9813617" lon="8.4127517"><ele>20.4</ele><time>2026-05-02T08:17:33.36Z</time></trkpt><trkpt lat="39.9814633" lon="8.4127617"><ele>20.2</ele><time>2026-05-02T08:17:34.36Z</time></trkpt><trkpt lat="39.9815617" lon="8.4127583"><ele>20.0</ele><time>2026-05-02T08:17:35.36Z</time></trkpt><trkpt lat="39.9816617" lon="8.4127333"><ele>19.25</ele><time>2026-05-02T08:17:36.36Z</time></trkpt><trkpt lat="39.9817683" lon="8.4126817"><ele>18.5</ele><time>2026-05-02T08:17:37.36Z</time></trkpt><trkpt lat="39.98188" lon="8.4126233"><ele>17.75</ele><time>2026-05-02T08:17:38.36Z</time></trkpt><trkpt lat="39.9819917" lon="8.4125667"><ele>17.0</ele><time>2026-05-02T08:17:39.36Z</time></trkpt><trkpt lat="39.9820933" lon="8.4125117"><ele>17.0</ele><time>2026-05-02T08:17:40.36Z</time></trkpt><trkpt lat="39.9821967" lon="8.4124717"><ele>17.0</ele><time>2026-05-02T08:17:41.36Z</time></trkpt><trkpt lat="39.9823" lon="8.41242"><ele>17.0</ele><time>2026-05-02T08:17:42.36Z</time></trkpt><trkpt lat="39.9823967" lon="8.41237"><ele>17.0</ele><time>2026-05-02T08:17:43.36Z</time></trkpt><trkpt lat="39.9825017" lon="8.4123117"><ele>17.0</ele><time>2026-05-02T08:17:44.36Z</time></trkpt><trkpt lat="39.9826117" lon="8.4122467"><ele>17.25</ele><time>2026-05-02T08:17:45.36Z</time></trkpt><trkpt lat="39.9827283" lon="8.4121717"><ele>17.5</ele><time>2026-05-02T08:17:46.36Z</time></trkpt><trkpt lat="39.982845" lon="8.412095"><ele>17.75</ele><time>2026-05-02T08:17:47.36Z</time></trkpt><trkpt lat="39.9829467" lon="8.41202"><ele>18.0</ele><time>2026-05-02T08:17:48.36Z</time></trkpt><trkpt lat="39.98305" lon="8.4119433"><ele>18.0</ele><time>2026-05-02T08:17:49.36Z</time></trkpt><trkpt lat="39.9831467" lon="8.4118733"><ele>18.0</ele><time>2026-05-02T08:17:50.36Z</time></trkpt><trkpt lat="39.9832417" lon="8.4118117"><ele>18.0</ele><time>2026-05-02T08:17:51.36Z</time></trkpt><trkpt lat="39.9833333" lon="8.4117467"><ele>18.0</ele><time>2026-05-02T08:17:52.36Z</time></trkpt><trkpt lat="39.9834167" lon="8.4116933"><ele>18.0</ele><time>2026-05-02T08:17:53.36Z</time></trkpt><trkpt lat="39.9834933" lon="8.4116633"><ele>17.4</ele><time>2026-05-02T08:17:54.36Z</time></trkpt><trkpt lat="39.983575" lon="8.4116433"><ele>16.8</ele><time>2026-05-02T08:17:55.36Z</time></trkpt><trkpt lat="39.9836583" lon="8.4116433"><ele>16.2</ele><time>2026-05-02T08:17:56.36Z</time></trkpt><trkpt lat="39.9837533" lon="8.4116517"><ele>15.6</ele><time>2026-05-02T08:17:57.361Z</time></trkpt><trkpt lat="39.9838567" lon="8.4116533"><ele>15.0</ele><time>2026-05-02T08:17:58.36Z</time></trkpt><trkpt lat="39.9839633" lon="8.4116833"><ele>15.0</ele><time>2026-05-02T08:17:59.36Z</time></trkpt><trkpt lat="39.9840717" lon="8.4117183"><ele>15.0</ele><time>2026-05-02T08:18:00.36Z</time></trkpt><trkpt lat="39.984165" lon="8.4117417"><ele>15.0</ele><time>2026-05-02T08:18:01.36Z</time></trkpt><trkpt lat="39.9842533" lon="8.4117717"><ele>15.0</ele><time>2026-05-02T08:18:02.36Z</time></trkpt><trkpt lat="39.9843383" lon="8.411815"><ele>15.0</ele><time>2026-05-02T08:18:03.36Z</time></trkpt><trkpt lat="39.9844133" lon="8.4118667"><ele>14.6</ele><time>2026-05-02T08:18:04.36Z</time></trkpt><trkpt lat="39.9844767" lon="8.4119367"><ele>14.2</ele><time>2026-05-02T08:18:05.36Z</time></trkpt><trkpt lat="39.9845417" lon="8.4120383"><ele>13.8</ele><time>2026-05-02T08:18:06.36Z</time></trkpt><trkpt lat="39.9846117" lon="8.412165"><ele>13.4</ele><time>2026-05-02T08:18:07.36Z</time></trkpt><trkpt lat="39.98467" lon="8.4122917"><ele>13.0</ele><time>2026-05-02T08:18:08.36Z</time></trkpt><trkpt lat="39.9847317" lon="8.41243"><ele>13.0</ele><time>2026-05-02T08:18:09.36Z</time></trkpt><trkpt lat="39.98478" lon="8.4125617"><ele>13.0</ele><time>2026-05-02T08:18:10.36Z</time></trkpt><trkpt lat="39.9848267" lon="8.4126567"><ele>13.0</ele><time>2026-05-02T08:18:11.36Z</time></trkpt><trkpt lat="39.9848933" lon="8.4127283"><ele>13.0</ele><time>2026-05-02T08:18:12.36Z</time></trkpt><trkpt lat="39.9849783" lon="8.4127817"><ele>13.0</ele><time>2026-05-02T08:18:13.36Z</time></trkpt><trkpt lat="39.9850783" lon="8.4128167"><ele>13.0</ele><time>2026-05-02T08:18:14.36Z</time></trkpt><trkpt lat="39.98517" lon="8.4128283"><ele>13.0</ele><time>2026-05-02T08:18:15.36Z</time></trkpt><trkpt lat="39.9852467" lon="8.412795"><ele>13.0</ele><time>2026-05-02T08:18:16.36Z</time></trkpt><trkpt lat="39.9853233" lon="8.4127367"><ele>13.0</ele><time>2026-05-02T08:18:17.36Z</time></trkpt><trkpt lat="39.9854133" lon="8.4126483"><ele>13.0</ele><time>2026-05-02T08:18:18.36Z</time></trkpt><trkpt lat="39.9854983" lon="8.4125767"><ele>12.999999999999998</ele><time>2026-05-02T08:18:19.36Z</time></trkpt><trkpt lat="39.985585" lon="8.4125333"><ele>13.0</ele><time>2026-05-02T08:18:20.36Z</time></trkpt><trkpt lat="39.9856733" lon="8.4124933"><ele>13.0</ele><time>2026-05-02T08:18:21.36Z</time></trkpt><trkpt lat="39.9857533" lon="8.4124383"><ele>13.0</ele><time>2026-05-02T08:18:22.36Z</time></trkpt><trkpt lat="39.9858167" lon="8.4123733"><ele>12.999999999999998</ele><time>2026-05-02T08:18:23.36Z</time></trkpt><trkpt lat="39.9858717" lon="8.4123183"><ele>13.0</ele><time>2026-05-02T08:18:24.36Z</time></trkpt><trkpt lat="39.985945" lon="8.4122633"><ele>12.600000000000001</ele><time>2026-05-02T08:18:25.36Z</time></trkpt><trkpt lat="39.9860433" lon="8.4122217"><ele>12.200000000000001</ele><time>2026-05-02T08:18:26.36Z</time></trkpt><trkpt lat="39.98614" lon="8.412165"><ele>11.8</ele><time>2026-05-02T08:18:27.36Z</time></trkpt><trkpt lat="39.98624" lon="8.412105"><ele>11.4</ele><time>2026-05-02T08:18:28.36Z</time></trkpt><trkpt lat="39.9863467" lon="8.41204"><ele>11.0</ele><time>2026-05-02T08:18:29.36Z</time></trkpt><trkpt lat="39.9864617" lon="8.41198"><ele>11.0</ele><time>2026-05-02T08:18:30.36Z</time></trkpt><trkpt lat="39.986575" lon="8.4119167"><ele>11.0</ele><time>2026-05-02T08:18:31.36Z</time></trkpt><trkpt lat="39.9866983" lon="8.4118783"><ele>11.0</ele><time>2026-05-02T08:18:32.36Z</time></trkpt><trkpt lat="39.9868333" lon="8.4118383"><ele>11.0</ele><time>2026-05-02T08:18:33.36Z</time></trkpt><trkpt lat="39.986975" lon="8.4117917"><ele>11.25</ele><time>2026-05-02T08:18:34.36Z</time></trkpt><trkpt lat="39.9871183" lon="8.41174"><ele>11.5</ele><time>2026-05-02T08:18:35.36Z</time></trkpt><trkpt lat="39.987255" lon="8.411685"><ele>11.75</ele><time>2026-05-02T08:18:36.36Z</time></trkpt><trkpt lat="39.98738" lon="8.4116267"><ele>12.0</ele><time>2026-05-02T08:18:37.36Z</time></trkpt><trkpt lat="39.9875033" lon="8.4115583"><ele>12.0</ele><time>2026-05-02T08:18:38.36Z</time></trkpt><trkpt lat="39.9876267" lon="8.4115033"><ele>12.0</ele><time>2026-05-02T08:18:39.36Z</time></trkpt><trkpt lat="39.9877567" lon="8.4114483"><ele>12.0</ele><time>2026-05-02T08:18:40.36Z</time></trkpt><trkpt lat="39.987885" lon="8.4114017"><ele>12.0</ele><time>2026-05-02T08:18:41.36Z</time></trkpt><trkpt lat="39.9880133" lon="8.4113567"><ele>12.0</ele><time>2026-05-02T08:18:42.36Z</time></trkpt><trkpt lat="39.98814" lon="8.4113083"><ele>12.0</ele><time>2026-05-02T08:18:43.36Z</time></trkpt><trkpt lat="39.9882717" lon="8.4112733"><ele>12.0</ele><time>2026-05-02T08:18:44.36Z</time></trkpt><trkpt lat="39.98841" lon="8.4112183"><ele>12.0</ele><time>2026-05-02T08:18:45.36Z</time></trkpt><trkpt lat="39.98854" lon="8.4111617"><ele>12.25</ele><time>2026-05-02T08:18:46.36Z</time></trkpt><trkpt lat="39.9886667" lon="8.411095"><ele>12.5</ele><time>2026-05-02T08:18:47.36Z</time></trkpt><trkpt lat="39.9887783" lon="8.41104"><ele>12.75</ele><time>2026-05-02T08:18:48.36Z</time></trkpt><trkpt lat="39.988895" lon="8.4109867"><ele>13.0</ele><time>2026-05-02T08:18:49.36Z</time></trkpt><trkpt lat="39.9890083" lon="8.4109317"><ele>13.0</ele><time>2026-05-02T08:18:50.36Z</time></trkpt><trkpt lat="39.989115" lon="8.4108717"><ele>13.0</ele><time>2026-05-02T08:18:51.36Z</time></trkpt><trkpt lat="39.9892233" lon="8.4108317"><ele>13.0</ele><time>2026-05-02T08:18:52.36Z</time></trkpt><trkpt lat="39.9893283" lon="8.4107933"><ele>13.0</ele><time>2026-05-02T08:18:53.36Z</time></trkpt><trkpt lat="39.9894317" lon="8.4107633"><ele>13.0</ele><time>2026-05-02T08:18:54.36Z</time></trkpt><trkpt lat="39.9895283" lon="8.41072"><ele>12.8</ele><time>2026-05-02T08:18:55.36Z</time></trkpt><trkpt lat="39.9896233" lon="8.41066"><ele>12.600000000000001</ele><time>2026-05-02T08:18:56.36Z</time></trkpt><trkpt lat="39.989725" lon="8.4106033"><ele>12.399999999999999</ele><time>2026-05-02T08:18:57.36Z</time></trkpt><trkpt lat="39.98983" lon="8.410555"><ele>12.2</ele><time>2026-05-02T08:18:58.36Z</time></trkpt><trkpt lat="39.9899283" lon="8.4105133"><ele>12.0</ele><time>2026-05-02T08:18:59.36Z</time></trkpt><trkpt lat="39.9900183" lon="8.4104767"><ele>11.5</ele><time>2026-05-02T08:19:00.36Z</time></trkpt><trkpt lat="39.9901067" lon="8.4104533"><ele>11.0</ele><time>2026-05-02T08:19:01.36Z</time></trkpt><trkpt lat="39.990185" lon="8.41044"><ele>10.5</ele><time>2026-05-02T08:19:02.36Z</time></trkpt><trkpt lat="39.990255" lon="8.4104283"><ele>10.0</ele><time>2026-05-02T08:19:03.36Z</time></trkpt><trkpt lat="39.9903317" lon="8.410415"><ele>9.5</ele><time>2026-05-02T08:19:04.36Z</time></trkpt><trkpt lat="39.9904017" lon="8.4104017"><ele>9.0</ele><time>2026-05-02T08:19:05.36Z</time></trkpt><trkpt lat="39.990465" lon="8.41038"><ele>9.0</ele><time>2026-05-02T08:19:06.36Z</time></trkpt><trkpt lat="39.990535" lon="8.4104017"><ele>9.0</ele><time>2026-05-02T08:19:08.36Z</time></trkpt><trkpt lat="39.9905967" lon="8.410455"><ele>9.0</ele><time>2026-05-02T08:19:10.36Z</time></trkpt><trkpt lat="39.99072" lon="8.4105533"><ele>9.0</ele><time>2026-05-02T08:19:12.36Z</time></trkpt><trkpt lat="39.9907983" lon="8.4106167"><ele>9.0</ele><time>2026-05-02T08:19:13.36Z</time></trkpt><trkpt lat="39.9908733" lon="8.4106667"><ele>9.5</ele><time>2026-05-02T08:19:14.36Z</time></trkpt><trkpt lat="39.9909417" lon="8.4107167"><ele>10.0</ele><time>2026-05-02T08:19:15.36Z</time></trkpt><trkpt lat="39.9910183" lon="8.4107583"><ele>10.5</ele><time>2026-05-02T08:19:16.36Z</time></trkpt><trkpt lat="39.9911" lon="8.4107983"><ele>11.0</ele><time>2026-05-02T08:19:17.36Z</time></trkpt><trkpt lat="39.99118" lon="8.41084"><ele>11.5</ele><time>2026-05-02T08:19:18.36Z</time></trkpt><trkpt lat="39.9912533" lon="8.4108783"><ele>12.0</ele><time>2026-05-02T08:19:19.36Z</time></trkpt><trkpt lat="39.991315" lon="8.4109067"><ele>12.0</ele><time>2026-05-02T08:19:20.36Z</time></trkpt><trkpt lat="39.9914117" lon="8.4109617"><ele>12.0</ele><time>2026-05-02T08:19:22.36Z</time></trkpt><trkpt lat="39.9914883" lon="8.411075"><ele>12.0</ele><time>2026-05-02T08:19:24.36Z</time></trkpt><trkpt lat="39.9915517" lon="8.4112033"><ele>12.0</ele><time>2026-05-02T08:19:26.36Z</time></trkpt><trkpt lat="39.99161" lon="8.4113217"><ele>12.0</ele><time>2026-05-02T08:19:28.36Z</time></trkpt><trkpt lat="39.9916817" lon="8.4114317"><ele>11.857142857142856</ele><time>2026-05-02T08:19:30.36Z</time></trkpt><trkpt lat="39.99172" lon="8.4115083"><ele>11.714285714285714</ele><time>2026-05-02T08:19:31.36Z</time></trkpt><trkpt lat="39.9917567" lon="8.4115933"><ele>11.571428571428571</ele><time>2026-05-02T08:19:32.36Z</time></trkpt><trkpt lat="39.9917817" lon="8.4116833"><ele>11.428571428571427</ele><time>2026-05-02T08:19:33.36Z</time></trkpt><trkpt lat="39.9918083" lon="8.4117733"><ele>11.285714285714285</ele><time>2026-05-02T08:19:34.36Z</time></trkpt><trkpt lat="39.9918333" lon="8.4118533"><ele>11.142857142857142</ele><time>2026-05-02T08:19:35.359Z</time></trkpt><trkpt lat="39.99185" lon="8.4119517"><ele>11.0</ele><time>2026-05-02T08:19:37.359Z</time></trkpt><trkpt lat="39.9917933" lon="8.4120183"><ele>11.0</ele><time>2026-05-02T08:19:39.359Z</time></trkpt><trkpt lat="39.9917267" lon="8.4120617"><ele>11.0</ele><time>2026-05-02T08:19:40.359Z</time></trkpt><trkpt lat="39.9916383" lon="8.412115"><ele>11.0</ele><time>2026-05-02T08:19:41.359Z</time></trkpt><trkpt lat="39.9915467" lon="8.4121767"><ele>11.0</ele><time>2026-05-02T08:19:42.359Z</time></trkpt><trkpt lat="39.9914717" lon="8.4122317"><ele>11.0</ele><time>2026-05-02T08:19:43.359Z</time></trkpt><trkpt lat="39.9914017" lon="8.4122733"><ele>11.0</ele><time>2026-05-02T08:19:44.359Z</time></trkpt><trkpt lat="39.9913417" lon="8.4123083"><ele>11.0</ele><time>2026-05-02T08:19:45.359Z</time></trkpt><trkpt lat="39.9912717" lon="8.412395"><ele>11.0</ele><time>2026-05-02T08:19:47.359Z</time></trkpt><trkpt lat="39.9912567" lon="8.4125567"><ele>11.0</ele><time>2026-05-02T08:19:49.359Z</time></trkpt><trkpt lat="39.9912533" lon="8.4126467"><ele>11.0</ele><time>2026-05-02T08:19:50.359Z</time></trkpt><trkpt lat="39.9912383" lon="8.4127467"><ele>11.0</ele><time>2026-05-02T08:19:51.359Z</time></trkpt><trkpt lat="39.9912083" lon="8.4128567"><ele>11.0</ele><time>2026-05-02T08:19:52.359Z</time></trkpt><trkpt lat="39.9911767" lon="8.4129417"><ele>11.0</ele><time>2026-05-02T08:19:53.359Z</time></trkpt><trkpt lat="39.9911533" lon="8.413025"><ele>11.0</ele><time>2026-05-02T08:19:54.359Z</time></trkpt><trkpt lat="39.99112" lon="8.4131083"><ele>11.0</ele><time>2026-05-02T08:19:55.359Z</time></trkpt><trkpt lat="39.99108" lon="8.413225"><ele>11.0</ele><time>2026-05-02T08:19:56.359Z</time></trkpt><trkpt lat="39.9910433" lon="8.413355"><ele>11.0</ele><time>2026-05-02T08:19:57.359Z</time></trkpt><trkpt lat="39.991" lon="8.4135"><ele>10.5</ele><time>2026-05-02T08:19:58.359Z</time></trkpt><trkpt lat="39.99096" lon="8.413645"><ele>10.0</ele><time>2026-05-02T08:19:59.359Z</time></trkpt><trkpt lat="39.9909233" lon="8.4137783"><ele>9.5</ele><time>2026-05-02T08:20:00.359Z</time></trkpt><trkpt lat="39.99088" lon="8.41392"><ele>9.0</ele><time>2026-05-02T08:20:01.359Z</time></trkpt><trkpt lat="39.99083" lon="8.4140517"><ele>8.75</ele><time>2026-05-02T08:20:02.359Z</time></trkpt><trkpt lat="39.9907917" lon="8.41418"><ele>8.5</ele><time>2026-05-02T08:20:03.359Z</time></trkpt><trkpt lat="39.99075" lon="8.4143233"><ele>8.25</ele><time>2026-05-02T08:20:04.359Z</time></trkpt><trkpt lat="39.9907033" lon="8.4144683"><ele>8.0</ele><time>2026-05-02T08:20:05.359Z</time></trkpt><trkpt lat="39.9906667" lon="8.4146217"><ele>8.5</ele><time>2026-05-02T08:20:06.359Z</time></trkpt><trkpt lat="39.99061" lon="8.4147767"><ele>9.0</ele><time>2026-05-02T08:20:07.359Z</time></trkpt><trkpt lat="39.9905417" lon="8.4149367"><ele>9.5</ele><time>2026-05-02T08:20:08.359Z</time></trkpt><trkpt lat="39.9904783" lon="8.4150967"><ele>10.0</ele><time>2026-05-02T08:20:09.359Z</time></trkpt><trkpt lat="39.990405" lon="8.4152633"><ele>10.0</ele><time>2026-05-02T08:20:10.359Z</time></trkpt><trkpt lat="39.990325" lon="8.4154283"><ele>10.0</ele><time>2026-05-02T08:20:11.359Z</time></trkpt><trkpt lat="39.99025" lon="8.4155783"><ele>10.0</ele><time>2026-05-02T08:20:12.359Z</time></trkpt><trkpt lat="39.9901667" lon="8.4157383"><ele>10.0</ele><time>2026-05-02T08:20:13.359Z</time></trkpt><trkpt lat="39.9900883" lon="8.4158983"><ele>10.0</ele><time>2026-05-02T08:20:14.359Z</time></trkpt><trkpt lat="39.99002" lon="8.4160617"><ele>10.0</ele><time>2026-05-02T08:20:15.359Z</time></trkpt><trkpt lat="39.98994" lon="8.4162233"><ele>10.0</ele><time>2026-05-02T08:20:16.359Z</time></trkpt><trkpt lat="39.9898683" lon="8.4163667"><ele>10.0</ele><time>2026-05-02T08:20:17.359Z</time></trkpt><trkpt lat="39.9898067" lon="8.4165033"><ele>9.8</ele><time>2026-05-02T08:20:18.359Z</time></trkpt><trkpt lat="39.9897467" lon="8.4166167"><ele>9.6</ele><time>2026-05-02T08:20:19.359Z</time></trkpt><trkpt lat="39.9896883" lon="8.4167"><ele>9.4</ele><time>2026-05-02T08:20:20.359Z</time></trkpt><trkpt lat="39.9896217" lon="8.4167767"><ele>9.2</ele><time>2026-05-02T08:20:21.359Z</time></trkpt><trkpt lat="39.989545" lon="8.4168667"><ele>9.0</ele><time>2026-05-02T08:20:22.359Z</time></trkpt><trkpt lat="39.9894783" lon="8.41697"><ele>9.0</ele><time>2026-05-02T08:20:23.359Z</time></trkpt><trkpt lat="39.9894267" lon="8.4170867"><ele>9.0</ele><time>2026-05-02T08:20:24.359Z</time></trkpt><trkpt lat="39.9893767" lon="8.41719"><ele>9.0</ele><time>2026-05-02T08:20:25.359Z</time></trkpt><trkpt lat="39.9893383" lon="8.4172833"><ele>9.0</ele><time>2026-05-02T08:20:26.359Z</time></trkpt><trkpt lat="39.98929" lon="8.4173717"><ele>9.0</ele><time>2026-05-02T08:20:27.359Z</time></trkpt><trkpt lat="39.9892283" lon="8.41746"><ele>8.833333333333334</ele><time>2026-05-02T08:20:28.359Z</time></trkpt><trkpt lat="39.98917" lon="8.41755"><ele>8.666666666666666</ele><time>2026-05-02T08:20:29.359Z</time></trkpt><trkpt lat="39.989135" lon="8.417645"><ele>8.5</ele><time>2026-05-02T08:20:30.359Z</time></trkpt><trkpt lat="39.9890933" lon="8.4177383"><ele>8.333333333333332</ele><time>2026-05-02T08:20:31.359Z</time></trkpt><trkpt lat="39.98904" lon="8.4178"><ele>8.166666666666666</ele><time>2026-05-02T08:20:32.359Z</time></trkpt><trkpt lat="39.9889683" lon="8.417855"><ele>8.0</ele><time>2026-05-02T08:20:33.359Z</time></trkpt><trkpt lat="39.9888933" lon="8.4179067"><ele>7.800000000000001</ele><time>2026-05-02T08:20:34.359Z</time></trkpt><trkpt lat="39.9888183" lon="8.41799"><ele>7.6000000000000005</ele><time>2026-05-02T08:20:35.359Z</time></trkpt><trkpt lat="39.9887583" lon="8.4180917"><ele>7.3999999999999995</ele><time>2026-05-02T08:20:36.359Z</time></trkpt><trkpt lat="39.98869" lon="8.4182017"><ele>7.199999999999999</ele><time>2026-05-02T08:20:37.359Z</time></trkpt><trkpt lat="39.9886033" lon="8.4182883"><ele>7.0</ele><time>2026-05-02T08:20:38.359Z</time></trkpt><trkpt lat="39.9885033" lon="8.4183633"><ele>7.0</ele><time>2026-05-02T08:20:39.359Z</time></trkpt><trkpt lat="39.9884083" lon="8.4184283"><ele>6.999999999999999</ele><time>2026-05-02T08:20:40.359Z</time></trkpt><trkpt lat="39.9883133" lon="8.4184917"><ele>6.999999999999999</ele><time>2026-05-02T08:20:41.359Z</time></trkpt><trkpt lat="39.9882317" lon="8.4185533"><ele>7.0</ele><time>2026-05-02T08:20:42.359Z</time></trkpt><trkpt lat="39.9881633" lon="8.41863"><ele>7.0</ele><time>2026-05-02T08:20:43.359Z</time></trkpt><trkpt lat="39.9881033" lon="8.4187067"><ele>6.8</ele><time>2026-05-02T08:20:44.359Z</time></trkpt><trkpt lat="39.9880367" lon="8.418755"><ele>6.6</ele><time>2026-05-02T08:20:45.359Z</time></trkpt><trkpt lat="39.9879533" lon="8.4187867"><ele>6.3999999999999995</ele><time>2026-05-02T08:20:46.359Z</time></trkpt><trkpt lat="39.987855" lon="8.41883"><ele>6.199999999999999</ele><time>2026-05-02T08:20:47.359Z</time></trkpt><trkpt lat="39.9877433" lon="8.4188983"><ele>6.0</ele><time>2026-05-02T08:20:48.359Z</time></trkpt><trkpt lat="39.9876367" lon="8.4189783"><ele>6.0</ele><time>2026-05-02T08:20:49.359Z</time></trkpt><trkpt lat="39.9875383" lon="8.4190917"><ele>6.0</ele><time>2026-05-02T08:20:50.359Z</time></trkpt><trkpt lat="39.9874517" lon="8.4191983"><ele>6.0</ele><time>2026-05-02T08:20:51.359Z</time></trkpt><trkpt lat="39.9873867" lon="8.4192983"><ele>6.0</ele><time>2026-05-02T08:20:52.359Z</time></trkpt><trkpt lat="39.9873233" lon="8.4193633"><ele>6.0</ele><time>2026-05-02T08:20:53.359Z</time></trkpt><trkpt lat="39.9872783" lon="8.419445"><ele>6.199999999999999</ele><time>2026-05-02T08:20:55.359Z</time></trkpt><trkpt lat="39.9873133" lon="8.419555"><ele>6.3999999999999995</ele><time>2026-05-02T08:20:57.359Z</time></trkpt><trkpt lat="39.9873683" lon="8.419645"><ele>6.6</ele><time>2026-05-02T08:20:58.359Z</time></trkpt><trkpt lat="39.9874417" lon="8.4197617"><ele>6.8</ele><time>2026-05-02T08:20:59.359Z</time></trkpt><trkpt lat="39.9875267" lon="8.41991"><ele>7.0</ele><time>2026-05-02T08:21:00.359Z</time></trkpt><trkpt lat="39.98762" lon="8.4200733"><ele>7.0</ele><time>2026-05-02T08:21:01.359Z</time></trkpt><trkpt lat="39.9877133" lon="8.42026"><ele>7.0</ele><time>2026-05-02T08:21:02.359Z</time></trkpt><trkpt lat="39.987805" lon="8.4204367"><ele>7.0</ele><time>2026-05-02T08:21:03.359Z</time></trkpt><trkpt lat="39.9878917" lon="8.4206"><ele>7.0</ele><time>2026-05-02T08:21:04.359Z</time></trkpt><trkpt lat="39.98797" lon="8.4207617"><ele>7.0</ele><time>2026-05-02T08:21:05.359Z</time></trkpt><trkpt lat="39.9880333" lon="8.4209083"><ele>7.0</ele><time>2026-05-02T08:21:06.359Z</time></trkpt><trkpt lat="39.9880817" lon="8.42105"><ele>7.0</ele><time>2026-05-02T08:21:07.359Z</time></trkpt><trkpt lat="39.988115" lon="8.4212017"><ele>7.0</ele><time>2026-05-02T08:21:08.359Z</time></trkpt><trkpt lat="39.988145" lon="8.4213317"><ele>6.999999999999999</ele><time>2026-05-02T08:21:09.359Z</time></trkpt><trkpt lat="39.98817" lon="8.4214483"><ele>6.999999999999999</ele><time>2026-05-02T08:21:10.359Z</time></trkpt><trkpt lat="39.9881833" lon="8.4215633"><ele>7.0</ele><time>2026-05-02T08:21:11.359Z</time></trkpt><trkpt lat="39.9881733" lon="8.4216717"><ele>7.0</ele><time>2026-05-02T08:21:12.359Z</time></trkpt><trkpt lat="39.988135" lon="8.42178"><ele>7.0</ele><time>2026-05-02T08:21:13.359Z</time></trkpt><trkpt lat="39.9880633" lon="8.4219"><ele>7.0</ele><time>2026-05-02T08:21:14.359Z</time></trkpt><trkpt lat="39.9879733" lon="8.4220217"><ele>7.0</ele><time>2026-05-02T08:21:15.359Z</time></trkpt><trkpt lat="39.9878733" lon="8.4221117"><ele>7.0</ele><time>2026-05-02T08:21:16.359Z</time></trkpt><trkpt lat="39.987775" lon="8.4221867"><ele>7.0</ele><time>2026-05-02T08:21:17.359Z</time></trkpt><trkpt lat="39.9876867" lon="8.4222517"><ele>6.999999999999999</ele><time>2026-05-02T08:21:18.359Z</time></trkpt><trkpt lat="39.9876167" lon="8.42234"><ele>6.999999999999999</ele><time>2026-05-02T08:21:19.359Z</time></trkpt><trkpt lat="39.98755" lon="8.42245"><ele>7.0</ele><time>2026-05-02T08:21:20.359Z</time></trkpt><trkpt lat="39.9874617" lon="8.4225433"><ele>7.0</ele><time>2026-05-02T08:21:21.359Z</time></trkpt><trkpt lat="39.987365" lon="8.42262"><ele>7.0</ele><time>2026-05-02T08:21:22.359Z</time></trkpt><trkpt lat="39.9872683" lon="8.42272"><ele>7.0</ele><time>2026-05-02T08:21:23.359Z</time></trkpt><trkpt lat="39.9871683" lon="8.4228483"><ele>7.0</ele><time>2026-05-02T08:21:24.359Z</time></trkpt><trkpt lat="39.987055" lon="8.4229817"><ele>7.0</ele><time>2026-05-02T08:21:25.359Z</time></trkpt><trkpt lat="39.9869333" lon="8.4230767"><ele>6.666666666666667</ele><time>2026-05-02T08:21:26.359Z</time></trkpt><trkpt lat="39.9868117" lon="8.4231867"><ele>6.333333333333334</ele><time>2026-05-02T08:21:27.359Z</time></trkpt><trkpt lat="39.9867033" lon="8.4233267"><ele>6.0</ele><time>2026-05-02T08:21:28.359Z</time></trkpt><trkpt lat="39.9866" lon="8.423475"><ele>6.166666666666667</ele><time>2026-05-02T08:21:29.359Z</time></trkpt><trkpt lat="39.9865067" lon="8.4236117"><ele>6.333333333333334</ele><time>2026-05-02T08:21:30.359Z</time></trkpt><trkpt lat="39.986435" lon="8.4237067"><ele>6.5</ele><time>2026-05-02T08:21:31.359Z</time></trkpt><trkpt lat="39.986395" lon="8.423785"><ele>6.666666666666667</ele><time>2026-05-02T08:21:32.359Z</time></trkpt><trkpt lat="39.986375" lon="8.4238633"><ele>6.833333333333334</ele><time>2026-05-02T08:21:33.359Z</time></trkpt><trkpt lat="39.9863767" lon="8.4239467"><ele>7.0</ele><time>2026-05-02T08:21:34.359Z</time></trkpt><trkpt lat="39.986425" lon="8.424055"><ele>7.0</ele><time>2026-05-02T08:21:35.359Z</time></trkpt><trkpt lat="39.986505" lon="8.4241767"><ele>7.0</ele><time>2026-05-02T08:21:36.359Z</time></trkpt><trkpt lat="39.986585" lon="8.4243317"><ele>7.0</ele><time>2026-05-02T08:21:37.359Z</time></trkpt><trkpt lat="39.98667" lon="8.424505"><ele>7.0</ele><time>2026-05-02T08:21:38.359Z</time></trkpt><trkpt lat="39.9867483" lon="8.4247"><ele>6.666666666666667</ele><time>2026-05-02T08:21:39.359Z</time></trkpt><trkpt lat="39.98683" lon="8.4249083"><ele>6.333333333333334</ele><time>2026-05-02T08:21:40.359Z</time></trkpt><trkpt lat="39.9869" lon="8.4251033"><ele>6.0</ele><time>2026-05-02T08:21:41.359Z</time></trkpt><trkpt lat="39.98697" lon="8.4252933"><ele>6.333333333333334</ele><time>2026-05-02T08:21:42.359Z</time></trkpt><trkpt lat="39.9870467" lon="8.4254817"><ele>6.666666666666667</ele><time>2026-05-02T08:21:43.359Z</time></trkpt><trkpt lat="39.9871033" lon="8.4256717"><ele>7.0</ele><time>2026-05-02T08:21:44.359Z</time></trkpt><trkpt lat="39.9871517" lon="8.4258683"><ele>7.0</ele><time>2026-05-02T08:21:45.359Z</time></trkpt><trkpt lat="39.9872" lon="8.4260633"><ele>7.0</ele><time>2026-05-02T08:21:46.359Z</time></trkpt><trkpt lat="39.9872517" lon="8.4262483"><ele>7.0</ele><time>2026-05-02T08:21:47.359Z</time></trkpt><trkpt lat="39.987305" lon="8.4264217"><ele>7.0</ele><time>2026-05-02T08:21:48.359Z</time></trkpt><trkpt lat="39.98737" lon="8.4265783"><ele>7.0</ele><time>2026-05-02T08:21:49.359Z</time></trkpt><trkpt lat="39.98745" lon="8.4267133"><ele>7.0</ele><time>2026-05-02T08:21:50.359Z</time></trkpt><trkpt lat="39.98753" lon="8.42684"><ele>7.0</ele><time>2026-05-02T08:21:51.359Z</time></trkpt><trkpt lat="39.9876" lon="8.4269733"><ele>6.75</ele><time>2026-05-02T08:21:52.359Z</time></trkpt><trkpt lat="39.98766" lon="8.4271217"><ele>6.5</ele><time>2026-05-02T08:21:53.359Z</time></trkpt><trkpt lat="39.9877" lon="8.42726"><ele>6.25</ele><time>2026-05-02T08:21:54.359Z</time></trkpt><trkpt lat="39.987725" lon="8.427415"><ele>6.0</ele><time>2026-05-02T08:21:55.359Z</time></trkpt><trkpt lat="39.9877467" lon="8.4275817"><ele>5.5</ele><time>2026-05-02T08:21:56.359Z</time></trkpt><trkpt lat="39.9877683" lon="8.4277533"><ele>5.0</ele><time>2026-05-02T08:21:57.359Z</time></trkpt><trkpt lat="39.9877917" lon="8.427915"><ele>4.5</ele><time>2026-05-02T08:21:58.359Z</time></trkpt><trkpt lat="39.9878183" lon="8.428085"><ele>4.0</ele><time>2026-05-02T08:21:59.359Z</time></trkpt><trkpt lat="39.9878267" lon="8.42824"><ele>4.0</ele><time>2026-05-02T08:22:00.359Z</time></trkpt><trkpt lat="39.9878417" lon="8.428405"><ele>4.0</ele><time>2026-05-02T08:22:01.359Z</time></trkpt><trkpt lat="39.987875" lon="8.4285433"><ele>4.0</ele><time>2026-05-02T08:22:02.359Z</time></trkpt><trkpt lat="39.9879283" lon="8.4286683"><ele>4.0</ele><time>2026-05-02T08:22:03.359Z</time></trkpt><trkpt lat="39.988" lon="8.4287817"><ele>4.2</ele><time>2026-05-02T08:22:04.359Z</time></trkpt><trkpt lat="39.9880767" lon="8.4289"><ele>4.4</ele><time>2026-05-02T08:22:05.359Z</time></trkpt><trkpt lat="39.9881517" lon="8.4290067"><ele>4.6</ele><time>2026-05-02T08:22:06.359Z</time></trkpt><trkpt lat="39.9882033" lon="8.4291067"><ele>4.8</ele><time>2026-05-02T08:22:07.359Z</time></trkpt><trkpt lat="39.98824" lon="8.4292117"><ele>5.0</ele><time>2026-05-02T08:22:08.359Z</time></trkpt><trkpt lat="39.9882733" lon="8.4293283"><ele>5.0</ele><time>2026-05-02T08:22:09.359Z</time></trkpt><trkpt lat="39.9883067" lon="8.4294517"><ele>5.0</ele><time>2026-05-02T08:22:10.359Z</time></trkpt><trkpt lat="39.9883533" lon="8.429585"><ele>5.0</ele><time>2026-05-02T08:22:11.359Z</time></trkpt><trkpt lat="39.9884083" lon="8.4297183"><ele>5.0</ele><time>2026-05-02T08:22:12.359Z</time></trkpt><trkpt lat="39.9884667" lon="8.4298517"><ele>5.0</ele><time>2026-05-02T08:22:13.359Z</time></trkpt><trkpt lat="39.98852" lon="8.4299817"><ele>5.0</ele><time>2026-05-02T08:22:14.359Z</time></trkpt><trkpt lat="39.9885817" lon="8.43008"><ele>5.0</ele><time>2026-05-02T08:22:15.359Z</time></trkpt><trkpt lat="39.9886433" lon="8.4301567"><ele>5.0</ele><time>2026-05-02T08:22:16.359Z</time></trkpt><trkpt lat="39.9887367" lon="8.4302"><ele>5.0</ele><time>2026-05-02T08:22:18.359Z</time></trkpt><trkpt lat="39.9887867" lon="8.4301467"><ele>5.0</ele><time>2026-05-02T08:22:21.359Z</time></trkpt><trkpt lat="39.9888183" lon="8.4300083"><ele>5.0</ele><time>2026-05-02T08:22:23.359Z</time></trkpt><trkpt lat="39.9888283" lon="8.4299017"><ele>5.0</ele><time>2026-05-02T08:22:24.359Z</time></trkpt><trkpt lat="39.9888633" lon="8.42978"><ele>5.0</ele><time>2026-05-02T08:22:25.359Z</time></trkpt><trkpt lat="39.988915" lon="8.429635"><ele>5.0</ele><time>2026-05-02T08:22:26.359Z</time></trkpt><trkpt lat="39.9889817" lon="8.429465"><ele>5.0</ele><time>2026-05-02T08:22:27.359Z</time></trkpt><trkpt lat="39.9890533" lon="8.4292817"><ele>5.0</ele><time>2026-05-02T08:22:28.359Z</time></trkpt><trkpt lat="39.9891317" lon="8.4291033"><ele>5.0</ele><time>2026-05-02T08:22:29.359Z</time></trkpt><trkpt lat="39.989225" lon="8.428925"><ele>5.0</ele><time>2026-05-02T08:22:30.359Z</time></trkpt><trkpt lat="39.9893233" lon="8.4287617"><ele>5.0</ele><time>2026-05-02T08:22:31.359Z</time></trkpt><trkpt lat="39.9894333" lon="8.42859"><ele>5.0</ele><time>2026-05-02T08:22:32.359Z</time></trkpt><trkpt lat="39.98954" lon="8.42843"><ele>5.0</ele><time>2026-05-02T08:22:33.359Z</time></trkpt><trkpt lat="39.9896417" lon="8.4282517"><ele>5.0</ele><time>2026-05-02T08:22:34.359Z</time></trkpt><trkpt lat="39.9897483" lon="8.4280717"><ele>5.0</ele><time>2026-05-02T08:22:35.359Z</time></trkpt><trkpt lat="39.98985" lon="8.4279"><ele>4.666666666666667</ele><time>2026-05-02T08:22:36.359Z</time></trkpt><trkpt lat="39.9899567" lon="8.427725"><ele>4.333333333333333</ele><time>2026-05-02T08:22:37.359Z</time></trkpt><trkpt lat="39.99006" lon="8.4275483"><ele>4.0</ele><time>2026-05-02T08:22:38.359Z</time></trkpt><trkpt lat="39.9901617" lon="8.42738"><ele>4.0</ele><time>2026-05-02T08:22:39.359Z</time></trkpt><trkpt lat="39.9902617" lon="8.4272333"><ele>4.0</ele><time>2026-05-02T08:22:40.359Z</time></trkpt><trkpt lat="39.99036" lon="8.42708"><ele>4.0</ele><time>2026-05-02T08:22:41.359Z</time></trkpt><trkpt lat="39.9904583" lon="8.42692"><ele>4.333333333333333</ele><time>2026-05-02T08:22:42.359Z</time></trkpt><trkpt lat="39.990555" lon="8.4267517"><ele>4.666666666666667</ele><time>2026-05-02T08:22:43.359Z</time></trkpt><trkpt lat="39.99065" lon="8.4265767"><ele>5.0</ele><time>2026-05-02T08:22:44.359Z</time></trkpt><trkpt lat="39.9907467" lon="8.4263983"><ele>4.666666666666667</ele><time>2026-05-02T08:22:45.359Z</time></trkpt><trkpt lat="39.9908333" lon="8.4262117"><ele>4.333333333333333</ele><time>2026-05-02T08:22:46.359Z</time></trkpt><trkpt lat="39.9909317" lon="8.426035"><ele>4.0</ele><time>2026-05-02T08:22:47.359Z</time></trkpt><trkpt lat="39.99104" lon="8.4258317"><ele>4.0</ele><time>2026-05-02T08:22:48.359Z</time></trkpt><trkpt lat="39.9911567" lon="8.425625"><ele>4.0</ele><time>2026-05-02T08:22:49.359Z</time></trkpt><trkpt lat="39.9912617" lon="8.4254317"><ele>4.0</ele><time>2026-05-02T08:22:50.359Z</time></trkpt><trkpt lat="39.9913667" lon="8.4252367"><ele>4.0</ele><time>2026-05-02T08:22:51.359Z</time></trkpt><trkpt lat="39.9914717" lon="8.4250317"><ele>4.0</ele><time>2026-05-02T08:22:52.359Z</time></trkpt><trkpt lat="39.9915817" lon="8.4248317"><ele>4.0</ele><time>2026-05-02T08:22:53.359Z</time></trkpt><trkpt lat="39.991695" lon="8.4246367"><ele>4.0</ele><time>2026-05-02T08:22:54.359Z</time></trkpt><trkpt lat="39.9918067" lon="8.424455"><ele>4.0</ele><time>2026-05-02T08:22:55.359Z</time></trkpt><trkpt lat="39.991935" lon="8.42429"><ele>4.0</ele><time>2026-05-02T08:22:56.359Z</time></trkpt><trkpt lat="39.99206" lon="8.4241567"><ele>4.0</ele><time>2026-05-02T08:22:57.359Z</time></trkpt><trkpt lat="39.992195" lon="8.424035"><ele>4.0</ele><time>2026-05-02T08:22:58.359Z</time></trkpt><trkpt lat="39.992355" lon="8.4239133"><ele>4.0</ele><time>2026-05-02T08:22:59.359Z</time></trkpt><trkpt lat="39.9925233" lon="8.4238017"><ele>4.0</ele><time>2026-05-02T08:23:00.359Z</time></trkpt><trkpt lat="39.9927033" lon="8.4237033"><ele>4.0</ele><time>2026-05-02T08:23:01.359Z</time></trkpt><trkpt lat="39.9928783" lon="8.42361"><ele>4.0</ele><time>2026-05-02T08:23:02.359Z</time></trkpt><trkpt lat="39.9930517" lon="8.4234983"><ele>4.0</ele><time>2026-05-02T08:23:03.359Z</time></trkpt><trkpt lat="39.99323" lon="8.4233817"><ele>4.0</ele><time>2026-05-02T08:23:04.359Z</time></trkpt><trkpt lat="39.9934167" lon="8.4232683"><ele>4.0</ele><time>2026-05-02T08:23:05.359Z</time></trkpt><trkpt lat="39.9935967" lon="8.42315"><ele>4.0</ele><time>2026-05-02T08:23:06.359Z</time></trkpt><trkpt lat="39.993785" lon="8.4230267"><ele>4.0</ele><time>2026-05-02T08:23:07.359Z</time></trkpt><trkpt lat="39.9939667" lon="8.4229067"><ele>4.0</ele><time>2026-05-02T08:23:08.359Z</time></trkpt><trkpt lat="39.9941533" lon="8.4227833"><ele>4.333333333333333</ele><time>2026-05-02T08:23:09.359Z</time></trkpt><trkpt lat="39.9943417" lon="8.4226567"><ele>4.666666666666667</ele><time>2026-05-02T08:23:10.359Z</time></trkpt><trkpt lat="39.99454" lon="8.4225367"><ele>5.0</ele><time>2026-05-02T08:23:11.359Z</time></trkpt><trkpt lat="39.9947283" lon="8.4224133"><ele>5.0</ele><time>2026-05-02T08:23:12.359Z</time></trkpt><trkpt lat="39.994915" lon="8.4223"><ele>5.0</ele><time>2026-05-02T08:23:13.359Z</time></trkpt><trkpt lat="39.9951033" lon="8.42219"><ele>5.0</ele><time>2026-05-02T08:23:14.359Z</time></trkpt><trkpt lat="39.9952883" lon="8.4220717"><ele>5.333333333333334</ele><time>2026-05-02T08:23:15.359Z</time></trkpt><trkpt lat="39.9954783" lon="8.4219533"><ele>5.666666666666667</ele><time>2026-05-02T08:23:16.359Z</time></trkpt><trkpt lat="39.995665" lon="8.4218383"><ele>6.0</ele><time>2026-05-02T08:23:17.359Z</time></trkpt><trkpt lat="39.9958583" lon="8.421715"><ele>6.0</ele><time>2026-05-02T08:23:18.359Z</time></trkpt><trkpt lat="39.9960367" lon="8.4215867"><ele>6.0</ele><time>2026-05-02T08:23:19.359Z</time></trkpt><trkpt lat="39.9962183" lon="8.4214533"><ele>6.0</ele><time>2026-05-02T08:23:20.359Z</time></trkpt><trkpt lat="39.9963883" lon="8.4213083"><ele>6.333333333333334</ele><time>2026-05-02T08:23:21.359Z</time></trkpt><trkpt lat="39.9965533" lon="8.4211467"><ele>6.666666666666667</ele><time>2026-05-02T08:23:22.359Z</time></trkpt><trkpt lat="39.9967067" lon="8.4209867"><ele>7.0</ele><time>2026-05-02T08:23:23.359Z</time></trkpt><trkpt lat="39.9968483" lon="8.4208233"><ele>7.0</ele><time>2026-05-02T08:23:24.359Z</time></trkpt><trkpt lat="39.9969867" lon="8.4206417"><ele>7.0</ele><time>2026-05-02T08:23:25.359Z</time></trkpt><trkpt lat="39.9971167" lon="8.420465"><ele>7.0</ele><time>2026-05-02T08:23:26.359Z</time></trkpt><trkpt lat="39.9972483" lon="8.4202817"><ele>7.666666666666667</ele><time>2026-05-02T08:23:27.359Z</time></trkpt><trkpt lat="39.9973817" lon="8.4200967"><ele>8.333333333333334</ele><time>2026-05-02T08:23:28.359Z</time></trkpt><trkpt lat="39.9975183" lon="8.4199067"><ele>9.0</ele><time>2026-05-02T08:23:29.359Z</time></trkpt><trkpt lat="39.9976533" lon="8.4197233"><ele>9.333333333333334</ele><time>2026-05-02T08:23:30.359Z</time></trkpt><trkpt lat="39.9978" lon="8.4195317"><ele>9.666666666666668</ele><time>2026-05-02T08:23:31.359Z</time></trkpt><trkpt lat="39.997935" lon="8.4193367"><ele>10.0</ele><time>2026-05-02T08:23:32.359Z</time></trkpt><trkpt lat="39.9980833" lon="8.4191333"><ele>10.0</ele><time>2026-05-02T08:23:33.359Z</time></trkpt><trkpt lat="39.998225" lon="8.418945"><ele>10.0</ele><time>2026-05-02T08:23:34.359Z</time></trkpt><trkpt lat="39.9983617" lon="8.4187617"><ele>10.0</ele><time>2026-05-02T08:23:35.359Z</time></trkpt><trkpt lat="39.9985067" lon="8.418585"><ele>10.0</ele><time>2026-05-02T08:23:36.359Z</time></trkpt><trkpt lat="39.9986483" lon="8.4183983"><ele>10.0</ele><time>2026-05-02T08:23:37.359Z</time></trkpt><trkpt lat="39.9987917" lon="8.418215"><ele>10.0</ele><time>2026-05-02T08:23:38.359Z</time></trkpt><trkpt lat="39.9989417" lon="8.4180367"><ele>10.333333333333334</ele><time>2026-05-02T08:23:39.359Z</time></trkpt><trkpt lat="39.99909" lon="8.4178617"><ele>10.666666666666666</ele><time>2026-05-02T08:23:40.359Z</time></trkpt><trkpt lat="39.9992417" lon="8.4176933"><ele>11.0</ele><time>2026-05-02T08:23:41.359Z</time></trkpt><trkpt lat="39.9994" lon="8.41754"><ele>11.0</ele><time>2026-05-02T08:23:42.359Z</time></trkpt><trkpt lat="39.9995533" lon="8.41738"><ele>11.0</ele><time>2026-05-02T08:23:43.359Z</time></trkpt><trkpt lat="39.9997083" lon="8.41723"><ele>11.0</ele><time>2026-05-02T08:23:44.359Z</time></trkpt><trkpt lat="39.9998683" lon="8.4170783"><ele>11.666666666666666</ele><time>2026-05-02T08:23:45.359Z</time></trkpt><trkpt lat="40.000025" lon="8.41693"><ele>12.333333333333332</ele><time>2026-05-02T08:23:46.359Z</time></trkpt><trkpt lat="40.00017" lon="8.4167867"><ele>13.0</ele><time>2026-05-02T08:23:47.359Z</time></trkpt><trkpt lat="40.00032" lon="8.416635"><ele>13.0</ele><time>2026-05-02T08:23:48.359Z</time></trkpt><trkpt lat="40.00047" lon="8.416485"><ele>13.0</ele><time>2026-05-02T08:23:49.359Z</time></trkpt><trkpt lat="40.0006283" lon="8.4163417"><ele>13.0</ele><time>2026-05-02T08:23:50.359Z</time></trkpt><trkpt lat="40.00079" lon="8.416195"><ele>13.666666666666666</ele><time>2026-05-02T08:23:51.359Z</time></trkpt><trkpt lat="40.000955" lon="8.4160683"><ele>14.333333333333332</ele><time>2026-05-02T08:23:52.359Z</time></trkpt><trkpt lat="40.00114" lon="8.4159667"><ele>15.0</ele><time>2026-05-02T08:23:53.359Z</time></trkpt><trkpt lat="40.0013333" lon="8.4159167"><ele>15.0</ele><time>2026-05-02T08:23:54.359Z</time></trkpt><trkpt lat="40.0015133" lon="8.4158917"><ele>15.0</ele><time>2026-05-02T08:23:55.359Z</time></trkpt><trkpt lat="40.0017183" lon="8.4158933"><ele>15.0</ele><time>2026-05-02T08:23:56.359Z</time></trkpt><trkpt lat="40.0019217" lon="8.41594"><ele>16.0</ele><time>2026-05-02T08:23:57.359Z</time></trkpt><trkpt lat="40.0021217" lon="8.416015"><ele>17.0</ele><time>2026-05-02T08:23:58.359Z</time></trkpt><trkpt lat="40.0023133" lon="8.4161033"><ele>18.0</ele><time>2026-05-02T08:23:59.359Z</time></trkpt><trkpt lat="40.0025117" lon="8.4161667"><ele>19.0</ele><time>2026-05-02T08:24:00.359Z</time></trkpt><trkpt lat="40.0027267" lon="8.4162083"><ele>20.0</ele><time>2026-05-02T08:24:01.359Z</time></trkpt><trkpt lat="40.002945" lon="8.4162217"><ele>21.0</ele><time>2026-05-02T08:24:02.359Z</time></trkpt><trkpt lat="40.0031533" lon="8.4162167"><ele>21.666666666666668</ele><time>2026-05-02T08:24:03.359Z</time></trkpt><trkpt lat="40.00337" lon="8.4161783"><ele>22.333333333333336</ele><time>2026-05-02T08:24:04.359Z</time></trkpt><trkpt lat="40.0035717" lon="8.4161083"><ele>23.0</ele><time>2026-05-02T08:24:05.359Z</time></trkpt><trkpt lat="40.00378" lon="8.4160217"><ele>23.0</ele><time>2026-05-02T08:24:06.359Z</time></trkpt><trkpt lat="40.003975" lon="8.415935"><ele>23.0</ele><time>2026-05-02T08:24:07.359Z</time></trkpt><trkpt lat="40.00418" lon="8.415855"><ele>23.0</ele><time>2026-05-02T08:24:08.359Z</time></trkpt><trkpt lat="40.0044017" lon="8.4157683"><ele>21.666666666666668</ele><time>2026-05-02T08:24:09.359Z</time></trkpt><trkpt lat="40.00461" lon="8.4156817"><ele>20.333333333333332</ele><time>2026-05-02T08:24:10.359Z</time></trkpt><trkpt lat="40.0048267" lon="8.4155967"><ele>19.0</ele><time>2026-05-02T08:24:11.359Z</time></trkpt><trkpt lat="40.0050333" lon="8.41553"><ele>20.5</ele><time>2026-05-02T08:24:12.359Z</time></trkpt><trkpt lat="40.005255" lon="8.41544"><ele>22.0</ele><time>2026-05-02T08:24:13.359Z</time></trkpt><trkpt lat="40.0054733" lon="8.4153417"><ele>22.0</ele><time>2026-05-02T08:24:14.359Z</time></trkpt><trkpt lat="40.00569" lon="8.4152517"><ele>22.0</ele><time>2026-05-02T08:24:15.359Z</time></trkpt><trkpt lat="40.0059" lon="8.4151317"><ele>20.666666666666664</ele><time>2026-05-02T08:24:16.359Z</time></trkpt><trkpt lat="40.0061083" lon="8.4150167"><ele>19.333333333333332</ele><time>2026-05-02T08:24:17.359Z</time></trkpt><trkpt lat="40.0063083" lon="8.414895"><ele>18.0</ele><time>2026-05-02T08:24:18.359Z</time></trkpt><trkpt lat="40.0065133" lon="8.4147667"><ele>18.0</ele><time>2026-05-02T08:24:19.359Z</time></trkpt><trkpt lat="40.0067183" lon="8.4146367"><ele>18.0</ele><time>2026-05-02T08:24:20.359Z</time></trkpt><trkpt lat="40.00691" lon="8.4144967"><ele>18.0</ele><time>2026-05-02T08:24:21.359Z</time></trkpt><trkpt lat="40.007105" lon="8.41435"><ele>18.0</ele><time>2026-05-02T08:24:22.359Z</time></trkpt><trkpt lat="40.0072933" lon="8.4141833"><ele>18.0</ele><time>2026-05-02T08:24:23.359Z</time></trkpt><trkpt lat="40.0074683" lon="8.4140267"><ele>18.0</ele><time>2026-05-02T08:24:24.359Z</time></trkpt><trkpt lat="40.0076433" lon="8.4138767"><ele>17.0</ele><time>2026-05-02T08:24:25.359Z</time></trkpt><trkpt lat="40.0078067" lon="8.4137417"><ele>16.0</ele><time>2026-05-02T08:24:26.359Z</time></trkpt><trkpt lat="40.0079633" lon="8.413625"><ele>15.0</ele><time>2026-05-02T08:24:27.359Z</time></trkpt><trkpt lat="40.00812" lon="8.41353"><ele>15.0</ele><time>2026-05-02T08:24:28.359Z</time></trkpt><trkpt lat="40.0082833" lon="8.41347"><ele>15.0</ele><time>2026-05-02T08:24:29.359Z</time></trkpt><trkpt lat="40.0084617" lon="8.4134533"><ele>15.0</ele><time>2026-05-02T08:24:30.359Z</time></trkpt><trkpt lat="40.0086417" lon="8.4134783"><ele>14.333333333333332</ele><time>2026-05-02T08:24:31.359Z</time></trkpt><trkpt lat="40.00882" lon="8.4135367"><ele>13.666666666666666</ele><time>2026-05-02T08:24:32.359Z</time></trkpt><trkpt lat="40.008975" lon="8.413635"><ele>13.0</ele><time>2026-05-02T08:24:33.359Z</time></trkpt><trkpt lat="40.0091183" lon="8.41379"><ele>12.666666666666666</ele><time>2026-05-02T08:24:34.359Z</time></trkpt><trkpt lat="40.009245" lon="8.4139717"><ele>12.333333333333332</ele><time>2026-05-02T08:24:35.359Z</time></trkpt><trkpt lat="40.0093667" lon="8.4141767"><ele>12.0</ele><time>2026-05-02T08:24:36.359Z</time></trkpt><trkpt lat="40.009465" lon="8.4144017"><ele>12.0</ele><time>2026-05-02T08:24:37.359Z</time></trkpt><trkpt lat="40.0095683" lon="8.4146417"><ele>12.0</ele><time>2026-05-02T08:24:38.359Z</time></trkpt><trkpt lat="40.00966" lon="8.4148867"><ele>12.0</ele><time>2026-05-02T08:24:39.359Z</time></trkpt><trkpt lat="40.0097583" lon="8.4151317"><ele>12.666666666666668</ele><time>2026-05-02T08:24:40.359Z</time></trkpt><trkpt lat="40.0098583" lon="8.4153683"><ele>13.333333333333334</ele><time>2026-05-02T08:24:41.359Z</time></trkpt><trkpt lat="40.0099617" lon="8.4155717"><ele>14.0</ele><time>2026-05-02T08:24:42.359Z</time></trkpt><trkpt lat="40.0100667" lon="8.4157733"><ele>12.666666666666668</ele><time>2026-05-02T08:24:43.359Z</time></trkpt><trkpt lat="40.0101833" lon="8.4159717"><ele>11.333333333333334</ele><time>2026-05-02T08:24:44.359Z</time></trkpt><trkpt lat="40.0103067" lon="8.41616"><ele>10.0</ele><time>2026-05-02T08:24:45.359Z</time></trkpt><trkpt lat="40.01044" lon="8.4163283"><ele>9.0</ele><time>2026-05-02T08:24:46.359Z</time></trkpt><trkpt lat="40.0105917" lon="8.4164867"><ele>8.0</ele><time>2026-05-02T08:24:47.359Z</time></trkpt><trkpt lat="40.0107533" lon="8.4166433"><ele>7.0</ele><time>2026-05-02T08:24:48.359Z</time></trkpt><trkpt lat="40.0109133" lon="8.4168"><ele>7.0</ele><time>2026-05-02T08:24:49.359Z</time></trkpt><trkpt lat="40.0110767" lon="8.4169683"><ele>7.0</ele><time>2026-05-02T08:24:50.359Z</time></trkpt><trkpt lat="40.011235" lon="8.4171183"><ele>7.0</ele><time>2026-05-02T08:24:51.359Z</time></trkpt><trkpt lat="40.0113917" lon="8.4172617"><ele>6.666666666666667</ele><time>2026-05-02T08:24:52.359Z</time></trkpt><trkpt lat="40.0115467" lon="8.4173933"><ele>6.333333333333334</ele><time>2026-05-02T08:24:53.359Z</time></trkpt><trkpt lat="40.0116983" lon="8.4175167"><ele>6.0</ele><time>2026-05-02T08:24:54.359Z</time></trkpt><trkpt lat="40.01187" lon="8.41762"><ele>5.666666666666667</ele><time>2026-05-02T08:24:55.359Z</time></trkpt><trkpt lat="40.01206" lon="8.417705"><ele>5.333333333333334</ele><time>2026-05-02T08:24:56.359Z</time></trkpt><trkpt lat="40.012245" lon="8.41779"><ele>5.0</ele><time>2026-05-02T08:24:57.359Z</time></trkpt><trkpt lat="40.012425" lon="8.4178433"><ele>5.0</ele><time>2026-05-02T08:24:58.359Z</time></trkpt><trkpt lat="40.0126183" lon="8.417895"><ele>5.0</ele><time>2026-05-02T08:24:59.359Z</time></trkpt><trkpt lat="40.0128033" lon="8.417945"><ele>5.0</ele><time>2026-05-02T08:25:00.359Z</time></trkpt><trkpt lat="40.0129933" lon="8.417985"><ele>4.666666666666667</ele><time>2026-05-02T08:25:01.359Z</time></trkpt><trkpt lat="40.0131833" lon="8.4180367"><ele>4.333333333333333</ele><time>2026-05-02T08:25:02.359Z</time></trkpt><trkpt lat="40.013385" lon="8.4180867"><ele>4.0</ele><time>2026-05-02T08:25:03.359Z</time></trkpt><trkpt lat="40.0135867" lon="8.4181283"><ele>3.6666666666666665</ele><time>2026-05-02T08:25:04.359Z</time></trkpt><trkpt lat="40.013785" lon="8.418185"><ele>3.333333333333333</ele><time>2026-05-02T08:25:05.359Z</time></trkpt><trkpt lat="40.0139867" lon="8.4182417"><ele>3.0</ele><time>2026-05-02T08:25:06.359Z</time></trkpt><trkpt lat="40.0141883" lon="8.41829"><ele>3.0</ele><time>2026-05-02T08:25:07.359Z</time></trkpt><trkpt lat="40.0143933" lon="8.4183283"><ele>3.0</ele><time>2026-05-02T08:25:08.359Z</time></trkpt><trkpt lat="40.0145967" lon="8.41836"><ele>3.0</ele><time>2026-05-02T08:25:09.359Z</time></trkpt><trkpt lat="40.0147817" lon="8.4183733"><ele>3.0</ele><time>2026-05-02T08:25:10.359Z</time></trkpt><trkpt lat="40.0149767" lon="8.4183783"><ele>3.0</ele><time>2026-05-02T08:25:11.359Z</time></trkpt><trkpt lat="40.015175" lon="8.418375"><ele>3.0</ele><time>2026-05-02T08:25:12.359Z</time></trkpt><trkpt lat="40.0153633" lon="8.4183483"><ele>3.0</ele><time>2026-05-02T08:25:13.359Z</time></trkpt><trkpt lat="40.0155233" lon="8.4183317"><ele>3.0</ele><time>2026-05-02T08:25:14.359Z</time></trkpt><trkpt lat="40.0156783" lon="8.4183083"><ele>3.0</ele><time>2026-05-02T08:25:15.359Z</time></trkpt><trkpt lat="40.0158383" lon="8.4182967"><ele>2.6666666666666665</ele><time>2026-05-02T08:25:16.359Z</time></trkpt><trkpt lat="40.0160033" lon="8.418275"><ele>2.333333333333333</ele><time>2026-05-02T08:25:17.359Z</time></trkpt><trkpt lat="40.0161717" lon="8.4182467"><ele>2.0</ele><time>2026-05-02T08:25:18.359Z</time></trkpt><trkpt lat="40.0163267" lon="8.418225"><ele>2.0</ele><time>2026-05-02T08:25:19.359Z</time></trkpt><trkpt lat="40.0164933" lon="8.4182017"><ele>2.0</ele><time>2026-05-02T08:25:20.359Z</time></trkpt><trkpt lat="40.016655" lon="8.4181867"><ele>2.0</ele><time>2026-05-02T08:25:21.359Z</time></trkpt><trkpt lat="40.01682" lon="8.418165"><ele>2.333333333333333</ele><time>2026-05-02T08:25:22.359Z</time></trkpt><trkpt lat="40.016985" lon="8.418145"><ele>2.6666666666666665</ele><time>2026-05-02T08:25:23.359Z</time></trkpt><trkpt lat="40.017145" lon="8.4181267"><ele>3.0</ele><time>2026-05-02T08:25:24.359Z</time></trkpt><trkpt lat="40.0173033" lon="8.41811"><ele>3.0</ele><time>2026-05-02T08:25:25.359Z</time></trkpt><trkpt lat="40.01746" lon="8.4180933"><ele>3.0</ele><time>2026-05-02T08:25:26.359Z</time></trkpt><trkpt lat="40.0175983" lon="8.4180867"><ele>3.0</ele><time>2026-05-02T08:25:27.359Z</time></trkpt><trkpt lat="40.01773" lon="8.4180733"><ele>3.0</ele><time>2026-05-02T08:25:28.359Z</time></trkpt><trkpt lat="40.0178533" lon="8.4180633"><ele>3.0</ele><time>2026-05-02T08:25:29.359Z</time></trkpt><trkpt lat="40.0179667" lon="8.4180517"><ele>3.0</ele><time>2026-05-02T08:25:30.359Z</time></trkpt><trkpt lat="40.018075" lon="8.418035"><ele>3.0</ele><time>2026-05-02T08:25:31.359Z</time></trkpt><trkpt lat="40.0181667" lon="8.4180233"><ele>3.0</ele><time>2026-05-02T08:25:32.359Z</time></trkpt><trkpt lat="40.0182433" lon="8.41802"><ele>3.0</ele><time>2026-05-02T08:25:33.359Z</time></trkpt><trkpt lat="40.0183217" lon="8.41801"><ele>3.0</ele><time>2026-05-02T08:25:34.359Z</time></trkpt><trkpt lat="40.0184217" lon="8.4180467"><ele>3.0</ele><time>2026-05-02T08:25:36.359Z</time></trkpt><trkpt lat="40.0185033" lon="8.4182017"><ele>3.0</ele><time>2026-05-02T08:25:38.359Z</time></trkpt><trkpt lat="40.0185567" lon="8.4183217"><ele>3.0</ele><time>2026-05-02T08:25:39.359Z</time></trkpt><trkpt lat="40.0186267" lon="8.4184533"><ele>3.0</ele><time>2026-05-02T08:25:40.359Z</time></trkpt><trkpt lat="40.0186933" lon="8.4185767"><ele>3.0</ele><time>2026-05-02T08:25:41.359Z</time></trkpt><trkpt lat="40.0187567" lon="8.4186867"><ele>3.0</ele><time>2026-05-02T08:25:42.359Z</time></trkpt><trkpt lat="40.0188117" lon="8.418765"><ele>3.0</ele><time>2026-05-02T08:25:43.359Z</time></trkpt><trkpt lat="40.018875" lon="8.41883"><ele>3.0</ele><time>2026-05-02T08:25:44.359Z</time></trkpt><trkpt lat="40.018945" lon="8.4188733"><ele>3.1666666666666665</ele><time>2026-05-02T08:25:45.359Z</time></trkpt><trkpt lat="40.0190183" lon="8.4188933"><ele>3.333333333333333</ele><time>2026-05-02T08:25:46.359Z</time></trkpt><trkpt lat="40.0190933" lon="8.4188883"><ele>3.5</ele><time>2026-05-02T08:25:47.359Z</time></trkpt><trkpt lat="40.019165" lon="8.4188867"><ele>3.6666666666666665</ele><time>2026-05-02T08:25:48.359Z</time></trkpt><trkpt lat="40.0192367" lon="8.418905"><ele>3.833333333333333</ele><time>2026-05-02T08:25:49.359Z</time></trkpt><trkpt lat="40.0193067" lon="8.41896"><ele>4.0</ele><time>2026-05-02T08:25:50.359Z</time></trkpt><trkpt lat="40.0193633" lon="8.4190417"><ele>4.0</ele><time>2026-05-02T08:25:51.359Z</time></trkpt><trkpt lat="40.01941" lon="8.419145"><ele>4.0</ele><time>2026-05-02T08:25:52.359Z</time></trkpt><trkpt lat="40.01946" lon="8.419255"><ele>4.0</ele><time>2026-05-02T08:25:53.359Z</time></trkpt><trkpt lat="40.019515" lon="8.4193833"><ele>4.0</ele><time>2026-05-02T08:25:54.359Z</time></trkpt><trkpt lat="40.0195567" lon="8.419505"><ele>4.0</ele><time>2026-05-02T08:25:55.359Z</time></trkpt><trkpt lat="40.0195967" lon="8.4196217"><ele>4.0</ele><time>2026-05-02T08:25:56.359Z</time></trkpt><trkpt lat="40.0196233" lon="8.4197417"><ele>4.0</ele><time>2026-05-02T08:25:57.359Z</time></trkpt><trkpt lat="40.01964" lon="8.4198733"><ele>4.0</ele><time>2026-05-02T08:25:58.359Z</time></trkpt><trkpt lat="40.0196533" lon="8.4200117"><ele>4.0</ele><time>2026-05-02T08:25:59.359Z</time></trkpt><trkpt lat="40.0196717" lon="8.420155"><ele>4.0</ele><time>2026-05-02T08:26:00.359Z</time></trkpt><trkpt lat="40.01969" lon="8.4202917"><ele>4.0</ele><time>2026-05-02T08:26:01.359Z</time></trkpt><trkpt lat="40.01971" lon="8.4204267"><ele>4.0</ele><time>2026-05-02T08:26:02.359Z</time></trkpt><trkpt lat="40.019745" lon="8.42057"><ele>4.0</ele><time>2026-05-02T08:26:03.359Z</time></trkpt><trkpt lat="40.0198117" lon="8.4206883"><ele>4.0</ele><time>2026-05-02T08:26:04.359Z</time></trkpt><trkpt lat="40.019895" lon="8.4207967"><ele>4.2</ele><time>2026-05-02T08:26:05.359Z</time></trkpt><trkpt lat="40.01998" lon="8.4209017"><ele>4.4</ele><time>2026-05-02T08:26:06.359Z</time></trkpt><trkpt lat="40.0200317" lon="8.42099"><ele>4.6</ele><time>2026-05-02T08:26:07.359Z</time></trkpt><trkpt lat="40.0200567" lon="8.4210683"><ele>4.8</ele><time>2026-05-02T08:26:08.359Z</time></trkpt><trkpt lat="40.02003" lon="8.4212417"><ele>5.0</ele><time>2026-05-02T08:26:10.359Z</time></trkpt><trkpt lat="40.0199933" lon="8.421345"><ele>5.2</ele><time>2026-05-02T08:26:11.359Z</time></trkpt><trkpt lat="40.0199617" lon="8.421455"><ele>5.4</ele><time>2026-05-02T08:26:12.359Z</time></trkpt><trkpt lat="40.01995" lon="8.4215833"><ele>5.6</ele><time>2026-05-02T08:26:13.359Z</time></trkpt><trkpt lat="40.019955" lon="8.4217233"><ele>5.8</ele><time>2026-05-02T08:26:14.359Z</time></trkpt><trkpt lat="40.0199767" lon="8.42186"><ele>6.0</ele><time>2026-05-02T08:26:15.359Z</time></trkpt><trkpt lat="40.0200167" lon="8.42201"><ele>6.0</ele><time>2026-05-02T08:26:16.359Z</time></trkpt><trkpt lat="40.0200767" lon="8.4221633"><ele>6.0</ele><time>2026-05-02T08:26:17.359Z</time></trkpt><trkpt lat="40.02016" lon="8.422295"><ele>6.0</ele><time>2026-05-02T08:26:18.359Z</time></trkpt><trkpt lat="40.020235" lon="8.42245"><ele>6.0</ele><time>2026-05-02T08:26:19.359Z</time></trkpt><trkpt lat="40.0202983" lon="8.422615"><ele>6.0</ele><time>2026-05-02T08:26:20.359Z</time></trkpt><trkpt lat="40.0203483" lon="8.4227967"><ele>6.0</ele><time>2026-05-02T08:26:21.359Z</time></trkpt><trkpt lat="40.0203833" lon="8.4229833"><ele>6.0</ele><time>2026-05-02T08:26:22.359Z</time></trkpt><trkpt lat="40.0204167" lon="8.4231833"><ele>6.666666666666666</ele><time>2026-05-02T08:26:23.359Z</time></trkpt><trkpt lat="40.0204233" lon="8.4234017"><ele>7.333333333333333</ele><time>2026-05-02T08:26:24.359Z</time></trkpt><trkpt lat="40.0204417" lon="8.42362"><ele>8.0</ele><time>2026-05-02T08:26:25.359Z</time></trkpt><trkpt lat="40.0204783" lon="8.4238283"><ele>8.333333333333332</ele><time>2026-05-02T08:26:26.359Z</time></trkpt><trkpt lat="40.0204933" lon="8.4240467"><ele>8.666666666666666</ele><time>2026-05-02T08:26:27.359Z</time></trkpt><trkpt lat="40.0205167" lon="8.424245"><ele>9.0</ele><time>2026-05-02T08:26:28.359Z</time></trkpt><trkpt lat="40.0205267" lon="8.424415"><ele>9.0</ele><time>2026-05-02T08:26:29.359Z</time></trkpt><trkpt lat="40.0205333" lon="8.4245833"><ele>9.0</ele><time>2026-05-02T08:26:30.359Z</time></trkpt><trkpt lat="40.0205233" lon="8.4247483"><ele>9.0</ele><time>2026-05-02T08:26:31.359Z</time></trkpt><trkpt lat="40.0205" lon="8.42493"><ele>9.0</ele><time>2026-05-02T08:26:32.359Z</time></trkpt><trkpt lat="40.0204733" lon="8.42513"><ele>9.0</ele><time>2026-05-02T08:26:33.359Z</time></trkpt><trkpt lat="40.020445" lon="8.4253333"><ele>9.0</ele><time>2026-05-02T08:26:34.359Z</time></trkpt><trkpt lat="40.0204083" lon="8.4255533"><ele>9.0</ele><time>2026-05-02T08:26:35.359Z</time></trkpt><trkpt lat="40.0203667" lon="8.42579"><ele>9.333333333333334</ele><time>2026-05-02T08:26:36.359Z</time></trkpt><trkpt lat="40.0203267" lon="8.4260067"><ele>9.666666666666668</ele><time>2026-05-02T08:26:37.359Z</time></trkpt><trkpt lat="40.020285" lon="8.4262183"><ele>10.0</ele><time>2026-05-02T08:26:38.359Z</time></trkpt><trkpt lat="40.0202517" lon="8.4264317"><ele>10.0</ele><time>2026-05-02T08:26:39.359Z</time></trkpt><trkpt lat="40.02022" lon="8.42664"><ele>10.0</ele><time>2026-05-02T08:26:40.359Z</time></trkpt><trkpt lat="40.0201917" lon="8.42684"><ele>10.0</ele><time>2026-05-02T08:26:41.359Z</time></trkpt><trkpt lat="40.0201583" lon="8.4270167"><ele>9.8</ele><time>2026-05-02T08:26:42.359Z</time></trkpt><trkpt lat="40.02014" lon="8.4271517"><ele>9.6</ele><time>2026-05-02T08:26:43.359Z</time></trkpt><trkpt lat="40.0201183" lon="8.4272667"><ele>9.4</ele><time>2026-05-02T08:26:44.359Z</time></trkpt><trkpt lat="40.0201033" lon="8.4273883"><ele>9.2</ele><time>2026-05-02T08:26:45.359Z</time></trkpt><trkpt lat="40.02011" lon="8.4275017"><ele>9.0</ele><time>2026-05-02T08:26:46.359Z</time></trkpt><trkpt lat="40.0201317" lon="8.4276133"><ele>9.0</ele><time>2026-05-02T08:26:47.359Z</time></trkpt><trkpt lat="40.0201833" lon="8.4277367"><ele>9.0</ele><time>2026-05-02T08:26:48.359Z</time></trkpt><trkpt lat="40.0202383" lon="8.4278783"><ele>9.0</ele><time>2026-05-02T08:26:49.359Z</time></trkpt><trkpt lat="40.02031" lon="8.42803"><ele>9.0</ele><time>2026-05-02T08:26:50.359Z</time></trkpt><trkpt lat="40.0203917" lon="8.42816"><ele>8.5</ele><time>2026-05-02T08:26:51.359Z</time></trkpt><trkpt lat="40.0204783" lon="8.4283"><ele>8.0</ele><time>2026-05-02T08:26:52.359Z</time></trkpt><trkpt lat="40.0205617" lon="8.428435"><ele>7.5</ele><time>2026-05-02T08:26:53.359Z</time></trkpt><trkpt lat="40.0206467" lon="8.4285567"><ele>7.0</ele><time>2026-05-02T08:26:54.359Z</time></trkpt><trkpt lat="40.0207183" lon="8.42866"><ele>7.0</ele><time>2026-05-02T08:26:55.359Z</time></trkpt><trkpt lat="40.020775" lon="8.4287733"><ele>6.999999999999999</ele><time>2026-05-02T08:26:56.359Z</time></trkpt><trkpt lat="40.0208133" lon="8.4289"><ele>6.999999999999999</ele><time>2026-05-02T08:26:57.359Z</time></trkpt><trkpt lat="40.020845" lon="8.4290283"><ele>7.0</ele><time>2026-05-02T08:26:58.359Z</time></trkpt><trkpt lat="40.0208717" lon="8.4291667"><ele>7.0</ele><time>2026-05-02T08:26:59.359Z</time></trkpt><trkpt lat="40.0208917" lon="8.429315"><ele>7.0</ele><time>2026-05-02T08:27:00.359Z</time></trkpt><trkpt lat="40.0209083" lon="8.4294533"><ele>6.999999999999999</ele><time>2026-05-02T08:27:01.359Z</time></trkpt><trkpt lat="40.02093" lon="8.4295917"><ele>6.999999999999999</ele><time>2026-05-02T08:27:02.359Z</time></trkpt><trkpt lat="40.0209617" lon="8.4297317"><ele>7.0</ele><time>2026-05-02T08:27:03.359Z</time></trkpt><trkpt lat="40.021005" lon="8.429865"><ele>7.0</ele><time>2026-05-02T08:27:04.359Z</time></trkpt><trkpt lat="40.0210617" lon="8.4300117"><ele>7.0</ele><time>2026-05-02T08:27:05.359Z</time></trkpt><trkpt lat="40.0211333" lon="8.43016"><ele>7.0</ele><time>2026-05-02T08:27:06.359Z</time></trkpt><trkpt lat="40.0212117" lon="8.430315"><ele>7.0</ele><time>2026-05-02T08:27:07.359Z</time></trkpt><trkpt lat="40.021275" lon="8.4304833"><ele>7.0</ele><time>2026-05-02T08:27:08.359Z</time></trkpt><trkpt lat="40.0213267" lon="8.430645"><ele>6.75</ele><time>2026-05-02T08:27:09.359Z</time></trkpt><trkpt lat="40.0213733" lon="8.4308233"><ele>6.5</ele><time>2026-05-02T08:27:10.359Z</time></trkpt><trkpt lat="40.0214133" lon="8.4309867"><ele>6.25</ele><time>2026-05-02T08:27:11.359Z</time></trkpt><trkpt lat="40.02146" lon="8.4311567"><ele>6.0</ele><time>2026-05-02T08:27:12.359Z</time></trkpt><trkpt lat="40.021535" lon="8.4313283"><ele>5.75</ele><time>2026-05-02T08:27:13.359Z</time></trkpt><trkpt lat="40.0216217" lon="8.4314983"><ele>5.5</ele><time>2026-05-02T08:27:14.359Z</time></trkpt><trkpt lat="40.0216817" lon="8.4316433"><ele>5.25</ele><time>2026-05-02T08:27:15.359Z</time></trkpt><trkpt lat="40.02174" lon="8.4317883"><ele>5.0</ele><time>2026-05-02T08:27:16.359Z</time></trkpt><trkpt lat="40.021795" lon="8.4319267"><ele>5.0</ele><time>2026-05-02T08:27:17.359Z</time></trkpt><trkpt lat="40.0218517" lon="8.4320617"><ele>5.0</ele><time>2026-05-02T08:27:18.359Z</time></trkpt><trkpt lat="40.021915" lon="8.4321983"><ele>5.0</ele><time>2026-05-02T08:27:19.359Z</time></trkpt><trkpt lat="40.0219817" lon="8.43232"><ele>5.0</ele><time>2026-05-02T08:27:20.359Z</time></trkpt><trkpt lat="40.0220517" lon="8.43244"><ele>4.5</ele><time>2026-05-02T08:27:21.359Z</time></trkpt><trkpt lat="40.0221333" lon="8.4325683"><ele>4.0</ele><time>2026-05-02T08:27:22.359Z</time></trkpt><trkpt lat="40.0222083" lon="8.43269"><ele>3.5</ele><time>2026-05-02T08:27:23.359Z</time></trkpt><trkpt lat="40.0222817" lon="8.4327983"><ele>3.0</ele><time>2026-05-02T08:27:24.359Z</time></trkpt><trkpt lat="40.0223633" lon="8.4329017"><ele>2.8</ele><time>2026-05-02T08:27:25.359Z</time></trkpt><trkpt lat="40.0224483" lon="8.4329883"><ele>2.5999999999999996</ele><time>2026-05-02T08:27:26.359Z</time></trkpt><trkpt lat="40.0225317" lon="8.433085"><ele>2.4000000000000004</ele><time>2026-05-02T08:27:27.359Z</time></trkpt><trkpt lat="40.0226117" lon="8.4332"><ele>2.2</ele><time>2026-05-02T08:27:28.359Z</time></trkpt><trkpt lat="40.0226733" lon="8.4333117"><ele>2.0</ele><time>2026-05-02T08:27:29.359Z</time></trkpt><trkpt lat="40.0227267" lon="8.433425"><ele>1.8</ele><time>2026-05-02T08:27:30.359Z</time></trkpt><trkpt lat="40.0227833" lon="8.433535"><ele>1.6</ele><time>2026-05-02T08:27:31.359Z</time></trkpt><trkpt lat="40.0228467" lon="8.4336517"><ele>1.4000000000000001</ele><time>2026-05-02T08:27:32.359Z</time></trkpt><trkpt lat="40.022925" lon="8.4337667"><ele>1.2000000000000002</ele><time>2026-05-02T08:27:33.359Z</time></trkpt><trkpt lat="40.023" lon="8.4338783"><ele>1.0</ele><time>2026-05-02T08:27:34.359Z</time></trkpt><trkpt lat="40.0230783" lon="8.4339967"><ele>1.0</ele><time>2026-05-02T08:27:35.359Z</time></trkpt><trkpt lat="40.023165" lon="8.4341133"><ele>1.0</ele><time>2026-05-02T08:27:36.359Z</time></trkpt><trkpt lat="40.0232567" lon="8.4342133"><ele>1.0</ele><time>2026-05-02T08:27:37.359Z</time></trkpt><trkpt lat="40.0233483" lon="8.4343"><ele>1.0</ele><time>2026-05-02T08:27:38.359Z</time></trkpt><trkpt lat="40.023445" lon="8.4343917"><ele>1.0</ele><time>2026-05-02T08:27:39.359Z</time></trkpt><trkpt lat="40.0235367" lon="8.4344733"><ele>1.0</ele><time>2026-05-02T08:27:40.359Z</time></trkpt><trkpt lat="40.0236283" lon="8.434555"><ele>1.0</ele><time>2026-05-02T08:27:41.359Z</time></trkpt><trkpt lat="40.0237167" lon="8.43467"><ele>1.0</ele><time>2026-05-02T08:27:42.359Z</time></trkpt><trkpt lat="40.02382" lon="8.43479"><ele>1.0</ele><time>2026-05-02T08:27:43.359Z</time></trkpt><trkpt lat="40.023925" lon="8.4349"><ele>1.0</ele><time>2026-05-02T08:27:44.359Z</time></trkpt><trkpt lat="40.024025" lon="8.4350033"><ele>1.0</ele><time>2026-05-02T08:27:45.359Z</time></trkpt><trkpt lat="40.0241167" lon="8.435085"><ele>1.0</ele><time>2026-05-02T08:27:46.359Z</time></trkpt><trkpt lat="40.0242" lon="8.435155"><ele>0.8333333333333333</ele><time>2026-05-02T08:27:47.359Z</time></trkpt><trkpt lat="40.02427" lon="8.4351917"><ele>0.6666666666666666</ele><time>2026-05-02T08:27:48.359Z</time></trkpt><trkpt lat="40.02435" lon="8.43521"><ele>0.5</ele><time>2026-05-02T08:27:49.359Z</time></trkpt><trkpt lat="40.024415" lon="8.4352317"><ele>0.3333333333333333</ele><time>2026-05-02T08:27:50.359Z</time></trkpt><trkpt lat="40.0245217" lon="8.43533"><ele>0.16666666666666666</ele><time>2026-05-02T08:27:52.359Z</time></trkpt><trkpt lat="40.02457" lon="8.435395"><ele>0.0</ele><time>2026-05-02T08:27:53.359Z</time></trkpt><trkpt lat="40.0246083" lon="8.435465"><ele>0.0</ele><time>2026-05-02T08:27:54.359Z</time></trkpt><trkpt lat="40.0246433" lon="8.4355367"><ele>0.0</ele><time>2026-05-02T08:27:55.359Z</time></trkpt><trkpt lat="40.0246817" lon="8.4356183"><ele>0.0</ele><time>2026-05-02T08:27:56.359Z</time></trkpt><trkpt lat="40.0247217" lon="8.4357067"><ele>0.0</ele><time>2026-05-02T08:27:57.359Z</time></trkpt><trkpt lat="40.0247733" lon="8.4358033"><ele>0.0</ele><time>2026-05-02T08:27:58.359Z</time></trkpt><trkpt lat="40.0248417" lon="8.435905"><ele>0.0</ele><time>2026-05-02T08:27:59.359Z</time></trkpt><trkpt lat="40.0249117" lon="8.4359917"><ele>0.0</ele><time>2026-05-02T08:28:00.359Z</time></trkpt><trkpt lat="40.024985" lon="8.4360883"><ele>0.0</ele><time>2026-05-02T08:28:01.359Z</time></trkpt><trkpt lat="40.0250583" lon="8.4361633"><ele>0.0</ele><time>2026-05-02T08:28:02.359Z</time></trkpt><trkpt lat="40.0251383" lon="8.436255"><ele>0.0</ele><time>2026-05-02T08:28:03.359Z</time></trkpt><trkpt lat="40.02522" lon="8.4363317"><ele>0.0</ele><time>2026-05-02T08:28:04.359Z</time></trkpt><trkpt lat="40.0252983" lon="8.43641"><ele>0.16666666666666666</ele><time>2026-05-02T08:28:05.359Z</time></trkpt><trkpt lat="40.025355" lon="8.4364683"><ele>0.3333333333333333</ele><time>2026-05-02T08:28:06.359Z</time></trkpt><trkpt lat="40.0254067" lon="8.4365583"><ele>0.5</ele><time>2026-05-02T08:28:08.359Z</time></trkpt><trkpt lat="40.0254033" lon="8.4366617"><ele>0.6666666666666666</ele><time>2026-05-02T08:28:12.359Z</time></trkpt><trkpt lat="40.0253983" lon="8.4367833"><ele>0.8333333333333333</ele><time>2026-05-02T08:28:15.359Z</time></trkpt><trkpt lat="40.0254017" lon="8.4369267"><ele>1.0</ele><time>2026-05-02T08:28:17.359Z</time></trkpt><trkpt lat="40.0254" lon="8.4370167"><ele>1.0</ele><time>2026-05-02T08:28:18.359Z</time></trkpt><trkpt lat="40.0254" lon="8.4371233"><ele>1.0</ele><time>2026-05-02T08:28:19.359Z</time></trkpt><trkpt lat="40.0253933" lon="8.4372283"><ele>1.0</ele><time>2026-05-02T08:28:20.359Z</time></trkpt><trkpt lat="40.02538" lon="8.437345"><ele>1.0</ele><time>2026-05-02T08:28:21.359Z</time></trkpt><trkpt lat="40.0253633" lon="8.437475"><ele>1.0</ele><time>2026-05-02T08:28:22.359Z</time></trkpt><trkpt lat="40.025355" lon="8.4376217"><ele>1.0</ele><time>2026-05-02T08:28:23.359Z</time></trkpt><trkpt lat="40.0253433" lon="8.4378"><ele>1.0</ele><time>2026-05-02T08:28:24.359Z</time></trkpt><trkpt lat="40.0253317" lon="8.4380117"><ele>1.0</ele><time>2026-05-02T08:28:25.359Z</time></trkpt><trkpt lat="40.025305" lon="8.4382433"><ele>1.0</ele><time>2026-05-02T08:28:26.359Z</time></trkpt><trkpt lat="40.0252783" lon="8.438475"><ele>1.0</ele><time>2026-05-02T08:28:27.359Z</time></trkpt><trkpt lat="40.02525" lon="8.438705"><ele>1.0</ele><time>2026-05-02T08:28:28.359Z</time></trkpt><trkpt lat="40.0252267" lon="8.438945"><ele>1.0</ele><time>2026-05-02T08:28:29.359Z</time></trkpt><trkpt lat="40.0252067" lon="8.439185"><ele>1.0</ele><time>2026-05-02T08:28:30.359Z</time></trkpt><trkpt lat="40.02518" lon="8.4394217"><ele>1.0</ele><time>2026-05-02T08:28:31.359Z</time></trkpt><trkpt lat="40.02515" lon="8.4396667"><ele>2.0</ele><time>2026-05-02T08:28:32.359Z</time></trkpt><trkpt lat="40.0251017" lon="8.4399083"><ele>3.0</ele><time>2026-05-02T08:28:33.359Z</time></trkpt><trkpt lat="40.0250417" lon="8.4401433"><ele>4.0</ele><time>2026-05-02T08:28:34.359Z</time></trkpt><trkpt lat="40.0249717" lon="8.4403833"><ele>4.333333333333333</ele><time>2026-05-02T08:28:35.359Z</time></trkpt><trkpt lat="40.0248917" lon="8.4406317"><ele>4.666666666666667</ele><time>2026-05-02T08:28:36.359Z</time></trkpt><trkpt lat="40.0248183" lon="8.4408967"><ele>5.0</ele><time>2026-05-02T08:28:37.359Z</time></trkpt><trkpt lat="40.024755" lon="8.4411633"><ele>4.333333333333334</ele><time>2026-05-02T08:28:38.359Z</time></trkpt><trkpt lat="40.0246883" lon="8.441445"><ele>3.666666666666667</ele><time>2026-05-02T08:28:39.359Z</time></trkpt><trkpt lat="40.024615" lon="8.44172"><ele>3.0</ele><time>2026-05-02T08:28:40.359Z</time></trkpt><trkpt lat="40.024545" lon="8.4419733"><ele>2.6666666666666665</ele><time>2026-05-02T08:28:41.359Z</time></trkpt><trkpt lat="40.02449" lon="8.4422367"><ele>2.333333333333333</ele><time>2026-05-02T08:28:42.359Z</time></trkpt><trkpt lat="40.024415" lon="8.442505"><ele>2.0</ele><time>2026-05-02T08:28:43.359Z</time></trkpt><trkpt lat="40.0243467" lon="8.442785"><ele>2.0</ele><time>2026-05-02T08:28:44.359Z</time></trkpt><trkpt lat="40.0242717" lon="8.443035"><ele>2.0</ele><time>2026-05-02T08:28:45.359Z</time></trkpt><trkpt lat="40.0242" lon="8.4432817"><ele>2.0</ele><time>2026-05-02T08:28:46.359Z</time></trkpt><trkpt lat="40.0241333" lon="8.4435533"><ele>2.6666666666666665</ele><time>2026-05-02T08:28:47.359Z</time></trkpt><trkpt lat="40.0240567" lon="8.443805"><ele>3.333333333333333</ele><time>2026-05-02T08:28:48.359Z</time></trkpt><trkpt lat="40.0239967" lon="8.4440433"><ele>4.0</ele><time>2026-05-02T08:28:49.359Z</time></trkpt><trkpt lat="40.0239317" lon="8.4443083"><ele>4.0</ele><time>2026-05-02T08:28:50.359Z</time></trkpt><trkpt lat="40.0238633" lon="8.4445683"><ele>4.0</ele><time>2026-05-02T08:28:51.359Z</time></trkpt><trkpt lat="40.0237917" lon="8.444835"><ele>4.0</ele><time>2026-05-02T08:28:52.359Z</time></trkpt><trkpt lat="40.0237183" lon="8.44509"><ele>4.333333333333333</ele><time>2026-05-02T08:28:53.359Z</time></trkpt><trkpt lat="40.0236517" lon="8.4453567"><ele>4.666666666666667</ele><time>2026-05-02T08:28:54.359Z</time></trkpt><trkpt lat="40.0235833" lon="8.4456283"><ele>5.0</ele><time>2026-05-02T08:28:55.359Z</time></trkpt><trkpt lat="40.0235117" lon="8.4458933"><ele>5.0</ele><time>2026-05-02T08:28:56.359Z</time></trkpt><trkpt lat="40.023435" lon="8.44616"><ele>5.0</ele><time>2026-05-02T08:28:57.359Z</time></trkpt><trkpt lat="40.023365" lon="8.44644"><ele>5.0</ele><time>2026-05-02T08:28:58.359Z</time></trkpt><trkpt lat="40.0232867" lon="8.4467017"><ele>5.0</ele><time>2026-05-02T08:28:59.359Z</time></trkpt><trkpt lat="40.02321" lon="8.4469667"><ele>5.0</ele><time>2026-05-02T08:29:00.359Z</time></trkpt><trkpt lat="40.0231333" lon="8.44725"><ele>5.0</ele><time>2026-05-02T08:29:01.359Z</time></trkpt><trkpt lat="40.0230567" lon="8.447535"><ele>5.0</ele><time>2026-05-02T08:29:02.359Z</time></trkpt><trkpt lat="40.02299" lon="8.4478183"><ele>5.0</ele><time>2026-05-02T08:29:03.359Z</time></trkpt><trkpt lat="40.0229133" lon="8.448105"><ele>5.0</ele><time>2026-05-02T08:29:04.359Z</time></trkpt><trkpt lat="40.0228383" lon="8.44838"><ele>5.0</ele><time>2026-05-02T08:29:05.359Z</time></trkpt><trkpt lat="40.022765" lon="8.44865"><ele>5.0</ele><time>2026-05-02T08:29:06.359Z</time></trkpt><trkpt lat="40.022695" lon="8.4489233"><ele>5.5</ele><time>2026-05-02T08:29:07.359Z</time></trkpt><trkpt lat="40.022625" lon="8.4492083"><ele>6.0</ele><time>2026-05-02T08:29:08.359Z</time></trkpt><trkpt lat="40.022545" lon="8.4494917"><ele>6.333333333333334</ele><time>2026-05-02T08:29:09.359Z</time></trkpt><trkpt lat="40.022465" lon="8.44977"><ele>6.666666666666667</ele><time>2026-05-02T08:29:10.359Z</time></trkpt><trkpt lat="40.02239" lon="8.4500417"><ele>7.0</ele><time>2026-05-02T08:29:11.359Z</time></trkpt><trkpt lat="40.0223167" lon="8.450325"><ele>6.5</ele><time>2026-05-02T08:29:12.359Z</time></trkpt><trkpt lat="40.0222433" lon="8.4506117"><ele>6.0</ele><time>2026-05-02T08:29:13.359Z</time></trkpt><trkpt lat="40.0221633" lon="8.4508883"><ele>6.0</ele><time>2026-05-02T08:29:14.36Z</time></trkpt><trkpt lat="40.0220933" lon="8.4511767"><ele>6.0</ele><time>2026-05-02T08:29:15.359Z</time></trkpt><trkpt lat="40.022025" lon="8.4514633"><ele>6.0</ele><time>2026-05-02T08:29:16.359Z</time></trkpt><trkpt lat="40.0219567" lon="8.4517417"><ele>6.0</ele><time>2026-05-02T08:29:17.359Z</time></trkpt><trkpt lat="40.0218867" lon="8.452015"><ele>6.0</ele><time>2026-05-02T08:29:18.359Z</time></trkpt><trkpt lat="40.0218167" lon="8.4522567"><ele>6.333333333333334</ele><time>2026-05-02T08:29:19.359Z</time></trkpt><trkpt lat="40.0217483" lon="8.452505"><ele>6.666666666666667</ele><time>2026-05-02T08:29:20.359Z</time></trkpt><trkpt lat="40.0216883" lon="8.452755"><ele>7.0</ele><time>2026-05-02T08:29:21.359Z</time></trkpt><trkpt lat="40.0216317" lon="8.4530067"><ele>7.0</ele><time>2026-05-02T08:29:22.359Z</time></trkpt><trkpt lat="40.0215833" lon="8.4532617"><ele>7.0</ele><time>2026-05-02T08:29:23.359Z</time></trkpt><trkpt lat="40.02154" lon="8.4535283"><ele>7.0</ele><time>2026-05-02T08:29:24.359Z</time></trkpt><trkpt lat="40.0215117" lon="8.4537867"><ele>6.666666666666667</ele><time>2026-05-02T08:29:25.359Z</time></trkpt><trkpt lat="40.0214967" lon="8.4540533"><ele>6.333333333333334</ele><time>2026-05-02T08:29:26.359Z</time></trkpt><trkpt lat="40.0214667" lon="8.454315"><ele>6.0</ele><time>2026-05-02T08:29:27.359Z</time></trkpt><trkpt lat="40.02145" lon="8.4545767"><ele>6.0</ele><time>2026-05-02T08:29:28.359Z</time></trkpt><trkpt lat="40.0214333" lon="8.454855"><ele>6.0</ele><time>2026-05-02T08:29:29.359Z</time></trkpt><trkpt lat="40.02143" lon="8.4551283"><ele>6.0</ele><time>2026-05-02T08:29:30.359Z</time></trkpt><trkpt lat="40.021435" lon="8.4553817"><ele>6.0</ele><time>2026-05-02T08:29:31.359Z</time></trkpt><trkpt lat="40.02144" lon="8.4556517"><ele>6.0</ele><time>2026-05-02T08:29:32.359Z</time></trkpt><trkpt lat="40.0214433" lon="8.4559283"><ele>6.0</ele><time>2026-05-02T08:29:33.359Z</time></trkpt><trkpt lat="40.0214483" lon="8.4562"><ele>6.0</ele><time>2026-05-02T08:29:34.359Z</time></trkpt><trkpt lat="40.02146" lon="8.4564783"><ele>6.0</ele><time>2026-05-02T08:29:35.359Z</time></trkpt><trkpt lat="40.0214717" lon="8.45676"><ele>6.0</ele><time>2026-05-02T08:29:36.359Z</time></trkpt><trkpt lat="40.0214717" lon="8.45704"><ele>6.333333333333334</ele><time>2026-05-02T08:29:37.359Z</time></trkpt><trkpt lat="40.0214767" lon="8.4573183"><ele>6.666666666666667</ele><time>2026-05-02T08:29:38.359Z</time></trkpt><trkpt lat="40.02149" lon="8.457605"><ele>7.0</ele><time>2026-05-02T08:29:39.359Z</time></trkpt><trkpt lat="40.0215017" lon="8.4578883"><ele>6.5</ele><time>2026-05-02T08:29:40.359Z</time></trkpt><trkpt lat="40.0215117" lon="8.4581817"><ele>6.0</ele><time>2026-05-02T08:29:41.359Z</time></trkpt><trkpt lat="40.0215233" lon="8.45848"><ele>6.0</ele><time>2026-05-02T08:29:42.359Z</time></trkpt><trkpt lat="40.0215267" lon="8.4587733"><ele>6.0</ele><time>2026-05-02T08:29:43.359Z</time></trkpt><trkpt lat="40.0215267" lon="8.459065"><ele>6.0</ele><time>2026-05-02T08:29:44.359Z</time></trkpt><trkpt lat="40.02153" lon="8.45936"><ele>6.5</ele><time>2026-05-02T08:29:45.359Z</time></trkpt><trkpt lat="40.0215433" lon="8.4596617"><ele>7.0</ele><time>2026-05-02T08:29:46.359Z</time></trkpt><trkpt lat="40.02155" lon="8.4599567"><ele>7.0</ele><time>2026-05-02T08:29:47.359Z</time></trkpt><trkpt lat="40.0215667" lon="8.4602483"><ele>7.0</ele><time>2026-05-02T08:29:48.359Z</time></trkpt><trkpt lat="40.021585" lon="8.4605433"><ele>6.0</ele><time>2026-05-02T08:29:49.359Z</time></trkpt><trkpt lat="40.02162" lon="8.4608417"><ele>5.0</ele><time>2026-05-02T08:29:50.359Z</time></trkpt><trkpt lat="40.0216633" lon="8.4611267"><ele>5.0</ele><time>2026-05-02T08:29:51.359Z</time></trkpt><trkpt lat="40.02172" lon="8.461405"><ele>5.0</ele><time>2026-05-02T08:29:52.359Z</time></trkpt><trkpt lat="40.0217767" lon="8.4616783"><ele>5.0</ele><time>2026-05-02T08:29:53.359Z</time></trkpt><trkpt lat="40.0218333" lon="8.461955"><ele>4.666666666666667</ele><time>2026-05-02T08:29:54.359Z</time></trkpt><trkpt lat="40.021885" lon="8.4622267"><ele>4.333333333333333</ele><time>2026-05-02T08:29:55.359Z</time></trkpt><trkpt lat="40.0219367" lon="8.4624817"><ele>4.0</ele><time>2026-05-02T08:29:56.359Z</time></trkpt><trkpt lat="40.0219683" lon="8.4627467"><ele>4.333333333333333</ele><time>2026-05-02T08:29:57.359Z</time></trkpt><trkpt lat="40.0219933" lon="8.4630033"><ele>4.666666666666667</ele><time>2026-05-02T08:29:58.359Z</time></trkpt><trkpt lat="40.0220017" lon="8.4632717"><ele>5.0</ele><time>2026-05-02T08:29:59.359Z</time></trkpt><trkpt lat="40.0220083" lon="8.4635417"><ele>5.333333333333334</ele><time>2026-05-02T08:30:00.359Z</time></trkpt><trkpt lat="40.022025" lon="8.4638017"><ele>5.666666666666667</ele><time>2026-05-02T08:30:01.359Z</time></trkpt><trkpt lat="40.0220333" lon="8.4640633"><ele>6.0</ele><time>2026-05-02T08:30:02.359Z</time></trkpt><trkpt lat="40.0220467" lon="8.4643233"><ele>6.0</ele><time>2026-05-02T08:30:03.359Z</time></trkpt><trkpt lat="40.02206" lon="8.4645883"><ele>6.0</ele><time>2026-05-02T08:30:04.359Z</time></trkpt><trkpt lat="40.0220667" lon="8.46485"><ele>6.0</ele><time>2026-05-02T08:30:05.359Z</time></trkpt><trkpt lat="40.0220717" lon="8.4651267"><ele>5.333333333333333</ele><time>2026-05-02T08:30:06.359Z</time></trkpt><trkpt lat="40.0220817" lon="8.46541"><ele>4.666666666666666</ele><time>2026-05-02T08:30:07.359Z</time></trkpt><trkpt lat="40.0220933" lon="8.4656933"><ele>4.0</ele><time>2026-05-02T08:30:08.359Z</time></trkpt><trkpt lat="40.022105" lon="8.4659783"><ele>4.0</ele><time>2026-05-02T08:30:09.359Z</time></trkpt><trkpt lat="40.0221183" lon="8.4662617"><ele>4.0</ele><time>2026-05-02T08:30:10.359Z</time></trkpt><trkpt lat="40.0221333" lon="8.4665517"><ele>4.0</ele><time>2026-05-02T08:30:11.359Z</time></trkpt><trkpt lat="40.02215" lon="8.4668483"><ele>5.0</ele><time>2026-05-02T08:30:12.359Z</time></trkpt><trkpt lat="40.02216" lon="8.4671483"><ele>6.0</ele><time>2026-05-02T08:30:13.359Z</time></trkpt><trkpt lat="40.022175" lon="8.4674433"><ele>6.0</ele><time>2026-05-02T08:30:14.359Z</time></trkpt><trkpt lat="40.0221883" lon="8.4677417"><ele>6.0</ele><time>2026-05-02T08:30:15.359Z</time></trkpt><trkpt lat="40.0222" lon="8.4680317"><ele>5.0</ele><time>2026-05-02T08:30:16.359Z</time></trkpt><trkpt lat="40.0222017" lon="8.4683333"><ele>4.0</ele><time>2026-05-02T08:30:17.359Z</time></trkpt><trkpt lat="40.0222055" lon="8.4686306"><ele>4.5</ele><time>2026-05-02T08:30:18.359Z</time></trkpt><trkpt lat="40.0222112" lon="8.468928"><ele>5.0</ele><time>2026-05-02T08:30:19.359Z</time></trkpt><trkpt lat="40.0222221" lon="8.4692193"><ele>5.0</ele><time>2026-05-02T08:30:20.359Z</time></trkpt><trkpt lat="40.022238" lon="8.4695148"><ele>5.0</ele><time>2026-05-02T08:30:21.359Z</time></trkpt><trkpt lat="40.0222523" lon="8.4698059"><ele>5.0</ele><time>2026-05-02T08:30:22.359Z</time></trkpt><trkpt lat="40.0222567" lon="8.4700982"><ele>5.0</ele><time>2026-05-02T08:30:23.359Z</time></trkpt><trkpt lat="40.0222673" lon="8.4703874"><ele>5.0</ele><time>2026-05-02T08:30:24.359Z</time></trkpt><trkpt lat="40.022274" lon="8.4706743"><ele>5.0</ele><time>2026-05-02T08:30:25.359Z</time></trkpt><trkpt lat="40.0222771" lon="8.4709484"><ele>5.0</ele><time>2026-05-02T08:30:26.359Z</time></trkpt><trkpt lat="40.0222873" lon="8.4712239"><ele>5.0</ele><time>2026-05-02T08:30:27.359Z</time></trkpt><trkpt lat="40.0223007" lon="8.4715083"><ele>5.0</ele><time>2026-05-02T08:30:28.359Z</time></trkpt><trkpt lat="40.0223165" lon="8.4717874"><ele>5.0</ele><time>2026-05-02T08:30:29.359Z</time></trkpt><trkpt lat="40.0223359" lon="8.472057"><ele>5.0</ele><time>2026-05-02T08:30:30.359Z</time></trkpt><trkpt lat="40.0223468" lon="8.4723305"><ele>5.0</ele><time>2026-05-02T08:30:31.359Z</time></trkpt><trkpt lat="40.0223526" lon="8.4725998"><ele>5.0</ele><time>2026-05-02T08:30:32.359Z</time></trkpt><trkpt lat="40.0223624" lon="8.4728696"><ele>5.0</ele><time>2026-05-02T08:30:33.359Z</time></trkpt><trkpt lat="40.0223777" lon="8.4731386"><ele>5.333333333333334</ele><time>2026-05-02T08:30:34.359Z</time></trkpt><trkpt lat="40.022386" lon="8.4734084"><ele>5.666666666666667</ele><time>2026-05-02T08:30:35.359Z</time></trkpt><trkpt lat="40.0223921" lon="8.4736772"><ele>6.0</ele><time>2026-05-02T08:30:36.359Z</time></trkpt><trkpt lat="40.0223851" lon="8.4739468"><ele>6.666666666666666</ele><time>2026-05-02T08:30:37.359Z</time></trkpt><trkpt lat="40.0223883" lon="8.4742146"><ele>7.333333333333333</ele><time>2026-05-02T08:30:38.359Z</time></trkpt><trkpt lat="40.0223845" lon="8.4744893"><ele>8.0</ele><time>2026-05-02T08:30:39.359Z</time></trkpt><trkpt lat="40.0223712" lon="8.4747673"><ele>8.666666666666666</ele><time>2026-05-02T08:30:40.359Z</time></trkpt><trkpt lat="40.0223475" lon="8.4750453"><ele>9.333333333333334</ele><time>2026-05-02T08:30:41.359Z</time></trkpt><trkpt lat="40.0223149" lon="8.4753261"><ele>10.0</ele><time>2026-05-02T08:30:42.359Z</time></trkpt><trkpt lat="40.0222886" lon="8.4755988"><ele>10.0</ele><time>2026-05-02T08:30:43.359Z</time></trkpt><trkpt lat="40.0222631" lon="8.4758657"><ele>10.0</ele><time>2026-05-02T08:30:44.359Z</time></trkpt><trkpt lat="40.0222448" lon="8.4761405"><ele>10.0</ele><time>2026-05-02T08:30:45.359Z</time></trkpt><trkpt lat="40.0222208" lon="8.4764188"><ele>10.0</ele><time>2026-05-02T08:30:46.359Z</time></trkpt><trkpt lat="40.0221902" lon="8.4767007"><ele>10.0</ele><time>2026-05-02T08:30:47.359Z</time></trkpt><trkpt lat="40.0221611" lon="8.476994"><ele>10.0</ele><time>2026-05-02T08:30:48.359Z</time></trkpt><trkpt lat="40.0221359" lon="8.4772842"><ele>9.666666666666668</ele><time>2026-05-02T08:30:49.359Z</time></trkpt><trkpt lat="40.0221122" lon="8.4775425"><ele>9.333333333333334</ele><time>2026-05-02T08:30:50.359Z</time></trkpt><trkpt lat="40.02209" lon="8.477765"><ele>9.0</ele><time>2026-05-02T08:30:51.359Z</time></trkpt><trkpt lat="40.0220661" lon="8.4779801"><ele>9.0</ele><time>2026-05-02T08:30:52.359Z</time></trkpt><trkpt lat="40.0220427" lon="8.4781988"><ele>9.0</ele><time>2026-05-02T08:30:53.359Z</time></trkpt><trkpt lat="40.0220156" lon="8.4784202"><ele>9.0</ele><time>2026-05-02T08:30:54.359Z</time></trkpt><trkpt lat="40.0219872" lon="8.4786578"><ele>8.666666666666666</ele><time>2026-05-02T08:30:55.359Z</time></trkpt><trkpt lat="40.0219509" lon="8.4788924"><ele>8.333333333333332</ele><time>2026-05-02T08:30:56.359Z</time></trkpt><trkpt lat="40.021907" lon="8.4791228"><ele>8.0</ele><time>2026-05-02T08:30:57.359Z</time></trkpt><trkpt lat="40.0218467" lon="8.479362"><ele>8.0</ele><time>2026-05-02T08:30:58.359Z</time></trkpt><trkpt lat="40.0217625" lon="8.4796148"><ele>8.0</ele><time>2026-05-02T08:30:59.359Z</time></trkpt><trkpt lat="40.021668" lon="8.4798717"><ele>8.0</ele><time>2026-05-02T08:31:00.359Z</time></trkpt><trkpt lat="40.0215827" lon="8.4801315"><ele>8.0</ele><time>2026-05-02T08:31:01.359Z</time></trkpt><trkpt lat="40.0214994" lon="8.4803996"><ele>8.0</ele><time>2026-05-02T08:31:02.359Z</time></trkpt><trkpt lat="40.0214198" lon="8.4806692"><ele>8.0</ele><time>2026-05-02T08:31:03.359Z</time></trkpt><trkpt lat="40.0213375" lon="8.4809473"><ele>7.5</ele><time>2026-05-02T08:31:04.359Z</time></trkpt><trkpt lat="40.0212578" lon="8.4812277"><ele>7.0</ele><time>2026-05-02T08:31:05.359Z</time></trkpt><trkpt lat="40.0211765" lon="8.4815136"><ele>6.5</ele><time>2026-05-02T08:31:06.359Z</time></trkpt><trkpt lat="40.0210923" lon="8.4817898"><ele>6.0</ele><time>2026-05-02T08:31:07.359Z</time></trkpt><trkpt lat="40.0210063" lon="8.4820617"><ele>7.0</ele><time>2026-05-02T08:31:08.359Z</time></trkpt><trkpt lat="40.0209186" lon="8.4823394"><ele>8.0</ele><time>2026-05-02T08:31:09.359Z</time></trkpt><trkpt lat="40.0208305" lon="8.4826212"><ele>8.0</ele><time>2026-05-02T08:31:10.359Z</time></trkpt><trkpt lat="40.0207473" lon="8.4829019"><ele>8.0</ele><time>2026-05-02T08:31:11.359Z</time></trkpt><trkpt lat="40.0206671" lon="8.4831873"><ele>8.0</ele><time>2026-05-02T08:31:12.359Z</time></trkpt><trkpt lat="40.0205868" lon="8.4834734"><ele>8.0</ele><time>2026-05-02T08:31:13.359Z</time></trkpt><trkpt lat="40.0205112" lon="8.4837658"><ele>8.0</ele><time>2026-05-02T08:31:14.359Z</time></trkpt><trkpt lat="40.0204428" lon="8.4840548"><ele>8.0</ele><time>2026-05-02T08:31:15.359Z</time></trkpt><trkpt lat="40.0203686" lon="8.4843398"><ele>7.5</ele><time>2026-05-02T08:31:16.359Z</time></trkpt><trkpt lat="40.0202928" lon="8.484638"><ele>7.0</ele><time>2026-05-02T08:31:17.359Z</time></trkpt><trkpt lat="40.0202185" lon="8.4849278"><ele>7.0</ele><time>2026-05-02T08:31:18.359Z</time></trkpt><trkpt lat="40.0201435" lon="8.4852142"><ele>7.0</ele><time>2026-05-02T08:31:19.359Z</time></trkpt><trkpt lat="40.0200695" lon="8.4855139"><ele>7.0</ele><time>2026-05-02T08:31:20.359Z</time></trkpt><trkpt lat="40.0200005" lon="8.4858121"><ele>7.0</ele><time>2026-05-02T08:31:21.359Z</time></trkpt><trkpt lat="40.0199321" lon="8.4860978"><ele>7.333333333333334</ele><time>2026-05-02T08:31:22.359Z</time></trkpt><trkpt lat="40.0198722" lon="8.4863778"><ele>7.666666666666666</ele><time>2026-05-02T08:31:23.359Z</time></trkpt><trkpt lat="40.0198089" lon="8.4866576"><ele>8.0</ele><time>2026-05-02T08:31:24.359Z</time></trkpt><trkpt lat="40.0197433" lon="8.4869317"><ele>9.0</ele><time>2026-05-02T08:31:25.359Z</time></trkpt><trkpt lat="40.019675" lon="8.4872133"><ele>10.0</ele><time>2026-05-02T08:31:26.359Z</time></trkpt><trkpt lat="40.0196033" lon="8.4875017"><ele>10.0</ele><time>2026-05-02T08:31:27.359Z</time></trkpt><trkpt lat="40.0195333" lon="8.4877833"><ele>10.0</ele><time>2026-05-02T08:31:28.359Z</time></trkpt><trkpt lat="40.0194683" lon="8.4880667"><ele>11.0</ele><time>2026-05-02T08:31:29.359Z</time></trkpt><trkpt lat="40.0193933" lon="8.4883517"><ele>12.0</ele><time>2026-05-02T08:31:30.359Z</time></trkpt><trkpt lat="40.019315" lon="8.4886417"><ele>12.0</ele><time>2026-05-02T08:31:31.359Z</time></trkpt><trkpt lat="40.0192517" lon="8.4889217"><ele>12.0</ele><time>2026-05-02T08:31:32.359Z</time></trkpt><trkpt lat="40.01919" lon="8.489195"><ele>12.0</ele><time>2026-05-02T08:31:33.358Z</time></trkpt><trkpt lat="40.0191333" lon="8.489455"><ele>12.666666666666668</ele><time>2026-05-02T08:31:34.358Z</time></trkpt><trkpt lat="40.01906" lon="8.4897117"><ele>13.333333333333334</ele><time>2026-05-02T08:31:35.358Z</time></trkpt><trkpt lat="40.0189817" lon="8.48997"><ele>14.0</ele><time>2026-05-02T08:31:36.358Z</time></trkpt><trkpt lat="40.01891" lon="8.49024"><ele>13.666666666666668</ele><time>2026-05-02T08:31:37.358Z</time></trkpt><trkpt lat="40.0188417" lon="8.49051"><ele>13.333333333333332</ele><time>2026-05-02T08:31:38.358Z</time></trkpt><trkpt lat="40.0187717" lon="8.4907733"><ele>13.0</ele><time>2026-05-02T08:31:39.358Z</time></trkpt><trkpt lat="40.0187017" lon="8.4910317"><ele>12.666666666666666</ele><time>2026-05-02T08:31:40.358Z</time></trkpt><trkpt lat="40.01863" lon="8.491305"><ele>12.333333333333332</ele><time>2026-05-02T08:31:41.358Z</time></trkpt><trkpt lat="40.0185633" lon="8.491575"><ele>12.0</ele><time>2026-05-02T08:31:42.358Z</time></trkpt><trkpt lat="40.01849" lon="8.4918467"><ele>13.0</ele><time>2026-05-02T08:31:43.358Z</time></trkpt><trkpt lat="40.0184133" lon="8.4921333"><ele>14.0</ele><time>2026-05-02T08:31:44.358Z</time></trkpt><trkpt lat="40.018335" lon="8.4924167"><ele>13.0</ele><time>2026-05-02T08:31:45.358Z</time></trkpt><trkpt lat="40.0182617" lon="8.4926983"><ele>12.0</ele><time>2026-05-02T08:31:46.358Z</time></trkpt><trkpt lat="40.0181733" lon="8.4929817"><ele>11.5</ele><time>2026-05-02T08:31:47.358Z</time></trkpt><trkpt lat="40.0180867" lon="8.49328"><ele>11.0</ele><time>2026-05-02T08:31:48.358Z</time></trkpt><trkpt lat="40.017995" lon="8.4935617"><ele>11.5</ele><time>2026-05-02T08:31:49.358Z</time></trkpt><trkpt lat="40.0179067" lon="8.4938483"><ele>12.0</ele><time>2026-05-02T08:31:50.358Z</time></trkpt><trkpt lat="40.017815" lon="8.494125"><ele>12.0</ele><time>2026-05-02T08:31:51.358Z</time></trkpt><trkpt lat="40.0177217" lon="8.494405"><ele>12.0</ele><time>2026-05-02T08:31:52.358Z</time></trkpt><trkpt lat="40.017625" lon="8.49469"><ele>11.5</ele><time>2026-05-02T08:31:53.358Z</time></trkpt><trkpt lat="40.0175267" lon="8.4949833"><ele>11.0</ele><time>2026-05-02T08:31:54.358Z</time></trkpt><trkpt lat="40.0174367" lon="8.4952767"><ele>11.0</ele><time>2026-05-02T08:31:55.358Z</time></trkpt><trkpt lat="40.017345" lon="8.4955617"><ele>11.0</ele><time>2026-05-02T08:31:56.358Z</time></trkpt><trkpt lat="40.017255" lon="8.495855"><ele>11.0</ele><time>2026-05-02T08:31:57.358Z</time></trkpt><trkpt lat="40.017155" lon="8.4961467"><ele>11.0</ele><time>2026-05-02T08:31:58.358Z</time></trkpt><trkpt lat="40.017045" lon="8.496445"><ele>11.5</ele><time>2026-05-02T08:31:59.358Z</time></trkpt><trkpt lat="40.0169433" lon="8.4967317"><ele>12.0</ele><time>2026-05-02T08:32:00.358Z</time></trkpt><trkpt lat="40.016835" lon="8.4970183"><ele>12.0</ele><time>2026-05-02T08:32:01.358Z</time></trkpt><trkpt lat="40.0167233" lon="8.4973183"><ele>12.0</ele><time>2026-05-02T08:32:02.358Z</time></trkpt><trkpt lat="40.016625" lon="8.49761"><ele>12.0</ele><time>2026-05-02T08:32:03.358Z</time></trkpt><trkpt lat="40.0165183" lon="8.497905"><ele>12.0</ele><time>2026-05-02T08:32:04.358Z</time></trkpt><trkpt lat="40.016415" lon="8.4982"><ele>12.0</ele><time>2026-05-02T08:32:05.358Z</time></trkpt><trkpt lat="40.0163183" lon="8.498485"><ele>12.0</ele><time>2026-05-02T08:32:06.358Z</time></trkpt><trkpt lat="40.0162283" lon="8.498775"><ele>11.5</ele><time>2026-05-02T08:32:07.358Z</time></trkpt><trkpt lat="40.0161417" lon="8.4990667"><ele>11.0</ele><time>2026-05-02T08:32:08.358Z</time></trkpt><trkpt lat="40.01605" lon="8.4993617"><ele>11.0</ele><time>2026-05-02T08:32:09.358Z</time></trkpt><trkpt lat="40.0159617" lon="8.4996583"><ele>11.0</ele><time>2026-05-02T08:32:10.358Z</time></trkpt><trkpt lat="40.0158783" lon="8.4999483"><ele>11.0</ele><time>2026-05-02T08:32:11.358Z</time></trkpt><trkpt lat="40.0157983" lon="8.500245"><ele>11.0</ele><time>2026-05-02T08:32:12.358Z</time></trkpt><trkpt lat="40.0157117" lon="8.5005433"><ele>11.5</ele><time>2026-05-02T08:32:13.358Z</time></trkpt><trkpt lat="40.0156367" lon="8.5008417"><ele>12.0</ele><time>2026-05-02T08:32:14.358Z</time></trkpt><trkpt lat="40.01556" lon="8.501145"><ele>13.0</ele><time>2026-05-02T08:32:15.358Z</time></trkpt><trkpt lat="40.01548" lon="8.5014433"><ele>14.0</ele><time>2026-05-02T08:32:16.358Z</time></trkpt><trkpt lat="40.0153933" lon="8.50174"><ele>14.0</ele><time>2026-05-02T08:32:17.358Z</time></trkpt><trkpt lat="40.015305" lon="8.5020333"><ele>14.0</ele><time>2026-05-02T08:32:18.358Z</time></trkpt><trkpt lat="40.01522" lon="8.5023383"><ele>14.0</ele><time>2026-05-02T08:32:19.358Z</time></trkpt><trkpt lat="40.0151233" lon="8.5026283"><ele>14.0</ele><time>2026-05-02T08:32:20.358Z</time></trkpt><trkpt lat="40.0150183" lon="8.5029167"><ele>15.5</ele><time>2026-05-02T08:32:21.358Z</time></trkpt><trkpt lat="40.014915" lon="8.5032017"><ele>17.0</ele><time>2026-05-02T08:32:22.358Z</time></trkpt><trkpt lat="40.0148267" lon="8.50347"><ele>17.0</ele><time>2026-05-02T08:32:23.358Z</time></trkpt><trkpt lat="40.0147217" lon="8.5037283"><ele>17.0</ele><time>2026-05-02T08:32:24.358Z</time></trkpt><trkpt lat="40.01464" lon="8.5039933"><ele>17.0</ele><time>2026-05-02T08:32:25.358Z</time></trkpt><trkpt lat="40.014555" lon="8.5042467"><ele>16.333333333333336</ele><time>2026-05-02T08:32:26.358Z</time></trkpt><trkpt lat="40.0144667" lon="8.5045"><ele>15.666666666666668</ele><time>2026-05-02T08:32:27.358Z</time></trkpt><trkpt lat="40.0143733" lon="8.5047567"><ele>15.0</ele><time>2026-05-02T08:32:28.358Z</time></trkpt><trkpt lat="40.0142717" lon="8.50501"><ele>15.333333333333332</ele><time>2026-05-02T08:32:29.358Z</time></trkpt><trkpt lat="40.014185" lon="8.5052717"><ele>15.666666666666666</ele><time>2026-05-02T08:32:30.358Z</time></trkpt><trkpt lat="40.0140883" lon="8.5055433"><ele>16.0</ele><time>2026-05-02T08:32:31.358Z</time></trkpt><trkpt lat="40.0139933" lon="8.505805"><ele>16.0</ele><time>2026-05-02T08:32:32.358Z</time></trkpt><trkpt lat="40.0139133" lon="8.5060383"><ele>16.0</ele><time>2026-05-02T08:32:33.358Z</time></trkpt><trkpt lat="40.0138162" lon="8.506314"><ele>16.0</ele><time>2026-05-02T08:32:34.358Z</time></trkpt><trkpt lat="40.0137278" lon="8.5065868"><ele>15.5</ele><time>2026-05-02T08:32:35.358Z</time></trkpt><trkpt lat="40.0136347" lon="8.5068624"><ele>15.0</ele><time>2026-05-02T08:32:36.358Z</time></trkpt><trkpt lat="40.013546" lon="8.507129"><ele>14.333333333333332</ele><time>2026-05-02T08:32:37.358Z</time></trkpt><trkpt lat="40.0134533" lon="8.5073821"><ele>13.666666666666666</ele><time>2026-05-02T08:32:38.358Z</time></trkpt><trkpt lat="40.0133553" lon="8.507651"><ele>13.0</ele><time>2026-05-02T08:32:39.358Z</time></trkpt><trkpt lat="40.0132683" lon="8.5079167"><ele>11.5</ele><time>2026-05-02T08:32:40.358Z</time></trkpt><trkpt lat="40.0131712" lon="8.5081888"><ele>10.0</ele><time>2026-05-02T08:32:41.358Z</time></trkpt><trkpt lat="40.013078" lon="8.50845"><ele>10.0</ele><time>2026-05-02T08:32:42.358Z</time></trkpt><trkpt lat="40.0129779" lon="8.5087088"><ele>10.0</ele><time>2026-05-02T08:32:43.358Z</time></trkpt><trkpt lat="40.0128814" lon="8.5089717"><ele>10.0</ele><time>2026-05-02T08:32:44.358Z</time></trkpt><trkpt lat="40.0127837" lon="8.5092348"><ele>10.0</ele><time>2026-05-02T08:32:45.358Z</time></trkpt><trkpt lat="40.0126926" lon="8.5094886"><ele>10.0</ele><time>2026-05-02T08:32:46.358Z</time></trkpt><trkpt lat="40.0126003" lon="8.5097346"><ele>10.0</ele><time>2026-05-02T08:32:47.358Z</time></trkpt><trkpt lat="40.0125257" lon="8.5099528"><ele>10.0</ele><time>2026-05-02T08:32:48.358Z</time></trkpt><trkpt lat="40.0124524" lon="8.510149"><ele>10.0</ele><time>2026-05-02T08:32:49.358Z</time></trkpt><trkpt lat="40.0124073" lon="8.5103224"><ele>10.0</ele><time>2026-05-02T08:32:50.358Z</time></trkpt><trkpt lat="40.0123775" lon="8.5104802"><ele>10.0</ele><time>2026-05-02T08:32:51.358Z</time></trkpt><trkpt lat="40.0123651" lon="8.5106331"><ele>9.833333333333334</ele><time>2026-05-02T08:32:52.358Z</time></trkpt><trkpt lat="40.0123576" lon="8.5107749"><ele>9.666666666666668</ele><time>2026-05-02T08:32:53.358Z</time></trkpt><trkpt lat="40.0123628" lon="8.5108916"><ele>9.5</ele><time>2026-05-02T08:32:54.358Z</time></trkpt><trkpt lat="40.0123951" lon="8.5109682"><ele>9.333333333333334</ele><time>2026-05-02T08:32:55.358Z</time></trkpt><trkpt lat="40.0124964" lon="8.5110392"><ele>9.166666666666666</ele><time>2026-05-02T08:32:57.358Z</time></trkpt><trkpt lat="40.0125645" lon="8.511031"><ele>9.0</ele><time>2026-05-02T08:32:58.358Z</time></trkpt><trkpt lat="40.0126488" lon="8.5110104"><ele>9.5</ele><time>2026-05-02T08:32:59.358Z</time></trkpt><trkpt lat="40.0127522" lon="8.5110117"><ele>10.0</ele><time>2026-05-02T08:33:00.358Z</time></trkpt><trkpt lat="40.0128796" lon="8.5110364"><ele>10.5</ele><time>2026-05-02T08:33:01.358Z</time></trkpt><trkpt lat="40.0130154" lon="8.5110874"><ele>11.0</ele><time>2026-05-02T08:33:02.358Z</time></trkpt><trkpt lat="40.0131467" lon="8.5111387"><ele>11.0</ele><time>2026-05-02T08:33:03.358Z</time></trkpt><trkpt lat="40.0132776" lon="8.511198"><ele>11.0</ele><time>2026-05-02T08:33:04.358Z</time></trkpt><trkpt lat="40.0134223" lon="8.5112501"><ele>11.0</ele><time>2026-05-02T08:33:05.358Z</time></trkpt><trkpt lat="40.0135931" lon="8.5113157"><ele>11.0</ele><time>2026-05-02T08:33:06.358Z</time></trkpt><trkpt lat="40.0137671" lon="8.5113844"><ele>11.0</ele><time>2026-05-02T08:33:07.358Z</time></trkpt><trkpt lat="40.0139488" lon="8.511454"><ele>11.0</ele><time>2026-05-02T08:33:08.358Z</time></trkpt><trkpt lat="40.0141245" lon="8.5115238"><ele>11.666666666666666</ele><time>2026-05-02T08:33:09.358Z</time></trkpt><trkpt lat="40.0143056" lon="8.5115958"><ele>12.333333333333332</ele><time>2026-05-02T08:33:10.358Z</time></trkpt><trkpt lat="40.0144958" lon="8.5116775"><ele>13.0</ele><time>2026-05-02T08:33:11.358Z</time></trkpt><trkpt lat="40.0146913" lon="8.5117606"><ele>13.0</ele><time>2026-05-02T08:33:12.358Z</time></trkpt><trkpt lat="40.0148881" lon="8.5118435"><ele>13.0</ele><time>2026-05-02T08:33:13.358Z</time></trkpt><trkpt lat="40.0150872" lon="8.5119268"><ele>13.0</ele><time>2026-05-02T08:33:14.358Z</time></trkpt><trkpt lat="40.0152863" lon="8.5120064"><ele>13.0</ele><time>2026-05-02T08:33:15.358Z</time></trkpt><trkpt lat="40.0154886" lon="8.5120946"><ele>13.0</ele><time>2026-05-02T08:33:16.358Z</time></trkpt><trkpt lat="40.0156904" lon="8.5121799"><ele>13.0</ele><time>2026-05-02T08:33:17.358Z</time></trkpt><trkpt lat="40.0158859" lon="8.5122538"><ele>14.333333333333332</ele><time>2026-05-02T08:33:18.358Z</time></trkpt><trkpt lat="40.0160832" lon="8.5123255"><ele>15.666666666666668</ele><time>2026-05-02T08:33:19.358Z</time></trkpt><trkpt lat="40.0162715" lon="8.5123998"><ele>17.0</ele><time>2026-05-02T08:33:20.358Z</time></trkpt><trkpt lat="40.0164615" lon="8.5124671"><ele>17.0</ele><time>2026-05-02T08:33:21.358Z</time></trkpt><trkpt lat="40.0166486" lon="8.5125182"><ele>17.0</ele><time>2026-05-02T08:33:22.358Z</time></trkpt><trkpt lat="40.0168305" lon="8.5125577"><ele>17.0</ele><time>2026-05-02T08:33:23.358Z</time></trkpt><trkpt lat="40.0170063" lon="8.5125752"><ele>17.0</ele><time>2026-05-02T08:33:24.358Z</time></trkpt><trkpt lat="40.0171819" lon="8.512552"><ele>17.0</ele><time>2026-05-02T08:33:25.358Z</time></trkpt><trkpt lat="40.017348" lon="8.5125011"><ele>17.0</ele><time>2026-05-02T08:33:26.358Z</time></trkpt><trkpt lat="40.0175236" lon="8.5124433"><ele>17.0</ele><time>2026-05-02T08:33:27.358Z</time></trkpt><trkpt lat="40.0176943" lon="8.5123754"><ele>17.0</ele><time>2026-05-02T08:33:28.358Z</time></trkpt><trkpt lat="40.0178555" lon="8.5123097"><ele>17.0</ele><time>2026-05-02T08:33:29.358Z</time></trkpt><trkpt lat="40.0180101" lon="8.5122555"><ele>17.0</ele><time>2026-05-02T08:33:30.358Z</time></trkpt><trkpt lat="40.0181577" lon="8.5122348"><ele>17.0</ele><time>2026-05-02T08:33:31.358Z</time></trkpt><trkpt lat="40.0182977" lon="8.5122533"><ele>17.0</ele><time>2026-05-02T08:33:32.358Z</time></trkpt><trkpt lat="40.0184559" lon="8.5122911"><ele>17.0</ele><time>2026-05-02T08:33:33.358Z</time></trkpt><trkpt lat="40.0186144" lon="8.512334"><ele>17.0</ele><time>2026-05-02T08:33:34.358Z</time></trkpt><trkpt lat="40.0187647" lon="8.5123915"><ele>17.0</ele><time>2026-05-02T08:33:35.358Z</time></trkpt><trkpt lat="40.0189249" lon="8.5124431"><ele>17.0</ele><time>2026-05-02T08:33:36.358Z</time></trkpt><trkpt lat="40.0190892" lon="8.5124834"><ele>17.0</ele><time>2026-05-02T08:33:37.358Z</time></trkpt><trkpt lat="40.019258" lon="8.5125054"><ele>17.0</ele><time>2026-05-02T08:33:38.358Z</time></trkpt><trkpt lat="40.0194256" lon="8.5125159"><ele>17.666666666666668</ele><time>2026-05-02T08:33:39.358Z</time></trkpt><trkpt lat="40.0195883" lon="8.5125083"><ele>18.333333333333332</ele><time>2026-05-02T08:33:40.358Z</time></trkpt><trkpt lat="40.0197583" lon="8.512495"><ele>19.0</ele><time>2026-05-02T08:33:41.358Z</time></trkpt><trkpt lat="40.0199417" lon="8.5124567"><ele>19.333333333333332</ele><time>2026-05-02T08:33:42.358Z</time></trkpt><trkpt lat="40.0201217" lon="8.5124017"><ele>19.666666666666668</ele><time>2026-05-02T08:33:43.358Z</time></trkpt><trkpt lat="40.020295" lon="8.51233"><ele>20.0</ele><time>2026-05-02T08:33:44.358Z</time></trkpt><trkpt lat="40.020465" lon="8.51226"><ele>20.0</ele><time>2026-05-02T08:33:45.358Z</time></trkpt><trkpt lat="40.0206317" lon="8.5121833"><ele>20.0</ele><time>2026-05-02T08:33:46.358Z</time></trkpt><trkpt lat="40.0208033" lon="8.512115"><ele>20.0</ele><time>2026-05-02T08:33:47.358Z</time></trkpt><trkpt lat="40.0209967" lon="8.5120333"><ele>21.0</ele><time>2026-05-02T08:33:48.358Z</time></trkpt><trkpt lat="40.0211817" lon="8.511955"><ele>22.0</ele><time>2026-05-02T08:33:49.358Z</time></trkpt><trkpt lat="40.0213717" lon="8.5118817"><ele>23.0</ele><time>2026-05-02T08:33:50.358Z</time></trkpt><trkpt lat="40.0215583" lon="8.5118067"><ele>22.666666666666668</ele><time>2026-05-02T08:33:51.358Z</time></trkpt><trkpt lat="40.02172" lon="8.5117317"><ele>22.333333333333332</ele><time>2026-05-02T08:33:52.358Z</time></trkpt><trkpt lat="40.0218833" lon="8.511675"><ele>22.0</ele><time>2026-05-02T08:33:53.358Z</time></trkpt><trkpt lat="40.0220383" lon="8.5116217"><ele>22.0</ele><time>2026-05-02T08:33:54.358Z</time></trkpt><trkpt lat="40.0221983" lon="8.5115583"><ele>22.0</ele><time>2026-05-02T08:33:55.358Z</time></trkpt><trkpt lat="40.02236" lon="8.5115017"><ele>22.0</ele><time>2026-05-02T08:33:56.358Z</time></trkpt><trkpt lat="40.02253" lon="8.5114633"><ele>22.666666666666664</ele><time>2026-05-02T08:33:57.358Z</time></trkpt><trkpt lat="40.02271" lon="8.5114267"><ele>23.333333333333332</ele><time>2026-05-02T08:33:58.358Z</time></trkpt><trkpt lat="40.022885" lon="8.5114017"><ele>24.0</ele><time>2026-05-02T08:33:59.358Z</time></trkpt><trkpt lat="40.023065" lon="8.5113933"><ele>24.0</ele><time>2026-05-02T08:34:00.358Z</time></trkpt><trkpt lat="40.02324" lon="8.5114017"><ele>24.0</ele><time>2026-05-02T08:34:01.358Z</time></trkpt><trkpt lat="40.0234067" lon="8.5114117"><ele>24.0</ele><time>2026-05-02T08:34:02.358Z</time></trkpt><trkpt lat="40.0235667" lon="8.511425"><ele>23.666666666666668</ele><time>2026-05-02T08:34:03.358Z</time></trkpt><trkpt lat="40.02372" lon="8.51144"><ele>23.333333333333336</ele><time>2026-05-02T08:34:04.358Z</time></trkpt><trkpt lat="40.023885" lon="8.5114467"><ele>23.0</ele><time>2026-05-02T08:34:05.358Z</time></trkpt><trkpt lat="40.02406" lon="8.5114317"><ele>23.666666666666668</ele><time>2026-05-02T08:34:06.358Z</time></trkpt><trkpt lat="40.0242333" lon="8.51139"><ele>24.333333333333336</ele><time>2026-05-02T08:34:07.358Z</time></trkpt><trkpt lat="40.0244283" lon="8.51134"><ele>25.0</ele><time>2026-05-02T08:34:08.358Z</time></trkpt><trkpt lat="40.0246183" lon="8.51128"><ele>24.666666666666668</ele><time>2026-05-02T08:34:09.358Z</time></trkpt><trkpt lat="40.024825" lon="8.5111867"><ele>24.333333333333336</ele><time>2026-05-02T08:34:10.358Z</time></trkpt><trkpt lat="40.025025" lon="8.5110967"><ele>24.0</ele><time>2026-05-02T08:34:11.358Z</time></trkpt><trkpt lat="40.02522" lon="8.511"><ele>25.333333333333336</ele><time>2026-05-02T08:34:12.358Z</time></trkpt><trkpt lat="40.0254017" lon="8.5109033"><ele>26.666666666666668</ele><time>2026-05-02T08:34:13.358Z</time></trkpt><trkpt lat="40.0255683" lon="8.51083"><ele>28.0</ele><time>2026-05-02T08:34:14.358Z</time></trkpt><trkpt lat="40.0257217" lon="8.51078"><ele>27.75</ele><time>2026-05-02T08:34:15.358Z</time></trkpt><trkpt lat="40.02587" lon="8.5107683"><ele>27.5</ele><time>2026-05-02T08:34:16.358Z</time></trkpt><trkpt lat="40.0260083" lon="8.5108"><ele>27.25</ele><time>2026-05-02T08:34:17.358Z</time></trkpt><trkpt lat="40.0261283" lon="8.5108817"><ele>27.0</ele><time>2026-05-02T08:34:18.358Z</time></trkpt><trkpt lat="40.026235" lon="8.5110033"><ele>27.0</ele><time>2026-05-02T08:34:19.358Z</time></trkpt><trkpt lat="40.0263283" lon="8.51117"><ele>27.0</ele><time>2026-05-02T08:34:20.358Z</time></trkpt><trkpt lat="40.0264" lon="8.5113633"><ele>27.0</ele><time>2026-05-02T08:34:21.358Z</time></trkpt><trkpt lat="40.0264617" lon="8.51156"><ele>27.0</ele><time>2026-05-02T08:34:22.358Z</time></trkpt><trkpt lat="40.026505" lon="8.5117733"><ele>27.0</ele><time>2026-05-02T08:34:23.358Z</time></trkpt><trkpt lat="40.0265167" lon="8.5119817"><ele>27.0</ele><time>2026-05-02T08:34:24.358Z</time></trkpt><trkpt lat="40.026495" lon="8.51221"><ele>26.666666666666664</ele><time>2026-05-02T08:34:25.358Z</time></trkpt><trkpt lat="40.026455" lon="8.5124567"><ele>26.333333333333332</ele><time>2026-05-02T08:34:26.358Z</time></trkpt><trkpt lat="40.026415" lon="8.5127133"><ele>26.0</ele><time>2026-05-02T08:34:27.358Z</time></trkpt><trkpt lat="40.026375" lon="8.51297"><ele>25.666666666666664</ele><time>2026-05-02T08:34:28.358Z</time></trkpt><trkpt lat="40.0263433" lon="8.513255"><ele>25.333333333333336</ele><time>2026-05-02T08:34:29.358Z</time></trkpt><trkpt lat="40.0263133" lon="8.5135483"><ele>25.0</ele><time>2026-05-02T08:34:30.358Z</time></trkpt><trkpt lat="40.0262767" lon="8.5138417"><ele>24.0</ele><time>2026-05-02T08:34:31.358Z</time></trkpt><trkpt lat="40.026235" lon="8.5141367"><ele>23.0</ele><time>2026-05-02T08:34:32.358Z</time></trkpt><trkpt lat="40.0261983" lon="8.51442"><ele>23.0</ele><time>2026-05-02T08:34:33.358Z</time></trkpt><trkpt lat="40.02616" lon="8.51469"><ele>23.0</ele><time>2026-05-02T08:34:34.358Z</time></trkpt><trkpt lat="40.0261267" lon="8.514965"><ele>23.0</ele><time>2026-05-02T08:34:35.358Z</time></trkpt><trkpt lat="40.0260983" lon="8.515245"><ele>23.333333333333336</ele><time>2026-05-02T08:34:36.358Z</time></trkpt><trkpt lat="40.026075" lon="8.51553"><ele>23.666666666666668</ele><time>2026-05-02T08:34:37.358Z</time></trkpt><trkpt lat="40.0260617" lon="8.51581"><ele>24.0</ele><time>2026-05-02T08:34:38.358Z</time></trkpt><trkpt lat="40.0260567" lon="8.5160767"><ele>24.0</ele><time>2026-05-02T08:34:39.358Z</time></trkpt><trkpt lat="40.0260467" lon="8.5163533"><ele>24.0</ele><time>2026-05-02T08:34:40.358Z</time></trkpt><trkpt lat="40.0260417" lon="8.5166333"><ele>24.0</ele><time>2026-05-02T08:34:41.358Z</time></trkpt><trkpt lat="40.0260367" lon="8.5169133"><ele>24.666666666666664</ele><time>2026-05-02T08:34:42.358Z</time></trkpt><trkpt lat="40.0260433" lon="8.5171833"><ele>25.333333333333332</ele><time>2026-05-02T08:34:43.358Z</time></trkpt><trkpt lat="40.026045" lon="8.5174333"><ele>26.0</ele><time>2026-05-02T08:34:44.358Z</time></trkpt><trkpt lat="40.026035" lon="8.5176467"><ele>26.0</ele><time>2026-05-02T08:34:45.358Z</time></trkpt><trkpt lat="40.026035" lon="8.51782"><ele>26.0</ele><time>2026-05-02T08:34:46.358Z</time></trkpt><trkpt lat="40.0260233" lon="8.517975"><ele>26.0</ele><time>2026-05-02T08:34:47.358Z</time></trkpt><trkpt lat="40.0259933" lon="8.5181317"><ele>26.0</ele><time>2026-05-02T08:34:48.358Z</time></trkpt><trkpt lat="40.025965" lon="8.5182583"><ele>25.8</ele><time>2026-05-02T08:34:49.358Z</time></trkpt><trkpt lat="40.0259483" lon="8.5183683"><ele>25.6</ele><time>2026-05-02T08:34:50.358Z</time></trkpt><trkpt lat="40.0259483" lon="8.5185033"><ele>25.4</ele><time>2026-05-02T08:34:52.358Z</time></trkpt><trkpt lat="40.02602" lon="8.5185283"><ele>25.2</ele><time>2026-05-02T08:34:55.358Z</time></trkpt><trkpt lat="40.026115" lon="8.5185083"><ele>25.0</ele><time>2026-05-02T08:34:57.358Z</time></trkpt><trkpt lat="40.0262217" lon="8.5184517"><ele>25.0</ele><time>2026-05-02T08:34:58.358Z</time></trkpt><trkpt lat="40.0263567" lon="8.51838"><ele>25.0</ele><time>2026-05-02T08:34:59.358Z</time></trkpt><trkpt lat="40.0265083" lon="8.51829"><ele>25.0</ele><time>2026-05-02T08:35:00.358Z</time></trkpt><trkpt lat="40.0266783" lon="8.518215"><ele>25.0</ele><time>2026-05-02T08:35:01.358Z</time></trkpt><trkpt lat="40.02685" lon="8.51816"><ele>25.0</ele><time>2026-05-02T08:35:02.358Z</time></trkpt><trkpt lat="40.0270217" lon="8.5181083"><ele>25.0</ele><time>2026-05-02T08:35:03.358Z</time></trkpt><trkpt lat="40.0271833" lon="8.5180633"><ele>25.0</ele><time>2026-05-02T08:35:04.358Z</time></trkpt><trkpt lat="40.0273383" lon="8.51803"><ele>25.0</ele><time>2026-05-02T08:35:05.358Z</time></trkpt><trkpt lat="40.0274767" lon="8.517995"><ele>25.0</ele><time>2026-05-02T08:35:06.358Z</time></trkpt><trkpt lat="40.027625" lon="8.5179733"><ele>25.0</ele><time>2026-05-02T08:35:07.358Z</time></trkpt><trkpt lat="40.02778" lon="8.517935"><ele>26.0</ele><time>2026-05-02T08:35:08.358Z</time></trkpt><trkpt lat="40.0279417" lon="8.51789"><ele>27.0</ele><time>2026-05-02T08:35:09.358Z</time></trkpt><trkpt lat="40.0281117" lon="8.51785"><ele>28.0</ele><time>2026-05-02T08:35:10.358Z</time></trkpt><trkpt lat="40.02828" lon="8.5178133"><ele>28.666666666666668</ele><time>2026-05-02T08:35:11.358Z</time></trkpt><trkpt lat="40.028445" lon="8.51777"><ele>29.333333333333336</ele><time>2026-05-02T08:35:12.358Z</time></trkpt><trkpt lat="40.02863" lon="8.5177283"><ele>30.0</ele><time>2026-05-02T08:35:13.358Z</time></trkpt><trkpt lat="40.0287983" lon="8.5176733"><ele>30.0</ele><time>2026-05-02T08:35:14.358Z</time></trkpt><trkpt lat="40.028965" lon="8.5176267"><ele>30.0</ele><time>2026-05-02T08:35:15.358Z</time></trkpt><trkpt lat="40.0291383" lon="8.5175833"><ele>30.0</ele><time>2026-05-02T08:35:16.358Z</time></trkpt><trkpt lat="40.0293083" lon="8.5175333"><ele>31.666666666666664</ele><time>2026-05-02T08:35:17.358Z</time></trkpt><trkpt lat="40.029485" lon="8.5174867"><ele>33.33333333333333</ele><time>2026-05-02T08:35:18.358Z</time></trkpt><trkpt lat="40.0296667" lon="8.5174283"><ele>35.0</ele><time>2026-05-02T08:35:19.358Z</time></trkpt><trkpt lat="40.0298517" lon="8.5173583"><ele>38.0</ele><time>2026-05-02T08:35:20.358Z</time></trkpt><trkpt lat="40.03004" lon="8.5172717"><ele>41.0</ele><time>2026-05-02T08:35:21.358Z</time></trkpt><trkpt lat="40.0302383" lon="8.51717"><ele>44.0</ele><time>2026-05-02T08:35:22.358Z</time></trkpt><trkpt lat="40.0304417" lon="8.5170717"><ele>43.33333333333333</ele><time>2026-05-02T08:35:23.358Z</time></trkpt><trkpt lat="40.0306333" lon="8.51697"><ele>42.666666666666664</ele><time>2026-05-02T08:35:24.358Z</time></trkpt><trkpt lat="40.03081" lon="8.5168617"><ele>42.0</ele><time>2026-05-02T08:35:25.358Z</time></trkpt><trkpt lat="40.0309833" lon="8.516765"><ele>42.0</ele><time>2026-05-02T08:35:26.358Z</time></trkpt><trkpt lat="40.0311583" lon="8.51668"><ele>42.0</ele><time>2026-05-02T08:35:27.358Z</time></trkpt><trkpt lat="40.0313217" lon="8.5166"><ele>42.0</ele><time>2026-05-02T08:35:28.358Z</time></trkpt><trkpt lat="40.0314733" lon="8.5165167"><ele>42.0</ele><time>2026-05-02T08:35:29.358Z</time></trkpt><trkpt lat="40.0316233" lon="8.5164283"><ele>42.0</ele><time>2026-05-02T08:35:30.358Z</time></trkpt><trkpt lat="40.0317767" lon="8.516335"><ele>42.0</ele><time>2026-05-02T08:35:31.358Z</time></trkpt><trkpt lat="40.0319417" lon="8.5162333"><ele>41.666666666666664</ele><time>2026-05-02T08:35:32.358Z</time></trkpt><trkpt lat="40.0321233" lon="8.5161233"><ele>41.33333333333333</ele><time>2026-05-02T08:35:33.358Z</time></trkpt><trkpt lat="40.032315" lon="8.516025"><ele>41.0</ele><time>2026-05-02T08:35:34.358Z</time></trkpt><trkpt lat="40.0325133" lon="8.5159167"><ele>42.5</ele><time>2026-05-02T08:35:35.358Z</time></trkpt><trkpt lat="40.0327283" lon="8.5158033"><ele>44.0</ele><time>2026-05-02T08:35:36.358Z</time></trkpt><trkpt lat="40.0329367" lon="8.5156817"><ele>44.0</ele><time>2026-05-02T08:35:37.358Z</time></trkpt><trkpt lat="40.033145" lon="8.5155683"><ele>44.0</ele><time>2026-05-02T08:35:38.358Z</time></trkpt><trkpt lat="40.0333583" lon="8.51545"><ele>44.0</ele><time>2026-05-02T08:35:39.358Z</time></trkpt><trkpt lat="40.0335883" lon="8.5153283"><ele>44.0</ele><time>2026-05-02T08:35:40.358Z</time></trkpt><trkpt lat="40.0338233" lon="8.5151883"><ele>44.0</ele><time>2026-05-02T08:35:41.358Z</time></trkpt><trkpt lat="40.034065" lon="8.5150583"><ele>44.0</ele><time>2026-05-02T08:35:42.358Z</time></trkpt><trkpt lat="40.0343033" lon="8.5149283"><ele>45.0</ele><time>2026-05-02T08:35:43.358Z</time></trkpt><trkpt lat="40.03454" lon="8.5147933"><ele>46.0</ele><time>2026-05-02T08:35:44.358Z</time></trkpt><trkpt lat="40.0347667" lon="8.514665"><ele>45.0</ele><time>2026-05-02T08:35:45.358Z</time></trkpt><trkpt lat="40.0349917" lon="8.5145383"><ele>44.0</ele><time>2026-05-02T08:35:46.358Z</time></trkpt><trkpt lat="40.0352183" lon="8.51441"><ele>44.0</ele><time>2026-05-02T08:35:47.358Z</time></trkpt><trkpt lat="40.03544" lon="8.514285"><ele>44.0</ele><time>2026-05-02T08:35:48.358Z</time></trkpt><trkpt lat="40.0356583" lon="8.5141633"><ele>44.5</ele><time>2026-05-02T08:35:49.358Z</time></trkpt><trkpt lat="40.0358683" lon="8.5140367"><ele>45.0</ele><time>2026-05-02T08:35:50.358Z</time></trkpt><trkpt lat="40.036075" lon="8.513925"><ele>45.0</ele><time>2026-05-02T08:35:51.358Z</time></trkpt><trkpt lat="40.0362783" lon="8.5138233"><ele>45.0</ele><time>2026-05-02T08:35:52.358Z</time></trkpt><trkpt lat="40.03648" lon="8.513725"><ele>45.0</ele><time>2026-05-02T08:35:53.358Z</time></trkpt><trkpt lat="40.0366733" lon="8.5136483"><ele>46.0</ele><time>2026-05-02T08:35:54.358Z</time></trkpt><trkpt lat="40.0368767" lon="8.51357"><ele>47.0</ele><time>2026-05-02T08:35:55.358Z</time></trkpt><trkpt lat="40.0370817" lon="8.5134933"><ele>48.0</ele><time>2026-05-02T08:35:56.358Z</time></trkpt><trkpt lat="40.0372917" lon="8.5134083"><ele>48.33333333333333</ele><time>2026-05-02T08:35:57.358Z</time></trkpt><trkpt lat="40.0375" lon="8.51332"><ele>48.666666666666664</ele><time>2026-05-02T08:35:58.358Z</time></trkpt><trkpt lat="40.0376883" lon="8.5132483"><ele>49.0</ele><time>2026-05-02T08:35:59.358Z</time></trkpt><trkpt lat="40.0378467" lon="8.513185"><ele>49.0</ele><time>2026-05-02T08:36:00.358Z</time></trkpt><trkpt lat="40.03799" lon="8.5131217"><ele>49.0</ele><time>2026-05-02T08:36:01.358Z</time></trkpt><trkpt lat="40.0381367" lon="8.5130717"><ele>49.0</ele><time>2026-05-02T08:36:02.358Z</time></trkpt><trkpt lat="40.0382817" lon="8.513035"><ele>49.25</ele><time>2026-05-02T08:36:03.358Z</time></trkpt><trkpt lat="40.0384017" lon="8.5129767"><ele>49.5</ele><time>2026-05-02T08:36:04.358Z</time></trkpt><trkpt lat="40.0385283" lon="8.5129233"><ele>49.75</ele><time>2026-05-02T08:36:05.358Z</time></trkpt><trkpt lat="40.0386517" lon="8.5128683"><ele>50.0</ele><time>2026-05-02T08:36:06.358Z</time></trkpt><trkpt lat="40.0387733" lon="8.5128233"><ele>50.0</ele><time>2026-05-02T08:36:07.358Z</time></trkpt><trkpt lat="40.038885" lon="8.512785"><ele>50.0</ele><time>2026-05-02T08:36:08.358Z</time></trkpt><trkpt lat="40.0389917" lon="8.51274"><ele>50.0</ele><time>2026-05-02T08:36:09.358Z</time></trkpt><trkpt lat="40.0390917" lon="8.5127067"><ele>50.0</ele><time>2026-05-02T08:36:10.358Z</time></trkpt><trkpt lat="40.039195" lon="8.512665"><ele>50.0</ele><time>2026-05-02T08:36:11.358Z</time></trkpt><trkpt lat="40.0392833" lon="8.5126333"><ele>50.16666666666667</ele><time>2026-05-02T08:36:12.358Z</time></trkpt><trkpt lat="40.0393633" lon="8.51262"><ele>50.333333333333336</ele><time>2026-05-02T08:36:13.358Z</time></trkpt><trkpt lat="40.0394283" lon="8.512685"><ele>50.5</ele><time>2026-05-02T08:36:15.358Z</time></trkpt><trkpt lat="40.0394467" lon="8.512765"><ele>50.66666666666667</ele><time>2026-05-02T08:36:16.358Z</time></trkpt><trkpt lat="40.039475" lon="8.5128617"><ele>50.833333333333336</ele><time>2026-05-02T08:36:17.358Z</time></trkpt><trkpt lat="40.0395067" lon="8.512965"><ele>51.0</ele><time>2026-05-02T08:36:18.358Z</time></trkpt><trkpt lat="40.0395317" lon="8.5130767"><ele>51.199999999999996</ele><time>2026-05-02T08:36:19.358Z</time></trkpt><trkpt lat="40.0395567" lon="8.5131983"><ele>51.4</ele><time>2026-05-02T08:36:20.358Z</time></trkpt><trkpt lat="40.0395617" lon="8.51332"><ele>51.6</ele><time>2026-05-02T08:36:21.358Z</time></trkpt><trkpt lat="40.03956" lon="8.5134367"><ele>51.8</ele><time>2026-05-02T08:36:22.358Z</time></trkpt><trkpt lat="40.0395533" lon="8.51356"><ele>52.0</ele><time>2026-05-02T08:36:23.358Z</time></trkpt><trkpt lat="40.039545" lon="8.5136683"><ele>52.400000000000006</ele><time>2026-05-02T08:36:24.358Z</time></trkpt><trkpt lat="40.0395367" lon="8.51378"><ele>52.800000000000004</ele><time>2026-05-02T08:36:25.358Z</time></trkpt><trkpt lat="40.0395183" lon="8.5138883"><ele>53.2</ele><time>2026-05-02T08:36:26.358Z</time></trkpt><trkpt lat="40.0394883" lon="8.5140117"><ele>53.6</ele><time>2026-05-02T08:36:27.358Z</time></trkpt><trkpt lat="40.039435" lon="8.5141483"><ele>54.0</ele><time>2026-05-02T08:36:28.358Z</time></trkpt><trkpt lat="40.039365" lon="8.51431"><ele>54.0</ele><time>2026-05-02T08:36:29.358Z</time></trkpt><trkpt lat="40.0392867" lon="8.5144917"><ele>54.0</ele><time>2026-05-02T08:36:30.358Z</time></trkpt><trkpt lat="40.0391867" lon="8.514685"><ele>54.0</ele><time>2026-05-02T08:36:31.358Z</time></trkpt><trkpt lat="40.0390817" lon="8.5149"><ele>53.66666666666667</ele><time>2026-05-02T08:36:32.358Z</time></trkpt><trkpt lat="40.03897" lon="8.51511"><ele>53.333333333333336</ele><time>2026-05-02T08:36:33.358Z</time></trkpt><trkpt lat="40.0388783" lon="8.515315"><ele>53.0</ele><time>2026-05-02T08:36:34.358Z</time></trkpt><trkpt lat="40.0387783" lon="8.5155067"><ele>53.0</ele><time>2026-05-02T08:36:35.358Z</time></trkpt><trkpt lat="40.03867" lon="8.5156983"><ele>53.0</ele><time>2026-05-02T08:36:36.358Z</time></trkpt><trkpt lat="40.0385567" lon="8.51589"><ele>53.0</ele><time>2026-05-02T08:36:37.358Z</time></trkpt><trkpt lat="40.038455" lon="8.5160783"><ele>53.333333333333336</ele><time>2026-05-02T08:36:38.358Z</time></trkpt><trkpt lat="40.0383567" lon="8.5162667"><ele>53.66666666666667</ele><time>2026-05-02T08:36:39.358Z</time></trkpt><trkpt lat="40.038255" lon="8.516445"><ele>54.0</ele><time>2026-05-02T08:36:40.358Z</time></trkpt><trkpt lat="40.0381367" lon="8.5166133"><ele>53.75</ele><time>2026-05-02T08:36:41.358Z</time></trkpt><trkpt lat="40.03803" lon="8.516765"><ele>53.5</ele><time>2026-05-02T08:36:42.358Z</time></trkpt><trkpt lat="40.0379433" lon="8.5169017"><ele>53.25</ele><time>2026-05-02T08:36:43.358Z</time></trkpt><trkpt lat="40.0378633" lon="8.51703"><ele>53.0</ele><time>2026-05-02T08:36:44.358Z</time></trkpt><trkpt lat="40.0377817" lon="8.5171617"><ele>53.0</ele><time>2026-05-02T08:36:45.358Z</time></trkpt><trkpt lat="40.03766" lon="8.5172917"><ele>53.0</ele><time>2026-05-02T08:36:46.358Z</time></trkpt><trkpt lat="40.037525" lon="8.5174283"><ele>53.0</ele><time>2026-05-02T08:36:47.358Z</time></trkpt><trkpt lat="40.0373983" lon="8.5175517"><ele>53.0</ele><time>2026-05-02T08:36:48.358Z</time></trkpt><trkpt lat="40.0372683" lon="8.5177017"><ele>53.0</ele><time>2026-05-02T08:36:49.358Z</time></trkpt><trkpt lat="40.03715" lon="8.5178617"><ele>53.0</ele><time>2026-05-02T08:36:50.358Z</time></trkpt><trkpt lat="40.037045" lon="8.5180433"><ele>53.66666666666667</ele><time>2026-05-02T08:36:51.358Z</time></trkpt><trkpt lat="40.0369517" lon="8.5182117"><ele>54.33333333333333</ele><time>2026-05-02T08:36:52.358Z</time></trkpt><trkpt lat="40.0368283" lon="8.5183933"><ele>55.0</ele><time>2026-05-02T08:36:53.358Z</time></trkpt><trkpt lat="40.0367033" lon="8.5185733"><ele>56.666666666666664</ele><time>2026-05-02T08:36:54.358Z</time></trkpt><trkpt lat="40.0365833" lon="8.5187517"><ele>58.33333333333333</ele><time>2026-05-02T08:36:55.358Z</time></trkpt><trkpt lat="40.036465" lon="8.5189283"><ele>60.0</ele><time>2026-05-02T08:36:56.358Z</time></trkpt><trkpt lat="40.0363533" lon="8.51911"><ele>60.0</ele><time>2026-05-02T08:36:57.358Z</time></trkpt><trkpt lat="40.0362417" lon="8.51931"><ele>60.0</ele><time>2026-05-02T08:36:58.358Z</time></trkpt><trkpt lat="40.0361217" lon="8.5195067"><ele>60.0</ele><time>2026-05-02T08:36:59.358Z</time></trkpt><trkpt lat="40.0360067" lon="8.519715"><ele>60.33333333333333</ele><time>2026-05-02T08:37:00.358Z</time></trkpt><trkpt lat="40.035895" lon="8.5199017"><ele>60.666666666666664</ele><time>2026-05-02T08:37:01.358Z</time></trkpt><trkpt lat="40.035785" lon="8.5200833"><ele>61.0</ele><time>2026-05-02T08:37:02.358Z</time></trkpt><trkpt lat="40.0356867" lon="8.5202583"><ele>60.666666666666664</ele><time>2026-05-02T08:37:03.358Z</time></trkpt><trkpt lat="40.0355917" lon="8.520435"><ele>60.33333333333333</ele><time>2026-05-02T08:37:04.358Z</time></trkpt><trkpt lat="40.0355033" lon="8.5206133"><ele>60.0</ele><time>2026-05-02T08:37:05.358Z</time></trkpt><trkpt lat="40.0354167" lon="8.5208033"><ele>60.0</ele><time>2026-05-02T08:37:06.358Z</time></trkpt><trkpt lat="40.0353483" lon="8.521"><ele>60.0</ele><time>2026-05-02T08:37:07.358Z</time></trkpt><trkpt lat="40.0352867" lon="8.5212183"><ele>60.0</ele><time>2026-05-02T08:37:08.358Z</time></trkpt><trkpt lat="40.0352367" lon="8.5214483"><ele>60.66666666666667</ele><time>2026-05-02T08:37:09.358Z</time></trkpt><trkpt lat="40.0351783" lon="8.5216767"><ele>61.333333333333336</ele><time>2026-05-02T08:37:10.358Z</time></trkpt><trkpt lat="40.03509" lon="8.5219"><ele>62.0</ele><time>2026-05-02T08:37:11.358Z</time></trkpt><trkpt lat="40.0349967" lon="8.5221167"><ele>63.0</ele><time>2026-05-02T08:37:12.358Z</time></trkpt><trkpt lat="40.0349167" lon="8.5223233"><ele>64.0</ele><time>2026-05-02T08:37:13.358Z</time></trkpt><trkpt lat="40.0348533" lon="8.5224867"><ele>65.0</ele><time>2026-05-02T08:37:14.358Z</time></trkpt><trkpt lat="40.034805" lon="8.52264"><ele>66.0</ele><time>2026-05-02T08:37:15.358Z</time></trkpt><trkpt lat="40.0347633" lon="8.5228383"><ele>66.0</ele><time>2026-05-02T08:37:16.358Z</time></trkpt><trkpt lat="40.0347433" lon="8.5230517"><ele>66.0</ele><time>2026-05-02T08:37:17.358Z</time></trkpt><trkpt lat="40.0347283" lon="8.5232667"><ele>66.0</ele><time>2026-05-02T08:37:18.358Z</time></trkpt><trkpt lat="40.034715" lon="8.5234583"><ele>66.0</ele><time>2026-05-02T08:37:19.358Z</time></trkpt><trkpt lat="40.034695" lon="8.523615"><ele>66.0</ele><time>2026-05-02T08:37:20.358Z</time></trkpt><trkpt lat="40.034695" lon="8.5237333"><ele>66.0</ele><time>2026-05-02T08:37:21.358Z</time></trkpt><trkpt lat="40.0346933" lon="8.5238433"><ele>66.0</ele><time>2026-05-02T08:37:22.358Z</time></trkpt><trkpt lat="40.0347017" lon="8.5239467"><ele>66.0</ele><time>2026-05-02T08:37:23.358Z</time></trkpt><trkpt lat="40.0347283" lon="8.524065"><ele>66.5</ele><time>2026-05-02T08:37:24.358Z</time></trkpt><trkpt lat="40.0347683" lon="8.5242067"><ele>67.0</ele><time>2026-05-02T08:37:25.358Z</time></trkpt><trkpt lat="40.0348167" lon="8.52436"><ele>67.5</ele><time>2026-05-02T08:37:26.358Z</time></trkpt><trkpt lat="40.034855" lon="8.52452"><ele>68.0</ele><time>2026-05-02T08:37:27.358Z</time></trkpt><trkpt lat="40.0348833" lon="8.52469"><ele>68.0</ele><time>2026-05-02T08:37:28.358Z</time></trkpt><trkpt lat="40.034905" lon="8.524865"><ele>68.0</ele><time>2026-05-02T08:37:29.358Z</time></trkpt><trkpt lat="40.0349267" lon="8.5250367"><ele>68.0</ele><time>2026-05-02T08:37:30.358Z</time></trkpt><trkpt lat="40.0349517" lon="8.52521"><ele>68.0</ele><time>2026-05-02T08:37:31.358Z</time></trkpt><trkpt lat="40.0349717" lon="8.5253767"><ele>67.4</ele><time>2026-05-02T08:37:32.358Z</time></trkpt><trkpt lat="40.0349983" lon="8.5255183"><ele>66.8</ele><time>2026-05-02T08:37:33.358Z</time></trkpt><trkpt lat="40.0350367" lon="8.5256417"><ele>66.2</ele><time>2026-05-02T08:37:34.358Z</time></trkpt><trkpt lat="40.0350733" lon="8.52577"><ele>65.6</ele><time>2026-05-02T08:37:35.358Z</time></trkpt><trkpt lat="40.035095" lon="8.5259083"><ele>65.0</ele><time>2026-05-02T08:37:36.358Z</time></trkpt><trkpt lat="40.0351417" lon="8.526"><ele>65.0</ele><time>2026-05-02T08:37:37.358Z</time></trkpt><trkpt lat="40.0351933" lon="8.5260833"><ele>65.0</ele><time>2026-05-02T08:37:38.358Z</time></trkpt><trkpt lat="40.0352433" lon="8.5261483"><ele>65.0</ele><time>2026-05-02T08:37:39.358Z</time></trkpt><trkpt lat="40.0353" lon="8.5262233"><ele>65.0</ele><time>2026-05-02T08:37:40.358Z</time></trkpt><trkpt lat="40.0353533" lon="8.5262967"><ele>65.0</ele><time>2026-05-02T08:37:41.358Z</time></trkpt><trkpt lat="40.0354067" lon="8.5263617"><ele>65.0</ele><time>2026-05-02T08:37:42.358Z</time></trkpt><trkpt lat="40.035465" lon="8.5264717"><ele>64.5</ele><time>2026-05-02T08:37:44.358Z</time></trkpt><trkpt lat="40.03544" lon="8.5265817"><ele>64.0</ele><time>2026-05-02T08:37:46.358Z</time></trkpt><trkpt lat="40.0353733" lon="8.526665"><ele>63.5</ele><time>2026-05-02T08:37:47.358Z</time></trkpt><trkpt lat="40.0352883" lon="8.5267883"><ele>63.0</ele><time>2026-05-02T08:37:48.358Z</time></trkpt><trkpt lat="40.0351917" lon="8.5269517"><ele>62.33333333333333</ele><time>2026-05-02T08:37:49.358Z</time></trkpt><trkpt lat="40.0350883" lon="8.5271183"><ele>61.666666666666664</ele><time>2026-05-02T08:37:50.358Z</time></trkpt><trkpt lat="40.034995" lon="8.5272783"><ele>61.0</ele><time>2026-05-02T08:37:51.358Z</time></trkpt><trkpt lat="40.0349067" lon="8.5274433"><ele>60.33333333333333</ele><time>2026-05-02T08:37:52.358Z</time></trkpt><trkpt lat="40.0348283" lon="8.52762"><ele>59.66666666666667</ele><time>2026-05-02T08:37:53.358Z</time></trkpt><trkpt lat="40.0347433" lon="8.5277933"><ele>59.0</ele><time>2026-05-02T08:37:54.358Z</time></trkpt><trkpt lat="40.03465" lon="8.527975"><ele>58.333333333333336</ele><time>2026-05-02T08:37:55.358Z</time></trkpt><trkpt lat="40.0345467" lon="8.5281433"><ele>57.66666666666667</ele><time>2026-05-02T08:37:56.358Z</time></trkpt><trkpt lat="40.0344383" lon="8.5282983"><ele>57.0</ele><time>2026-05-02T08:37:57.358Z</time></trkpt><trkpt lat="40.0343383" lon="8.52846"><ele>57.0</ele><time>2026-05-02T08:37:58.358Z</time></trkpt><trkpt lat="40.0342467" lon="8.5286133"><ele>57.0</ele><time>2026-05-02T08:37:59.358Z</time></trkpt><trkpt lat="40.034165" lon="8.528755"><ele>57.0</ele><time>2026-05-02T08:38:00.358Z</time></trkpt><trkpt lat="40.0340967" lon="8.528885"><ele>57.0</ele><time>2026-05-02T08:38:01.358Z</time></trkpt><trkpt lat="40.03404" lon="8.5289967"><ele>56.5</ele><time>2026-05-02T08:38:02.358Z</time></trkpt><trkpt lat="40.03401" lon="8.529105"><ele>56.0</ele><time>2026-05-02T08:38:03.358Z</time></trkpt><trkpt lat="40.0339983" lon="8.5292417"><ele>55.5</ele><time>2026-05-02T08:38:04.358Z</time></trkpt><trkpt lat="40.0339933" lon="8.5294033"><ele>55.0</ele><time>2026-05-02T08:38:05.358Z</time></trkpt><trkpt lat="40.0339783" lon="8.5295817"><ele>54.666666666666664</ele><time>2026-05-02T08:38:06.358Z</time></trkpt><trkpt lat="40.03396" lon="8.529785"><ele>54.33333333333333</ele><time>2026-05-02T08:38:07.358Z</time></trkpt><trkpt lat="40.0339317" lon="8.529985"><ele>54.0</ele><time>2026-05-02T08:38:08.358Z</time></trkpt><trkpt lat="40.03391" lon="8.530165"><ele>54.0</ele><time>2026-05-02T08:38:09.358Z</time></trkpt><trkpt lat="40.033895" lon="8.5303367"><ele>54.0</ele><time>2026-05-02T08:38:10.358Z</time></trkpt><trkpt lat="40.033905" lon="8.5305117"><ele>54.0</ele><time>2026-05-02T08:38:11.358Z</time></trkpt><trkpt lat="40.0339267" lon="8.5306983"><ele>54.0</ele><time>2026-05-02T08:38:12.358Z</time></trkpt><trkpt lat="40.03392" lon="8.53086"><ele>54.25</ele><time>2026-05-02T08:38:13.358Z</time></trkpt><trkpt lat="40.0338917" lon="8.531005"><ele>54.5</ele><time>2026-05-02T08:38:14.358Z</time></trkpt><trkpt lat="40.0338467" lon="8.5311683"><ele>54.75</ele><time>2026-05-02T08:38:15.358Z</time></trkpt><trkpt lat="40.0337867" lon="8.531345"><ele>55.0</ele><time>2026-05-02T08:38:16.358Z</time></trkpt><trkpt lat="40.033735" lon="8.53148"><ele>55.75</ele><time>2026-05-02T08:38:17.358Z</time></trkpt><trkpt lat="40.0336717" lon="8.531595"><ele>56.5</ele><time>2026-05-02T08:38:18.358Z</time></trkpt><trkpt lat="40.0335967" lon="8.5317"><ele>57.25</ele><time>2026-05-02T08:38:19.358Z</time></trkpt><trkpt lat="40.033485" lon="8.53182"><ele>58.0</ele><time>2026-05-02T08:38:20.358Z</time></trkpt><trkpt lat="40.033345" lon="8.5319233"><ele>58.33333333333333</ele><time>2026-05-02T08:38:21.358Z</time></trkpt><trkpt lat="40.0331783" lon="8.5320067"><ele>58.66666666666667</ele><time>2026-05-02T08:38:22.358Z</time></trkpt><trkpt lat="40.0330117" lon="8.532075"><ele>59.0</ele><time>2026-05-02T08:38:23.358Z</time></trkpt><trkpt lat="40.032855" lon="8.5321317"><ele>59.0</ele><time>2026-05-02T08:38:24.358Z</time></trkpt><trkpt lat="40.0327083" lon="8.5321983"><ele>59.0</ele><time>2026-05-02T08:38:25.358Z</time></trkpt><trkpt lat="40.0325967" lon="8.5322583"><ele>59.0</ele><time>2026-05-02T08:38:26.358Z</time></trkpt><trkpt lat="40.0325" lon="8.5323083"><ele>59.0</ele><time>2026-05-02T08:38:27.358Z</time></trkpt><trkpt lat="40.0324183" lon="8.5323633"><ele>58.75</ele><time>2026-05-02T08:38:28.358Z</time></trkpt><trkpt lat="40.032335" lon="8.5324333"><ele>58.5</ele><time>2026-05-02T08:38:29.358Z</time></trkpt><trkpt lat="40.0322517" lon="8.5325183"><ele>58.25</ele><time>2026-05-02T08:38:30.358Z</time></trkpt><trkpt lat="40.03216" lon="8.532625"><ele>58.0</ele><time>2026-05-02T08:38:31.358Z</time></trkpt><trkpt lat="40.03206" lon="8.5327333"><ele>58.0</ele><time>2026-05-02T08:38:32.358Z</time></trkpt><trkpt lat="40.03197" lon="8.532825"><ele>58.0</ele><time>2026-05-02T08:38:33.358Z</time></trkpt><trkpt lat="40.0318833" lon="8.5329067"><ele>58.0</ele><time>2026-05-02T08:38:34.358Z</time></trkpt><trkpt lat="40.03181" lon="8.5329817"><ele>58.0</ele><time>2026-05-02T08:38:35.358Z</time></trkpt><trkpt lat="40.0317467" lon="8.53303"><ele>58.0</ele><time>2026-05-02T08:38:36.358Z</time></trkpt><trkpt lat="40.0316967" lon="8.53314"><ele>58.49999999999999</ele><time>2026-05-02T08:38:38.358Z</time></trkpt><trkpt lat="40.0317067" lon="8.5332583"><ele>59.0</ele><time>2026-05-02T08:38:40.358Z</time></trkpt><trkpt lat="40.031725" lon="8.53338"><ele>59.5</ele><time>2026-05-02T08:38:56.358Z</time></trkpt><trkpt lat="40.0317317" lon="8.5334717"><ele>60.0</ele><time>2026-05-02T08:38:57.358Z</time></trkpt><trkpt lat="40.0317367" lon="8.5335933"><ele>60.49999999999999</ele><time>2026-05-02T08:38:58.358Z</time></trkpt><trkpt lat="40.0317483" lon="8.53372"><ele>61.0</ele><time>2026-05-02T08:38:59.358Z</time></trkpt><trkpt lat="40.031765" lon="8.5338683"><ele>62.5</ele><time>2026-05-02T08:39:00.358Z</time></trkpt><trkpt lat="40.03178" lon="8.534015"><ele>64.0</ele><time>2026-05-02T08:39:01.358Z</time></trkpt><trkpt lat="40.031785" lon="8.5341683"><ele>65.5</ele><time>2026-05-02T08:39:02.358Z</time></trkpt><trkpt lat="40.0317867" lon="8.5343233"><ele>67.0</ele><time>2026-05-02T08:39:03.358Z</time></trkpt><trkpt lat="40.0317933" lon="8.5344667"><ele>67.83333333333333</ele><time>2026-05-02T08:39:04.358Z</time></trkpt><trkpt lat="40.0317983" lon="8.534605"><ele>68.66666666666666</ele><time>2026-05-02T08:39:05.358Z</time></trkpt><trkpt lat="40.0318033" lon="8.5347217"><ele>69.5</ele><time>2026-05-02T08:39:06.358Z</time></trkpt><trkpt lat="40.0318" lon="8.5348267"><ele>70.33333333333333</ele><time>2026-05-02T08:39:07.358Z</time></trkpt><trkpt lat="40.0318083" lon="8.5349267"><ele>71.16666666666667</ele><time>2026-05-02T08:39:08.358Z</time></trkpt><trkpt lat="40.0318383" lon="8.5350333"><ele>72.0</ele><time>2026-05-02T08:39:09.358Z</time></trkpt><trkpt lat="40.0318867" lon="8.5351517"><ele>72.0</ele><time>2026-05-02T08:39:10.358Z</time></trkpt><trkpt lat="40.0319417" lon="8.53529"><ele>72.0</ele><time>2026-05-02T08:39:11.358Z</time></trkpt><trkpt lat="40.0319867" lon="8.5354367"><ele>72.0</ele><time>2026-05-02T08:39:12.358Z</time></trkpt><trkpt lat="40.0320283" lon="8.5355867"><ele>72.0</ele><time>2026-05-02T08:39:13.358Z</time></trkpt><trkpt lat="40.0320817" lon="8.5357267"><ele>74.0</ele><time>2026-05-02T08:39:14.358Z</time></trkpt><trkpt lat="40.03214" lon="8.5358783"><ele>76.0</ele><time>2026-05-02T08:39:15.358Z</time></trkpt><trkpt lat="40.0321967" lon="8.5360333"><ele>78.0</ele><time>2026-05-02T08:39:16.359Z</time></trkpt><trkpt lat="40.0322517" lon="8.5361933"><ele>80.0</ele><time>2026-05-02T08:39:17.358Z</time></trkpt><trkpt lat="40.0323067" lon="8.5363517"><ele>81.0</ele><time>2026-05-02T08:39:18.358Z</time></trkpt><trkpt lat="40.0323567" lon="8.536505"><ele>82.0</ele><time>2026-05-02T08:39:19.358Z</time></trkpt><trkpt lat="40.0324" lon="8.53664"><ele>83.0</ele><time>2026-05-02T08:39:20.358Z</time></trkpt><trkpt lat="40.0324283" lon="8.536765"><ele>84.0</ele><time>2026-05-02T08:39:21.358Z</time></trkpt><trkpt lat="40.0324633" lon="8.5368733"><ele>85.0</ele><time>2026-05-02T08:39:22.358Z</time></trkpt><trkpt lat="40.032495" lon="8.5369667"><ele>84.33333333333333</ele><time>2026-05-02T08:39:23.358Z</time></trkpt><trkpt lat="40.0325833" lon="8.5370617"><ele>83.66666666666666</ele><time>2026-05-02T08:39:25.358Z</time></trkpt><trkpt lat="40.032645" lon="8.537125"><ele>83.0</ele><time>2026-05-02T08:39:26.358Z</time></trkpt><trkpt lat="40.0326983" lon="8.5372067"><ele>82.33333333333333</ele><time>2026-05-02T08:39:27.358Z</time></trkpt><trkpt lat="40.03275" lon="8.53729"><ele>81.66666666666667</ele><time>2026-05-02T08:39:28.358Z</time></trkpt><trkpt lat="40.0328033" lon="8.5373567"><ele>81.0</ele><time>2026-05-02T08:39:29.358Z</time></trkpt><trkpt lat="40.03287" lon="8.5374033"><ele>81.0</ele><time>2026-05-02T08:39:30.358Z</time></trkpt><trkpt lat="40.03296" lon="8.5374467"><ele>81.0</ele><time>2026-05-02T08:39:31.358Z</time></trkpt><trkpt lat="40.03306" lon="8.5374867"><ele>81.0</ele><time>2026-05-02T08:39:32.358Z</time></trkpt><trkpt lat="40.0331617" lon="8.53754"><ele>81.0</ele><time>2026-05-02T08:39:33.358Z</time></trkpt><trkpt lat="40.0332717" lon="8.5376017"><ele>81.0</ele><time>2026-05-02T08:39:34.358Z</time></trkpt><trkpt lat="40.03339" lon="8.5376633"><ele>81.25</ele><time>2026-05-02T08:39:35.358Z</time></trkpt><trkpt lat="40.0335083" lon="8.5377067"><ele>81.5</ele><time>2026-05-02T08:39:36.358Z</time></trkpt><trkpt lat="40.0336233" lon="8.5377317"><ele>81.75</ele><time>2026-05-02T08:39:37.358Z</time></trkpt><trkpt lat="40.0337333" lon="8.537735"><ele>82.0</ele><time>2026-05-02T08:39:38.358Z</time></trkpt><trkpt lat="40.0338383" lon="8.5377283"><ele>82.0</ele><time>2026-05-02T08:39:39.358Z</time></trkpt><trkpt lat="40.0339217" lon="8.5377167"><ele>82.0</ele><time>2026-05-02T08:39:40.358Z</time></trkpt><trkpt lat="40.033995" lon="8.537705"><ele>82.0</ele><time>2026-05-02T08:39:41.358Z</time></trkpt><trkpt lat="40.0340583" lon="8.537695"><ele>82.0</ele><time>2026-05-02T08:39:42.358Z</time></trkpt><trkpt lat="40.034125" lon="8.537705"><ele>82.0</ele><time>2026-05-02T08:39:43.358Z</time></trkpt><trkpt lat="40.03424" lon="8.537795"><ele>82.0</ele><time>2026-05-02T08:39:45.358Z</time></trkpt><trkpt lat="40.0342967" lon="8.5378517"><ele>79.0</ele><time>2026-05-02T08:39:46.358Z</time></trkpt><trkpt lat="40.0343617" lon="8.5379167"><ele>76.0</ele><time>2026-05-02T08:39:47.358Z</time></trkpt><trkpt lat="40.03444" lon="8.5379783"><ele>73.0</ele><time>2026-05-02T08:39:48.358Z</time></trkpt><trkpt lat="40.0345083" lon="8.5380467"><ele>70.0</ele><time>2026-05-02T08:39:49.358Z</time></trkpt><trkpt lat="40.0345767" lon="8.538135"><ele>67.0</ele><time>2026-05-02T08:39:50.358Z</time></trkpt><trkpt lat="40.0346517" lon="8.53824"><ele>67.0</ele><time>2026-05-02T08:39:51.358Z</time></trkpt><trkpt lat="40.0347267" lon="8.53834"><ele>67.0</ele><time>2026-05-02T08:39:52.358Z</time></trkpt><trkpt lat="40.0347967" lon="8.5384317"><ele>67.0</ele><time>2026-05-02T08:39:53.358Z</time></trkpt><trkpt lat="40.0348583" lon="8.5385133"><ele>67.0</ele><time>2026-05-02T08:39:54.358Z</time></trkpt><trkpt lat="40.0349183" lon="8.5385867"><ele>67.0</ele><time>2026-05-02T08:39:55.358Z</time></trkpt><trkpt lat="40.0349717" lon="8.5386517"><ele>67.0</ele><time>2026-05-02T08:39:56.358Z</time></trkpt><trkpt lat="40.0350383" lon="8.53872"><ele>66.16666666666666</ele><time>2026-05-02T08:39:57.358Z</time></trkpt><trkpt lat="40.0351033" lon="8.5387633"><ele>65.33333333333333</ele><time>2026-05-02T08:39:58.358Z</time></trkpt><trkpt lat="40.0351767" lon="8.5388133"><ele>64.5</ele><time>2026-05-02T08:39:59.358Z</time></trkpt><trkpt lat="40.03524" lon="8.53886"><ele>63.66666666666667</ele><time>2026-05-02T08:40:00.358Z</time></trkpt><trkpt lat="40.0353117" lon="8.5389083"><ele>62.833333333333336</ele><time>2026-05-02T08:40:01.358Z</time></trkpt><trkpt lat="40.0353867" lon="8.5389483"><ele>62.0</ele><time>2026-05-02T08:40:02.358Z</time></trkpt><trkpt lat="40.0354433" lon="8.5389983"><ele>62.0</ele><time>2026-05-02T08:40:03.358Z</time></trkpt><trkpt lat="40.0355183" lon="8.53914"><ele>62.0</ele><time>2026-05-02T08:40:05.358Z</time></trkpt><trkpt lat="40.035575" lon="8.5392967"><ele>62.0</ele><time>2026-05-02T08:40:07.358Z</time></trkpt><trkpt lat="40.0355917" lon="8.5393783"><ele>62.0</ele><time>2026-05-02T08:40:08.358Z</time></trkpt><trkpt lat="40.03561" lon="8.5394583"><ele>62.0</ele><time>2026-05-02T08:40:09.358Z</time></trkpt><trkpt lat="40.0356267" lon="8.5396017"><ele>60.833333333333336</ele><time>2026-05-02T08:40:11.358Z</time></trkpt><trkpt lat="40.0356083" lon="8.5396983"><ele>59.66666666666667</ele><time>2026-05-02T08:40:13.358Z</time></trkpt><trkpt lat="40.0355683" lon="8.53977"><ele>58.5</ele><time>2026-05-02T08:45:58.357Z</time></trkpt><trkpt lat="40.0355167" lon="8.5398783"><ele>57.33333333333333</ele><time>2026-05-02T08:46:00.357Z</time></trkpt><trkpt lat="40.0354617" lon="8.54002"><ele>56.166666666666664</ele><time>2026-05-02T08:46:02.357Z</time></trkpt><trkpt lat="40.0354283" lon="8.540095"><ele>55.0</ele><time>2026-05-02T08:46:03.357Z</time></trkpt><trkpt lat="40.0353933" lon="8.54017"><ele>55.0</ele><time>2026-05-02T08:46:04.357Z</time></trkpt><trkpt lat="40.0353433" lon="8.5402517"><ele>55.0</ele><time>2026-05-02T08:46:05.357Z</time></trkpt><trkpt lat="40.0352783" lon="8.5403367"><ele>55.0</ele><time>2026-05-02T08:46:06.357Z</time></trkpt><trkpt lat="40.0352133" lon="8.5404417"><ele>55.0</ele><time>2026-05-02T08:46:07.357Z</time></trkpt><trkpt lat="40.0351433" lon="8.5405767"><ele>55.0</ele><time>2026-05-02T08:46:08.357Z</time></trkpt><trkpt lat="40.035085" lon="8.5407183"><ele>53.5</ele><time>2026-05-02T08:46:09.357Z</time></trkpt><trkpt lat="40.0350483" lon="8.54087"><ele>52.0</ele><time>2026-05-02T08:46:10.357Z</time></trkpt><trkpt lat="40.0350167" lon="8.54103"><ele>50.5</ele><time>2026-05-02T08:46:11.357Z</time></trkpt><trkpt lat="40.0349817" lon="8.541195"><ele>49.0</ele><time>2026-05-02T08:46:12.357Z</time></trkpt><trkpt lat="40.0349433" lon="8.5413733"><ele>47.75</ele><time>2026-05-02T08:46:13.357Z</time></trkpt><trkpt lat="40.034905" lon="8.5415567"><ele>46.5</ele><time>2026-05-02T08:46:14.357Z</time></trkpt><trkpt lat="40.0348683" lon="8.5417333"><ele>45.25</ele><time>2026-05-02T08:46:15.357Z</time></trkpt><trkpt lat="40.0348433" lon="8.541885"><ele>44.0</ele><time>2026-05-02T08:46:16.357Z</time></trkpt><trkpt lat="40.0348167" lon="8.5420367"><ele>43.33333333333333</ele><time>2026-05-02T08:46:17.357Z</time></trkpt><trkpt lat="40.03477" lon="8.542205"><ele>42.666666666666664</ele><time>2026-05-02T08:46:18.357Z</time></trkpt><trkpt lat="40.0346967" lon="8.5423783"><ele>42.0</ele><time>2026-05-02T08:46:19.357Z</time></trkpt><trkpt lat="40.0346017" lon="8.54256"><ele>42.0</ele><time>2026-05-02T08:46:20.357Z</time></trkpt><trkpt lat="40.0345067" lon="8.54275"><ele>42.0</ele><time>2026-05-02T08:46:21.357Z</time></trkpt><trkpt lat="40.034425" lon="8.542915"><ele>42.0</ele><time>2026-05-02T08:46:22.357Z</time></trkpt><trkpt lat="40.0343517" lon="8.543045"><ele>42.0</ele><time>2026-05-02T08:46:23.357Z</time></trkpt><trkpt lat="40.03428" lon="8.54317"><ele>40.75</ele><time>2026-05-02T08:46:24.357Z</time></trkpt><trkpt lat="40.0341983" lon="8.5433067"><ele>39.5</ele><time>2026-05-02T08:46:25.357Z</time></trkpt><trkpt lat="40.03412" lon="8.5434567"><ele>38.25</ele><time>2026-05-02T08:46:26.357Z</time></trkpt><trkpt lat="40.034025" lon="8.5436117"><ele>37.0</ele><time>2026-05-02T08:46:27.357Z</time></trkpt><trkpt lat="40.0339283" lon="8.543755"><ele>36.0</ele><time>2026-05-02T08:46:28.357Z</time></trkpt><trkpt lat="40.0338417" lon="8.5439067"><ele>35.0</ele><time>2026-05-02T08:46:29.357Z</time></trkpt><trkpt lat="40.0337617" lon="8.5440767"><ele>34.0</ele><time>2026-05-02T08:46:30.357Z</time></trkpt><trkpt lat="40.0336867" lon="8.5442617"><ele>34.0</ele><time>2026-05-02T08:46:31.357Z</time></trkpt><trkpt lat="40.0336267" lon="8.5444383"><ele>34.0</ele><time>2026-05-02T08:46:32.357Z</time></trkpt><trkpt lat="40.03358" lon="8.5445917"><ele>34.0</ele><time>2026-05-02T08:46:33.357Z</time></trkpt><trkpt lat="40.0335117" lon="8.54475"><ele>34.0</ele><time>2026-05-02T08:46:34.357Z</time></trkpt><trkpt lat="40.03344" lon="8.5449067"><ele>33.5</ele><time>2026-05-02T08:46:35.357Z</time></trkpt><trkpt lat="40.03335" lon="8.5450467"><ele>33.0</ele><time>2026-05-02T08:46:36.357Z</time></trkpt><trkpt lat="40.03326" lon="8.5451717"><ele>32.5</ele><time>2026-05-02T08:46:37.357Z</time></trkpt><trkpt lat="40.0331767" lon="8.54528"><ele>32.0</ele><time>2026-05-02T08:46:38.357Z</time></trkpt><trkpt lat="40.0330983" lon="8.5453833"><ele>31.5</ele><time>2026-05-02T08:46:39.357Z</time></trkpt><trkpt lat="40.0329967" lon="8.5454967"><ele>31.0</ele><time>2026-05-02T08:46:40.357Z</time></trkpt><trkpt lat="40.0329017" lon="8.5455967"><ele>30.5</ele><time>2026-05-02T08:46:41.357Z</time></trkpt><trkpt lat="40.0328033" lon="8.54569"><ele>30.0</ele><time>2026-05-02T08:46:42.357Z</time></trkpt><trkpt lat="40.03269" lon="8.5457717"><ele>30.0</ele><time>2026-05-02T08:46:43.357Z</time></trkpt><trkpt lat="40.0325917" lon="8.5458533"><ele>30.0</ele><time>2026-05-02T08:46:44.357Z</time></trkpt><trkpt lat="40.0324883" lon="8.545925"><ele>30.0</ele><time>2026-05-02T08:46:45.357Z</time></trkpt><trkpt lat="40.0323733" lon="8.546"><ele>30.0</ele><time>2026-05-02T08:46:46.357Z</time></trkpt><trkpt lat="40.0322667" lon="8.5460617"><ele>29.75</ele><time>2026-05-02T08:46:47.357Z</time></trkpt><trkpt lat="40.0321517" lon="8.54611"><ele>29.5</ele><time>2026-05-02T08:46:48.357Z</time></trkpt><trkpt lat="40.032035" lon="8.5461583"><ele>29.25</ele><time>2026-05-02T08:46:49.357Z</time></trkpt><trkpt lat="40.0318933" lon="8.5461867"><ele>29.0</ele><time>2026-05-02T08:46:50.357Z</time></trkpt><trkpt lat="40.0317567" lon="8.5462317"><ele>28.5</ele><time>2026-05-02T08:46:51.357Z</time></trkpt><trkpt lat="40.031615" lon="8.5462833"><ele>28.0</ele><time>2026-05-02T08:46:52.357Z</time></trkpt><trkpt lat="40.03147" lon="8.5463367"><ele>27.5</ele><time>2026-05-02T08:46:53.357Z</time></trkpt><trkpt lat="40.0313283" lon="8.54639"><ele>27.0</ele><time>2026-05-02T08:46:54.357Z</time></trkpt><trkpt lat="40.031185" lon="8.5464567"><ele>27.0</ele><time>2026-05-02T08:46:55.357Z</time></trkpt><trkpt lat="40.0310433" lon="8.5465317"><ele>27.0</ele><time>2026-05-02T08:46:56.357Z</time></trkpt><trkpt lat="40.0309033" lon="8.54663"><ele>27.0</ele><time>2026-05-02T08:46:57.357Z</time></trkpt><trkpt lat="40.030765" lon="8.54675"><ele>26.333333333333336</ele><time>2026-05-02T08:46:58.357Z</time></trkpt><trkpt lat="40.030625" lon="8.5468883"><ele>25.666666666666668</ele><time>2026-05-02T08:46:59.357Z</time></trkpt><trkpt lat="40.0304767" lon="8.5470317"><ele>25.0</ele><time>2026-05-02T08:47:00.357Z</time></trkpt><trkpt lat="40.03032" lon="8.5471733"><ele>24.666666666666668</ele><time>2026-05-02T08:47:01.357Z</time></trkpt><trkpt lat="40.0301683" lon="8.547315"><ele>24.333333333333336</ele><time>2026-05-02T08:47:02.357Z</time></trkpt><trkpt lat="40.0300033" lon="8.5474683"><ele>24.0</ele><time>2026-05-02T08:47:03.357Z</time></trkpt><trkpt lat="40.0298617" lon="8.5476217"><ele>23.666666666666668</ele><time>2026-05-02T08:47:04.357Z</time></trkpt><trkpt lat="40.02972" lon="8.54779"><ele>23.333333333333336</ele><time>2026-05-02T08:47:05.357Z</time></trkpt><trkpt lat="40.0295783" lon="8.5479867"><ele>23.0</ele><time>2026-05-02T08:47:06.357Z</time></trkpt><trkpt lat="40.0294417" lon="8.548175"><ele>23.0</ele><time>2026-05-02T08:47:07.357Z</time></trkpt><trkpt lat="40.0293333" lon="8.5483483"><ele>23.0</ele><time>2026-05-02T08:47:08.357Z</time></trkpt><trkpt lat="40.0292067" lon="8.5485017"><ele>23.0</ele><time>2026-05-02T08:47:09.357Z</time></trkpt><trkpt lat="40.029085" lon="8.548635"><ele>22.5</ele><time>2026-05-02T08:47:10.357Z</time></trkpt><trkpt lat="40.0289633" lon="8.548745"><ele>22.0</ele><time>2026-05-02T08:47:11.357Z</time></trkpt><trkpt lat="40.0288433" lon="8.5488233"><ele>21.5</ele><time>2026-05-02T08:47:12.357Z</time></trkpt><trkpt lat="40.0287183" lon="8.5488917"><ele>21.0</ele><time>2026-05-02T08:47:13.357Z</time></trkpt><trkpt lat="40.0286033" lon="8.5489433"><ele>21.0</ele><time>2026-05-02T08:47:14.357Z</time></trkpt><trkpt lat="40.0285" lon="8.5489967"><ele>21.0</ele><time>2026-05-02T08:47:15.357Z</time></trkpt><trkpt lat="40.028415" lon="8.549055"><ele>21.0</ele><time>2026-05-02T08:47:16.357Z</time></trkpt><trkpt lat="40.028335" lon="8.5490967"><ele>21.0</ele><time>2026-05-02T08:47:17.357Z</time></trkpt><trkpt lat="40.0282733" lon="8.5491383"><ele>21.0</ele><time>2026-05-02T08:47:18.357Z</time></trkpt><trkpt lat="40.02821" lon="8.5491783"><ele>21.0</ele><time>2026-05-02T08:47:19.357Z</time></trkpt><trkpt lat="40.0281567" lon="8.5492633"><ele>21.0</ele><time>2026-05-02T08:47:21.357Z</time></trkpt><trkpt lat="40.02819" lon="8.5493433"><ele>21.0</ele><time>2026-05-02T08:47:22.357Z</time></trkpt><trkpt lat="40.0282433" lon="8.549445"><ele>21.0</ele><time>2026-05-02T08:47:23.357Z</time></trkpt><trkpt lat="40.028315" lon="8.54956"><ele>21.0</ele><time>2026-05-02T08:47:24.357Z</time></trkpt><trkpt lat="40.0284" lon="8.5497033"><ele>21.0</ele><time>2026-05-02T08:47:25.357Z</time></trkpt><trkpt lat="40.0284917" lon="8.5498583"><ele>21.0</ele><time>2026-05-02T08:47:26.357Z</time></trkpt><trkpt lat="40.02857" lon="8.5500117"><ele>21.0</ele><time>2026-05-02T08:47:27.357Z</time></trkpt><trkpt lat="40.0286517" lon="8.5501717"><ele>21.0</ele><time>2026-05-02T08:47:28.357Z</time></trkpt><trkpt lat="40.028745" lon="8.55032"><ele>21.0</ele><time>2026-05-02T08:47:29.357Z</time></trkpt><trkpt lat="40.0288517" lon="8.55048"><ele>21.0</ele><time>2026-05-02T08:47:30.357Z</time></trkpt><trkpt lat="40.0289617" lon="8.5506417"><ele>21.0</ele><time>2026-05-02T08:47:31.357Z</time></trkpt><trkpt lat="40.029065" lon="8.550795"><ele>21.0</ele><time>2026-05-02T08:47:32.357Z</time></trkpt><trkpt lat="40.0291633" lon="8.5509533"><ele>21.0</ele><time>2026-05-02T08:47:33.357Z</time></trkpt><trkpt lat="40.0292783" lon="8.5511133"><ele>21.0</ele><time>2026-05-02T08:47:34.357Z</time></trkpt><trkpt lat="40.0294117" lon="8.551275"><ele>21.0</ele><time>2026-05-02T08:47:35.357Z</time></trkpt><trkpt lat="40.0295433" lon="8.5514483"><ele>21.333333333333332</ele><time>2026-05-02T08:47:36.357Z</time></trkpt><trkpt lat="40.029685" lon="8.5516"><ele>21.666666666666664</ele><time>2026-05-02T08:47:37.357Z</time></trkpt><trkpt lat="40.0298267" lon="8.5517533"><ele>22.0</ele><time>2026-05-02T08:47:38.357Z</time></trkpt><trkpt lat="40.0299717" lon="8.55192"><ele>23.666666666666664</ele><time>2026-05-02T08:47:39.357Z</time></trkpt><trkpt lat="40.0301283" lon="8.552085"><ele>25.333333333333332</ele><time>2026-05-02T08:47:40.357Z</time></trkpt><trkpt lat="40.0302433" lon="8.5522283"><ele>27.0</ele><time>2026-05-02T08:47:41.357Z</time></trkpt><trkpt lat="40.0303617" lon="8.55235"><ele>27.0</ele><time>2026-05-02T08:47:42.357Z</time></trkpt><trkpt lat="40.0305" lon="8.5524633"><ele>27.0</ele><time>2026-05-02T08:47:43.357Z</time></trkpt><trkpt lat="40.0306333" lon="8.5525483"><ele>27.0</ele><time>2026-05-02T08:47:44.357Z</time></trkpt><trkpt lat="40.0307733" lon="8.5526517"><ele>27.0</ele><time>2026-05-02T08:47:45.357Z</time></trkpt><trkpt lat="40.0309083" lon="8.55281"><ele>27.0</ele><time>2026-05-02T08:47:46.357Z</time></trkpt><trkpt lat="40.0310267" lon="8.5529767"><ele>27.0</ele><time>2026-05-02T08:47:47.357Z</time></trkpt><trkpt lat="40.0311383" lon="8.5531633"><ele>27.0</ele><time>2026-05-02T08:47:48.357Z</time></trkpt><trkpt lat="40.03124" lon="8.5533633"><ele>27.0</ele><time>2026-05-02T08:47:49.357Z</time></trkpt><trkpt lat="40.0313667" lon="8.5535683"><ele>27.0</ele><time>2026-05-02T08:47:50.357Z</time></trkpt><trkpt lat="40.0314983" lon="8.55376"><ele>27.0</ele><time>2026-05-02T08:47:51.357Z</time></trkpt><trkpt lat="40.03163" lon="8.5539583"><ele>27.0</ele><time>2026-05-02T08:47:52.357Z</time></trkpt><trkpt lat="40.0317633" lon="8.554145"><ele>27.0</ele><time>2026-05-02T08:47:53.357Z</time></trkpt><trkpt lat="40.0319017" lon="8.554315"><ele>27.0</ele><time>2026-05-02T08:47:54.357Z</time></trkpt><trkpt lat="40.0320467" lon="8.5544917"><ele>27.0</ele><time>2026-05-02T08:47:55.357Z</time></trkpt><trkpt lat="40.0321967" lon="8.5546733"><ele>27.0</ele><time>2026-05-02T08:47:56.357Z</time></trkpt><trkpt lat="40.0323533" lon="8.55487"><ele>27.333333333333336</ele><time>2026-05-02T08:47:57.357Z</time></trkpt><trkpt lat="40.0325083" lon="8.55506"><ele>27.666666666666668</ele><time>2026-05-02T08:47:58.357Z</time></trkpt><trkpt lat="40.0326633" lon="8.5552383"><ele>28.0</ele><time>2026-05-02T08:47:59.357Z</time></trkpt><trkpt lat="40.0327983" lon="8.5554367"><ele>27.333333333333336</ele><time>2026-05-02T08:48:00.357Z</time></trkpt><trkpt lat="40.032925" lon="8.5556133"><ele>26.666666666666664</ele><time>2026-05-02T08:48:01.357Z</time></trkpt><trkpt lat="40.0330433" lon="8.55579"><ele>26.0</ele><time>2026-05-02T08:48:02.357Z</time></trkpt><trkpt lat="40.0331683" lon="8.5559583"><ele>26.0</ele><time>2026-05-02T08:48:03.357Z</time></trkpt><trkpt lat="40.0333033" lon="8.5561"><ele>26.0</ele><time>2026-05-02T08:48:04.357Z</time></trkpt><trkpt lat="40.0334483" lon="8.5562133"><ele>26.0</ele><time>2026-05-02T08:48:05.357Z</time></trkpt><trkpt lat="40.033605" lon="8.5563483"><ele>25.333333333333332</ele><time>2026-05-02T08:48:06.357Z</time></trkpt><trkpt lat="40.0337567" lon="8.5564967"><ele>24.666666666666664</ele><time>2026-05-02T08:48:07.357Z</time></trkpt><trkpt lat="40.0339033" lon="8.5566583"><ele>24.0</ele><time>2026-05-02T08:48:08.357Z</time></trkpt><trkpt lat="40.0340517" lon="8.5568067"><ele>24.333333333333336</ele><time>2026-05-02T08:48:09.357Z</time></trkpt><trkpt lat="40.03418" lon="8.5569433"><ele>24.666666666666668</ele><time>2026-05-02T08:48:10.357Z</time></trkpt><trkpt lat="40.0343083" lon="8.557075"><ele>25.0</ele><time>2026-05-02T08:48:11.357Z</time></trkpt><trkpt lat="40.03443" lon="8.5572117"><ele>24.0</ele><time>2026-05-02T08:48:12.357Z</time></trkpt><trkpt lat="40.0345433" lon="8.5573467"><ele>23.0</ele><time>2026-05-02T08:48:13.357Z</time></trkpt><trkpt lat="40.0346617" lon="8.5574867"><ele>22.0</ele><time>2026-05-02T08:48:14.357Z</time></trkpt><trkpt lat="40.0347733" lon="8.5576367"><ele>22.0</ele><time>2026-05-02T08:48:15.357Z</time></trkpt><trkpt lat="40.0348767" lon="8.557775"><ele>22.0</ele><time>2026-05-02T08:48:16.357Z</time></trkpt><trkpt lat="40.034985" lon="8.5579133"><ele>22.0</ele><time>2026-05-02T08:48:17.357Z</time></trkpt><trkpt lat="40.03511" lon="8.5580333"><ele>21.333333333333332</ele><time>2026-05-02T08:48:18.357Z</time></trkpt><trkpt lat="40.035245" lon="8.558155"><ele>20.666666666666668</ele><time>2026-05-02T08:48:19.357Z</time></trkpt><trkpt lat="40.0353867" lon="8.55824"><ele>20.0</ele><time>2026-05-02T08:48:20.357Z</time></trkpt><trkpt lat="40.0355233" lon="8.5583533"><ele>20.0</ele><time>2026-05-02T08:48:21.357Z</time></trkpt><trkpt lat="40.035635" lon="8.5584833"><ele>20.0</ele><time>2026-05-02T08:48:22.357Z</time></trkpt><trkpt lat="40.035745" lon="8.55864"><ele>20.0</ele><time>2026-05-02T08:48:23.357Z</time></trkpt><trkpt lat="40.0358483" lon="8.558785"><ele>20.5</ele><time>2026-05-02T08:48:24.357Z</time></trkpt><trkpt lat="40.0359567" lon="8.5589233"><ele>21.0</ele><time>2026-05-02T08:48:25.357Z</time></trkpt><trkpt lat="40.0360667" lon="8.5590317"><ele>21.5</ele><time>2026-05-02T08:48:26.357Z</time></trkpt><trkpt lat="40.0361817" lon="8.559125"><ele>22.0</ele><time>2026-05-02T08:48:27.357Z</time></trkpt><trkpt lat="40.0363133" lon="8.5591917"><ele>22.0</ele><time>2026-05-02T08:48:28.357Z</time></trkpt><trkpt lat="40.036465" lon="8.5592833"><ele>22.0</ele><time>2026-05-02T08:48:29.357Z</time></trkpt><trkpt lat="40.0366033" lon="8.5594083"><ele>22.0</ele><time>2026-05-02T08:48:30.357Z</time></trkpt><trkpt lat="40.0367183" lon="8.5595467"><ele>22.333333333333332</ele><time>2026-05-02T08:48:31.357Z</time></trkpt><trkpt lat="40.0368617" lon="8.5597133"><ele>22.666666666666668</ele><time>2026-05-02T08:48:32.357Z</time></trkpt><trkpt lat="40.0369967" lon="8.559885"><ele>23.0</ele><time>2026-05-02T08:48:33.357Z</time></trkpt><trkpt lat="40.0371133" lon="8.5600533"><ele>23.0</ele><time>2026-05-02T08:48:34.357Z</time></trkpt><trkpt lat="40.0372267" lon="8.5602467"><ele>23.0</ele><time>2026-05-02T08:48:35.357Z</time></trkpt><trkpt lat="40.0373367" lon="8.5604433"><ele>23.0</ele><time>2026-05-02T08:48:36.357Z</time></trkpt><trkpt lat="40.0374633" lon="8.5606367"><ele>22.333333333333336</ele><time>2026-05-02T08:48:37.357Z</time></trkpt><trkpt lat="40.0375817" lon="8.5608067"><ele>21.666666666666668</ele><time>2026-05-02T08:48:38.357Z</time></trkpt><trkpt lat="40.0377033" lon="8.5609733"><ele>21.0</ele><time>2026-05-02T08:48:39.357Z</time></trkpt><trkpt lat="40.0378267" lon="8.561135"><ele>20.333333333333332</ele><time>2026-05-02T08:48:40.357Z</time></trkpt><trkpt lat="40.0379483" lon="8.561275"><ele>19.666666666666664</ele><time>2026-05-02T08:48:41.357Z</time></trkpt><trkpt lat="40.03807" lon="8.5614117"><ele>19.0</ele><time>2026-05-02T08:48:42.357Z</time></trkpt><trkpt lat="40.03822" lon="8.5615517"><ele>19.333333333333332</ele><time>2026-05-02T08:48:43.357Z</time></trkpt><trkpt lat="40.0383667" lon="8.5616667"><ele>19.666666666666668</ele><time>2026-05-02T08:48:44.357Z</time></trkpt><trkpt lat="40.0385083" lon="8.561785"><ele>20.0</ele><time>2026-05-02T08:48:45.357Z</time></trkpt><trkpt lat="40.0386367" lon="8.5618967"><ele>20.0</ele><time>2026-05-02T08:48:46.357Z</time></trkpt><trkpt lat="40.0387583" lon="8.5619933"><ele>20.0</ele><time>2026-05-02T08:48:47.357Z</time></trkpt><trkpt lat="40.0388683" lon="8.5620883"><ele>20.0</ele><time>2026-05-02T08:48:48.357Z</time></trkpt><trkpt lat="40.03898" lon="8.5621967"><ele>20.0</ele><time>2026-05-02T08:48:49.357Z</time></trkpt><trkpt lat="40.0390783" lon="8.5623133"><ele>20.25</ele><time>2026-05-02T08:48:50.357Z</time></trkpt><trkpt lat="40.0391583" lon="8.5624583"><ele>20.5</ele><time>2026-05-02T08:48:51.357Z</time></trkpt><trkpt lat="40.0392283" lon="8.5626233"><ele>20.75</ele><time>2026-05-02T08:48:52.357Z</time></trkpt><trkpt lat="40.0393133" lon="8.56278"><ele>21.0</ele><time>2026-05-02T08:48:53.357Z</time></trkpt><trkpt lat="40.0394117" lon="8.5629183"><ele>21.333333333333332</ele><time>2026-05-02T08:48:54.357Z</time></trkpt><trkpt lat="40.039515" lon="8.5630633"><ele>21.666666666666664</ele><time>2026-05-02T08:48:55.357Z</time></trkpt><trkpt lat="40.0396317" lon="8.563195"><ele>22.0</ele><time>2026-05-02T08:48:56.357Z</time></trkpt><trkpt lat="40.039765" lon="8.5633017"><ele>22.0</ele><time>2026-05-02T08:48:57.357Z</time></trkpt><trkpt lat="40.0398917" lon="8.563385"><ele>22.0</ele><time>2026-05-02T08:48:58.357Z</time></trkpt><trkpt lat="40.0399833" lon="8.5634417"><ele>22.0</ele><time>2026-05-02T08:48:59.357Z</time></trkpt><trkpt lat="40.04007" lon="8.563485"><ele>22.0</ele><time>2026-05-02T08:49:00.357Z</time></trkpt><trkpt lat="40.040135" lon="8.5635267"><ele>22.0</ele><time>2026-05-02T08:49:01.357Z</time></trkpt><trkpt lat="40.04022" lon="8.563575"><ele>22.0</ele><time>2026-05-02T08:49:03.357Z</time></trkpt><trkpt lat="40.0403483" lon="8.5636467"><ele>22.0</ele><time>2026-05-02T08:49:05.357Z</time></trkpt><trkpt lat="40.0404367" lon="8.5636783"><ele>22.0</ele><time>2026-05-02T08:49:06.357Z</time></trkpt><trkpt lat="40.04054" lon="8.5637233"><ele>22.0</ele><time>2026-05-02T08:49:07.357Z</time></trkpt><trkpt lat="40.0406567" lon="8.56379"><ele>22.0</ele><time>2026-05-02T08:49:08.357Z</time></trkpt><trkpt lat="40.040775" lon="8.563885"><ele>22.0</ele><time>2026-05-02T08:49:09.357Z</time></trkpt><trkpt lat="40.0409033" lon="8.5639867"><ele>22.0</ele><time>2026-05-02T08:49:10.357Z</time></trkpt><trkpt lat="40.04105" lon="8.56409"><ele>22.333333333333332</ele><time>2026-05-02T08:49:11.357Z</time></trkpt><trkpt lat="40.0412067" lon="8.5641967"><ele>22.666666666666668</ele><time>2026-05-02T08:49:12.357Z</time></trkpt><trkpt lat="40.04137" lon="8.5642883"><ele>23.0</ele><time>2026-05-02T08:49:13.357Z</time></trkpt><trkpt lat="40.0415367" lon="8.5643817"><ele>23.666666666666668</ele><time>2026-05-02T08:49:14.357Z</time></trkpt><trkpt lat="40.04171" lon="8.5644817"><ele>24.333333333333336</ele><time>2026-05-02T08:49:15.357Z</time></trkpt><trkpt lat="40.0418883" lon="8.564585"><ele>25.0</ele><time>2026-05-02T08:49:16.357Z</time></trkpt><trkpt lat="40.04206" lon="8.5646883"><ele>25.0</ele><time>2026-05-02T08:49:17.357Z</time></trkpt><trkpt lat="40.0422233" lon="8.5647833"><ele>25.0</ele><time>2026-05-02T08:49:18.357Z</time></trkpt><trkpt lat="40.0423733" lon="8.56485"><ele>25.0</ele><time>2026-05-02T08:49:19.357Z</time></trkpt><trkpt lat="40.0425417" lon="8.5649083"><ele>25.666666666666668</ele><time>2026-05-02T08:49:20.357Z</time></trkpt><trkpt lat="40.0427083" lon="8.5649717"><ele>26.333333333333336</ele><time>2026-05-02T08:49:21.357Z</time></trkpt><trkpt lat="40.0428667" lon="8.5650517"><ele>27.0</ele><time>2026-05-02T08:49:22.357Z</time></trkpt><trkpt lat="40.0430183" lon="8.5651317"><ele>27.0</ele><time>2026-05-02T08:49:23.357Z</time></trkpt><trkpt lat="40.0431617" lon="8.565225"><ele>27.0</ele><time>2026-05-02T08:49:24.357Z</time></trkpt><trkpt lat="40.04328" lon="8.56532"><ele>27.0</ele><time>2026-05-02T08:49:25.357Z</time></trkpt><trkpt lat="40.043365" lon="8.5654333"><ele>27.0</ele><time>2026-05-02T08:49:26.357Z</time></trkpt><trkpt lat="40.0434233" lon="8.5655467"><ele>27.200000000000003</ele><time>2026-05-02T08:49:27.357Z</time></trkpt><trkpt lat="40.043465" lon="8.5656783"><ele>27.400000000000002</ele><time>2026-05-02T08:49:28.357Z</time></trkpt><trkpt lat="40.0435017" lon="8.565815"><ele>27.599999999999998</ele><time>2026-05-02T08:49:29.357Z</time></trkpt><trkpt lat="40.043535" lon="8.5659367"><ele>27.799999999999997</ele><time>2026-05-02T08:49:30.357Z</time></trkpt><trkpt lat="40.043585" lon="8.5660617"><ele>28.0</ele><time>2026-05-02T08:49:31.357Z</time></trkpt><trkpt lat="40.04365" lon="8.56617"><ele>28.0</ele><time>2026-05-02T08:49:32.357Z</time></trkpt><trkpt lat="40.0437217" lon="8.5662783"><ele>28.0</ele><time>2026-05-02T08:49:33.357Z</time></trkpt><trkpt lat="40.0438067" lon="8.56639"><ele>28.0</ele><time>2026-05-02T08:49:34.357Z</time></trkpt><trkpt lat="40.0438967" lon="8.5664917"><ele>28.0</ele><time>2026-05-02T08:49:35.357Z</time></trkpt><trkpt lat="40.0439867" lon="8.5665933"><ele>28.0</ele><time>2026-05-02T08:49:36.357Z</time></trkpt><trkpt lat="40.0440733" lon="8.5667083"><ele>28.0</ele><time>2026-05-02T08:49:37.357Z</time></trkpt><trkpt lat="40.04417" lon="8.5668117"><ele>28.0</ele><time>2026-05-02T08:49:38.357Z</time></trkpt><trkpt lat="40.0442733" lon="8.5669033"><ele>28.0</ele><time>2026-05-02T08:49:39.357Z</time></trkpt><trkpt lat="40.0443817" lon="8.5669817"><ele>28.5</ele><time>2026-05-02T08:49:40.357Z</time></trkpt><trkpt lat="40.0444933" lon="8.56704"><ele>29.0</ele><time>2026-05-02T08:49:41.357Z</time></trkpt><trkpt lat="40.0446067" lon="8.56708"><ele>29.5</ele><time>2026-05-02T08:49:42.357Z</time></trkpt><trkpt lat="40.0447367" lon="8.56712"><ele>30.0</ele><time>2026-05-02T08:49:43.357Z</time></trkpt><trkpt lat="40.0448717" lon="8.5671633"><ele>30.25</ele><time>2026-05-02T08:49:44.357Z</time></trkpt><trkpt lat="40.0450033" lon="8.567225"><ele>30.5</ele><time>2026-05-02T08:49:45.357Z</time></trkpt><trkpt lat="40.04513" lon="8.56731"><ele>30.75</ele><time>2026-05-02T08:49:46.357Z</time></trkpt><trkpt lat="40.0452433" lon="8.567405"><ele>31.0</ele><time>2026-05-02T08:49:47.357Z</time></trkpt><trkpt lat="40.045345" lon="8.567515"><ele>31.0</ele><time>2026-05-02T08:49:48.357Z</time></trkpt><trkpt lat="40.0454233" lon="8.5676317"><ele>31.0</ele><time>2026-05-02T08:49:49.357Z</time></trkpt><trkpt lat="40.0454883" lon="8.5677667"><ele>31.0</ele><time>2026-05-02T08:49:50.357Z</time></trkpt><trkpt lat="40.0455567" lon="8.56791"><ele>31.0</ele><time>2026-05-02T08:49:51.357Z</time></trkpt><trkpt lat="40.0456233" lon="8.5680383"><ele>31.25</ele><time>2026-05-02T08:49:52.357Z</time></trkpt><trkpt lat="40.0456967" lon="8.5681617"><ele>31.5</ele><time>2026-05-02T08:49:53.357Z</time></trkpt><trkpt lat="40.0457567" lon="8.568305"><ele>31.75</ele><time>2026-05-02T08:49:54.357Z</time></trkpt><trkpt lat="40.0458133" lon="8.5684433"><ele>32.0</ele><time>2026-05-02T08:49:55.357Z</time></trkpt><trkpt lat="40.0458717" lon="8.5685533"><ele>32.5</ele><time>2026-05-02T08:49:56.357Z</time></trkpt><trkpt lat="40.0459533" lon="8.568665"><ele>33.0</ele><time>2026-05-02T08:49:57.357Z</time></trkpt><trkpt lat="40.04605" lon="8.56874"><ele>33.5</ele><time>2026-05-02T08:49:58.357Z</time></trkpt><trkpt lat="40.04616" lon="8.5688067"><ele>34.0</ele><time>2026-05-02T08:49:59.357Z</time></trkpt><trkpt lat="40.046285" lon="8.568875"><ele>34.0</ele><time>2026-05-02T08:50:00.357Z</time></trkpt><trkpt lat="40.04642" lon="8.568955"><ele>34.0</ele><time>2026-05-02T08:50:01.357Z</time></trkpt><trkpt lat="40.0465533" lon="8.5690333"><ele>34.0</ele><time>2026-05-02T08:50:02.357Z</time></trkpt><trkpt lat="40.0466767" lon="8.5690933"><ele>34.0</ele><time>2026-05-02T08:50:03.357Z</time></trkpt><trkpt lat="40.0467883" lon="8.56914"><ele>34.4</ele><time>2026-05-02T08:50:04.357Z</time></trkpt><trkpt lat="40.0468917" lon="8.5691733"><ele>34.8</ele><time>2026-05-02T08:50:05.357Z</time></trkpt><trkpt lat="40.0469933" lon="8.5691983"><ele>35.2</ele><time>2026-05-02T08:50:06.357Z</time></trkpt><trkpt lat="40.0471083" lon="8.5692217"><ele>35.6</ele><time>2026-05-02T08:50:07.357Z</time></trkpt><trkpt lat="40.04722" lon="8.569255"><ele>36.0</ele><time>2026-05-02T08:50:08.357Z</time></trkpt><trkpt lat="40.0473083" lon="8.5692783"><ele>36.0</ele><time>2026-05-02T08:50:09.358Z</time></trkpt><trkpt lat="40.047375" lon="8.56931"><ele>36.0</ele><time>2026-05-02T08:50:10.357Z</time></trkpt><trkpt lat="40.04747" lon="8.5693817"><ele>36.0</ele><time>2026-05-02T08:50:12.357Z</time></trkpt><trkpt lat="40.047555" lon="8.56943"><ele>36.0</ele><time>2026-05-02T08:50:14.357Z</time></trkpt><trkpt lat="40.0476683" lon="8.5694917"><ele>36.0</ele><time>2026-05-02T08:50:16.357Z</time></trkpt><trkpt lat="40.047735" lon="8.5695167"><ele>36.4</ele><time>2026-05-02T08:50:17.357Z</time></trkpt><trkpt lat="40.04781" lon="8.569545"><ele>36.8</ele><time>2026-05-02T08:50:18.357Z</time></trkpt><trkpt lat="40.0478967" lon="8.569575"><ele>37.199999999999996</ele><time>2026-05-02T08:50:19.357Z</time></trkpt><trkpt lat="40.0479833" lon="8.5696"><ele>37.6</ele><time>2026-05-02T08:50:20.357Z</time></trkpt><trkpt lat="40.04808" lon="8.5696283"><ele>38.0</ele><time>2026-05-02T08:50:21.357Z</time></trkpt><trkpt lat="40.048185" lon="8.5696667"><ele>38.75</ele><time>2026-05-02T08:50:22.357Z</time></trkpt><trkpt lat="40.0482983" lon="8.569705"><ele>39.5</ele><time>2026-05-02T08:50:23.357Z</time></trkpt><trkpt lat="40.0484117" lon="8.5697317"><ele>40.25</ele><time>2026-05-02T08:50:24.357Z</time></trkpt><trkpt lat="40.04853" lon="8.5697533"><ele>41.0</ele><time>2026-05-02T08:50:25.357Z</time></trkpt><trkpt lat="40.0486567" lon="8.5697783"><ele>41.0</ele><time>2026-05-02T08:50:26.357Z</time></trkpt><trkpt lat="40.0487967" lon="8.569815"><ele>41.0</ele><time>2026-05-02T08:50:27.357Z</time></trkpt><trkpt lat="40.0489367" lon="8.569855"><ele>41.0</ele><time>2026-05-02T08:50:28.357Z</time></trkpt><trkpt lat="40.0490667" lon="8.5699"><ele>41.0</ele><time>2026-05-02T08:50:29.357Z</time></trkpt><trkpt lat="40.0492017" lon="8.5699633"><ele>42.0</ele><time>2026-05-02T08:50:30.357Z</time></trkpt><trkpt lat="40.0493133" lon="8.57004"><ele>43.0</ele><time>2026-05-02T08:50:31.357Z</time></trkpt><trkpt lat="40.0493967" lon="8.57015"><ele>44.0</ele><time>2026-05-02T08:50:32.357Z</time></trkpt><trkpt lat="40.0494617" lon="8.5702933"><ele>45.0</ele><time>2026-05-02T08:50:33.357Z</time></trkpt><trkpt lat="40.0495183" lon="8.5704533"><ele>45.0</ele><time>2026-05-02T08:50:34.357Z</time></trkpt><trkpt lat="40.0495733" lon="8.5706133"><ele>45.0</ele><time>2026-05-02T08:50:35.357Z</time></trkpt><trkpt lat="40.0496383" lon="8.5707617"><ele>45.0</ele><time>2026-05-02T08:50:36.357Z</time></trkpt><trkpt lat="40.04972" lon="8.5708867"><ele>45.0</ele><time>2026-05-02T08:50:37.357Z</time></trkpt><trkpt lat="40.0498083" lon="8.571005"><ele>45.0</ele><time>2026-05-02T08:50:38.357Z</time></trkpt><trkpt lat="40.0499033" lon="8.5711317"><ele>45.0</ele><time>2026-05-02T08:50:39.357Z</time></trkpt><trkpt lat="40.0499933" lon="8.5712383"><ele>45.0</ele><time>2026-05-02T08:50:40.357Z</time></trkpt><trkpt lat="40.05008" lon="8.5713533"><ele>45.0</ele><time>2026-05-02T08:50:41.357Z</time></trkpt><trkpt lat="40.0501633" lon="8.57146"><ele>46.0</ele><time>2026-05-02T08:50:42.357Z</time></trkpt><trkpt lat="40.0502417" lon="8.571585"><ele>47.0</ele><time>2026-05-02T08:50:43.357Z</time></trkpt><trkpt lat="40.0503133" lon="8.5717083"><ele>48.0</ele><time>2026-05-02T08:50:44.357Z</time></trkpt><trkpt lat="40.050365" lon="8.5718483"><ele>49.0</ele><time>2026-05-02T08:50:45.357Z</time></trkpt><trkpt lat="40.05042" lon="8.571975"><ele>48.6</ele><time>2026-05-02T08:50:46.357Z</time></trkpt><trkpt lat="40.0504633" lon="8.5721117"><ele>48.2</ele><time>2026-05-02T08:50:47.357Z</time></trkpt><trkpt lat="40.0505017" lon="8.57224"><ele>47.800000000000004</ele><time>2026-05-02T08:50:48.357Z</time></trkpt><trkpt lat="40.050545" lon="8.5723733"><ele>47.400000000000006</ele><time>2026-05-02T08:50:49.357Z</time></trkpt><trkpt lat="40.0506017" lon="8.5724717"><ele>47.0</ele><time>2026-05-02T08:50:50.357Z</time></trkpt><trkpt lat="40.0506817" lon="8.57256"><ele>47.0</ele><time>2026-05-02T08:50:51.357Z</time></trkpt><trkpt lat="40.0507833" lon="8.5726367"><ele>47.0</ele><time>2026-05-02T08:50:52.357Z</time></trkpt><trkpt lat="40.050915" lon="8.5726967"><ele>47.0</ele><time>2026-05-02T08:50:53.357Z</time></trkpt><trkpt lat="40.0510633" lon="8.5727417"><ele>47.0</ele><time>2026-05-02T08:50:54.357Z</time></trkpt><trkpt lat="40.051215" lon="8.572785"><ele>48.33333333333333</ele><time>2026-05-02T08:50:55.357Z</time></trkpt><trkpt lat="40.0513683" lon="8.57283"><ele>49.666666666666664</ele><time>2026-05-02T08:50:56.357Z</time></trkpt><trkpt lat="40.0515167" lon="8.5728833"><ele>51.0</ele><time>2026-05-02T08:50:57.357Z</time></trkpt><trkpt lat="40.05167" lon="8.5729433"><ele>52.0</ele><time>2026-05-02T08:50:58.357Z</time></trkpt><trkpt lat="40.051825" lon="8.5730033"><ele>53.0</ele><time>2026-05-02T08:50:59.357Z</time></trkpt><trkpt lat="40.0519767" lon="8.5730517"><ele>54.0</ele><time>2026-05-02T08:51:00.357Z</time></trkpt><trkpt lat="40.05213" lon="8.5730883"><ele>54.0</ele><time>2026-05-02T08:51:01.357Z</time></trkpt><trkpt lat="40.0522883" lon="8.5731033"><ele>54.0</ele><time>2026-05-02T08:51:02.357Z</time></trkpt><trkpt lat="40.0524533" lon="8.5730917"><ele>54.0</ele><time>2026-05-02T08:51:03.357Z</time></trkpt><trkpt lat="40.052615" lon="8.5730867"><ele>55.66666666666667</ele><time>2026-05-02T08:51:04.357Z</time></trkpt><trkpt lat="40.0527733" lon="8.5730883"><ele>57.333333333333336</ele><time>2026-05-02T08:51:05.357Z</time></trkpt><trkpt lat="40.0529317" lon="8.5730833"><ele>59.0</ele><time>2026-05-02T08:51:06.357Z</time></trkpt><trkpt lat="40.0530883" lon="8.573065"><ele>59.0</ele><time>2026-05-02T08:51:07.357Z</time></trkpt><trkpt lat="40.0532533" lon="8.57304"><ele>59.0</ele><time>2026-05-02T08:51:08.357Z</time></trkpt><trkpt lat="40.05341" lon="8.573015"><ele>59.0</ele><time>2026-05-02T08:51:09.357Z</time></trkpt><trkpt lat="40.0535533" lon="8.5730017"><ele>58.25</ele><time>2026-05-02T08:51:10.357Z</time></trkpt><trkpt lat="40.0536983" lon="8.573035"><ele>57.5</ele><time>2026-05-02T08:51:11.357Z</time></trkpt><trkpt lat="40.0538333" lon="8.573095"><ele>56.75</ele><time>2026-05-02T08:51:12.357Z</time></trkpt><trkpt lat="40.053945" lon="8.5731467"><ele>56.0</ele><time>2026-05-02T08:51:13.357Z</time></trkpt><trkpt lat="40.0540533" lon="8.5731917"><ele>57.333333333333336</ele><time>2026-05-02T08:51:14.357Z</time></trkpt><trkpt lat="40.0541733" lon="8.57324"><ele>58.66666666666667</ele><time>2026-05-02T08:51:15.357Z</time></trkpt><trkpt lat="40.0543167" lon="8.573315"><ele>60.0</ele><time>2026-05-02T08:51:16.357Z</time></trkpt><trkpt lat="40.0544633" lon="8.5734267"><ele>60.0</ele><time>2026-05-02T08:51:17.357Z</time></trkpt><trkpt lat="40.0545883" lon="8.5735433"><ele>60.0</ele><time>2026-05-02T08:51:18.357Z</time></trkpt><trkpt lat="40.054705" lon="8.5736683"><ele>60.0</ele><time>2026-05-02T08:51:19.357Z</time></trkpt><trkpt lat="40.0548183" lon="8.5738033"><ele>59.75</ele><time>2026-05-02T08:51:20.357Z</time></trkpt><trkpt lat="40.054925" lon="8.5739433"><ele>59.5</ele><time>2026-05-02T08:51:21.357Z</time></trkpt><trkpt lat="40.0550283" lon="8.574075"><ele>59.25</ele><time>2026-05-02T08:51:22.357Z</time></trkpt><trkpt lat="40.0551217" lon="8.57422"><ele>59.0</ele><time>2026-05-02T08:51:23.357Z</time></trkpt><trkpt lat="40.0552083" lon="8.574355"><ele>58.75</ele><time>2026-05-02T08:51:24.357Z</time></trkpt><trkpt lat="40.0552967" lon="8.5744733"><ele>58.5</ele><time>2026-05-02T08:51:25.357Z</time></trkpt><trkpt lat="40.055395" lon="8.5745833"><ele>58.25</ele><time>2026-05-02T08:51:26.357Z</time></trkpt><trkpt lat="40.055515" lon="8.57467"><ele>58.0</ele><time>2026-05-02T08:51:27.357Z</time></trkpt><trkpt lat="40.055645" lon="8.5747383"><ele>58.5</ele><time>2026-05-02T08:51:28.357Z</time></trkpt><trkpt lat="40.0557783" lon="8.5747817"><ele>59.0</ele><time>2026-05-02T08:51:29.357Z</time></trkpt><trkpt lat="40.0559067" lon="8.5748333"><ele>59.5</ele><time>2026-05-02T08:51:30.357Z</time></trkpt><trkpt lat="40.0560217" lon="8.5748967"><ele>60.0</ele><time>2026-05-02T08:51:31.357Z</time></trkpt><trkpt lat="40.0561317" lon="8.5749517"><ele>60.6</ele><time>2026-05-02T08:51:32.357Z</time></trkpt><trkpt lat="40.0562333" lon="8.5750217"><ele>61.2</ele><time>2026-05-02T08:51:33.357Z</time></trkpt><trkpt lat="40.0563033" lon="8.5751083"><ele>61.8</ele><time>2026-05-02T08:51:34.357Z</time></trkpt><trkpt lat="40.056345" lon="8.57522"><ele>62.4</ele><time>2026-05-02T08:51:35.357Z</time></trkpt><trkpt lat="40.05636" lon="8.57536"><ele>63.0</ele><time>2026-05-02T08:51:36.357Z</time></trkpt><trkpt lat="40.0563483" lon="8.5755167"><ele>63.0</ele><time>2026-05-02T08:51:37.357Z</time></trkpt><trkpt lat="40.056345" lon="8.575655"><ele>63.0</ele><time>2026-05-02T08:51:38.357Z</time></trkpt><trkpt lat="40.0563483" lon="8.5758083"><ele>63.0</ele><time>2026-05-02T08:51:39.357Z</time></trkpt><trkpt lat="40.0563567" lon="8.5759433"><ele>63.0</ele><time>2026-05-02T08:51:40.357Z</time></trkpt><trkpt lat="40.0563533" lon="8.57607"><ele>63.0</ele><time>2026-05-02T08:51:41.357Z</time></trkpt><trkpt lat="40.0563317" lon="8.5761733"><ele>63.2</ele><time>2026-05-02T08:51:42.357Z</time></trkpt><trkpt lat="40.056285" lon="8.576285"><ele>63.4</ele><time>2026-05-02T08:51:43.357Z</time></trkpt><trkpt lat="40.056215" lon="8.5763817"><ele>63.60000000000001</ele><time>2026-05-02T08:51:44.357Z</time></trkpt><trkpt lat="40.0561283" lon="8.5764633"><ele>63.800000000000004</ele><time>2026-05-02T08:51:45.357Z</time></trkpt><trkpt lat="40.0560333" lon="8.57654"><ele>64.0</ele><time>2026-05-02T08:51:46.357Z</time></trkpt><trkpt lat="40.055935" lon="8.5766033"><ele>64.0</ele><time>2026-05-02T08:51:47.357Z</time></trkpt><trkpt lat="40.0558433" lon="8.57665"><ele>64.0</ele><time>2026-05-02T08:51:48.357Z</time></trkpt><trkpt lat="40.0557517" lon="8.5767067"><ele>64.0</ele><time>2026-05-02T08:51:49.357Z</time></trkpt><trkpt lat="40.0556517" lon="8.5767483"><ele>64.0</ele><time>2026-05-02T08:51:50.357Z</time></trkpt><trkpt lat="40.0555317" lon="8.5767583"><ele>64.0</ele><time>2026-05-02T08:51:51.357Z</time></trkpt><trkpt lat="40.0553917" lon="8.5767433"><ele>65.66666666666666</ele><time>2026-05-02T08:51:52.357Z</time></trkpt><trkpt lat="40.05524" lon="8.576715"><ele>67.33333333333333</ele><time>2026-05-02T08:51:53.357Z</time></trkpt><trkpt lat="40.05508" lon="8.5766933"><ele>69.0</ele><time>2026-05-02T08:51:54.357Z</time></trkpt><trkpt lat="40.054925" lon="8.57668"><ele>71.0</ele><time>2026-05-02T08:51:55.357Z</time></trkpt><trkpt lat="40.0547933" lon="8.5766883"><ele>73.0</ele><time>2026-05-02T08:51:56.357Z</time></trkpt><trkpt lat="40.0546717" lon="8.5766983"><ele>75.0</ele><time>2026-05-02T08:51:57.357Z</time></trkpt><trkpt lat="40.0545617" lon="8.5767117"><ele>77.0</ele><time>2026-05-02T08:51:58.357Z</time></trkpt><trkpt lat="40.0544583" lon="8.5767333"><ele>77.0</ele><time>2026-05-02T08:51:59.357Z</time></trkpt><trkpt lat="40.05437" lon="8.57676"><ele>77.0</ele><time>2026-05-02T08:52:00.357Z</time></trkpt><trkpt lat="40.054295" lon="8.5767783"><ele>77.0</ele><time>2026-05-02T08:52:01.357Z</time></trkpt><trkpt lat="40.0542233" lon="8.5767933"><ele>77.0</ele><time>2026-05-02T08:52:02.357Z</time></trkpt><trkpt lat="40.054155" lon="8.5768183"><ele>77.0</ele><time>2026-05-02T08:52:03.357Z</time></trkpt><trkpt lat="40.054085" lon="8.5768517"><ele>77.0</ele><time>2026-05-02T08:52:04.357Z</time></trkpt><trkpt lat="40.0540233" lon="8.5769033"><ele>77.2</ele><time>2026-05-02T08:52:05.357Z</time></trkpt><trkpt lat="40.0539833" lon="8.5770383"><ele>77.4</ele><time>2026-05-02T08:52:07.357Z</time></trkpt><trkpt lat="40.0540183" lon="8.5771567"><ele>77.6</ele><time>2026-05-02T08:52:09.357Z</time></trkpt><trkpt lat="40.0541267" lon="8.5772567"><ele>77.8</ele><time>2026-05-02T08:52:11.357Z</time></trkpt><trkpt lat="40.0541917" lon="8.5773017"><ele>78.0</ele><time>2026-05-02T08:52:12.357Z</time></trkpt><trkpt lat="40.0542583" lon="8.5773767"><ele>78.0</ele><time>2026-05-02T08:52:14.357Z</time></trkpt><trkpt lat="40.0542433" lon="8.577485"><ele>78.0</ele><time>2026-05-02T08:52:21.357Z</time></trkpt><trkpt lat="40.0541883" lon="8.5775983"><ele>78.0</ele><time>2026-05-02T08:52:23.357Z</time></trkpt><trkpt lat="40.054175" lon="8.57776"><ele>78.0</ele><time>2026-05-02T08:52:25.357Z</time></trkpt><trkpt lat="40.0541867" lon="8.5778667"><ele>78.0</ele><time>2026-05-02T08:52:26.357Z</time></trkpt><trkpt lat="40.0542017" lon="8.5779783"><ele>78.66666666666667</ele><time>2026-05-02T08:52:27.357Z</time></trkpt><trkpt lat="40.0542217" lon="8.5780783"><ele>79.33333333333333</ele><time>2026-05-02T08:52:28.357Z</time></trkpt><trkpt lat="40.0542333" lon="8.5781867"><ele>80.0</ele><time>2026-05-02T08:52:29.357Z</time></trkpt><trkpt lat="40.05425" lon="8.5782967"><ele>80.66666666666666</ele><time>2026-05-02T08:52:30.357Z</time></trkpt><trkpt lat="40.054265" lon="8.5784117"><ele>81.33333333333333</ele><time>2026-05-02T08:52:31.357Z</time></trkpt><trkpt lat="40.0542783" lon="8.5785383"><ele>82.0</ele><time>2026-05-02T08:52:32.357Z</time></trkpt><trkpt lat="40.05429" lon="8.5786517"><ele>82.5</ele><time>2026-05-02T08:52:33.356Z</time></trkpt><trkpt lat="40.054305" lon="8.5787567"><ele>83.0</ele><time>2026-05-02T08:52:34.356Z</time></trkpt><trkpt lat="40.0543167" lon="8.5788567"><ele>83.5</ele><time>2026-05-02T08:52:35.356Z</time></trkpt><trkpt lat="40.0543283" lon="8.578965"><ele>84.0</ele><time>2026-05-02T08:52:36.356Z</time></trkpt><trkpt lat="40.0543383" lon="8.5790767"><ele>84.5</ele><time>2026-05-02T08:52:37.356Z</time></trkpt><trkpt lat="40.0543517" lon="8.5791767"><ele>85.0</ele><time>2026-05-02T08:52:38.356Z</time></trkpt><trkpt lat="40.0543733" lon="8.579255"><ele>85.0</ele><time>2026-05-02T08:52:39.356Z</time></trkpt><trkpt lat="40.0543917" lon="8.5793517"><ele>85.0</ele><time>2026-05-02T08:52:40.356Z</time></trkpt><trkpt lat="40.0544083" lon="8.5794467"><ele>85.0</ele><time>2026-05-02T08:52:41.356Z</time></trkpt><trkpt lat="40.05443" lon="8.5795367"><ele>85.0</ele><time>2026-05-02T08:52:42.356Z</time></trkpt><trkpt lat="40.05445" lon="8.5796317"><ele>85.0</ele><time>2026-05-02T08:52:43.356Z</time></trkpt><trkpt lat="40.0544667" lon="8.57974"><ele>85.0</ele><time>2026-05-02T08:52:44.356Z</time></trkpt><trkpt lat="40.0544833" lon="8.579845"><ele>85.5</ele><time>2026-05-02T08:52:45.356Z</time></trkpt><trkpt lat="40.0545033" lon="8.5799417"><ele>86.0</ele><time>2026-05-02T08:52:46.356Z</time></trkpt><trkpt lat="40.0545267" lon="8.5800433"><ele>86.5</ele><time>2026-05-02T08:52:47.356Z</time></trkpt><trkpt lat="40.0545517" lon="8.5801467"><ele>87.0</ele><time>2026-05-02T08:52:48.356Z</time></trkpt><trkpt lat="40.0545933" lon="8.5802617"><ele>87.5</ele><time>2026-05-02T08:52:49.356Z</time></trkpt><trkpt lat="40.054625" lon="8.5803783"><ele>88.0</ele><time>2026-05-02T08:52:50.356Z</time></trkpt><trkpt lat="40.05465" lon="8.580495"><ele>88.80000000000001</ele><time>2026-05-02T08:52:51.356Z</time></trkpt><trkpt lat="40.05469" lon="8.5805967"><ele>89.6</ele><time>2026-05-02T08:52:52.356Z</time></trkpt><trkpt lat="40.054725" lon="8.580705"><ele>90.4</ele><time>2026-05-02T08:52:53.356Z</time></trkpt><trkpt lat="40.0547617" lon="8.58081"><ele>91.19999999999999</ele><time>2026-05-02T08:52:54.356Z</time></trkpt><trkpt lat="40.054805" lon="8.5809183"><ele>92.0</ele><time>2026-05-02T08:52:55.356Z</time></trkpt><trkpt lat="40.0548417" lon="8.5810383"><ele>92.0</ele><time>2026-05-02T08:52:56.356Z</time></trkpt><trkpt lat="40.05488" lon="8.5811533"><ele>92.0</ele><time>2026-05-02T08:52:57.356Z</time></trkpt><trkpt lat="40.0549133" lon="8.5812667"><ele>92.0</ele><time>2026-05-02T08:52:58.356Z</time></trkpt><trkpt lat="40.0549383" lon="8.5813833"><ele>92.0</ele><time>2026-05-02T08:52:59.356Z</time></trkpt><trkpt lat="40.05496" lon="8.5814933"><ele>92.0</ele><time>2026-05-02T08:53:00.356Z</time></trkpt><trkpt lat="40.05498" lon="8.5816117"><ele>93.8</ele><time>2026-05-02T08:53:01.356Z</time></trkpt><trkpt lat="40.0550083" lon="8.581735"><ele>95.6</ele><time>2026-05-02T08:53:02.356Z</time></trkpt><trkpt lat="40.0550383" lon="8.581865"><ele>97.39999999999999</ele><time>2026-05-02T08:53:03.356Z</time></trkpt><trkpt lat="40.0550817" lon="8.5819817"><ele>99.19999999999999</ele><time>2026-05-02T08:53:04.356Z</time></trkpt><trkpt lat="40.0551267" lon="8.5820917"><ele>101.0</ele><time>2026-05-02T08:53:05.356Z</time></trkpt><trkpt lat="40.0551583" lon="8.5822083"><ele>101.8</ele><time>2026-05-02T08:53:06.356Z</time></trkpt><trkpt lat="40.0551883" lon="8.58233"><ele>102.6</ele><time>2026-05-02T08:53:07.356Z</time></trkpt><trkpt lat="40.0552183" lon="8.5824583"><ele>103.4</ele><time>2026-05-02T08:53:08.356Z</time></trkpt><trkpt lat="40.055255" lon="8.5825867"><ele>104.2</ele><time>2026-05-02T08:53:09.356Z</time></trkpt><trkpt lat="40.0552833" lon="8.58272"><ele>105.0</ele><time>2026-05-02T08:53:10.356Z</time></trkpt><trkpt lat="40.0553117" lon="8.58285"><ele>105.8</ele><time>2026-05-02T08:53:11.356Z</time></trkpt><trkpt lat="40.0553283" lon="8.5829633"><ele>106.6</ele><time>2026-05-02T08:53:12.356Z</time></trkpt><trkpt lat="40.05534" lon="8.5830783"><ele>107.4</ele><time>2026-05-02T08:53:13.356Z</time></trkpt><trkpt lat="40.0553567" lon="8.5831867"><ele>108.2</ele><time>2026-05-02T08:53:14.356Z</time></trkpt><trkpt lat="40.0553683" lon="8.5833067"><ele>109.0</ele><time>2026-05-02T08:53:15.356Z</time></trkpt><trkpt lat="40.05539" lon="8.5834367"><ele>109.0</ele><time>2026-05-02T08:53:16.356Z</time></trkpt><trkpt lat="40.0554233" lon="8.5835567"><ele>109.0</ele><time>2026-05-02T08:53:17.356Z</time></trkpt><trkpt lat="40.0554633" lon="8.58368"><ele>109.0</ele><time>2026-05-02T08:53:18.356Z</time></trkpt><trkpt lat="40.0555" lon="8.5838033"><ele>109.0</ele><time>2026-05-02T08:53:19.356Z</time></trkpt><trkpt lat="40.0555433" lon="8.5839217"><ele>109.0</ele><time>2026-05-02T08:53:20.356Z</time></trkpt><trkpt lat="40.0556017" lon="8.5840517"><ele>110.0</ele><time>2026-05-02T08:53:21.356Z</time></trkpt><trkpt lat="40.0556683" lon="8.58418"><ele>111.0</ele><time>2026-05-02T08:53:22.356Z</time></trkpt><trkpt lat="40.05574" lon="8.5843267"><ele>112.0</ele><time>2026-05-02T08:53:23.356Z</time></trkpt><trkpt lat="40.055795" lon="8.5844767"><ele>113.0</ele><time>2026-05-02T08:53:24.356Z</time></trkpt><trkpt lat="40.0558433" lon="8.5846417"><ele>113.75</ele><time>2026-05-02T08:53:25.356Z</time></trkpt><trkpt lat="40.0559033" lon="8.5848033"><ele>114.5</ele><time>2026-05-02T08:53:26.356Z</time></trkpt><trkpt lat="40.05598" lon="8.5849483"><ele>115.25</ele><time>2026-05-02T08:53:27.356Z</time></trkpt><trkpt lat="40.0560617" lon="8.58509"><ele>116.0</ele><time>2026-05-02T08:53:28.356Z</time></trkpt><trkpt lat="40.0561583" lon="8.5852433"><ele>117.66666666666666</ele><time>2026-05-02T08:53:29.356Z</time></trkpt><trkpt lat="40.05625" lon="8.58542"><ele>119.33333333333334</ele><time>2026-05-02T08:53:30.356Z</time></trkpt><trkpt lat="40.05634" lon="8.5856133"><ele>121.0</ele><time>2026-05-02T08:53:31.356Z</time></trkpt><trkpt lat="40.0564233" lon="8.5858017"><ele>121.0</ele><time>2026-05-02T08:53:32.356Z</time></trkpt><trkpt lat="40.0565033" lon="8.5859667"><ele>121.0</ele><time>2026-05-02T08:53:33.356Z</time></trkpt><trkpt lat="40.0565817" lon="8.5860983"><ele>121.0</ele><time>2026-05-02T08:53:34.356Z</time></trkpt><trkpt lat="40.0566567" lon="8.586195"><ele>121.0</ele><time>2026-05-02T08:53:35.356Z</time></trkpt><trkpt lat="40.0567367" lon="8.5862717"><ele>121.0</ele><time>2026-05-02T08:53:36.356Z</time></trkpt><trkpt lat="40.0568267" lon="8.586325"><ele>121.0</ele><time>2026-05-02T08:53:37.356Z</time></trkpt><trkpt lat="40.0569267" lon="8.5863533"><ele>121.0</ele><time>2026-05-02T08:53:38.356Z</time></trkpt><trkpt lat="40.057045" lon="8.586395"><ele>121.0</ele><time>2026-05-02T08:53:39.356Z</time></trkpt><trkpt lat="40.0571717" lon="8.5864317"><ele>121.0</ele><time>2026-05-02T08:53:40.356Z</time></trkpt><trkpt lat="40.057295" lon="8.5864933"><ele>121.0</ele><time>2026-05-02T08:53:41.356Z</time></trkpt><trkpt lat="40.0574233" lon="8.5865567"><ele>121.0</ele><time>2026-05-02T08:53:42.356Z</time></trkpt><trkpt lat="40.0575517" lon="8.5866117"><ele>121.0</ele><time>2026-05-02T08:53:43.356Z</time></trkpt><trkpt lat="40.057665" lon="8.5866833"><ele>121.0</ele><time>2026-05-02T08:53:44.356Z</time></trkpt><trkpt lat="40.05775" lon="8.5867683"><ele>121.0</ele><time>2026-05-02T08:53:45.356Z</time></trkpt><trkpt lat="40.0577983" lon="8.586885"><ele>121.0</ele><time>2026-05-02T08:53:46.356Z</time></trkpt><trkpt lat="40.05783" lon="8.58702"><ele>121.0</ele><time>2026-05-02T08:53:47.356Z</time></trkpt><trkpt lat="40.057875" lon="8.5871717"><ele>121.0</ele><time>2026-05-02T08:53:48.356Z</time></trkpt><trkpt lat="40.0579267" lon="8.5873133"><ele>122.25</ele><time>2026-05-02T08:53:49.356Z</time></trkpt><trkpt lat="40.0579983" lon="8.5874567"><ele>123.5</ele><time>2026-05-02T08:53:50.356Z</time></trkpt><trkpt lat="40.0580933" lon="8.5875933"><ele>124.75</ele><time>2026-05-02T08:53:51.356Z</time></trkpt><trkpt lat="40.0582217" lon="8.5877467"><ele>126.0</ele><time>2026-05-02T08:53:52.356Z</time></trkpt><trkpt lat="40.05833" lon="8.58787"><ele>126.5</ele><time>2026-05-02T08:53:53.356Z</time></trkpt><trkpt lat="40.058415" lon="8.5879733"><ele>127.0</ele><time>2026-05-02T08:53:54.356Z</time></trkpt><trkpt lat="40.0585083" lon="8.58805"><ele>127.5</ele><time>2026-05-02T08:53:55.356Z</time></trkpt><trkpt lat="40.0586217" lon="8.5881167"><ele>128.0</ele><time>2026-05-02T08:53:56.356Z</time></trkpt><trkpt lat="40.058725" lon="8.5882067"><ele>128.0</ele><time>2026-05-02T08:53:57.356Z</time></trkpt><trkpt lat="40.0588267" lon="8.5883367"><ele>128.0</ele><time>2026-05-02T08:53:58.356Z</time></trkpt><trkpt lat="40.05894" lon="8.58849"><ele>128.0</ele><time>2026-05-02T08:53:59.356Z</time></trkpt><trkpt lat="40.05905" lon="8.5886217"><ele>128.33333333333331</ele><time>2026-05-02T08:54:00.356Z</time></trkpt><trkpt lat="40.0591633" lon="8.5887667"><ele>128.66666666666666</ele><time>2026-05-02T08:54:01.356Z</time></trkpt><trkpt lat="40.0592683" lon="8.5889117"><ele>129.0</ele><time>2026-05-02T08:54:02.356Z</time></trkpt><trkpt lat="40.05938" lon="8.58906"><ele>129.0</ele><time>2026-05-02T08:54:03.356Z</time></trkpt><trkpt lat="40.0594917" lon="8.5892"><ele>129.0</ele><time>2026-05-02T08:54:04.356Z</time></trkpt><trkpt lat="40.0595867" lon="8.58934"><ele>129.0</ele><time>2026-05-02T08:54:05.356Z</time></trkpt><trkpt lat="40.05964" lon="8.589505"><ele>129.0</ele><time>2026-05-02T08:54:06.356Z</time></trkpt><trkpt lat="40.0596817" lon="8.5896667"><ele>129.25</ele><time>2026-05-02T08:54:07.356Z</time></trkpt><trkpt lat="40.0597367" lon="8.5898217"><ele>129.5</ele><time>2026-05-02T08:54:08.356Z</time></trkpt><trkpt lat="40.05981" lon="8.5899617"><ele>129.75</ele><time>2026-05-02T08:54:09.356Z</time></trkpt><trkpt lat="40.0599117" lon="8.5900817"><ele>130.0</ele><time>2026-05-02T08:54:10.356Z</time></trkpt><trkpt lat="40.0600433" lon="8.5902017"><ele>130.0</ele><time>2026-05-02T08:54:11.356Z</time></trkpt><trkpt lat="40.0601783" lon="8.5903233"><ele>130.0</ele><time>2026-05-02T08:54:12.356Z</time></trkpt><trkpt lat="40.0602917" lon="8.590445"><ele>130.0</ele><time>2026-05-02T08:54:13.356Z</time></trkpt><trkpt lat="40.0603933" lon="8.5905383"><ele>130.0</ele><time>2026-05-02T08:54:14.356Z</time></trkpt><trkpt lat="40.0604833" lon="8.590605"><ele>130.0</ele><time>2026-05-02T08:54:15.356Z</time></trkpt><trkpt lat="40.06056" lon="8.590645"><ele>130.0</ele><time>2026-05-02T08:54:16.356Z</time></trkpt><trkpt lat="40.0606267" lon="8.5906683"><ele>130.0</ele><time>2026-05-02T08:54:17.356Z</time></trkpt><trkpt lat="40.060695" lon="8.5907133"><ele>130.0</ele><time>2026-05-02T08:54:18.356Z</time></trkpt><trkpt lat="40.06076" lon="8.590775"><ele>130.0</ele><time>2026-05-02T08:54:19.356Z</time></trkpt><trkpt lat="40.0608283" lon="8.590865"><ele>130.0</ele><time>2026-05-02T08:54:20.356Z</time></trkpt><trkpt lat="40.060915" lon="8.5909767"><ele>131.33333333333334</ele><time>2026-05-02T08:54:21.356Z</time></trkpt><trkpt lat="40.0610217" lon="8.5911067"><ele>132.66666666666666</ele><time>2026-05-02T08:54:22.356Z</time></trkpt><trkpt lat="40.06114" lon="8.5912367"><ele>134.0</ele><time>2026-05-02T08:54:23.356Z</time></trkpt><trkpt lat="40.0612733" lon="8.59138"><ele>134.66666666666666</ele><time>2026-05-02T08:54:24.356Z</time></trkpt><trkpt lat="40.0614067" lon="8.5915367"><ele>135.33333333333334</ele><time>2026-05-02T08:54:25.356Z</time></trkpt><trkpt lat="40.06155" lon="8.5916983"><ele>136.0</ele><time>2026-05-02T08:54:26.356Z</time></trkpt><trkpt lat="40.0616983" lon="8.591865"><ele>136.33333333333334</ele><time>2026-05-02T08:54:27.356Z</time></trkpt><trkpt lat="40.061845" lon="8.5920417"><ele>136.66666666666666</ele><time>2026-05-02T08:54:28.356Z</time></trkpt><trkpt lat="40.06199" lon="8.5922383"><ele>137.0</ele><time>2026-05-02T08:54:29.356Z</time></trkpt><trkpt lat="40.0621283" lon="8.5924367"><ele>137.0</ele><time>2026-05-02T08:54:30.356Z</time></trkpt><trkpt lat="40.0622733" lon="8.5926367"><ele>137.0</ele><time>2026-05-02T08:54:31.356Z</time></trkpt><trkpt lat="40.06241" lon="8.5928433"><ele>137.0</ele><time>2026-05-02T08:54:32.356Z</time></trkpt><trkpt lat="40.0625483" lon="8.5930467"><ele>138.0</ele><time>2026-05-02T08:54:33.356Z</time></trkpt><trkpt lat="40.0626983" lon="8.59325"><ele>139.0</ele><time>2026-05-02T08:54:34.356Z</time></trkpt><trkpt lat="40.0628417" lon="8.59345"><ele>140.0</ele><time>2026-05-02T08:54:35.356Z</time></trkpt><trkpt lat="40.0629817" lon="8.5936567"><ele>140.0</ele><time>2026-05-02T08:54:36.356Z</time></trkpt><trkpt lat="40.0631267" lon="8.5938633"><ele>140.0</ele><time>2026-05-02T08:54:37.356Z</time></trkpt><trkpt lat="40.06326" lon="8.594055"><ele>140.0</ele><time>2026-05-02T08:54:38.356Z</time></trkpt><trkpt lat="40.0634017" lon="8.59425"><ele>141.0</ele><time>2026-05-02T08:54:39.356Z</time></trkpt><trkpt lat="40.063535" lon="8.594445"><ele>142.0</ele><time>2026-05-02T08:54:40.356Z</time></trkpt><trkpt lat="40.0636733" lon="8.5946417"><ele>143.0</ele><time>2026-05-02T08:54:41.356Z</time></trkpt><trkpt lat="40.0638067" lon="8.5948283"><ele>143.66666666666666</ele><time>2026-05-02T08:54:42.356Z</time></trkpt><trkpt lat="40.063935" lon="8.5949917"><ele>144.33333333333334</ele><time>2026-05-02T08:54:43.356Z</time></trkpt><trkpt lat="40.0640533" lon="8.595165"><ele>145.0</ele><time>2026-05-02T08:54:44.356Z</time></trkpt><trkpt lat="40.0641567" lon="8.5953367"><ele>146.0</ele><time>2026-05-02T08:54:45.356Z</time></trkpt><trkpt lat="40.06426" lon="8.5955117"><ele>147.0</ele><time>2026-05-02T08:54:46.356Z</time></trkpt><trkpt lat="40.0643517" lon="8.5957067"><ele>148.0</ele><time>2026-05-02T08:54:47.356Z</time></trkpt><trkpt lat="40.064435" lon="8.5959267"><ele>148.33333333333334</ele><time>2026-05-02T08:54:48.356Z</time></trkpt><trkpt lat="40.0645117" lon="8.59617"><ele>148.66666666666666</ele><time>2026-05-02T08:54:49.356Z</time></trkpt><trkpt lat="40.0645817" lon="8.5964167"><ele>149.0</ele><time>2026-05-02T08:54:50.356Z</time></trkpt><trkpt lat="40.06466" lon="8.5966583"><ele>149.0</ele><time>2026-05-02T08:54:51.356Z</time></trkpt><trkpt lat="40.06474" lon="8.59691"><ele>149.0</ele><time>2026-05-02T08:54:52.356Z</time></trkpt><trkpt lat="40.0648167" lon="8.5971617"><ele>149.0</ele><time>2026-05-02T08:54:53.356Z</time></trkpt><trkpt lat="40.0648917" lon="8.59741"><ele>150.66666666666666</ele><time>2026-05-02T08:54:54.356Z</time></trkpt><trkpt lat="40.06497" lon="8.5976467"><ele>152.33333333333334</ele><time>2026-05-02T08:54:55.356Z</time></trkpt><trkpt lat="40.0650217" lon="8.5978867"><ele>154.0</ele><time>2026-05-02T08:54:56.356Z</time></trkpt><trkpt lat="40.0650417" lon="8.5981233"><ele>154.66666666666669</ele><time>2026-05-02T08:54:57.356Z</time></trkpt><trkpt lat="40.0650567" lon="8.5983633"><ele>155.33333333333334</ele><time>2026-05-02T08:54:58.357Z</time></trkpt><trkpt lat="40.065055" lon="8.5985983"><ele>156.0</ele><time>2026-05-02T08:54:59.356Z</time></trkpt><trkpt lat="40.0650433" lon="8.598815"><ele>155.5</ele><time>2026-05-02T08:55:00.356Z</time></trkpt><trkpt lat="40.065015" lon="8.5989917"><ele>155.0</ele><time>2026-05-02T08:55:01.356Z</time></trkpt><trkpt lat="40.0649667" lon="8.5991717"><ele>154.5</ele><time>2026-05-02T08:55:02.356Z</time></trkpt><trkpt lat="40.0648933" lon="8.5993333"><ele>154.0</ele><time>2026-05-02T08:55:03.356Z</time></trkpt><trkpt lat="40.0647817" lon="8.5994733"><ele>155.0</ele><time>2026-05-02T08:55:04.356Z</time></trkpt><trkpt lat="40.0646767" lon="8.5995983"><ele>156.0</ele><time>2026-05-02T08:55:05.356Z</time></trkpt><trkpt lat="40.0646067" lon="8.5997483"><ele>157.0</ele><time>2026-05-02T08:55:06.356Z</time></trkpt><trkpt lat="40.0645833" lon="8.5999367"><ele>158.0</ele><time>2026-05-02T08:55:07.356Z</time></trkpt><trkpt lat="40.0645983" lon="8.6001517"><ele>159.33333333333331</ele><time>2026-05-02T08:55:08.356Z</time></trkpt><trkpt lat="40.0646333" lon="8.600375"><ele>160.66666666666666</ele><time>2026-05-02T08:55:09.356Z</time></trkpt><trkpt lat="40.0646767" lon="8.600575"><ele>162.0</ele><time>2026-05-02T08:55:10.356Z</time></trkpt><trkpt lat="40.0647117" lon="8.60077"><ele>162.0</ele><time>2026-05-02T08:55:11.356Z</time></trkpt><trkpt lat="40.0647367" lon="8.6009683"><ele>162.0</ele><time>2026-05-02T08:55:12.356Z</time></trkpt><trkpt lat="40.0647533" lon="8.6011667"><ele>162.0</ele><time>2026-05-02T08:55:13.356Z</time></trkpt><trkpt lat="40.06478" lon="8.6013483"><ele>162.0</ele><time>2026-05-02T08:55:14.356Z</time></trkpt><trkpt lat="40.064805" lon="8.601515"><ele>162.2</ele><time>2026-05-02T08:55:15.356Z</time></trkpt><trkpt lat="40.0648333" lon="8.6016817"><ele>162.39999999999998</ele><time>2026-05-02T08:55:16.356Z</time></trkpt><trkpt lat="40.064855" lon="8.60183"><ele>162.60000000000002</ele><time>2026-05-02T08:55:17.356Z</time></trkpt><trkpt lat="40.0648783" lon="8.6019567"><ele>162.8</ele><time>2026-05-02T08:55:18.356Z</time></trkpt><trkpt lat="40.0649033" lon="8.6020633"><ele>163.0</ele><time>2026-05-02T08:55:19.356Z</time></trkpt><trkpt lat="40.064915" lon="8.6021483"><ele>163.0</ele><time>2026-05-02T08:55:20.356Z</time></trkpt><trkpt lat="40.064875" lon="8.6022233"><ele>163.0</ele><time>2026-05-02T08:55:22.356Z</time></trkpt><trkpt lat="40.0647633" lon="8.602165"><ele>163.0</ele><time>2026-05-02T08:55:24.356Z</time></trkpt><trkpt lat="40.06468" lon="8.6021167"><ele>163.0</ele><time>2026-05-02T08:55:25.356Z</time></trkpt><trkpt lat="40.0645633" lon="8.60205"><ele>163.0</ele><time>2026-05-02T08:55:26.356Z</time></trkpt><trkpt lat="40.064445" lon="8.6020017"><ele>163.2</ele><time>2026-05-02T08:55:27.356Z</time></trkpt><trkpt lat="40.0643217" lon="8.60195"><ele>163.4</ele><time>2026-05-02T08:55:28.356Z</time></trkpt><trkpt lat="40.0642017" lon="8.6019233"><ele>163.6</ele><time>2026-05-02T08:55:29.356Z</time></trkpt><trkpt lat="40.0641067" lon="8.6018833"><ele>163.79999999999998</ele><time>2026-05-02T08:55:30.356Z</time></trkpt><trkpt lat="40.0640233" lon="8.6018717"><ele>164.0</ele><time>2026-05-02T08:55:31.356Z</time></trkpt><trkpt lat="40.0639217" lon="8.601845"><ele>163.5</ele><time>2026-05-02T08:55:32.356Z</time></trkpt><trkpt lat="40.063815" lon="8.601835"><ele>163.0</ele><time>2026-05-02T08:55:33.356Z</time></trkpt><trkpt lat="40.0637067" lon="8.601845"><ele>162.5</ele><time>2026-05-02T08:55:34.356Z</time></trkpt><trkpt lat="40.06357" lon="8.6018667"><ele>162.0</ele><time>2026-05-02T08:55:35.356Z</time></trkpt><trkpt lat="40.06341" lon="8.6018933"><ele>160.33333333333334</ele><time>2026-05-02T08:55:36.356Z</time></trkpt><trkpt lat="40.0632533" lon="8.6019417"><ele>158.66666666666669</ele><time>2026-05-02T08:55:37.356Z</time></trkpt><trkpt lat="40.0630917" lon="8.6019733"><ele>157.0</ele><time>2026-05-02T08:55:38.356Z</time></trkpt><trkpt lat="40.06293" lon="8.601985"><ele>157.0</ele><time>2026-05-02T08:55:39.356Z</time></trkpt><trkpt lat="40.0627817" lon="8.6019883"><ele>157.0</ele><time>2026-05-02T08:55:40.356Z</time></trkpt><trkpt lat="40.0626183" lon="8.60198"><ele>157.0</ele><time>2026-05-02T08:55:41.356Z</time></trkpt><trkpt lat="40.0624617" lon="8.601965"><ele>155.25</ele><time>2026-05-02T08:55:42.356Z</time></trkpt><trkpt lat="40.0623233" lon="8.6019517"><ele>153.5</ele><time>2026-05-02T08:55:43.356Z</time></trkpt><trkpt lat="40.0622083" lon="8.601935"><ele>151.75</ele><time>2026-05-02T08:55:44.356Z</time></trkpt><trkpt lat="40.062105" lon="8.6019017"><ele>150.0</ele><time>2026-05-02T08:55:45.356Z</time></trkpt><trkpt lat="40.0620017" lon="8.6018333"><ele>150.0</ele><time>2026-05-02T08:55:46.356Z</time></trkpt><trkpt lat="40.061885" lon="8.6017367"><ele>150.0</ele><time>2026-05-02T08:55:47.356Z</time></trkpt><trkpt lat="40.0617717" lon="8.60162"><ele>150.0</ele><time>2026-05-02T08:55:48.356Z</time></trkpt><trkpt lat="40.0616633" lon="8.6015233"><ele>150.0</ele><time>2026-05-02T08:55:49.356Z</time></trkpt><trkpt lat="40.06155" lon="8.6014383"><ele>149.2</ele><time>2026-05-02T08:55:50.356Z</time></trkpt><trkpt lat="40.0614417" lon="8.6013917"><ele>148.4</ele><time>2026-05-02T08:55:51.356Z</time></trkpt><trkpt lat="40.0613433" lon="8.601355"><ele>147.6</ele><time>2026-05-02T08:55:52.356Z</time></trkpt><trkpt lat="40.06125" lon="8.6013267"><ele>146.8</ele><time>2026-05-02T08:55:53.356Z</time></trkpt><trkpt lat="40.0611717" lon="8.6013"><ele>146.0</ele><time>2026-05-02T08:55:54.356Z</time></trkpt><trkpt lat="40.0610717" lon="8.6013017"><ele>146.0</ele><time>2026-05-02T08:55:56.356Z</time></trkpt><trkpt lat="40.0610017" lon="8.6013933"><ele>146.0</ele><time>2026-05-02T08:55:58.356Z</time></trkpt><trkpt lat="40.0610067" lon="8.6015117"><ele>146.0</ele><time>2026-05-02T08:55:59.356Z</time></trkpt><trkpt lat="40.0610333" lon="8.6016683"><ele>146.0</ele><time>2026-05-02T08:56:00.356Z</time></trkpt><trkpt lat="40.0610517" lon="8.6018317"><ele>146.0</ele><time>2026-05-02T08:56:01.356Z</time></trkpt><trkpt lat="40.06105" lon="8.6019767"><ele>146.5</ele><time>2026-05-02T08:56:02.356Z</time></trkpt><trkpt lat="40.06104" lon="8.6021117"><ele>147.0</ele><time>2026-05-02T08:56:03.356Z</time></trkpt><trkpt lat="40.061015" lon="8.6022583"><ele>147.5</ele><time>2026-05-02T08:56:04.356Z</time></trkpt><trkpt lat="40.060975" lon="8.6024"><ele>148.0</ele><time>2026-05-02T08:56:05.356Z</time></trkpt><trkpt lat="40.0609183" lon="8.6025417"><ele>148.0</ele><time>2026-05-02T08:56:06.356Z</time></trkpt><trkpt lat="40.0608483" lon="8.602675"><ele>148.0</ele><time>2026-05-02T08:56:07.356Z</time></trkpt><trkpt lat="40.0607933" lon="8.602795"><ele>148.0</ele><time>2026-05-02T08:56:08.356Z</time></trkpt><trkpt lat="40.0607283" lon="8.60287"><ele>148.0</ele><time>2026-05-02T08:56:09.356Z</time></trkpt><trkpt lat="40.06065" lon="8.6029267"><ele>148.0</ele><time>2026-05-02T08:56:10.356Z</time></trkpt><trkpt lat="40.0605783" lon="8.6029917"><ele>148.33333333333334</ele><time>2026-05-02T08:56:11.356Z</time></trkpt><trkpt lat="40.0605167" lon="8.6030717"><ele>148.66666666666669</ele><time>2026-05-02T08:56:12.356Z</time></trkpt><trkpt lat="40.0604717" lon="8.6031583"><ele>149.0</ele><time>2026-05-02T08:56:13.356Z</time></trkpt><trkpt lat="40.060455" lon="8.603255"><ele>149.33333333333334</ele><time>2026-05-02T08:56:14.356Z</time></trkpt><trkpt lat="40.0604633" lon="8.603355"><ele>149.66666666666666</ele><time>2026-05-02T08:56:15.356Z</time></trkpt><trkpt lat="40.0605067" lon="8.6034467"><ele>150.0</ele><time>2026-05-02T08:56:16.356Z</time></trkpt><trkpt lat="40.06057" lon="8.6035533"><ele>150.5</ele><time>2026-05-02T08:56:17.356Z</time></trkpt><trkpt lat="40.0606333" lon="8.603675"><ele>151.0</ele><time>2026-05-02T08:56:18.356Z</time></trkpt><trkpt lat="40.060695" lon="8.603805"><ele>151.5</ele><time>2026-05-02T08:56:19.356Z</time></trkpt><trkpt lat="40.0607767" lon="8.6039483"><ele>152.0</ele><time>2026-05-02T08:56:20.356Z</time></trkpt><trkpt lat="40.0608417" lon="8.6040717"><ele>153.0</ele><time>2026-05-02T08:56:21.356Z</time></trkpt><trkpt lat="40.060925" lon="8.604195"><ele>154.0</ele><time>2026-05-02T08:56:22.356Z</time></trkpt><trkpt lat="40.061025" lon="8.6043133"><ele>155.0</ele><time>2026-05-02T08:56:23.356Z</time></trkpt><trkpt lat="40.061125" lon="8.6044183"><ele>156.0</ele><time>2026-05-02T08:56:24.356Z</time></trkpt><trkpt lat="40.061225" lon="8.6045333"><ele>156.5</ele><time>2026-05-02T08:56:25.356Z</time></trkpt><trkpt lat="40.0613083" lon="8.6046367"><ele>157.0</ele><time>2026-05-02T08:56:26.356Z</time></trkpt><trkpt lat="40.0613617" lon="8.60473"><ele>157.5</ele><time>2026-05-02T08:56:27.356Z</time></trkpt><trkpt lat="40.0613933" lon="8.6048083"><ele>158.0</ele><time>2026-05-02T08:56:28.356Z</time></trkpt><trkpt lat="40.061415" lon="8.604895"><ele>158.5</ele><time>2026-05-02T08:56:29.356Z</time></trkpt><trkpt lat="40.06145" lon="8.6050133"><ele>159.0</ele><time>2026-05-02T08:56:30.356Z</time></trkpt><trkpt lat="40.0614717" lon="8.605105"><ele>159.0</ele><time>2026-05-02T08:56:31.356Z</time></trkpt><trkpt lat="40.061515" lon="8.6051817"><ele>159.0</ele><time>2026-05-02T08:56:33.356Z</time></trkpt><trkpt lat="40.0616217" lon="8.6051817"><ele>159.0</ele><time>2026-05-02T08:56:35.356Z</time></trkpt><trkpt lat="40.06175" lon="8.605245"><ele>159.0</ele><time>2026-05-02T08:56:37.356Z</time></trkpt><trkpt lat="40.06183" lon="8.605315"><ele>159.0</ele><time>2026-05-02T08:56:38.356Z</time></trkpt><trkpt lat="40.0619233" lon="8.6054017"><ele>160.5</ele><time>2026-05-02T08:56:39.356Z</time></trkpt><trkpt lat="40.0620167" lon="8.6054983"><ele>162.0</ele><time>2026-05-02T08:56:40.356Z</time></trkpt><trkpt lat="40.0620867" lon="8.6055983"><ele>163.5</ele><time>2026-05-02T08:56:41.356Z</time></trkpt><trkpt lat="40.0621483" lon="8.6057217"><ele>165.0</ele><time>2026-05-02T08:56:42.356Z</time></trkpt><trkpt lat="40.0621983" lon="8.6058633"><ele>165.0</ele><time>2026-05-02T08:56:43.356Z</time></trkpt><trkpt lat="40.0622483" lon="8.6060233"><ele>165.0</ele><time>2026-05-02T08:56:44.356Z</time></trkpt><trkpt lat="40.062305" lon="8.6061717"><ele>165.0</ele><time>2026-05-02T08:56:45.356Z</time></trkpt><trkpt lat="40.0623783" lon="8.6063217"><ele>165.0</ele><time>2026-05-02T08:56:46.356Z</time></trkpt><trkpt lat="40.0624467" lon="8.6064533"><ele>166.66666666666666</ele><time>2026-05-02T08:56:47.356Z</time></trkpt><trkpt lat="40.0625117" lon="8.60658"><ele>168.33333333333334</ele><time>2026-05-02T08:56:48.356Z</time></trkpt><trkpt lat="40.0625617" lon="8.60668"><ele>170.0</ele><time>2026-05-02T08:56:49.356Z</time></trkpt><trkpt lat="40.0625883" lon="8.6067967"><ele>171.66666666666669</ele><time>2026-05-02T08:56:50.356Z</time></trkpt><trkpt lat="40.0625783" lon="8.6068867"><ele>173.33333333333334</ele><time>2026-05-02T08:56:51.356Z</time></trkpt><trkpt lat="40.0625517" lon="8.6069667"><ele>175.0</ele><time>2026-05-02T08:56:52.356Z</time></trkpt><trkpt lat="40.0625383" lon="8.607055"><ele>175.33333333333334</ele><time>2026-05-02T08:56:53.356Z</time></trkpt><trkpt lat="40.0625583" lon="8.607155"><ele>175.66666666666669</ele><time>2026-05-02T08:56:54.356Z</time></trkpt><trkpt lat="40.0626033" lon="8.60725"><ele>176.0</ele><time>2026-05-02T08:56:55.356Z</time></trkpt><trkpt lat="40.0626667" lon="8.6073267"><ele>176.33333333333334</ele><time>2026-05-02T08:56:56.356Z</time></trkpt><trkpt lat="40.0627433" lon="8.6073917"><ele>176.66666666666666</ele><time>2026-05-02T08:56:57.356Z</time></trkpt><trkpt lat="40.0628267" lon="8.6074633"><ele>177.0</ele><time>2026-05-02T08:56:58.356Z</time></trkpt><trkpt lat="40.0629033" lon="8.6075517"><ele>177.0</ele><time>2026-05-02T08:56:59.356Z</time></trkpt><trkpt lat="40.062975" lon="8.607645"><ele>177.0</ele><time>2026-05-02T08:57:00.356Z</time></trkpt><trkpt lat="40.06304" lon="8.6077417"><ele>177.0</ele><time>2026-05-02T08:57:01.356Z</time></trkpt><trkpt lat="40.0631" lon="8.607825"><ele>177.0</ele><time>2026-05-02T08:57:02.356Z</time></trkpt><trkpt lat="40.0631633" lon="8.6078967"><ele>177.0</ele><time>2026-05-02T08:57:03.356Z</time></trkpt><trkpt lat="40.06322" lon="8.6079517"><ele>177.0</ele><time>2026-05-02T08:57:04.356Z</time></trkpt><trkpt lat="40.0632883" lon="8.6079817"><ele>178.0</ele><time>2026-05-02T08:57:05.356Z</time></trkpt><trkpt lat="40.0633567" lon="8.6080083"><ele>179.0</ele><time>2026-05-02T08:57:06.356Z</time></trkpt><trkpt lat="40.0634167" lon="8.6080383"><ele>180.0</ele><time>2026-05-02T08:57:07.356Z</time></trkpt><trkpt lat="40.06347" lon="8.6080917"><ele>181.0</ele><time>2026-05-02T08:57:08.356Z</time></trkpt><trkpt lat="40.0635183" lon="8.6081717"><ele>182.0</ele><time>2026-05-02T08:57:09.356Z</time></trkpt><trkpt lat="40.0635767" lon="8.6082617"><ele>183.0</ele><time>2026-05-02T08:57:10.356Z</time></trkpt><trkpt lat="40.063645" lon="8.6083533"><ele>183.0</ele><time>2026-05-02T08:57:11.356Z</time></trkpt><trkpt lat="40.063715" lon="8.6084567"><ele>183.0</ele><time>2026-05-02T08:57:12.356Z</time></trkpt><trkpt lat="40.063785" lon="8.6085583"><ele>183.0</ele><time>2026-05-02T08:57:13.356Z</time></trkpt><trkpt lat="40.0638483" lon="8.6086717"><ele>183.0</ele><time>2026-05-02T08:57:14.356Z</time></trkpt><trkpt lat="40.06389" lon="8.6087817"><ele>183.0</ele><time>2026-05-02T08:57:15.356Z</time></trkpt><trkpt lat="40.063945" lon="8.608895"><ele>183.5</ele><time>2026-05-02T08:57:16.356Z</time></trkpt><trkpt lat="40.0640033" lon="8.6089983"><ele>184.0</ele><time>2026-05-02T08:57:17.356Z</time></trkpt><trkpt lat="40.0640717" lon="8.6091267"><ele>184.5</ele><time>2026-05-02T08:57:18.356Z</time></trkpt><trkpt lat="40.0641467" lon="8.6092533"><ele>185.0</ele><time>2026-05-02T08:57:19.356Z</time></trkpt><trkpt lat="40.06422" lon="8.6093733"><ele>186.4</ele><time>2026-05-02T08:57:20.356Z</time></trkpt><trkpt lat="40.0642883" lon="8.6094683"><ele>187.8</ele><time>2026-05-02T08:57:21.356Z</time></trkpt><trkpt lat="40.064365" lon="8.609555"><ele>189.2</ele><time>2026-05-02T08:57:22.356Z</time></trkpt><trkpt lat="40.0644133" lon="8.6096267"><ele>190.6</ele><time>2026-05-02T08:57:23.356Z</time></trkpt><trkpt lat="40.0644467" lon="8.6097333"><ele>192.0</ele><time>2026-05-02T08:57:25.356Z</time></trkpt><trkpt lat="40.0644" lon="8.6098433"><ele>192.66666666666666</ele><time>2026-05-02T08:57:27.356Z</time></trkpt><trkpt lat="40.0643833" lon="8.6099417"><ele>193.33333333333331</ele><time>2026-05-02T08:57:28.356Z</time></trkpt><trkpt lat="40.0643783" lon="8.61005"><ele>194.0</ele><time>2026-05-02T08:57:29.356Z</time></trkpt><trkpt lat="40.0643733" lon="8.61016"><ele>194.66666666666666</ele><time>2026-05-02T08:57:30.356Z</time></trkpt><trkpt lat="40.0643667" lon="8.610245"><ele>195.33333333333331</ele><time>2026-05-02T08:57:31.356Z</time></trkpt><trkpt lat="40.0643933" lon="8.610355"><ele>196.0</ele><time>2026-05-02T08:57:33.356Z</time></trkpt><trkpt lat="40.064505" lon="8.6104117"><ele>196.20000000000002</ele><time>2026-05-02T08:57:35.356Z</time></trkpt><trkpt lat="40.0645883" lon="8.6104183"><ele>196.4</ele><time>2026-05-02T08:57:36.356Z</time></trkpt><trkpt lat="40.0646817" lon="8.6104367"><ele>196.6</ele><time>2026-05-02T08:57:37.356Z</time></trkpt><trkpt lat="40.0647883" lon="8.6104583"><ele>196.8</ele><time>2026-05-02T08:57:38.356Z</time></trkpt><trkpt lat="40.0648983" lon="8.6104983"><ele>197.0</ele><time>2026-05-02T08:57:39.356Z</time></trkpt><trkpt lat="40.0650133" lon="8.6105467"><ele>197.66666666666669</ele><time>2026-05-02T08:57:40.356Z</time></trkpt><trkpt lat="40.0651167" lon="8.6105683"><ele>198.33333333333334</ele><time>2026-05-02T08:57:41.356Z</time></trkpt><trkpt lat="40.0652133" lon="8.610565"><ele>199.0</ele><time>2026-05-02T08:57:42.356Z</time></trkpt><trkpt lat="40.0652983" lon="8.61053"><ele>199.66666666666669</ele><time>2026-05-02T08:57:43.356Z</time></trkpt><trkpt lat="40.065375" lon="8.61049"><ele>200.33333333333334</ele><time>2026-05-02T08:57:44.356Z</time></trkpt><trkpt lat="40.065445" lon="8.6104617"><ele>201.0</ele><time>2026-05-02T08:57:45.356Z</time></trkpt><trkpt lat="40.0655583" lon="8.6104933"><ele>201.0</ele><time>2026-05-02T08:57:47.356Z</time></trkpt><trkpt lat="40.0656483" lon="8.61054"><ele>201.0</ele><time>2026-05-02T08:57:48.356Z</time></trkpt><trkpt lat="40.0657367" lon="8.6105883"><ele>201.0</ele><time>2026-05-02T08:57:49.356Z</time></trkpt><trkpt lat="40.0658267" lon="8.6106333"><ele>201.0</ele><time>2026-05-02T08:57:50.356Z</time></trkpt><trkpt lat="40.0658917" lon="8.6106883"><ele>201.0</ele><time>2026-05-02T08:57:51.356Z</time></trkpt><trkpt lat="40.0659433" lon="8.6107733"><ele>201.0</ele><time>2026-05-02T08:57:52.356Z</time></trkpt><trkpt lat="40.06598" lon="8.61087"><ele>201.4</ele><time>2026-05-02T08:57:53.356Z</time></trkpt><trkpt lat="40.06601" lon="8.6109983"><ele>201.8</ele><time>2026-05-02T08:57:54.356Z</time></trkpt><trkpt lat="40.0660483" lon="8.611135"><ele>202.20000000000002</ele><time>2026-05-02T08:57:55.356Z</time></trkpt><trkpt lat="40.0660667" lon="8.6112433"><ele>202.60000000000002</ele><time>2026-05-02T08:57:56.356Z</time></trkpt><trkpt lat="40.0660867" lon="8.6113717"><ele>203.0</ele><time>2026-05-02T08:57:57.356Z</time></trkpt><trkpt lat="40.066085" lon="8.6114883"><ele>203.66666666666669</ele><time>2026-05-02T08:57:58.356Z</time></trkpt><trkpt lat="40.0661" lon="8.6116083"><ele>204.33333333333334</ele><time>2026-05-02T08:57:59.356Z</time></trkpt><trkpt lat="40.0661283" lon="8.6117183"><ele>205.0</ele><time>2026-05-02T08:58:00.356Z</time></trkpt><trkpt lat="40.0661617" lon="8.61181"><ele>205.66666666666669</ele><time>2026-05-02T08:58:01.356Z</time></trkpt><trkpt lat="40.0662083" lon="8.6118833"><ele>206.33333333333334</ele><time>2026-05-02T08:58:02.356Z</time></trkpt><trkpt lat="40.0662817" lon="8.6119633"><ele>207.0</ele><time>2026-05-02T08:58:03.356Z</time></trkpt><trkpt lat="40.066365" lon="8.612045"><ele>207.6</ele><time>2026-05-02T08:58:04.356Z</time></trkpt><trkpt lat="40.066435" lon="8.6121133"><ele>208.2</ele><time>2026-05-02T08:58:05.356Z</time></trkpt><trkpt lat="40.0664917" lon="8.6121517"><ele>208.8</ele><time>2026-05-02T08:58:06.356Z</time></trkpt><trkpt lat="40.0666283" lon="8.61217"><ele>209.4</ele><time>2026-05-02T08:58:08.356Z</time></trkpt><trkpt lat="40.066725" lon="8.61217"><ele>210.0</ele><time>2026-05-02T08:58:09.356Z</time></trkpt><trkpt lat="40.066825" lon="8.612165"><ele>210.5</ele><time>2026-05-02T08:58:10.356Z</time></trkpt><trkpt lat="40.066915" lon="8.6121733"><ele>211.0</ele><time>2026-05-02T08:58:11.356Z</time></trkpt><trkpt lat="40.0670033" lon="8.6122083"><ele>211.5</ele><time>2026-05-02T08:58:12.356Z</time></trkpt><trkpt lat="40.0670767" lon="8.6122733"><ele>212.0</ele><time>2026-05-02T08:58:13.356Z</time></trkpt><trkpt lat="40.0671267" lon="8.612335"><ele>212.5</ele><time>2026-05-02T08:58:14.356Z</time></trkpt><trkpt lat="40.0671517" lon="8.61243"><ele>213.0</ele><time>2026-05-02T08:58:15.356Z</time></trkpt><trkpt lat="40.0671667" lon="8.6125317"><ele>213.0</ele><time>2026-05-02T08:58:16.356Z</time></trkpt><trkpt lat="40.0671467" lon="8.6126567"><ele>213.0</ele><time>2026-05-02T08:58:17.356Z</time></trkpt><trkpt lat="40.0671217" lon="8.6127717"><ele>213.0</ele><time>2026-05-02T08:58:18.356Z</time></trkpt><trkpt lat="40.06711" lon="8.6129117"><ele>213.0</ele><time>2026-05-02T08:58:19.356Z</time></trkpt><trkpt lat="40.0671283" lon="8.613045"><ele>213.0</ele><time>2026-05-02T08:58:20.356Z</time></trkpt><trkpt lat="40.06716" lon="8.6131633"><ele>213.33333333333334</ele><time>2026-05-02T08:58:21.356Z</time></trkpt><trkpt lat="40.067195" lon="8.6132783"><ele>213.66666666666669</ele><time>2026-05-02T08:58:22.356Z</time></trkpt><trkpt lat="40.0672183" lon="8.61338"><ele>214.0</ele><time>2026-05-02T08:58:23.356Z</time></trkpt><trkpt lat="40.067215" lon="8.6134667"><ele>214.33333333333334</ele><time>2026-05-02T08:58:24.356Z</time></trkpt><trkpt lat="40.06722" lon="8.6135517"><ele>214.66666666666669</ele><time>2026-05-02T08:58:25.356Z</time></trkpt><trkpt lat="40.067245" lon="8.61364"><ele>215.0</ele><time>2026-05-02T08:58:26.356Z</time></trkpt><trkpt lat="40.067295" lon="8.6137267"><ele>215.75</ele><time>2026-05-02T08:58:27.356Z</time></trkpt><trkpt lat="40.0673683" lon="8.6138067"><ele>216.5</ele><time>2026-05-02T08:58:28.356Z</time></trkpt><trkpt lat="40.0674733" lon="8.6139033"><ele>217.25</ele><time>2026-05-02T08:58:29.356Z</time></trkpt><trkpt lat="40.0675733" lon="8.614005"><ele>218.0</ele><time>2026-05-02T08:58:30.356Z</time></trkpt><trkpt lat="40.0676517" lon="8.6141083"><ele>219.25</ele><time>2026-05-02T08:58:31.356Z</time></trkpt><trkpt lat="40.067715" lon="8.6142167"><ele>220.5</ele><time>2026-05-02T08:58:32.356Z</time></trkpt><trkpt lat="40.06779" lon="8.6143267"><ele>221.75</ele><time>2026-05-02T08:58:33.356Z</time></trkpt><trkpt lat="40.0678667" lon="8.6144367"><ele>223.0</ele><time>2026-05-02T08:58:34.356Z</time></trkpt><trkpt lat="40.067945" lon="8.6145617"><ele>223.60000000000002</ele><time>2026-05-02T08:58:35.356Z</time></trkpt><trkpt lat="40.0680067" lon="8.61469"><ele>224.20000000000002</ele><time>2026-05-02T08:58:36.356Z</time></trkpt><trkpt lat="40.068075" lon="8.6148117"><ele>224.8</ele><time>2026-05-02T08:58:37.356Z</time></trkpt><trkpt lat="40.0681417" lon="8.6149017"><ele>225.4</ele><time>2026-05-02T08:58:38.356Z</time></trkpt><trkpt lat="40.0682167" lon="8.6149517"><ele>226.0</ele><time>2026-05-02T08:58:39.356Z</time></trkpt><trkpt lat="40.0683083" lon="8.61499"><ele>226.75</ele><time>2026-05-02T08:58:40.356Z</time></trkpt><trkpt lat="40.0684017" lon="8.61501"><ele>227.5</ele><time>2026-05-02T08:58:41.356Z</time></trkpt><trkpt lat="40.0685167" lon="8.6150167"><ele>228.25</ele><time>2026-05-02T08:58:42.356Z</time></trkpt><trkpt lat="40.06865" lon="8.6150167"><ele>229.0</ele><time>2026-05-02T08:58:43.356Z</time></trkpt><trkpt lat="40.0687783" lon="8.6150217"><ele>229.0</ele><time>2026-05-02T08:58:44.356Z</time></trkpt><trkpt lat="40.0688967" lon="8.6150433"><ele>228.99999999999997</ele><time>2026-05-02T08:58:45.356Z</time></trkpt><trkpt lat="40.068995" lon="8.6150833"><ele>228.99999999999997</ele><time>2026-05-02T08:58:46.356Z</time></trkpt><trkpt lat="40.0690783" lon="8.6151483"><ele>229.0</ele><time>2026-05-02T08:58:47.356Z</time></trkpt><trkpt lat="40.0691467" lon="8.6152317"><ele>229.0</ele><time>2026-05-02T08:58:48.356Z</time></trkpt><trkpt lat="40.0692283" lon="8.6153217"><ele>230.5</ele><time>2026-05-02T08:58:49.356Z</time></trkpt><trkpt lat="40.0693267" lon="8.6154083"><ele>232.0</ele><time>2026-05-02T08:58:50.356Z</time></trkpt><trkpt lat="40.0694283" lon="8.6155"><ele>233.5</ele><time>2026-05-02T08:58:51.356Z</time></trkpt><trkpt lat="40.0695383" lon="8.6155967"><ele>235.0</ele><time>2026-05-02T08:58:52.356Z</time></trkpt><trkpt lat="40.06962" lon="8.6156983"><ele>235.0</ele><time>2026-05-02T08:58:53.356Z</time></trkpt><trkpt lat="40.0696983" lon="8.6158167"><ele>235.0</ele><time>2026-05-02T08:58:54.356Z</time></trkpt><trkpt lat="40.0697567" lon="8.61595"><ele>235.0</ele><time>2026-05-02T08:58:55.356Z</time></trkpt><trkpt lat="40.0698083" lon="8.616085"><ele>235.0</ele><time>2026-05-02T08:58:56.356Z</time></trkpt><trkpt lat="40.069865" lon="8.6162217"><ele>236.0</ele><time>2026-05-02T08:58:57.356Z</time></trkpt><trkpt lat="40.0699183" lon="8.6163433"><ele>237.0</ele><time>2026-05-02T08:58:58.356Z</time></trkpt><trkpt lat="40.0699733" lon="8.6164533"><ele>238.0</ele><time>2026-05-02T08:58:59.356Z</time></trkpt><trkpt lat="40.0700083" lon="8.616585"><ele>239.0</ele><time>2026-05-02T08:59:00.356Z</time></trkpt><trkpt lat="40.0700433" lon="8.6167133"><ele>240.0</ele><time>2026-05-02T08:59:01.356Z</time></trkpt><trkpt lat="40.0701033" lon="8.6168383"><ele>240.6</ele><time>2026-05-02T08:59:02.356Z</time></trkpt><trkpt lat="40.07016" lon="8.6169567"><ele>241.2</ele><time>2026-05-02T08:59:03.356Z</time></trkpt><trkpt lat="40.0701917" lon="8.6170733"><ele>241.8</ele><time>2026-05-02T08:59:04.356Z</time></trkpt><trkpt lat="40.0702083" lon="8.61719"><ele>242.4</ele><time>2026-05-02T08:59:05.356Z</time></trkpt><trkpt lat="40.0702283" lon="8.617335"><ele>243.0</ele><time>2026-05-02T08:59:06.356Z</time></trkpt><trkpt lat="40.07027" lon="8.6174867"><ele>243.0</ele><time>2026-05-02T08:59:07.356Z</time></trkpt><trkpt lat="40.0702983" lon="8.6176467"><ele>243.0</ele><time>2026-05-02T08:59:08.356Z</time></trkpt><trkpt lat="40.070315" lon="8.6177817"><ele>243.0</ele><time>2026-05-02T08:59:09.356Z</time></trkpt><trkpt lat="40.0703367" lon="8.6178717"><ele>243.0</ele><time>2026-05-02T08:59:10.356Z</time></trkpt><trkpt lat="40.0704033" lon="8.6179417"><ele>243.0</ele><time>2026-05-02T08:59:12.356Z</time></trkpt><trkpt lat="40.070515" lon="8.61792"><ele>243.0</ele><time>2026-05-02T08:59:14.356Z</time></trkpt><trkpt lat="40.0706067" lon="8.6179217"><ele>243.0</ele><time>2026-05-02T08:59:15.356Z</time></trkpt><trkpt lat="40.07069" lon="8.6179333"><ele>243.0</ele><time>2026-05-02T08:59:16.356Z</time></trkpt><trkpt lat="40.0707567" lon="8.61791"><ele>243.0</ele><time>2026-05-02T08:59:17.356Z</time></trkpt><trkpt lat="40.070825" lon="8.61787"><ele>243.0</ele><time>2026-05-02T08:59:18.356Z</time></trkpt><trkpt lat="40.0709017" lon="8.617825"><ele>243.0</ele><time>2026-05-02T08:59:19.356Z</time></trkpt><trkpt lat="40.0709817" lon="8.6178067"><ele>242.75</ele><time>2026-05-02T08:59:20.356Z</time></trkpt><trkpt lat="40.0710783" lon="8.6178367"><ele>242.5</ele><time>2026-05-02T08:59:21.356Z</time></trkpt><trkpt lat="40.0711917" lon="8.6178833"><ele>242.25</ele><time>2026-05-02T08:59:22.356Z</time></trkpt><trkpt lat="40.071325" lon="8.617955"><ele>242.0</ele><time>2026-05-02T08:59:23.356Z</time></trkpt><trkpt lat="40.071475" lon="8.61801"><ele>243.0</ele><time>2026-05-02T08:59:24.356Z</time></trkpt><trkpt lat="40.07162" lon="8.618085"><ele>244.0</ele><time>2026-05-02T08:59:25.356Z</time></trkpt><trkpt lat="40.0717583" lon="8.6181483"><ele>245.0</ele><time>2026-05-02T08:59:26.356Z</time></trkpt><trkpt lat="40.0718967" lon="8.6182217"><ele>245.0</ele><time>2026-05-02T08:59:27.356Z</time></trkpt><trkpt lat="40.07204" lon="8.6182867"><ele>245.0</ele><time>2026-05-02T08:59:28.356Z</time></trkpt><trkpt lat="40.0721817" lon="8.61835"><ele>245.0</ele><time>2026-05-02T08:59:29.356Z</time></trkpt><trkpt lat="40.0723283" lon="8.6184133"><ele>245.25</ele><time>2026-05-02T08:59:30.356Z</time></trkpt><trkpt lat="40.0724733" lon="8.6184967"><ele>245.5</ele><time>2026-05-02T08:59:31.356Z</time></trkpt><trkpt lat="40.072595" lon="8.6185867"><ele>245.75</ele><time>2026-05-02T08:59:32.356Z</time></trkpt><trkpt lat="40.072695" lon="8.618645"><ele>246.0</ele><time>2026-05-02T08:59:33.356Z</time></trkpt><trkpt lat="40.0727767" lon="8.6186783"><ele>245.71428571428575</ele><time>2026-05-02T08:59:34.356Z</time></trkpt><trkpt lat="40.0728483" lon="8.6187"><ele>245.42857142857144</ele><time>2026-05-02T08:59:35.356Z</time></trkpt><trkpt lat="40.0729233" lon="8.6187"><ele>245.14285714285714</ele><time>2026-05-02T08:59:37.356Z</time></trkpt><trkpt lat="40.07299" lon="8.6187367"><ele>244.85714285714286</ele><time>2026-05-02T08:59:40.356Z</time></trkpt><trkpt lat="40.0730467" lon="8.6187867"><ele>244.57142857142856</ele><time>2026-05-02T08:59:44.356Z</time></trkpt><trkpt lat="40.07311" lon="8.61878"><ele>244.28571428571425</ele><time>2026-05-02T08:59:46.356Z</time></trkpt><trkpt lat="40.0732033" lon="8.618795"><ele>243.99999999999997</ele><time>2026-05-02T08:59:48.356Z</time></trkpt><trkpt lat="40.07332" lon="8.618865"><ele>243.99999999999997</ele><time>2026-05-02T08:59:50.356Z</time></trkpt><trkpt lat="40.0733817" lon="8.6188967"><ele>244.0</ele><time>2026-05-02T08:59:51.356Z</time></trkpt><trkpt lat="40.073455" lon="8.6189217"><ele>244.0</ele><time>2026-05-02T08:59:52.356Z</time></trkpt><trkpt lat="40.073535" lon="8.6189483"><ele>244.0</ele><time>2026-05-02T08:59:53.356Z</time></trkpt><trkpt lat="40.07362" lon="8.6189733"><ele>243.99999999999997</ele><time>2026-05-02T08:59:54.356Z</time></trkpt><trkpt lat="40.0737083" lon="8.6189933"><ele>244.0</ele><time>2026-05-02T08:59:55.356Z</time></trkpt><trkpt lat="40.0738" lon="8.619015"><ele>244.0</ele><time>2026-05-02T08:59:56.356Z</time></trkpt><trkpt lat="40.0739017" lon="8.6190433"><ele>243.99999999999997</ele><time>2026-05-02T08:59:57.356Z</time></trkpt><trkpt lat="40.074" lon="8.6190717"><ele>243.99999999999997</ele><time>2026-05-02T08:59:58.356Z</time></trkpt><trkpt lat="40.0741017" lon="8.6190967"><ele>244.0</ele><time>2026-05-02T08:59:59.356Z</time></trkpt><trkpt lat="40.07421" lon="8.6191233"><ele>244.0</ele><time>2026-05-02T09:00:00.356Z</time></trkpt><trkpt lat="40.0743167" lon="8.6191517"><ele>244.2</ele><time>2026-05-02T09:00:01.356Z</time></trkpt><trkpt lat="40.074425" lon="8.61917"><ele>244.39999999999998</ele><time>2026-05-02T09:00:02.356Z</time></trkpt><trkpt lat="40.0745133" lon="8.61918"><ele>244.6</ele><time>2026-05-02T09:00:03.356Z</time></trkpt><trkpt lat="40.0745933" lon="8.61919"><ele>244.8</ele><time>2026-05-02T09:00:04.356Z</time></trkpt><trkpt lat="40.0746933" lon="8.6191983"><ele>245.0</ele><time>2026-05-02T09:00:05.356Z</time></trkpt><trkpt lat="40.0748183" lon="8.6192017"><ele>245.5</ele><time>2026-05-02T09:00:06.356Z</time></trkpt><trkpt lat="40.074955" lon="8.61921"><ele>246.0</ele><time>2026-05-02T09:00:07.356Z</time></trkpt><trkpt lat="40.0750967" lon="8.61923"><ele>246.5</ele><time>2026-05-02T09:00:08.356Z</time></trkpt><trkpt lat="40.0752467" lon="8.619255"><ele>247.0</ele><time>2026-05-02T09:00:09.356Z</time></trkpt><trkpt lat="40.0754067" lon="8.6192917"><ele>247.0</ele><time>2026-05-02T09:00:10.356Z</time></trkpt><trkpt lat="40.0755633" lon="8.6193233"><ele>247.0</ele><time>2026-05-02T09:00:11.356Z</time></trkpt><trkpt lat="40.0757117" lon="8.6193667"><ele>247.0</ele><time>2026-05-02T09:00:12.356Z</time></trkpt><trkpt lat="40.0758633" lon="8.6194067"><ele>247.25</ele><time>2026-05-02T09:00:13.356Z</time></trkpt><trkpt lat="40.0760067" lon="8.619445"><ele>247.5</ele><time>2026-05-02T09:00:14.356Z</time></trkpt><trkpt lat="40.0761583" lon="8.619475"><ele>247.75</ele><time>2026-05-02T09:00:15.356Z</time></trkpt><trkpt lat="40.0763067" lon="8.6194883"><ele>248.0</ele><time>2026-05-02T09:00:16.356Z</time></trkpt><trkpt lat="40.07646" lon="8.6194967"><ele>250.0</ele><time>2026-05-02T09:00:17.356Z</time></trkpt><trkpt lat="40.0766233" lon="8.6194833"><ele>252.0</ele><time>2026-05-02T09:00:18.356Z</time></trkpt><trkpt lat="40.0767867" lon="8.61945"><ele>254.0</ele><time>2026-05-02T09:00:19.356Z</time></trkpt><trkpt lat="40.0769517" lon="8.6194133"><ele>254.0</ele><time>2026-05-02T09:00:20.356Z</time></trkpt><trkpt lat="40.077125" lon="8.6193617"><ele>254.0</ele><time>2026-05-02T09:00:21.356Z</time></trkpt><trkpt lat="40.0773133" lon="8.6193067"><ele>254.0</ele><time>2026-05-02T09:00:22.356Z</time></trkpt><trkpt lat="40.077505" lon="8.619245"><ele>255.66666666666669</ele><time>2026-05-02T09:00:23.356Z</time></trkpt><trkpt lat="40.0776917" lon="8.6191867"><ele>257.3333333333333</ele><time>2026-05-02T09:00:24.356Z</time></trkpt><trkpt lat="40.0778633" lon="8.6191217"><ele>259.0</ele><time>2026-05-02T09:00:25.356Z</time></trkpt><trkpt lat="40.0780117" lon="8.61908"><ele>259.0</ele><time>2026-05-02T09:00:26.356Z</time></trkpt><trkpt lat="40.0781433" lon="8.6190317"><ele>259.0</ele><time>2026-05-02T09:00:27.356Z</time></trkpt><trkpt lat="40.0782783" lon="8.61899"><ele>259.0</ele><time>2026-05-02T09:00:28.356Z</time></trkpt><trkpt lat="40.0784117" lon="8.618955"><ele>259.0</ele><time>2026-05-02T09:00:29.356Z</time></trkpt><trkpt lat="40.07855" lon="8.6189133"><ele>260.5</ele><time>2026-05-02T09:00:30.356Z</time></trkpt><trkpt lat="40.0786833" lon="8.618865"><ele>262.0</ele><time>2026-05-02T09:00:31.356Z</time></trkpt><trkpt lat="40.0788233" lon="8.6188317"><ele>263.5</ele><time>2026-05-02T09:00:32.356Z</time></trkpt><trkpt lat="40.0789633" lon="8.61881"><ele>265.0</ele><time>2026-05-02T09:00:33.356Z</time></trkpt><trkpt lat="40.07911" lon="8.6188133"><ele>266.5</ele><time>2026-05-02T09:00:34.356Z</time></trkpt><trkpt lat="40.0792483" lon="8.6188367"><ele>268.0</ele><time>2026-05-02T09:00:35.356Z</time></trkpt><trkpt lat="40.0793633" lon="8.6188767"><ele>269.5</ele><time>2026-05-02T09:00:36.356Z</time></trkpt><trkpt lat="40.0794683" lon="8.6189267"><ele>271.0</ele><time>2026-05-02T09:00:37.356Z</time></trkpt><trkpt lat="40.0795633" lon="8.6189733"><ele>271.0</ele><time>2026-05-02T09:00:38.356Z</time></trkpt><trkpt lat="40.0796717" lon="8.619015"><ele>271.0</ele><time>2026-05-02T09:00:39.356Z</time></trkpt><trkpt lat="40.079785" lon="8.6190517"><ele>271.0</ele><time>2026-05-02T09:00:40.356Z</time></trkpt><trkpt lat="40.07989" lon="8.619075"><ele>271.0</ele><time>2026-05-02T09:00:41.356Z</time></trkpt><trkpt lat="40.07998" lon="8.61911"><ele>271.0</ele><time>2026-05-02T09:00:42.356Z</time></trkpt><trkpt lat="40.0800667" lon="8.6191417"><ele>271.6</ele><time>2026-05-02T09:00:43.356Z</time></trkpt><trkpt lat="40.0801367" lon="8.6192"><ele>272.20000000000005</ele><time>2026-05-02T09:00:44.356Z</time></trkpt><trkpt lat="40.080195" lon="8.6192933"><ele>272.79999999999995</ele><time>2026-05-02T09:00:45.356Z</time></trkpt><trkpt lat="40.08024" lon="8.6193983"><ele>273.4</ele><time>2026-05-02T09:00:46.356Z</time></trkpt><trkpt lat="40.0802783" lon="8.6195217"><ele>274.0</ele><time>2026-05-02T09:00:47.356Z</time></trkpt><trkpt lat="40.080315" lon="8.6196533"><ele>274.0</ele><time>2026-05-02T09:00:48.356Z</time></trkpt><trkpt lat="40.080355" lon="8.619785"><ele>274.0</ele><time>2026-05-02T09:00:49.356Z</time></trkpt><trkpt lat="40.08039" lon="8.6199267"><ele>274.0</ele><time>2026-05-02T09:00:50.356Z</time></trkpt><trkpt lat="40.0804217" lon="8.6200567"><ele>274.0</ele><time>2026-05-02T09:00:51.356Z</time></trkpt><trkpt lat="40.0804583" lon="8.6201733"><ele>274.0</ele><time>2026-05-02T09:00:52.356Z</time></trkpt><trkpt lat="40.0805" lon="8.6202933"><ele>273.8</ele><time>2026-05-02T09:00:53.356Z</time></trkpt><trkpt lat="40.0805517" lon="8.6204267"><ele>273.59999999999997</ele><time>2026-05-02T09:00:54.356Z</time></trkpt><trkpt lat="40.0806017" lon="8.6205517"><ele>273.4</ele><time>2026-05-02T09:00:55.356Z</time></trkpt><trkpt lat="40.0806467" lon="8.620685"><ele>273.2</ele><time>2026-05-02T09:00:56.356Z</time></trkpt><trkpt lat="40.0806917" lon="8.620815"><ele>273.0</ele><time>2026-05-02T09:00:57.356Z</time></trkpt><trkpt lat="40.0807333" lon="8.6209167"><ele>273.3333333333333</ele><time>2026-05-02T09:00:58.356Z</time></trkpt><trkpt lat="40.080775" lon="8.6210183"><ele>273.6666666666667</ele><time>2026-05-02T09:00:59.356Z</time></trkpt><trkpt lat="40.0808133" lon="8.6211233"><ele>274.0</ele><time>2026-05-02T09:01:00.356Z</time></trkpt><trkpt lat="40.0808567" lon="8.6212233"><ele>274.33333333333337</ele><time>2026-05-02T09:01:01.356Z</time></trkpt><trkpt lat="40.0808883" lon="8.6213033"><ele>274.6666666666667</ele><time>2026-05-02T09:01:02.356Z</time></trkpt><trkpt lat="40.0809417" lon="8.6214183"><ele>275.0</ele><time>2026-05-02T09:01:04.356Z</time></trkpt><trkpt lat="40.080985" lon="8.62151"><ele>275.0</ele><time>2026-05-02T09:01:06.356Z</time></trkpt><trkpt lat="40.081025" lon="8.621585"><ele>275.0</ele><time>2026-05-02T09:01:09.356Z</time></trkpt><trkpt lat="40.0810633" lon="8.6216583"><ele>275.0</ele><time>2026-05-02T09:01:11.356Z</time></trkpt><trkpt lat="40.0811133" lon="8.6217783"><ele>275.0</ele><time>2026-05-02T09:01:13.356Z</time></trkpt><trkpt lat="40.0811417" lon="8.6218567"><ele>275.0</ele><time>2026-05-02T09:01:14.356Z</time></trkpt><trkpt lat="40.0811683" lon="8.62196"><ele>275.0</ele><time>2026-05-02T09:01:15.356Z</time></trkpt><trkpt lat="40.08119" lon="8.6220667"><ele>274.4</ele><time>2026-05-02T09:01:16.356Z</time></trkpt><trkpt lat="40.08122" lon="8.6221783"><ele>273.8</ele><time>2026-05-02T09:01:17.356Z</time></trkpt><trkpt lat="40.08125" lon="8.6222817"><ele>273.2</ele><time>2026-05-02T09:01:18.356Z</time></trkpt><trkpt lat="40.0812933" lon="8.6224"><ele>272.6</ele><time>2026-05-02T09:01:19.356Z</time></trkpt><trkpt lat="40.0813383" lon="8.62253"><ele>272.0</ele><time>2026-05-02T09:01:20.356Z</time></trkpt><trkpt lat="40.081395" lon="8.6226733"><ele>272.25</ele><time>2026-05-02T09:01:21.356Z</time></trkpt><trkpt lat="40.08146" lon="8.6228183"><ele>272.5</ele><time>2026-05-02T09:01:22.356Z</time></trkpt><trkpt lat="40.08153" lon="8.6229683"><ele>272.75</ele><time>2026-05-02T09:01:23.356Z</time></trkpt><trkpt lat="40.0815867" lon="8.6231317"><ele>273.0</ele><time>2026-05-02T09:01:24.356Z</time></trkpt><trkpt lat="40.0816383" lon="8.6233017"><ele>273.0</ele><time>2026-05-02T09:01:25.356Z</time></trkpt><trkpt lat="40.0816917" lon="8.6234683"><ele>273.0</ele><time>2026-05-02T09:01:26.356Z</time></trkpt><trkpt lat="40.081745" lon="8.6236317"><ele>273.0</ele><time>2026-05-02T09:01:27.356Z</time></trkpt><trkpt lat="40.081805" lon="8.6237967"><ele>273.0</ele><time>2026-05-02T09:01:28.356Z</time></trkpt><trkpt lat="40.081855" lon="8.6239367"><ele>272.75</ele><time>2026-05-02T09:01:29.356Z</time></trkpt><trkpt lat="40.0819067" lon="8.6240717"><ele>272.5</ele><time>2026-05-02T09:01:30.356Z</time></trkpt><trkpt lat="40.0819583" lon="8.62421"><ele>272.25</ele><time>2026-05-02T09:01:31.356Z</time></trkpt><trkpt lat="40.082025" lon="8.6243433"><ele>272.0</ele><time>2026-05-02T09:01:32.356Z</time></trkpt><trkpt lat="40.082085" lon="8.6244883"><ele>271.6</ele><time>2026-05-02T09:01:33.356Z</time></trkpt><trkpt lat="40.0821283" lon="8.6246283"><ele>271.2</ele><time>2026-05-02T09:01:34.356Z</time></trkpt><trkpt lat="40.08217" lon="8.6247583"><ele>270.8</ele><time>2026-05-02T09:01:35.356Z</time></trkpt><trkpt lat="40.0822167" lon="8.6248633"><ele>270.4</ele><time>2026-05-02T09:01:36.356Z</time></trkpt><trkpt lat="40.0822367" lon="8.6249717"><ele>270.0</ele><time>2026-05-02T09:01:37.356Z</time></trkpt><trkpt lat="40.0822467" lon="8.625105"><ele>270.0</ele><time>2026-05-02T09:01:38.356Z</time></trkpt><trkpt lat="40.0822633" lon="8.62525"><ele>270.0</ele><time>2026-05-02T09:01:39.356Z</time></trkpt><trkpt lat="40.0822833" lon="8.62538"><ele>270.0</ele><time>2026-05-02T09:01:40.356Z</time></trkpt><trkpt lat="40.0823267" lon="8.6255083"><ele>270.0</ele><time>2026-05-02T09:01:41.356Z</time></trkpt><trkpt lat="40.0823733" lon="8.625615"><ele>270.0</ele><time>2026-05-02T09:01:42.356Z</time></trkpt><trkpt lat="40.08244" lon="8.625705"><ele>269.25</ele><time>2026-05-02T09:01:43.356Z</time></trkpt><trkpt lat="40.082525" lon="8.625785"><ele>268.5</ele><time>2026-05-02T09:01:44.356Z</time></trkpt><trkpt lat="40.0826217" lon="8.625875"><ele>267.75</ele><time>2026-05-02T09:01:45.356Z</time></trkpt><trkpt lat="40.082715" lon="8.6259783"><ele>267.0</ele><time>2026-05-02T09:01:46.356Z</time></trkpt><trkpt lat="40.082795" lon="8.62609"><ele>266.25</ele><time>2026-05-02T09:01:47.356Z</time></trkpt><trkpt lat="40.0828483" lon="8.6261867"><ele>265.5</ele><time>2026-05-02T09:01:48.356Z</time></trkpt><trkpt lat="40.0829" lon="8.6263217"><ele>264.75</ele><time>2026-05-02T09:01:49.356Z</time></trkpt><trkpt lat="40.082935" lon="8.6264717"><ele>264.0</ele><time>2026-05-02T09:01:50.356Z</time></trkpt><trkpt lat="40.08297" lon="8.6266433"><ele>264.0</ele><time>2026-05-02T09:01:51.356Z</time></trkpt><trkpt lat="40.0830033" lon="8.6268283"><ele>264.0</ele><time>2026-05-02T09:01:52.356Z</time></trkpt><trkpt lat="40.0830433" lon="8.6270183"><ele>264.0</ele><time>2026-05-02T09:01:53.356Z</time></trkpt><trkpt lat="40.0830917" lon="8.62719"><ele>264.0</ele><time>2026-05-02T09:01:54.356Z</time></trkpt><trkpt lat="40.0831367" lon="8.6273633"><ele>263.0</ele><time>2026-05-02T09:01:55.356Z</time></trkpt><trkpt lat="40.0831783" lon="8.62752"><ele>262.0</ele><time>2026-05-02T09:01:56.356Z</time></trkpt><trkpt lat="40.0832167" lon="8.6276767"><ele>261.0</ele><time>2026-05-02T09:01:57.356Z</time></trkpt><trkpt lat="40.08325" lon="8.627835"><ele>260.0</ele><time>2026-05-02T09:01:58.356Z</time></trkpt><trkpt lat="40.0832933" lon="8.6279817"><ele>260.0</ele><time>2026-05-02T09:01:59.356Z</time></trkpt><trkpt lat="40.0833267" lon="8.6281283"><ele>260.0</ele><time>2026-05-02T09:02:00.356Z</time></trkpt><trkpt lat="40.0833883" lon="8.6282483"><ele>260.0</ele><time>2026-05-02T09:02:01.356Z</time></trkpt><trkpt lat="40.0834567" lon="8.628365"><ele>260.0</ele><time>2026-05-02T09:02:02.356Z</time></trkpt><trkpt lat="40.083515" lon="8.6284717"><ele>260.0</ele><time>2026-05-02T09:02:03.356Z</time></trkpt><trkpt lat="40.083585" lon="8.6285867"><ele>259.8</ele><time>2026-05-02T09:02:04.356Z</time></trkpt><trkpt lat="40.08366" lon="8.6287083"><ele>259.6</ele><time>2026-05-02T09:02:05.356Z</time></trkpt><trkpt lat="40.083735" lon="8.628845"><ele>259.4</ele><time>2026-05-02T09:02:06.356Z</time></trkpt><trkpt lat="40.0837867" lon="8.6289683"><ele>259.2</ele><time>2026-05-02T09:02:07.356Z</time></trkpt><trkpt lat="40.0838283" lon="8.62907"><ele>259.0</ele><time>2026-05-02T09:02:08.356Z</time></trkpt><trkpt lat="40.08389" lon="8.629155"><ele>259.0</ele><time>2026-05-02T09:02:09.356Z</time></trkpt><trkpt lat="40.0839817" lon="8.6292533"><ele>259.0</ele><time>2026-05-02T09:02:10.356Z</time></trkpt><trkpt lat="40.0840917" lon="8.6293667"><ele>259.0</ele><time>2026-05-02T09:02:11.356Z</time></trkpt><trkpt lat="40.0841983" lon="8.6294717"><ele>259.0</ele><time>2026-05-02T09:02:12.356Z</time></trkpt><trkpt lat="40.0843" lon="8.6295833"><ele>260.75</ele><time>2026-05-02T09:02:13.356Z</time></trkpt><trkpt lat="40.0844083" lon="8.6296833"><ele>262.5</ele><time>2026-05-02T09:02:14.356Z</time></trkpt><trkpt lat="40.0845067" lon="8.62978"><ele>264.25</ele><time>2026-05-02T09:02:15.356Z</time></trkpt><trkpt lat="40.0846117" lon="8.6298633"><ele>266.0</ele><time>2026-05-02T09:02:16.356Z</time></trkpt><trkpt lat="40.084705" lon="8.6299483"><ele>266.0</ele><time>2026-05-02T09:02:17.356Z</time></trkpt><trkpt lat="40.0847933" lon="8.6300217"><ele>266.0</ele><time>2026-05-02T09:02:18.355Z</time></trkpt><trkpt lat="40.0848917" lon="8.6300867"><ele>266.0</ele><time>2026-05-02T09:02:19.355Z</time></trkpt><trkpt lat="40.084995" lon="8.63017"><ele>266.0</ele><time>2026-05-02T09:02:20.355Z</time></trkpt><trkpt lat="40.0850933" lon="8.630265"><ele>265.6</ele><time>2026-05-02T09:02:21.355Z</time></trkpt><trkpt lat="40.0851833" lon="8.6303483"><ele>265.20000000000005</ele><time>2026-05-02T09:02:22.355Z</time></trkpt><trkpt lat="40.0852733" lon="8.6304183"><ele>264.79999999999995</ele><time>2026-05-02T09:02:23.355Z</time></trkpt><trkpt lat="40.0853517" lon="8.6304967"><ele>264.4</ele><time>2026-05-02T09:02:24.355Z</time></trkpt><trkpt lat="40.0854283" lon="8.6305783"><ele>264.0</ele><time>2026-05-02T09:02:25.355Z</time></trkpt><trkpt lat="40.085515" lon="8.63064"><ele>264.0</ele><time>2026-05-02T09:02:26.355Z</time></trkpt><trkpt lat="40.0856167" lon="8.6307"><ele>264.0</ele><time>2026-05-02T09:02:27.355Z</time></trkpt><trkpt lat="40.085725" lon="8.6307517"><ele>264.0</ele><time>2026-05-02T09:02:28.355Z</time></trkpt><trkpt lat="40.085835" lon="8.6308067"><ele>264.0</ele><time>2026-05-02T09:02:29.355Z</time></trkpt><trkpt lat="40.0859283" lon="8.63084"><ele>264.0</ele><time>2026-05-02T09:02:30.355Z</time></trkpt><trkpt lat="40.086015" lon="8.6308567"><ele>264.1666666666667</ele><time>2026-05-02T09:02:31.355Z</time></trkpt><trkpt lat="40.0860983" lon="8.630885"><ele>264.3333333333333</ele><time>2026-05-02T09:02:32.355Z</time></trkpt><trkpt lat="40.0861783" lon="8.6309367"><ele>264.5</ele><time>2026-05-02T09:02:33.355Z</time></trkpt><trkpt lat="40.0862467" lon="8.6310167"><ele>264.66666666666663</ele><time>2026-05-02T09:02:34.355Z</time></trkpt><trkpt lat="40.0863067" lon="8.6311133"><ele>264.8333333333333</ele><time>2026-05-02T09:02:35.355Z</time></trkpt><trkpt lat="40.08635" lon="8.6312033"><ele>265.0</ele><time>2026-05-02T09:02:36.355Z</time></trkpt><trkpt lat="40.08638" lon="8.6312933"><ele>264.4</ele><time>2026-05-02T09:02:37.355Z</time></trkpt><trkpt lat="40.0863817" lon="8.6314067"><ele>263.8</ele><time>2026-05-02T09:02:38.355Z</time></trkpt><trkpt lat="40.0863783" lon="8.631535"><ele>263.2</ele><time>2026-05-02T09:02:39.355Z</time></trkpt><trkpt lat="40.08638" lon="8.6316983"><ele>262.6</ele><time>2026-05-02T09:02:40.355Z</time></trkpt><trkpt lat="40.0863933" lon="8.631855"><ele>262.0</ele><time>2026-05-02T09:02:41.355Z</time></trkpt><trkpt lat="40.0863967" lon="8.6320167"><ele>261.0</ele><time>2026-05-02T09:02:42.355Z</time></trkpt><trkpt lat="40.0863917" lon="8.6321567"><ele>260.0</ele><time>2026-05-02T09:02:43.355Z</time></trkpt><trkpt lat="40.0863883" lon="8.6322667"><ele>259.0</ele><time>2026-05-02T09:02:44.355Z</time></trkpt><trkpt lat="40.0863617" lon="8.6324017"><ele>258.0</ele><time>2026-05-02T09:02:46.355Z</time></trkpt><trkpt lat="40.0862683" lon="8.6324917"><ele>257.0</ele><time>2026-05-02T09:02:48.355Z</time></trkpt><trkpt lat="40.086165" lon="8.6325117"><ele>257.0</ele><time>2026-05-02T09:02:49.355Z</time></trkpt><trkpt lat="40.0860483" lon="8.6325267"><ele>257.0</ele><time>2026-05-02T09:02:50.355Z</time></trkpt><trkpt lat="40.0859467" lon="8.63254"><ele>257.0</ele><time>2026-05-02T09:02:51.355Z</time></trkpt><trkpt lat="40.0858633" lon="8.6325433"><ele>257.0</ele><time>2026-05-02T09:02:52.355Z</time></trkpt><trkpt lat="40.08577" lon="8.6325617"><ele>257.0</ele><time>2026-05-02T09:02:53.355Z</time></trkpt><trkpt lat="40.0856867" lon="8.6325817"><ele>257.0</ele><time>2026-05-02T09:02:54.355Z</time></trkpt><trkpt lat="40.0856167" lon="8.6325917"><ele>257.0</ele><time>2026-05-02T09:02:55.355Z</time></trkpt><trkpt lat="40.0855317" lon="8.632635"><ele>257.0</ele><time>2026-05-02T09:02:57.355Z</time></trkpt><trkpt lat="40.08551" lon="8.6327417"><ele>257.0</ele><time>2026-05-02T09:02:59.355Z</time></trkpt><trkpt lat="40.0855633" lon="8.6328683"><ele>257.0</ele><time>2026-05-02T09:03:01.355Z</time></trkpt><trkpt lat="40.0856367" lon="8.63295"><ele>256.0</ele><time>2026-05-02T09:03:02.355Z</time></trkpt><trkpt lat="40.0857333" lon="8.6330417"><ele>255.0</ele><time>2026-05-02T09:03:03.355Z</time></trkpt><trkpt lat="40.0858417" lon="8.633155"><ele>254.0</ele><time>2026-05-02T09:03:04.355Z</time></trkpt><trkpt lat="40.085945" lon="8.63329"><ele>253.0</ele><time>2026-05-02T09:03:05.355Z</time></trkpt><trkpt lat="40.0860283" lon="8.63343"><ele>252.75</ele><time>2026-05-02T09:03:06.355Z</time></trkpt><trkpt lat="40.0861067" lon="8.633575"><ele>252.5</ele><time>2026-05-02T09:03:07.355Z</time></trkpt><trkpt lat="40.086195" lon="8.6337283"><ele>252.25</ele><time>2026-05-02T09:03:08.355Z</time></trkpt><trkpt lat="40.0862767" lon="8.6338733"><ele>252.0</ele><time>2026-05-02T09:03:09.355Z</time></trkpt><trkpt lat="40.0863633" lon="8.6339967"><ele>251.6</ele><time>2026-05-02T09:03:10.355Z</time></trkpt><trkpt lat="40.0864517" lon="8.6341033"><ele>251.2</ele><time>2026-05-02T09:03:11.355Z</time></trkpt><trkpt lat="40.0865333" lon="8.6342183"><ele>250.8</ele><time>2026-05-02T09:03:12.355Z</time></trkpt><trkpt lat="40.0865883" lon="8.63432"><ele>250.4</ele><time>2026-05-02T09:03:13.355Z</time></trkpt><trkpt lat="40.0866167" lon="8.6344217"><ele>250.0</ele><time>2026-05-02T09:03:14.355Z</time></trkpt><trkpt lat="40.0866117" lon="8.63453"><ele>250.0</ele><time>2026-05-02T09:03:15.355Z</time></trkpt><trkpt lat="40.086605" lon="8.6346583"><ele>250.0</ele><time>2026-05-02T09:03:16.355Z</time></trkpt><trkpt lat="40.0865883" lon="8.634795"><ele>250.0</ele><time>2026-05-02T09:03:17.355Z</time></trkpt><trkpt lat="40.0865533" lon="8.6349383"><ele>250.0</ele><time>2026-05-02T09:03:18.355Z</time></trkpt><trkpt lat="40.0865183" lon="8.63509"><ele>250.0</ele><time>2026-05-02T09:03:19.355Z</time></trkpt><trkpt lat="40.0864867" lon="8.6352283"><ele>248.0</ele><time>2026-05-02T09:03:20.355Z</time></trkpt><trkpt lat="40.0864633" lon="8.6353883"><ele>246.0</ele><time>2026-05-02T09:03:21.355Z</time></trkpt><trkpt lat="40.08645" lon="8.6355667"><ele>244.0</ele><time>2026-05-02T09:03:22.355Z</time></trkpt><trkpt lat="40.086435" lon="8.6357467"><ele>242.0</ele><time>2026-05-02T09:03:23.355Z</time></trkpt><trkpt lat="40.0864033" lon="8.63592"><ele>242.0</ele><time>2026-05-02T09:03:24.355Z</time></trkpt><trkpt lat="40.086385" lon="8.6360783"><ele>242.0</ele><time>2026-05-02T09:03:25.355Z</time></trkpt><trkpt lat="40.086355" lon="8.6362433"><ele>242.0</ele><time>2026-05-02T09:03:26.355Z</time></trkpt><trkpt lat="40.0863333" lon="8.6363817"><ele>242.0</ele><time>2026-05-02T09:03:27.355Z</time></trkpt><trkpt lat="40.0863217" lon="8.6365317"><ele>242.0</ele><time>2026-05-02T09:03:28.355Z</time></trkpt><trkpt lat="40.086315" lon="8.6366767"><ele>242.0</ele><time>2026-05-02T09:03:29.355Z</time></trkpt><trkpt lat="40.08632" lon="8.6368133"><ele>242.0</ele><time>2026-05-02T09:03:30.355Z</time></trkpt><trkpt lat="40.0863367" lon="8.6369583"><ele>242.0</ele><time>2026-05-02T09:03:31.355Z</time></trkpt><trkpt lat="40.086335" lon="8.6370933"><ele>242.0</ele><time>2026-05-02T09:03:32.355Z</time></trkpt><trkpt lat="40.0863317" lon="8.6372133"><ele>242.39999999999998</ele><time>2026-05-02T09:03:33.355Z</time></trkpt><trkpt lat="40.0863133" lon="8.6373467"><ele>242.79999999999998</ele><time>2026-05-02T09:03:34.355Z</time></trkpt><trkpt lat="40.0862933" lon="8.6374933"><ele>243.2</ele><time>2026-05-02T09:03:35.355Z</time></trkpt><trkpt lat="40.086255" lon="8.6376283"><ele>243.6</ele><time>2026-05-02T09:03:36.355Z</time></trkpt><trkpt lat="40.086205" lon="8.6377417"><ele>244.0</ele><time>2026-05-02T09:03:37.355Z</time></trkpt><trkpt lat="40.0861483" lon="8.6378333"><ele>244.33333333333331</ele><time>2026-05-02T09:03:38.355Z</time></trkpt><trkpt lat="40.0860783" lon="8.6379117"><ele>244.66666666666666</ele><time>2026-05-02T09:03:39.355Z</time></trkpt><trkpt lat="40.08599" lon="8.6379933"><ele>245.0</ele><time>2026-05-02T09:03:40.355Z</time></trkpt><trkpt lat="40.08592" lon="8.638065"><ele>245.33333333333331</ele><time>2026-05-02T09:03:41.355Z</time></trkpt><trkpt lat="40.0858683" lon="8.6381433"><ele>245.66666666666666</ele><time>2026-05-02T09:03:42.355Z</time></trkpt><trkpt lat="40.0858383" lon="8.6382217"><ele>246.0</ele><time>2026-05-02T09:03:43.355Z</time></trkpt><trkpt lat="40.0858467" lon="8.63838"><ele>246.0</ele><time>2026-05-02T09:03:45.355Z</time></trkpt><trkpt lat="40.0858517" lon="8.63847"><ele>246.0</ele><time>2026-05-02T09:03:46.355Z</time></trkpt><trkpt lat="40.08585" lon="8.6385583"><ele>246.0</ele><time>2026-05-02T09:03:47.355Z</time></trkpt><trkpt lat="40.085855" lon="8.6386717"><ele>246.0</ele><time>2026-05-02T09:03:48.355Z</time></trkpt><trkpt lat="40.0858517" lon="8.6387783"><ele>246.0</ele><time>2026-05-02T09:03:49.355Z</time></trkpt><trkpt lat="40.0858533" lon="8.63887"><ele>246.0</ele><time>2026-05-02T09:03:50.355Z</time></trkpt><trkpt lat="40.0858567" lon="8.6390133"><ele>245.8</ele><time>2026-05-02T09:03:52.355Z</time></trkpt><trkpt lat="40.0858433" lon="8.639175"><ele>245.60000000000002</ele><time>2026-05-02T09:03:54.355Z</time></trkpt><trkpt lat="40.085825" lon="8.639265"><ele>245.4</ele><time>2026-05-02T09:03:55.355Z</time></trkpt><trkpt lat="40.0857517" lon="8.6393967"><ele>245.2</ele><time>2026-05-02T09:03:57.355Z</time></trkpt><trkpt lat="40.0856933" lon="8.6394683"><ele>245.0</ele><time>2026-05-02T09:03:58.355Z</time></trkpt><trkpt lat="40.0856483" lon="8.6395483"><ele>244.2</ele><time>2026-05-02T09:03:59.355Z</time></trkpt><trkpt lat="40.08561" lon="8.639655"><ele>243.4</ele><time>2026-05-02T09:04:01.355Z</time></trkpt><trkpt lat="40.0856083" lon="8.6397517"><ele>242.60000000000002</ele><time>2026-05-02T09:04:03.355Z</time></trkpt><trkpt lat="40.0855667" lon="8.6398817"><ele>241.8</ele><time>2026-05-02T09:04:05.355Z</time></trkpt><trkpt lat="40.085525" lon="8.6400417"><ele>241.0</ele><time>2026-05-02T09:04:07.355Z</time></trkpt><trkpt lat="40.0855067" lon="8.6401283"><ele>241.0</ele><time>2026-05-02T09:04:08.355Z</time></trkpt><trkpt lat="40.0854883" lon="8.6402283"><ele>241.00000000000003</ele><time>2026-05-02T09:04:09.355Z</time></trkpt><trkpt lat="40.0854633" lon="8.64035"><ele>241.00000000000003</ele><time>2026-05-02T09:04:10.355Z</time></trkpt><trkpt lat="40.08543" lon="8.6404683"><ele>241.0</ele><time>2026-05-02T09:04:11.355Z</time></trkpt><trkpt lat="40.0853883" lon="8.6405967"><ele>241.0</ele><time>2026-05-02T09:04:12.355Z</time></trkpt><trkpt lat="40.0853383" lon="8.640715"><ele>240.8</ele><time>2026-05-02T09:04:13.355Z</time></trkpt><trkpt lat="40.0852917" lon="8.6408233"><ele>240.60000000000002</ele><time>2026-05-02T09:04:14.355Z</time></trkpt><trkpt lat="40.0852517" lon="8.64095"><ele>240.4</ele><time>2026-05-02T09:04:15.355Z</time></trkpt><trkpt lat="40.0852333" lon="8.6410883"><ele>240.2</ele><time>2026-05-02T09:04:16.355Z</time></trkpt><trkpt lat="40.0852267" lon="8.6412383"><ele>240.0</ele><time>2026-05-02T09:04:17.355Z</time></trkpt><trkpt lat="40.0852267" lon="8.6413833"><ele>239.8</ele><time>2026-05-02T09:04:18.355Z</time></trkpt><trkpt lat="40.0852267" lon="8.6415183"><ele>239.6</ele><time>2026-05-02T09:04:19.355Z</time></trkpt><trkpt lat="40.0852183" lon="8.6416417"><ele>239.39999999999998</ele><time>2026-05-02T09:04:20.355Z</time></trkpt><trkpt lat="40.085205" lon="8.6417583"><ele>239.2</ele><time>2026-05-02T09:04:21.355Z</time></trkpt><trkpt lat="40.0852033" lon="8.6418533"><ele>239.0</ele><time>2026-05-02T09:04:22.355Z</time></trkpt><trkpt lat="40.0852533" lon="8.64199"><ele>239.6</ele><time>2026-05-02T09:04:24.355Z</time></trkpt><trkpt lat="40.0853083" lon="8.6420417"><ele>240.2</ele><time>2026-05-02T09:04:25.355Z</time></trkpt><trkpt lat="40.0853617" lon="8.6421117"><ele>240.79999999999998</ele><time>2026-05-02T09:04:26.355Z</time></trkpt><trkpt lat="40.0854233" lon="8.64222"><ele>241.39999999999998</ele><time>2026-05-02T09:04:27.355Z</time></trkpt><trkpt lat="40.085475" lon="8.6423367"><ele>242.0</ele><time>2026-05-02T09:04:28.355Z</time></trkpt><trkpt lat="40.08554" lon="8.6424783"><ele>242.0</ele><time>2026-05-02T09:04:29.355Z</time></trkpt><trkpt lat="40.0856117" lon="8.6426167"><ele>242.0</ele><time>2026-05-02T09:04:30.355Z</time></trkpt><trkpt lat="40.085695" lon="8.6427433"><ele>242.0</ele><time>2026-05-02T09:04:31.355Z</time></trkpt><trkpt lat="40.0857933" lon="8.6428533"><ele>242.0</ele><time>2026-05-02T09:04:32.355Z</time></trkpt><trkpt lat="40.0858967" lon="8.642945"><ele>242.5</ele><time>2026-05-02T09:04:33.355Z</time></trkpt><trkpt lat="40.086005" lon="8.6430233"><ele>243.0</ele><time>2026-05-02T09:04:34.355Z</time></trkpt><trkpt lat="40.0861083" lon="8.6431183"><ele>243.5</ele><time>2026-05-02T09:04:35.355Z</time></trkpt><trkpt lat="40.0862117" lon="8.643235"><ele>244.0</ele><time>2026-05-02T09:04:36.355Z</time></trkpt><trkpt lat="40.0863083" lon="8.6433667"><ele>244.0</ele><time>2026-05-02T09:04:37.355Z</time></trkpt><trkpt lat="40.0864" lon="8.6435067"><ele>244.0</ele><time>2026-05-02T09:04:38.355Z</time></trkpt><trkpt lat="40.0864867" lon="8.6436517"><ele>244.0</ele><time>2026-05-02T09:04:39.355Z</time></trkpt><trkpt lat="40.08655" lon="8.6437767"><ele>244.0</ele><time>2026-05-02T09:04:40.355Z</time></trkpt><trkpt lat="40.0866233" lon="8.6438967"><ele>244.2</ele><time>2026-05-02T09:04:41.355Z</time></trkpt><trkpt lat="40.0867" lon="8.6440267"><ele>244.39999999999998</ele><time>2026-05-02T09:04:42.355Z</time></trkpt><trkpt lat="40.086775" lon="8.6441367"><ele>244.6</ele><time>2026-05-02T09:04:43.355Z</time></trkpt><trkpt lat="40.0868433" lon="8.644215"><ele>244.8</ele><time>2026-05-02T09:04:44.355Z</time></trkpt><trkpt lat="40.0869167" lon="8.6442817"><ele>245.0</ele><time>2026-05-02T09:04:45.355Z</time></trkpt><trkpt lat="40.0870033" lon="8.64432"><ele>245.0</ele><time>2026-05-02T09:04:46.355Z</time></trkpt><trkpt lat="40.0871" lon="8.64434"><ele>245.0</ele><time>2026-05-02T09:04:47.355Z</time></trkpt><trkpt lat="40.0871983" lon="8.6443683"><ele>245.0</ele><time>2026-05-02T09:04:48.355Z</time></trkpt><trkpt lat="40.087285" lon="8.644435"><ele>245.0</ele><time>2026-05-02T09:04:49.355Z</time></trkpt><trkpt lat="40.08737" lon="8.6445183"><ele>245.0</ele><time>2026-05-02T09:04:50.355Z</time></trkpt><trkpt lat="40.0874467" lon="8.64462"><ele>244.8</ele><time>2026-05-02T09:04:51.355Z</time></trkpt><trkpt lat="40.0875017" lon="8.6447167"><ele>244.6</ele><time>2026-05-02T09:04:52.355Z</time></trkpt><trkpt lat="40.087545" lon="8.64482"><ele>244.39999999999998</ele><time>2026-05-02T09:04:53.355Z</time></trkpt><trkpt lat="40.0875883" lon="8.64494"><ele>244.2</ele><time>2026-05-02T09:04:54.355Z</time></trkpt><trkpt lat="40.0876383" lon="8.6450517"><ele>244.0</ele><time>2026-05-02T09:04:55.355Z</time></trkpt><trkpt lat="40.0876917" lon="8.645155"><ele>244.0</ele><time>2026-05-02T09:04:56.355Z</time></trkpt><trkpt lat="40.08776" lon="8.6452617"><ele>243.99999999999997</ele><time>2026-05-02T09:04:57.355Z</time></trkpt><trkpt lat="40.08785" lon="8.6453483"><ele>243.99999999999997</ele><time>2026-05-02T09:04:58.355Z</time></trkpt><trkpt lat="40.0879517" lon="8.6454283"><ele>244.0</ele><time>2026-05-02T09:04:59.355Z</time></trkpt><trkpt lat="40.08803" lon="8.645505"><ele>244.0</ele><time>2026-05-02T09:05:00.355Z</time></trkpt><trkpt lat="40.0880817" lon="8.6456133"><ele>244.2</ele><time>2026-05-02T09:05:01.355Z</time></trkpt><trkpt lat="40.0881083" lon="8.6457367"><ele>244.39999999999998</ele><time>2026-05-02T09:05:02.355Z</time></trkpt><trkpt lat="40.0881167" lon="8.6458633"><ele>244.6</ele><time>2026-05-02T09:05:03.355Z</time></trkpt><trkpt lat="40.088105" lon="8.6459933"><ele>244.8</ele><time>2026-05-02T09:05:04.355Z</time></trkpt><trkpt lat="40.0880867" lon="8.6460967"><ele>245.0</ele><time>2026-05-02T09:05:05.355Z</time></trkpt><trkpt lat="40.0880583" lon="8.6462383"><ele>245.0</ele><time>2026-05-02T09:05:06.355Z</time></trkpt><trkpt lat="40.0880433" lon="8.64638"><ele>245.0</ele><time>2026-05-02T09:05:07.355Z</time></trkpt><trkpt lat="40.0880283" lon="8.64653"><ele>245.0</ele><time>2026-05-02T09:05:08.354Z</time></trkpt><trkpt lat="40.088015" lon="8.6467067"><ele>245.0</ele><time>2026-05-02T09:05:09.355Z</time></trkpt><trkpt lat="40.0880017" lon="8.6468617"><ele>247.2</ele><time>2026-05-02T09:05:10.355Z</time></trkpt><trkpt lat="40.0880167" lon="8.6470167"><ele>249.4</ele><time>2026-05-02T09:05:11.355Z</time></trkpt><trkpt lat="40.088045" lon="8.6471533"><ele>251.60000000000002</ele><time>2026-05-02T09:05:12.355Z</time></trkpt><trkpt lat="40.08808" lon="8.6472717"><ele>253.8</ele><time>2026-05-02T09:05:13.355Z</time></trkpt><trkpt lat="40.088105" lon="8.6473767"><ele>256.0</ele><time>2026-05-02T09:05:14.355Z</time></trkpt><trkpt lat="40.0881083" lon="8.647485"><ele>256.0</ele><time>2026-05-02T09:05:15.355Z</time></trkpt><trkpt lat="40.0880933" lon="8.6476067"><ele>256.0</ele><time>2026-05-02T09:05:16.355Z</time></trkpt><trkpt lat="40.08805" lon="8.647765"><ele>256.0</ele><time>2026-05-02T09:05:17.355Z</time></trkpt><trkpt lat="40.0879983" lon="8.647925"><ele>256.0</ele><time>2026-05-02T09:05:18.355Z</time></trkpt><trkpt lat="40.0879567" lon="8.6480867"><ele>256.0</ele><time>2026-05-02T09:05:19.355Z</time></trkpt><trkpt lat="40.0879333" lon="8.6482533"><ele>256.0</ele><time>2026-05-02T09:05:20.355Z</time></trkpt><trkpt lat="40.0879367" lon="8.648405"><ele>256.0</ele><time>2026-05-02T09:05:21.355Z</time></trkpt><trkpt lat="40.0879583" lon="8.64855"><ele>256.0</ele><time>2026-05-02T09:05:22.355Z</time></trkpt><trkpt lat="40.0879833" lon="8.6486817"><ele>256.0</ele><time>2026-05-02T09:05:23.355Z</time></trkpt><trkpt lat="40.0880233" lon="8.6487983"><ele>256.0</ele><time>2026-05-02T09:05:24.355Z</time></trkpt><trkpt lat="40.0880817" lon="8.6488883"><ele>256.0</ele><time>2026-05-02T09:05:25.355Z</time></trkpt><trkpt lat="40.0881683" lon="8.64899"><ele>256.0</ele><time>2026-05-02T09:05:26.355Z</time></trkpt><trkpt lat="40.0882517" lon="8.6490933"><ele>256.0</ele><time>2026-05-02T09:05:27.355Z</time></trkpt><trkpt lat="40.0883117" lon="8.6491883"><ele>255.99999999999997</ele><time>2026-05-02T09:05:28.355Z</time></trkpt><trkpt lat="40.0883467" lon="8.6492883"><ele>256.0</ele><time>2026-05-02T09:05:29.355Z</time></trkpt><trkpt lat="40.0883733" lon="8.6493867"><ele>256.0</ele><time>2026-05-02T09:05:30.355Z</time></trkpt><trkpt lat="40.088395" lon="8.64948"><ele>256.0</ele><time>2026-05-02T09:05:31.355Z</time></trkpt><trkpt lat="40.08843" lon="8.6495683"><ele>255.99999999999997</ele><time>2026-05-02T09:05:32.355Z</time></trkpt><trkpt lat="40.0884783" lon="8.649655"><ele>256.0</ele><time>2026-05-02T09:05:33.355Z</time></trkpt><trkpt lat="40.08855" lon="8.64974"><ele>256.0</ele><time>2026-05-02T09:05:34.355Z</time></trkpt><trkpt lat="40.088635" lon="8.649825"><ele>256.0</ele><time>2026-05-02T09:05:35.355Z</time></trkpt><trkpt lat="40.0887117" lon="8.64992"><ele>256.0</ele><time>2026-05-02T09:05:36.355Z</time></trkpt><trkpt lat="40.088765" lon="8.6500233"><ele>256.0</ele><time>2026-05-02T09:05:37.355Z</time></trkpt><trkpt lat="40.088805" lon="8.650135"><ele>256.0</ele><time>2026-05-02T09:05:39.355Z</time></trkpt><trkpt lat="40.0888217" lon="8.650235"><ele>254.49999999999997</ele><time>2026-05-02T09:05:41.355Z</time></trkpt><trkpt lat="40.0888333" lon="8.6503167"><ele>253.0</ele><time>2026-05-02T09:05:43.355Z</time></trkpt><trkpt lat="40.08885" lon="8.65041"><ele>251.5</ele><time>2026-05-02T09:05:46.355Z</time></trkpt><trkpt lat="40.0888733" lon="8.6505033"><ele>250.0</ele><time>2026-05-02T09:05:49.355Z</time></trkpt><trkpt lat="40.08888" lon="8.6506083"><ele>248.49999999999997</ele><time>2026-05-02T09:05:53.355Z</time></trkpt><trkpt lat="40.088945" lon="8.6507683"><ele>247.0</ele><time>2026-05-02T09:06:08.355Z</time></trkpt><trkpt lat="40.0889883" lon="8.6509217"><ele>247.0</ele><time>2026-05-02T09:06:09.355Z</time></trkpt><trkpt lat="40.08904" lon="8.651085"><ele>247.0</ele><time>2026-05-02T09:06:10.355Z</time></trkpt><trkpt lat="40.0891033" lon="8.651265"><ele>247.0</ele><time>2026-05-02T09:06:11.355Z</time></trkpt><trkpt lat="40.0891667" lon="8.6514067"><ele>247.0</ele><time>2026-05-02T09:06:12.355Z</time></trkpt><trkpt lat="40.0892417" lon="8.651535"><ele>246.2</ele><time>2026-05-02T09:06:13.355Z</time></trkpt><trkpt lat="40.089315" lon="8.6516417"><ele>245.39999999999998</ele><time>2026-05-02T09:06:14.355Z</time></trkpt><trkpt lat="40.0894" lon="8.6517267"><ele>244.60000000000002</ele><time>2026-05-02T09:06:15.355Z</time></trkpt><trkpt lat="40.0894817" lon="8.651795"><ele>243.8</ele><time>2026-05-02T09:06:16.355Z</time></trkpt><trkpt lat="40.0895717" lon="8.65188"><ele>243.0</ele><time>2026-05-02T09:06:17.355Z</time></trkpt><trkpt lat="40.0896667" lon="8.6519533"><ele>241.5</ele><time>2026-05-02T09:06:18.355Z</time></trkpt><trkpt lat="40.0897733" lon="8.652025"><ele>240.0</ele><time>2026-05-02T09:06:19.355Z</time></trkpt><trkpt lat="40.0898767" lon="8.6520883"><ele>238.5</ele><time>2026-05-02T09:06:20.355Z</time></trkpt><trkpt lat="40.0899783" lon="8.652145"><ele>237.0</ele><time>2026-05-02T09:06:21.355Z</time></trkpt><trkpt lat="40.09008" lon="8.6522"><ele>237.0</ele><time>2026-05-02T09:06:22.355Z</time></trkpt><trkpt lat="40.090175" lon="8.6522533"><ele>237.0</ele><time>2026-05-02T09:06:23.355Z</time></trkpt><trkpt lat="40.09027" lon="8.6523183"><ele>237.0</ele><time>2026-05-02T09:06:24.355Z</time></trkpt><trkpt lat="40.09037" lon="8.652425"><ele>237.0</ele><time>2026-05-02T09:06:25.355Z</time></trkpt><trkpt lat="40.090475" lon="8.6525467"><ele>237.0</ele><time>2026-05-02T09:06:26.355Z</time></trkpt><trkpt lat="40.0905733" lon="8.6526633"><ele>237.0</ele><time>2026-05-02T09:06:27.355Z</time></trkpt><trkpt lat="40.090665" lon="8.652765"><ele>237.0</ele><time>2026-05-02T09:06:28.355Z</time></trkpt><trkpt lat="40.0907633" lon="8.6528667"><ele>237.0</ele><time>2026-05-02T09:06:29.355Z</time></trkpt><trkpt lat="40.0908667" lon="8.6529583"><ele>236.5</ele><time>2026-05-02T09:06:30.355Z</time></trkpt><trkpt lat="40.090965" lon="8.6530433"><ele>236.0</ele><time>2026-05-02T09:06:31.355Z</time></trkpt><trkpt lat="40.09107" lon="8.6531217"><ele>235.5</ele><time>2026-05-02T09:06:32.355Z</time></trkpt><trkpt lat="40.0911667" lon="8.6532167"><ele>235.0</ele><time>2026-05-02T09:06:33.355Z</time></trkpt><trkpt lat="40.091255" lon="8.6533233"><ele>235.0</ele><time>2026-05-02T09:06:34.355Z</time></trkpt><trkpt lat="40.091345" lon="8.6534183"><ele>235.0</ele><time>2026-05-02T09:06:35.355Z</time></trkpt><trkpt lat="40.091425" lon="8.653515"><ele>235.0</ele><time>2026-05-02T09:06:36.355Z</time></trkpt><trkpt lat="40.0915117" lon="8.6536283"><ele>235.0</ele><time>2026-05-02T09:06:37.355Z</time></trkpt><trkpt lat="40.091595" lon="8.6537083"><ele>235.6</ele><time>2026-05-02T09:06:38.355Z</time></trkpt><trkpt lat="40.0916733" lon="8.6537833"><ele>236.2</ele><time>2026-05-02T09:06:39.355Z</time></trkpt><trkpt lat="40.0917467" lon="8.6538617"><ele>236.8</ele><time>2026-05-02T09:06:40.355Z</time></trkpt><trkpt lat="40.0918183" lon="8.653925"><ele>237.4</ele><time>2026-05-02T09:06:41.355Z</time></trkpt><trkpt lat="40.0918967" lon="8.653995"><ele>238.0</ele><time>2026-05-02T09:06:42.355Z</time></trkpt><trkpt lat="40.0919817" lon="8.65407"><ele>238.0</ele><time>2026-05-02T09:06:43.355Z</time></trkpt><trkpt lat="40.0920517" lon="8.6541417"><ele>238.0</ele><time>2026-05-02T09:06:44.355Z</time></trkpt><trkpt lat="40.0921183" lon="8.65423"><ele>238.0</ele><time>2026-05-02T09:06:45.355Z</time></trkpt><trkpt lat="40.0921883" lon="8.6543167"><ele>238.0</ele><time>2026-05-02T09:06:46.355Z</time></trkpt><trkpt lat="40.0922567" lon="8.6544"><ele>238.0</ele><time>2026-05-02T09:06:47.355Z</time></trkpt><trkpt lat="40.0923233" lon="8.6544733"><ele>238.16666666666666</ele><time>2026-05-02T09:06:48.355Z</time></trkpt><trkpt lat="40.092395" lon="8.6545517"><ele>238.33333333333331</ele><time>2026-05-02T09:06:49.355Z</time></trkpt><trkpt lat="40.092455" lon="8.65465"><ele>238.5</ele><time>2026-05-02T09:06:50.355Z</time></trkpt><trkpt lat="40.0925117" lon="8.6547383"><ele>238.66666666666669</ele><time>2026-05-02T09:06:51.355Z</time></trkpt><trkpt lat="40.0925517" lon="8.654825"><ele>238.83333333333334</ele><time>2026-05-02T09:06:52.355Z</time></trkpt><trkpt lat="40.0925933" lon="8.6549067"><ele>239.0</ele><time>2026-05-02T09:06:53.355Z</time></trkpt><trkpt lat="40.0926383" lon="8.6549833"><ele>239.00000000000003</ele><time>2026-05-02T09:06:54.355Z</time></trkpt><trkpt lat="40.0926833" lon="8.6550567"><ele>239.0</ele><time>2026-05-02T09:06:55.355Z</time></trkpt><trkpt lat="40.0927267" lon="8.6551417"><ele>239.0</ele><time>2026-05-02T09:06:56.355Z</time></trkpt><trkpt lat="40.0927817" lon="8.6552233"><ele>239.0</ele><time>2026-05-02T09:06:57.355Z</time></trkpt><trkpt lat="40.0928367" lon="8.6553117"><ele>239.00000000000003</ele><time>2026-05-02T09:06:58.355Z</time></trkpt><trkpt lat="40.0928983" lon="8.655405"><ele>239.0</ele><time>2026-05-02T09:06:59.355Z</time></trkpt><trkpt lat="40.0929583" lon="8.655495"><ele>238.6</ele><time>2026-05-02T09:07:00.355Z</time></trkpt><trkpt lat="40.093015" lon="8.6555683"><ele>238.2</ele><time>2026-05-02T09:07:01.355Z</time></trkpt><trkpt lat="40.0930633" lon="8.6556383"><ele>237.79999999999998</ele><time>2026-05-02T09:07:02.355Z</time></trkpt><trkpt lat="40.0931367" lon="8.6557483"><ele>237.39999999999998</ele><time>2026-05-02T09:07:04.355Z</time></trkpt><trkpt lat="40.0931317" lon="8.655855"><ele>237.0</ele><time>2026-05-02T09:07:07.355Z</time></trkpt><trkpt lat="40.0929833" lon="8.6558633"><ele>237.0</ele><time>2026-05-02T09:07:09.355Z</time></trkpt><trkpt lat="40.0928617" lon="8.6558417"><ele>237.0</ele><time>2026-05-02T09:07:10.355Z</time></trkpt><trkpt lat="40.0927333" lon="8.6558367"><ele>237.0</ele><time>2026-05-02T09:07:11.355Z</time></trkpt><trkpt lat="40.09261" lon="8.6558167"><ele>237.0</ele><time>2026-05-02T09:07:12.355Z</time></trkpt><trkpt lat="40.0925017" lon="8.6558133"><ele>235.0</ele><time>2026-05-02T09:07:13.355Z</time></trkpt><trkpt lat="40.0923967" lon="8.6558133"><ele>233.0</ele><time>2026-05-02T09:07:14.355Z</time></trkpt><trkpt lat="40.0922883" lon="8.65579"><ele>231.0</ele><time>2026-05-02T09:07:15.355Z</time></trkpt><trkpt lat="40.0921617" lon="8.655785"><ele>229.0</ele><time>2026-05-02T09:07:16.355Z</time></trkpt><trkpt lat="40.0920217" lon="8.65577"><ele>229.0</ele><time>2026-05-02T09:07:17.355Z</time></trkpt><trkpt lat="40.0918667" lon="8.6557633"><ele>229.0</ele><time>2026-05-02T09:07:18.355Z</time></trkpt><trkpt lat="40.0917" lon="8.6557483"><ele>229.0</ele><time>2026-05-02T09:07:19.355Z</time></trkpt><trkpt lat="40.09154" lon="8.6557483"><ele>228.0</ele><time>2026-05-02T09:07:20.355Z</time></trkpt><trkpt lat="40.0913817" lon="8.6557433"><ele>227.0</ele><time>2026-05-02T09:07:21.355Z</time></trkpt><trkpt lat="40.0912417" lon="8.6557383"><ele>226.0</ele><time>2026-05-02T09:07:22.355Z</time></trkpt><trkpt lat="40.0911167" lon="8.6557417"><ele>225.0</ele><time>2026-05-02T09:07:23.355Z</time></trkpt><trkpt lat="40.0910167" lon="8.6557567"><ele>225.0</ele><time>2026-05-02T09:07:24.355Z</time></trkpt><trkpt lat="40.0909217" lon="8.6557667"><ele>225.0</ele><time>2026-05-02T09:07:25.355Z</time></trkpt><trkpt lat="40.09084" lon="8.655775"><ele>225.0</ele><time>2026-05-02T09:07:26.355Z</time></trkpt><trkpt lat="40.0907767" lon="8.6558183"><ele>225.0</ele><time>2026-05-02T09:07:27.355Z</time></trkpt><trkpt lat="40.0907383" lon="8.6559383"><ele>225.0</ele><time>2026-05-02T09:07:29.355Z</time></trkpt><trkpt lat="40.090845" lon="8.6561017"><ele>224.0</ele><time>2026-05-02T09:07:31.355Z</time></trkpt><trkpt lat="40.090945" lon="8.65624"><ele>223.0</ele><time>2026-05-02T09:07:32.355Z</time></trkpt><trkpt lat="40.0910667" lon="8.656405"><ele>222.0</ele><time>2026-05-02T09:07:33.355Z</time></trkpt><trkpt lat="40.0911817" lon="8.6565583"><ele>222.0</ele><time>2026-05-02T09:07:34.355Z</time></trkpt><trkpt lat="40.0912883" lon="8.6567167"><ele>222.0</ele><time>2026-05-02T09:07:35.355Z</time></trkpt><trkpt lat="40.09136" lon="8.65683"><ele>222.0</ele><time>2026-05-02T09:07:36.355Z</time></trkpt><trkpt lat="40.091415" lon="8.6569167"><ele>222.0</ele><time>2026-05-02T09:07:37.355Z</time></trkpt><trkpt lat="40.091455" lon="8.6570067"><ele>222.0</ele><time>2026-05-02T09:07:38.355Z</time></trkpt><trkpt lat="40.0915017" lon="8.6571083"><ele>222.0</ele><time>2026-05-02T09:07:39.355Z</time></trkpt><trkpt lat="40.091535" lon="8.6572067"><ele>222.0</ele><time>2026-05-02T09:07:40.355Z</time></trkpt><trkpt lat="40.0915467" lon="8.6573117"><ele>222.0</ele><time>2026-05-02T09:07:41.355Z</time></trkpt><trkpt lat="40.091535" lon="8.6574033"><ele>222.0</ele><time>2026-05-02T09:07:42.355Z</time></trkpt><trkpt lat="40.0915083" lon="8.6574867"><ele>222.0</ele><time>2026-05-02T09:07:43.355Z</time></trkpt><trkpt lat="40.0914833" lon="8.657565"><ele>222.0</ele><time>2026-05-02T09:07:44.355Z</time></trkpt><trkpt lat="40.091465" lon="8.6576967"><ele>222.5</ele><time>2026-05-02T09:07:46.355Z</time></trkpt><trkpt lat="40.0914883" lon="8.6577933"><ele>223.0</ele><time>2026-05-02T09:07:47.355Z</time></trkpt><trkpt lat="40.0915617" lon="8.6579083"><ele>223.5</ele><time>2026-05-02T09:07:48.355Z</time></trkpt><trkpt lat="40.091665" lon="8.6580233"><ele>224.0</ele><time>2026-05-02T09:07:49.355Z</time></trkpt><trkpt lat="40.0917867" lon="8.6581383"><ele>224.66666666666669</ele><time>2026-05-02T09:07:50.355Z</time></trkpt><trkpt lat="40.0919183" lon="8.658245"><ele>225.33333333333331</ele><time>2026-05-02T09:07:51.355Z</time></trkpt><trkpt lat="40.0920517" lon="8.65836"><ele>226.0</ele><time>2026-05-02T09:07:52.355Z</time></trkpt><trkpt lat="40.0921883" lon="8.6584917"><ele>226.0</ele><time>2026-05-02T09:07:53.355Z</time></trkpt><trkpt lat="40.0923367" lon="8.658615"><ele>226.0</ele><time>2026-05-02T09:07:54.355Z</time></trkpt><trkpt lat="40.0924833" lon="8.658745"><ele>226.0</ele><time>2026-05-02T09:07:55.355Z</time></trkpt><trkpt lat="40.09263" lon="8.6588717"><ele>226.66666666666666</ele><time>2026-05-02T09:07:56.355Z</time></trkpt><trkpt lat="40.09278" lon="8.6590083"><ele>227.33333333333331</ele><time>2026-05-02T09:07:57.355Z</time></trkpt><trkpt lat="40.0929367" lon="8.6591533"><ele>228.0</ele><time>2026-05-02T09:07:58.355Z</time></trkpt><trkpt lat="40.0930833" lon="8.65929"><ele>228.0</ele><time>2026-05-02T09:07:59.355Z</time></trkpt><trkpt lat="40.0932117" lon="8.6594317"><ele>228.0</ele><time>2026-05-02T09:08:00.355Z</time></trkpt><trkpt lat="40.093325" lon="8.659585"><ele>228.0</ele><time>2026-05-02T09:08:01.355Z</time></trkpt><trkpt lat="40.0934317" lon="8.6597567"><ele>228.0</ele><time>2026-05-02T09:08:02.355Z</time></trkpt><trkpt lat="40.09354" lon="8.6599367"><ele>228.0</ele><time>2026-05-02T09:08:03.355Z</time></trkpt><trkpt lat="40.093645" lon="8.6601133"><ele>228.0</ele><time>2026-05-02T09:08:04.355Z</time></trkpt><trkpt lat="40.0937517" lon="8.660295"><ele>227.66666666666669</ele><time>2026-05-02T09:08:05.355Z</time></trkpt><trkpt lat="40.0938517" lon="8.660475"><ele>227.33333333333334</ele><time>2026-05-02T09:08:06.355Z</time></trkpt><trkpt lat="40.0939583" lon="8.6606433"><ele>227.0</ele><time>2026-05-02T09:08:07.355Z</time></trkpt><trkpt lat="40.09407" lon="8.6608167"><ele>227.0</ele><time>2026-05-02T09:08:08.355Z</time></trkpt><trkpt lat="40.094185" lon="8.6609967"><ele>227.0</ele><time>2026-05-02T09:08:09.355Z</time></trkpt><trkpt lat="40.094305" lon="8.66117"><ele>227.0</ele><time>2026-05-02T09:08:10.355Z</time></trkpt><trkpt lat="40.0944233" lon="8.661345"><ele>226.33333333333334</ele><time>2026-05-02T09:08:11.355Z</time></trkpt><trkpt lat="40.0945617" lon="8.6615233"><ele>225.66666666666669</ele><time>2026-05-02T09:08:12.355Z</time></trkpt><trkpt lat="40.0946917" lon="8.661675"><ele>225.0</ele><time>2026-05-02T09:08:13.355Z</time></trkpt><trkpt lat="40.0948133" lon="8.6618133"><ele>225.0</ele><time>2026-05-02T09:08:14.355Z</time></trkpt><trkpt lat="40.0949083" lon="8.6619267"><ele>225.0</ele><time>2026-05-02T09:08:15.355Z</time></trkpt><trkpt lat="40.0949933" lon="8.66204"><ele>225.0</ele><time>2026-05-02T09:08:16.355Z</time></trkpt><trkpt lat="40.0950683" lon="8.6621433"><ele>225.0</ele><time>2026-05-02T09:08:17.355Z</time></trkpt><trkpt lat="40.0951367" lon="8.662225"><ele>225.6</ele><time>2026-05-02T09:08:18.355Z</time></trkpt><trkpt lat="40.0952033" lon="8.6623067"><ele>226.2</ele><time>2026-05-02T09:08:19.355Z</time></trkpt><trkpt lat="40.09527" lon="8.662405"><ele>226.8</ele><time>2026-05-02T09:08:20.355Z</time></trkpt><trkpt lat="40.0953267" lon="8.662525"><ele>227.4</ele><time>2026-05-02T09:08:21.355Z</time></trkpt><trkpt lat="40.0953683" lon="8.662645"><ele>228.0</ele><time>2026-05-02T09:08:22.355Z</time></trkpt><trkpt lat="40.09537" lon="8.6627733"><ele>228.25</ele><time>2026-05-02T09:08:23.355Z</time></trkpt><trkpt lat="40.095335" lon="8.6629183"><ele>228.5</ele><time>2026-05-02T09:08:24.355Z</time></trkpt><trkpt lat="40.09527" lon="8.6630583"><ele>228.75</ele><time>2026-05-02T09:08:25.355Z</time></trkpt><trkpt lat="40.0951767" lon="8.663205"><ele>229.0</ele><time>2026-05-02T09:08:26.355Z</time></trkpt><trkpt lat="40.0950867" lon="8.6633683"><ele>229.0</ele><time>2026-05-02T09:08:27.355Z</time></trkpt><trkpt lat="40.0949833" lon="8.6635483"><ele>229.0</ele><time>2026-05-02T09:08:28.355Z</time></trkpt><trkpt lat="40.094875" lon="8.6637483"><ele>229.0</ele><time>2026-05-02T09:08:29.355Z</time></trkpt><trkpt lat="40.094765" lon="8.663945"><ele>228.0</ele><time>2026-05-02T09:08:30.355Z</time></trkpt><trkpt lat="40.0946683" lon="8.6641433"><ele>227.0</ele><time>2026-05-02T09:08:31.355Z</time></trkpt><trkpt lat="40.0946017" lon="8.6643467"><ele>226.0</ele><time>2026-05-02T09:08:32.355Z</time></trkpt><trkpt lat="40.09455" lon="8.6645567"><ele>225.33333333333331</ele><time>2026-05-02T09:08:33.355Z</time></trkpt><trkpt lat="40.0945333" lon="8.6647833"><ele>224.66666666666669</ele><time>2026-05-02T09:08:34.355Z</time></trkpt><trkpt lat="40.094535" lon="8.6650117"><ele>224.0</ele><time>2026-05-02T09:08:35.355Z</time></trkpt><trkpt lat="40.094535" lon="8.6652433"><ele>222.66666666666669</ele><time>2026-05-02T09:08:36.355Z</time></trkpt><trkpt lat="40.0945417" lon="8.66548"><ele>221.33333333333331</ele><time>2026-05-02T09:08:37.355Z</time></trkpt><trkpt lat="40.0945433" lon="8.66573"><ele>220.0</ele><time>2026-05-02T09:08:38.355Z</time></trkpt><trkpt lat="40.094525" lon="8.6659917"><ele>218.33333333333331</ele><time>2026-05-02T09:08:39.355Z</time></trkpt><trkpt lat="40.0945017" lon="8.6662567"><ele>216.66666666666669</ele><time>2026-05-02T09:08:40.355Z</time></trkpt><trkpt lat="40.0944783" lon="8.6665133"><ele>215.0</ele><time>2026-05-02T09:08:41.355Z</time></trkpt><trkpt lat="40.0944483" lon="8.6667583"><ele>217.66666666666669</ele><time>2026-05-02T09:08:42.355Z</time></trkpt><trkpt lat="40.0944033" lon="8.6669817"><ele>220.33333333333331</ele><time>2026-05-02T09:08:43.355Z</time></trkpt><trkpt lat="40.094325" lon="8.6671833"><ele>223.0</ele><time>2026-05-02T09:08:44.355Z</time></trkpt><trkpt lat="40.0942483" lon="8.667355"><ele>223.0</ele><time>2026-05-02T09:08:45.355Z</time></trkpt><trkpt lat="40.094165" lon="8.66751"><ele>223.0</ele><time>2026-05-02T09:08:46.355Z</time></trkpt><trkpt lat="40.094085" lon="8.66765"><ele>223.0</ele><time>2026-05-02T09:08:47.355Z</time></trkpt><trkpt lat="40.094015" lon="8.6677783"><ele>223.0</ele><time>2026-05-02T09:08:48.355Z</time></trkpt><trkpt lat="40.09394" lon="8.667905"><ele>222.4</ele><time>2026-05-02T09:08:49.355Z</time></trkpt><trkpt lat="40.0938767" lon="8.6680167"><ele>221.8</ele><time>2026-05-02T09:08:50.355Z</time></trkpt><trkpt lat="40.0938333" lon="8.6681117"><ele>221.2</ele><time>2026-05-02T09:08:51.355Z</time></trkpt><trkpt lat="40.09381" lon="8.6681917"><ele>220.6</ele><time>2026-05-02T09:08:52.355Z</time></trkpt><trkpt lat="40.0938717" lon="8.6682733"><ele>220.0</ele><time>2026-05-02T09:08:54.355Z</time></trkpt><trkpt lat="40.09401" lon="8.6683267"><ele>221.5</ele><time>2026-05-02T09:08:56.355Z</time></trkpt><trkpt lat="40.0941083" lon="8.66836"><ele>223.0</ele><time>2026-05-02T09:08:57.355Z</time></trkpt><trkpt lat="40.0942217" lon="8.6684183"><ele>224.5</ele><time>2026-05-02T09:08:58.355Z</time></trkpt><trkpt lat="40.0943517" lon="8.6684767"><ele>226.0</ele><time>2026-05-02T09:08:59.355Z</time></trkpt><trkpt lat="40.0944867" lon="8.6685583"><ele>226.66666666666666</ele><time>2026-05-02T09:09:00.355Z</time></trkpt><trkpt lat="40.094635" lon="8.6686433"><ele>227.33333333333331</ele><time>2026-05-02T09:09:01.355Z</time></trkpt><trkpt lat="40.094785" lon="8.6687233"><ele>228.0</ele><time>2026-05-02T09:09:02.355Z</time></trkpt><trkpt lat="40.0949233" lon="8.66879"><ele>229.75</ele><time>2026-05-02T09:09:03.355Z</time></trkpt><trkpt lat="40.095045" lon="8.66885"><ele>231.5</ele><time>2026-05-02T09:09:04.355Z</time></trkpt><trkpt lat="40.0951733" lon="8.6688917"><ele>233.25</ele><time>2026-05-02T09:09:05.355Z</time></trkpt><trkpt lat="40.0953067" lon="8.6689067"><ele>235.0</ele><time>2026-05-02T09:09:06.355Z</time></trkpt><trkpt lat="40.095455" lon="8.6689033"><ele>235.0</ele><time>2026-05-02T09:09:07.355Z</time></trkpt><trkpt lat="40.09561" lon="8.6689133"><ele>235.0</ele><time>2026-05-02T09:09:08.355Z</time></trkpt><trkpt lat="40.0957767" lon="8.6689233"><ele>235.0</ele><time>2026-05-02T09:09:09.355Z</time></trkpt><trkpt lat="40.095945" lon="8.6689383"><ele>236.66666666666666</ele><time>2026-05-02T09:09:10.355Z</time></trkpt><trkpt lat="40.09611" lon="8.6689533"><ele>238.33333333333331</ele><time>2026-05-02T09:09:11.355Z</time></trkpt><trkpt lat="40.096285" lon="8.6689617"><ele>240.0</ele><time>2026-05-02T09:09:12.355Z</time></trkpt><trkpt lat="40.0964617" lon="8.6689567"><ele>241.33333333333331</ele><time>2026-05-02T09:09:13.355Z</time></trkpt><trkpt lat="40.0966433" lon="8.6689617"><ele>242.66666666666666</ele><time>2026-05-02T09:09:14.355Z</time></trkpt><trkpt lat="40.0968283" lon="8.6689717"><ele>244.0</ele><time>2026-05-02T09:09:15.355Z</time></trkpt><trkpt lat="40.0970233" lon="8.6689867"><ele>244.0</ele><time>2026-05-02T09:09:16.355Z</time></trkpt><trkpt lat="40.0972" lon="8.6689883"><ele>244.0</ele><time>2026-05-02T09:09:17.355Z</time></trkpt><trkpt lat="40.0973983" lon="8.66896"><ele>244.0</ele><time>2026-05-02T09:09:18.355Z</time></trkpt><trkpt lat="40.097595" lon="8.6689383"><ele>244.66666666666666</ele><time>2026-05-02T09:09:19.355Z</time></trkpt><trkpt lat="40.0977867" lon="8.6689167"><ele>245.33333333333331</ele><time>2026-05-02T09:09:20.355Z</time></trkpt><trkpt lat="40.09796" lon="8.6688867"><ele>246.0</ele><time>2026-05-02T09:09:21.355Z</time></trkpt><trkpt lat="40.098115" lon="8.6688633"><ele>246.0</ele><time>2026-05-02T09:09:22.355Z</time></trkpt><trkpt lat="40.0982467" lon="8.6688467"><ele>246.00000000000003</ele><time>2026-05-02T09:09:23.355Z</time></trkpt><trkpt lat="40.098355" lon="8.6688267"><ele>246.00000000000003</ele><time>2026-05-02T09:09:24.355Z</time></trkpt><trkpt lat="40.0984317" lon="8.6688217"><ele>246.0</ele><time>2026-05-02T09:09:25.355Z</time></trkpt><trkpt lat="40.0985" lon="8.6688017"><ele>246.0</ele><time>2026-05-02T09:09:26.355Z</time></trkpt><trkpt lat="40.0985583" lon="8.6687683"><ele>246.83333333333334</ele><time>2026-05-02T09:09:27.355Z</time></trkpt><trkpt lat="40.098615" lon="8.6687117"><ele>247.66666666666669</ele><time>2026-05-02T09:09:28.355Z</time></trkpt><trkpt lat="40.0986817" lon="8.6686583"><ele>248.5</ele><time>2026-05-02T09:09:29.355Z</time></trkpt><trkpt lat="40.0987583" lon="8.668605"><ele>249.33333333333334</ele><time>2026-05-02T09:09:30.355Z</time></trkpt><trkpt lat="40.098845" lon="8.6685633"><ele>250.16666666666669</ele><time>2026-05-02T09:09:31.355Z</time></trkpt><trkpt lat="40.09896" lon="8.6685367"><ele>251.0</ele><time>2026-05-02T09:09:32.355Z</time></trkpt><trkpt lat="40.09908" lon="8.66853"><ele>251.75</ele><time>2026-05-02T09:09:33.355Z</time></trkpt><trkpt lat="40.0992133" lon="8.6685267"><ele>252.5</ele><time>2026-05-02T09:09:34.355Z</time></trkpt><trkpt lat="40.0993467" lon="8.6685067"><ele>253.25</ele><time>2026-05-02T09:09:35.355Z</time></trkpt><trkpt lat="40.0994817" lon="8.6684617"><ele>254.0</ele><time>2026-05-02T09:09:36.355Z</time></trkpt><trkpt lat="40.0996183" lon="8.6684033"><ele>254.0</ele><time>2026-05-02T09:09:37.355Z</time></trkpt><trkpt lat="40.09975" lon="8.6683417"><ele>254.0</ele><time>2026-05-02T09:09:38.355Z</time></trkpt><trkpt lat="40.0998783" lon="8.66826"><ele>254.0</ele><time>2026-05-02T09:09:39.355Z</time></trkpt><trkpt lat="40.0999933" lon="8.6681683"><ele>254.0</ele><time>2026-05-02T09:09:40.353Z</time></trkpt><trkpt lat="40.1000983" lon="8.6680833"><ele>255.0</ele><time>2026-05-02T09:09:41.355Z</time></trkpt><trkpt lat="40.1002167" lon="8.6680183"><ele>256.0</ele><time>2026-05-02T09:09:42.355Z</time></trkpt><trkpt lat="40.1003417" lon="8.6679667"><ele>257.0</ele><time>2026-05-02T09:09:43.355Z</time></trkpt><trkpt lat="40.1004617" lon="8.6679067"><ele>258.0</ele><time>2026-05-02T09:09:44.355Z</time></trkpt><trkpt lat="40.10059" lon="8.66784"><ele>258.0</ele><time>2026-05-02T09:09:45.355Z</time></trkpt><trkpt lat="40.100715" lon="8.6677533"><ele>258.0</ele><time>2026-05-02T09:09:46.355Z</time></trkpt><trkpt lat="40.1008383" lon="8.6676767"><ele>258.0</ele><time>2026-05-02T09:09:47.355Z</time></trkpt><trkpt lat="40.1009683" lon="8.667595"><ele>258.0</ele><time>2026-05-02T09:09:48.355Z</time></trkpt><trkpt lat="40.1010767" lon="8.66753"><ele>258.0</ele><time>2026-05-02T09:09:49.355Z</time></trkpt><trkpt lat="40.1011767" lon="8.6674767"><ele>258.0</ele><time>2026-05-02T09:09:50.355Z</time></trkpt><trkpt lat="40.1012683" lon="8.667425"><ele>258.0</ele><time>2026-05-02T09:09:51.355Z</time></trkpt><trkpt lat="40.1013967" lon="8.667395"><ele>258.0</ele><time>2026-05-02T09:09:52.355Z</time></trkpt><trkpt lat="40.1015217" lon="8.6673767"><ele>259.5</ele><time>2026-05-02T09:09:53.355Z</time></trkpt><trkpt lat="40.10166" lon="8.66736"><ele>261.0</ele><time>2026-05-02T09:09:54.355Z</time></trkpt><trkpt lat="40.10181" lon="8.6673217"><ele>262.5</ele><time>2026-05-02T09:09:55.355Z</time></trkpt><trkpt lat="40.1019533" lon="8.6672933"><ele>264.0</ele><time>2026-05-02T09:09:56.355Z</time></trkpt><trkpt lat="40.102095" lon="8.6672633"><ele>264.0</ele><time>2026-05-02T09:09:57.355Z</time></trkpt><trkpt lat="40.1022283" lon="8.6672367"><ele>264.0</ele><time>2026-05-02T09:09:58.355Z</time></trkpt><trkpt lat="40.1023667" lon="8.6671983"><ele>264.0</ele><time>2026-05-02T09:09:59.355Z</time></trkpt><trkpt lat="40.1025067" lon="8.66716"><ele>264.0</ele><time>2026-05-02T09:10:00.355Z</time></trkpt><trkpt lat="40.10265" lon="8.6671333"><ele>265.0</ele><time>2026-05-02T09:10:01.355Z</time></trkpt><trkpt lat="40.1027933" lon="8.6671083"><ele>266.0</ele><time>2026-05-02T09:10:02.355Z</time></trkpt><trkpt lat="40.10294" lon="8.6670833"><ele>267.0</ele><time>2026-05-02T09:10:03.355Z</time></trkpt><trkpt lat="40.103095" lon="8.6670683"><ele>268.0</ele><time>2026-05-02T09:10:04.355Z</time></trkpt><trkpt lat="40.10324" lon="8.6670517"><ele>268.75</ele><time>2026-05-02T09:10:05.355Z</time></trkpt><trkpt lat="40.10338" lon="8.6670317"><ele>269.5</ele><time>2026-05-02T09:10:06.355Z</time></trkpt><trkpt lat="40.1035117" lon="8.6670217"><ele>270.25</ele><time>2026-05-02T09:10:07.355Z</time></trkpt><trkpt lat="40.1036233" lon="8.666985"><ele>271.0</ele><time>2026-05-02T09:10:08.355Z</time></trkpt><trkpt lat="40.1037433" lon="8.6669367"><ele>271.25</ele><time>2026-05-02T09:10:09.355Z</time></trkpt><trkpt lat="40.103875" lon="8.6669017"><ele>271.5</ele><time>2026-05-02T09:10:10.355Z</time></trkpt><trkpt lat="40.1040167" lon="8.6668783"><ele>271.75</ele><time>2026-05-02T09:10:11.355Z</time></trkpt><trkpt lat="40.1041633" lon="8.6668617"><ele>272.0</ele><time>2026-05-02T09:10:12.355Z</time></trkpt><trkpt lat="40.1042917" lon="8.666855"><ele>272.0</ele><time>2026-05-02T09:10:13.355Z</time></trkpt><trkpt lat="40.1044283" lon="8.666855"><ele>272.0</ele><time>2026-05-02T09:10:14.355Z</time></trkpt><trkpt lat="40.1045683" lon="8.6668467"><ele>272.0</ele><time>2026-05-02T09:10:15.355Z</time></trkpt><trkpt lat="40.1047067" lon="8.6668533"><ele>272.0</ele><time>2026-05-02T09:10:16.355Z</time></trkpt><trkpt lat="40.1048467" lon="8.6668767"><ele>273.25</ele><time>2026-05-02T09:10:17.355Z</time></trkpt><trkpt lat="40.1049867" lon="8.666885"><ele>274.5</ele><time>2026-05-02T09:10:18.355Z</time></trkpt><trkpt lat="40.1051133" lon="8.6669017"><ele>275.75</ele><time>2026-05-02T09:10:19.355Z</time></trkpt><trkpt lat="40.1052317" lon="8.6669333"><ele>277.0</ele><time>2026-05-02T09:10:20.355Z</time></trkpt><trkpt lat="40.1053467" lon="8.666975"><ele>277.8</ele><time>2026-05-02T09:10:21.355Z</time></trkpt><trkpt lat="40.1054483" lon="8.6670217"><ele>278.6</ele><time>2026-05-02T09:10:22.355Z</time></trkpt><trkpt lat="40.1055317" lon="8.6670783"><ele>279.40000000000003</ele><time>2026-05-02T09:10:23.355Z</time></trkpt><trkpt lat="40.10561" lon="8.6671133"><ele>280.2</ele><time>2026-05-02T09:10:24.355Z</time></trkpt><trkpt lat="40.105685" lon="8.6671367"><ele>281.0</ele><time>2026-05-02T09:10:25.355Z</time></trkpt><trkpt lat="40.1057617" lon="8.6671933"><ele>282.2</ele><time>2026-05-02T09:10:26.355Z</time></trkpt><trkpt lat="40.1058483" lon="8.6672517"><ele>283.40000000000003</ele><time>2026-05-02T09:10:27.355Z</time></trkpt><trkpt lat="40.1059417" lon="8.6673067"><ele>284.6</ele><time>2026-05-02T09:10:28.355Z</time></trkpt><trkpt lat="40.1060383" lon="8.6673633"><ele>285.8</ele><time>2026-05-02T09:10:29.355Z</time></trkpt><trkpt lat="40.1061333" lon="8.6673783"><ele>287.0</ele><time>2026-05-02T09:10:30.355Z</time></trkpt><trkpt lat="40.106235" lon="8.6673767"><ele>287.0</ele><time>2026-05-02T09:10:31.355Z</time></trkpt><trkpt lat="40.1063483" lon="8.667375"><ele>287.0</ele><time>2026-05-02T09:10:32.355Z</time></trkpt><trkpt lat="40.10646" lon="8.66737"><ele>287.0</ele><time>2026-05-02T09:10:33.355Z</time></trkpt><trkpt lat="40.106585" lon="8.6673833"><ele>287.0</ele><time>2026-05-02T09:10:34.355Z</time></trkpt><trkpt lat="40.1067067" lon="8.66742"><ele>287.8</ele><time>2026-05-02T09:10:35.355Z</time></trkpt><trkpt lat="40.10682" lon="8.6674717"><ele>288.6</ele><time>2026-05-02T09:10:36.355Z</time></trkpt><trkpt lat="40.106925" lon="8.6675167"><ele>289.40000000000003</ele><time>2026-05-02T09:10:37.355Z</time></trkpt><trkpt lat="40.1070017" lon="8.6675817"><ele>290.2</ele><time>2026-05-02T09:10:38.355Z</time></trkpt><trkpt lat="40.10707" lon="8.66768"><ele>291.0</ele><time>2026-05-02T09:10:39.355Z</time></trkpt><trkpt lat="40.1071467" lon="8.6677917"><ele>291.25</ele><time>2026-05-02T09:10:40.355Z</time></trkpt><trkpt lat="40.1072383" lon="8.6678967"><ele>291.5</ele><time>2026-05-02T09:10:41.355Z</time></trkpt><trkpt lat="40.1073467" lon="8.6679933"><ele>291.75</ele><time>2026-05-02T09:10:42.356Z</time></trkpt><trkpt lat="40.1074583" lon="8.6680633"><ele>292.0</ele><time>2026-05-02T09:10:43.355Z</time></trkpt><trkpt lat="40.10757" lon="8.6681083"><ele>293.2</ele><time>2026-05-02T09:10:44.355Z</time></trkpt><trkpt lat="40.1076683" lon="8.66814"><ele>294.4</ele><time>2026-05-02T09:10:45.355Z</time></trkpt><trkpt lat="40.10776" lon="8.6681467"><ele>295.6</ele><time>2026-05-02T09:10:46.355Z</time></trkpt><trkpt lat="40.1078583" lon="8.6681217"><ele>296.8</ele><time>2026-05-02T09:10:47.355Z</time></trkpt><trkpt lat="40.10799" lon="8.6680933"><ele>298.0</ele><time>2026-05-02T09:10:48.356Z</time></trkpt><trkpt lat="40.1081283" lon="8.6680583"><ele>299.25</ele><time>2026-05-02T09:10:49.355Z</time></trkpt><trkpt lat="40.1082517" lon="8.6680333"><ele>300.5</ele><time>2026-05-02T09:10:50.355Z</time></trkpt><trkpt lat="40.1083617" lon="8.6679983"><ele>301.75</ele><time>2026-05-02T09:10:51.355Z</time></trkpt><trkpt lat="40.1084717" lon="8.6679417"><ele>303.0</ele><time>2026-05-02T09:10:52.355Z</time></trkpt><trkpt lat="40.1085733" lon="8.6678817"><ele>303.0</ele><time>2026-05-02T09:10:53.355Z</time></trkpt><trkpt lat="40.10867" lon="8.66781"><ele>303.0</ele><time>2026-05-02T09:10:54.355Z</time></trkpt><trkpt lat="40.1087683" lon="8.667735"><ele>303.0</ele><time>2026-05-02T09:10:55.355Z</time></trkpt><trkpt lat="40.1088617" lon="8.66766"><ele>303.0</ele><time>2026-05-02T09:10:56.355Z</time></trkpt><trkpt lat="40.1089517" lon="8.6675767"><ele>303.0</ele><time>2026-05-02T09:10:57.355Z</time></trkpt><trkpt lat="40.1090383" lon="8.6674817"><ele>304.4</ele><time>2026-05-02T09:10:58.355Z</time></trkpt><trkpt lat="40.10911" lon="8.6673917"><ele>305.8</ele><time>2026-05-02T09:10:59.355Z</time></trkpt><trkpt lat="40.10918" lon="8.6673133"><ele>307.2</ele><time>2026-05-02T09:11:00.355Z</time></trkpt><trkpt lat="40.1092517" lon="8.6672467"><ele>308.6</ele><time>2026-05-02T09:11:01.355Z</time></trkpt><trkpt lat="40.1093267" lon="8.6671767"><ele>310.0</ele><time>2026-05-02T09:11:02.355Z</time></trkpt><trkpt lat="40.1094183" lon="8.6671233"><ele>310.0</ele><time>2026-05-02T09:11:03.355Z</time></trkpt><trkpt lat="40.1095" lon="8.6670517"><ele>310.0</ele><time>2026-05-02T09:11:04.355Z</time></trkpt><trkpt lat="40.10958" lon="8.6670017"><ele>310.0</ele><time>2026-05-02T09:11:05.355Z</time></trkpt><trkpt lat="40.1096633" lon="8.6669817"><ele>310.0</ele><time>2026-05-02T09:11:06.355Z</time></trkpt><trkpt lat="40.1097483" lon="8.66696"><ele>310.0</ele><time>2026-05-02T09:11:07.355Z</time></trkpt><trkpt lat="40.109835" lon="8.666915"><ele>310.4</ele><time>2026-05-02T09:11:08.355Z</time></trkpt><trkpt lat="40.109925" lon="8.666865"><ele>310.8</ele><time>2026-05-02T09:11:09.355Z</time></trkpt><trkpt lat="40.1100183" lon="8.6668133"><ele>311.2</ele><time>2026-05-02T09:11:10.355Z</time></trkpt><trkpt lat="40.11011" lon="8.66678"><ele>311.6</ele><time>2026-05-02T09:11:11.355Z</time></trkpt><trkpt lat="40.11021" lon="8.6667633"><ele>312.0</ele><time>2026-05-02T09:11:12.355Z</time></trkpt><trkpt lat="40.1103067" lon="8.6667683"><ele>312.0</ele><time>2026-05-02T09:11:13.355Z</time></trkpt><trkpt lat="40.110415" lon="8.66678"><ele>312.0</ele><time>2026-05-02T09:11:14.355Z</time></trkpt><trkpt lat="40.1105267" lon="8.66679"><ele>312.0</ele><time>2026-05-02T09:11:15.355Z</time></trkpt><trkpt lat="40.11064" lon="8.6668067"><ele>312.0</ele><time>2026-05-02T09:11:16.355Z</time></trkpt><trkpt lat="40.1107467" lon="8.66682"><ele>312.0</ele><time>2026-05-02T09:11:17.355Z</time></trkpt><trkpt lat="40.11085" lon="8.6668183"><ele>313.0</ele><time>2026-05-02T09:11:18.355Z</time></trkpt><trkpt lat="40.11096" lon="8.6668167"><ele>314.0</ele><time>2026-05-02T09:11:19.355Z</time></trkpt><trkpt lat="40.1110667" lon="8.6668167"><ele>315.0</ele><time>2026-05-02T09:11:20.355Z</time></trkpt><trkpt lat="40.1111683" lon="8.666835"><ele>316.0</ele><time>2026-05-02T09:11:21.355Z</time></trkpt><trkpt lat="40.111265" lon="8.666855"><ele>317.0</ele><time>2026-05-02T09:11:22.355Z</time></trkpt><trkpt lat="40.1113567" lon="8.6668767"><ele>317.0</ele><time>2026-05-02T09:11:23.355Z</time></trkpt><trkpt lat="40.1114583" lon="8.6669017"><ele>317.0</ele><time>2026-05-02T09:11:24.355Z</time></trkpt><trkpt lat="40.1115583" lon="8.6669167"><ele>317.0</ele><time>2026-05-02T09:11:25.355Z</time></trkpt><trkpt lat="40.111645" lon="8.66693"><ele>317.0</ele><time>2026-05-02T09:11:26.355Z</time></trkpt><trkpt lat="40.1117117" lon="8.6669617"><ele>317.0</ele><time>2026-05-02T09:11:27.355Z</time></trkpt><trkpt lat="40.1117717" lon="8.6670283"><ele>317.0</ele><time>2026-05-02T09:11:28.355Z</time></trkpt><trkpt lat="40.1118333" lon="8.6671"><ele>316.4</ele><time>2026-05-02T09:11:29.355Z</time></trkpt><trkpt lat="40.1119117" lon="8.6671667"><ele>315.79999999999995</ele><time>2026-05-02T09:11:30.355Z</time></trkpt><trkpt lat="40.1119983" lon="8.667225"><ele>315.2</ele><time>2026-05-02T09:11:31.355Z</time></trkpt><trkpt lat="40.112105" lon="8.6672883"><ele>314.59999999999997</ele><time>2026-05-02T09:11:32.355Z</time></trkpt><trkpt lat="40.11221" lon="8.6673467"><ele>314.0</ele><time>2026-05-02T09:11:33.355Z</time></trkpt><trkpt lat="40.1123133" lon="8.6674067"><ele>315.4</ele><time>2026-05-02T09:11:34.355Z</time></trkpt><trkpt lat="40.1124117" lon="8.6674667"><ele>316.79999999999995</ele><time>2026-05-02T09:11:35.355Z</time></trkpt><trkpt lat="40.1125067" lon="8.6675083"><ele>318.20000000000005</ele><time>2026-05-02T09:11:36.355Z</time></trkpt><trkpt lat="40.11261" lon="8.66752"><ele>319.6</ele><time>2026-05-02T09:11:37.355Z</time></trkpt><trkpt lat="40.1127083" lon="8.6675217"><ele>321.0</ele><time>2026-05-02T09:11:38.355Z</time></trkpt><trkpt lat="40.1128033" lon="8.667505"><ele>321.0</ele><time>2026-05-02T09:11:39.355Z</time></trkpt><trkpt lat="40.11289" lon="8.6674533"><ele>321.0</ele><time>2026-05-02T09:11:40.355Z</time></trkpt><trkpt lat="40.1129883" lon="8.6673767"><ele>321.0</ele><time>2026-05-02T09:11:41.355Z</time></trkpt><trkpt lat="40.113085" lon="8.6673"><ele>321.0</ele><time>2026-05-02T09:11:42.355Z</time></trkpt><trkpt lat="40.1131817" lon="8.6672083"><ele>321.0</ele><time>2026-05-02T09:11:43.355Z</time></trkpt><trkpt lat="40.11328" lon="8.66713"><ele>320.5</ele><time>2026-05-02T09:11:44.355Z</time></trkpt><trkpt lat="40.113375" lon="8.66705"><ele>320.0</ele><time>2026-05-02T09:11:45.355Z</time></trkpt><trkpt lat="40.1134783" lon="8.6669717"><ele>319.5</ele><time>2026-05-02T09:11:46.355Z</time></trkpt><trkpt lat="40.1135883" lon="8.6668933"><ele>319.0</ele><time>2026-05-02T09:11:47.355Z</time></trkpt><trkpt lat="40.1136983" lon="8.6668283"><ele>321.5</ele><time>2026-05-02T09:11:48.355Z</time></trkpt><trkpt lat="40.1138183" lon="8.666795"><ele>324.0</ele><time>2026-05-02T09:11:49.355Z</time></trkpt><trkpt lat="40.1139283" lon="8.6667817"><ele>326.5</ele><time>2026-05-02T09:11:50.355Z</time></trkpt><trkpt lat="40.1140417" lon="8.666775"><ele>329.0</ele><time>2026-05-02T09:11:51.355Z</time></trkpt><trkpt lat="40.1141633" lon="8.66676"><ele>329.0</ele><time>2026-05-02T09:11:52.355Z</time></trkpt><trkpt lat="40.114265" lon="8.66674"><ele>329.0</ele><time>2026-05-02T09:11:53.355Z</time></trkpt><trkpt lat="40.11436" lon="8.6667233"><ele>329.0</ele><time>2026-05-02T09:11:54.355Z</time></trkpt><trkpt lat="40.114445" lon="8.666695"><ele>329.0</ele><time>2026-05-02T09:11:55.355Z</time></trkpt><trkpt lat="40.11454" lon="8.6666733"><ele>329.0</ele><time>2026-05-02T09:11:56.355Z</time></trkpt><trkpt lat="40.1146333" lon="8.6666567"><ele>329.0</ele><time>2026-05-02T09:11:57.355Z</time></trkpt><trkpt lat="40.1147117" lon="8.6666383"><ele>329.0</ele><time>2026-05-02T09:11:58.355Z</time></trkpt><trkpt lat="40.1147867" lon="8.666625"><ele>329.0</ele><time>2026-05-02T09:11:59.355Z</time></trkpt><trkpt lat="40.1148617" lon="8.6666183"><ele>329.0</ele><time>2026-05-02T09:12:00.355Z</time></trkpt><trkpt lat="40.1149767" lon="8.66657"><ele>329.0</ele><time>2026-05-02T09:12:02.355Z</time></trkpt><trkpt lat="40.11508" lon="8.6665"><ele>330.0</ele><time>2026-05-02T09:12:04.355Z</time></trkpt><trkpt lat="40.115155" lon="8.6665"><ele>331.0</ele><time>2026-05-02T09:12:05.355Z</time></trkpt><trkpt lat="40.1152467" lon="8.66651"><ele>332.0</ele><time>2026-05-02T09:12:06.355Z</time></trkpt><trkpt lat="40.1153483" lon="8.6665333"><ele>333.0</ele><time>2026-05-02T09:12:07.354Z</time></trkpt><trkpt lat="40.115455" lon="8.6665467"><ele>334.0</ele><time>2026-05-02T09:12:08.354Z</time></trkpt><trkpt lat="40.11556" lon="8.6665483"><ele>334.0</ele><time>2026-05-02T09:12:09.354Z</time></trkpt><trkpt lat="40.1156567" lon="8.66654"><ele>334.0</ele><time>2026-05-02T09:12:10.354Z</time></trkpt><trkpt lat="40.1157383" lon="8.666535"><ele>334.0</ele><time>2026-05-02T09:12:11.354Z</time></trkpt><trkpt lat="40.1158117" lon="8.66652"><ele>334.0</ele><time>2026-05-02T09:12:12.354Z</time></trkpt><trkpt lat="40.1158883" lon="8.666505"><ele>334.0</ele><time>2026-05-02T09:12:13.354Z</time></trkpt><trkpt lat="40.1159783" lon="8.6665233"><ele>334.0</ele><time>2026-05-02T09:12:14.354Z</time></trkpt><trkpt lat="40.1160617" lon="8.666555"><ele>335.79999999999995</ele><time>2026-05-02T09:12:15.354Z</time></trkpt><trkpt lat="40.1161483" lon="8.6665883"><ele>337.59999999999997</ele><time>2026-05-02T09:12:16.354Z</time></trkpt><trkpt lat="40.116225" lon="8.6666367"><ele>339.4</ele><time>2026-05-02T09:12:17.354Z</time></trkpt><trkpt lat="40.1163033" lon="8.6666817"><ele>341.2</ele><time>2026-05-02T09:12:18.354Z</time></trkpt><trkpt lat="40.116395" lon="8.6667133"><ele>343.0</ele><time>2026-05-02T09:12:19.354Z</time></trkpt><trkpt lat="40.1164933" lon="8.6667367"><ele>344.4</ele><time>2026-05-02T09:12:20.354Z</time></trkpt><trkpt lat="40.11659" lon="8.6667433"><ele>345.79999999999995</ele><time>2026-05-02T09:12:21.354Z</time></trkpt><trkpt lat="40.1166917" lon="8.6667483"><ele>347.2</ele><time>2026-05-02T09:12:22.354Z</time></trkpt><trkpt lat="40.1167883" lon="8.6667717"><ele>348.6</ele><time>2026-05-02T09:12:23.354Z</time></trkpt><trkpt lat="40.1168883" lon="8.666815"><ele>350.0</ele><time>2026-05-02T09:12:24.354Z</time></trkpt><trkpt lat="40.11697" lon="8.6668633"><ele>350.0</ele><time>2026-05-02T09:12:25.354Z</time></trkpt><trkpt lat="40.1170433" lon="8.6668967"><ele>350.0</ele><time>2026-05-02T09:12:26.354Z</time></trkpt><trkpt lat="40.117115" lon="8.66691"><ele>350.0</ele><time>2026-05-02T09:12:27.354Z</time></trkpt><trkpt lat="40.1172017" lon="8.6669183"><ele>350.0</ele><time>2026-05-02T09:12:28.354Z</time></trkpt><trkpt lat="40.117295" lon="8.66692"><ele>350.0</ele><time>2026-05-02T09:12:29.354Z</time></trkpt><trkpt lat="40.1174017" lon="8.6669033"><ele>350.0</ele><time>2026-05-02T09:12:30.354Z</time></trkpt><trkpt lat="40.1175067" lon="8.6669"><ele>351.75</ele><time>2026-05-02T09:12:31.354Z</time></trkpt><trkpt lat="40.117615" lon="8.6668883"><ele>353.5</ele><time>2026-05-02T09:12:32.354Z</time></trkpt><trkpt lat="40.1177267" lon="8.666845"><ele>355.25</ele><time>2026-05-02T09:12:33.354Z</time></trkpt><trkpt lat="40.1178383" lon="8.6667933"><ele>357.0</ele><time>2026-05-02T09:12:34.354Z</time></trkpt><trkpt lat="40.117945" lon="8.6667467"><ele>357.0</ele><time>2026-05-02T09:12:35.354Z</time></trkpt><trkpt lat="40.118045" lon="8.6666917"><ele>357.0</ele><time>2026-05-02T09:12:36.354Z</time></trkpt><trkpt lat="40.118145" lon="8.66664"><ele>357.0</ele><time>2026-05-02T09:12:37.354Z</time></trkpt><trkpt lat="40.1182417" lon="8.6666"><ele>357.0</ele><time>2026-05-02T09:12:38.354Z</time></trkpt><trkpt lat="40.1183367" lon="8.6665767"><ele>357.0</ele><time>2026-05-02T09:12:39.354Z</time></trkpt><trkpt lat="40.1184417" lon="8.6665583"><ele>357.40000000000003</ele><time>2026-05-02T09:12:40.354Z</time></trkpt><trkpt lat="40.118545" lon="8.6665383"><ele>357.8</ele><time>2026-05-02T09:12:41.354Z</time></trkpt><trkpt lat="40.118645" lon="8.6665117"><ele>358.2</ele><time>2026-05-02T09:12:42.354Z</time></trkpt><trkpt lat="40.1187283" lon="8.666475"><ele>358.6</ele><time>2026-05-02T09:12:43.354Z</time></trkpt><trkpt lat="40.1188267" lon="8.6664433"><ele>359.0</ele><time>2026-05-02T09:12:44.354Z</time></trkpt><trkpt lat="40.118915" lon="8.6664183"><ele>359.0</ele><time>2026-05-02T09:12:45.354Z</time></trkpt><trkpt lat="40.1190017" lon="8.6664117"><ele>359.0</ele><time>2026-05-02T09:12:46.354Z</time></trkpt><trkpt lat="40.11909" lon="8.666425"><ele>359.0</ele><time>2026-05-02T09:12:47.354Z</time></trkpt><trkpt lat="40.1191783" lon="8.666445"><ele>359.0</ele><time>2026-05-02T09:12:48.354Z</time></trkpt><trkpt lat="40.119265" lon="8.6664683"><ele>359.0</ele><time>2026-05-02T09:12:49.354Z</time></trkpt><trkpt lat="40.1193517" lon="8.666485"><ele>359.0</ele><time>2026-05-02T09:12:50.354Z</time></trkpt><trkpt lat="40.11943" lon="8.6664933"><ele>359.1666666666667</ele><time>2026-05-02T09:12:51.354Z</time></trkpt><trkpt lat="40.1195067" lon="8.6664833"><ele>359.33333333333337</ele><time>2026-05-02T09:12:52.354Z</time></trkpt><trkpt lat="40.1195833" lon="8.6664583"><ele>359.5</ele><time>2026-05-02T09:12:53.354Z</time></trkpt><trkpt lat="40.11966" lon="8.6664217"><ele>359.6666666666667</ele><time>2026-05-02T09:12:54.354Z</time></trkpt><trkpt lat="40.11975" lon="8.6663783"><ele>359.8333333333333</ele><time>2026-05-02T09:12:55.354Z</time></trkpt><trkpt lat="40.119845" lon="8.6663233"><ele>360.0</ele><time>2026-05-02T09:12:56.354Z</time></trkpt><trkpt lat="40.1199383" lon="8.6662683"><ele>360.6</ele><time>2026-05-02T09:12:57.354Z</time></trkpt><trkpt lat="40.1200267" lon="8.666225"><ele>361.2</ele><time>2026-05-02T09:12:58.354Z</time></trkpt><trkpt lat="40.1201133" lon="8.6661883"><ele>361.79999999999995</ele><time>2026-05-02T09:12:59.354Z</time></trkpt><trkpt lat="40.1202033" lon="8.6661567"><ele>362.4</ele><time>2026-05-02T09:13:00.354Z</time></trkpt><trkpt lat="40.120295" lon="8.6661033"><ele>363.0</ele><time>2026-05-02T09:13:01.354Z</time></trkpt><trkpt lat="40.1204" lon="8.66603"><ele>364.75</ele><time>2026-05-02T09:13:02.354Z</time></trkpt><trkpt lat="40.1205033" lon="8.6659433"><ele>366.5</ele><time>2026-05-02T09:13:03.354Z</time></trkpt><trkpt lat="40.1206233" lon="8.6658433"><ele>368.25</ele><time>2026-05-02T09:13:04.354Z</time></trkpt><trkpt lat="40.12074" lon="8.66574"><ele>370.0</ele><time>2026-05-02T09:13:05.354Z</time></trkpt><trkpt lat="40.1208367" lon="8.6656533"><ele>371.2</ele><time>2026-05-02T09:13:06.354Z</time></trkpt><trkpt lat="40.1209333" lon="8.6655867"><ele>372.4</ele><time>2026-05-02T09:13:07.354Z</time></trkpt><trkpt lat="40.1210217" lon="8.6655683"><ele>373.6</ele><time>2026-05-02T09:13:08.354Z</time></trkpt><trkpt lat="40.12111" lon="8.6655833"><ele>374.8</ele><time>2026-05-02T09:13:09.354Z</time></trkpt><trkpt lat="40.1212067" lon="8.6656333"><ele>376.0</ele><time>2026-05-02T09:13:10.354Z</time></trkpt><trkpt lat="40.1213133" lon="8.6657267"><ele>376.0</ele><time>2026-05-02T09:13:11.354Z</time></trkpt><trkpt lat="40.12143" lon="8.665805"><ele>376.0</ele><time>2026-05-02T09:13:12.354Z</time></trkpt><trkpt lat="40.1215583" lon="8.6658733"><ele>376.0</ele><time>2026-05-02T09:13:13.354Z</time></trkpt><trkpt lat="40.1216917" lon="8.665925"><ele>376.0</ele><time>2026-05-02T09:13:14.354Z</time></trkpt><trkpt lat="40.1218267" lon="8.6659817"><ele>377.5</ele><time>2026-05-02T09:13:15.354Z</time></trkpt><trkpt lat="40.12195" lon="8.6660433"><ele>379.0</ele><time>2026-05-02T09:13:16.354Z</time></trkpt><trkpt lat="40.1220683" lon="8.6661317"><ele>380.5</ele><time>2026-05-02T09:13:17.354Z</time></trkpt><trkpt lat="40.122175" lon="8.6662367"><ele>382.0</ele><time>2026-05-02T09:13:18.354Z</time></trkpt><trkpt lat="40.1222783" lon="8.66636"><ele>382.0</ele><time>2026-05-02T09:13:19.354Z</time></trkpt><trkpt lat="40.1223933" lon="8.6664817"><ele>382.0</ele><time>2026-05-02T09:13:20.354Z</time></trkpt><trkpt lat="40.12251" lon="8.6665933"><ele>382.0</ele><time>2026-05-02T09:13:21.354Z</time></trkpt><trkpt lat="40.1226267" lon="8.66673"><ele>382.0</ele><time>2026-05-02T09:13:22.354Z</time></trkpt><trkpt lat="40.1227417" lon="8.666875"><ele>384.75</ele><time>2026-05-02T09:13:23.354Z</time></trkpt><trkpt lat="40.1228533" lon="8.6670117"><ele>387.5</ele><time>2026-05-02T09:13:24.354Z</time></trkpt><trkpt lat="40.1229667" lon="8.66713"><ele>390.25</ele><time>2026-05-02T09:13:25.354Z</time></trkpt><trkpt lat="40.1230833" lon="8.66725"><ele>393.0</ele><time>2026-05-02T09:13:26.354Z</time></trkpt><trkpt lat="40.123205" lon="8.6673667"><ele>396.25</ele><time>2026-05-02T09:13:27.354Z</time></trkpt><trkpt lat="40.12332" lon="8.6674967"><ele>399.5</ele><time>2026-05-02T09:13:28.354Z</time></trkpt><trkpt lat="40.12344" lon="8.667595"><ele>402.75</ele><time>2026-05-02T09:13:29.354Z</time></trkpt><trkpt lat="40.1235683" lon="8.6676817"><ele>406.0</ele><time>2026-05-02T09:13:30.354Z</time></trkpt><trkpt lat="40.1236967" lon="8.6677517"><ele>405.5</ele><time>2026-05-02T09:13:31.354Z</time></trkpt><trkpt lat="40.1238167" lon="8.6678067"><ele>405.0</ele><time>2026-05-02T09:13:32.354Z</time></trkpt><trkpt lat="40.12393" lon="8.6678533"><ele>404.5</ele><time>2026-05-02T09:13:33.354Z</time></trkpt><trkpt lat="40.124035" lon="8.6678767"><ele>404.0</ele><time>2026-05-02T09:13:34.354Z</time></trkpt><trkpt lat="40.1241583" lon="8.6678933"><ele>406.0</ele><time>2026-05-02T09:13:35.354Z</time></trkpt><trkpt lat="40.1242833" lon="8.6679083"><ele>408.0</ele><time>2026-05-02T09:13:36.354Z</time></trkpt><trkpt lat="40.1244083" lon="8.6679183"><ele>410.0</ele><time>2026-05-02T09:13:37.354Z</time></trkpt><trkpt lat="40.1245217" lon="8.667935"><ele>412.0</ele><time>2026-05-02T09:13:38.354Z</time></trkpt><trkpt lat="40.1246433" lon="8.6679533"><ele>412.0</ele><time>2026-05-02T09:13:39.354Z</time></trkpt><trkpt lat="40.12477" lon="8.6679783"><ele>412.0</ele><time>2026-05-02T09:13:40.354Z</time></trkpt><trkpt lat="40.1248917" lon="8.6680117"><ele>412.0</ele><time>2026-05-02T09:13:41.354Z</time></trkpt><trkpt lat="40.1250017" lon="8.6680317"><ele>412.0</ele><time>2026-05-02T09:13:42.354Z</time></trkpt><trkpt lat="40.1251133" lon="8.6680533"><ele>413.25</ele><time>2026-05-02T09:13:43.354Z</time></trkpt><trkpt lat="40.1252267" lon="8.668075"><ele>414.5</ele><time>2026-05-02T09:13:44.354Z</time></trkpt><trkpt lat="40.1253567" lon="8.6680967"><ele>415.75</ele><time>2026-05-02T09:13:45.354Z</time></trkpt><trkpt lat="40.1254833" lon="8.6681167"><ele>417.0</ele><time>2026-05-02T09:13:46.354Z</time></trkpt><trkpt lat="40.125615" lon="8.6681383"><ele>418.5</ele><time>2026-05-02T09:13:47.354Z</time></trkpt><trkpt lat="40.1257367" lon="8.66815"><ele>420.0</ele><time>2026-05-02T09:13:48.354Z</time></trkpt><trkpt lat="40.1258583" lon="8.668165"><ele>421.5</ele><time>2026-05-02T09:13:49.354Z</time></trkpt><trkpt lat="40.12598" lon="8.668195"><ele>423.0</ele><time>2026-05-02T09:13:50.354Z</time></trkpt><trkpt lat="40.1261" lon="8.668245"><ele>423.0</ele><time>2026-05-02T09:13:51.354Z</time></trkpt><trkpt lat="40.1262133" lon="8.6682933"><ele>423.0</ele><time>2026-05-02T09:13:52.354Z</time></trkpt><trkpt lat="40.126315" lon="8.66833"><ele>423.0</ele><time>2026-05-02T09:13:53.354Z</time></trkpt><trkpt lat="40.1264217" lon="8.668355"><ele>423.0</ele><time>2026-05-02T09:13:54.354Z</time></trkpt><trkpt lat="40.1265433" lon="8.6683467"><ele>424.25</ele><time>2026-05-02T09:13:55.354Z</time></trkpt><trkpt lat="40.126665" lon="8.668335"><ele>425.5</ele><time>2026-05-02T09:13:56.354Z</time></trkpt><trkpt lat="40.1267817" lon="8.668315"><ele>426.75</ele><time>2026-05-02T09:13:57.354Z</time></trkpt><trkpt lat="40.1268933" lon="8.6683033"><ele>428.0</ele><time>2026-05-02T09:13:58.354Z</time></trkpt><trkpt lat="40.12701" lon="8.66831"><ele>428.0</ele><time>2026-05-02T09:13:59.354Z</time></trkpt><trkpt lat="40.1271383" lon="8.6683133"><ele>427.99999999999994</ele><time>2026-05-02T09:14:00.354Z</time></trkpt><trkpt lat="40.1272483" lon="8.66832"><ele>427.99999999999994</ele><time>2026-05-02T09:14:01.354Z</time></trkpt><trkpt lat="40.127335" lon="8.668335"><ele>428.0</ele><time>2026-05-02T09:14:02.354Z</time></trkpt><trkpt lat="40.127455" lon="8.6683183"><ele>428.0</ele><time>2026-05-02T09:14:04.354Z</time></trkpt><trkpt lat="40.1275283" lon="8.6682133"><ele>428.49999999999994</ele><time>2026-05-02T09:14:06.354Z</time></trkpt><trkpt lat="40.1275483" lon="8.66812"><ele>429.0</ele><time>2026-05-02T09:14:07.354Z</time></trkpt><trkpt lat="40.1275867" lon="8.6680383"><ele>429.5</ele><time>2026-05-02T09:14:08.354Z</time></trkpt><trkpt lat="40.1276483" lon="8.6680183"><ele>430.0</ele><time>2026-05-02T09:14:09.354Z</time></trkpt><trkpt lat="40.1277367" lon="8.6680267"><ele>430.49999999999994</ele><time>2026-05-02T09:14:10.354Z</time></trkpt><trkpt lat="40.1278467" lon="8.6680383"><ele>431.0</ele><time>2026-05-02T09:14:11.354Z</time></trkpt><trkpt lat="40.127965" lon="8.6680217"><ele>431.0</ele><time>2026-05-02T09:14:12.354Z</time></trkpt><trkpt lat="40.1280683" lon="8.6680067"><ele>431.0</ele><time>2026-05-02T09:14:13.354Z</time></trkpt><trkpt lat="40.1281483" lon="8.6680117"><ele>431.0</ele><time>2026-05-02T09:14:14.354Z</time></trkpt><trkpt lat="40.1282183" lon="8.6680567"><ele>431.0</ele><time>2026-05-02T09:14:15.354Z</time></trkpt><trkpt lat="40.128285" lon="8.6681367"><ele>431.0</ele><time>2026-05-02T09:14:16.354Z</time></trkpt><trkpt lat="40.12836" lon="8.66824"><ele>431.49999999999994</ele><time>2026-05-02T09:14:17.354Z</time></trkpt><trkpt lat="40.1284267" lon="8.6683433"><ele>432.0</ele><time>2026-05-02T09:14:18.354Z</time></trkpt><trkpt lat="40.1284933" lon="8.6684117"><ele>432.5</ele><time>2026-05-02T09:14:19.354Z</time></trkpt><trkpt lat="40.1285783" lon="8.6684167"><ele>433.0</ele><time>2026-05-02T09:14:20.354Z</time></trkpt><trkpt lat="40.128665" lon="8.6684117"><ele>433.49999999999994</ele><time>2026-05-02T09:14:21.354Z</time></trkpt><trkpt lat="40.128745" lon="8.668425"><ele>434.0</ele><time>2026-05-02T09:14:22.354Z</time></trkpt><trkpt lat="40.1287983" lon="8.668475"><ele>433.99999999999994</ele><time>2026-05-02T09:14:23.354Z</time></trkpt><trkpt lat="40.1288367" lon="8.6685783"><ele>434.0</ele><time>2026-05-02T09:14:24.354Z</time></trkpt><trkpt lat="40.12887" lon="8.66868"><ele>434.0</ele><time>2026-05-02T09:14:25.354Z</time></trkpt><trkpt lat="40.12891" lon="8.66876"><ele>434.0</ele><time>2026-05-02T09:14:26.354Z</time></trkpt><trkpt lat="40.1289767" lon="8.6687933"><ele>433.99999999999994</ele><time>2026-05-02T09:14:27.354Z</time></trkpt><trkpt lat="40.1290683" lon="8.668815"><ele>434.0</ele><time>2026-05-02T09:14:28.354Z</time></trkpt><trkpt lat="40.1291833" lon="8.6688233"><ele>434.25</ele><time>2026-05-02T09:14:29.354Z</time></trkpt><trkpt lat="40.1293" lon="8.6688133"><ele>434.5</ele><time>2026-05-02T09:14:30.354Z</time></trkpt><trkpt lat="40.1294217" lon="8.668805"><ele>434.75</ele><time>2026-05-02T09:14:31.354Z</time></trkpt><trkpt lat="40.1295433" lon="8.6688133"><ele>435.0</ele><time>2026-05-02T09:14:32.354Z</time></trkpt><trkpt lat="40.129665" lon="8.66883"><ele>435.0</ele><time>2026-05-02T09:14:33.354Z</time></trkpt><trkpt lat="40.1297983" lon="8.668855"><ele>435.0</ele><time>2026-05-02T09:14:34.354Z</time></trkpt><trkpt lat="40.1299283" lon="8.6688933"><ele>435.0</ele><time>2026-05-02T09:14:35.354Z</time></trkpt><trkpt lat="40.1300617" lon="8.66893"><ele>435.0</ele><time>2026-05-02T09:14:36.354Z</time></trkpt><trkpt lat="40.1301833" lon="8.668965"><ele>436.75</ele><time>2026-05-02T09:14:37.354Z</time></trkpt><trkpt lat="40.1303083" lon="8.6690117"><ele>438.5</ele><time>2026-05-02T09:14:38.354Z</time></trkpt><trkpt lat="40.1304317" lon="8.6690783"><ele>440.25</ele><time>2026-05-02T09:14:39.354Z</time></trkpt><trkpt lat="40.1305517" lon="8.6691317"><ele>442.0</ele><time>2026-05-02T09:14:40.354Z</time></trkpt><trkpt lat="40.1306633" lon="8.6691867"><ele>442.83333333333337</ele><time>2026-05-02T09:14:41.354Z</time></trkpt><trkpt lat="40.1307633" lon="8.669235"><ele>443.6666666666667</ele><time>2026-05-02T09:14:42.354Z</time></trkpt><trkpt lat="40.130835" lon="8.669285"><ele>444.5</ele><time>2026-05-02T09:14:43.354Z</time></trkpt><trkpt lat="40.130885" lon="8.66936"><ele>445.33333333333337</ele><time>2026-05-02T09:14:44.354Z</time></trkpt><trkpt lat="40.1309317" lon="8.6694417"><ele>446.1666666666667</ele><time>2026-05-02T09:14:45.354Z</time></trkpt><trkpt lat="40.1309783" lon="8.6695267"><ele>447.0</ele><time>2026-05-02T09:14:46.354Z</time></trkpt><trkpt lat="40.1310483" lon="8.6696217"><ele>447.0</ele><time>2026-05-02T09:14:47.354Z</time></trkpt><trkpt lat="40.13114" lon="8.66971"><ele>447.0</ele><time>2026-05-02T09:14:48.354Z</time></trkpt><trkpt lat="40.1312383" lon="8.6697733"><ele>447.0</ele><time>2026-05-02T09:14:49.354Z</time></trkpt><trkpt lat="40.1313517" lon="8.66983"><ele>447.0</ele><time>2026-05-02T09:14:50.354Z</time></trkpt><trkpt lat="40.1314767" lon="8.6699067"><ele>449.75</ele><time>2026-05-02T09:14:51.354Z</time></trkpt><trkpt lat="40.1315917" lon="8.66998"><ele>452.5</ele><time>2026-05-02T09:14:52.354Z</time></trkpt><trkpt lat="40.131705" lon="8.67007"><ele>455.25</ele><time>2026-05-02T09:14:53.354Z</time></trkpt><trkpt lat="40.131815" lon="8.6701633"><ele>458.0</ele><time>2026-05-02T09:14:54.354Z</time></trkpt><trkpt lat="40.1318983" lon="8.6702333"><ele>457.16666666666663</ele><time>2026-05-02T09:14:55.354Z</time></trkpt><trkpt lat="40.1319867" lon="8.6702867"><ele>456.3333333333333</ele><time>2026-05-02T09:14:56.354Z</time></trkpt><trkpt lat="40.1320717" lon="8.6703367"><ele>455.5</ele><time>2026-05-02T09:14:57.354Z</time></trkpt><trkpt lat="40.1321533" lon="8.6704"><ele>454.66666666666663</ele><time>2026-05-02T09:14:58.354Z</time></trkpt><trkpt lat="40.13222" lon="8.6704383"><ele>453.8333333333333</ele><time>2026-05-02T09:14:59.354Z</time></trkpt><trkpt lat="40.132285" lon="8.6704417"><ele>453.0</ele><time>2026-05-02T09:15:00.354Z</time></trkpt><trkpt lat="40.1323633" lon="8.6703183"><ele>456.0</ele><time>2026-05-02T09:15:02.354Z</time></trkpt><trkpt lat="40.1323917" lon="8.6701983"><ele>458.99999999999994</ele><time>2026-05-02T09:15:03.354Z</time></trkpt><trkpt lat="40.13242" lon="8.6700667"><ele>461.99999999999994</ele><time>2026-05-02T09:15:04.354Z</time></trkpt><trkpt lat="40.13246" lon="8.6699333"><ele>465.0</ele><time>2026-05-02T09:15:05.354Z</time></trkpt><trkpt lat="40.1325233" lon="8.6698283"><ele>468.0</ele><time>2026-05-02T09:15:06.354Z</time></trkpt><trkpt lat="40.1325983" lon="8.6697617"><ele>468.0</ele><time>2026-05-02T09:15:07.354Z</time></trkpt><trkpt lat="40.1326817" lon="8.6696933"><ele>467.99999999999994</ele><time>2026-05-02T09:15:08.354Z</time></trkpt><trkpt lat="40.13277" lon="8.6696383"><ele>467.99999999999994</ele><time>2026-05-02T09:15:09.354Z</time></trkpt><trkpt lat="40.1328683" lon="8.6696017"><ele>468.0</ele><time>2026-05-02T09:15:10.354Z</time></trkpt><trkpt lat="40.1329817" lon="8.66958"><ele>468.0</ele><time>2026-05-02T09:15:11.354Z</time></trkpt><trkpt lat="40.133115" lon="8.6695633"><ele>470.25</ele><time>2026-05-02T09:15:12.354Z</time></trkpt><trkpt lat="40.1332617" lon="8.669545"><ele>472.5</ele><time>2026-05-02T09:15:13.354Z</time></trkpt><trkpt lat="40.1334067" lon="8.6695317"><ele>474.75</ele><time>2026-05-02T09:15:14.354Z</time></trkpt><trkpt lat="40.1335617" lon="8.669535"><ele>477.0</ele><time>2026-05-02T09:15:15.354Z</time></trkpt><trkpt lat="40.133715" lon="8.669555"><ele>477.0</ele><time>2026-05-02T09:15:16.354Z</time></trkpt><trkpt lat="40.133865" lon="8.6695833"><ele>477.0</ele><time>2026-05-02T09:15:17.354Z</time></trkpt><trkpt lat="40.13399" lon="8.6696183"><ele>477.0</ele><time>2026-05-02T09:15:18.354Z</time></trkpt><trkpt lat="40.134115" lon="8.6696833"><ele>477.0</ele><time>2026-05-02T09:15:19.354Z</time></trkpt><trkpt lat="40.1342267" lon="8.6697767"><ele>479.5</ele><time>2026-05-02T09:15:20.354Z</time></trkpt><trkpt lat="40.1343333" lon="8.6698483"><ele>482.0</ele><time>2026-05-02T09:15:21.354Z</time></trkpt><trkpt lat="40.13445" lon="8.6698683"><ele>484.5</ele><time>2026-05-02T09:15:22.354Z</time></trkpt><trkpt lat="40.134575" lon="8.6698617"><ele>487.0</ele><time>2026-05-02T09:15:23.354Z</time></trkpt><trkpt lat="40.13471" lon="8.6698483"><ele>487.00000000000006</ele><time>2026-05-02T09:15:24.354Z</time></trkpt><trkpt lat="40.13482" lon="8.6698483"><ele>487.0</ele><time>2026-05-02T09:15:25.354Z</time></trkpt><trkpt lat="40.1349" lon="8.669865"><ele>487.0</ele><time>2026-05-02T09:15:26.354Z</time></trkpt><trkpt lat="40.1349633" lon="8.669875"><ele>487.0</ele><time>2026-05-02T09:15:27.354Z</time></trkpt><trkpt lat="40.1350267" lon="8.66987"><ele>487.00000000000006</ele><time>2026-05-02T09:15:28.354Z</time></trkpt><trkpt lat="40.13513" lon="8.6697717"><ele>487.0</ele><time>2026-05-02T09:15:30.354Z</time></trkpt><trkpt lat="40.135205" lon="8.6696667"><ele>488.75</ele><time>2026-05-02T09:15:31.354Z</time></trkpt><trkpt lat="40.1352733" lon="8.669545"><ele>490.5</ele><time>2026-05-02T09:15:32.354Z</time></trkpt><trkpt lat="40.1353567" lon="8.6694283"><ele>492.25</ele><time>2026-05-02T09:15:33.354Z</time></trkpt><trkpt lat="40.135455" lon="8.6693333"><ele>494.0</ele><time>2026-05-02T09:15:34.354Z</time></trkpt><trkpt lat="40.13558" lon="8.6692783"><ele>494.0</ele><time>2026-05-02T09:15:35.354Z</time></trkpt><trkpt lat="40.13571" lon="8.66924"><ele>494.0</ele><time>2026-05-02T09:15:36.354Z</time></trkpt><trkpt lat="40.1358583" lon="8.66923"><ele>494.0</ele><time>2026-05-02T09:15:37.354Z</time></trkpt><trkpt lat="40.1359883" lon="8.6692383"><ele>494.0</ele><time>2026-05-02T09:15:38.354Z</time></trkpt><trkpt lat="40.13611" lon="8.6692583"><ele>494.99999999999994</ele><time>2026-05-02T09:15:39.354Z</time></trkpt><trkpt lat="40.13621" lon="8.669285"><ele>496.0</ele><time>2026-05-02T09:15:40.354Z</time></trkpt><trkpt lat="40.1362883" lon="8.6693233"><ele>497.0</ele><time>2026-05-02T09:15:41.354Z</time></trkpt><trkpt lat="40.1363417" lon="8.66937"><ele>498.0</ele><time>2026-05-02T09:15:42.354Z</time></trkpt><trkpt lat="40.1364017" lon="8.6694083"><ele>498.99999999999994</ele><time>2026-05-02T09:15:44.354Z</time></trkpt><trkpt lat="40.1364933" lon="8.6693417"><ele>500.0</ele><time>2026-05-02T09:15:47.354Z</time></trkpt><trkpt lat="40.136595" lon="8.6692483"><ele>501.8</ele><time>2026-05-02T09:15:49.354Z</time></trkpt><trkpt lat="40.136655" lon="8.6691967"><ele>503.6</ele><time>2026-05-02T09:15:51.354Z</time></trkpt><trkpt lat="40.136685" lon="8.6690783"><ele>505.4</ele><time>2026-05-02T09:21:17.353Z</time></trkpt><trkpt lat="40.13674" lon="8.6689267"><ele>507.2</ele><time>2026-05-02T09:21:19.353Z</time></trkpt><trkpt lat="40.1368083" lon="8.668825"><ele>509.0</ele><time>2026-05-02T09:21:20.353Z</time></trkpt><trkpt lat="40.1368767" lon="8.6687117"><ele>508.75</ele><time>2026-05-02T09:21:21.353Z</time></trkpt><trkpt lat="40.136945" lon="8.6685883"><ele>508.5</ele><time>2026-05-02T09:21:22.353Z</time></trkpt><trkpt lat="40.1370233" lon="8.6684733"><ele>508.25</ele><time>2026-05-02T09:21:23.353Z</time></trkpt><trkpt lat="40.1370983" lon="8.6683483"><ele>508.0</ele><time>2026-05-02T09:21:24.353Z</time></trkpt><trkpt lat="40.1371717" lon="8.6682267"><ele>508.0</ele><time>2026-05-02T09:21:25.353Z</time></trkpt><trkpt lat="40.1372417" lon="8.6681017"><ele>508.0</ele><time>2026-05-02T09:21:26.353Z</time></trkpt><trkpt lat="40.13731" lon="8.667985"><ele>508.0</ele><time>2026-05-02T09:21:27.353Z</time></trkpt><trkpt lat="40.1373867" lon="8.6678517"><ele>508.0</ele><time>2026-05-02T09:21:28.353Z</time></trkpt><trkpt lat="40.1374733" lon="8.667695"><ele>509.6666666666667</ele><time>2026-05-02T09:21:29.353Z</time></trkpt><trkpt lat="40.1375633" lon="8.6675317"><ele>511.33333333333337</ele><time>2026-05-02T09:21:30.353Z</time></trkpt><trkpt lat="40.1376617" lon="8.6673567"><ele>513.0</ele><time>2026-05-02T09:21:31.353Z</time></trkpt><trkpt lat="40.1377667" lon="8.6671783"><ele>513.0</ele><time>2026-05-02T09:21:32.353Z</time></trkpt><trkpt lat="40.1378717" lon="8.66701"><ele>513.0</ele><time>2026-05-02T09:21:33.353Z</time></trkpt><trkpt lat="40.1379633" lon="8.6668383"><ele>513.0</ele><time>2026-05-02T09:21:34.353Z</time></trkpt><trkpt lat="40.1380633" lon="8.6666733"><ele>511.0</ele><time>2026-05-02T09:21:35.353Z</time></trkpt><trkpt lat="40.1381767" lon="8.6664817"><ele>509.0</ele><time>2026-05-02T09:21:36.353Z</time></trkpt><trkpt lat="40.138295" lon="8.666295"><ele>507.0</ele><time>2026-05-02T09:21:37.353Z</time></trkpt><trkpt lat="40.138415" lon="8.6661383"><ele>508.0</ele><time>2026-05-02T09:21:38.353Z</time></trkpt><trkpt lat="40.1385533" lon="8.6659933"><ele>509.0</ele><time>2026-05-02T09:21:39.353Z</time></trkpt><trkpt lat="40.1386833" lon="8.6658617"><ele>510.0</ele><time>2026-05-02T09:21:40.353Z</time></trkpt><trkpt lat="40.1388183" lon="8.6657417"><ele>510.0</ele><time>2026-05-02T09:21:41.353Z</time></trkpt><trkpt lat="40.1389433" lon="8.6656383"><ele>510.0</ele><time>2026-05-02T09:21:42.353Z</time></trkpt><trkpt lat="40.1390833" lon="8.66555"><ele>510.0</ele><time>2026-05-02T09:21:43.353Z</time></trkpt><trkpt lat="40.1392017" lon="8.6655283"><ele>510.0</ele><time>2026-05-02T09:21:44.353Z</time></trkpt><trkpt lat="40.13932" lon="8.6655367"><ele>513.25</ele><time>2026-05-02T09:21:45.353Z</time></trkpt><trkpt lat="40.1394567" lon="8.6656"><ele>516.5</ele><time>2026-05-02T09:21:46.353Z</time></trkpt><trkpt lat="40.139565" lon="8.6657067"><ele>519.75</ele><time>2026-05-02T09:21:47.353Z</time></trkpt><trkpt lat="40.13968" lon="8.6658517"><ele>523.0</ele><time>2026-05-02T09:21:48.353Z</time></trkpt><trkpt lat="40.1398167" lon="8.66599"><ele>521.6666666666667</ele><time>2026-05-02T09:21:49.353Z</time></trkpt><trkpt lat="40.1399583" lon="8.6661"><ele>520.3333333333334</ele><time>2026-05-02T09:21:50.353Z</time></trkpt><trkpt lat="40.1401167" lon="8.6661767"><ele>519.0</ele><time>2026-05-02T09:21:51.353Z</time></trkpt><trkpt lat="40.140275" lon="8.6662233"><ele>519.0</ele><time>2026-05-02T09:21:52.353Z</time></trkpt><trkpt lat="40.1404267" lon="8.6662433"><ele>519.0</ele><time>2026-05-02T09:21:53.353Z</time></trkpt><trkpt lat="40.14054" lon="8.6662317"><ele>519.0</ele><time>2026-05-02T09:21:54.353Z</time></trkpt><trkpt lat="40.1406333" lon="8.6661733"><ele>519.0</ele><time>2026-05-02T09:21:55.353Z</time></trkpt><trkpt lat="40.140705" lon="8.666065"><ele>523.0</ele><time>2026-05-02T09:21:56.353Z</time></trkpt><trkpt lat="40.14076" lon="8.6659067"><ele>527.0</ele><time>2026-05-02T09:21:57.353Z</time></trkpt><trkpt lat="40.1407817" lon="8.665705"><ele>531.0</ele><time>2026-05-02T09:21:58.353Z</time></trkpt><trkpt lat="40.1407667" lon="8.6654883"><ele>531.0</ele><time>2026-05-02T09:21:59.353Z</time></trkpt><trkpt lat="40.1407633" lon="8.665275"><ele>531.0</ele><time>2026-05-02T09:22:00.353Z</time></trkpt><trkpt lat="40.1407683" lon="8.6650867"><ele>531.0</ele><time>2026-05-02T09:22:01.353Z</time></trkpt><trkpt lat="40.140775" lon="8.6649367"><ele>531.0</ele><time>2026-05-02T09:22:02.353Z</time></trkpt><trkpt lat="40.1407767" lon="8.6648083"><ele>531.0</ele><time>2026-05-02T09:22:03.353Z</time></trkpt><trkpt lat="40.140785" lon="8.6647017"><ele>531.0</ele><time>2026-05-02T09:22:04.353Z</time></trkpt><trkpt lat="40.1407883" lon="8.6646133"><ele>531.0</ele><time>2026-05-02T09:22:05.353Z</time></trkpt><trkpt lat="40.140785" lon="8.6644683"><ele>531.0</ele><time>2026-05-02T09:22:07.353Z</time></trkpt><trkpt lat="40.14079" lon="8.664345"><ele>531.0</ele><time>2026-05-02T09:22:09.353Z</time></trkpt><trkpt lat="40.14079" lon="8.6642233"><ele>531.0</ele><time>2026-05-02T09:22:11.353Z</time></trkpt><trkpt lat="40.1407883" lon="8.6641167"><ele>531.2</ele><time>2026-05-02T09:22:13.353Z</time></trkpt><trkpt lat="40.1408017" lon="8.6640067"><ele>531.4000000000001</ele><time>2026-05-02T09:22:15.353Z</time></trkpt><trkpt lat="40.1408383" lon="8.6638217"><ele>531.6</ele><time>2026-05-02T09:22:17.353Z</time></trkpt><trkpt lat="40.14087" lon="8.6637033"><ele>531.8000000000001</ele><time>2026-05-02T09:22:18.353Z</time></trkpt><trkpt lat="40.1408917" lon="8.6635717"><ele>532.0</ele><time>2026-05-02T09:22:19.353Z</time></trkpt><trkpt lat="40.1409183" lon="8.663435"><ele>531.5</ele><time>2026-05-02T09:22:20.353Z</time></trkpt><trkpt lat="40.140945" lon="8.6632883"><ele>531.0</ele><time>2026-05-02T09:22:21.353Z</time></trkpt><trkpt lat="40.1409733" lon="8.6631383"><ele>530.5</ele><time>2026-05-02T09:22:22.353Z</time></trkpt><trkpt lat="40.1410067" lon="8.6629883"><ele>530.0</ele><time>2026-05-02T09:22:23.353Z</time></trkpt><trkpt lat="40.1410367" lon="8.6628467"><ele>529.8</ele><time>2026-05-02T09:22:24.353Z</time></trkpt><trkpt lat="40.1410583" lon="8.6627167"><ele>529.6</ele><time>2026-05-02T09:22:25.353Z</time></trkpt><trkpt lat="40.141085" lon="8.6625933"><ele>529.4</ele><time>2026-05-02T09:22:26.353Z</time></trkpt><trkpt lat="40.1411117" lon="8.66248"><ele>529.2</ele><time>2026-05-02T09:22:27.353Z</time></trkpt><trkpt lat="40.1411333" lon="8.662365"><ele>529.0</ele><time>2026-05-02T09:22:28.353Z</time></trkpt><trkpt lat="40.1411517" lon="8.6622367"><ele>529.0</ele><time>2026-05-02T09:22:29.353Z</time></trkpt><trkpt lat="40.1411783" lon="8.6621083"><ele>529.0</ele><time>2026-05-02T09:22:30.353Z</time></trkpt><trkpt lat="40.1412017" lon="8.661985"><ele>529.0</ele><time>2026-05-02T09:22:31.353Z</time></trkpt><trkpt lat="40.1412283" lon="8.66186"><ele>529.0</ele><time>2026-05-02T09:22:32.353Z</time></trkpt><trkpt lat="40.141255" lon="8.661735"><ele>529.0</ele><time>2026-05-02T09:22:33.353Z</time></trkpt><trkpt lat="40.14128" lon="8.6616083"><ele>530.4</ele><time>2026-05-02T09:22:34.353Z</time></trkpt><trkpt lat="40.1413083" lon="8.6614783"><ele>531.8</ele><time>2026-05-02T09:22:35.353Z</time></trkpt><trkpt lat="40.141335" lon="8.6613483"><ele>533.2</ele><time>2026-05-02T09:22:36.353Z</time></trkpt><trkpt lat="40.1413667" lon="8.6612067"><ele>534.6</ele><time>2026-05-02T09:22:37.353Z</time></trkpt><trkpt lat="40.141395" lon="8.6610683"><ele>536.0</ele><time>2026-05-02T09:22:38.353Z</time></trkpt><trkpt lat="40.1414217" lon="8.660915"><ele>537.25</ele><time>2026-05-02T09:22:39.353Z</time></trkpt><trkpt lat="40.1414517" lon="8.6607617"><ele>538.5</ele><time>2026-05-02T09:22:40.353Z</time></trkpt><trkpt lat="40.1414817" lon="8.6606183"><ele>539.75</ele><time>2026-05-02T09:22:41.353Z</time></trkpt><trkpt lat="40.1415133" lon="8.6604683"><ele>541.0</ele><time>2026-05-02T09:22:42.353Z</time></trkpt><trkpt lat="40.1415383" lon="8.6603233"><ele>542.0</ele><time>2026-05-02T09:22:43.353Z</time></trkpt><trkpt lat="40.141565" lon="8.6601783"><ele>543.0</ele><time>2026-05-02T09:22:44.353Z</time></trkpt><trkpt lat="40.1415867" lon="8.6600383"><ele>544.0</ele><time>2026-05-02T09:22:45.353Z</time></trkpt><trkpt lat="40.1416017" lon="8.6598917"><ele>545.0</ele><time>2026-05-02T09:22:46.353Z</time></trkpt><trkpt lat="40.1416117" lon="8.6597433"><ele>545.0</ele><time>2026-05-02T09:22:47.353Z</time></trkpt><trkpt lat="40.1416267" lon="8.6596067"><ele>545.0</ele><time>2026-05-02T09:22:48.353Z</time></trkpt><trkpt lat="40.1416567" lon="8.6594867"><ele>545.0</ele><time>2026-05-02T09:22:49.353Z</time></trkpt><trkpt lat="40.1416967" lon="8.65939"><ele>545.0</ele><time>2026-05-02T09:22:50.353Z</time></trkpt><trkpt lat="40.1417517" lon="8.65932"><ele>545.0</ele><time>2026-05-02T09:22:51.353Z</time></trkpt><trkpt lat="40.1418117" lon="8.6592667"><ele>545.0</ele><time>2026-05-02T09:22:52.353Z</time></trkpt><trkpt lat="40.1418767" lon="8.6592383"><ele>546.0</ele><time>2026-05-02T09:22:53.353Z</time></trkpt><trkpt lat="40.1419767" lon="8.6592183"><ele>547.0</ele><time>2026-05-02T09:22:55.353Z</time></trkpt><trkpt lat="40.14188" lon="8.6591683"><ele>548.0</ele><time>2026-05-02T09:23:00.353Z</time></trkpt><trkpt lat="40.1417717" lon="8.659165"><ele>549.0</ele><time>2026-05-02T09:23:02.353Z</time></trkpt><trkpt lat="40.1416633" lon="8.6592083"><ele>550.0</ele><time>2026-05-02T09:23:06.353Z</time></trkpt><trkpt lat="40.1415617" lon="8.6592967"><ele>549.2</ele><time>2026-05-02T09:23:08.353Z</time></trkpt><trkpt lat="40.1414533" lon="8.6593333"><ele>548.4</ele><time>2026-05-02T09:23:10.353Z</time></trkpt><trkpt lat="40.1413767" lon="8.6593517"><ele>547.6</ele><time>2026-05-02T09:23:12.353Z</time></trkpt><trkpt lat="40.141335" lon="8.6594467"><ele>546.8</ele><time>2026-05-02T09:23:15.353Z</time></trkpt><trkpt lat="40.1414267" lon="8.6595333"><ele>546.0</ele><time>2026-05-02T09:25:43.352Z</time></trkpt><trkpt lat="40.1414767" lon="8.65962"><ele>545.8333333333334</ele><time>2026-05-02T09:25:45.352Z</time></trkpt><trkpt lat="40.1415467" lon="8.6596917"><ele>545.6666666666666</ele><time>2026-05-02T09:25:47.352Z</time></trkpt><trkpt lat="40.14161" lon="8.6597233"><ele>545.5</ele><time>2026-05-02T09:25:49.352Z</time></trkpt><trkpt lat="40.1416617" lon="8.6596067"><ele>545.3333333333333</ele><time>2026-05-02T09:25:51.352Z</time></trkpt><trkpt lat="40.1416833" lon="8.6594933"><ele>545.1666666666666</ele><time>2026-05-02T09:25:52.352Z</time></trkpt><trkpt lat="40.1417233" lon="8.659385"><ele>545.0</ele><time>2026-05-02T09:25:53.352Z</time></trkpt><trkpt lat="40.141775" lon="8.659305"><ele>546.0</ele><time>2026-05-02T09:25:54.352Z</time></trkpt><trkpt lat="40.14185" lon="8.6592583"><ele>547.0</ele><time>2026-05-02T09:25:55.352Z</time></trkpt><trkpt lat="40.14194" lon="8.6592283"><ele>548.0</ele><time>2026-05-02T09:25:56.352Z</time></trkpt><trkpt lat="40.1420417" lon="8.6592233"><ele>549.0</ele><time>2026-05-02T09:25:57.352Z</time></trkpt><trkpt lat="40.1421633" lon="8.659225"><ele>550.0</ele><time>2026-05-02T09:25:58.352Z</time></trkpt><trkpt lat="40.1422883" lon="8.659245"><ele>550.5</ele><time>2026-05-02T09:25:59.352Z</time></trkpt><trkpt lat="40.1424133" lon="8.6592633"><ele>551.0</ele><time>2026-05-02T09:26:00.352Z</time></trkpt><trkpt lat="40.1425233" lon="8.6593"><ele>551.5</ele><time>2026-05-02T09:26:01.352Z</time></trkpt><trkpt lat="40.1426417" lon="8.65934"><ele>552.0</ele><time>2026-05-02T09:26:02.352Z</time></trkpt><trkpt lat="40.1427533" lon="8.6594017"><ele>549.75</ele><time>2026-05-02T09:26:03.352Z</time></trkpt><trkpt lat="40.1428583" lon="8.6594833"><ele>547.5</ele><time>2026-05-02T09:26:04.352Z</time></trkpt><trkpt lat="40.1429667" lon="8.6595883"><ele>545.25</ele><time>2026-05-02T09:26:05.352Z</time></trkpt><trkpt lat="40.1430717" lon="8.6596967"><ele>543.0</ele><time>2026-05-02T09:26:06.352Z</time></trkpt><trkpt lat="40.1431733" lon="8.65979"><ele>545.25</ele><time>2026-05-02T09:26:07.352Z</time></trkpt><trkpt lat="40.1432867" lon="8.65987"><ele>547.5</ele><time>2026-05-02T09:26:08.352Z</time></trkpt><trkpt lat="40.1434033" lon="8.6599383"><ele>549.75</ele><time>2026-05-02T09:26:09.352Z</time></trkpt><trkpt lat="40.1435283" lon="8.6600033"><ele>552.0</ele><time>2026-05-02T09:26:10.352Z</time></trkpt><trkpt lat="40.1436617" lon="8.660055"><ele>552.0</ele><time>2026-05-02T09:26:11.352Z</time></trkpt><trkpt lat="40.1438033" lon="8.6600983"><ele>552.0</ele><time>2026-05-02T09:26:12.352Z</time></trkpt><trkpt lat="40.1439517" lon="8.6601417"><ele>552.0</ele><time>2026-05-02T09:26:13.352Z</time></trkpt><trkpt lat="40.14411" lon="8.6601633"><ele>555.6666666666666</ele><time>2026-05-02T09:26:14.352Z</time></trkpt><trkpt lat="40.1442617" lon="8.660175"><ele>559.3333333333333</ele><time>2026-05-02T09:26:15.352Z</time></trkpt><trkpt lat="40.1444233" lon="8.660175"><ele>563.0</ele><time>2026-05-02T09:26:16.352Z</time></trkpt><trkpt lat="40.1445733" lon="8.6601583"><ele>563.0</ele><time>2026-05-02T09:26:17.352Z</time></trkpt><trkpt lat="40.1447167" lon="8.660105"><ele>563.0</ele><time>2026-05-02T09:26:18.352Z</time></trkpt><trkpt lat="40.14484" lon="8.6599883"><ele>563.0</ele><time>2026-05-02T09:26:19.352Z</time></trkpt><trkpt lat="40.14494" lon="8.65984"><ele>562.0</ele><time>2026-05-02T09:26:20.352Z</time></trkpt><trkpt lat="40.1450217" lon="8.6596467"><ele>561.0</ele><time>2026-05-02T09:26:21.352Z</time></trkpt><trkpt lat="40.1451033" lon="8.6594433"><ele>560.0</ele><time>2026-05-02T09:26:22.352Z</time></trkpt><trkpt lat="40.1451933" lon="8.6592383"><ele>563.3333333333333</ele><time>2026-05-02T09:26:23.352Z</time></trkpt><trkpt lat="40.1452967" lon="8.6590383"><ele>566.6666666666666</ele><time>2026-05-02T09:26:24.352Z</time></trkpt><trkpt lat="40.1454133" lon="8.6588467"><ele>570.0</ele><time>2026-05-02T09:26:25.352Z</time></trkpt><trkpt lat="40.1455433" lon="8.65867"><ele>572.3333333333334</ele><time>2026-05-02T09:26:26.352Z</time></trkpt><trkpt lat="40.145705" lon="8.6585017"><ele>574.6666666666667</ele><time>2026-05-02T09:26:27.352Z</time></trkpt><trkpt lat="40.1458917" lon="8.65835"><ele>577.0</ele><time>2026-05-02T09:26:28.352Z</time></trkpt><trkpt lat="40.1460717" lon="8.65818"><ele>577.0</ele><time>2026-05-02T09:26:29.352Z</time></trkpt><trkpt lat="40.1462383" lon="8.65799"><ele>577.0</ele><time>2026-05-02T09:26:30.352Z</time></trkpt><trkpt lat="40.1463817" lon="8.6577983"><ele>577.0</ele><time>2026-05-02T09:26:31.352Z</time></trkpt><trkpt lat="40.1464983" lon="8.6576033"><ele>577.6666666666667</ele><time>2026-05-02T09:26:32.352Z</time></trkpt><trkpt lat="40.1465983" lon="8.6573933"><ele>578.3333333333334</ele><time>2026-05-02T09:26:33.352Z</time></trkpt><trkpt lat="40.1466917" lon="8.6572017"><ele>579.0</ele><time>2026-05-02T09:26:34.352Z</time></trkpt><trkpt lat="40.146775" lon="8.65699"><ele>582.6666666666666</ele><time>2026-05-02T09:26:35.352Z</time></trkpt><trkpt lat="40.1468433" lon="8.65677"><ele>586.3333333333333</ele><time>2026-05-02T09:26:36.352Z</time></trkpt><trkpt lat="40.1469217" lon="8.6565683"><ele>590.0</ele><time>2026-05-02T09:26:37.352Z</time></trkpt><trkpt lat="40.1469917" lon="8.6563767"><ele>590.0</ele><time>2026-05-02T09:26:38.352Z</time></trkpt><trkpt lat="40.1470517" lon="8.6561933"><ele>590.0</ele><time>2026-05-02T09:26:39.352Z</time></trkpt><trkpt lat="40.14706" lon="8.65597"><ele>590.0</ele><time>2026-05-02T09:26:40.352Z</time></trkpt><trkpt lat="40.1470667" lon="8.655725"><ele>593.0</ele><time>2026-05-02T09:26:41.352Z</time></trkpt><trkpt lat="40.1470867" lon="8.6555"><ele>596.0</ele><time>2026-05-02T09:26:42.352Z</time></trkpt><trkpt lat="40.1471283" lon="8.6553367"><ele>599.0</ele><time>2026-05-02T09:26:43.352Z</time></trkpt><trkpt lat="40.147175" lon="8.6552383"><ele>602.0</ele><time>2026-05-02T09:26:44.352Z</time></trkpt><trkpt lat="40.1472283" lon="8.6551733"><ele>601.8000000000001</ele><time>2026-05-02T09:26:45.352Z</time></trkpt><trkpt lat="40.1473033" lon="8.65515"><ele>601.6</ele><time>2026-05-02T09:26:46.352Z</time></trkpt><trkpt lat="40.1473817" lon="8.6551967"><ele>601.4000000000001</ele><time>2026-05-02T09:26:47.352Z</time></trkpt><trkpt lat="40.1474467" lon="8.6552733"><ele>601.2</ele><time>2026-05-02T09:26:48.352Z</time></trkpt><trkpt lat="40.1474867" lon="8.6553833"><ele>601.0</ele><time>2026-05-02T09:26:49.352Z</time></trkpt><trkpt lat="40.1475183" lon="8.65562"><ele>600.6666666666667</ele><time>2026-05-02T09:26:50.352Z</time></trkpt><trkpt lat="40.1475533" lon="8.655865"><ele>600.3333333333334</ele><time>2026-05-02T09:26:51.352Z</time></trkpt><trkpt lat="40.14759" lon="8.6561267"><ele>600.0</ele><time>2026-05-02T09:26:52.352Z</time></trkpt><trkpt lat="40.147645" lon="8.65642"><ele>599.0</ele><time>2026-05-02T09:26:53.352Z</time></trkpt><trkpt lat="40.1476783" lon="8.656705"><ele>598.0</ele><time>2026-05-02T09:26:54.352Z</time></trkpt><trkpt lat="40.1477217" lon="8.6570183"><ele>598.0</ele><time>2026-05-02T09:26:55.352Z</time></trkpt><trkpt lat="40.1477417" lon="8.6573567"><ele>598.0</ele><time>2026-05-02T09:26:56.352Z</time></trkpt><trkpt lat="40.1477433" lon="8.6577033"><ele>600.0</ele><time>2026-05-02T09:26:57.352Z</time></trkpt><trkpt lat="40.14774" lon="8.6580533"><ele>602.0</ele><time>2026-05-02T09:26:58.352Z</time></trkpt><trkpt lat="40.1477267" lon="8.6583717"><ele>602.0</ele><time>2026-05-02T09:26:59.352Z</time></trkpt><trkpt lat="40.14773" lon="8.6586"><ele>602.0</ele><time>2026-05-02T09:27:00.352Z</time></trkpt><trkpt lat="40.1477533" lon="8.65877"><ele>602.0</ele><time>2026-05-02T09:27:01.352Z</time></trkpt><trkpt lat="40.1478217" lon="8.6589033"><ele>602.0</ele><time>2026-05-02T09:27:02.352Z</time></trkpt><trkpt lat="40.14792" lon="8.6589983"><ele>602.75</ele><time>2026-05-02T09:27:03.352Z</time></trkpt><trkpt lat="40.1480567" lon="8.659055"><ele>603.5</ele><time>2026-05-02T09:27:04.352Z</time></trkpt><trkpt lat="40.14819" lon="8.659095"><ele>604.25</ele><time>2026-05-02T09:27:05.352Z</time></trkpt><trkpt lat="40.1482933" lon="8.6591333"><ele>605.0</ele><time>2026-05-02T09:27:06.352Z</time></trkpt><trkpt lat="40.14838" lon="8.6592333"><ele>607.75</ele><time>2026-05-02T09:27:07.353Z</time></trkpt><trkpt lat="40.148435" lon="8.6593883"><ele>610.5</ele><time>2026-05-02T09:27:08.352Z</time></trkpt><trkpt lat="40.1484467" lon="8.65957"><ele>613.25</ele><time>2026-05-02T09:27:09.352Z</time></trkpt><trkpt lat="40.1484433" lon="8.6597567"><ele>616.0</ele><time>2026-05-02T09:27:10.352Z</time></trkpt><trkpt lat="40.1484517" lon="8.6599483"><ele>616.0</ele><time>2026-05-02T09:27:11.352Z</time></trkpt><trkpt lat="40.1485167" lon="8.6601583"><ele>616.0</ele><time>2026-05-02T09:27:12.352Z</time></trkpt><trkpt lat="40.14861" lon="8.66039"><ele>616.0</ele><time>2026-05-02T09:27:13.352Z</time></trkpt><trkpt lat="40.148705" lon="8.66064"><ele>616.3333333333334</ele><time>2026-05-02T09:27:14.352Z</time></trkpt><trkpt lat="40.1488183" lon="8.660845"><ele>616.6666666666666</ele><time>2026-05-02T09:27:15.352Z</time></trkpt><trkpt lat="40.1489367" lon="8.66101"><ele>617.0</ele><time>2026-05-02T09:27:16.352Z</time></trkpt><trkpt lat="40.1490667" lon="8.6611583"><ele>617.0</ele><time>2026-05-02T09:27:17.352Z</time></trkpt><trkpt lat="40.149215" lon="8.66129"><ele>617.0</ele><time>2026-05-02T09:27:18.352Z</time></trkpt><trkpt lat="40.1493733" lon="8.6614067"><ele>617.0</ele><time>2026-05-02T09:27:19.352Z</time></trkpt><trkpt lat="40.1495317" lon="8.6614917"><ele>617.0</ele><time>2026-05-02T09:27:20.352Z</time></trkpt><trkpt lat="40.149705" lon="8.6615567"><ele>617.0</ele><time>2026-05-02T09:27:21.352Z</time></trkpt><trkpt lat="40.1498883" lon="8.6615967"><ele>617.0</ele><time>2026-05-02T09:27:22.352Z</time></trkpt><trkpt lat="40.15007" lon="8.6616217"><ele>620.6666666666666</ele><time>2026-05-02T09:27:23.352Z</time></trkpt><trkpt lat="40.150245" lon="8.6616133"><ele>624.3333333333334</ele><time>2026-05-02T09:27:24.352Z</time></trkpt><trkpt lat="40.1504133" lon="8.6615767"><ele>628.0</ele><time>2026-05-02T09:27:25.352Z</time></trkpt><trkpt lat="40.1505733" lon="8.6615233"><ele>629.6666666666667</ele><time>2026-05-02T09:27:26.352Z</time></trkpt><trkpt lat="40.1507333" lon="8.6614267"><ele>631.3333333333334</ele><time>2026-05-02T09:27:27.352Z</time></trkpt><trkpt lat="40.1508967" lon="8.661305"><ele>633.0</ele><time>2026-05-02T09:27:28.352Z</time></trkpt><trkpt lat="40.1510683" lon="8.6611633"><ele>637.3333333333334</ele><time>2026-05-02T09:27:29.352Z</time></trkpt><trkpt lat="40.1512267" lon="8.6610217"><ele>641.6666666666667</ele><time>2026-05-02T09:27:30.352Z</time></trkpt><trkpt lat="40.1513667" lon="8.66088"><ele>646.0</ele><time>2026-05-02T09:27:31.352Z</time></trkpt><trkpt lat="40.1515083" lon="8.6607283"><ele>644.3333333333334</ele><time>2026-05-02T09:27:32.352Z</time></trkpt><trkpt lat="40.15165" lon="8.6605817"><ele>642.6666666666666</ele><time>2026-05-02T09:27:33.352Z</time></trkpt><trkpt lat="40.151815" lon="8.6604767"><ele>641.0</ele><time>2026-05-02T09:27:34.352Z</time></trkpt><trkpt lat="40.151995" lon="8.6603917"><ele>641.0</ele><time>2026-05-02T09:27:35.352Z</time></trkpt><trkpt lat="40.1522067" lon="8.660325"><ele>641.0</ele><time>2026-05-02T09:27:36.352Z</time></trkpt><trkpt lat="40.152415" lon="8.6602917"><ele>641.0</ele><time>2026-05-02T09:27:37.352Z</time></trkpt><trkpt lat="40.15261" lon="8.6602917"><ele>641.3333333333333</ele><time>2026-05-02T09:27:38.352Z</time></trkpt><trkpt lat="40.1527933" lon="8.6603917"><ele>641.6666666666666</ele><time>2026-05-02T09:27:39.352Z</time></trkpt><trkpt lat="40.15296" lon="8.660535"><ele>642.0</ele><time>2026-05-02T09:27:40.352Z</time></trkpt><trkpt lat="40.1530967" lon="8.66065"><ele>643.75</ele><time>2026-05-02T09:27:41.352Z</time></trkpt><trkpt lat="40.1532333" lon="8.660715"><ele>645.5</ele><time>2026-05-02T09:27:42.352Z</time></trkpt><trkpt lat="40.153375" lon="8.660705"><ele>647.25</ele><time>2026-05-02T09:27:43.352Z</time></trkpt><trkpt lat="40.15352" lon="8.6606467"><ele>649.0</ele><time>2026-05-02T09:27:44.352Z</time></trkpt><trkpt lat="40.15365" lon="8.66052"><ele>649.0</ele><time>2026-05-02T09:27:45.352Z</time></trkpt><trkpt lat="40.153775" lon="8.6603317"><ele>649.0</ele><time>2026-05-02T09:27:46.352Z</time></trkpt><trkpt lat="40.1538817" lon="8.6601017"><ele>649.0</ele><time>2026-05-02T09:27:47.352Z</time></trkpt><trkpt lat="40.1539767" lon="8.6598167"><ele>648.0</ele><time>2026-05-02T09:27:48.352Z</time></trkpt><trkpt lat="40.15406" lon="8.6595317"><ele>647.0</ele><time>2026-05-02T09:27:49.352Z</time></trkpt><trkpt lat="40.1541617" lon="8.65926"><ele>655.0</ele><time>2026-05-02T09:27:50.352Z</time></trkpt><trkpt lat="40.1542917" lon="8.6589967"><ele>663.0</ele><time>2026-05-02T09:27:51.352Z</time></trkpt><trkpt lat="40.1544317" lon="8.6587617"><ele>669.5</ele><time>2026-05-02T09:27:52.352Z</time></trkpt><trkpt lat="40.1545917" lon="8.6585483"><ele>676.0</ele><time>2026-05-02T09:27:53.352Z</time></trkpt><trkpt lat="40.1547683" lon="8.6583483"><ele>670.5</ele><time>2026-05-02T09:27:54.352Z</time></trkpt><trkpt lat="40.1549533" lon="8.658165"><ele>665.0</ele><time>2026-05-02T09:27:55.352Z</time></trkpt><trkpt lat="40.155155" lon="8.6579767"><ele>674.5</ele><time>2026-05-02T09:27:56.352Z</time></trkpt><trkpt lat="40.155365" lon="8.65778"><ele>684.0</ele><time>2026-05-02T09:27:57.352Z</time></trkpt><trkpt lat="40.1555683" lon="8.6575633"><ele>677.0</ele><time>2026-05-02T09:27:58.352Z</time></trkpt><trkpt lat="40.1557733" lon="8.6573417"><ele>670.0</ele><time>2026-05-02T09:27:59.352Z</time></trkpt><trkpt lat="40.15598" lon="8.6571017"><ele>681.0</ele><time>2026-05-02T09:28:00.352Z</time></trkpt><trkpt lat="40.1561917" lon="8.6568683"><ele>692.0</ele><time>2026-05-02T09:28:01.352Z</time></trkpt><trkpt lat="40.1564133" lon="8.6566633"><ele>686.5</ele><time>2026-05-02T09:28:02.352Z</time></trkpt><trkpt lat="40.156615" lon="8.656475"><ele>681.0</ele><time>2026-05-02T09:28:03.352Z</time></trkpt><trkpt lat="40.1568333" lon="8.656315"><ele>681.0</ele><time>2026-05-02T09:28:04.352Z</time></trkpt><trkpt lat="40.1570367" lon="8.6561567"><ele>681.0</ele><time>2026-05-02T09:28:05.352Z</time></trkpt><trkpt lat="40.1572267" lon="8.6559733"><ele>686.5</ele><time>2026-05-02T09:28:06.352Z</time></trkpt><trkpt lat="40.1574167" lon="8.6557733"><ele>692.0</ele><time>2026-05-02T09:28:07.352Z</time></trkpt><trkpt lat="40.1575683" lon="8.6555867"><ele>692.0</ele><time>2026-05-02T09:28:08.352Z</time></trkpt><trkpt lat="40.1576983" lon="8.6554117"><ele>692.0</ele><time>2026-05-02T09:28:09.352Z</time></trkpt><trkpt lat="40.15781" lon="8.6552917"><ele>692.0</ele><time>2026-05-02T09:28:10.352Z</time></trkpt><trkpt lat="40.1578983" lon="8.6552333"><ele>692.0</ele><time>2026-05-02T09:28:11.352Z</time></trkpt><trkpt lat="40.1579917" lon="8.6552483"><ele>692.0</ele><time>2026-05-02T09:28:12.352Z</time></trkpt><trkpt lat="40.1581017" lon="8.6553417"><ele>692.0</ele><time>2026-05-02T09:28:13.352Z</time></trkpt><trkpt lat="40.1581667" lon="8.6554583"><ele>692.0</ele><time>2026-05-02T09:28:14.352Z</time></trkpt><trkpt lat="40.1582017" lon="8.6556367"><ele>692.0</ele><time>2026-05-02T09:28:15.352Z</time></trkpt><trkpt lat="40.1581817" lon="8.6558433"><ele>692.0</ele><time>2026-05-02T09:28:16.352Z</time></trkpt><trkpt lat="40.158135" lon="8.6560683"><ele>692.0</ele><time>2026-05-02T09:28:17.352Z</time></trkpt><trkpt lat="40.1580983" lon="8.6563267"><ele>692.0</ele><time>2026-05-02T09:28:18.352Z</time></trkpt><trkpt lat="40.1580533" lon="8.65658"><ele>688.5</ele><time>2026-05-02T09:28:19.352Z</time></trkpt><trkpt lat="40.1580067" lon="8.6568533"><ele>685.0</ele><time>2026-05-02T09:28:20.352Z</time></trkpt><trkpt lat="40.1579633" lon="8.65716"><ele>685.0</ele><time>2026-05-02T09:28:21.352Z</time></trkpt><trkpt lat="40.15793" lon="8.6574717"><ele>685.0</ele><time>2026-05-02T09:28:22.352Z</time></trkpt><trkpt lat="40.1578883" lon="8.6578017"><ele>687.5</ele><time>2026-05-02T09:28:23.352Z</time></trkpt><trkpt lat="40.1578483" lon="8.6581467"><ele>690.0</ele><time>2026-05-02T09:28:24.352Z</time></trkpt><trkpt lat="40.1577983" lon="8.6584883"><ele>692.3333333333334</ele><time>2026-05-02T09:28:25.352Z</time></trkpt><trkpt lat="40.15775" lon="8.6587983"><ele>694.6666666666667</ele><time>2026-05-02T09:28:26.352Z</time></trkpt><trkpt lat="40.157715" lon="8.6590633"><ele>697.0</ele><time>2026-05-02T09:28:27.352Z</time></trkpt><trkpt lat="40.15769" lon="8.65929"><ele>695.6666666666667</ele><time>2026-05-02T09:28:28.352Z</time></trkpt><trkpt lat="40.15771" lon="8.6595033"><ele>694.3333333333334</ele><time>2026-05-02T09:28:29.352Z</time></trkpt><trkpt lat="40.1577817" lon="8.6596867"><ele>693.0</ele><time>2026-05-02T09:28:30.352Z</time></trkpt><trkpt lat="40.1578967" lon="8.6598533"><ele>693.0</ele><time>2026-05-02T09:28:31.352Z</time></trkpt><trkpt lat="40.1580417" lon="8.6600183"><ele>693.0</ele><time>2026-05-02T09:28:32.352Z</time></trkpt><trkpt lat="40.15821" lon="8.6601767"><ele>693.0</ele><time>2026-05-02T09:28:33.352Z</time></trkpt><trkpt lat="40.1583867" lon="8.6603217"><ele>696.3333333333334</ele><time>2026-05-02T09:28:34.352Z</time></trkpt><trkpt lat="40.1585433" lon="8.6604417"><ele>699.6666666666667</ele><time>2026-05-02T09:28:35.352Z</time></trkpt><trkpt lat="40.1586917" lon="8.6605083"><ele>703.0</ele><time>2026-05-02T09:28:36.352Z</time></trkpt><trkpt lat="40.1588467" lon="8.6605183"><ele>703.0</ele><time>2026-05-02T09:28:37.352Z</time></trkpt><trkpt lat="40.1590083" lon="8.6604567"><ele>703.0</ele><time>2026-05-02T09:28:38.352Z</time></trkpt><trkpt lat="40.1591767" lon="8.6603517"><ele>703.0</ele><time>2026-05-02T09:28:39.352Z</time></trkpt><trkpt lat="40.15935" lon="8.6602267"><ele>707.0</ele><time>2026-05-02T09:28:40.352Z</time></trkpt><trkpt lat="40.15952" lon="8.6600683"><ele>711.0</ele><time>2026-05-02T09:28:41.352Z</time></trkpt><trkpt lat="40.159705" lon="8.6599283"><ele>715.0</ele><time>2026-05-02T09:28:42.352Z</time></trkpt><trkpt lat="40.1599033" lon="8.6597817"><ele>715.0</ele><time>2026-05-02T09:28:43.352Z</time></trkpt><trkpt lat="40.1601033" lon="8.6596483"><ele>715.0</ele><time>2026-05-02T09:28:44.352Z</time></trkpt><trkpt lat="40.160285" lon="8.6595583"><ele>715.0</ele><time>2026-05-02T09:28:45.352Z</time></trkpt><trkpt lat="40.1604617" lon="8.6595417"><ele>715.0</ele><time>2026-05-02T09:28:46.352Z</time></trkpt><trkpt lat="40.160615" lon="8.6596033"><ele>715.0</ele><time>2026-05-02T09:28:47.352Z</time></trkpt><trkpt lat="40.1607783" lon="8.6597133"><ele>715.0</ele><time>2026-05-02T09:28:48.352Z</time></trkpt><trkpt lat="40.160945" lon="8.6598933"><ele>716.0</ele><time>2026-05-02T09:28:49.352Z</time></trkpt><trkpt lat="40.1610917" lon="8.6601017"><ele>717.0</ele><time>2026-05-02T09:28:50.352Z</time></trkpt><trkpt lat="40.1612267" lon="8.6603317"><ele>718.0</ele><time>2026-05-02T09:28:51.352Z</time></trkpt><trkpt lat="40.1613617" lon="8.66055"><ele>718.0</ele><time>2026-05-02T09:28:52.352Z</time></trkpt><trkpt lat="40.1615317" lon="8.66073"><ele>718.0</ele><time>2026-05-02T09:28:53.352Z</time></trkpt><trkpt lat="40.1617183" lon="8.6608917"><ele>718.0</ele><time>2026-05-02T09:28:54.352Z</time></trkpt><trkpt lat="40.1619117" lon="8.6610417"><ele>718.3333333333334</ele><time>2026-05-02T09:28:55.352Z</time></trkpt><trkpt lat="40.16208" lon="8.6611433"><ele>718.6666666666666</ele><time>2026-05-02T09:28:56.352Z</time></trkpt><trkpt lat="40.1622367" lon="8.6612167"><ele>719.0</ele><time>2026-05-02T09:28:57.352Z</time></trkpt><trkpt lat="40.1623867" lon="8.6612133"><ele>719.0</ele><time>2026-05-02T09:28:58.352Z</time></trkpt><trkpt lat="40.1625533" lon="8.661155"><ele>719.0</ele><time>2026-05-02T09:28:59.352Z</time></trkpt><trkpt lat="40.1627033" lon="8.6610417"><ele>719.0</ele><time>2026-05-02T09:29:00.352Z</time></trkpt><trkpt lat="40.162845" lon="8.6609167"><ele>724.6666666666666</ele><time>2026-05-02T09:29:01.352Z</time></trkpt><trkpt lat="40.162965" lon="8.6607483"><ele>730.3333333333334</ele><time>2026-05-02T09:29:02.352Z</time></trkpt><trkpt lat="40.1630533" lon="8.660525"><ele>736.0</ele><time>2026-05-02T09:29:03.352Z</time></trkpt><trkpt lat="40.1631567" lon="8.6603067"><ele>734.6666666666667</ele><time>2026-05-02T09:29:04.352Z</time></trkpt><trkpt lat="40.1632633" lon="8.6601233"><ele>733.3333333333334</ele><time>2026-05-02T09:29:05.352Z</time></trkpt><trkpt lat="40.1633483" lon="8.6599333"><ele>732.0</ele><time>2026-05-02T09:29:06.352Z</time></trkpt><trkpt lat="40.1633867" lon="8.6597383"><ele>732.0</ele><time>2026-05-02T09:29:07.352Z</time></trkpt><trkpt lat="40.1633583" lon="8.6595283"><ele>732.0</ele><time>2026-05-02T09:29:08.352Z</time></trkpt><trkpt lat="40.1633" lon="8.65932"><ele>732.0</ele><time>2026-05-02T09:29:09.352Z</time></trkpt><trkpt lat="40.1632267" lon="8.659085"><ele>737.0</ele><time>2026-05-02T09:29:10.352Z</time></trkpt><trkpt lat="40.1631467" lon="8.65883"><ele>742.0</ele><time>2026-05-02T09:29:11.352Z</time></trkpt><trkpt lat="40.1630717" lon="8.65856"><ele>747.0</ele><time>2026-05-02T09:29:12.352Z</time></trkpt><trkpt lat="40.1629933" lon="8.6582967"><ele>747.0</ele><time>2026-05-02T09:29:13.352Z</time></trkpt><trkpt lat="40.16292" lon="8.6580917"><ele>747.0</ele><time>2026-05-02T09:29:14.352Z</time></trkpt><trkpt lat="40.162845" lon="8.6579083"><ele>747.0</ele><time>2026-05-02T09:29:15.352Z</time></trkpt><trkpt lat="40.162725" lon="8.65778"><ele>746.3333333333334</ele><time>2026-05-02T09:29:16.351Z</time></trkpt><trkpt lat="40.1625533" lon="8.657695"><ele>745.6666666666667</ele><time>2026-05-02T09:29:17.351Z</time></trkpt><trkpt lat="40.1623733" lon="8.6576267"><ele>745.0</ele><time>2026-05-02T09:29:18.351Z</time></trkpt><trkpt lat="40.162225" lon="8.6575483"><ele>745.0</ele><time>2026-05-02T09:29:19.351Z</time></trkpt><trkpt lat="40.1621133" lon="8.657455"><ele>745.0</ele><time>2026-05-02T09:29:20.351Z</time></trkpt><trkpt lat="40.16203" lon="8.657325"><ele>745.0</ele><time>2026-05-02T09:29:21.351Z</time></trkpt><trkpt lat="40.1619683" lon="8.6571533"><ele>745.0</ele><time>2026-05-02T09:29:22.351Z</time></trkpt><trkpt lat="40.1619483" lon="8.6569833"><ele>745.5</ele><time>2026-05-02T09:29:23.351Z</time></trkpt><trkpt lat="40.1619533" lon="8.656805"><ele>746.0</ele><time>2026-05-02T09:29:24.351Z</time></trkpt><trkpt lat="40.161985" lon="8.6566117"><ele>746.5</ele><time>2026-05-02T09:29:25.351Z</time></trkpt><trkpt lat="40.1620367" lon="8.6564167"><ele>747.0</ele><time>2026-05-02T09:29:26.351Z</time></trkpt><trkpt lat="40.1620867" lon="8.6561933"><ele>748.6666666666666</ele><time>2026-05-02T09:29:27.351Z</time></trkpt><trkpt lat="40.1621333" lon="8.6559667"><ele>750.3333333333333</ele><time>2026-05-02T09:29:28.351Z</time></trkpt><trkpt lat="40.1621783" lon="8.65573"><ele>752.0</ele><time>2026-05-02T09:29:29.351Z</time></trkpt><trkpt lat="40.1622367" lon="8.65551"><ele>752.0</ele><time>2026-05-02T09:29:30.351Z</time></trkpt><trkpt lat="40.1623217" lon="8.6553367"><ele>752.0</ele><time>2026-05-02T09:29:31.351Z</time></trkpt><trkpt lat="40.162445" lon="8.6552117"><ele>752.0</ele><time>2026-05-02T09:29:32.351Z</time></trkpt><trkpt lat="40.1625867" lon="8.6551367"><ele>754.0</ele><time>2026-05-02T09:29:33.351Z</time></trkpt><trkpt lat="40.162765" lon="8.6551083"><ele>756.0</ele><time>2026-05-02T09:29:34.351Z</time></trkpt><trkpt lat="40.1629583" lon="8.6551133"><ele>758.0</ele><time>2026-05-02T09:29:35.351Z</time></trkpt><trkpt lat="40.163175" lon="8.6551533"><ele>755.5</ele><time>2026-05-02T09:29:36.351Z</time></trkpt><trkpt lat="40.163405" lon="8.6552283"><ele>753.0</ele><time>2026-05-02T09:29:37.351Z</time></trkpt><trkpt lat="40.1636433" lon="8.6553317"><ele>753.0</ele><time>2026-05-02T09:29:38.351Z</time></trkpt><trkpt lat="40.163885" lon="8.65541"><ele>753.0</ele><time>2026-05-02T09:29:39.351Z</time></trkpt><trkpt lat="40.16414" lon="8.6554633"><ele>755.5</ele><time>2026-05-02T09:29:40.351Z</time></trkpt><trkpt lat="40.1643933" lon="8.6554967"><ele>758.0</ele><time>2026-05-02T09:29:41.351Z</time></trkpt><trkpt lat="40.1646267" lon="8.655515"><ele>758.0</ele><time>2026-05-02T09:29:42.351Z</time></trkpt><trkpt lat="40.164825" lon="8.655565"><ele>758.0</ele><time>2026-05-02T09:29:43.351Z</time></trkpt><trkpt lat="40.1650017" lon="8.6556683"><ele>758.0</ele><time>2026-05-02T09:29:44.351Z</time></trkpt><trkpt lat="40.16517" lon="8.6558083"><ele>757.6666666666666</ele><time>2026-05-02T09:29:45.351Z</time></trkpt><trkpt lat="40.1653267" lon="8.655975"><ele>757.3333333333334</ele><time>2026-05-02T09:29:46.351Z</time></trkpt><trkpt lat="40.1654617" lon="8.6561617"><ele>757.0</ele><time>2026-05-02T09:29:47.351Z</time></trkpt><trkpt lat="40.16557" lon="8.6563833"><ele>757.0</ele><time>2026-05-02T09:29:48.351Z</time></trkpt><trkpt lat="40.1656483" lon="8.6566117"><ele>757.0</ele><time>2026-05-02T09:29:49.351Z</time></trkpt><trkpt lat="40.1657167" lon="8.6568133"><ele>757.0</ele><time>2026-05-02T09:29:50.351Z</time></trkpt><trkpt lat="40.1657967" lon="8.65696"><ele>758.25</ele><time>2026-05-02T09:29:51.351Z</time></trkpt><trkpt lat="40.16591" lon="8.6570433"><ele>759.5</ele><time>2026-05-02T09:29:52.351Z</time></trkpt><trkpt lat="40.1660417" lon="8.6570617"><ele>760.75</ele><time>2026-05-02T09:29:53.351Z</time></trkpt><trkpt lat="40.16619" lon="8.6570317"><ele>762.0</ele><time>2026-05-02T09:29:54.351Z</time></trkpt><trkpt lat="40.166345" lon="8.6569633"><ele>767.3333333333333</ele><time>2026-05-02T09:29:55.351Z</time></trkpt><trkpt lat="40.1665133" lon="8.6569067"><ele>772.6666666666666</ele><time>2026-05-02T09:29:56.351Z</time></trkpt><trkpt lat="40.1666933" lon="8.65685"><ele>778.0</ele><time>2026-05-02T09:29:57.351Z</time></trkpt><trkpt lat="40.1668767" lon="8.6568067"><ele>780.3333333333333</ele><time>2026-05-02T09:29:58.351Z</time></trkpt><trkpt lat="40.1670683" lon="8.6567733"><ele>782.6666666666667</ele><time>2026-05-02T09:29:59.351Z</time></trkpt><trkpt lat="40.1672633" lon="8.6567533"><ele>785.0</ele><time>2026-05-02T09:30:00.351Z</time></trkpt><trkpt lat="40.167465" lon="8.6567433"><ele>786.0</ele><time>2026-05-02T09:30:01.351Z</time></trkpt><trkpt lat="40.167665" lon="8.6567583"><ele>787.0</ele><time>2026-05-02T09:30:02.351Z</time></trkpt><trkpt lat="40.1678583" lon="8.65676"><ele>788.0</ele><time>2026-05-02T09:30:03.351Z</time></trkpt><trkpt lat="40.16806" lon="8.6567417"><ele>788.3333333333334</ele><time>2026-05-02T09:30:04.351Z</time></trkpt><trkpt lat="40.168255" lon="8.6567"><ele>788.6666666666667</ele><time>2026-05-02T09:30:05.351Z</time></trkpt><trkpt lat="40.1684383" lon="8.6566417"><ele>789.0</ele><time>2026-05-02T09:30:06.351Z</time></trkpt><trkpt lat="40.1686167" lon="8.6565583"><ele>789.0</ele><time>2026-05-02T09:30:07.351Z</time></trkpt><trkpt lat="40.1687917" lon="8.656455"><ele>789.0</ele><time>2026-05-02T09:30:08.351Z</time></trkpt><trkpt lat="40.1689667" lon="8.65633"><ele>789.0</ele><time>2026-05-02T09:30:09.351Z</time></trkpt><trkpt lat="40.169145" lon="8.656185"><ele>793.3333333333333</ele><time>2026-05-02T09:30:10.351Z</time></trkpt><trkpt lat="40.1693" lon="8.656025"><ele>797.6666666666666</ele><time>2026-05-02T09:30:11.351Z</time></trkpt><trkpt lat="40.16946" lon="8.6558517"><ele>802.0</ele><time>2026-05-02T09:30:12.351Z</time></trkpt><trkpt lat="40.1696133" lon="8.65567"><ele>802.0</ele><time>2026-05-02T09:30:13.351Z</time></trkpt><trkpt lat="40.1697667" lon="8.6555"><ele>802.0</ele><time>2026-05-02T09:30:14.351Z</time></trkpt><trkpt lat="40.1699383" lon="8.6553483"><ele>802.0</ele><time>2026-05-02T09:30:15.351Z</time></trkpt><trkpt lat="40.1701233" lon="8.65521"><ele>801.3333333333333</ele><time>2026-05-02T09:30:16.351Z</time></trkpt><trkpt lat="40.170315" lon="8.6550633"><ele>800.6666666666667</ele><time>2026-05-02T09:30:17.351Z</time></trkpt><trkpt lat="40.170515" lon="8.6549383"><ele>800.0</ele><time>2026-05-02T09:30:18.351Z</time></trkpt><trkpt lat="40.1707217" lon="8.6548333"><ele>800.0</ele><time>2026-05-02T09:30:19.351Z</time></trkpt><trkpt lat="40.1709333" lon="8.6547333"><ele>800.0</ele><time>2026-05-02T09:30:20.351Z</time></trkpt><trkpt lat="40.1711383" lon="8.65463"><ele>800.0</ele><time>2026-05-02T09:30:21.351Z</time></trkpt><trkpt lat="40.1713433" lon="8.6545233"><ele>804.6666666666667</ele><time>2026-05-02T09:30:22.351Z</time></trkpt><trkpt lat="40.1715317" lon="8.6544267"><ele>809.3333333333333</ele><time>2026-05-02T09:30:23.351Z</time></trkpt><trkpt lat="40.171715" lon="8.6543467"><ele>814.0</ele><time>2026-05-02T09:30:24.351Z</time></trkpt><trkpt lat="40.17188" lon="8.6542467"><ele>814.0</ele><time>2026-05-02T09:30:25.351Z</time></trkpt><trkpt lat="40.1720317" lon="8.6541133"><ele>814.0</ele><time>2026-05-02T09:30:26.351Z</time></trkpt><trkpt lat="40.1721417" lon="8.653945"><ele>814.0</ele><time>2026-05-02T09:30:27.351Z</time></trkpt><trkpt lat="40.1722233" lon="8.65375"><ele>816.6666666666666</ele><time>2026-05-02T09:30:28.351Z</time></trkpt><trkpt lat="40.1722917" lon="8.653545"><ele>819.3333333333333</ele><time>2026-05-02T09:30:29.351Z</time></trkpt><trkpt lat="40.1723083" lon="8.6533133"><ele>822.0</ele><time>2026-05-02T09:30:30.351Z</time></trkpt><trkpt lat="40.17229" lon="8.6530533"><ele>822.6666666666667</ele><time>2026-05-02T09:30:31.351Z</time></trkpt><trkpt lat="40.1722367" lon="8.65278"><ele>823.3333333333334</ele><time>2026-05-02T09:30:32.351Z</time></trkpt><trkpt lat="40.1721817" lon="8.6525117"><ele>824.0</ele><time>2026-05-02T09:30:33.351Z</time></trkpt><trkpt lat="40.1721133" lon="8.6522383"><ele>824.0</ele><time>2026-05-02T09:30:34.351Z</time></trkpt><trkpt lat="40.1720217" lon="8.6519683"><ele>824.0</ele><time>2026-05-02T09:30:35.351Z</time></trkpt><trkpt lat="40.1719333" lon="8.651715"><ele>824.0</ele><time>2026-05-02T09:30:36.351Z</time></trkpt><trkpt lat="40.1718433" lon="8.65146"><ele>824.0</ele><time>2026-05-02T09:30:37.351Z</time></trkpt><trkpt lat="40.1717567" lon="8.651215"><ele>824.0</ele><time>2026-05-02T09:30:38.351Z</time></trkpt><trkpt lat="40.1716667" lon="8.6509517"><ele>824.0</ele><time>2026-05-02T09:30:39.351Z</time></trkpt><trkpt lat="40.17157" lon="8.65069"><ele>825.3333333333334</ele><time>2026-05-02T09:30:40.351Z</time></trkpt><trkpt lat="40.1714867" lon="8.6504283"><ele>826.6666666666667</ele><time>2026-05-02T09:30:41.351Z</time></trkpt><trkpt lat="40.1714" lon="8.650175"><ele>828.0</ele><time>2026-05-02T09:30:42.351Z</time></trkpt><trkpt lat="40.17131" lon="8.6499183"><ele>828.0</ele><time>2026-05-02T09:30:43.351Z</time></trkpt><trkpt lat="40.1712417" lon="8.6496883"><ele>828.0</ele><time>2026-05-02T09:30:44.351Z</time></trkpt><trkpt lat="40.1711667" lon="8.649435"><ele>828.0</ele><time>2026-05-02T09:30:45.351Z</time></trkpt><trkpt lat="40.17108" lon="8.6491817"><ele>828.3333333333333</ele><time>2026-05-02T09:30:46.351Z</time></trkpt><trkpt lat="40.1709983" lon="8.6489417"><ele>828.6666666666666</ele><time>2026-05-02T09:30:47.351Z</time></trkpt><trkpt lat="40.170925" lon="8.6487083"><ele>829.0</ele><time>2026-05-02T09:30:48.351Z</time></trkpt><trkpt lat="40.17086" lon="8.6484883"><ele>829.0</ele><time>2026-05-02T09:30:49.351Z</time></trkpt><trkpt lat="40.1708017" lon="8.6482433"><ele>829.0</ele><time>2026-05-02T09:30:50.351Z</time></trkpt><trkpt lat="40.1707567" lon="8.6479733"><ele>829.0</ele><time>2026-05-02T09:30:51.351Z</time></trkpt><trkpt lat="40.170755" lon="8.6477333"><ele>829.0</ele><time>2026-05-02T09:30:52.351Z</time></trkpt><trkpt lat="40.17074" lon="8.6474883"><ele>829.0</ele><time>2026-05-02T09:30:53.351Z</time></trkpt><trkpt lat="40.1707117" lon="8.6472333"><ele>829.0</ele><time>2026-05-02T09:30:54.351Z</time></trkpt><trkpt lat="40.1706817" lon="8.6469783"><ele>832.0</ele><time>2026-05-02T09:30:55.351Z</time></trkpt><trkpt lat="40.170665" lon="8.6467333"><ele>835.0</ele><time>2026-05-02T09:30:56.351Z</time></trkpt><trkpt lat="40.1706617" lon="8.6464883"><ele>838.0</ele><time>2026-05-02T09:30:57.351Z</time></trkpt><trkpt lat="40.17068" lon="8.646255"><ele>836.0</ele><time>2026-05-02T09:30:58.351Z</time></trkpt><trkpt lat="40.1707117" lon="8.6460217"><ele>834.0</ele><time>2026-05-02T09:30:59.351Z</time></trkpt><trkpt lat="40.1707617" lon="8.645775"><ele>832.0</ele><time>2026-05-02T09:31:00.351Z</time></trkpt><trkpt lat="40.17081" lon="8.6455317"><ele>832.0</ele><time>2026-05-02T09:31:01.351Z</time></trkpt><trkpt lat="40.17085" lon="8.6452983"><ele>832.0</ele><time>2026-05-02T09:31:02.351Z</time></trkpt><trkpt lat="40.1708817" lon="8.645065"><ele>832.0</ele><time>2026-05-02T09:31:03.351Z</time></trkpt><trkpt lat="40.17091" lon="8.6448383"><ele>833.75</ele><time>2026-05-02T09:31:04.351Z</time></trkpt><trkpt lat="40.1709167" lon="8.64463"><ele>835.5</ele><time>2026-05-02T09:31:05.351Z</time></trkpt><trkpt lat="40.1709133" lon="8.6444283"><ele>837.25</ele><time>2026-05-02T09:31:06.351Z</time></trkpt><trkpt lat="40.1708967" lon="8.64426"><ele>839.0</ele><time>2026-05-02T09:31:07.351Z</time></trkpt><trkpt lat="40.17086" lon="8.6441167"><ele>839.6666666666667</ele><time>2026-05-02T09:31:08.351Z</time></trkpt><trkpt lat="40.17084" lon="8.644005"><ele>840.3333333333334</ele><time>2026-05-02T09:31:09.351Z</time></trkpt><trkpt lat="40.17081" lon="8.6439283"><ele>841.0</ele><time>2026-05-02T09:31:10.351Z</time></trkpt><trkpt lat="40.1707467" lon="8.6438883"><ele>841.6666666666667</ele><time>2026-05-02T09:31:12.351Z</time></trkpt><trkpt lat="40.17065" lon="8.643975"><ele>842.3333333333334</ele><time>2026-05-02T09:31:14.351Z</time></trkpt><trkpt lat="40.1705667" lon="8.64405"><ele>843.0</ele><time>2026-05-02T09:31:15.351Z</time></trkpt><trkpt lat="40.17045" lon="8.6441217"><ele>845.3333333333333</ele><time>2026-05-02T09:31:16.351Z</time></trkpt><trkpt lat="40.17029" lon="8.64419"><ele>847.6666666666666</ele><time>2026-05-02T09:31:17.351Z</time></trkpt><trkpt lat="40.1701033" lon="8.644235"><ele>850.0</ele><time>2026-05-02T09:31:18.351Z</time></trkpt><trkpt lat="40.1699133" lon="8.6442717"><ele>852.6666666666666</ele><time>2026-05-02T09:31:19.351Z</time></trkpt><trkpt lat="40.1697167" lon="8.6442883"><ele>855.3333333333333</ele><time>2026-05-02T09:31:20.351Z</time></trkpt><trkpt lat="40.1695033" lon="8.6443067"><ele>858.0</ele><time>2026-05-02T09:31:21.351Z</time></trkpt><trkpt lat="40.16928" lon="8.6443117"><ele>858.0</ele><time>2026-05-02T09:31:22.351Z</time></trkpt><trkpt lat="40.1690467" lon="8.644325"><ele>858.0</ele><time>2026-05-02T09:31:23.351Z</time></trkpt><trkpt lat="40.1688217" lon="8.644325"><ele>861.0</ele><time>2026-05-02T09:31:24.351Z</time></trkpt><trkpt lat="40.1685967" lon="8.6443217"><ele>864.0</ele><time>2026-05-02T09:31:25.351Z</time></trkpt><trkpt lat="40.16838" lon="8.6443217"><ele>867.0</ele><time>2026-05-02T09:31:26.351Z</time></trkpt><trkpt lat="40.1681867" lon="8.6443067"><ele>869.3333333333333</ele><time>2026-05-02T09:31:27.351Z</time></trkpt><trkpt lat="40.16801" lon="8.644285"><ele>871.6666666666666</ele><time>2026-05-02T09:31:28.351Z</time></trkpt><trkpt lat="40.1678633" lon="8.6442817"><ele>874.0</ele><time>2026-05-02T09:31:29.351Z</time></trkpt><trkpt lat="40.1677267" lon="8.644315"><ele>874.0</ele><time>2026-05-02T09:31:30.351Z</time></trkpt><trkpt lat="40.167575" lon="8.6443633"><ele>874.0</ele><time>2026-05-02T09:31:31.351Z</time></trkpt><trkpt lat="40.1674167" lon="8.64443"><ele>874.0</ele><time>2026-05-02T09:31:32.351Z</time></trkpt><trkpt lat="40.16725" lon="8.6444767"><ele>874.0</ele><time>2026-05-02T09:31:33.351Z</time></trkpt><trkpt lat="40.1670833" lon="8.6445367"><ele>874.0</ele><time>2026-05-02T09:31:34.351Z</time></trkpt><trkpt lat="40.166925" lon="8.644575"><ele>874.0</ele><time>2026-05-02T09:31:35.351Z</time></trkpt><trkpt lat="40.1667617" lon="8.644575"><ele>874.0</ele><time>2026-05-02T09:31:36.351Z</time></trkpt><trkpt lat="40.166605" lon="8.6445817"><ele>874.0</ele><time>2026-05-02T09:31:37.351Z</time></trkpt><trkpt lat="40.16643" lon="8.644555"><ele>874.0</ele><time>2026-05-02T09:31:38.351Z</time></trkpt><trkpt lat="40.16625" lon="8.6445417"><ele>875.0</ele><time>2026-05-02T09:31:39.351Z</time></trkpt><trkpt lat="40.16607" lon="8.64452"><ele>876.0</ele><time>2026-05-02T09:31:40.351Z</time></trkpt><trkpt lat="40.1659233" lon="8.644505"><ele>877.0</ele><time>2026-05-02T09:31:41.351Z</time></trkpt><trkpt lat="40.1658083" lon="8.6444833"><ele>878.0</ele><time>2026-05-02T09:31:42.351Z</time></trkpt><trkpt lat="40.1657167" lon="8.64447"><ele>879.0</ele><time>2026-05-02T09:31:43.351Z</time></trkpt><trkpt lat="40.1656083" lon="8.64439"><ele>880.0</ele><time>2026-05-02T09:31:45.351Z</time></trkpt><trkpt lat="40.1655967" lon="8.6442367"><ele>881.0</ele><time>2026-05-02T09:31:47.351Z</time></trkpt><trkpt lat="40.16563" lon="8.64415"><ele>882.0</ele><time>2026-05-02T09:31:48.351Z</time></trkpt><trkpt lat="40.16569" lon="8.6440717"><ele>883.0</ele><time>2026-05-02T09:31:49.351Z</time></trkpt><trkpt lat="40.1657717" lon="8.6439967"><ele>883.0</ele><time>2026-05-02T09:31:50.351Z</time></trkpt><trkpt lat="40.1658767" lon="8.6438983"><ele>883.0</ele><time>2026-05-02T09:31:51.351Z</time></trkpt><trkpt lat="40.1659917" lon="8.6437833"><ele>883.0</ele><time>2026-05-02T09:31:52.351Z</time></trkpt><trkpt lat="40.16609" lon="8.64367"><ele>883.0</ele><time>2026-05-02T09:31:53.351Z</time></trkpt><trkpt lat="40.16616" lon="8.6435817"><ele>884.8</ele><time>2026-05-02T09:31:54.351Z</time></trkpt><trkpt lat="40.166215" lon="8.6434767"><ele>886.5999999999999</ele><time>2026-05-02T09:31:55.351Z</time></trkpt><trkpt lat="40.1662467" lon="8.6433667"><ele>888.4000000000001</ele><time>2026-05-02T09:31:56.351Z</time></trkpt><trkpt lat="40.166255" lon="8.6432317"><ele>890.2</ele><time>2026-05-02T09:31:57.351Z</time></trkpt><trkpt lat="40.166235" lon="8.6430933"><ele>892.0</ele><time>2026-05-02T09:31:58.351Z</time></trkpt><trkpt lat="40.1661967" lon="8.6429617"><ele>892.0</ele><time>2026-05-02T09:31:59.351Z</time></trkpt><trkpt lat="40.1661217" lon="8.6428217"><ele>892.0</ele><time>2026-05-02T09:32:00.351Z</time></trkpt><trkpt lat="40.1660233" lon="8.6426933"><ele>892.0</ele><time>2026-05-02T09:32:01.351Z</time></trkpt><trkpt lat="40.1659067" lon="8.6425833"><ele>892.0</ele><time>2026-05-02T09:32:02.351Z</time></trkpt><trkpt lat="40.165775" lon="8.6424483"><ele>894.3333333333333</ele><time>2026-05-02T09:32:03.351Z</time></trkpt><trkpt lat="40.1656283" lon="8.6422783"><ele>896.6666666666667</ele><time>2026-05-02T09:32:04.351Z</time></trkpt><trkpt lat="40.1654733" lon="8.642105"><ele>899.0</ele><time>2026-05-02T09:32:05.351Z</time></trkpt><trkpt lat="40.1653183" lon="8.6419417"><ele>899.6666666666667</ele><time>2026-05-02T09:32:06.351Z</time></trkpt><trkpt lat="40.1651667" lon="8.6417833"><ele>900.3333333333333</ele><time>2026-05-02T09:32:07.351Z</time></trkpt><trkpt lat="40.1650117" lon="8.6416083"><ele>901.0</ele><time>2026-05-02T09:32:08.351Z</time></trkpt><trkpt lat="40.1648583" lon="8.6414317"><ele>903.0</ele><time>2026-05-02T09:32:09.351Z</time></trkpt><trkpt lat="40.1647183" lon="8.6412683"><ele>905.0</ele><time>2026-05-02T09:32:10.351Z</time></trkpt><trkpt lat="40.16459" lon="8.64114"><ele>907.0</ele><time>2026-05-02T09:32:11.351Z</time></trkpt><trkpt lat="40.1644733" lon="8.6410267"><ele>907.5</ele><time>2026-05-02T09:32:12.351Z</time></trkpt><trkpt lat="40.1643583" lon="8.64091"><ele>908.0</ele><time>2026-05-02T09:32:13.351Z</time></trkpt><trkpt lat="40.164265" lon="8.6407883"><ele>908.5</ele><time>2026-05-02T09:32:14.351Z</time></trkpt><trkpt lat="40.16416" lon="8.64066"><ele>909.0</ele><time>2026-05-02T09:32:15.351Z</time></trkpt><trkpt lat="40.1640367" lon="8.6405233"><ele>910.6666666666667</ele><time>2026-05-02T09:32:16.351Z</time></trkpt><trkpt lat="40.163905" lon="8.6403883"><ele>912.3333333333334</ele><time>2026-05-02T09:32:17.351Z</time></trkpt><trkpt lat="40.1637733" lon="8.6402467"><ele>914.0</ele><time>2026-05-02T09:32:18.351Z</time></trkpt><trkpt lat="40.16365" lon="8.6401083"><ele>914.0</ele><time>2026-05-02T09:32:19.351Z</time></trkpt><trkpt lat="40.163525" lon="8.639945"><ele>914.0</ele><time>2026-05-02T09:32:20.351Z</time></trkpt><trkpt lat="40.1633867" lon="8.639795"><ele>914.0</ele><time>2026-05-02T09:32:21.351Z</time></trkpt><trkpt lat="40.1632517" lon="8.639625"><ele>914.6666666666667</ele><time>2026-05-02T09:32:22.351Z</time></trkpt><trkpt lat="40.1631183" lon="8.639465"><ele>915.3333333333333</ele><time>2026-05-02T09:32:23.351Z</time></trkpt><trkpt lat="40.1629683" lon="8.639295"><ele>916.0</ele><time>2026-05-02T09:32:24.351Z</time></trkpt><trkpt lat="40.16281" lon="8.639115"><ele>916.0</ele><time>2026-05-02T09:32:25.351Z</time></trkpt><trkpt lat="40.1626533" lon="8.6389467"><ele>916.0</ele><time>2026-05-02T09:32:26.351Z</time></trkpt><trkpt lat="40.1625067" lon="8.6387767"><ele>916.0</ele><time>2026-05-02T09:32:27.351Z</time></trkpt><trkpt lat="40.1623583" lon="8.6386167"><ele>918.0</ele><time>2026-05-02T09:32:28.351Z</time></trkpt><trkpt lat="40.1621933" lon="8.6384433"><ele>920.0</ele><time>2026-05-02T09:32:29.351Z</time></trkpt><trkpt lat="40.1620417" lon="8.638275"><ele>922.0</ele><time>2026-05-02T09:32:30.351Z</time></trkpt><trkpt lat="40.1618767" lon="8.6381017"><ele>922.0</ele><time>2026-05-02T09:32:31.351Z</time></trkpt><trkpt lat="40.1617233" lon="8.63793"><ele>922.0</ele><time>2026-05-02T09:32:32.351Z</time></trkpt><trkpt lat="40.1615767" lon="8.637755"><ele>922.0</ele><time>2026-05-02T09:32:33.351Z</time></trkpt><trkpt lat="40.1614433" lon="8.6376067"><ele>923.6666666666666</ele><time>2026-05-02T09:32:34.351Z</time></trkpt><trkpt lat="40.1613083" lon="8.6374567"><ele>925.3333333333333</ele><time>2026-05-02T09:32:35.351Z</time></trkpt><trkpt lat="40.1611717" lon="8.6373183"><ele>927.0</ele><time>2026-05-02T09:32:36.351Z</time></trkpt><trkpt lat="40.1610483" lon="8.6371933"><ele>927.0</ele><time>2026-05-02T09:32:37.351Z</time></trkpt><trkpt lat="40.1609333" lon="8.6370683"><ele>927.0</ele><time>2026-05-02T09:32:38.351Z</time></trkpt><trkpt lat="40.1608167" lon="8.6369383"><ele>927.0</ele><time>2026-05-02T09:32:39.351Z</time></trkpt><trkpt lat="40.1606917" lon="8.6368"><ele>929.6666666666667</ele><time>2026-05-02T09:32:40.351Z</time></trkpt><trkpt lat="40.160575" lon="8.63666"><ele>932.3333333333334</ele><time>2026-05-02T09:32:41.351Z</time></trkpt><trkpt lat="40.1604567" lon="8.6365217"><ele>935.0</ele><time>2026-05-02T09:32:42.351Z</time></trkpt><trkpt lat="40.1603267" lon="8.6363867"><ele>935.0</ele><time>2026-05-02T09:32:43.351Z</time></trkpt><trkpt lat="40.1601917" lon="8.63626"><ele>935.0</ele><time>2026-05-02T09:32:44.351Z</time></trkpt><trkpt lat="40.1600533" lon="8.6361383"><ele>935.0</ele><time>2026-05-02T09:32:45.351Z</time></trkpt><trkpt lat="40.1599033" lon="8.636015"><ele>935.3333333333334</ele><time>2026-05-02T09:32:46.351Z</time></trkpt><trkpt lat="40.1597517" lon="8.635885"><ele>935.6666666666667</ele><time>2026-05-02T09:32:47.351Z</time></trkpt><trkpt lat="40.1596117" lon="8.63575"><ele>936.0</ele><time>2026-05-02T09:32:48.351Z</time></trkpt><trkpt lat="40.1594817" lon="8.635625"><ele>936.0</ele><time>2026-05-02T09:32:49.351Z</time></trkpt><trkpt lat="40.1593433" lon="8.6354667"><ele>936.0</ele><time>2026-05-02T09:32:50.351Z</time></trkpt><trkpt lat="40.1592133" lon="8.6353033"><ele>936.0</ele><time>2026-05-02T09:32:51.351Z</time></trkpt><trkpt lat="40.1590967" lon="8.6351367"><ele>937.0</ele><time>2026-05-02T09:32:52.351Z</time></trkpt><trkpt lat="40.15898" lon="8.634965"><ele>938.0</ele><time>2026-05-02T09:32:53.351Z</time></trkpt><trkpt lat="40.1588467" lon="8.6347883"><ele>939.0</ele><time>2026-05-02T09:32:54.351Z</time></trkpt><trkpt lat="40.1587233" lon="8.63461"><ele>940.3333333333333</ele><time>2026-05-02T09:32:55.351Z</time></trkpt><trkpt lat="40.1586183" lon="8.634435"><ele>941.6666666666666</ele><time>2026-05-02T09:32:56.351Z</time></trkpt><trkpt lat="40.1585" lon="8.634245"><ele>943.0</ele><time>2026-05-02T09:32:57.351Z</time></trkpt><trkpt lat="40.15839" lon="8.6340517"><ele>943.0</ele><time>2026-05-02T09:32:58.352Z</time></trkpt><trkpt lat="40.1582933" lon="8.633865"><ele>943.0</ele><time>2026-05-02T09:32:59.351Z</time></trkpt><trkpt lat="40.158195" lon="8.633655"><ele>943.0</ele><time>2026-05-02T09:33:00.351Z</time></trkpt><trkpt lat="40.158105" lon="8.63345"><ele>942.6666666666666</ele><time>2026-05-02T09:33:01.351Z</time></trkpt><trkpt lat="40.1580133" lon="8.633245"><ele>942.3333333333333</ele><time>2026-05-02T09:33:02.351Z</time></trkpt><trkpt lat="40.1579267" lon="8.6330417"><ele>942.0</ele><time>2026-05-02T09:33:03.351Z</time></trkpt><trkpt lat="40.1578517" lon="8.632845"><ele>944.0</ele><time>2026-05-02T09:33:04.351Z</time></trkpt><trkpt lat="40.15776" lon="8.6326267"><ele>946.0</ele><time>2026-05-02T09:33:05.351Z</time></trkpt><trkpt lat="40.1576733" lon="8.63242"><ele>948.0</ele><time>2026-05-02T09:33:06.351Z</time></trkpt><trkpt lat="40.15759" lon="8.6322233"><ele>948.0</ele><time>2026-05-02T09:33:07.351Z</time></trkpt><trkpt lat="40.1575133" lon="8.6320317"><ele>948.0</ele><time>2026-05-02T09:33:08.351Z</time></trkpt><trkpt lat="40.15743" lon="8.6318133"><ele>948.0</ele><time>2026-05-02T09:33:09.351Z</time></trkpt><trkpt lat="40.157345" lon="8.631615"><ele>947.6666666666667</ele><time>2026-05-02T09:33:10.351Z</time></trkpt><trkpt lat="40.1572683" lon="8.631405"><ele>947.3333333333334</ele><time>2026-05-02T09:33:11.351Z</time></trkpt><trkpt lat="40.1572033" lon="8.6312067"><ele>947.0</ele><time>2026-05-02T09:33:12.351Z</time></trkpt><trkpt lat="40.15715" lon="8.63103"><ele>947.0</ele><time>2026-05-02T09:33:13.351Z</time></trkpt><trkpt lat="40.1571033" lon="8.63086"><ele>947.0</ele><time>2026-05-02T09:33:14.351Z</time></trkpt><trkpt lat="40.15706" lon="8.6307"><ele>947.0</ele><time>2026-05-02T09:33:15.351Z</time></trkpt><trkpt lat="40.1570333" lon="8.63054"><ele>947.0</ele><time>2026-05-02T09:33:16.351Z</time></trkpt><trkpt lat="40.15701" lon="8.630375"><ele>948.25</ele><time>2026-05-02T09:33:17.351Z</time></trkpt><trkpt lat="40.1569933" lon="8.6302083"><ele>949.5</ele><time>2026-05-02T09:33:18.351Z</time></trkpt><trkpt lat="40.1569833" lon="8.6300417"><ele>950.75</ele><time>2026-05-02T09:33:19.351Z</time></trkpt><trkpt lat="40.1569783" lon="8.629875"><ele>952.0</ele><time>2026-05-02T09:33:20.351Z</time></trkpt><trkpt lat="40.1569783" lon="8.62975"><ele>952.0</ele><time>2026-05-02T09:33:21.351Z</time></trkpt><trkpt lat="40.1569883" lon="8.629635"><ele>952.0</ele><time>2026-05-02T09:33:23.351Z</time></trkpt><trkpt lat="40.1568783" lon="8.6297367"><ele>952.0</ele><time>2026-05-02T09:33:32.351Z</time></trkpt><trkpt lat="40.1568" lon="8.6298183"><ele>952.0</ele><time>2026-05-02T09:33:33.351Z</time></trkpt><trkpt lat="40.1566967" lon="8.6299067"><ele>952.0</ele><time>2026-05-02T09:33:34.351Z</time></trkpt><trkpt lat="40.156575" lon="8.630005"><ele>949.3333333333333</ele><time>2026-05-02T09:33:35.351Z</time></trkpt><trkpt lat="40.15644" lon="8.6300983"><ele>946.6666666666667</ele><time>2026-05-02T09:33:36.351Z</time></trkpt><trkpt lat="40.1563033" lon="8.63021"><ele>944.0</ele><time>2026-05-02T09:33:37.351Z</time></trkpt><trkpt lat="40.15616" lon="8.630325"><ele>943.0</ele><time>2026-05-02T09:33:38.351Z</time></trkpt><trkpt lat="40.15602" lon="8.63045"><ele>942.0</ele><time>2026-05-02T09:33:39.351Z</time></trkpt><trkpt lat="40.155875" lon="8.6305733"><ele>941.0</ele><time>2026-05-02T09:33:40.351Z</time></trkpt><trkpt lat="40.155735" lon="8.6306867"><ele>939.6666666666667</ele><time>2026-05-02T09:33:41.351Z</time></trkpt><trkpt lat="40.15558" lon="8.6307967"><ele>938.3333333333333</ele><time>2026-05-02T09:33:42.351Z</time></trkpt><trkpt lat="40.155435" lon="8.6309033"><ele>937.0</ele><time>2026-05-02T09:33:43.351Z</time></trkpt><trkpt lat="40.15529" lon="8.6310017"><ele>937.0</ele><time>2026-05-02T09:33:44.351Z</time></trkpt><trkpt lat="40.1551517" lon="8.6311033"><ele>937.0</ele><time>2026-05-02T09:33:45.351Z</time></trkpt><trkpt lat="40.15503" lon="8.6311917"><ele>937.0</ele><time>2026-05-02T09:33:46.351Z</time></trkpt><trkpt lat="40.1549183" lon="8.6312833"><ele>937.0</ele><time>2026-05-02T09:33:47.351Z</time></trkpt><trkpt lat="40.1548017" lon="8.6313667"><ele>934.75</ele><time>2026-05-02T09:33:48.351Z</time></trkpt><trkpt lat="40.1546817" lon="8.6314567"><ele>932.5</ele><time>2026-05-02T09:33:49.351Z</time></trkpt><trkpt lat="40.15457" lon="8.6315367"><ele>930.25</ele><time>2026-05-02T09:33:50.351Z</time></trkpt><trkpt lat="40.1544483" lon="8.6316217"><ele>928.0</ele><time>2026-05-02T09:33:51.351Z</time></trkpt><trkpt lat="40.1543267" lon="8.63171"><ele>928.0</ele><time>2026-05-02T09:33:52.351Z</time></trkpt><trkpt lat="40.1542083" lon="8.6318133"><ele>928.0</ele><time>2026-05-02T09:33:53.351Z</time></trkpt><trkpt lat="40.1541067" lon="8.63191"><ele>928.0</ele><time>2026-05-02T09:33:54.351Z</time></trkpt><trkpt lat="40.1540117" lon="8.6319967"><ele>928.0</ele><time>2026-05-02T09:33:55.351Z</time></trkpt><trkpt lat="40.1539133" lon="8.6320933"><ele>926.5999999999999</ele><time>2026-05-02T09:33:56.351Z</time></trkpt><trkpt lat="40.1538267" lon="8.6321933"><ele>925.1999999999999</ele><time>2026-05-02T09:33:57.351Z</time></trkpt><trkpt lat="40.1537417" lon="8.6322667"><ele>923.8</ele><time>2026-05-02T09:33:58.351Z</time></trkpt><trkpt lat="40.15367" lon="8.6323183"><ele>922.4</ele><time>2026-05-02T09:33:59.351Z</time></trkpt><trkpt lat="40.1535933" lon="8.63236"><ele>921.0</ele><time>2026-05-02T09:34:01.351Z</time></trkpt><trkpt lat="40.1536017" lon="8.6322667"><ele>921.0</ele><time>2026-05-02T09:34:05.351Z</time></trkpt><trkpt lat="40.1536967" lon="8.6322133"><ele>920.9999999999999</ele><time>2026-05-02T09:34:07.351Z</time></trkpt><trkpt lat="40.1537483" lon="8.6321483"><ele>920.9999999999999</ele><time>2026-05-02T09:34:09.351Z</time></trkpt><trkpt lat="40.1537167" lon="8.632055"><ele>921.0</ele><time>2026-05-02T09:34:11.351Z</time></trkpt><trkpt lat="40.15365" lon="8.6319783"><ele>921.0</ele><time>2026-05-02T09:34:12.351Z</time></trkpt><trkpt lat="40.15357" lon="8.631875"><ele>920.8</ele><time>2026-05-02T09:34:13.351Z</time></trkpt><trkpt lat="40.1535" lon="8.6317617"><ele>920.5999999999999</ele><time>2026-05-02T09:34:14.351Z</time></trkpt><trkpt lat="40.1534367" lon="8.63163"><ele>920.4</ele><time>2026-05-02T09:34:15.351Z</time></trkpt><trkpt lat="40.1533933" lon="8.631515"><ele>920.2</ele><time>2026-05-02T09:34:16.351Z</time></trkpt><trkpt lat="40.1533583" lon="8.63141"><ele>920.0</ele><time>2026-05-02T09:34:17.351Z</time></trkpt><trkpt lat="40.15337" lon="8.6312583"><ele>920.0000000000001</ele><time>2026-05-02T09:34:19.351Z</time></trkpt><trkpt lat="40.1533983" lon="8.6311633"><ele>920.0</ele><time>2026-05-02T09:34:20.351Z</time></trkpt><trkpt lat="40.15341" lon="8.6310567"><ele>920.0</ele><time>2026-05-02T09:34:21.351Z</time></trkpt><trkpt lat="40.1534133" lon="8.6309483"><ele>920.0</ele><time>2026-05-02T09:34:22.351Z</time></trkpt><trkpt lat="40.153395" lon="8.63085"><ele>920.0000000000001</ele><time>2026-05-02T09:34:23.351Z</time></trkpt><trkpt lat="40.15336" lon="8.6307633"><ele>920.0</ele><time>2026-05-02T09:34:24.351Z</time></trkpt><trkpt lat="40.1533083" lon="8.6306817"><ele>920.2</ele><time>2026-05-02T09:34:25.351Z</time></trkpt><trkpt lat="40.1532533" lon="8.6306083"><ele>920.4</ele><time>2026-05-02T09:34:26.351Z</time></trkpt><trkpt lat="40.153185" lon="8.6305317"><ele>920.5999999999999</ele><time>2026-05-02T09:34:27.351Z</time></trkpt><trkpt lat="40.15311" lon="8.63046"><ele>920.8</ele><time>2026-05-02T09:34:28.351Z</time></trkpt><trkpt lat="40.1530333" lon="8.6303817"><ele>921.0</ele><time>2026-05-02T09:34:29.351Z</time></trkpt><trkpt lat="40.1529583" lon="8.6302833"><ele>921.0</ele><time>2026-05-02T09:34:30.351Z</time></trkpt><trkpt lat="40.1528933" lon="8.63017"><ele>920.9999999999999</ele><time>2026-05-02T09:34:31.351Z</time></trkpt><trkpt lat="40.15283" lon="8.63005"><ele>920.9999999999999</ele><time>2026-05-02T09:34:32.351Z</time></trkpt><trkpt lat="40.1527683" lon="8.6299467"><ele>921.0</ele><time>2026-05-02T09:34:33.351Z</time></trkpt><trkpt lat="40.1527183" lon="8.6298433"><ele>921.0</ele><time>2026-05-02T09:34:34.351Z</time></trkpt><trkpt lat="40.1526583" lon="8.6297483"><ele>921.0</ele><time>2026-05-02T09:34:35.351Z</time></trkpt><trkpt lat="40.1526033" lon="8.6296667"><ele>921.0</ele><time>2026-05-02T09:34:36.351Z</time></trkpt><trkpt lat="40.1525517" lon="8.6295933"><ele>921.0</ele><time>2026-05-02T09:34:37.351Z</time></trkpt><trkpt lat="40.1525067" lon="8.62951"><ele>921.0</ele><time>2026-05-02T09:34:38.351Z</time></trkpt><trkpt lat="40.1524633" lon="8.6294133"><ele>921.0</ele><time>2026-05-02T09:34:39.351Z</time></trkpt><trkpt lat="40.15241" lon="8.629305"><ele>921.0</ele><time>2026-05-02T09:34:40.351Z</time></trkpt><trkpt lat="40.1523583" lon="8.6292183"><ele>921.1666666666666</ele><time>2026-05-02T09:34:41.351Z</time></trkpt><trkpt lat="40.15231" lon="8.6291217"><ele>921.3333333333333</ele><time>2026-05-02T09:34:42.351Z</time></trkpt><trkpt lat="40.1522717" lon="8.6290367"><ele>921.5</ele><time>2026-05-02T09:34:43.351Z</time></trkpt><trkpt lat="40.15224" lon="8.6289567"><ele>921.6666666666666</ele><time>2026-05-02T09:34:44.351Z</time></trkpt><trkpt lat="40.1522283" lon="8.62881"><ele>921.8333333333333</ele><time>2026-05-02T09:34:46.351Z</time></trkpt><trkpt lat="40.152245" lon="8.6287183"><ele>922.0</ele><time>2026-05-02T09:34:47.351Z</time></trkpt><trkpt lat="40.152265" lon="8.6286067"><ele>921.9999999999999</ele><time>2026-05-02T09:34:48.351Z</time></trkpt><trkpt lat="40.1522817" lon="8.6284967"><ele>922.0</ele><time>2026-05-02T09:34:49.351Z</time></trkpt><trkpt lat="40.152305" lon="8.6283867"><ele>922.0</ele><time>2026-05-02T09:34:50.351Z</time></trkpt><trkpt lat="40.1523283" lon="8.6282783"><ele>922.0</ele><time>2026-05-02T09:34:51.351Z</time></trkpt><trkpt lat="40.152345" lon="8.6281883"><ele>921.9999999999999</ele><time>2026-05-02T09:34:52.351Z</time></trkpt><trkpt lat="40.1523717" lon="8.6280583"><ele>922.0</ele><time>2026-05-02T09:34:54.351Z</time></trkpt><trkpt lat="40.1523817" lon="8.6279117"><ele>923.0</ele><time>2026-05-02T09:34:56.351Z</time></trkpt><trkpt lat="40.1523867" lon="8.6277983"><ele>924.0</ele><time>2026-05-02T09:34:57.351Z</time></trkpt><trkpt lat="40.15239" lon="8.62768"><ele>925.0</ele><time>2026-05-02T09:34:58.351Z</time></trkpt><trkpt lat="40.15239" lon="8.6275533"><ele>926.0</ele><time>2026-05-02T09:34:59.351Z</time></trkpt><trkpt lat="40.1523767" lon="8.6274083"><ele>927.0</ele><time>2026-05-02T09:35:00.351Z</time></trkpt><trkpt lat="40.1523483" lon="8.62725"><ele>927.0</ele><time>2026-05-02T09:35:01.351Z</time></trkpt><trkpt lat="40.152315" lon="8.6270967"><ele>927.0</ele><time>2026-05-02T09:35:02.351Z</time></trkpt><trkpt lat="40.1522717" lon="8.62693"><ele>927.0</ele><time>2026-05-02T09:35:03.351Z</time></trkpt><trkpt lat="40.1522567" lon="8.6267717"><ele>927.0</ele><time>2026-05-02T09:35:04.351Z</time></trkpt><trkpt lat="40.1522533" lon="8.6266217"><ele>927.4000000000001</ele><time>2026-05-02T09:35:05.351Z</time></trkpt><trkpt lat="40.1522583" lon="8.6264867"><ele>927.8000000000001</ele><time>2026-05-02T09:35:06.351Z</time></trkpt><trkpt lat="40.152255" lon="8.6263617"><ele>928.2</ele><time>2026-05-02T09:35:07.351Z</time></trkpt><trkpt lat="40.1522533" lon="8.626245"><ele>928.6</ele><time>2026-05-02T09:35:08.351Z</time></trkpt><trkpt lat="40.1522533" lon="8.6261317"><ele>929.0</ele><time>2026-05-02T09:35:09.351Z</time></trkpt><trkpt lat="40.1522567" lon="8.6260217"><ele>928.3333333333334</ele><time>2026-05-02T09:35:10.351Z</time></trkpt><trkpt lat="40.15228" lon="8.62591"><ele>927.6666666666667</ele><time>2026-05-02T09:35:11.351Z</time></trkpt><trkpt lat="40.1523083" lon="8.6258133"><ele>927.0</ele><time>2026-05-02T09:35:12.351Z</time></trkpt><trkpt lat="40.1523433" lon="8.6257217"><ele>926.3333333333333</ele><time>2026-05-02T09:35:13.351Z</time></trkpt><trkpt lat="40.1523767" lon="8.6256417"><ele>925.6666666666666</ele><time>2026-05-02T09:35:14.351Z</time></trkpt><trkpt lat="40.1524167" lon="8.6254767"><ele>925.0</ele><time>2026-05-02T09:35:16.351Z</time></trkpt><trkpt lat="40.1524233" lon="8.6253683"><ele>927.9999999999999</ele><time>2026-05-02T09:35:17.351Z</time></trkpt><trkpt lat="40.1524233" lon="8.625255"><ele>931.0</ele><time>2026-05-02T09:35:18.351Z</time></trkpt><trkpt lat="40.1524217" lon="8.625145"><ele>934.0</ele><time>2026-05-02T09:35:19.351Z</time></trkpt><trkpt lat="40.1524233" lon="8.625035"><ele>937.0</ele><time>2026-05-02T09:35:20.351Z</time></trkpt><trkpt lat="40.1524217" lon="8.62493"><ele>939.9999999999999</ele><time>2026-05-02T09:35:21.351Z</time></trkpt><trkpt lat="40.1524067" lon="8.6248167"><ele>943.0</ele><time>2026-05-02T09:35:22.351Z</time></trkpt><trkpt lat="40.1523917" lon="8.6247033"><ele>943.4999999999999</ele><time>2026-05-02T09:35:23.351Z</time></trkpt><trkpt lat="40.15237" lon="8.6245983"><ele>944.0</ele><time>2026-05-02T09:35:24.351Z</time></trkpt><trkpt lat="40.1523533" lon="8.6244917"><ele>944.5</ele><time>2026-05-02T09:35:25.351Z</time></trkpt><trkpt lat="40.1523567" lon="8.62439"><ele>945.0</ele><time>2026-05-02T09:35:26.351Z</time></trkpt><trkpt lat="40.1523833" lon="8.6243017"><ele>945.4999999999999</ele><time>2026-05-02T09:35:27.351Z</time></trkpt><trkpt lat="40.1524217" lon="8.6242133"><ele>946.0</ele><time>2026-05-02T09:35:28.351Z</time></trkpt><trkpt lat="40.1524717" lon="8.62412"><ele>946.0</ele><time>2026-05-02T09:35:29.351Z</time></trkpt><trkpt lat="40.1525267" lon="8.6240133"><ele>945.9999999999999</ele><time>2026-05-02T09:35:30.351Z</time></trkpt><trkpt lat="40.1526017" lon="8.6239367"><ele>945.9999999999999</ele><time>2026-05-02T09:35:31.351Z</time></trkpt><trkpt lat="40.1526883" lon="8.6238567"><ele>946.0</ele><time>2026-05-02T09:35:32.351Z</time></trkpt><trkpt lat="40.152775" lon="8.6237683"><ele>946.0</ele><time>2026-05-02T09:35:33.351Z</time></trkpt><trkpt lat="40.1528667" lon="8.6236733"><ele>945.75</ele><time>2026-05-02T09:35:34.351Z</time></trkpt><trkpt lat="40.15295" lon="8.62358"><ele>945.5</ele><time>2026-05-02T09:35:35.351Z</time></trkpt><trkpt lat="40.1530217" lon="8.6234783"><ele>945.25</ele><time>2026-05-02T09:35:36.351Z</time></trkpt><trkpt lat="40.15309" lon="8.6233467"><ele>945.0</ele><time>2026-05-02T09:35:37.351Z</time></trkpt><trkpt lat="40.15315" lon="8.623205"><ele>946.25</ele><time>2026-05-02T09:35:38.351Z</time></trkpt><trkpt lat="40.1532067" lon="8.62305"><ele>947.5</ele><time>2026-05-02T09:35:39.351Z</time></trkpt><trkpt lat="40.1532583" lon="8.6228917"><ele>948.75</ele><time>2026-05-02T09:35:40.351Z</time></trkpt><trkpt lat="40.1532967" lon="8.62275"><ele>950.0</ele><time>2026-05-02T09:35:41.351Z</time></trkpt><trkpt lat="40.1533433" lon="8.6226183"><ele>950.0</ele><time>2026-05-02T09:35:42.351Z</time></trkpt><trkpt lat="40.1533983" lon="8.622475"><ele>950.0</ele><time>2026-05-02T09:35:43.351Z</time></trkpt><trkpt lat="40.1534517" lon="8.6223233"><ele>950.0</ele><time>2026-05-02T09:35:44.351Z</time></trkpt><trkpt lat="40.15351" lon="8.6221767"><ele>950.0</ele><time>2026-05-02T09:35:45.351Z</time></trkpt><trkpt lat="40.1535683" lon="8.6220483"><ele>949.3333333333334</ele><time>2026-05-02T09:35:46.351Z</time></trkpt><trkpt lat="40.1536283" lon="8.6219383"><ele>948.6666666666667</ele><time>2026-05-02T09:35:47.351Z</time></trkpt><trkpt lat="40.1536867" lon="8.6218383"><ele>948.0</ele><time>2026-05-02T09:35:48.351Z</time></trkpt><trkpt lat="40.1537217" lon="8.6217433"><ele>947.3333333333333</ele><time>2026-05-02T09:35:49.351Z</time></trkpt><trkpt lat="40.1537417" lon="8.6216383"><ele>946.6666666666666</ele><time>2026-05-02T09:35:50.351Z</time></trkpt><trkpt lat="40.1537367" lon="8.6215267"><ele>946.0</ele><time>2026-05-02T09:35:51.351Z</time></trkpt><trkpt lat="40.1537267" lon="8.6213983"><ele>946.0</ele><time>2026-05-02T09:35:52.351Z</time></trkpt><trkpt lat="40.153715" lon="8.6212483"><ele>946.0</ele><time>2026-05-02T09:35:53.351Z</time></trkpt><trkpt lat="40.1537217" lon="8.6211"><ele>946.0</ele><time>2026-05-02T09:35:54.351Z</time></trkpt><trkpt lat="40.1537267" lon="8.6209367"><ele>946.0</ele><time>2026-05-02T09:35:55.351Z</time></trkpt><trkpt lat="40.1537433" lon="8.6207667"><ele>945.5</ele><time>2026-05-02T09:35:56.351Z</time></trkpt><trkpt lat="40.1537633" lon="8.62061"><ele>945.0</ele><time>2026-05-02T09:35:57.351Z</time></trkpt><trkpt lat="40.1537817" lon="8.6204417"><ele>944.5</ele><time>2026-05-02T09:35:58.351Z</time></trkpt><trkpt lat="40.1538183" lon="8.6202783"><ele>944.0</ele><time>2026-05-02T09:35:59.351Z</time></trkpt><trkpt lat="40.153855" lon="8.6201217"><ele>944.0000000000001</ele><time>2026-05-02T09:36:00.351Z</time></trkpt><trkpt lat="40.1538883" lon="8.6199933"><ele>944.0</ele><time>2026-05-02T09:36:01.351Z</time></trkpt><trkpt lat="40.1539183" lon="8.6198867"><ele>944.0</ele><time>2026-05-02T09:36:02.351Z</time></trkpt><trkpt lat="40.1539517" lon="8.61979"><ele>944.0</ele><time>2026-05-02T09:36:03.351Z</time></trkpt><trkpt lat="40.1539733" lon="8.61969"><ele>944.0000000000001</ele><time>2026-05-02T09:36:04.351Z</time></trkpt><trkpt lat="40.1539883" lon="8.6196"><ele>944.0</ele><time>2026-05-02T09:36:05.351Z</time></trkpt><trkpt lat="40.15404" lon="8.6194883"><ele>943.2</ele><time>2026-05-02T09:36:07.351Z</time></trkpt><trkpt lat="40.1540667" lon="8.61936"><ele>942.4000000000001</ele><time>2026-05-02T09:36:09.351Z</time></trkpt><trkpt lat="40.15406" lon="8.6191733"><ele>941.6</ele><time>2026-05-02T09:36:11.351Z</time></trkpt><trkpt lat="40.1540717" lon="8.6190633"><ele>940.8</ele><time>2026-05-02T09:36:12.351Z</time></trkpt><trkpt lat="40.1540967" lon="8.6189317"><ele>940.0</ele><time>2026-05-02T09:36:13.351Z</time></trkpt><trkpt lat="40.1541217" lon="8.6187817"><ele>941.25</ele><time>2026-05-02T09:36:14.351Z</time></trkpt><trkpt lat="40.1541417" lon="8.6186167"><ele>942.5</ele><time>2026-05-02T09:36:15.351Z</time></trkpt><trkpt lat="40.1541533" lon="8.6184417"><ele>943.75</ele><time>2026-05-02T09:36:16.351Z</time></trkpt><trkpt lat="40.1541667" lon="8.618275"><ele>945.0</ele><time>2026-05-02T09:36:17.351Z</time></trkpt><trkpt lat="40.1541967" lon="8.61816"><ele>945.0</ele><time>2026-05-02T09:36:18.351Z</time></trkpt><trkpt lat="40.1542383" lon="8.618075"><ele>945.0</ele><time>2026-05-02T09:36:19.351Z</time></trkpt><trkpt lat="40.154305" lon="8.61801"><ele>945.0</ele><time>2026-05-02T09:36:20.351Z</time></trkpt><trkpt lat="40.1543917" lon="8.6179383"><ele>945.0</ele><time>2026-05-02T09:36:21.351Z</time></trkpt><trkpt lat="40.15449" lon="8.6178517"><ele>945.0</ele><time>2026-05-02T09:36:22.351Z</time></trkpt><trkpt lat="40.1546017" lon="8.617745"><ele>946.0</ele><time>2026-05-02T09:36:23.351Z</time></trkpt><trkpt lat="40.1547167" lon="8.6176167"><ele>947.0</ele><time>2026-05-02T09:36:24.351Z</time></trkpt><trkpt lat="40.1548317" lon="8.6174767"><ele>948.0</ele><time>2026-05-02T09:36:25.351Z</time></trkpt><trkpt lat="40.1549533" lon="8.6173283"><ele>948.0</ele><time>2026-05-02T09:36:26.351Z</time></trkpt><trkpt lat="40.1550817" lon="8.6171833"><ele>948.0</ele><time>2026-05-02T09:36:27.351Z</time></trkpt><trkpt lat="40.1552033" lon="8.61704"><ele>948.0</ele><time>2026-05-02T09:36:28.351Z</time></trkpt><trkpt lat="40.15532" lon="8.6168767"><ele>951.25</ele><time>2026-05-02T09:36:29.351Z</time></trkpt><trkpt lat="40.155425" lon="8.6167283"><ele>954.5</ele><time>2026-05-02T09:36:30.351Z</time></trkpt><trkpt lat="40.15551" lon="8.6166083"><ele>957.75</ele><time>2026-05-02T09:36:31.351Z</time></trkpt><trkpt lat="40.155545" lon="8.6165367"><ele>961.0</ele><time>2026-05-02T09:36:32.351Z</time></trkpt><trkpt lat="40.1555217" lon="8.6163833"><ele>961.0</ele><time>2026-05-02T09:36:34.351Z</time></trkpt><trkpt lat="40.1554767" lon="8.6163133"><ele>960.9999999999999</ele><time>2026-05-02T09:36:35.351Z</time></trkpt><trkpt lat="40.1554083" lon="8.6162483"><ele>960.9999999999999</ele><time>2026-05-02T09:36:36.351Z</time></trkpt><trkpt lat="40.1553133" lon="8.6161783"><ele>961.0</ele><time>2026-05-02T09:36:37.351Z</time></trkpt><trkpt lat="40.1551883" lon="8.616125"><ele>961.0</ele><time>2026-05-02T09:36:38.351Z</time></trkpt><trkpt lat="40.1550433" lon="8.6160767"><ele>966.3333333333333</ele><time>2026-05-02T09:36:39.351Z</time></trkpt><trkpt lat="40.1548983" lon="8.6160333"><ele>971.6666666666667</ele><time>2026-05-02T09:36:40.351Z</time></trkpt><trkpt lat="40.1547417" lon="8.615965"><ele>977.0</ele><time>2026-05-02T09:36:41.351Z</time></trkpt><trkpt lat="40.1545967" lon="8.6158967"><ele>977.0</ele><time>2026-05-02T09:36:42.351Z</time></trkpt><trkpt lat="40.1544783" lon="8.61583"><ele>977.0</ele><time>2026-05-02T09:36:43.351Z</time></trkpt><trkpt lat="40.1544017" lon="8.61576"><ele>977.0</ele><time>2026-05-02T09:36:44.351Z</time></trkpt><trkpt lat="40.1543433" lon="8.6156733"><ele>977.0</ele><time>2026-05-02T09:36:45.351Z</time></trkpt><trkpt lat="40.1543167" lon="8.615575"><ele>977.0</ele><time>2026-05-02T09:36:46.351Z</time></trkpt><trkpt lat="40.1543167" lon="8.6154517"><ele>978.2</ele><time>2026-05-02T09:36:47.351Z</time></trkpt><trkpt lat="40.1543183" lon="8.6153067"><ele>979.4000000000001</ele><time>2026-05-02T09:36:48.351Z</time></trkpt><trkpt lat="40.1543217" lon="8.6151583"><ele>980.5999999999999</ele><time>2026-05-02T09:36:49.351Z</time></trkpt><trkpt lat="40.1543167" lon="8.6150033"><ele>981.8</ele><time>2026-05-02T09:36:50.351Z</time></trkpt><trkpt lat="40.1542967" lon="8.6148833"><ele>983.0</ele><time>2026-05-02T09:36:51.351Z</time></trkpt><trkpt lat="40.15428" lon="8.614775"><ele>983.0000000000001</ele><time>2026-05-02T09:36:52.351Z</time></trkpt><trkpt lat="40.154265" lon="8.614675"><ele>983.0</ele><time>2026-05-02T09:36:53.351Z</time></trkpt><trkpt lat="40.1542583" lon="8.6145133"><ele>983.0</ele><time>2026-05-02T09:36:55.351Z</time></trkpt><trkpt lat="40.1542483" lon="8.614415"><ele>983.0</ele><time>2026-05-02T09:36:57.351Z</time></trkpt><trkpt lat="40.1542183" lon="8.6145017"><ele>983.0000000000001</ele><time>2026-05-02T09:37:00.351Z</time></trkpt><trkpt lat="40.154235" lon="8.6146017"><ele>983.0</ele><time>2026-05-02T09:37:01.351Z</time></trkpt><trkpt lat="40.1542583" lon="8.6147233"><ele>983.0</ele><time>2026-05-02T09:37:02.351Z</time></trkpt><trkpt lat="40.1542817" lon="8.6148333"><ele>983.0</ele><time>2026-05-02T09:37:03.351Z</time></trkpt><trkpt lat="40.1542083" lon="8.6149017"><ele>983.0</ele><time>2026-05-02T09:37:06.351Z</time></trkpt><trkpt lat="40.1541467" lon="8.6148483"><ele>983.0</ele><time>2026-05-02T09:37:07.351Z</time></trkpt><trkpt lat="40.1540633" lon="8.614765"><ele>983.0</ele><time>2026-05-02T09:37:08.351Z</time></trkpt><trkpt lat="40.1539617" lon="8.6146417"><ele>976.6666666666667</ele><time>2026-05-02T09:37:09.351Z</time></trkpt><trkpt lat="40.1538317" lon="8.61447"><ele>970.3333333333333</ele><time>2026-05-02T09:37:10.351Z</time></trkpt><trkpt lat="40.1536817" lon="8.61427"><ele>964.0</ele><time>2026-05-02T09:37:11.351Z</time></trkpt><trkpt lat="40.153535" lon="8.61405"><ele>964.0</ele><time>2026-05-02T09:37:12.351Z</time></trkpt><trkpt lat="40.1534067" lon="8.61384"><ele>964.0</ele><time>2026-05-02T09:37:13.351Z</time></trkpt><trkpt lat="40.1532783" lon="8.61361"><ele>964.0</ele><time>2026-05-02T09:37:14.351Z</time></trkpt><trkpt lat="40.15317" lon="8.613385"><ele>961.6666666666666</ele><time>2026-05-02T09:37:15.351Z</time></trkpt><trkpt lat="40.1530583" lon="8.613165"><ele>959.3333333333333</ele><time>2026-05-02T09:37:16.351Z</time></trkpt><trkpt lat="40.1529367" lon="8.6129983"><ele>957.0</ele><time>2026-05-02T09:37:17.351Z</time></trkpt><trkpt lat="40.15281" lon="8.6128567"><ele>961.3333333333333</ele><time>2026-05-02T09:37:18.351Z</time></trkpt><trkpt lat="40.1526817" lon="8.61275"><ele>965.6666666666666</ele><time>2026-05-02T09:37:19.351Z</time></trkpt><trkpt lat="40.1525567" lon="8.612695"><ele>970.0</ele><time>2026-05-02T09:37:20.351Z</time></trkpt><trkpt lat="40.1523933" lon="8.6126567"><ele>970.3333333333333</ele><time>2026-05-02T09:37:21.351Z</time></trkpt><trkpt lat="40.1522083" lon="8.6126467"><ele>970.6666666666667</ele><time>2026-05-02T09:37:22.351Z</time></trkpt><trkpt lat="40.1520067" lon="8.61265"><ele>971.0</ele><time>2026-05-02T09:37:23.351Z</time></trkpt><trkpt lat="40.1517917" lon="8.612675"><ele>971.0</ele><time>2026-05-02T09:37:24.351Z</time></trkpt><trkpt lat="40.1515717" lon="8.6126967"><ele>971.0</ele><time>2026-05-02T09:37:25.351Z</time></trkpt><trkpt lat="40.1513733" lon="8.6127"><ele>971.0</ele><time>2026-05-02T09:37:26.351Z</time></trkpt><trkpt lat="40.151215" lon="8.61269"><ele>971.1999999999999</ele><time>2026-05-02T09:37:27.351Z</time></trkpt><trkpt lat="40.151095" lon="8.6126717"><ele>971.3999999999999</ele><time>2026-05-02T09:37:28.351Z</time></trkpt><trkpt lat="40.1510017" lon="8.612635"><ele>971.6</ele><time>2026-05-02T09:37:29.351Z</time></trkpt><trkpt lat="40.1509183" lon="8.6125667"><ele>971.8</ele><time>2026-05-02T09:37:30.351Z</time></trkpt><trkpt lat="40.1508617" lon="8.61244"><ele>972.0</ele><time>2026-05-02T09:37:31.351Z</time></trkpt><trkpt lat="40.15086" lon="8.61227"><ele>972.0</ele><time>2026-05-02T09:37:32.351Z</time></trkpt><trkpt lat="40.150865" lon="8.6120817"><ele>972.0</ele><time>2026-05-02T09:37:33.351Z</time></trkpt><trkpt lat="40.1508583" lon="8.611945"><ele>972.0</ele><time>2026-05-02T09:37:34.351Z</time></trkpt><trkpt lat="40.150845" lon="8.6118617"><ele>972.0</ele><time>2026-05-02T09:37:35.351Z</time></trkpt><trkpt lat="40.1508033" lon="8.6117867"><ele>972.0</ele><time>2026-05-02T09:37:37.351Z</time></trkpt><trkpt lat="40.1507067" lon="8.6117383"><ele>969.6</ele><time>2026-05-02T09:37:39.351Z</time></trkpt><trkpt lat="40.150645" lon="8.6116733"><ele>967.2</ele><time>2026-05-02T09:37:40.351Z</time></trkpt><trkpt lat="40.15059" lon="8.6115767"><ele>964.8</ele><time>2026-05-02T09:37:41.351Z</time></trkpt><trkpt lat="40.15054" lon="8.611455"><ele>962.4</ele><time>2026-05-02T09:37:42.351Z</time></trkpt><trkpt lat="40.150495" lon="8.6112933"><ele>960.0</ele><time>2026-05-02T09:37:43.351Z</time></trkpt><trkpt lat="40.1504617" lon="8.6110867"><ele>959.6666666666667</ele><time>2026-05-02T09:37:44.351Z</time></trkpt><trkpt lat="40.150435" lon="8.610865"><ele>959.3333333333334</ele><time>2026-05-02T09:37:45.351Z</time></trkpt><trkpt lat="40.1504017" lon="8.6106683"><ele>959.0</ele><time>2026-05-02T09:37:46.351Z</time></trkpt><trkpt lat="40.1503617" lon="8.6104783"><ele>961.3333333333334</ele><time>2026-05-02T09:37:47.351Z</time></trkpt><trkpt lat="40.15027" lon="8.6103067"><ele>963.6666666666667</ele><time>2026-05-02T09:37:48.351Z</time></trkpt><trkpt lat="40.150165" lon="8.610135"><ele>966.0</ele><time>2026-05-02T09:37:49.351Z</time></trkpt><trkpt lat="40.1500417" lon="8.6099733"><ele>966.0</ele><time>2026-05-02T09:37:50.351Z</time></trkpt><trkpt lat="40.1499233" lon="8.60982"><ele>966.0</ele><time>2026-05-02T09:37:51.351Z</time></trkpt><trkpt lat="40.1497883" lon="8.6097067"><ele>966.0</ele><time>2026-05-02T09:37:52.351Z</time></trkpt><trkpt lat="40.149625" lon="8.6096033"><ele>966.0</ele><time>2026-05-02T09:37:53.351Z</time></trkpt><trkpt lat="40.149435" lon="8.6095017"><ele>966.0</ele><time>2026-05-02T09:37:54.351Z</time></trkpt><trkpt lat="40.14923" lon="8.6094083"><ele>966.0</ele><time>2026-05-02T09:37:55.351Z</time></trkpt><trkpt lat="40.1490333" lon="8.6093217"><ele>961.3333333333333</ele><time>2026-05-02T09:37:56.351Z</time></trkpt><trkpt lat="40.1488583" lon="8.60924"><ele>956.6666666666666</ele><time>2026-05-02T09:37:57.351Z</time></trkpt><trkpt lat="40.148695" lon="8.6091633"><ele>952.0</ele><time>2026-05-02T09:37:58.351Z</time></trkpt><trkpt lat="40.1485283" lon="8.6090833"><ele>952.0</ele><time>2026-05-02T09:37:59.351Z</time></trkpt><trkpt lat="40.1483733" lon="8.60901"><ele>952.0</ele><time>2026-05-02T09:38:00.351Z</time></trkpt><trkpt lat="40.1482117" lon="8.6089317"><ele>952.0</ele><time>2026-05-02T09:38:01.351Z</time></trkpt><trkpt lat="40.14804" lon="8.60888"><ele>952.25</ele><time>2026-05-02T09:38:02.351Z</time></trkpt><trkpt lat="40.14788" lon="8.60884"><ele>952.5</ele><time>2026-05-02T09:38:03.351Z</time></trkpt><trkpt lat="40.1477417" lon="8.6088067"><ele>952.75</ele><time>2026-05-02T09:38:04.351Z</time></trkpt><trkpt lat="40.1476183" lon="8.6088033"><ele>953.0</ele><time>2026-05-02T09:38:05.351Z</time></trkpt><trkpt lat="40.1474983" lon="8.6088483"><ele>953.0</ele><time>2026-05-02T09:38:06.351Z</time></trkpt><trkpt lat="40.1473933" lon="8.6089383"><ele>953.0</ele><time>2026-05-02T09:38:07.351Z</time></trkpt><trkpt lat="40.1472733" lon="8.6090617"><ele>953.0</ele><time>2026-05-02T09:38:08.351Z</time></trkpt><trkpt lat="40.1471433" lon="8.60921"><ele>951.3333333333334</ele><time>2026-05-02T09:38:09.351Z</time></trkpt><trkpt lat="40.1470067" lon="8.6093717"><ele>949.6666666666667</ele><time>2026-05-02T09:38:10.351Z</time></trkpt><trkpt lat="40.1468733" lon="8.6095183"><ele>948.0</ele><time>2026-05-02T09:38:11.351Z</time></trkpt><trkpt lat="40.1467483" lon="8.60964"><ele>948.0</ele><time>2026-05-02T09:38:12.351Z</time></trkpt><trkpt lat="40.1466417" lon="8.6097317"><ele>948.0</ele><time>2026-05-02T09:38:13.351Z</time></trkpt><trkpt lat="40.1465467" lon="8.6097767"><ele>948.0</ele><time>2026-05-02T09:38:14.351Z</time></trkpt><trkpt lat="40.1464667" lon="8.609785"><ele>948.0</ele><time>2026-05-02T09:38:15.351Z</time></trkpt><trkpt lat="40.14639" lon="8.6097733"><ele>948.0</ele><time>2026-05-02T09:38:16.35Z</time></trkpt><trkpt lat="40.146295" lon="8.60978"><ele>950.5</ele><time>2026-05-02T09:38:17.35Z</time></trkpt><trkpt lat="40.1461817" lon="8.609815"><ele>953.0</ele><time>2026-05-02T09:38:18.35Z</time></trkpt><trkpt lat="40.146055" lon="8.609885"><ele>955.5</ele><time>2026-05-02T09:38:19.35Z</time></trkpt><trkpt lat="40.145915" lon="8.60998"><ele>958.0</ele><time>2026-05-02T09:38:20.35Z</time></trkpt><trkpt lat="40.1457717" lon="8.6100933"><ele>956.6666666666666</ele><time>2026-05-02T09:38:21.35Z</time></trkpt><trkpt lat="40.14561" lon="8.6102283"><ele>955.3333333333333</ele><time>2026-05-02T09:38:22.35Z</time></trkpt><trkpt lat="40.1454667" lon="8.6103567"><ele>954.0</ele><time>2026-05-02T09:38:23.35Z</time></trkpt><trkpt lat="40.1453483" lon="8.6105017"><ele>954.0</ele><time>2026-05-02T09:38:24.35Z</time></trkpt><trkpt lat="40.145255" lon="8.61062"><ele>954.0000000000001</ele><time>2026-05-02T09:38:25.35Z</time></trkpt><trkpt lat="40.14518" lon="8.6107117"><ele>954.0000000000001</ele><time>2026-05-02T09:38:26.35Z</time></trkpt><trkpt lat="40.1451067" lon="8.610745"><ele>954.0</ele><time>2026-05-02T09:38:27.35Z</time></trkpt><trkpt lat="40.145005" lon="8.61076"><ele>954.0</ele><time>2026-05-02T09:38:28.35Z</time></trkpt><trkpt lat="40.144875" lon="8.6107517"><ele>954.6666666666667</ele><time>2026-05-02T09:38:29.35Z</time></trkpt><trkpt lat="40.1447233" lon="8.610725"><ele>955.3333333333334</ele><time>2026-05-02T09:38:30.35Z</time></trkpt><trkpt lat="40.1445467" lon="8.6106917"><ele>956.0</ele><time>2026-05-02T09:38:31.35Z</time></trkpt><trkpt lat="40.1443683" lon="8.6106567"><ele>956.0</ele><time>2026-05-02T09:38:32.35Z</time></trkpt><trkpt lat="40.14421" lon="8.6106283"><ele>956.0</ele><time>2026-05-02T09:38:33.35Z</time></trkpt><trkpt lat="40.144065" lon="8.6106217"><ele>956.0</ele><time>2026-05-02T09:38:34.35Z</time></trkpt><trkpt lat="40.1439233" lon="8.6106417"><ele>956.0</ele><time>2026-05-02T09:38:35.35Z</time></trkpt><trkpt lat="40.1438" lon="8.6106817"><ele>959.25</ele><time>2026-05-02T09:38:36.35Z</time></trkpt><trkpt lat="40.143685" lon="8.6107633"><ele>962.5</ele><time>2026-05-02T09:38:37.35Z</time></trkpt><trkpt lat="40.1435633" lon="8.6108783"><ele>965.75</ele><time>2026-05-02T09:38:38.35Z</time></trkpt><trkpt lat="40.14345" lon="8.6109917"><ele>969.0</ele><time>2026-05-02T09:38:39.35Z</time></trkpt><trkpt lat="40.14335" lon="8.61112"><ele>970.25</ele><time>2026-05-02T09:38:40.35Z</time></trkpt><trkpt lat="40.14326" lon="8.611275"><ele>971.5</ele><time>2026-05-02T09:38:41.35Z</time></trkpt><trkpt lat="40.1431767" lon="8.6114333"><ele>972.75</ele><time>2026-05-02T09:38:42.35Z</time></trkpt><trkpt lat="40.143105" lon="8.6116067"><ele>974.0</ele><time>2026-05-02T09:38:43.35Z</time></trkpt><trkpt lat="40.14304" lon="8.6117817"><ele>974.0</ele><time>2026-05-02T09:38:44.35Z</time></trkpt><trkpt lat="40.1429733" lon="8.611945"><ele>974.0</ele><time>2026-05-02T09:38:45.35Z</time></trkpt><trkpt lat="40.1429067" lon="8.6121017"><ele>974.0</ele><time>2026-05-02T09:38:46.35Z</time></trkpt><trkpt lat="40.1428467" lon="8.6122533"><ele>974.0</ele><time>2026-05-02T09:38:47.35Z</time></trkpt><trkpt lat="40.14278" lon="8.612405"><ele>969.25</ele><time>2026-05-02T09:38:48.35Z</time></trkpt><trkpt lat="40.142715" lon="8.61256"><ele>964.5</ele><time>2026-05-02T09:38:49.35Z</time></trkpt><trkpt lat="40.14263" lon="8.6126983"><ele>959.75</ele><time>2026-05-02T09:38:50.35Z</time></trkpt><trkpt lat="40.1425317" lon="8.612825"><ele>955.0</ele><time>2026-05-02T09:38:51.35Z</time></trkpt><trkpt lat="40.1424267" lon="8.6129217"><ele>949.75</ele><time>2026-05-02T09:38:52.35Z</time></trkpt><trkpt lat="40.1422967" lon="8.612995"><ele>944.5</ele><time>2026-05-02T09:38:53.35Z</time></trkpt><trkpt lat="40.1421467" lon="8.6130383"><ele>939.25</ele><time>2026-05-02T09:38:54.35Z</time></trkpt><trkpt lat="40.1420083" lon="8.6130883"><ele>934.0</ele><time>2026-05-02T09:38:55.35Z</time></trkpt><trkpt lat="40.1418633" lon="8.6131017"><ele>934.0</ele><time>2026-05-02T09:38:56.35Z</time></trkpt><trkpt lat="40.1417283" lon="8.6130767"><ele>934.0</ele><time>2026-05-02T09:38:57.35Z</time></trkpt><trkpt lat="40.141585" lon="8.61304"><ele>934.0</ele><time>2026-05-02T09:38:58.35Z</time></trkpt><trkpt lat="40.141425" lon="8.61299"><ele>934.0</ele><time>2026-05-02T09:38:59.35Z</time></trkpt><trkpt lat="40.14126" lon="8.6129167"><ele>932.6666666666666</ele><time>2026-05-02T09:39:00.35Z</time></trkpt><trkpt lat="40.1410933" lon="8.612825"><ele>931.3333333333333</ele><time>2026-05-02T09:39:01.35Z</time></trkpt><trkpt lat="40.1409267" lon="8.6127217"><ele>930.0</ele><time>2026-05-02T09:39:02.35Z</time></trkpt><trkpt lat="40.1407617" lon="8.612625"><ele>934.25</ele><time>2026-05-02T09:39:03.35Z</time></trkpt><trkpt lat="40.1406183" lon="8.6125417"><ele>938.5</ele><time>2026-05-02T09:39:04.35Z</time></trkpt><trkpt lat="40.14048" lon="8.6124783"><ele>942.75</ele><time>2026-05-02T09:39:05.35Z</time></trkpt><trkpt lat="40.1403567" lon="8.6124267"><ele>947.0</ele><time>2026-05-02T09:39:06.35Z</time></trkpt><trkpt lat="40.14024" lon="8.6123633"><ele>947.0</ele><time>2026-05-02T09:39:07.35Z</time></trkpt><trkpt lat="40.1401383" lon="8.61228"><ele>947.0</ele><time>2026-05-02T09:39:08.35Z</time></trkpt><trkpt lat="40.140035" lon="8.6121667"><ele>947.0</ele><time>2026-05-02T09:39:09.35Z</time></trkpt><trkpt lat="40.13993" lon="8.6120633"><ele>947.0</ele><time>2026-05-02T09:39:10.35Z</time></trkpt><trkpt lat="40.1398217" lon="8.6119733"><ele>949.5</ele><time>2026-05-02T09:39:11.35Z</time></trkpt><trkpt lat="40.1397067" lon="8.611905"><ele>952.0</ele><time>2026-05-02T09:39:12.35Z</time></trkpt><trkpt lat="40.1395783" lon="8.6118117"><ele>954.5</ele><time>2026-05-02T09:39:13.35Z</time></trkpt><trkpt lat="40.139455" lon="8.6117033"><ele>957.0</ele><time>2026-05-02T09:39:14.35Z</time></trkpt><trkpt lat="40.1393367" lon="8.611595"><ele>957.0</ele><time>2026-05-02T09:39:15.35Z</time></trkpt><trkpt lat="40.1392217" lon="8.611485"><ele>957.0</ele><time>2026-05-02T09:39:16.35Z</time></trkpt><trkpt lat="40.1390967" lon="8.6113683"><ele>957.0</ele><time>2026-05-02T09:39:17.35Z</time></trkpt><trkpt lat="40.1389667" lon="8.611245"><ele>957.3333333333333</ele><time>2026-05-02T09:39:18.35Z</time></trkpt><trkpt lat="40.1388233" lon="8.6111067"><ele>957.6666666666666</ele><time>2026-05-02T09:39:19.35Z</time></trkpt><trkpt lat="40.1386883" lon="8.6109867"><ele>958.0</ele><time>2026-05-02T09:39:20.35Z</time></trkpt><trkpt lat="40.1385467" lon="8.6108733"><ele>958.0</ele><time>2026-05-02T09:39:21.35Z</time></trkpt><trkpt lat="40.138415" lon="8.6107667"><ele>958.0</ele><time>2026-05-02T09:39:22.35Z</time></trkpt><trkpt lat="40.1382883" lon="8.6106633"><ele>958.0</ele><time>2026-05-02T09:39:23.35Z</time></trkpt><trkpt lat="40.13817" lon="8.6105683"><ele>958.0</ele><time>2026-05-02T09:39:24.35Z</time></trkpt><trkpt lat="40.1380517" lon="8.6104617"><ele>956.3333333333333</ele><time>2026-05-02T09:39:25.35Z</time></trkpt><trkpt lat="40.1379267" lon="8.610365"><ele>954.6666666666667</ele><time>2026-05-02T09:39:26.35Z</time></trkpt><trkpt lat="40.1377833" lon="8.610245"><ele>953.0</ele><time>2026-05-02T09:39:27.35Z</time></trkpt><trkpt lat="40.1376383" lon="8.6101217"><ele>952.6666666666667</ele><time>2026-05-02T09:39:28.35Z</time></trkpt><trkpt lat="40.1374883" lon="8.60998"><ele>952.3333333333333</ele><time>2026-05-02T09:39:29.35Z</time></trkpt><trkpt lat="40.1373267" lon="8.609845"><ele>952.0</ele><time>2026-05-02T09:39:30.35Z</time></trkpt><trkpt lat="40.1371717" lon="8.6097117"><ele>951.3333333333333</ele><time>2026-05-02T09:39:31.35Z</time></trkpt><trkpt lat="40.1370067" lon="8.60958"><ele>950.6666666666667</ele><time>2026-05-02T09:39:32.35Z</time></trkpt><trkpt lat="40.136835" lon="8.60946"><ele>950.0</ele><time>2026-05-02T09:39:33.35Z</time></trkpt><trkpt lat="40.136675" lon="8.6093333"><ele>949.0</ele><time>2026-05-02T09:39:34.35Z</time></trkpt><trkpt lat="40.1365233" lon="8.6092067"><ele>948.0</ele><time>2026-05-02T09:39:35.35Z</time></trkpt><trkpt lat="40.1363833" lon="8.6090783"><ele>947.0</ele><time>2026-05-02T09:39:36.35Z</time></trkpt><trkpt lat="40.136265" lon="8.6089517"><ele>947.0</ele><time>2026-05-02T09:39:37.35Z</time></trkpt><trkpt lat="40.1361483" lon="8.6088267"><ele>947.0</ele><time>2026-05-02T09:39:38.35Z</time></trkpt><trkpt lat="40.1360517" lon="8.6086883"><ele>947.0</ele><time>2026-05-02T09:39:39.35Z</time></trkpt><trkpt lat="40.1359783" lon="8.608525"><ele>947.0</ele><time>2026-05-02T09:39:40.35Z</time></trkpt><trkpt lat="40.1359133" lon="8.6083417"><ele>947.5</ele><time>2026-05-02T09:39:41.35Z</time></trkpt><trkpt lat="40.1358467" lon="8.6081583"><ele>948.0</ele><time>2026-05-02T09:39:42.35Z</time></trkpt><trkpt lat="40.1357883" lon="8.6079833"><ele>948.5</ele><time>2026-05-02T09:39:43.35Z</time></trkpt><trkpt lat="40.1357467" lon="8.6078167"><ele>949.0</ele><time>2026-05-02T09:39:44.35Z</time></trkpt><trkpt lat="40.13571" lon="8.60764"><ele>950.25</ele><time>2026-05-02T09:39:45.35Z</time></trkpt><trkpt lat="40.1356667" lon="8.6074567"><ele>951.5</ele><time>2026-05-02T09:39:46.35Z</time></trkpt><trkpt lat="40.13561" lon="8.6072933"><ele>952.75</ele><time>2026-05-02T09:39:47.35Z</time></trkpt><trkpt lat="40.1355233" lon="8.6071283"><ele>954.0</ele><time>2026-05-02T09:39:48.35Z</time></trkpt><trkpt lat="40.1354317" lon="8.6069633"><ele>954.0</ele><time>2026-05-02T09:39:49.35Z</time></trkpt><trkpt lat="40.13533" lon="8.6068083"><ele>954.0</ele><time>2026-05-02T09:39:50.35Z</time></trkpt><trkpt lat="40.13522" lon="8.6066817"><ele>954.0</ele><time>2026-05-02T09:39:51.35Z</time></trkpt><trkpt lat="40.1350967" lon="8.606565"><ele>954.0</ele><time>2026-05-02T09:39:52.35Z</time></trkpt><trkpt lat="40.1349733" lon="8.606495"><ele>954.0</ele><time>2026-05-02T09:39:53.35Z</time></trkpt><trkpt lat="40.1348267" lon="8.6064217"><ele>954.0</ele><time>2026-05-02T09:39:54.35Z</time></trkpt><trkpt lat="40.1346633" lon="8.6063383"><ele>956.3333333333333</ele><time>2026-05-02T09:39:55.35Z</time></trkpt><trkpt lat="40.1345" lon="8.6062317"><ele>958.6666666666666</ele><time>2026-05-02T09:39:56.35Z</time></trkpt><trkpt lat="40.1343317" lon="8.6061467"><ele>961.0</ele><time>2026-05-02T09:39:57.35Z</time></trkpt><trkpt lat="40.13416" lon="8.6060483"><ele>957.0</ele><time>2026-05-02T09:39:58.35Z</time></trkpt><trkpt lat="40.1339833" lon="8.6059533"><ele>953.0</ele><time>2026-05-02T09:39:59.35Z</time></trkpt><trkpt lat="40.133795" lon="8.6058767"><ele>949.0</ele><time>2026-05-02T09:40:00.35Z</time></trkpt><trkpt lat="40.1336317" lon="8.6057983"><ele>949.0</ele><time>2026-05-02T09:40:01.35Z</time></trkpt><trkpt lat="40.1334783" lon="8.6057183"><ele>949.0</ele><time>2026-05-02T09:40:02.35Z</time></trkpt><trkpt lat="40.133355" lon="8.605645"><ele>949.0</ele><time>2026-05-02T09:40:03.35Z</time></trkpt><trkpt lat="40.133265" lon="8.6055517"><ele>949.0</ele><time>2026-05-02T09:40:04.35Z</time></trkpt><trkpt lat="40.133185" lon="8.6054317"><ele>945.5</ele><time>2026-05-02T09:40:05.35Z</time></trkpt><trkpt lat="40.1331" lon="8.6053267"><ele>942.0</ele><time>2026-05-02T09:40:06.35Z</time></trkpt><trkpt lat="40.1329933" lon="8.60521"><ele>938.5</ele><time>2026-05-02T09:40:07.35Z</time></trkpt><trkpt lat="40.1328433" lon="8.6050733"><ele>935.0</ele><time>2026-05-02T09:40:08.35Z</time></trkpt><trkpt lat="40.1327233" lon="8.6049517"><ele>935.0</ele><time>2026-05-02T09:40:09.35Z</time></trkpt><trkpt lat="40.132585" lon="8.6048083"><ele>935.0</ele><time>2026-05-02T09:40:10.35Z</time></trkpt><trkpt lat="40.1324433" lon="8.6046617"><ele>935.0</ele><time>2026-05-02T09:40:11.35Z</time></trkpt><trkpt lat="40.1323083" lon="8.6045117"><ele>931.3333333333334</ele><time>2026-05-02T09:40:12.35Z</time></trkpt><trkpt lat="40.1321617" lon="8.6043467"><ele>927.6666666666667</ele><time>2026-05-02T09:40:13.35Z</time></trkpt><trkpt lat="40.13202" lon="8.6041667"><ele>924.0</ele><time>2026-05-02T09:40:14.35Z</time></trkpt><trkpt lat="40.1318867" lon="8.6039883"><ele>924.0</ele><time>2026-05-02T09:40:15.35Z</time></trkpt><trkpt lat="40.1317633" lon="8.6038183"><ele>924.0</ele><time>2026-05-02T09:40:16.35Z</time></trkpt><trkpt lat="40.1316417" lon="8.6036667"><ele>924.0</ele><time>2026-05-02T09:40:17.35Z</time></trkpt><trkpt lat="40.1315183" lon="8.6035133"><ele>921.3333333333333</ele><time>2026-05-02T09:40:18.35Z</time></trkpt><trkpt lat="40.1313967" lon="8.6033633"><ele>918.6666666666666</ele><time>2026-05-02T09:40:19.35Z</time></trkpt><trkpt lat="40.1312683" lon="8.6032267"><ele>916.0</ele><time>2026-05-02T09:40:20.35Z</time></trkpt><trkpt lat="40.131155" lon="8.6030883"><ele>916.0</ele><time>2026-05-02T09:40:21.35Z</time></trkpt><trkpt lat="40.13106" lon="8.602975"><ele>916.0</ele><time>2026-05-02T09:40:22.35Z</time></trkpt><trkpt lat="40.13098" lon="8.6028817"><ele>916.0</ele><time>2026-05-02T09:40:23.35Z</time></trkpt><trkpt lat="40.1308767" lon="8.6027783"><ele>916.0</ele><time>2026-05-02T09:40:24.35Z</time></trkpt><trkpt lat="40.13073" lon="8.6026767"><ele>914.6666666666666</ele><time>2026-05-02T09:40:25.35Z</time></trkpt><trkpt lat="40.1305517" lon="8.602585"><ele>913.3333333333333</ele><time>2026-05-02T09:40:26.35Z</time></trkpt><trkpt lat="40.1303817" lon="8.6025167"><ele>912.0</ele><time>2026-05-02T09:40:27.35Z</time></trkpt><trkpt lat="40.1302317" lon="8.60247"><ele>912.0</ele><time>2026-05-02T09:40:28.35Z</time></trkpt><trkpt lat="40.1300767" lon="8.60245"><ele>912.0</ele><time>2026-05-02T09:40:29.35Z</time></trkpt><trkpt lat="40.1299533" lon="8.602435"><ele>912.0</ele><time>2026-05-02T09:40:30.35Z</time></trkpt><trkpt lat="40.1298333" lon="8.6024183"><ele>912.0</ele><time>2026-05-02T09:40:31.35Z</time></trkpt><trkpt lat="40.129715" lon="8.6024083"><ele>910.5</ele><time>2026-05-02T09:40:32.35Z</time></trkpt><trkpt lat="40.12959" lon="8.60243"><ele>909.0</ele><time>2026-05-02T09:40:33.35Z</time></trkpt><trkpt lat="40.1294683" lon="8.6024583"><ele>907.5</ele><time>2026-05-02T09:40:34.35Z</time></trkpt><trkpt lat="40.129345" lon="8.602465"><ele>906.0</ele><time>2026-05-02T09:40:35.35Z</time></trkpt><trkpt lat="40.129205" lon="8.6024267"><ele>903.3333333333333</ele><time>2026-05-02T09:40:36.35Z</time></trkpt><trkpt lat="40.1290367" lon="8.6023833"><ele>900.6666666666666</ele><time>2026-05-02T09:40:37.35Z</time></trkpt><trkpt lat="40.12885" lon="8.602335"><ele>898.0</ele><time>2026-05-02T09:40:38.35Z</time></trkpt><trkpt lat="40.12865" lon="8.602305"><ele>898.0</ele><time>2026-05-02T09:40:39.35Z</time></trkpt><trkpt lat="40.1284567" lon="8.6022733"><ele>898.0</ele><time>2026-05-02T09:40:40.35Z</time></trkpt><trkpt lat="40.1282733" lon="8.6022233"><ele>898.0</ele><time>2026-05-02T09:40:41.35Z</time></trkpt><trkpt lat="40.12808" lon="8.6021617"><ele>896.3333333333333</ele><time>2026-05-02T09:40:42.35Z</time></trkpt><trkpt lat="40.12789" lon="8.602105"><ele>894.6666666666667</ele><time>2026-05-02T09:40:43.35Z</time></trkpt><trkpt lat="40.1277033" lon="8.60206"><ele>893.0</ele><time>2026-05-02T09:40:44.35Z</time></trkpt><trkpt lat="40.1275133" lon="8.602005"><ele>891.0</ele><time>2026-05-02T09:40:45.35Z</time></trkpt><trkpt lat="40.1273183" lon="8.6019683"><ele>889.0</ele><time>2026-05-02T09:40:46.35Z</time></trkpt><trkpt lat="40.1271217" lon="8.6019267"><ele>887.0</ele><time>2026-05-02T09:40:47.35Z</time></trkpt><trkpt lat="40.1269317" lon="8.6018883"><ele>887.0</ele><time>2026-05-02T09:40:48.35Z</time></trkpt><trkpt lat="40.126765" lon="8.601855"><ele>887.0</ele><time>2026-05-02T09:40:49.35Z</time></trkpt><trkpt lat="40.1266183" lon="8.6018133"><ele>887.0</ele><time>2026-05-02T09:40:50.35Z</time></trkpt><trkpt lat="40.1264883" lon="8.6017733"><ele>886.4000000000001</ele><time>2026-05-02T09:40:51.35Z</time></trkpt><trkpt lat="40.1263783" lon="8.60175"><ele>885.8000000000001</ele><time>2026-05-02T09:40:52.35Z</time></trkpt><trkpt lat="40.1262767" lon="8.6017267"><ele>885.2</ele><time>2026-05-02T09:40:53.35Z</time></trkpt><trkpt lat="40.1261933" lon="8.6017067"><ele>884.6</ele><time>2026-05-02T09:40:54.35Z</time></trkpt><trkpt lat="40.1260917" lon="8.601655"><ele>884.0</ele><time>2026-05-02T09:40:56.35Z</time></trkpt><trkpt lat="40.1260283" lon="8.6016467"><ele>884.0000000000001</ele><time>2026-05-02T09:40:58.35Z</time></trkpt><trkpt lat="40.1259533" lon="8.601625"><ele>884.0</ele><time>2026-05-02T09:41:02.35Z</time></trkpt><trkpt lat="40.12589" lon="8.6016117"><ele>884.0</ele><time>2026-05-02T09:41:04.35Z</time></trkpt><trkpt lat="40.1258267" lon="8.6016067"><ele>884.0</ele><time>2026-05-02T09:41:05.35Z</time></trkpt><trkpt lat="40.125735" lon="8.6015933"><ele>884.0000000000001</ele><time>2026-05-02T09:41:06.35Z</time></trkpt><trkpt lat="40.1256167" lon="8.6015567"><ele>884.0</ele><time>2026-05-02T09:41:07.35Z</time></trkpt><trkpt lat="40.1255" lon="8.6015333"><ele>882.5</ele><time>2026-05-02T09:41:08.35Z</time></trkpt><trkpt lat="40.125375" lon="8.6015083"><ele>881.0</ele><time>2026-05-02T09:41:09.35Z</time></trkpt><trkpt lat="40.1252267" lon="8.60148"><ele>879.5</ele><time>2026-05-02T09:41:10.35Z</time></trkpt><trkpt lat="40.12507" lon="8.6014617"><ele>878.0</ele><time>2026-05-02T09:41:11.35Z</time></trkpt><trkpt lat="40.1249167" lon="8.6014417"><ele>876.0</ele><time>2026-05-02T09:41:12.35Z</time></trkpt><trkpt lat="40.1247717" lon="8.6014117"><ele>874.0</ele><time>2026-05-02T09:41:13.35Z</time></trkpt><trkpt lat="40.124645" lon="8.6013733"><ele>872.0</ele><time>2026-05-02T09:41:14.35Z</time></trkpt><trkpt lat="40.12452" lon="8.6013467"><ele>870.0</ele><time>2026-05-02T09:41:15.35Z</time></trkpt><trkpt lat="40.1244017" lon="8.6013133"><ele>870.0</ele><time>2026-05-02T09:41:16.35Z</time></trkpt><trkpt lat="40.1242817" lon="8.601275"><ele>870.0</ele><time>2026-05-02T09:41:17.35Z</time></trkpt><trkpt lat="40.12416" lon="8.60124"><ele>870.0</ele><time>2026-05-02T09:41:18.35Z</time></trkpt><trkpt lat="40.1240383" lon="8.601205"><ele>870.0</ele><time>2026-05-02T09:41:19.35Z</time></trkpt><trkpt lat="40.1239233" lon="8.6011667"><ele>867.75</ele><time>2026-05-02T09:41:20.35Z</time></trkpt><trkpt lat="40.1238083" lon="8.6011333"><ele>865.5</ele><time>2026-05-02T09:41:21.35Z</time></trkpt><trkpt lat="40.1236933" lon="8.6011117"><ele>863.25</ele><time>2026-05-02T09:41:22.35Z</time></trkpt><trkpt lat="40.1235833" lon="8.6010983"><ele>861.0</ele><time>2026-05-02T09:41:23.35Z</time></trkpt><trkpt lat="40.12347" lon="8.6010933"><ele>861.0</ele><time>2026-05-02T09:41:24.35Z</time></trkpt><trkpt lat="40.1233667" lon="8.6010817"><ele>860.9999999999999</ele><time>2026-05-02T09:41:25.35Z</time></trkpt><trkpt lat="40.1232867" lon="8.6010483"><ele>860.9999999999999</ele><time>2026-05-02T09:41:26.35Z</time></trkpt><trkpt lat="40.1232217" lon="8.6009817"><ele>861.0</ele><time>2026-05-02T09:41:27.35Z</time></trkpt><trkpt lat="40.1231683" lon="8.6008717"><ele>861.0</ele><time>2026-05-02T09:41:28.35Z</time></trkpt><trkpt lat="40.12312" lon="8.600735"><ele>860.0</ele><time>2026-05-02T09:41:29.35Z</time></trkpt><trkpt lat="40.1230667" lon="8.6005883"><ele>859.0</ele><time>2026-05-02T09:41:30.35Z</time></trkpt><trkpt lat="40.1230333" lon="8.6004717"><ele>858.0</ele><time>2026-05-02T09:41:31.35Z</time></trkpt><trkpt lat="40.1229933" lon="8.6004"><ele>857.0</ele><time>2026-05-02T09:41:32.35Z</time></trkpt><trkpt lat="40.12294" lon="8.60034"><ele>856.0</ele><time>2026-05-02T09:41:33.35Z</time></trkpt><trkpt lat="40.1228633" lon="8.6003183"><ele>855.0</ele><time>2026-05-02T09:41:34.35Z</time></trkpt><trkpt lat="40.12277" lon="8.6003533"><ele>854.75</ele><time>2026-05-02T09:41:35.35Z</time></trkpt><trkpt lat="40.12264" lon="8.6004017"><ele>854.5</ele><time>2026-05-02T09:41:36.35Z</time></trkpt><trkpt lat="40.122505" lon="8.600445"><ele>854.25</ele><time>2026-05-02T09:41:37.35Z</time></trkpt><trkpt lat="40.1223933" lon="8.60049"><ele>854.0</ele><time>2026-05-02T09:41:38.35Z</time></trkpt><trkpt lat="40.1222683" lon="8.6005283"><ele>852.4000000000001</ele><time>2026-05-02T09:41:39.35Z</time></trkpt><trkpt lat="40.122155" lon="8.6005683"><ele>850.8000000000001</ele><time>2026-05-02T09:41:40.35Z</time></trkpt><trkpt lat="40.1220433" lon="8.60061"><ele>849.2</ele><time>2026-05-02T09:41:41.35Z</time></trkpt><trkpt lat="40.1219367" lon="8.600645"><ele>847.5999999999999</ele><time>2026-05-02T09:41:42.35Z</time></trkpt><trkpt lat="40.1218467" lon="8.6006733"><ele>846.0</ele><time>2026-05-02T09:41:43.35Z</time></trkpt><trkpt lat="40.1217467" lon="8.600675"><ele>846.0</ele><time>2026-05-02T09:41:44.35Z</time></trkpt><trkpt lat="40.12163" lon="8.6006683"><ele>846.0</ele><time>2026-05-02T09:41:45.35Z</time></trkpt><trkpt lat="40.1214983" lon="8.600635"><ele>846.0</ele><time>2026-05-02T09:41:46.35Z</time></trkpt><trkpt lat="40.1213667" lon="8.6006"><ele>846.0</ele><time>2026-05-02T09:41:47.35Z</time></trkpt><trkpt lat="40.1212267" lon="8.60056"><ele>844.25</ele><time>2026-05-02T09:41:48.35Z</time></trkpt><trkpt lat="40.1210933" lon="8.6005433"><ele>842.5</ele><time>2026-05-02T09:41:49.35Z</time></trkpt><trkpt lat="40.1209583" lon="8.6005067"><ele>840.75</ele><time>2026-05-02T09:41:50.35Z</time></trkpt><trkpt lat="40.1208333" lon="8.600475"><ele>839.0</ele><time>2026-05-02T09:41:51.35Z</time></trkpt><trkpt lat="40.1207117" lon="8.6004533"><ele>837.8000000000001</ele><time>2026-05-02T09:41:52.35Z</time></trkpt><trkpt lat="40.1205983" lon="8.6004217"><ele>836.6</ele><time>2026-05-02T09:41:53.35Z</time></trkpt><trkpt lat="40.1205033" lon="8.6003917"><ele>835.4</ele><time>2026-05-02T09:41:54.35Z</time></trkpt><trkpt lat="40.1204133" lon="8.6003517"><ele>834.2</ele><time>2026-05-02T09:41:55.35Z</time></trkpt><trkpt lat="40.12033" lon="8.6003367"><ele>833.0</ele><time>2026-05-02T09:41:56.35Z</time></trkpt><trkpt lat="40.1202567" lon="8.60031"><ele>832.5</ele><time>2026-05-02T09:41:57.35Z</time></trkpt><trkpt lat="40.1201883" lon="8.6002667"><ele>832.0</ele><time>2026-05-02T09:41:58.35Z</time></trkpt><trkpt lat="40.120135" lon="8.60013"><ele>831.5</ele><time>2026-05-02T09:42:00.35Z</time></trkpt><trkpt lat="40.1201633" lon="8.59997"><ele>831.0</ele><time>2026-05-02T09:42:01.35Z</time></trkpt><trkpt lat="40.1201967" lon="8.5997933"><ele>831.0</ele><time>2026-05-02T09:42:02.35Z</time></trkpt><trkpt lat="40.1202333" lon="8.599595"><ele>831.0</ele><time>2026-05-02T09:42:03.35Z</time></trkpt><trkpt lat="40.1202733" lon="8.5993783"><ele>831.0</ele><time>2026-05-02T09:42:04.35Z</time></trkpt><trkpt lat="40.1203083" lon="8.5991567"><ele>830.3333333333333</ele><time>2026-05-02T09:42:05.35Z</time></trkpt><trkpt lat="40.12034" lon="8.5989383"><ele>829.6666666666666</ele><time>2026-05-02T09:42:06.35Z</time></trkpt><trkpt lat="40.1203683" lon="8.5987283"><ele>829.0</ele><time>2026-05-02T09:42:07.35Z</time></trkpt><trkpt lat="40.1203833" lon="8.5985417"><ele>828.8000000000001</ele><time>2026-05-02T09:42:08.35Z</time></trkpt><trkpt lat="40.1204117" lon="8.59838"><ele>828.6</ele><time>2026-05-02T09:42:09.35Z</time></trkpt><trkpt lat="40.1204317" lon="8.59824"><ele>828.4</ele><time>2026-05-02T09:42:10.35Z</time></trkpt><trkpt lat="40.1204467" lon="8.598095"><ele>828.2</ele><time>2026-05-02T09:42:11.35Z</time></trkpt><trkpt lat="40.1204667" lon="8.5979733"><ele>828.0</ele><time>2026-05-02T09:42:12.35Z</time></trkpt><trkpt lat="40.1204983" lon="8.5978467"><ele>828.1666666666666</ele><time>2026-05-02T09:42:13.35Z</time></trkpt><trkpt lat="40.120535" lon="8.5977467"><ele>828.3333333333333</ele><time>2026-05-02T09:42:14.35Z</time></trkpt><trkpt lat="40.120555" lon="8.59766"><ele>828.5</ele><time>2026-05-02T09:42:15.35Z</time></trkpt><trkpt lat="40.1205633" lon="8.59757"><ele>828.6666666666666</ele><time>2026-05-02T09:42:16.35Z</time></trkpt><trkpt lat="40.120555" lon="8.59747"><ele>828.8333333333333</ele><time>2026-05-02T09:42:17.35Z</time></trkpt><trkpt lat="40.1205217" lon="8.5973533"><ele>829.0</ele><time>2026-05-02T09:42:18.35Z</time></trkpt><trkpt lat="40.12047" lon="8.59722"><ele>829.0</ele><time>2026-05-02T09:42:19.35Z</time></trkpt><trkpt lat="40.1204033" lon="8.597075"><ele>829.0</ele><time>2026-05-02T09:42:20.35Z</time></trkpt><trkpt lat="40.1203333" lon="8.5969167"><ele>829.0</ele><time>2026-05-02T09:42:21.35Z</time></trkpt><trkpt lat="40.1202683" lon="8.59677"><ele>829.0</ele><time>2026-05-02T09:42:22.35Z</time></trkpt><trkpt lat="40.1201983" lon="8.5966283"><ele>830.0</ele><time>2026-05-02T09:42:23.35Z</time></trkpt><trkpt lat="40.120115" lon="8.5964867"><ele>831.0</ele><time>2026-05-02T09:42:24.35Z</time></trkpt><trkpt lat="40.12003" lon="8.596355"><ele>832.0</ele><time>2026-05-02T09:42:25.35Z</time></trkpt><trkpt lat="40.119955" lon="8.59621"><ele>833.0</ele><time>2026-05-02T09:42:26.35Z</time></trkpt><trkpt lat="40.11988" lon="8.596045"><ele>830.5</ele><time>2026-05-02T09:42:27.35Z</time></trkpt><trkpt lat="40.1197883" lon="8.595925"><ele>828.0</ele><time>2026-05-02T09:42:28.35Z</time></trkpt><trkpt lat="40.1197367" lon="8.5957967"><ele>825.5</ele><time>2026-05-02T09:42:29.35Z</time></trkpt><trkpt lat="40.1197017" lon="8.5956533"><ele>823.0</ele><time>2026-05-02T09:42:30.35Z</time></trkpt><trkpt lat="40.1196733" lon="8.5954867"><ele>823.25</ele><time>2026-05-02T09:42:31.35Z</time></trkpt><trkpt lat="40.11965" lon="8.5953233"><ele>823.5</ele><time>2026-05-02T09:42:32.35Z</time></trkpt><trkpt lat="40.11964" lon="8.5951733"><ele>823.75</ele><time>2026-05-02T09:42:33.35Z</time></trkpt><trkpt lat="40.119625" lon="8.5949883"><ele>824.0</ele><time>2026-05-02T09:42:34.35Z</time></trkpt><trkpt lat="40.1196117" lon="8.5947917"><ele>824.0</ele><time>2026-05-02T09:42:35.35Z</time></trkpt><trkpt lat="40.1196" lon="8.5946"><ele>824.0</ele><time>2026-05-02T09:42:36.35Z</time></trkpt><trkpt lat="40.1195833" lon="8.5944067"><ele>824.0</ele><time>2026-05-02T09:42:37.35Z</time></trkpt><trkpt lat="40.1195483" lon="8.5942333"><ele>824.0</ele><time>2026-05-02T09:42:38.35Z</time></trkpt><trkpt lat="40.119495" lon="8.59405"><ele>824.25</ele><time>2026-05-02T09:42:39.35Z</time></trkpt><trkpt lat="40.119425" lon="8.593875"><ele>824.5</ele><time>2026-05-02T09:42:40.35Z</time></trkpt><trkpt lat="40.1193583" lon="8.593705"><ele>824.75</ele><time>2026-05-02T09:42:41.35Z</time></trkpt><trkpt lat="40.1192917" lon="8.5935417"><ele>825.0</ele><time>2026-05-02T09:42:42.35Z</time></trkpt><trkpt lat="40.1192267" lon="8.59339"><ele>825.75</ele><time>2026-05-02T09:42:43.35Z</time></trkpt><trkpt lat="40.1191617" lon="8.5932383"><ele>826.5</ele><time>2026-05-02T09:42:44.35Z</time></trkpt><trkpt lat="40.1191" lon="8.59307"><ele>827.25</ele><time>2026-05-02T09:42:45.35Z</time></trkpt><trkpt lat="40.1190267" lon="8.5929083"><ele>828.0</ele><time>2026-05-02T09:42:46.35Z</time></trkpt><trkpt lat="40.1189717" lon="8.59273"><ele>826.5</ele><time>2026-05-02T09:42:47.35Z</time></trkpt><trkpt lat="40.1189333" lon="8.592525"><ele>825.0</ele><time>2026-05-02T09:42:48.35Z</time></trkpt><trkpt lat="40.1189083" lon="8.5923333"><ele>823.5</ele><time>2026-05-02T09:42:49.35Z</time></trkpt><trkpt lat="40.118885" lon="8.5921567"><ele>822.0</ele><time>2026-05-02T09:42:50.35Z</time></trkpt><trkpt lat="40.11886" lon="8.59201"><ele>822.5</ele><time>2026-05-02T09:42:51.35Z</time></trkpt><trkpt lat="40.1188317" lon="8.5918633"><ele>823.0</ele><time>2026-05-02T09:42:52.35Z</time></trkpt><trkpt lat="40.1187833" lon="8.5917133"><ele>823.5</ele><time>2026-05-02T09:42:53.35Z</time></trkpt><trkpt lat="40.1187417" lon="8.59156"><ele>824.0</ele><time>2026-05-02T09:42:54.35Z</time></trkpt><trkpt lat="40.1186933" lon="8.5914133"><ele>824.0</ele><time>2026-05-02T09:42:55.35Z</time></trkpt><trkpt lat="40.118645" lon="8.5912633"><ele>824.0</ele><time>2026-05-02T09:42:56.35Z</time></trkpt><trkpt lat="40.118605" lon="8.5911117"><ele>824.0</ele><time>2026-05-02T09:42:57.35Z</time></trkpt><trkpt lat="40.1185667" lon="8.590975"><ele>824.0</ele><time>2026-05-02T09:42:58.35Z</time></trkpt><trkpt lat="40.1185417" lon="8.590845"><ele>824.0</ele><time>2026-05-02T09:42:59.35Z</time></trkpt><trkpt lat="40.1185267" lon="8.5907267"><ele>824.0</ele><time>2026-05-02T09:43:00.35Z</time></trkpt><trkpt lat="40.1185267" lon="8.5905883"><ele>824.0</ele><time>2026-05-02T09:43:01.35Z</time></trkpt><trkpt lat="40.1185283" lon="8.59041"><ele>824.0</ele><time>2026-05-02T09:43:02.35Z</time></trkpt><trkpt lat="40.1185383" lon="8.5902133"><ele>824.0</ele><time>2026-05-02T09:43:03.35Z</time></trkpt><trkpt lat="40.1185433" lon="8.5900283"><ele>824.0</ele><time>2026-05-02T09:43:04.35Z</time></trkpt><trkpt lat="40.1185383" lon="8.5898167"><ele>824.0</ele><time>2026-05-02T09:43:05.35Z</time></trkpt><trkpt lat="40.1185283" lon="8.58963"><ele>824.0</ele><time>2026-05-02T09:43:06.35Z</time></trkpt><trkpt lat="40.1185267" lon="8.5894583"><ele>824.0</ele><time>2026-05-02T09:43:07.35Z</time></trkpt><trkpt lat="40.11853" lon="8.589285"><ele>824.0</ele><time>2026-05-02T09:43:08.35Z</time></trkpt><trkpt lat="40.11853" lon="8.5891067"><ele>824.0</ele><time>2026-05-02T09:43:09.35Z</time></trkpt><trkpt lat="40.1185283" lon="8.5889167"><ele>824.0</ele><time>2026-05-02T09:43:10.35Z</time></trkpt><trkpt lat="40.11854" lon="8.5887467"><ele>824.0</ele><time>2026-05-02T09:43:11.35Z</time></trkpt><trkpt lat="40.11856" lon="8.58856"><ele>824.0</ele><time>2026-05-02T09:43:12.35Z</time></trkpt><trkpt lat="40.1185667" lon="8.5883917"><ele>824.0</ele><time>2026-05-02T09:43:13.35Z</time></trkpt><trkpt lat="40.118575" lon="8.58825"><ele>824.0</ele><time>2026-05-02T09:43:14.35Z</time></trkpt><trkpt lat="40.118575" lon="8.5881317"><ele>824.0000000000001</ele><time>2026-05-02T09:43:15.35Z</time></trkpt><trkpt lat="40.1185617" lon="8.58803"><ele>824.0</ele><time>2026-05-02T09:43:16.35Z</time></trkpt><trkpt lat="40.1185267" lon="8.5879367"><ele>824.0</ele><time>2026-05-02T09:43:17.35Z</time></trkpt><trkpt lat="40.1184717" lon="8.587855"><ele>824.0</ele><time>2026-05-02T09:43:18.35Z</time></trkpt><trkpt lat="40.118395" lon="8.5877717"><ele>824.0000000000001</ele><time>2026-05-02T09:43:19.35Z</time></trkpt><trkpt lat="40.1183183" lon="8.587705"><ele>824.0</ele><time>2026-05-02T09:43:20.35Z</time></trkpt><trkpt lat="40.11826" lon="8.5876417"><ele>822.1666666666667</ele><time>2026-05-02T09:43:21.35Z</time></trkpt><trkpt lat="40.1181967" lon="8.5875083"><ele>820.3333333333334</ele><time>2026-05-02T09:43:23.35Z</time></trkpt><trkpt lat="40.1181467" lon="8.587405"><ele>818.5</ele><time>2026-05-02T09:43:25.35Z</time></trkpt><trkpt lat="40.1180917" lon="8.587345"><ele>816.6666666666667</ele><time>2026-05-02T09:43:27.35Z</time></trkpt><trkpt lat="40.1180117" lon="8.58732"><ele>814.8333333333334</ele><time>2026-05-02T09:43:29.35Z</time></trkpt><trkpt lat="40.1179367" lon="8.58731"><ele>813.0</ele><time>2026-05-02T09:43:30.35Z</time></trkpt><trkpt lat="40.11786" lon="8.5873083"><ele>813.0</ele><time>2026-05-02T09:43:31.35Z</time></trkpt><trkpt lat="40.1177683" lon="8.5872933"><ele>813.0</ele><time>2026-05-02T09:43:32.35Z</time></trkpt><trkpt lat="40.117675" lon="8.5872817"><ele>813.0</ele><time>2026-05-02T09:43:33.35Z</time></trkpt><trkpt lat="40.1175867" lon="8.5872767"><ele>813.0</ele><time>2026-05-02T09:43:34.35Z</time></trkpt><trkpt lat="40.117505" lon="8.5872617"><ele>813.0</ele><time>2026-05-02T09:43:35.35Z</time></trkpt><trkpt lat="40.1174317" lon="8.58725"><ele>813.0</ele><time>2026-05-02T09:43:36.35Z</time></trkpt><trkpt lat="40.1173617" lon="8.5872517"><ele>812.1666666666666</ele><time>2026-05-02T09:43:37.35Z</time></trkpt><trkpt lat="40.1172933" lon="8.5872583"><ele>811.3333333333333</ele><time>2026-05-02T09:43:38.35Z</time></trkpt><trkpt lat="40.1171733" lon="8.5872817"><ele>810.5</ele><time>2026-05-02T09:43:40.35Z</time></trkpt><trkpt lat="40.117105" lon="8.587295"><ele>809.6666666666666</ele><time>2026-05-02T09:43:41.35Z</time></trkpt><trkpt lat="40.1170383" lon="8.5873117"><ele>808.8333333333333</ele><time>2026-05-02T09:43:42.35Z</time></trkpt><trkpt lat="40.116975" lon="8.5873317"><ele>808.0</ele><time>2026-05-02T09:43:43.35Z</time></trkpt><trkpt lat="40.116915" lon="8.5873583"><ele>808.0</ele><time>2026-05-02T09:43:44.35Z</time></trkpt><trkpt lat="40.1168033" lon="8.5873583"><ele>808.0</ele><time>2026-05-02T09:43:46.35Z</time></trkpt><trkpt lat="40.11673" lon="8.5873333"><ele>808.0</ele><time>2026-05-02T09:43:47.35Z</time></trkpt><trkpt lat="40.1166633" lon="8.587315"><ele>808.0</ele><time>2026-05-02T09:43:48.35Z</time></trkpt><trkpt lat="40.1165967" lon="8.5872967"><ele>808.0</ele><time>2026-05-02T09:43:49.35Z</time></trkpt><trkpt lat="40.116475" lon="8.5872517"><ele>807.2</ele><time>2026-05-02T09:43:51.35Z</time></trkpt><trkpt lat="40.11639" lon="8.587195"><ele>806.4</ele><time>2026-05-02T09:43:53.35Z</time></trkpt><trkpt lat="40.116325" lon="8.5870767"><ele>805.6</ele><time>2026-05-02T09:43:55.35Z</time></trkpt><trkpt lat="40.1162917" lon="8.58699"><ele>804.8000000000001</ele><time>2026-05-02T09:43:56.35Z</time></trkpt><trkpt lat="40.1162467" lon="8.5869"><ele>804.0</ele><time>2026-05-02T09:43:57.35Z</time></trkpt><trkpt lat="40.1161917" lon="8.586805"><ele>803.0</ele><time>2026-05-02T09:43:58.35Z</time></trkpt><trkpt lat="40.1161333" lon="8.586735"><ele>802.0</ele><time>2026-05-02T09:43:59.35Z</time></trkpt><trkpt lat="40.1160767" lon="8.5866767"><ele>801.0</ele><time>2026-05-02T09:44:00.35Z</time></trkpt><trkpt lat="40.115995" lon="8.586605"><ele>800.0</ele><time>2026-05-02T09:44:01.35Z</time></trkpt><trkpt lat="40.1159167" lon="8.5865633"><ele>799.0</ele><time>2026-05-02T09:44:02.35Z</time></trkpt><trkpt lat="40.1158233" lon="8.5865317"><ele>798.0</ele><time>2026-05-02T09:44:03.35Z</time></trkpt><trkpt lat="40.11573" lon="8.5865033"><ele>796.8</ele><time>2026-05-02T09:44:04.35Z</time></trkpt><trkpt lat="40.115635" lon="8.586455"><ele>795.5999999999999</ele><time>2026-05-02T09:44:05.35Z</time></trkpt><trkpt lat="40.11555" lon="8.5864167"><ele>794.4000000000001</ele><time>2026-05-02T09:44:06.35Z</time></trkpt><trkpt lat="40.1154783" lon="8.586385"><ele>793.2</ele><time>2026-05-02T09:44:07.35Z</time></trkpt><trkpt lat="40.1154017" lon="8.5863467"><ele>792.0</ele><time>2026-05-02T09:44:08.35Z</time></trkpt><trkpt lat="40.11529" lon="8.5863183"><ele>792.0</ele><time>2026-05-02T09:44:10.35Z</time></trkpt><trkpt lat="40.1152217" lon="8.586315"><ele>792.0</ele><time>2026-05-02T09:44:12.35Z</time></trkpt><trkpt lat="40.1151567" lon="8.58635"><ele>792.0</ele><time>2026-05-02T09:44:15.35Z</time></trkpt><trkpt lat="40.11507" lon="8.586375"><ele>792.0</ele><time>2026-05-02T09:44:18.35Z</time></trkpt><trkpt lat="40.1149883" lon="8.5863217"><ele>792.0</ele><time>2026-05-02T09:44:22.35Z</time></trkpt><trkpt lat="40.11494" lon="8.5862367"><ele>792.0</ele><time>2026-05-02T09:44:24.35Z</time></trkpt><trkpt lat="40.114845" lon="8.5861233"><ele>790.1666666666666</ele><time>2026-05-02T09:44:26.35Z</time></trkpt><trkpt lat="40.1147817" lon="8.5860567"><ele>788.3333333333333</ele><time>2026-05-02T09:44:27.35Z</time></trkpt><trkpt lat="40.1147183" lon="8.58599"><ele>786.5</ele><time>2026-05-02T09:44:28.35Z</time></trkpt><trkpt lat="40.114665" lon="8.5859233"><ele>784.6666666666666</ele><time>2026-05-02T09:44:29.35Z</time></trkpt><trkpt lat="40.1146183" lon="8.585855"><ele>782.8333333333333</ele><time>2026-05-02T09:44:30.35Z</time></trkpt><trkpt lat="40.1145783" lon="8.5857767"><ele>781.0</ele><time>2026-05-02T09:44:31.35Z</time></trkpt><trkpt lat="40.1145267" lon="8.5856967"><ele>780.9999999999999</ele><time>2026-05-02T09:44:32.35Z</time></trkpt><trkpt lat="40.11447" lon="8.5856267"><ele>781.0</ele><time>2026-05-02T09:44:33.35Z</time></trkpt><trkpt lat="40.1144133" lon="8.5855667"><ele>781.0</ele><time>2026-05-02T09:44:34.35Z</time></trkpt><trkpt lat="40.1143583" lon="8.585525"><ele>781.0</ele><time>2026-05-02T09:44:35.35Z</time></trkpt><trkpt lat="40.11426" lon="8.5854683"><ele>780.9999999999999</ele><time>2026-05-02T09:44:37.35Z</time></trkpt><trkpt lat="40.114135" lon="8.585435"><ele>781.0</ele><time>2026-05-02T09:44:39.35Z</time></trkpt><trkpt lat="40.114025" lon="8.5853883"><ele>778.1999999999999</ele><time>2026-05-02T09:44:41.35Z</time></trkpt><trkpt lat="40.1139317" lon="8.5853033"><ele>775.4</ele><time>2026-05-02T09:44:43.35Z</time></trkpt><trkpt lat="40.113845" lon="8.58524"><ele>772.6</ele><time>2026-05-02T09:44:45.35Z</time></trkpt><trkpt lat="40.1137467" lon="8.5851667"><ele>769.8</ele><time>2026-05-02T09:44:47.35Z</time></trkpt><trkpt lat="40.1136867" lon="8.5851117"><ele>767.0</ele><time>2026-05-02T09:44:48.35Z</time></trkpt><trkpt lat="40.11362" lon="8.5850483"><ele>767.0</ele><time>2026-05-02T09:44:49.35Z</time></trkpt><trkpt lat="40.11355" lon="8.5849867"><ele>767.0</ele><time>2026-05-02T09:44:50.35Z</time></trkpt><trkpt lat="40.11348" lon="8.58492"><ele>767.0</ele><time>2026-05-02T09:44:51.35Z</time></trkpt><trkpt lat="40.1134067" lon="8.5848517"><ele>767.0</ele><time>2026-05-02T09:44:52.35Z</time></trkpt><trkpt lat="40.1133317" lon="8.5847867"><ele>767.0</ele><time>2026-05-02T09:44:53.35Z</time></trkpt><trkpt lat="40.11326" lon="8.5847317"><ele>767.0</ele><time>2026-05-02T09:44:54.35Z</time></trkpt><trkpt lat="40.1131833" lon="8.5846833"><ele>765.2</ele><time>2026-05-02T09:44:55.35Z</time></trkpt><trkpt lat="40.1130983" lon="8.5846317"><ele>763.4000000000001</ele><time>2026-05-02T09:44:56.35Z</time></trkpt><trkpt lat="40.1130283" lon="8.5845917"><ele>761.5999999999999</ele><time>2026-05-02T09:44:57.35Z</time></trkpt><trkpt lat="40.112895" lon="8.5845383"><ele>759.8</ele><time>2026-05-02T09:44:59.35Z</time></trkpt><trkpt lat="40.1128333" lon="8.5844883"><ele>758.0</ele><time>2026-05-02T09:45:00.35Z</time></trkpt><trkpt lat="40.1127717" lon="8.584425"><ele>756.8</ele><time>2026-05-02T09:45:01.35Z</time></trkpt><trkpt lat="40.112725" lon="8.584365"><ele>755.5999999999999</ele><time>2026-05-02T09:45:02.35Z</time></trkpt><trkpt lat="40.1126867" lon="8.5842167"><ele>754.4000000000001</ele><time>2026-05-02T09:45:04.35Z</time></trkpt><trkpt lat="40.1126967" lon="8.5841183"><ele>753.2</ele><time>2026-05-02T09:45:05.35Z</time></trkpt><trkpt lat="40.11272" lon="8.5839733"><ele>752.0</ele><time>2026-05-02T09:45:06.35Z</time></trkpt><trkpt lat="40.1127567" lon="8.5837967"><ele>750.6666666666666</ele><time>2026-05-02T09:45:07.35Z</time></trkpt><trkpt lat="40.1128117" lon="8.583565"><ele>749.3333333333334</ele><time>2026-05-02T09:45:08.35Z</time></trkpt><trkpt lat="40.1128567" lon="8.5833517"><ele>748.0</ele><time>2026-05-02T09:45:09.35Z</time></trkpt><trkpt lat="40.1128967" lon="8.5831267"><ele>748.0</ele><time>2026-05-02T09:45:10.35Z</time></trkpt><trkpt lat="40.1129017" lon="8.5828967"><ele>748.0</ele><time>2026-05-02T09:45:11.35Z</time></trkpt><trkpt lat="40.1129067" lon="8.5826867"><ele>748.0</ele><time>2026-05-02T09:45:12.35Z</time></trkpt><trkpt lat="40.1129367" lon="8.5824967"><ele>747.3333333333334</ele><time>2026-05-02T09:45:13.35Z</time></trkpt><trkpt lat="40.112985" lon="8.5823233"><ele>746.6666666666666</ele><time>2026-05-02T09:45:14.35Z</time></trkpt><trkpt lat="40.1130583" lon="8.5821267"><ele>746.0</ele><time>2026-05-02T09:45:15.35Z</time></trkpt><trkpt lat="40.113155" lon="8.581955"><ele>747.6666666666666</ele><time>2026-05-02T09:45:16.35Z</time></trkpt><trkpt lat="40.1132767" lon="8.5817683"><ele>749.3333333333334</ele><time>2026-05-02T09:45:17.35Z</time></trkpt><trkpt lat="40.1134017" lon="8.5815683"><ele>751.0</ele><time>2026-05-02T09:45:18.35Z</time></trkpt><trkpt lat="40.113535" lon="8.581365"><ele>750.3333333333334</ele><time>2026-05-02T09:45:19.35Z</time></trkpt><trkpt lat="40.1136617" lon="8.5811783"><ele>749.6666666666666</ele><time>2026-05-02T09:45:20.35Z</time></trkpt><trkpt lat="40.1137717" lon="8.5810217"><ele>749.0</ele><time>2026-05-02T09:45:21.35Z</time></trkpt><trkpt lat="40.1138583" lon="8.5808367"><ele>749.0</ele><time>2026-05-02T09:45:22.35Z</time></trkpt><trkpt lat="40.11393" lon="8.5806283"><ele>749.0</ele><time>2026-05-02T09:45:23.35Z</time></trkpt><trkpt lat="40.113985" lon="8.5804167"><ele>749.0</ele><time>2026-05-02T09:45:24.35Z</time></trkpt><trkpt lat="40.1140317" lon="8.5802117"><ele>750.3333333333333</ele><time>2026-05-02T09:45:25.35Z</time></trkpt><trkpt lat="40.1140767" lon="8.5800117"><ele>751.6666666666666</ele><time>2026-05-02T09:45:26.35Z</time></trkpt><trkpt lat="40.1141033" lon="8.5797833"><ele>753.0</ele><time>2026-05-02T09:45:27.35Z</time></trkpt><trkpt lat="40.1141367" lon="8.57956"><ele>753.0</ele><time>2026-05-02T09:45:28.35Z</time></trkpt><trkpt lat="40.1141617" lon="8.57936"><ele>753.0</ele><time>2026-05-02T09:45:29.35Z</time></trkpt><trkpt lat="40.114175" lon="8.5791667"><ele>753.0</ele><time>2026-05-02T09:45:30.35Z</time></trkpt><trkpt lat="40.1141933" lon="8.5789683"><ele>753.0</ele><time>2026-05-02T09:45:31.35Z</time></trkpt><trkpt lat="40.1142217" lon="8.5787767"><ele>753.0</ele><time>2026-05-02T09:45:32.35Z</time></trkpt><trkpt lat="40.114245" lon="8.578595"><ele>753.0</ele><time>2026-05-02T09:45:33.35Z</time></trkpt><trkpt lat="40.1142617" lon="8.578405"><ele>753.0</ele><time>2026-05-02T09:45:34.35Z</time></trkpt><trkpt lat="40.1142633" lon="8.5782167"><ele>753.0</ele><time>2026-05-02T09:45:35.35Z</time></trkpt><trkpt lat="40.1142483" lon="8.5780233"><ele>753.0</ele><time>2026-05-02T09:45:36.35Z</time></trkpt><trkpt lat="40.114235" lon="8.577835"><ele>753.0</ele><time>2026-05-02T09:45:37.35Z</time></trkpt><trkpt lat="40.1142317" lon="8.5776517"><ele>753.0</ele><time>2026-05-02T09:45:38.35Z</time></trkpt><trkpt lat="40.1142317" lon="8.5774717"><ele>752.5</ele><time>2026-05-02T09:45:39.35Z</time></trkpt><trkpt lat="40.1142333" lon="8.577325"><ele>752.0</ele><time>2026-05-02T09:45:40.35Z</time></trkpt><trkpt lat="40.114235" lon="8.5772083"><ele>751.5</ele><time>2026-05-02T09:45:41.35Z</time></trkpt><trkpt lat="40.114245" lon="8.577115"><ele>751.0</ele><time>2026-05-02T09:45:42.35Z</time></trkpt><trkpt lat="40.1142583" lon="8.576985"><ele>750.5</ele><time>2026-05-02T09:45:44.35Z</time></trkpt><trkpt lat="40.1142933" lon="8.57691"><ele>750.0</ele><time>2026-05-02T09:45:48.35Z</time></trkpt><trkpt lat="40.11433" lon="8.5768233"><ele>744.0</ele><time>2026-05-02T09:45:51.35Z</time></trkpt><trkpt lat="40.1143183" lon="8.5769683"><ele>744.0</ele><time>2026-05-02T09:45:59.35Z</time></trkpt><trkpt lat="40.114295" lon="8.5770617"><ele>750.0</ele><time>2026-05-02T09:46:01.35Z</time></trkpt><trkpt lat="40.114255" lon="8.57724"><ele>750.0</ele><time>2026-05-02T10:03:02.35Z</time></trkpt><trkpt lat="40.1142983" lon="8.577135"><ele>750.0</ele><time>2026-05-02T10:07:31.35Z</time></trkpt></trkseg><trkseg><trkpt lat="40.117545" lon="8.5682733"><ele>729.0</ele><time>2026-05-02T10:18:02.37Z</time></trkpt><trkpt lat="40.1175717" lon="8.56818"><ele>729.0</ele><time>2026-05-02T10:18:04.37Z</time></trkpt><trkpt lat="40.1175667" lon="8.568095"><ele>729.0</ele><time>2026-05-02T10:18:05.37Z</time></trkpt><trkpt lat="40.1175533" lon="8.5679883"><ele>729.0</ele><time>2026-05-02T10:18:06.37Z</time></trkpt><trkpt lat="40.1175367" lon="8.567875"><ele>729.0</ele><time>2026-05-02T10:18:07.37Z</time></trkpt><trkpt lat="40.1175133" lon="8.5677667"><ele>729.0</ele><time>2026-05-02T10:18:08.37Z</time></trkpt><trkpt lat="40.1174733" lon="8.56768"><ele>730.8000000000001</ele><time>2026-05-02T10:18:09.37Z</time></trkpt><trkpt lat="40.1174367" lon="8.5676067"><ele>732.6</ele><time>2026-05-02T10:18:10.37Z</time></trkpt><trkpt lat="40.11739" lon="8.5675483"><ele>734.4</ele><time>2026-05-02T10:18:11.37Z</time></trkpt><trkpt lat="40.1173083" lon="8.5674533"><ele>736.2</ele><time>2026-05-02T10:18:13.37Z</time></trkpt><trkpt lat="40.1172383" lon="8.5672917"><ele>738.0</ele><time>2026-05-02T10:18:15.37Z</time></trkpt><trkpt lat="40.117205" lon="8.567185"><ele>738.0</ele><time>2026-05-02T10:18:16.37Z</time></trkpt><trkpt lat="40.117175" lon="8.56706"><ele>738.0</ele><time>2026-05-02T10:18:17.37Z</time></trkpt><trkpt lat="40.1171467" lon="8.5669367"><ele>738.0</ele><time>2026-05-02T10:18:18.37Z</time></trkpt><trkpt lat="40.1171133" lon="8.5668283"><ele>738.0</ele><time>2026-05-02T10:18:19.37Z</time></trkpt><trkpt lat="40.1170767" lon="8.56675"><ele>738.0</ele><time>2026-05-02T10:18:20.37Z</time></trkpt><trkpt lat="40.1170283" lon="8.56668"><ele>738.0</ele><time>2026-05-02T10:18:21.37Z</time></trkpt><trkpt lat="40.1169783" lon="8.56662"><ele>737.1666666666666</ele><time>2026-05-02T10:18:22.37Z</time></trkpt><trkpt lat="40.1169133" lon="8.566555"><ele>736.3333333333334</ele><time>2026-05-02T10:18:24.37Z</time></trkpt><trkpt lat="40.116855" lon="8.5664733"><ele>735.5</ele><time>2026-05-02T10:18:26.37Z</time></trkpt><trkpt lat="40.1167817" lon="8.56639"><ele>734.6666666666667</ele><time>2026-05-02T10:18:28.37Z</time></trkpt><trkpt lat="40.1167267" lon="8.5663417"><ele>733.8333333333334</ele><time>2026-05-02T10:18:29.37Z</time></trkpt><trkpt lat="40.1166483" lon="8.566305"><ele>733.0</ele><time>2026-05-02T10:18:30.37Z</time></trkpt><trkpt lat="40.1165633" lon="8.5662667"><ele>733.0</ele><time>2026-05-02T10:18:31.37Z</time></trkpt><trkpt lat="40.11647" lon="8.5662167"><ele>733.0</ele><time>2026-05-02T10:18:32.37Z</time></trkpt><trkpt lat="40.1163817" lon="8.5661517"><ele>733.0</ele><time>2026-05-02T10:18:33.37Z</time></trkpt><trkpt lat="40.1163" lon="8.5660833"><ele>733.0</ele><time>2026-05-02T10:18:34.37Z</time></trkpt><trkpt lat="40.1162283" lon="8.5660017"><ele>733.0</ele><time>2026-05-02T10:18:35.37Z</time></trkpt><trkpt lat="40.1161667" lon="8.5658967"><ele>734.0</ele><time>2026-05-02T10:18:36.37Z</time></trkpt><trkpt lat="40.1161217" lon="8.5658117"><ele>735.0</ele><time>2026-05-02T10:18:37.37Z</time></trkpt><trkpt lat="40.1160683" lon="8.56569"><ele>736.0</ele><time>2026-05-02T10:18:38.37Z</time></trkpt><trkpt lat="40.1160133" lon="8.565565"><ele>737.0</ele><time>2026-05-02T10:18:39.37Z</time></trkpt><trkpt lat="40.1159417" lon="8.5654533"><ele>738.0</ele><time>2026-05-02T10:18:40.37Z</time></trkpt><trkpt lat="40.1158683" lon="8.5653417"><ele>738.25</ele><time>2026-05-02T10:18:41.37Z</time></trkpt><trkpt lat="40.1157883" lon="8.5652267"><ele>738.5</ele><time>2026-05-02T10:18:42.37Z</time></trkpt><trkpt lat="40.1157017" lon="8.565105"><ele>738.75</ele><time>2026-05-02T10:18:43.37Z</time></trkpt><trkpt lat="40.11562" lon="8.5649667"><ele>739.0</ele><time>2026-05-02T10:18:44.37Z</time></trkpt><trkpt lat="40.1155283" lon="8.5648133"><ele>735.75</ele><time>2026-05-02T10:18:45.37Z</time></trkpt><trkpt lat="40.1154383" lon="8.56468"><ele>732.5</ele><time>2026-05-02T10:18:46.37Z</time></trkpt><trkpt lat="40.1153317" lon="8.5645383"><ele>729.25</ele><time>2026-05-02T10:18:47.37Z</time></trkpt><trkpt lat="40.1152217" lon="8.5644183"><ele>726.0</ele><time>2026-05-02T10:18:48.37Z</time></trkpt><trkpt lat="40.115125" lon="8.564315"><ele>726.0</ele><time>2026-05-02T10:18:49.37Z</time></trkpt><trkpt lat="40.1150567" lon="8.5642317"><ele>726.0</ele><time>2026-05-02T10:18:50.37Z</time></trkpt><trkpt lat="40.1149867" lon="8.5641217"><ele>726.0</ele><time>2026-05-02T10:18:51.37Z</time></trkpt><trkpt lat="40.1149233" lon="8.5639883"><ele>726.0</ele><time>2026-05-02T10:18:52.37Z</time></trkpt><trkpt lat="40.1148517" lon="8.5638267"><ele>721.5</ele><time>2026-05-02T10:18:53.37Z</time></trkpt><trkpt lat="40.1148183" lon="8.5636833"><ele>717.0</ele><time>2026-05-02T10:18:54.37Z</time></trkpt><trkpt lat="40.114775" lon="8.563515"><ele>712.5</ele><time>2026-05-02T10:18:55.37Z</time></trkpt><trkpt lat="40.1147617" lon="8.5633567"><ele>708.0</ele><time>2026-05-02T10:18:56.37Z</time></trkpt><trkpt lat="40.1147633" lon="8.5632117"><ele>708.0</ele><time>2026-05-02T10:18:57.37Z</time></trkpt><trkpt lat="40.1147767" lon="8.563065"><ele>708.0</ele><time>2026-05-02T10:18:58.37Z</time></trkpt><trkpt lat="40.114815" lon="8.5629017"><ele>708.0</ele><time>2026-05-02T10:18:59.37Z</time></trkpt><trkpt lat="40.1148483" lon="8.5627717"><ele>708.0</ele><time>2026-05-02T10:19:00.37Z</time></trkpt><trkpt lat="40.1148683" lon="8.56265"><ele>708.0</ele><time>2026-05-02T10:19:01.37Z</time></trkpt><trkpt lat="40.114885" lon="8.5625317"><ele>706.5</ele><time>2026-05-02T10:19:02.37Z</time></trkpt><trkpt lat="40.114885" lon="8.5624033"><ele>705.0</ele><time>2026-05-02T10:19:03.37Z</time></trkpt><trkpt lat="40.11489" lon="8.562225"><ele>703.5</ele><time>2026-05-02T10:19:04.37Z</time></trkpt><trkpt lat="40.1148917" lon="8.5620367"><ele>702.0</ele><time>2026-05-02T10:19:05.37Z</time></trkpt><trkpt lat="40.114895" lon="8.5618733"><ele>701.1666666666666</ele><time>2026-05-02T10:19:06.37Z</time></trkpt><trkpt lat="40.1148983" lon="8.5617067"><ele>700.3333333333334</ele><time>2026-05-02T10:19:07.37Z</time></trkpt><trkpt lat="40.114905" lon="8.5616"><ele>699.5</ele><time>2026-05-02T10:19:08.37Z</time></trkpt><trkpt lat="40.11491" lon="8.5615167"><ele>698.6666666666667</ele><time>2026-05-02T10:19:09.37Z</time></trkpt><trkpt lat="40.1148383" lon="8.5614283"><ele>697.8333333333334</ele><time>2026-05-02T10:19:11.37Z</time></trkpt><trkpt lat="40.1147667" lon="8.5614233"><ele>697.0</ele><time>2026-05-02T10:19:12.37Z</time></trkpt><trkpt lat="40.11468" lon="8.5614333"><ele>697.0</ele><time>2026-05-02T10:19:13.37Z</time></trkpt><trkpt lat="40.1145983" lon="8.561415"><ele>697.0</ele><time>2026-05-02T10:19:14.37Z</time></trkpt><trkpt lat="40.114535" lon="8.561385"><ele>697.0</ele><time>2026-05-02T10:19:15.37Z</time></trkpt><trkpt lat="40.1144833" lon="8.5612917"><ele>697.0</ele><time>2026-05-02T10:19:17.37Z</time></trkpt><trkpt lat="40.1145967" lon="8.5611283"><ele>697.0</ele><time>2026-05-02T10:19:19.37Z</time></trkpt><trkpt lat="40.11469" lon="8.561025"><ele>697.5</ele><time>2026-05-02T10:19:20.37Z</time></trkpt><trkpt lat="40.114775" lon="8.5609317"><ele>698.0</ele><time>2026-05-02T10:19:21.37Z</time></trkpt><trkpt lat="40.1148567" lon="8.56082"><ele>698.5</ele><time>2026-05-02T10:19:22.37Z</time></trkpt><trkpt lat="40.1149367" lon="8.5606917"><ele>699.0</ele><time>2026-05-02T10:19:23.37Z</time></trkpt><trkpt lat="40.1149933" lon="8.5605717"><ele>699.0</ele><time>2026-05-02T10:19:24.37Z</time></trkpt><trkpt lat="40.1150383" lon="8.5604683"><ele>699.0</ele><time>2026-05-02T10:19:25.37Z</time></trkpt><trkpt lat="40.1150717" lon="8.5603717"><ele>699.0</ele><time>2026-05-02T10:19:26.37Z</time></trkpt><trkpt lat="40.1150617" lon="8.5602233"><ele>699.0</ele><time>2026-05-02T10:19:28.37Z</time></trkpt><trkpt lat="40.1150067" lon="8.5601683"><ele>699.0</ele><time>2026-05-02T10:19:29.37Z</time></trkpt><trkpt lat="40.11494" lon="8.5600533"><ele>695.5</ele><time>2026-05-02T10:19:31.37Z</time></trkpt><trkpt lat="40.1149267" lon="8.5598817"><ele>692.0</ele><time>2026-05-02T10:19:33.37Z</time></trkpt><trkpt lat="40.1149217" lon="8.559745"><ele>688.5</ele><time>2026-05-02T10:19:34.37Z</time></trkpt><trkpt lat="40.114915" lon="8.559605"><ele>685.0</ele><time>2026-05-02T10:19:35.37Z</time></trkpt><trkpt lat="40.1148983" lon="8.5594583"><ele>680.75</ele><time>2026-05-02T10:19:36.37Z</time></trkpt><trkpt lat="40.1148733" lon="8.55931"><ele>676.5</ele><time>2026-05-02T10:19:37.37Z</time></trkpt><trkpt lat="40.11484" lon="8.5591517"><ele>672.25</ele><time>2026-05-02T10:19:38.37Z</time></trkpt><trkpt lat="40.114825" lon="8.5589867"><ele>668.0</ele><time>2026-05-02T10:19:39.37Z</time></trkpt><trkpt lat="40.1148117" lon="8.5587983"><ele>666.5999999999999</ele><time>2026-05-02T10:19:40.37Z</time></trkpt><trkpt lat="40.1148033" lon="8.5586267"><ele>665.1999999999999</ele><time>2026-05-02T10:19:41.37Z</time></trkpt><trkpt lat="40.11479" lon="8.5584817"><ele>663.8</ele><time>2026-05-02T10:19:42.37Z</time></trkpt><trkpt lat="40.11477" lon="8.55836"><ele>662.4</ele><time>2026-05-02T10:19:43.37Z</time></trkpt><trkpt lat="40.1147417" lon="8.5582433"><ele>661.0</ele><time>2026-05-02T10:19:44.37Z</time></trkpt><trkpt lat="40.1147033" lon="8.5581567"><ele>661.0</ele><time>2026-05-02T10:19:45.37Z</time></trkpt><trkpt lat="40.1146567" lon="8.5580817"><ele>661.0</ele><time>2026-05-02T10:19:46.37Z</time></trkpt><trkpt lat="40.1146083" lon="8.557915"><ele>661.0</ele><time>2026-05-02T10:19:48.37Z</time></trkpt><trkpt lat="40.1145783" lon="8.557825"><ele>661.0</ele><time>2026-05-02T10:19:49.37Z</time></trkpt><trkpt lat="40.114555" lon="8.5577183"><ele>661.0</ele><time>2026-05-02T10:19:50.37Z</time></trkpt><trkpt lat="40.11454" lon="8.5576133"><ele>660.0</ele><time>2026-05-02T10:19:51.37Z</time></trkpt><trkpt lat="40.1145317" lon="8.5575133"><ele>659.0</ele><time>2026-05-02T10:19:52.37Z</time></trkpt><trkpt lat="40.1145083" lon="8.5574117"><ele>658.0</ele><time>2026-05-02T10:19:53.37Z</time></trkpt><trkpt lat="40.1144733" lon="8.55731"><ele>657.0</ele><time>2026-05-02T10:19:54.37Z</time></trkpt><trkpt lat="40.1144417" lon="8.5572283"><ele>656.0</ele><time>2026-05-02T10:19:55.37Z</time></trkpt><trkpt lat="40.11439" lon="8.5570867"><ele>655.0</ele><time>2026-05-02T10:19:56.37Z</time></trkpt><trkpt lat="40.1143517" lon="8.5569817"><ele>652.25</ele><time>2026-05-02T10:19:57.37Z</time></trkpt><trkpt lat="40.1143067" lon="8.5568583"><ele>649.5</ele><time>2026-05-02T10:19:58.37Z</time></trkpt><trkpt lat="40.1142483" lon="8.5567283"><ele>646.75</ele><time>2026-05-02T10:19:59.37Z</time></trkpt><trkpt lat="40.1141867" lon="8.556585"><ele>644.0</ele><time>2026-05-02T10:20:00.37Z</time></trkpt><trkpt lat="40.1141183" lon="8.55645"><ele>643.0</ele><time>2026-05-02T10:20:01.37Z</time></trkpt><trkpt lat="40.1140417" lon="8.5562883"><ele>642.0</ele><time>2026-05-02T10:20:02.37Z</time></trkpt><trkpt lat="40.11397" lon="8.5561083"><ele>641.0</ele><time>2026-05-02T10:20:03.37Z</time></trkpt><trkpt lat="40.11391" lon="8.5559217"><ele>639.25</ele><time>2026-05-02T10:20:04.37Z</time></trkpt><trkpt lat="40.1138667" lon="8.5557567"><ele>637.5</ele><time>2026-05-02T10:20:05.37Z</time></trkpt><trkpt lat="40.1138483" lon="8.55561"><ele>635.75</ele><time>2026-05-02T10:20:06.37Z</time></trkpt><trkpt lat="40.1138333" lon="8.55547"><ele>634.0</ele><time>2026-05-02T10:20:07.37Z</time></trkpt><trkpt lat="40.113805" lon="8.55535"><ele>632.0</ele><time>2026-05-02T10:20:08.37Z</time></trkpt><trkpt lat="40.1137583" lon="8.5552483"><ele>630.0</ele><time>2026-05-02T10:20:09.37Z</time></trkpt><trkpt lat="40.1137117" lon="8.555175"><ele>628.0</ele><time>2026-05-02T10:20:10.37Z</time></trkpt><trkpt lat="40.1136433" lon="8.5551017"><ele>626.0</ele><time>2026-05-02T10:20:11.37Z</time></trkpt><trkpt lat="40.1135733" lon="8.5550333"><ele>624.0</ele><time>2026-05-02T10:20:12.37Z</time></trkpt><trkpt lat="40.11349" lon="8.5549717"><ele>622.0</ele><time>2026-05-02T10:20:13.37Z</time></trkpt><trkpt lat="40.113415" lon="8.554905"><ele>622.0</ele><time>2026-05-02T10:20:14.37Z</time></trkpt><trkpt lat="40.1133567" lon="8.5548133"><ele>622.0</ele><time>2026-05-02T10:20:15.37Z</time></trkpt><trkpt lat="40.11336" lon="8.5546717"><ele>622.0</ele><time>2026-05-02T10:20:17.37Z</time></trkpt><trkpt lat="40.11338" lon="8.5545633"><ele>622.0</ele><time>2026-05-02T10:20:18.37Z</time></trkpt><trkpt lat="40.1134133" lon="8.5544417"><ele>622.0</ele><time>2026-05-02T10:20:19.37Z</time></trkpt><trkpt lat="40.1134467" lon="8.5543333"><ele>619.8571428571428</ele><time>2026-05-02T10:20:20.37Z</time></trkpt><trkpt lat="40.11348" lon="8.554245"><ele>617.7142857142858</ele><time>2026-05-02T10:20:21.37Z</time></trkpt><trkpt lat="40.1135283" lon="8.5541817"><ele>615.5714285714286</ele><time>2026-05-02T10:20:22.37Z</time></trkpt><trkpt lat="40.1136167" lon="8.5541683"><ele>613.4285714285713</ele><time>2026-05-02T10:20:24.37Z</time></trkpt><trkpt lat="40.1136783" lon="8.5541117"><ele>611.2857142857142</ele><time>2026-05-02T10:20:26.37Z</time></trkpt><trkpt lat="40.11367" lon="8.5540217"><ele>609.1428571428571</ele><time>2026-05-02T10:20:28.37Z</time></trkpt><trkpt lat="40.11364" lon="8.5539383"><ele>607.0</ele><time>2026-05-02T10:20:30.37Z</time></trkpt><trkpt lat="40.1136083" lon="8.553855"><ele>607.0</ele><time>2026-05-02T10:20:32.37Z</time></trkpt><trkpt lat="40.1135717" lon="8.5537433"><ele>607.0</ele><time>2026-05-02T10:20:34.37Z</time></trkpt><trkpt lat="40.1135317" lon="8.5536267"><ele>607.0</ele><time>2026-05-02T10:20:36.37Z</time></trkpt><trkpt lat="40.1134717" lon="8.5535217"><ele>607.0</ele><time>2026-05-02T10:20:38.37Z</time></trkpt><trkpt lat="40.113455" lon="8.5534283"><ele>607.0</ele><time>2026-05-02T10:20:40.37Z</time></trkpt><trkpt lat="40.11352" lon="8.5533033"><ele>604.2</ele><time>2026-05-02T10:20:42.37Z</time></trkpt><trkpt lat="40.1135933" lon="8.5532483"><ele>601.4000000000001</ele><time>2026-05-02T10:20:43.37Z</time></trkpt><trkpt lat="40.1136767" lon="8.5531833"><ele>598.5999999999999</ele><time>2026-05-02T10:20:44.37Z</time></trkpt><trkpt lat="40.1137633" lon="8.553105"><ele>595.8</ele><time>2026-05-02T10:20:45.37Z</time></trkpt><trkpt lat="40.1138517" lon="8.553005"><ele>593.0</ele><time>2026-05-02T10:20:46.37Z</time></trkpt><trkpt lat="40.113915" lon="8.5529367"><ele>591.1666666666666</ele><time>2026-05-02T10:20:47.37Z</time></trkpt><trkpt lat="40.1139567" lon="8.552845"><ele>589.3333333333333</ele><time>2026-05-02T10:20:49.37Z</time></trkpt><trkpt lat="40.1139117" lon="8.5527683"><ele>587.5</ele><time>2026-05-02T10:20:53.37Z</time></trkpt><trkpt lat="40.1138683" lon="8.55269"><ele>585.6666666666666</ele><time>2026-05-02T10:21:01.37Z</time></trkpt><trkpt lat="40.11377" lon="8.552645"><ele>583.8333333333334</ele><time>2026-05-02T10:21:03.37Z</time></trkpt><trkpt lat="40.11371" lon="8.55262"><ele>582.0</ele><time>2026-05-02T10:21:04.37Z</time></trkpt><trkpt lat="40.1136467" lon="8.5525883"><ele>582.0</ele><time>2026-05-02T10:21:05.37Z</time></trkpt><trkpt lat="40.11358" lon="8.552555"><ele>582.0</ele><time>2026-05-02T10:21:06.37Z</time></trkpt><trkpt lat="40.1134933" lon="8.5525183"><ele>582.0</ele><time>2026-05-02T10:21:07.37Z</time></trkpt><trkpt lat="40.1133867" lon="8.5525133"><ele>582.0</ele><time>2026-05-02T10:21:08.37Z</time></trkpt><trkpt lat="40.11329" lon="8.5525017"><ele>582.0</ele><time>2026-05-02T10:21:09.37Z</time></trkpt><trkpt lat="40.1131783" lon="8.5525133"><ele>578.5</ele><time>2026-05-02T10:21:10.37Z</time></trkpt><trkpt lat="40.11306" lon="8.5525283"><ele>575.0</ele><time>2026-05-02T10:21:11.37Z</time></trkpt><trkpt lat="40.112945" lon="8.5525233"><ele>571.5</ele><time>2026-05-02T10:21:12.37Z</time></trkpt><trkpt lat="40.1128283" lon="8.5524983"><ele>568.0</ele><time>2026-05-02T10:21:13.37Z</time></trkpt><trkpt lat="40.1127183" lon="8.5524717"><ele>568.0</ele><time>2026-05-02T10:21:14.37Z</time></trkpt><trkpt lat="40.1126167" lon="8.5524517"><ele>568.0</ele><time>2026-05-02T10:21:15.37Z</time></trkpt><trkpt lat="40.1125283" lon="8.5524667"><ele>568.0</ele><time>2026-05-02T10:21:16.37Z</time></trkpt><trkpt lat="40.11245" lon="8.5525283"><ele>568.0</ele><time>2026-05-02T10:21:17.37Z</time></trkpt><trkpt lat="40.112365" lon="8.552605"><ele>568.0</ele><time>2026-05-02T10:21:18.37Z</time></trkpt><trkpt lat="40.1122983" lon="8.5526917"><ele>563.8</ele><time>2026-05-02T10:21:19.37Z</time></trkpt><trkpt lat="40.11224" lon="8.552785"><ele>559.5999999999999</ele><time>2026-05-02T10:21:20.37Z</time></trkpt><trkpt lat="40.1121917" lon="8.55289"><ele>555.4000000000001</ele><time>2026-05-02T10:21:21.37Z</time></trkpt><trkpt lat="40.1121517" lon="8.5530017"><ele>551.2</ele><time>2026-05-02T10:21:22.37Z</time></trkpt><trkpt lat="40.11214" lon="8.55312"><ele>547.0</ele><time>2026-05-02T10:21:23.37Z</time></trkpt><trkpt lat="40.1121467" lon="8.5532367"><ele>547.0</ele><time>2026-05-02T10:21:24.37Z</time></trkpt><trkpt lat="40.1121567" lon="8.55334"><ele>547.0</ele><time>2026-05-02T10:21:25.37Z</time></trkpt><trkpt lat="40.1121533" lon="8.5534367"><ele>547.0</ele><time>2026-05-02T10:21:26.37Z</time></trkpt><trkpt lat="40.1121217" lon="8.55353"><ele>547.0</ele><time>2026-05-02T10:21:27.37Z</time></trkpt><trkpt lat="40.11208" lon="8.5536167"><ele>547.0</ele><time>2026-05-02T10:21:28.37Z</time></trkpt><trkpt lat="40.1120183" lon="8.553715"><ele>547.0</ele><time>2026-05-02T10:21:29.37Z</time></trkpt><trkpt lat="40.1119467" lon="8.5538083"><ele>548.25</ele><time>2026-05-02T10:21:30.37Z</time></trkpt><trkpt lat="40.1118683" lon="8.5538867"><ele>549.5</ele><time>2026-05-02T10:21:31.37Z</time></trkpt><trkpt lat="40.111785" lon="8.55396"><ele>550.75</ele><time>2026-05-02T10:21:32.37Z</time></trkpt><trkpt lat="40.1116917" lon="8.5540483"><ele>552.0</ele><time>2026-05-02T10:21:33.37Z</time></trkpt><trkpt lat="40.1115567" lon="8.5541133"><ele>546.75</ele><time>2026-05-02T10:21:34.37Z</time></trkpt><trkpt lat="40.1114333" lon="8.5542067"><ele>541.5</ele><time>2026-05-02T10:21:35.37Z</time></trkpt><trkpt lat="40.1113117" lon="8.5542883"><ele>536.25</ele><time>2026-05-02T10:21:36.37Z</time></trkpt><trkpt lat="40.11121" lon="8.5543683"><ele>531.0</ele><time>2026-05-02T10:21:37.37Z</time></trkpt><trkpt lat="40.1111183" lon="8.5544583"><ele>531.0</ele><time>2026-05-02T10:21:38.37Z</time></trkpt><trkpt lat="40.1110333" lon="8.5545317"><ele>531.0</ele><time>2026-05-02T10:21:39.37Z</time></trkpt><trkpt lat="40.1109517" lon="8.5546167"><ele>531.0</ele><time>2026-05-02T10:21:40.37Z</time></trkpt><trkpt lat="40.1108717" lon="8.5547067"><ele>531.0</ele><time>2026-05-02T10:21:41.37Z</time></trkpt><trkpt lat="40.1107817" lon="8.5547933"><ele>531.0</ele><time>2026-05-02T10:21:42.37Z</time></trkpt><trkpt lat="40.1106967" lon="8.5548817"><ele>527.8</ele><time>2026-05-02T10:21:43.37Z</time></trkpt><trkpt lat="40.11061" lon="8.5549583"><ele>524.6</ele><time>2026-05-02T10:21:44.37Z</time></trkpt><trkpt lat="40.1105233" lon="8.5550267"><ele>521.4</ele><time>2026-05-02T10:21:45.37Z</time></trkpt><trkpt lat="40.1104533" lon="8.5550883"><ele>518.2</ele><time>2026-05-02T10:21:46.37Z</time></trkpt><trkpt lat="40.1104067" lon="8.5551633"><ele>515.0</ele><time>2026-05-02T10:21:47.37Z</time></trkpt><trkpt lat="40.1103467" lon="8.5552867"><ele>514.6</ele><time>2026-05-02T10:21:49.37Z</time></trkpt><trkpt lat="40.11033" lon="8.5553817"><ele>514.2</ele><time>2026-05-02T10:21:50.37Z</time></trkpt><trkpt lat="40.110345" lon="8.5555483"><ele>513.8</ele><time>2026-05-02T10:21:52.37Z</time></trkpt><trkpt lat="40.110345" lon="8.5556417"><ele>513.4</ele><time>2026-05-02T10:21:53.37Z</time></trkpt><trkpt lat="40.110335" lon="8.5557567"><ele>513.0</ele><time>2026-05-02T10:21:54.37Z</time></trkpt><trkpt lat="40.1103267" lon="8.555875"><ele>513.0</ele><time>2026-05-02T10:21:55.37Z</time></trkpt><trkpt lat="40.1103217" lon="8.55599"><ele>513.0</ele><time>2026-05-02T10:21:56.37Z</time></trkpt><trkpt lat="40.1103317" lon="8.5560933"><ele>513.0</ele><time>2026-05-02T10:21:57.37Z</time></trkpt><trkpt lat="40.1103483" lon="8.5561933"><ele>513.0</ele><time>2026-05-02T10:21:58.37Z</time></trkpt><trkpt lat="40.1103567" lon="8.5563133"><ele>513.0</ele><time>2026-05-02T10:21:59.37Z</time></trkpt><trkpt lat="40.1103483" lon="8.5564467"><ele>513.0</ele><time>2026-05-02T10:22:00.37Z</time></trkpt><trkpt lat="40.11033" lon="8.5565867"><ele>513.8</ele><time>2026-05-02T10:22:01.37Z</time></trkpt><trkpt lat="40.1103183" lon="8.55673"><ele>514.5999999999999</ele><time>2026-05-02T10:22:02.37Z</time></trkpt><trkpt lat="40.1103033" lon="8.5568683"><ele>515.4000000000001</ele><time>2026-05-02T10:22:03.37Z</time></trkpt><trkpt lat="40.1103083" lon="8.557005"><ele>516.2</ele><time>2026-05-02T10:22:04.37Z</time></trkpt><trkpt lat="40.1103333" lon="8.5571317"><ele>517.0</ele><time>2026-05-02T10:22:05.37Z</time></trkpt><trkpt lat="40.1103683" lon="8.5572517"><ele>515.3333333333334</ele><time>2026-05-02T10:22:06.37Z</time></trkpt><trkpt lat="40.11041" lon="8.5573517"><ele>513.6666666666667</ele><time>2026-05-02T10:22:07.37Z</time></trkpt><trkpt lat="40.11046" lon="8.55743"><ele>512.0</ele><time>2026-05-02T10:22:08.37Z</time></trkpt><trkpt lat="40.11053" lon="8.55749"><ele>510.33333333333337</ele><time>2026-05-02T10:22:09.37Z</time></trkpt><trkpt lat="40.1106217" lon="8.5575433"><ele>508.6666666666667</ele><time>2026-05-02T10:22:10.37Z</time></trkpt><trkpt lat="40.1107" lon="8.5576017"><ele>507.0</ele><time>2026-05-02T10:22:11.37Z</time></trkpt><trkpt lat="40.11075" lon="8.557675"><ele>513.8000000000001</ele><time>2026-05-02T10:22:12.37Z</time></trkpt><trkpt lat="40.1107833" lon="8.5577667"><ele>520.6</ele><time>2026-05-02T10:22:13.37Z</time></trkpt><trkpt lat="40.1108117" lon="8.5578883"><ele>527.4000000000001</ele><time>2026-05-02T10:22:14.37Z</time></trkpt><trkpt lat="40.1108267" lon="8.5580183"><ele>534.2</ele><time>2026-05-02T10:22:15.37Z</time></trkpt><trkpt lat="40.1108167" lon="8.5581683"><ele>541.0</ele><time>2026-05-02T10:22:16.37Z</time></trkpt><trkpt lat="40.110795" lon="8.5583083"><ele>541.0</ele><time>2026-05-02T10:22:17.37Z</time></trkpt><trkpt lat="40.1107567" lon="8.5584517"><ele>541.0</ele><time>2026-05-02T10:22:18.37Z</time></trkpt><trkpt lat="40.1107067" lon="8.55861"><ele>541.0</ele><time>2026-05-02T10:22:19.37Z</time></trkpt><trkpt lat="40.1106333" lon="8.558775"><ele>541.0</ele><time>2026-05-02T10:22:20.37Z</time></trkpt><trkpt lat="40.1105583" lon="8.5589267"><ele>536.0</ele><time>2026-05-02T10:22:21.37Z</time></trkpt><trkpt lat="40.1104783" lon="8.55908"><ele>531.0</ele><time>2026-05-02T10:22:22.37Z</time></trkpt><trkpt lat="40.1104133" lon="8.55922"><ele>526.0</ele><time>2026-05-02T10:22:23.37Z</time></trkpt><trkpt lat="40.1103533" lon="8.559345"><ele>521.0</ele><time>2026-05-02T10:22:24.37Z</time></trkpt><trkpt lat="40.1102933" lon="8.559455"><ele>522.6</ele><time>2026-05-02T10:22:25.37Z</time></trkpt><trkpt lat="40.1102267" lon="8.559565"><ele>524.2</ele><time>2026-05-02T10:22:26.37Z</time></trkpt><trkpt lat="40.1101617" lon="8.5596733"><ele>525.8</ele><time>2026-05-02T10:22:27.37Z</time></trkpt><trkpt lat="40.1101" lon="8.5597867"><ele>527.4</ele><time>2026-05-02T10:22:28.37Z</time></trkpt><trkpt lat="40.1100567" lon="8.5599067"><ele>529.0</ele><time>2026-05-02T10:22:29.37Z</time></trkpt><trkpt lat="40.1100383" lon="8.5600267"><ele>529.0</ele><time>2026-05-02T10:22:30.37Z</time></trkpt><trkpt lat="40.1100383" lon="8.5601717"><ele>529.0</ele><time>2026-05-02T10:22:31.37Z</time></trkpt><trkpt lat="40.1100267" lon="8.560325"><ele>529.0</ele><time>2026-05-02T10:22:32.37Z</time></trkpt><trkpt lat="40.1100233" lon="8.5604833"><ele>529.0</ele><time>2026-05-02T10:22:33.37Z</time></trkpt><trkpt lat="40.110015" lon="8.560655"><ele>530.25</ele><time>2026-05-02T10:22:34.37Z</time></trkpt><trkpt lat="40.11001" lon="8.5608233"><ele>531.5</ele><time>2026-05-02T10:22:35.37Z</time></trkpt><trkpt lat="40.1099917" lon="8.560975"><ele>532.75</ele><time>2026-05-02T10:22:36.37Z</time></trkpt><trkpt lat="40.1099667" lon="8.5611083"><ele>534.0</ele><time>2026-05-02T10:22:37.37Z</time></trkpt><trkpt lat="40.10992" lon="8.561235"><ele>528.25</ele><time>2026-05-02T10:22:38.37Z</time></trkpt><trkpt lat="40.10986" lon="8.56138"><ele>522.5</ele><time>2026-05-02T10:22:39.37Z</time></trkpt><trkpt lat="40.1097883" lon="8.5615367"><ele>516.75</ele><time>2026-05-02T10:22:40.37Z</time></trkpt><trkpt lat="40.1097133" lon="8.5616983"><ele>511.0</ele><time>2026-05-02T10:22:41.37Z</time></trkpt><trkpt lat="40.1096333" lon="8.5618333"><ele>511.0</ele><time>2026-05-02T10:22:42.37Z</time></trkpt><trkpt lat="40.1095583" lon="8.5619567"><ele>511.0</ele><time>2026-05-02T10:22:43.37Z</time></trkpt><trkpt lat="40.10948" lon="8.5620767"><ele>511.0</ele><time>2026-05-02T10:22:44.37Z</time></trkpt><trkpt lat="40.1094233" lon="8.5621767"><ele>511.0</ele><time>2026-05-02T10:22:45.37Z</time></trkpt><trkpt lat="40.1093833" lon="8.5622783"><ele>511.0</ele><time>2026-05-02T10:22:46.37Z</time></trkpt><trkpt lat="40.10935" lon="8.5623933"><ele>513.0</ele><time>2026-05-02T10:22:47.37Z</time></trkpt><trkpt lat="40.1093217" lon="8.5625117"><ele>515.0</ele><time>2026-05-02T10:22:48.37Z</time></trkpt><trkpt lat="40.1092617" lon="8.56262"><ele>517.0</ele><time>2026-05-02T10:22:49.37Z</time></trkpt><trkpt lat="40.109185" lon="8.5627117"><ele>519.0</ele><time>2026-05-02T10:22:50.37Z</time></trkpt><trkpt lat="40.109085" lon="8.5628183"><ele>521.0</ele><time>2026-05-02T10:22:51.37Z</time></trkpt><trkpt lat="40.1089767" lon="8.5629167"><ele>521.0</ele><time>2026-05-02T10:22:52.37Z</time></trkpt><trkpt lat="40.1088533" lon="8.5630183"><ele>521.0</ele><time>2026-05-02T10:22:53.37Z</time></trkpt><trkpt lat="40.10874" lon="8.563115"><ele>521.0</ele><time>2026-05-02T10:22:54.37Z</time></trkpt><trkpt lat="40.1086167" lon="8.5631883"><ele>521.0</ele><time>2026-05-02T10:22:55.37Z</time></trkpt><trkpt lat="40.1084867" lon="8.5632633"><ele>521.0</ele><time>2026-05-02T10:22:56.37Z</time></trkpt><trkpt lat="40.1083417" lon="8.56335"><ele>521.0</ele><time>2026-05-02T10:22:57.37Z</time></trkpt><trkpt lat="40.1081917" lon="8.563435"><ele>521.0</ele><time>2026-05-02T10:22:58.37Z</time></trkpt><trkpt lat="40.1080567" lon="8.5635117"><ele>521.0</ele><time>2026-05-02T10:22:59.37Z</time></trkpt><trkpt lat="40.107925" lon="8.56358"><ele>521.0</ele><time>2026-05-02T10:23:00.37Z</time></trkpt><trkpt lat="40.1078017" lon="8.5636417"><ele>521.0</ele><time>2026-05-02T10:23:01.37Z</time></trkpt><trkpt lat="40.1076817" lon="8.563715"><ele>521.0</ele><time>2026-05-02T10:23:02.37Z</time></trkpt><trkpt lat="40.1075583" lon="8.5637967"><ele>521.0</ele><time>2026-05-02T10:23:03.37Z</time></trkpt><trkpt lat="40.107455" lon="8.5638933"><ele>521.0</ele><time>2026-05-02T10:23:04.37Z</time></trkpt><trkpt lat="40.1073667" lon="8.564"><ele>521.0</ele><time>2026-05-02T10:23:05.37Z</time></trkpt><trkpt lat="40.107295" lon="8.5640967"><ele>521.0</ele><time>2026-05-02T10:23:06.37Z</time></trkpt><trkpt lat="40.1072367" lon="8.5642133"><ele>522.25</ele><time>2026-05-02T10:23:07.37Z</time></trkpt><trkpt lat="40.1071933" lon="8.564345"><ele>523.5</ele><time>2026-05-02T10:23:08.37Z</time></trkpt><trkpt lat="40.107165" lon="8.5644833"><ele>524.75</ele><time>2026-05-02T10:23:09.37Z</time></trkpt><trkpt lat="40.1071283" lon="8.56463"><ele>526.0</ele><time>2026-05-02T10:23:10.37Z</time></trkpt><trkpt lat="40.107085" lon="8.5647967"><ele>526.0</ele><time>2026-05-02T10:23:11.37Z</time></trkpt><trkpt lat="40.107035" lon="8.5649633"><ele>526.0</ele><time>2026-05-02T10:23:12.37Z</time></trkpt><trkpt lat="40.1069767" lon="8.5651367"><ele>526.0</ele><time>2026-05-02T10:23:13.37Z</time></trkpt><trkpt lat="40.1069333" lon="8.5652917"><ele>526.0</ele><time>2026-05-02T10:23:14.37Z</time></trkpt><trkpt lat="40.106915" lon="8.5654317"><ele>527.0</ele><time>2026-05-02T10:23:15.37Z</time></trkpt><trkpt lat="40.106915" lon="8.5655883"><ele>528.0</ele><time>2026-05-02T10:23:16.37Z</time></trkpt><trkpt lat="40.1069167" lon="8.5657633"><ele>529.0</ele><time>2026-05-02T10:23:17.37Z</time></trkpt><trkpt lat="40.1069" lon="8.5659767"><ele>530.0</ele><time>2026-05-02T10:23:18.37Z</time></trkpt><trkpt lat="40.10687" lon="8.5661917"><ele>529.5</ele><time>2026-05-02T10:23:19.37Z</time></trkpt><trkpt lat="40.106845" lon="8.566385"><ele>529.0</ele><time>2026-05-02T10:23:20.37Z</time></trkpt><trkpt lat="40.1068067" lon="8.56657"><ele>528.5</ele><time>2026-05-02T10:23:21.37Z</time></trkpt><trkpt lat="40.1067617" lon="8.566735"><ele>528.0</ele><time>2026-05-02T10:23:22.37Z</time></trkpt><trkpt lat="40.106705" lon="8.566895"><ele>529.3333333333334</ele><time>2026-05-02T10:23:23.37Z</time></trkpt><trkpt lat="40.106635" lon="8.567075"><ele>530.6666666666667</ele><time>2026-05-02T10:23:24.37Z</time></trkpt><trkpt lat="40.10655" lon="8.567235"><ele>532.0</ele><time>2026-05-02T10:23:25.37Z</time></trkpt><trkpt lat="40.1064683" lon="8.5673983"><ele>529.75</ele><time>2026-05-02T10:23:26.37Z</time></trkpt><trkpt lat="40.10641" lon="8.5675533"><ele>527.5</ele><time>2026-05-02T10:23:27.37Z</time></trkpt><trkpt lat="40.1063567" lon="8.5677033"><ele>525.25</ele><time>2026-05-02T10:23:28.37Z</time></trkpt><trkpt lat="40.10631" lon="8.5678717"><ele>523.0</ele><time>2026-05-02T10:23:29.37Z</time></trkpt><trkpt lat="40.1062633" lon="8.5680433"><ele>522.6666666666667</ele><time>2026-05-02T10:23:30.37Z</time></trkpt><trkpt lat="40.1062117" lon="8.5682333"><ele>522.3333333333334</ele><time>2026-05-02T10:23:31.37Z</time></trkpt><trkpt lat="40.1061533" lon="8.5684567"><ele>522.0</ele><time>2026-05-02T10:23:32.37Z</time></trkpt><trkpt lat="40.106095" lon="8.56865"><ele>523.5</ele><time>2026-05-02T10:23:33.37Z</time></trkpt><trkpt lat="40.106035" lon="8.56882"><ele>525.0</ele><time>2026-05-02T10:23:34.37Z</time></trkpt><trkpt lat="40.1059783" lon="8.5690017"><ele>526.5</ele><time>2026-05-02T10:23:35.37Z</time></trkpt><trkpt lat="40.1059133" lon="8.5691733"><ele>528.0</ele><time>2026-05-02T10:23:36.37Z</time></trkpt><trkpt lat="40.1058483" lon="8.5693367"><ele>528.0</ele><time>2026-05-02T10:23:37.37Z</time></trkpt><trkpt lat="40.1057967" lon="8.5694933"><ele>528.0</ele><time>2026-05-02T10:23:38.37Z</time></trkpt><trkpt lat="40.105755" lon="8.56964"><ele>528.0</ele><time>2026-05-02T10:23:39.37Z</time></trkpt><trkpt lat="40.1057117" lon="8.5697683"><ele>528.0</ele><time>2026-05-02T10:23:40.37Z</time></trkpt><trkpt lat="40.10567" lon="8.56988"><ele>526.0</ele><time>2026-05-02T10:23:41.37Z</time></trkpt><trkpt lat="40.105625" lon="8.5699667"><ele>524.0</ele><time>2026-05-02T10:23:42.37Z</time></trkpt><trkpt lat="40.1054833" lon="8.57003"><ele>522.0</ele><time>2026-05-02T10:24:51.37Z</time></trkpt><trkpt lat="40.10541" lon="8.5700983"><ele>520.0</ele><time>2026-05-02T10:24:54.37Z</time></trkpt><trkpt lat="40.1053583" lon="8.57015"><ele>518.0</ele><time>2026-05-02T10:24:55.37Z</time></trkpt><trkpt lat="40.1052717" lon="8.570285"><ele>518.5</ele><time>2026-05-02T10:24:56.37Z</time></trkpt><trkpt lat="40.105195" lon="8.5704183"><ele>519.0</ele><time>2026-05-02T10:24:57.37Z</time></trkpt><trkpt lat="40.1051183" lon="8.5705417"><ele>519.5</ele><time>2026-05-02T10:24:58.37Z</time></trkpt><trkpt lat="40.1050417" lon="8.5706767"><ele>520.0</ele><time>2026-05-02T10:24:59.37Z</time></trkpt><trkpt lat="40.10497" lon="8.5708233"><ele>516.5</ele><time>2026-05-02T10:25:00.37Z</time></trkpt><trkpt lat="40.1048917" lon="8.5709567"><ele>513.0</ele><time>2026-05-02T10:25:01.37Z</time></trkpt><trkpt lat="40.104825" lon="8.5710733"><ele>509.5</ele><time>2026-05-02T10:25:02.37Z</time></trkpt><trkpt lat="40.1047117" lon="8.5711717"><ele>506.0</ele><time>2026-05-02T10:25:03.37Z</time></trkpt><trkpt lat="40.104595" lon="8.57124"><ele>506.0</ele><time>2026-05-02T10:25:04.37Z</time></trkpt><trkpt lat="40.1045083" lon="8.5713167"><ele>506.0</ele><time>2026-05-02T10:25:05.37Z</time></trkpt><trkpt lat="40.10443" lon="8.57139"><ele>506.0</ele><time>2026-05-02T10:25:06.37Z</time></trkpt><trkpt lat="40.1043667" lon="8.5714683"><ele>506.0</ele><time>2026-05-02T10:25:07.37Z</time></trkpt><trkpt lat="40.1043" lon="8.57155"><ele>506.0</ele><time>2026-05-02T10:25:08.37Z</time></trkpt><trkpt lat="40.1042283" lon="8.571625"><ele>506.0</ele><time>2026-05-02T10:25:09.37Z</time></trkpt><trkpt lat="40.1041" lon="8.5717633"><ele>506.0</ele><time>2026-05-02T10:25:11.37Z</time></trkpt><trkpt lat="40.1040267" lon="8.57183"><ele>506.0</ele><time>2026-05-02T10:25:12.37Z</time></trkpt><trkpt lat="40.1039383" lon="8.5718933"><ele>506.0</ele><time>2026-05-02T10:25:13.37Z</time></trkpt><trkpt lat="40.1038583" lon="8.57195"><ele>506.0</ele><time>2026-05-02T10:25:14.37Z</time></trkpt><trkpt lat="40.1037617" lon="8.5720067"><ele>506.5</ele><time>2026-05-02T10:25:15.37Z</time></trkpt><trkpt lat="40.1035633" lon="8.5721217"><ele>507.0</ele><time>2026-05-02T10:25:17.37Z</time></trkpt><trkpt lat="40.1034817" lon="8.57219"><ele>507.5</ele><time>2026-05-02T10:25:18.37Z</time></trkpt><trkpt lat="40.103405" lon="8.5722667"><ele>508.0</ele><time>2026-05-02T10:25:19.37Z</time></trkpt><trkpt lat="40.1031933" lon="8.5724367"><ele>508.0</ele><time>2026-05-02T10:25:21.37Z</time></trkpt><trkpt lat="40.10309" lon="8.5725217"><ele>508.0</ele><time>2026-05-02T10:25:22.37Z</time></trkpt><trkpt lat="40.1029783" lon="8.572595"><ele>508.0</ele><time>2026-05-02T10:25:23.37Z</time></trkpt><trkpt lat="40.10287" lon="8.5726717"><ele>508.0</ele><time>2026-05-02T10:25:24.37Z</time></trkpt><trkpt lat="40.1027733" lon="8.5727467"><ele>508.0</ele><time>2026-05-02T10:25:25.37Z</time></trkpt><trkpt lat="40.102575" lon="8.5728233"><ele>508.0</ele><time>2026-05-02T10:25:27.37Z</time></trkpt><trkpt lat="40.1023417" lon="8.5728217"><ele>508.0</ele><time>2026-05-02T10:25:29.37Z</time></trkpt><trkpt lat="40.1022333" lon="8.572805"><ele>509.0</ele><time>2026-05-02T10:25:30.37Z</time></trkpt><trkpt lat="40.1021267" lon="8.5727983"><ele>510.0</ele><time>2026-05-02T10:25:31.37Z</time></trkpt><trkpt lat="40.1020267" lon="8.5727683"><ele>511.0</ele><time>2026-05-02T10:25:32.37Z</time></trkpt><trkpt lat="40.1018317" lon="8.572705"><ele>512.0</ele><time>2026-05-02T10:25:34.37Z</time></trkpt><trkpt lat="40.1017367" lon="8.5726767"><ele>512.0</ele><time>2026-05-02T10:25:35.37Z</time></trkpt><trkpt lat="40.10164" lon="8.57266"><ele>512.0</ele><time>2026-05-02T10:25:36.37Z</time></trkpt><trkpt lat="40.10155" lon="8.5726367"><ele>512.0</ele><time>2026-05-02T10:25:37.37Z</time></trkpt><trkpt lat="40.1014617" lon="8.5726117"><ele>512.0</ele><time>2026-05-02T10:25:38.37Z</time></trkpt><trkpt lat="40.1013733" lon="8.5725833"><ele>512.0</ele><time>2026-05-02T10:25:39.37Z</time></trkpt><trkpt lat="40.1011633" lon="8.5725483"><ele>512.75</ele><time>2026-05-02T10:25:41.37Z</time></trkpt><trkpt lat="40.1010433" lon="8.5725317"><ele>513.5</ele><time>2026-05-02T10:25:42.37Z</time></trkpt><trkpt lat="40.1009217" lon="8.57249"><ele>514.25</ele><time>2026-05-02T10:25:43.37Z</time></trkpt><trkpt lat="40.1008" lon="8.572485"><ele>515.0</ele><time>2026-05-02T10:25:44.37Z</time></trkpt><trkpt lat="40.1005717" lon="8.5724317"><ele>516.2</ele><time>2026-05-02T10:25:46.37Z</time></trkpt><trkpt lat="40.10046" lon="8.5724017"><ele>517.4</ele><time>2026-05-02T10:25:47.37Z</time></trkpt><trkpt lat="40.1003517" lon="8.5723733"><ele>518.6</ele><time>2026-05-02T10:25:48.37Z</time></trkpt><trkpt lat="40.1002467" lon="8.5723283"><ele>519.8</ele><time>2026-05-02T10:25:49.37Z</time></trkpt><trkpt lat="40.1001483" lon="8.5722783"><ele>521.0</ele><time>2026-05-02T10:25:50.37Z</time></trkpt><trkpt lat="40.1000433" lon="8.5722583"><ele>521.0</ele><time>2026-05-02T10:25:51.37Z</time></trkpt><trkpt lat="40.0999317" lon="8.5722517"><ele>521.0</ele><time>2026-05-02T10:25:52.37Z</time></trkpt><trkpt lat="40.0998017" lon="8.572245"><ele>521.0</ele><time>2026-05-02T10:25:53.37Z</time></trkpt><trkpt lat="40.0996417" lon="8.5722417"><ele>521.0</ele><time>2026-05-02T10:25:54.37Z</time></trkpt><trkpt lat="40.0993017" lon="8.5722017"><ele>530.0</ele><time>2026-05-02T10:25:56.37Z</time></trkpt><trkpt lat="40.09898" lon="8.572185"><ele>539.0</ele><time>2026-05-02T10:25:58.37Z</time></trkpt><trkpt lat="40.0988367" lon="8.5721717"><ele>539.0</ele><time>2026-05-02T10:25:59.37Z</time></trkpt><trkpt lat="40.0985467" lon="8.57203"><ele>539.0</ele><time>2026-05-02T10:26:01.37Z</time></trkpt><trkpt lat="40.0982917" lon="8.57189"><ele>531.6666666666666</ele><time>2026-05-02T10:26:03.37Z</time></trkpt><trkpt lat="40.0981717" lon="8.5718567"><ele>524.3333333333334</ele><time>2026-05-02T10:26:04.37Z</time></trkpt><trkpt lat="40.0979" lon="8.5718167"><ele>517.0</ele><time>2026-05-02T10:26:06.37Z</time></trkpt><trkpt lat="40.097765" lon="8.5717767"><ele>517.0</ele><time>2026-05-02T10:26:07.37Z</time></trkpt><trkpt lat="40.0976267" lon="8.5717367"><ele>517.0</ele><time>2026-05-02T10:26:08.37Z</time></trkpt><trkpt lat="40.0973783" lon="8.57167"><ele>517.0</ele><time>2026-05-02T10:26:10.37Z</time></trkpt><trkpt lat="40.0972683" lon="8.57164"><ele>520.5</ele><time>2026-05-02T10:26:11.37Z</time></trkpt><trkpt lat="40.0970767" lon="8.5715417"><ele>524.0</ele><time>2026-05-02T10:26:13.37Z</time></trkpt><trkpt lat="40.0969917" lon="8.5715"><ele>527.5</ele><time>2026-05-02T10:26:14.371Z</time></trkpt><trkpt lat="40.0969183" lon="8.5714667"><ele>531.0</ele><time>2026-05-02T10:26:15.37Z</time></trkpt><trkpt lat="40.09684" lon="8.5714333"><ele>531.0</ele><time>2026-05-02T10:26:16.37Z</time></trkpt><trkpt lat="40.0966217" lon="8.5713683"><ele>531.0</ele><time>2026-05-02T10:26:18.37Z</time></trkpt><trkpt lat="40.0963917" lon="8.5713183"><ele>533.4</ele><time>2026-05-02T10:26:20.37Z</time></trkpt><trkpt lat="40.0962817" lon="8.5713017"><ele>535.8</ele><time>2026-05-02T10:26:21.37Z</time></trkpt><trkpt lat="40.0961817" lon="8.5712917"><ele>538.1999999999999</ele><time>2026-05-02T10:26:22.37Z</time></trkpt><trkpt lat="40.0960883" lon="8.5713117"><ele>540.6</ele><time>2026-05-02T10:26:23.37Z</time></trkpt><trkpt lat="40.096" lon="8.5713467"><ele>543.0</ele><time>2026-05-02T10:26:24.37Z</time></trkpt><trkpt lat="40.0959067" lon="8.5713583"><ele>543.0</ele><time>2026-05-02T10:26:25.37Z</time></trkpt><trkpt lat="40.0957967" lon="8.5713783"><ele>543.0</ele><time>2026-05-02T10:26:26.37Z</time></trkpt><trkpt lat="40.095695" lon="8.5713933"><ele>543.0</ele><time>2026-05-02T10:26:27.37Z</time></trkpt><trkpt lat="40.0955967" lon="8.5714167"><ele>543.0</ele><time>2026-05-02T10:26:28.37Z</time></trkpt><trkpt lat="40.0954983" lon="8.5714367"><ele>543.0</ele><time>2026-05-02T10:26:29.37Z</time></trkpt><trkpt lat="40.0954017" lon="8.5714833"><ele>542.4</ele><time>2026-05-02T10:26:30.37Z</time></trkpt><trkpt lat="40.0953017" lon="8.57151"><ele>541.8</ele><time>2026-05-02T10:26:31.37Z</time></trkpt><trkpt lat="40.0952083" lon="8.57152"><ele>541.2</ele><time>2026-05-02T10:26:32.37Z</time></trkpt><trkpt lat="40.095095" lon="8.5715433"><ele>540.6</ele><time>2026-05-02T10:26:33.37Z</time></trkpt><trkpt lat="40.0949717" lon="8.5715383"><ele>540.0</ele><time>2026-05-02T10:26:34.37Z</time></trkpt><trkpt lat="40.09484" lon="8.5715367"><ele>543.3333333333334</ele><time>2026-05-02T10:26:35.37Z</time></trkpt><trkpt lat="40.0945933" lon="8.5715283"><ele>546.6666666666667</ele><time>2026-05-02T10:26:37.37Z</time></trkpt><trkpt lat="40.0944767" lon="8.571495"><ele>550.0</ele><time>2026-05-02T10:26:38.37Z</time></trkpt><trkpt lat="40.094355" lon="8.57143"><ele>550.0</ele><time>2026-05-02T10:26:39.37Z</time></trkpt><trkpt lat="40.09424" lon="8.5713917"><ele>550.0</ele><time>2026-05-02T10:26:40.37Z</time></trkpt><trkpt lat="40.0941183" lon="8.5713517"><ele>550.0</ele><time>2026-05-02T10:26:41.37Z</time></trkpt><trkpt lat="40.0940067" lon="8.571335"><ele>550.0</ele><time>2026-05-02T10:26:42.37Z</time></trkpt><trkpt lat="40.093895" lon="8.57134"><ele>552.0</ele><time>2026-05-02T10:26:43.37Z</time></trkpt><trkpt lat="40.0937767" lon="8.5713767"><ele>554.0</ele><time>2026-05-02T10:26:44.37Z</time></trkpt><trkpt lat="40.0936467" lon="8.571415"><ele>556.0</ele><time>2026-05-02T10:26:45.37Z</time></trkpt><trkpt lat="40.0933817" lon="8.571495"><ele>554.5</ele><time>2026-05-02T10:26:47.37Z</time></trkpt><trkpt lat="40.093245" lon="8.5714933"><ele>553.0</ele><time>2026-05-02T10:26:48.37Z</time></trkpt><trkpt lat="40.0931267" lon="8.5714883"><ele>551.5</ele><time>2026-05-02T10:26:49.37Z</time></trkpt><trkpt lat="40.0930067" lon="8.5714533"><ele>550.0</ele><time>2026-05-02T10:26:50.37Z</time></trkpt><trkpt lat="40.0928717" lon="8.571435"><ele>550.0</ele><time>2026-05-02T10:26:51.37Z</time></trkpt><trkpt lat="40.0926383" lon="8.57141"><ele>550.0</ele><time>2026-05-02T10:26:53.37Z</time></trkpt><trkpt lat="40.0925533" lon="8.5713783"><ele>550.0</ele><time>2026-05-02T10:26:54.37Z</time></trkpt><trkpt lat="40.092475" lon="8.57132"><ele>550.0</ele><time>2026-05-02T10:26:55.37Z</time></trkpt><trkpt lat="40.0923317" lon="8.571125"><ele>548.6666666666667</ele><time>2026-05-02T10:26:57.37Z</time></trkpt><trkpt lat="40.0922733" lon="8.5710267"><ele>547.3333333333334</ele><time>2026-05-02T10:26:58.37Z</time></trkpt><trkpt lat="40.09222" lon="8.5709683"><ele>546.0</ele><time>2026-05-02T10:26:59.37Z</time></trkpt><trkpt lat="40.0921617" lon="8.57091"><ele>544.6666666666666</ele><time>2026-05-02T10:27:00.37Z</time></trkpt><trkpt lat="40.0920933" lon="8.57086"><ele>543.3333333333333</ele><time>2026-05-02T10:27:01.37Z</time></trkpt><trkpt lat="40.0920167" lon="8.570815"><ele>542.0</ele><time>2026-05-02T10:27:02.37Z</time></trkpt><trkpt lat="40.0919283" lon="8.5707817"><ele>542.0</ele><time>2026-05-02T10:27:03.37Z</time></trkpt><trkpt lat="40.0917583" lon="8.570715"><ele>542.0</ele><time>2026-05-02T10:27:05.37Z</time></trkpt><trkpt lat="40.0916733" lon="8.5706717"><ele>542.0</ele><time>2026-05-02T10:27:06.37Z</time></trkpt><trkpt lat="40.0915017" lon="8.57062"><ele>542.0</ele><time>2026-05-02T10:27:08.37Z</time></trkpt><trkpt lat="40.0914" lon="8.5706233"><ele>544.75</ele><time>2026-05-02T10:27:09.37Z</time></trkpt><trkpt lat="40.0912983" lon="8.5706483"><ele>547.5</ele><time>2026-05-02T10:27:10.37Z</time></trkpt><trkpt lat="40.0911933" lon="8.5706967"><ele>550.25</ele><time>2026-05-02T10:27:11.37Z</time></trkpt><trkpt lat="40.0910817" lon="8.5707533"><ele>553.0</ele><time>2026-05-02T10:27:12.37Z</time></trkpt><trkpt lat="40.0909667" lon="8.5708167"><ele>553.0</ele><time>2026-05-02T10:27:13.37Z</time></trkpt><trkpt lat="40.09086" lon="8.5708833"><ele>553.0</ele><time>2026-05-02T10:27:14.37Z</time></trkpt><trkpt lat="40.090675" lon="8.570985"><ele>553.0</ele><time>2026-05-02T10:27:16.37Z</time></trkpt><trkpt lat="40.09058" lon="8.571035"><ele>553.0</ele><time>2026-05-02T10:27:17.37Z</time></trkpt><trkpt lat="40.09049" lon="8.57106"><ele>554.8</ele><time>2026-05-02T10:27:18.37Z</time></trkpt><trkpt lat="40.0904067" lon="8.571075"><ele>556.5999999999999</ele><time>2026-05-02T10:27:19.37Z</time></trkpt><trkpt lat="40.0902717" lon="8.5710917"><ele>558.4000000000001</ele><time>2026-05-02T10:27:21.37Z</time></trkpt><trkpt lat="40.0901933" lon="8.5710567"><ele>560.2</ele><time>2026-05-02T10:27:33.37Z</time></trkpt><trkpt lat="40.09007" lon="8.571055"><ele>562.0</ele><time>2026-05-02T10:27:35.37Z</time></trkpt><trkpt lat="40.0899867" lon="8.5710617"><ele>563.3333333333334</ele><time>2026-05-02T10:27:36.37Z</time></trkpt><trkpt lat="40.0899117" lon="8.57106"><ele>564.6666666666667</ele><time>2026-05-02T10:27:37.37Z</time></trkpt><trkpt lat="40.0898217" lon="8.57101"><ele>566.0</ele><time>2026-05-02T10:27:39.37Z</time></trkpt><trkpt lat="40.0897783" lon="8.5709483"><ele>567.3333333333334</ele><time>2026-05-02T10:27:40.37Z</time></trkpt><trkpt lat="40.089745" lon="8.57086"><ele>568.6666666666666</ele><time>2026-05-02T10:27:41.37Z</time></trkpt><trkpt lat="40.089715" lon="8.5707633"><ele>570.0</ele><time>2026-05-02T10:27:42.37Z</time></trkpt><trkpt lat="40.0896533" lon="8.57068"><ele>570.0</ele><time>2026-05-02T10:27:43.37Z</time></trkpt><trkpt lat="40.0895717" lon="8.5706"><ele>570.0</ele><time>2026-05-02T10:27:44.37Z</time></trkpt><trkpt lat="40.0894767" lon="8.57052"><ele>570.0</ele><time>2026-05-02T10:27:45.37Z</time></trkpt><trkpt lat="40.0893817" lon="8.5704383"><ele>570.0</ele><time>2026-05-02T10:27:46.37Z</time></trkpt><trkpt lat="40.0892733" lon="8.57035"><ele>570.0</ele><time>2026-05-02T10:27:47.37Z</time></trkpt><trkpt lat="40.0891767" lon="8.5702617"><ele>570.0</ele><time>2026-05-02T10:27:48.37Z</time></trkpt><trkpt lat="40.0890383" lon="8.5700933"><ele>570.0</ele><time>2026-05-02T10:27:50.37Z</time></trkpt><trkpt lat="40.0889683" lon="8.57002"><ele>570.0</ele><time>2026-05-02T10:27:51.37Z</time></trkpt><trkpt lat="40.0889033" lon="8.569985"><ele>569.6</ele><time>2026-05-02T10:27:52.37Z</time></trkpt><trkpt lat="40.0888333" lon="8.5699717"><ele>569.2</ele><time>2026-05-02T10:27:53.37Z</time></trkpt><trkpt lat="40.08876" lon="8.569985"><ele>568.8</ele><time>2026-05-02T10:27:54.37Z</time></trkpt><trkpt lat="40.0886783" lon="8.57001"><ele>568.4</ele><time>2026-05-02T10:27:55.37Z</time></trkpt><trkpt lat="40.088515" lon="8.5700583"><ele>568.0</ele><time>2026-05-02T10:27:57.37Z</time></trkpt><trkpt lat="40.08843" lon="8.57009"><ele>568.0</ele><time>2026-05-02T10:27:58.37Z</time></trkpt><trkpt lat="40.0883417" lon="8.5701333"><ele>568.0</ele><time>2026-05-02T10:27:59.37Z</time></trkpt><trkpt lat="40.0882667" lon="8.57018"><ele>568.0</ele><time>2026-05-02T10:28:00.37Z</time></trkpt><trkpt lat="40.0881917" lon="8.5702317"><ele>568.0</ele><time>2026-05-02T10:28:01.37Z</time></trkpt><trkpt lat="40.0881317" lon="8.57028"><ele>568.0</ele><time>2026-05-02T10:28:02.37Z</time></trkpt><trkpt lat="40.0880683" lon="8.570345"><ele>568.0</ele><time>2026-05-02T10:28:03.37Z</time></trkpt><trkpt lat="40.08799" lon="8.5704117"><ele>567.1999999999999</ele><time>2026-05-02T10:28:04.37Z</time></trkpt><trkpt lat="40.087865" lon="8.5705583"><ele>566.4</ele><time>2026-05-02T10:28:06.37Z</time></trkpt><trkpt lat="40.0878183" lon="8.570625"><ele>565.5999999999999</ele><time>2026-05-02T10:28:07.37Z</time></trkpt><trkpt lat="40.0877417" lon="8.5706983"><ele>564.8</ele><time>2026-05-02T10:28:09.37Z</time></trkpt><trkpt lat="40.0876633" lon="8.57072"><ele>564.0</ele><time>2026-05-02T10:28:35.37Z</time></trkpt><trkpt lat="40.0876017" lon="8.5707433"><ele>564.0</ele><time>2026-05-02T10:28:36.37Z</time></trkpt><trkpt lat="40.0875083" lon="8.5707767"><ele>564.0</ele><time>2026-05-02T10:28:37.37Z</time></trkpt><trkpt lat="40.0873933" lon="8.5708217"><ele>564.0</ele><time>2026-05-02T10:28:38.37Z</time></trkpt><trkpt lat="40.087245" lon="8.57087"><ele>564.0</ele><time>2026-05-02T10:28:39.37Z</time></trkpt><trkpt lat="40.0870817" lon="8.5709033"><ele>561.3333333333334</ele><time>2026-05-02T10:28:40.37Z</time></trkpt><trkpt lat="40.0869267" lon="8.5709267"><ele>558.6666666666667</ele><time>2026-05-02T10:28:41.37Z</time></trkpt><trkpt lat="40.0867667" lon="8.5709467"><ele>556.0</ele><time>2026-05-02T10:28:42.37Z</time></trkpt><trkpt lat="40.08662" lon="8.5709633"><ele>552.5</ele><time>2026-05-02T10:28:43.37Z</time></trkpt><trkpt lat="40.08648" lon="8.57099"><ele>549.0</ele><time>2026-05-02T10:28:44.37Z</time></trkpt><trkpt lat="40.0863517" lon="8.571015"><ele>545.5</ele><time>2026-05-02T10:28:45.37Z</time></trkpt><trkpt lat="40.0862233" lon="8.5710383"><ele>542.0</ele><time>2026-05-02T10:28:46.37Z</time></trkpt><trkpt lat="40.086095" lon="8.5710617"><ele>542.0</ele><time>2026-05-02T10:28:47.37Z</time></trkpt><trkpt lat="40.0859517" lon="8.5710717"><ele>542.0</ele><time>2026-05-02T10:28:48.37Z</time></trkpt><trkpt lat="40.0858033" lon="8.5710817"><ele>542.0</ele><time>2026-05-02T10:28:49.37Z</time></trkpt><trkpt lat="40.0856583" lon="8.5711117"><ele>542.0</ele><time>2026-05-02T10:28:50.37Z</time></trkpt><trkpt lat="40.085525" lon="8.5711383"><ele>539.8000000000001</ele><time>2026-05-02T10:28:51.37Z</time></trkpt><trkpt lat="40.0854133" lon="8.57114"><ele>537.6</ele><time>2026-05-02T10:28:52.37Z</time></trkpt><trkpt lat="40.0853233" lon="8.5711567"><ele>535.4000000000001</ele><time>2026-05-02T10:28:53.37Z</time></trkpt><trkpt lat="40.0852367" lon="8.5711583"><ele>533.2</ele><time>2026-05-02T10:28:54.37Z</time></trkpt><trkpt lat="40.0851583" lon="8.5711483"><ele>531.0</ele><time>2026-05-02T10:28:55.37Z</time></trkpt><trkpt lat="40.08505" lon="8.5710983"><ele>531.0</ele><time>2026-05-02T10:28:57.37Z</time></trkpt><trkpt lat="40.084965" lon="8.5710417"><ele>531.0</ele><time>2026-05-02T10:28:59.37Z</time></trkpt><trkpt lat="40.0848633" lon="8.57099"><ele>531.0</ele><time>2026-05-02T10:29:01.37Z</time></trkpt><trkpt lat="40.0847933" lon="8.5709733"><ele>531.0</ele><time>2026-05-02T10:29:03.37Z</time></trkpt><trkpt lat="40.0847133" lon="8.5709667"><ele>531.0</ele><time>2026-05-02T10:29:05.37Z</time></trkpt><trkpt lat="40.08463" lon="8.5709583"><ele>531.0</ele><time>2026-05-02T10:29:07.37Z</time></trkpt><trkpt lat="40.0845133" lon="8.5709267"><ele>529.0</ele><time>2026-05-02T10:29:09.37Z</time></trkpt><trkpt lat="40.0843983" lon="8.5708967"><ele>527.0</ele><time>2026-05-02T10:29:11.37Z</time></trkpt><trkpt lat="40.0843317" lon="8.5708767"><ele>525.0</ele><time>2026-05-02T10:29:12.37Z</time></trkpt><trkpt lat="40.0842683" lon="8.57087"><ele>523.0</ele><time>2026-05-02T10:29:13.37Z</time></trkpt><trkpt lat="40.0842017" lon="8.5708667"><ele>521.0</ele><time>2026-05-02T10:29:14.37Z</time></trkpt><trkpt lat="40.0841333" lon="8.5708533"><ele>519.0</ele><time>2026-05-02T10:29:15.37Z</time></trkpt><trkpt lat="40.0840633" lon="8.5708317"><ele>517.2</ele><time>2026-05-02T10:29:16.37Z</time></trkpt><trkpt lat="40.0839917" lon="8.5708067"><ele>515.4</ele><time>2026-05-02T10:29:17.37Z</time></trkpt><trkpt lat="40.0838867" lon="8.5707533"><ele>513.6</ele><time>2026-05-02T10:29:19.37Z</time></trkpt><trkpt lat="40.0838417" lon="8.5706883"><ele>511.8</ele><time>2026-05-02T10:29:22.37Z</time></trkpt><trkpt lat="40.08385" lon="8.5706"><ele>510.0</ele><time>2026-05-02T10:30:48.37Z</time></trkpt><trkpt lat="40.08384" lon="8.57043"><ele>510.0</ele><time>2026-05-02T10:30:50.37Z</time></trkpt><trkpt lat="40.0838267" lon="8.5703383"><ele>510.0</ele><time>2026-05-02T10:30:51.37Z</time></trkpt><trkpt lat="40.0838117" lon="8.5702367"><ele>510.0</ele><time>2026-05-02T10:30:52.37Z</time></trkpt><trkpt lat="40.0838117" lon="8.5701383"><ele>510.0</ele><time>2026-05-02T10:30:53.37Z</time></trkpt><trkpt lat="40.0838017" lon="8.5700317"><ele>510.0</ele><time>2026-05-02T10:30:54.37Z</time></trkpt><trkpt lat="40.08379" lon="8.5699333"><ele>510.0</ele><time>2026-05-02T10:30:55.37Z</time></trkpt><trkpt lat="40.0837883" lon="8.56982"><ele>510.0</ele><time>2026-05-02T10:30:56.37Z</time></trkpt><trkpt lat="40.0837917" lon="8.5697067"><ele>510.0</ele><time>2026-05-02T10:30:57.37Z</time></trkpt><trkpt lat="40.0837867" lon="8.5695783"><ele>510.0</ele><time>2026-05-02T10:30:58.37Z</time></trkpt><trkpt lat="40.0837767" lon="8.5694533"><ele>510.0</ele><time>2026-05-02T10:30:59.37Z</time></trkpt><trkpt lat="40.083765" lon="8.56933"><ele>510.0</ele><time>2026-05-02T10:31:00.37Z</time></trkpt><trkpt lat="40.0837467" lon="8.5692033"><ele>509.6</ele><time>2026-05-02T10:31:01.37Z</time></trkpt><trkpt lat="40.08374" lon="8.5690833"><ele>509.2</ele><time>2026-05-02T10:31:02.37Z</time></trkpt><trkpt lat="40.08373" lon="8.5689617"><ele>508.79999999999995</ele><time>2026-05-02T10:31:03.37Z</time></trkpt><trkpt lat="40.0837083" lon="8.56884"><ele>508.4</ele><time>2026-05-02T10:31:04.37Z</time></trkpt><trkpt lat="40.0836917" lon="8.5686983"><ele>508.0</ele><time>2026-05-02T10:31:05.37Z</time></trkpt><trkpt lat="40.0836667" lon="8.568545"><ele>508.0</ele><time>2026-05-02T10:31:06.37Z</time></trkpt><trkpt lat="40.0836333" lon="8.5683833"><ele>507.99999999999994</ele><time>2026-05-02T10:31:07.37Z</time></trkpt><trkpt lat="40.0836133" lon="8.5682467"><ele>507.99999999999994</ele><time>2026-05-02T10:31:08.37Z</time></trkpt><trkpt lat="40.0836083" lon="8.568105"><ele>508.0</ele><time>2026-05-02T10:31:09.37Z</time></trkpt><trkpt lat="40.0836183" lon="8.5679683"><ele>508.0</ele><time>2026-05-02T10:31:10.37Z</time></trkpt><trkpt lat="40.083635" lon="8.5678133"><ele>508.4</ele><time>2026-05-02T10:31:11.37Z</time></trkpt><trkpt lat="40.0836583" lon="8.56768"><ele>508.79999999999995</ele><time>2026-05-02T10:31:12.37Z</time></trkpt><trkpt lat="40.0836767" lon="8.567555"><ele>509.2</ele><time>2026-05-02T10:31:13.37Z</time></trkpt><trkpt lat="40.083675" lon="8.5674433"><ele>509.6</ele><time>2026-05-02T10:31:14.37Z</time></trkpt><trkpt lat="40.0836633" lon="8.567325"><ele>510.0</ele><time>2026-05-02T10:31:15.37Z</time></trkpt><trkpt lat="40.0836417" lon="8.5672067"><ele>510.0</ele><time>2026-05-02T10:31:16.37Z</time></trkpt><trkpt lat="40.083625" lon="8.5670783"><ele>510.0</ele><time>2026-05-02T10:31:17.37Z</time></trkpt><trkpt lat="40.0836067" lon="8.5669183"><ele>510.0</ele><time>2026-05-02T10:31:18.37Z</time></trkpt><trkpt lat="40.0836067" lon="8.56677"><ele>510.0</ele><time>2026-05-02T10:31:19.37Z</time></trkpt><trkpt lat="40.0836" lon="8.5666317"><ele>510.0</ele><time>2026-05-02T10:31:20.37Z</time></trkpt><trkpt lat="40.0835917" lon="8.5664933"><ele>509.4</ele><time>2026-05-02T10:31:21.37Z</time></trkpt><trkpt lat="40.0835767" lon="8.56635"><ele>508.8</ele><time>2026-05-02T10:31:22.37Z</time></trkpt><trkpt lat="40.08355" lon="8.5662167"><ele>508.20000000000005</ele><time>2026-05-02T10:31:23.37Z</time></trkpt><trkpt lat="40.0835367" lon="8.5660817"><ele>507.6</ele><time>2026-05-02T10:31:24.37Z</time></trkpt><trkpt lat="40.0835283" lon="8.565955"><ele>507.0</ele><time>2026-05-02T10:31:25.37Z</time></trkpt><trkpt lat="40.0835117" lon="8.565805"><ele>506.0</ele><time>2026-05-02T10:31:26.37Z</time></trkpt><trkpt lat="40.0834917" lon="8.5656517"><ele>505.00000000000006</ele><time>2026-05-02T10:31:27.37Z</time></trkpt><trkpt lat="40.0834733" lon="8.565505"><ele>504.00000000000006</ele><time>2026-05-02T10:31:28.37Z</time></trkpt><trkpt lat="40.0834617" lon="8.5653917"><ele>503.0</ele><time>2026-05-02T10:31:29.37Z</time></trkpt><trkpt lat="40.0834433" lon="8.5652867"><ele>502.0</ele><time>2026-05-02T10:31:30.37Z</time></trkpt><trkpt lat="40.0834183" lon="8.565205"><ele>500.6</ele><time>2026-05-02T10:31:31.37Z</time></trkpt><trkpt lat="40.0833" lon="8.565145"><ele>499.20000000000005</ele><time>2026-05-02T10:31:33.37Z</time></trkpt><trkpt lat="40.0831983" lon="8.56513"><ele>497.8</ele><time>2026-05-02T10:31:34.37Z</time></trkpt><trkpt lat="40.0830883" lon="8.5651233"><ele>496.4</ele><time>2026-05-02T10:31:35.37Z</time></trkpt><trkpt lat="40.0829917" lon="8.565105"><ele>495.0</ele><time>2026-05-02T10:31:36.37Z</time></trkpt><trkpt lat="40.08291" lon="8.5650533"><ele>494.1666666666667</ele><time>2026-05-02T10:31:37.37Z</time></trkpt><trkpt lat="40.082835" lon="8.564985"><ele>493.33333333333337</ele><time>2026-05-02T10:31:38.37Z</time></trkpt><trkpt lat="40.0827683" lon="8.5649317"><ele>492.5</ele><time>2026-05-02T10:31:39.37Z</time></trkpt><trkpt lat="40.082705" lon="8.564905"><ele>491.6666666666667</ele><time>2026-05-02T10:31:40.37Z</time></trkpt><trkpt lat="40.0826283" lon="8.5649133"><ele>490.83333333333337</ele><time>2026-05-02T10:31:41.37Z</time></trkpt><trkpt lat="40.0825483" lon="8.56494"><ele>490.0</ele><time>2026-05-02T10:31:42.37Z</time></trkpt><trkpt lat="40.0824533" lon="8.5649967"><ele>487.75</ele><time>2026-05-02T10:31:43.37Z</time></trkpt><trkpt lat="40.082335" lon="8.5650667"><ele>485.5</ele><time>2026-05-02T10:31:44.37Z</time></trkpt><trkpt lat="40.0822217" lon="8.56512"><ele>483.25</ele><time>2026-05-02T10:31:45.37Z</time></trkpt><trkpt lat="40.0821217" lon="8.5651817"><ele>481.0</ele><time>2026-05-02T10:31:46.37Z</time></trkpt><trkpt lat="40.0820317" lon="8.5652483"><ele>481.0</ele><time>2026-05-02T10:31:47.37Z</time></trkpt><trkpt lat="40.0819517" lon="8.565335"><ele>481.0</ele><time>2026-05-02T10:31:48.37Z</time></trkpt><trkpt lat="40.0819017" lon="8.5654567"><ele>481.0</ele><time>2026-05-02T10:31:49.37Z</time></trkpt><trkpt lat="40.0818083" lon="8.565555"><ele>481.0</ele><time>2026-05-02T10:31:50.37Z</time></trkpt><trkpt lat="40.08172" lon="8.565645"><ele>481.0</ele><time>2026-05-02T10:31:51.37Z</time></trkpt><trkpt lat="40.0816267" lon="8.5657117"><ele>478.8</ele><time>2026-05-02T10:31:52.37Z</time></trkpt><trkpt lat="40.0815267" lon="8.56577"><ele>476.6</ele><time>2026-05-02T10:31:53.37Z</time></trkpt><trkpt lat="40.0814217" lon="8.5658433"><ele>474.4</ele><time>2026-05-02T10:31:54.37Z</time></trkpt><trkpt lat="40.0813217" lon="8.5659033"><ele>472.2</ele><time>2026-05-02T10:31:55.37Z</time></trkpt><trkpt lat="40.08124" lon="8.5659633"><ele>470.0</ele><time>2026-05-02T10:31:56.37Z</time></trkpt><trkpt lat="40.0811733" lon="8.5660067"><ele>469.99999999999994</ele><time>2026-05-02T10:31:57.37Z</time></trkpt><trkpt lat="40.08112" lon="8.5660683"><ele>470.0</ele><time>2026-05-02T10:31:58.37Z</time></trkpt><trkpt lat="40.081085" lon="8.56615"><ele>470.0</ele><time>2026-05-02T10:31:59.37Z</time></trkpt><trkpt lat="40.08104" lon="8.5662583"><ele>470.0</ele><time>2026-05-02T10:32:00.37Z</time></trkpt><trkpt lat="40.0809817" lon="8.5663667"><ele>469.99999999999994</ele><time>2026-05-02T10:32:01.37Z</time></trkpt><trkpt lat="40.0809167" lon="8.5664833"><ele>470.0</ele><time>2026-05-02T10:32:02.37Z</time></trkpt><trkpt lat="40.0808667" lon="8.5666067"><ele>469.2</ele><time>2026-05-02T10:32:03.37Z</time></trkpt><trkpt lat="40.0808483" lon="8.5667367"><ele>468.4</ele><time>2026-05-02T10:32:04.37Z</time></trkpt><trkpt lat="40.080825" lon="8.5668817"><ele>467.6</ele><time>2026-05-02T10:32:05.37Z</time></trkpt><trkpt lat="40.0807883" lon="8.5670267"><ele>466.8</ele><time>2026-05-02T10:32:06.37Z</time></trkpt><trkpt lat="40.0807283" lon="8.567155"><ele>466.0</ele><time>2026-05-02T10:32:07.37Z</time></trkpt><trkpt lat="40.0806583" lon="8.5673133"><ele>465.25</ele><time>2026-05-02T10:32:08.37Z</time></trkpt><trkpt lat="40.0805867" lon="8.5674667"><ele>464.5</ele><time>2026-05-02T10:32:09.37Z</time></trkpt><trkpt lat="40.0805117" lon="8.5676183"><ele>463.75</ele><time>2026-05-02T10:32:10.37Z</time></trkpt><trkpt lat="40.080405" lon="8.56777"><ele>463.0</ele><time>2026-05-02T10:32:11.37Z</time></trkpt><trkpt lat="40.0802917" lon="8.5679033"><ele>463.0</ele><time>2026-05-02T10:32:12.37Z</time></trkpt><trkpt lat="40.0801767" lon="8.5680467"><ele>463.0</ele><time>2026-05-02T10:32:13.37Z</time></trkpt><trkpt lat="40.0800633" lon="8.5681933"><ele>463.0</ele><time>2026-05-02T10:32:14.37Z</time></trkpt><trkpt lat="40.0799483" lon="8.568335"><ele>461.0</ele><time>2026-05-02T10:32:15.37Z</time></trkpt><trkpt lat="40.0798367" lon="8.5684617"><ele>459.0</ele><time>2026-05-02T10:32:16.37Z</time></trkpt><trkpt lat="40.0797383" lon="8.5685883"><ele>457.0</ele><time>2026-05-02T10:32:17.37Z</time></trkpt><trkpt lat="40.07965" lon="8.5687217"><ele>455.0</ele><time>2026-05-02T10:32:18.37Z</time></trkpt><trkpt lat="40.0795733" lon="8.5688783"><ele>455.0</ele><time>2026-05-02T10:32:19.37Z</time></trkpt><trkpt lat="40.0795133" lon="8.569055"><ele>455.0</ele><time>2026-05-02T10:32:20.37Z</time></trkpt><trkpt lat="40.0794667" lon="8.56924"><ele>455.0</ele><time>2026-05-02T10:32:21.37Z</time></trkpt><trkpt lat="40.0794417" lon="8.5693967"><ele>455.0</ele><time>2026-05-02T10:32:22.37Z</time></trkpt><trkpt lat="40.0794283" lon="8.569555"><ele>454.49999999999994</ele><time>2026-05-02T10:32:23.37Z</time></trkpt><trkpt lat="40.0794383" lon="8.5696967"><ele>454.0</ele><time>2026-05-02T10:32:24.37Z</time></trkpt><trkpt lat="40.07946" lon="8.5698183"><ele>453.5</ele><time>2026-05-02T10:32:25.37Z</time></trkpt><trkpt lat="40.07947" lon="8.5699233"><ele>453.0</ele><time>2026-05-02T10:32:26.37Z</time></trkpt><trkpt lat="40.0794433" lon="8.5700067"><ele>452.49999999999994</ele><time>2026-05-02T10:32:27.37Z</time></trkpt><trkpt lat="40.0793917" lon="8.570085"><ele>452.0</ele><time>2026-05-02T10:32:28.37Z</time></trkpt><trkpt lat="40.079345" lon="8.5701617"><ele>452.0</ele><time>2026-05-02T10:32:29.37Z</time></trkpt><trkpt lat="40.07931" lon="8.57025"><ele>452.00000000000006</ele><time>2026-05-02T10:32:30.37Z</time></trkpt><trkpt lat="40.0793" lon="8.57037"><ele>452.00000000000006</ele><time>2026-05-02T10:32:31.37Z</time></trkpt><trkpt lat="40.079295" lon="8.5705233"><ele>452.0</ele><time>2026-05-02T10:32:32.37Z</time></trkpt><trkpt lat="40.0792783" lon="8.5706767"><ele>452.0</ele><time>2026-05-02T10:32:33.37Z</time></trkpt><trkpt lat="40.0792467" lon="8.5708217"><ele>451.25</ele><time>2026-05-02T10:32:34.37Z</time></trkpt><trkpt lat="40.0792283" lon="8.570955"><ele>450.5</ele><time>2026-05-02T10:32:35.37Z</time></trkpt><trkpt lat="40.0792283" lon="8.5710917"><ele>449.75</ele><time>2026-05-02T10:32:36.37Z</time></trkpt><trkpt lat="40.079225" lon="8.571245"><ele>449.0</ele><time>2026-05-02T10:32:37.37Z</time></trkpt><trkpt lat="40.07921" lon="8.5714183"><ele>448.0</ele><time>2026-05-02T10:32:38.37Z</time></trkpt><trkpt lat="40.0791833" lon="8.5715783"><ele>447.0</ele><time>2026-05-02T10:32:39.37Z</time></trkpt><trkpt lat="40.079165" lon="8.5717283"><ele>446.0</ele><time>2026-05-02T10:32:40.37Z</time></trkpt><trkpt lat="40.079145" lon="8.5718717"><ele>445.0</ele><time>2026-05-02T10:32:41.37Z</time></trkpt><trkpt lat="40.0791233" lon="8.572005"><ele>440.5</ele><time>2026-05-02T10:32:42.37Z</time></trkpt><trkpt lat="40.07909" lon="8.5721517"><ele>436.0</ele><time>2026-05-02T10:32:43.37Z</time></trkpt><trkpt lat="40.07905" lon="8.5722883"><ele>431.5</ele><time>2026-05-02T10:32:44.37Z</time></trkpt><trkpt lat="40.07901" lon="8.572445"><ele>427.0</ele><time>2026-05-02T10:32:45.37Z</time></trkpt><trkpt lat="40.0789767" lon="8.572605"><ele>427.00000000000006</ele><time>2026-05-02T10:32:46.37Z</time></trkpt><trkpt lat="40.0789417" lon="8.5727217"><ele>427.0</ele><time>2026-05-02T10:32:47.37Z</time></trkpt><trkpt lat="40.07891" lon="8.57282"><ele>427.0</ele><time>2026-05-02T10:32:48.37Z</time></trkpt><trkpt lat="40.0788867" lon="8.572925"><ele>427.0</ele><time>2026-05-02T10:32:49.37Z</time></trkpt><trkpt lat="40.0788983" lon="8.5730317"><ele>427.00000000000006</ele><time>2026-05-02T10:32:50.37Z</time></trkpt><trkpt lat="40.0789283" lon="8.5731483"><ele>427.0</ele><time>2026-05-02T10:32:51.37Z</time></trkpt><trkpt lat="40.0789333" lon="8.5732533"><ele>425.40000000000003</ele><time>2026-05-02T10:32:52.37Z</time></trkpt><trkpt lat="40.078865" lon="8.5734167"><ele>423.80000000000007</ele><time>2026-05-02T10:32:54.37Z</time></trkpt><trkpt lat="40.0788133" lon="8.5735167"><ele>422.2</ele><time>2026-05-02T10:32:55.37Z</time></trkpt><trkpt lat="40.0787883" lon="8.5736217"><ele>420.6</ele><time>2026-05-02T10:32:56.37Z</time></trkpt><trkpt lat="40.078745" lon="8.5737367"><ele>419.0</ele><time>2026-05-02T10:32:58.37Z</time></trkpt><trkpt lat="40.0786167" lon="8.5736733"><ele>419.0</ele><time>2026-05-02T10:33:00.37Z</time></trkpt><trkpt lat="40.0785317" lon="8.57361"><ele>419.0</ele><time>2026-05-02T10:33:01.37Z</time></trkpt><trkpt lat="40.0784417" lon="8.573515"><ele>419.0</ele><time>2026-05-02T10:33:02.37Z</time></trkpt><trkpt lat="40.0783467" lon="8.5733933"><ele>419.0</ele><time>2026-05-02T10:33:03.37Z</time></trkpt><trkpt lat="40.0782617" lon="8.5732533"><ele>417.75</ele><time>2026-05-02T10:33:04.37Z</time></trkpt><trkpt lat="40.0781967" lon="8.5730917"><ele>416.5</ele><time>2026-05-02T10:33:05.37Z</time></trkpt><trkpt lat="40.0781317" lon="8.5729283"><ele>415.25</ele><time>2026-05-02T10:33:06.37Z</time></trkpt><trkpt lat="40.0780683" lon="8.5727567"><ele>414.0</ele><time>2026-05-02T10:33:07.37Z</time></trkpt><trkpt lat="40.0780017" lon="8.5725917"><ele>414.0</ele><time>2026-05-02T10:33:08.37Z</time></trkpt><trkpt lat="40.0779367" lon="8.57241"><ele>414.0</ele><time>2026-05-02T10:33:09.37Z</time></trkpt><trkpt lat="40.07786" lon="8.5722333"><ele>414.0</ele><time>2026-05-02T10:33:10.37Z</time></trkpt><trkpt lat="40.0777717" lon="8.5720633"><ele>415.66666666666663</ele><time>2026-05-02T10:33:11.37Z</time></trkpt><trkpt lat="40.07769" lon="8.5718633"><ele>417.3333333333333</ele><time>2026-05-02T10:33:12.37Z</time></trkpt><trkpt lat="40.0776117" lon="8.571645"><ele>419.0</ele><time>2026-05-02T10:33:13.37Z</time></trkpt><trkpt lat="40.07754" lon="8.5714417"><ele>419.0</ele><time>2026-05-02T10:33:14.37Z</time></trkpt><trkpt lat="40.0774617" lon="8.57124"><ele>419.0</ele><time>2026-05-02T10:33:15.37Z</time></trkpt><trkpt lat="40.077355" lon="8.5710467"><ele>419.0</ele><time>2026-05-02T10:33:16.37Z</time></trkpt><trkpt lat="40.0772533" lon="8.570855"><ele>415.3333333333333</ele><time>2026-05-02T10:33:17.37Z</time></trkpt><trkpt lat="40.0771367" lon="8.570685"><ele>411.66666666666663</ele><time>2026-05-02T10:33:18.37Z</time></trkpt><trkpt lat="40.0770117" lon="8.5705017"><ele>408.0</ele><time>2026-05-02T10:33:19.37Z</time></trkpt><trkpt lat="40.0768883" lon="8.5703283"><ele>408.0</ele><time>2026-05-02T10:33:20.37Z</time></trkpt><trkpt lat="40.0767667" lon="8.5701483"><ele>408.0</ele><time>2026-05-02T10:33:21.37Z</time></trkpt><trkpt lat="40.0766417" lon="8.5699567"><ele>408.0</ele><time>2026-05-02T10:33:22.37Z</time></trkpt><trkpt lat="40.0765183" lon="8.56976"><ele>405.66666666666663</ele><time>2026-05-02T10:33:23.37Z</time></trkpt><trkpt lat="40.0763967" lon="8.5695683"><ele>403.3333333333333</ele><time>2026-05-02T10:33:24.37Z</time></trkpt><trkpt lat="40.076265" lon="8.5693733"><ele>401.0</ele><time>2026-05-02T10:33:25.37Z</time></trkpt><trkpt lat="40.0761467" lon="8.5691917"><ele>401.0</ele><time>2026-05-02T10:33:26.37Z</time></trkpt><trkpt lat="40.0760417" lon="8.5690317"><ele>401.0</ele><time>2026-05-02T10:33:27.37Z</time></trkpt><trkpt lat="40.0759467" lon="8.5688667"><ele>401.0</ele><time>2026-05-02T10:33:28.37Z</time></trkpt><trkpt lat="40.0758617" lon="8.568695"><ele>402.0</ele><time>2026-05-02T10:33:29.37Z</time></trkpt><trkpt lat="40.0758083" lon="8.5685133"><ele>403.0</ele><time>2026-05-02T10:33:30.37Z</time></trkpt><trkpt lat="40.075785" lon="8.5683467"><ele>404.0</ele><time>2026-05-02T10:33:31.37Z</time></trkpt><trkpt lat="40.0757967" lon="8.5681733"><ele>405.0</ele><time>2026-05-02T10:33:32.37Z</time></trkpt><trkpt lat="40.0758283" lon="8.567985"><ele>405.0</ele><time>2026-05-02T10:33:33.37Z</time></trkpt><trkpt lat="40.0758783" lon="8.567805"><ele>405.0</ele><time>2026-05-02T10:33:34.37Z</time></trkpt><trkpt lat="40.0759633" lon="8.5676333"><ele>405.0</ele><time>2026-05-02T10:33:35.37Z</time></trkpt><trkpt lat="40.07606" lon="8.56749"><ele>405.0</ele><time>2026-05-02T10:33:36.37Z</time></trkpt><trkpt lat="40.0761467" lon="8.5673417"><ele>405.0</ele><time>2026-05-02T10:33:37.37Z</time></trkpt><trkpt lat="40.0762" lon="8.5671883"><ele>405.0</ele><time>2026-05-02T10:33:38.37Z</time></trkpt><trkpt lat="40.076215" lon="8.5670267"><ele>405.0</ele><time>2026-05-02T10:33:39.37Z</time></trkpt><trkpt lat="40.0762017" lon="8.566855"><ele>405.0</ele><time>2026-05-02T10:33:40.37Z</time></trkpt><trkpt lat="40.07616" lon="8.5666683"><ele>405.33333333333337</ele><time>2026-05-02T10:33:41.37Z</time></trkpt><trkpt lat="40.0760933" lon="8.5664917"><ele>405.6666666666667</ele><time>2026-05-02T10:33:42.37Z</time></trkpt><trkpt lat="40.07601" lon="8.5663367"><ele>406.0</ele><time>2026-05-02T10:33:43.37Z</time></trkpt><trkpt lat="40.07591" lon="8.56618"><ele>405.0</ele><time>2026-05-02T10:33:44.37Z</time></trkpt><trkpt lat="40.0758017" lon="8.5660117"><ele>404.0</ele><time>2026-05-02T10:33:45.37Z</time></trkpt><trkpt lat="40.0756967" lon="8.56584"><ele>403.0</ele><time>2026-05-02T10:33:46.37Z</time></trkpt><trkpt lat="40.075605" lon="8.5656567"><ele>403.0</ele><time>2026-05-02T10:33:47.37Z</time></trkpt><trkpt lat="40.0755167" lon="8.5654867"><ele>403.0</ele><time>2026-05-02T10:33:48.37Z</time></trkpt><trkpt lat="40.0754333" lon="8.5653267"><ele>403.0</ele><time>2026-05-02T10:33:49.37Z</time></trkpt><trkpt lat="40.0753633" lon="8.565165"><ele>403.0</ele><time>2026-05-02T10:33:50.37Z</time></trkpt><trkpt lat="40.07531" lon="8.56498"><ele>404.6666666666667</ele><time>2026-05-02T10:33:51.37Z</time></trkpt><trkpt lat="40.075275" lon="8.5647983"><ele>406.33333333333337</ele><time>2026-05-02T10:33:52.37Z</time></trkpt><trkpt lat="40.075265" lon="8.5646"><ele>408.0</ele><time>2026-05-02T10:33:53.37Z</time></trkpt><trkpt lat="40.0752667" lon="8.564395"><ele>410.0</ele><time>2026-05-02T10:33:54.37Z</time></trkpt><trkpt lat="40.0752433" lon="8.5641767"><ele>412.0</ele><time>2026-05-02T10:33:55.37Z</time></trkpt><trkpt lat="40.0752083" lon="8.563965"><ele>414.0</ele><time>2026-05-02T10:33:56.37Z</time></trkpt><trkpt lat="40.0751583" lon="8.563765"><ele>414.66666666666663</ele><time>2026-05-02T10:33:57.37Z</time></trkpt><trkpt lat="40.0751083" lon="8.5635617"><ele>415.3333333333333</ele><time>2026-05-02T10:33:58.37Z</time></trkpt><trkpt lat="40.0750633" lon="8.56335"><ele>416.0</ele><time>2026-05-02T10:33:59.37Z</time></trkpt><trkpt lat="40.0750317" lon="8.5631367"><ele>416.0</ele><time>2026-05-02T10:34:00.37Z</time></trkpt><trkpt lat="40.0750183" lon="8.5629217"><ele>416.0</ele><time>2026-05-02T10:34:01.37Z</time></trkpt><trkpt lat="40.075005" lon="8.562715"><ele>416.0</ele><time>2026-05-02T10:34:02.37Z</time></trkpt><trkpt lat="40.074995" lon="8.5625117"><ele>418.66666666666663</ele><time>2026-05-02T10:34:03.37Z</time></trkpt><trkpt lat="40.0749883" lon="8.5623067"><ele>421.33333333333337</ele><time>2026-05-02T10:34:04.37Z</time></trkpt><trkpt lat="40.0749917" lon="8.5621017"><ele>424.0</ele><time>2026-05-02T10:34:05.37Z</time></trkpt><trkpt lat="40.0749967" lon="8.56191"><ele>426.0</ele><time>2026-05-02T10:34:06.37Z</time></trkpt><trkpt lat="40.075015" lon="8.5617067"><ele>428.0</ele><time>2026-05-02T10:34:07.37Z</time></trkpt><trkpt lat="40.07504" lon="8.56149"><ele>430.0</ele><time>2026-05-02T10:34:08.37Z</time></trkpt><trkpt lat="40.07507" lon="8.56127"><ele>430.6666666666667</ele><time>2026-05-02T10:34:09.37Z</time></trkpt><trkpt lat="40.0750917" lon="8.561055"><ele>431.33333333333337</ele><time>2026-05-02T10:34:10.37Z</time></trkpt><trkpt lat="40.0750967" lon="8.5608367"><ele>432.0</ele><time>2026-05-02T10:34:11.37Z</time></trkpt><trkpt lat="40.0750967" lon="8.5606283"><ele>432.0</ele><time>2026-05-02T10:34:12.37Z</time></trkpt><trkpt lat="40.0750917" lon="8.560445"><ele>432.0</ele><time>2026-05-02T10:34:13.37Z</time></trkpt><trkpt lat="40.075085" lon="8.5602733"><ele>432.0</ele><time>2026-05-02T10:34:14.37Z</time></trkpt><trkpt lat="40.0750783" lon="8.56012"><ele>432.0</ele><time>2026-05-02T10:34:15.37Z</time></trkpt><trkpt lat="40.0750433" lon="8.5599733"><ele>431.5</ele><time>2026-05-02T10:34:16.37Z</time></trkpt><trkpt lat="40.07499" lon="8.559815"><ele>431.0</ele><time>2026-05-02T10:34:17.37Z</time></trkpt><trkpt lat="40.0749117" lon="8.5596483"><ele>430.5</ele><time>2026-05-02T10:34:18.37Z</time></trkpt><trkpt lat="40.0748183" lon="8.5594767"><ele>430.0</ele><time>2026-05-02T10:34:19.37Z</time></trkpt><trkpt lat="40.0747133" lon="8.5592883"><ele>430.0</ele><time>2026-05-02T10:34:20.37Z</time></trkpt><trkpt lat="40.074595" lon="8.5590883"><ele>430.0</ele><time>2026-05-02T10:34:21.37Z</time></trkpt><trkpt lat="40.0744833" lon="8.55891"><ele>430.0</ele><time>2026-05-02T10:34:22.37Z</time></trkpt><trkpt lat="40.074385" lon="8.5587183"><ele>426.0</ele><time>2026-05-02T10:34:23.37Z</time></trkpt><trkpt lat="40.0742917" lon="8.5585167"><ele>422.0</ele><time>2026-05-02T10:34:24.37Z</time></trkpt><trkpt lat="40.0741933" lon="8.5582817"><ele>418.0</ele><time>2026-05-02T10:34:25.37Z</time></trkpt><trkpt lat="40.07411" lon="8.558045"><ele>418.0</ele><time>2026-05-02T10:34:26.37Z</time></trkpt><trkpt lat="40.0740317" lon="8.5578217"><ele>418.0</ele><time>2026-05-02T10:34:27.37Z</time></trkpt><trkpt lat="40.073955" lon="8.557595"><ele>418.0</ele><time>2026-05-02T10:34:28.369Z</time></trkpt><trkpt lat="40.073875" lon="8.5573667"><ele>418.0</ele><time>2026-05-02T10:34:29.369Z</time></trkpt><trkpt lat="40.0737883" lon="8.5571617"><ele>418.0</ele><time>2026-05-02T10:34:30.369Z</time></trkpt><trkpt lat="40.073715" lon="8.556955"><ele>418.0</ele><time>2026-05-02T10:34:31.369Z</time></trkpt><trkpt lat="40.073645" lon="8.5567483"><ele>416.0</ele><time>2026-05-02T10:34:32.369Z</time></trkpt><trkpt lat="40.0735717" lon="8.5565583"><ele>414.0</ele><time>2026-05-02T10:34:33.369Z</time></trkpt><trkpt lat="40.073505" lon="8.5563633"><ele>412.0</ele><time>2026-05-02T10:34:34.369Z</time></trkpt><trkpt lat="40.0734317" lon="8.55615"><ele>413.33333333333337</ele><time>2026-05-02T10:34:35.369Z</time></trkpt><trkpt lat="40.0733633" lon="8.5559433"><ele>414.66666666666663</ele><time>2026-05-02T10:34:36.369Z</time></trkpt><trkpt lat="40.0732867" lon="8.5557367"><ele>416.0</ele><time>2026-05-02T10:34:37.369Z</time></trkpt><trkpt lat="40.0732233" lon="8.5555233"><ele>414.0</ele><time>2026-05-02T10:34:38.369Z</time></trkpt><trkpt lat="40.0731467" lon="8.555315"><ele>412.0</ele><time>2026-05-02T10:34:39.369Z</time></trkpt><trkpt lat="40.07307" lon="8.5551083"><ele>410.0</ele><time>2026-05-02T10:34:40.369Z</time></trkpt><trkpt lat="40.0729967" lon="8.55492"><ele>410.0</ele><time>2026-05-02T10:34:41.369Z</time></trkpt><trkpt lat="40.0729367" lon="8.5547567"><ele>410.0</ele><time>2026-05-02T10:34:42.369Z</time></trkpt><trkpt lat="40.0728917" lon="8.5545933"><ele>410.0</ele><time>2026-05-02T10:34:43.369Z</time></trkpt><trkpt lat="40.0728633" lon="8.5544367"><ele>410.0</ele><time>2026-05-02T10:34:44.369Z</time></trkpt><trkpt lat="40.0728533" lon="8.55426"><ele>408.0</ele><time>2026-05-02T10:34:45.369Z</time></trkpt><trkpt lat="40.0728617" lon="8.5540817"><ele>406.0</ele><time>2026-05-02T10:34:46.369Z</time></trkpt><trkpt lat="40.072895" lon="8.5539"><ele>404.0</ele><time>2026-05-02T10:34:47.369Z</time></trkpt><trkpt lat="40.072935" lon="8.5537133"><ele>402.0</ele><time>2026-05-02T10:34:48.369Z</time></trkpt><trkpt lat="40.0729783" lon="8.55354"><ele>400.0</ele><time>2026-05-02T10:34:49.369Z</time></trkpt><trkpt lat="40.07301" lon="8.55336"><ele>398.0</ele><time>2026-05-02T10:34:50.369Z</time></trkpt><trkpt lat="40.0730183" lon="8.5531883"><ele>396.0</ele><time>2026-05-02T10:34:51.369Z</time></trkpt><trkpt lat="40.073" lon="8.5530133"><ele>394.0</ele><time>2026-05-02T10:34:52.369Z</time></trkpt><trkpt lat="40.0729667" lon="8.5528267"><ele>391.33333333333337</ele><time>2026-05-02T10:34:53.369Z</time></trkpt><trkpt lat="40.0729167" lon="8.5526367"><ele>388.66666666666663</ele><time>2026-05-02T10:34:54.369Z</time></trkpt><trkpt lat="40.0728667" lon="8.552445"><ele>386.0</ele><time>2026-05-02T10:34:55.369Z</time></trkpt><trkpt lat="40.072805" lon="8.5522467"><ele>386.0</ele><time>2026-05-02T10:34:56.369Z</time></trkpt><trkpt lat="40.0727383" lon="8.552055"><ele>386.0</ele><time>2026-05-02T10:34:57.369Z</time></trkpt><trkpt lat="40.0726683" lon="8.5518633"><ele>386.0</ele><time>2026-05-02T10:34:58.369Z</time></trkpt><trkpt lat="40.0726067" lon="8.5516733"><ele>383.66666666666663</ele><time>2026-05-02T10:34:59.369Z</time></trkpt><trkpt lat="40.0725417" lon="8.5514867"><ele>381.3333333333333</ele><time>2026-05-02T10:35:00.369Z</time></trkpt><trkpt lat="40.0724683" lon="8.5513133"><ele>379.0</ele><time>2026-05-02T10:35:01.369Z</time></trkpt><trkpt lat="40.072385" lon="8.5511383"><ele>377.3333333333333</ele><time>2026-05-02T10:35:02.369Z</time></trkpt><trkpt lat="40.0723033" lon="8.55095"><ele>375.6666666666667</ele><time>2026-05-02T10:35:03.369Z</time></trkpt><trkpt lat="40.0722133" lon="8.550765"><ele>374.0</ele><time>2026-05-02T10:35:04.369Z</time></trkpt><trkpt lat="40.0721233" lon="8.5505683"><ele>371.33333333333337</ele><time>2026-05-02T10:35:05.369Z</time></trkpt><trkpt lat="40.0720217" lon="8.5503717"><ele>368.6666666666667</ele><time>2026-05-02T10:35:06.369Z</time></trkpt><trkpt lat="40.0719283" lon="8.550175"><ele>366.0</ele><time>2026-05-02T10:35:07.369Z</time></trkpt><trkpt lat="40.0718533" lon="8.5499933"><ele>366.0</ele><time>2026-05-02T10:35:08.369Z</time></trkpt><trkpt lat="40.0717883" lon="8.54982"><ele>366.0</ele><time>2026-05-02T10:35:09.369Z</time></trkpt><trkpt lat="40.07176" lon="8.5496583"><ele>366.0</ele><time>2026-05-02T10:35:10.369Z</time></trkpt><trkpt lat="40.0717533" lon="8.549485"><ele>366.0</ele><time>2026-05-02T10:35:11.369Z</time></trkpt><trkpt lat="40.0717683" lon="8.549305"><ele>364.25</ele><time>2026-05-02T10:35:12.369Z</time></trkpt><trkpt lat="40.0718033" lon="8.549125"><ele>362.5</ele><time>2026-05-02T10:35:13.369Z</time></trkpt><trkpt lat="40.0718667" lon="8.5489433"><ele>360.75</ele><time>2026-05-02T10:35:14.369Z</time></trkpt><trkpt lat="40.07192" lon="8.548775"><ele>359.0</ele><time>2026-05-02T10:35:15.369Z</time></trkpt><trkpt lat="40.0719583" lon="8.5485967"><ele>358.25</ele><time>2026-05-02T10:35:16.369Z</time></trkpt><trkpt lat="40.0719717" lon="8.5484267"><ele>357.5</ele><time>2026-05-02T10:35:17.369Z</time></trkpt><trkpt lat="40.0719483" lon="8.548265"><ele>356.75</ele><time>2026-05-02T10:35:18.369Z</time></trkpt><trkpt lat="40.0719033" lon="8.5481267"><ele>356.0</ele><time>2026-05-02T10:35:19.369Z</time></trkpt><trkpt lat="40.071835" lon="8.5479967"><ele>356.0</ele><time>2026-05-02T10:35:20.369Z</time></trkpt><trkpt lat="40.0717417" lon="8.54786"><ele>356.0</ele><time>2026-05-02T10:35:21.369Z</time></trkpt><trkpt lat="40.0716333" lon="8.5477283"><ele>356.0</ele><time>2026-05-02T10:35:22.369Z</time></trkpt><trkpt lat="40.0715283" lon="8.5476033"><ele>356.0</ele><time>2026-05-02T10:35:23.369Z</time></trkpt><trkpt lat="40.07142" lon="8.5474717"><ele>356.0</ele><time>2026-05-02T10:35:24.37Z</time></trkpt><trkpt lat="40.0713283" lon="8.54734"><ele>356.0</ele><time>2026-05-02T10:35:25.369Z</time></trkpt><trkpt lat="40.0712567" lon="8.5471883"><ele>356.0</ele><time>2026-05-02T10:35:26.369Z</time></trkpt><trkpt lat="40.0712017" lon="8.5470233"><ele>356.0</ele><time>2026-05-02T10:35:27.369Z</time></trkpt><trkpt lat="40.071145" lon="8.546855"><ele>354.5</ele><time>2026-05-02T10:35:28.369Z</time></trkpt><trkpt lat="40.071095" lon="8.5466817"><ele>353.0</ele><time>2026-05-02T10:35:29.369Z</time></trkpt><trkpt lat="40.071095" lon="8.5465317"><ele>351.5</ele><time>2026-05-02T10:35:30.369Z</time></trkpt><trkpt lat="40.07112" lon="8.5463517"><ele>350.0</ele><time>2026-05-02T10:35:31.369Z</time></trkpt><trkpt lat="40.07117" lon="8.546175"><ele>348.0</ele><time>2026-05-02T10:35:32.369Z</time></trkpt><trkpt lat="40.0712233" lon="8.546"><ele>346.0</ele><time>2026-05-02T10:35:33.369Z</time></trkpt><trkpt lat="40.0712667" lon="8.54583"><ele>344.0</ele><time>2026-05-02T10:35:34.369Z</time></trkpt><trkpt lat="40.0713167" lon="8.5456567"><ele>342.0</ele><time>2026-05-02T10:35:35.369Z</time></trkpt><trkpt lat="40.071355" lon="8.54549"><ele>339.75</ele><time>2026-05-02T10:35:36.369Z</time></trkpt><trkpt lat="40.0713933" lon="8.5453067"><ele>337.5</ele><time>2026-05-02T10:35:37.369Z</time></trkpt><trkpt lat="40.07142" lon="8.54513"><ele>335.25</ele><time>2026-05-02T10:35:38.369Z</time></trkpt><trkpt lat="40.0714283" lon="8.5449433"><ele>333.0</ele><time>2026-05-02T10:35:39.369Z</time></trkpt><trkpt lat="40.07144" lon="8.54475"><ele>333.0</ele><time>2026-05-02T10:35:40.369Z</time></trkpt><trkpt lat="40.071455" lon="8.5445633"><ele>333.0</ele><time>2026-05-02T10:35:41.369Z</time></trkpt><trkpt lat="40.0714767" lon="8.5444083"><ele>333.0</ele><time>2026-05-02T10:35:42.369Z</time></trkpt><trkpt lat="40.0715183" lon="8.54425"><ele>333.0</ele><time>2026-05-02T10:35:43.369Z</time></trkpt><trkpt lat="40.07158" lon="8.544105"><ele>330.0</ele><time>2026-05-02T10:35:44.369Z</time></trkpt><trkpt lat="40.0716683" lon="8.54396"><ele>327.0</ele><time>2026-05-02T10:35:45.369Z</time></trkpt><trkpt lat="40.0717867" lon="8.5438017"><ele>324.0</ele><time>2026-05-02T10:35:46.369Z</time></trkpt><trkpt lat="40.071935" lon="8.5436567"><ele>320.0</ele><time>2026-05-02T10:35:47.369Z</time></trkpt><trkpt lat="40.0720783" lon="8.54351"><ele>316.0</ele><time>2026-05-02T10:35:48.369Z</time></trkpt><trkpt lat="40.0722167" lon="8.5433567"><ele>312.0</ele><time>2026-05-02T10:35:49.369Z</time></trkpt><trkpt lat="40.0723617" lon="8.5432067"><ele>311.3333333333333</ele><time>2026-05-02T10:35:50.369Z</time></trkpt><trkpt lat="40.072505" lon="8.5430583"><ele>310.66666666666663</ele><time>2026-05-02T10:35:51.369Z</time></trkpt><trkpt lat="40.0726433" lon="8.54292"><ele>310.0</ele><time>2026-05-02T10:35:52.369Z</time></trkpt><trkpt lat="40.0727867" lon="8.5427767"><ele>307.0</ele><time>2026-05-02T10:35:53.369Z</time></trkpt><trkpt lat="40.0729183" lon="8.5426417"><ele>304.0</ele><time>2026-05-02T10:35:54.369Z</time></trkpt><trkpt lat="40.07305" lon="8.5425283"><ele>301.0</ele><time>2026-05-02T10:35:55.369Z</time></trkpt><trkpt lat="40.0731883" lon="8.54245"><ele>299.66666666666663</ele><time>2026-05-02T10:35:56.369Z</time></trkpt><trkpt lat="40.0733433" lon="8.5423683"><ele>298.3333333333333</ele><time>2026-05-02T10:35:57.369Z</time></trkpt><trkpt lat="40.0735017" lon="8.5423467"><ele>297.0</ele><time>2026-05-02T10:35:58.369Z</time></trkpt><trkpt lat="40.0736667" lon="8.5423333"><ele>297.0</ele><time>2026-05-02T10:35:59.369Z</time></trkpt><trkpt lat="40.0738317" lon="8.5423517"><ele>297.0</ele><time>2026-05-02T10:36:00.369Z</time></trkpt><trkpt lat="40.0739917" lon="8.5423483"><ele>297.0</ele><time>2026-05-02T10:36:01.369Z</time></trkpt><trkpt lat="40.07413" lon="8.5423267"><ele>296.0</ele><time>2026-05-02T10:36:02.369Z</time></trkpt><trkpt lat="40.0742567" lon="8.5422683"><ele>295.0</ele><time>2026-05-02T10:36:03.369Z</time></trkpt><trkpt lat="40.07435" lon="8.54216"><ele>294.0</ele><time>2026-05-02T10:36:04.369Z</time></trkpt><trkpt lat="40.0744317" lon="8.54202"><ele>293.0</ele><time>2026-05-02T10:36:05.369Z</time></trkpt><trkpt lat="40.074495" lon="8.541875"><ele>290.25</ele><time>2026-05-02T10:36:06.369Z</time></trkpt><trkpt lat="40.0745367" lon="8.5417083"><ele>287.5</ele><time>2026-05-02T10:36:07.369Z</time></trkpt><trkpt lat="40.0745367" lon="8.5415333"><ele>284.75</ele><time>2026-05-02T10:36:08.369Z</time></trkpt><trkpt lat="40.0745283" lon="8.5413417"><ele>282.0</ele><time>2026-05-02T10:36:09.369Z</time></trkpt><trkpt lat="40.0745233" lon="8.5411233"><ele>279.3333333333333</ele><time>2026-05-02T10:36:10.369Z</time></trkpt><trkpt lat="40.07451" lon="8.5409017"><ele>276.66666666666663</ele><time>2026-05-02T10:36:11.369Z</time></trkpt><trkpt lat="40.074505" lon="8.540695"><ele>274.0</ele><time>2026-05-02T10:36:12.369Z</time></trkpt><trkpt lat="40.07449" lon="8.540495"><ele>271.25</ele><time>2026-05-02T10:36:13.37Z</time></trkpt><trkpt lat="40.07448" lon="8.5402983"><ele>268.5</ele><time>2026-05-02T10:36:14.369Z</time></trkpt><trkpt lat="40.0744617" lon="8.540125"><ele>265.75</ele><time>2026-05-02T10:36:15.369Z</time></trkpt><trkpt lat="40.0744283" lon="8.5399767"><ele>263.0</ele><time>2026-05-02T10:36:16.369Z</time></trkpt><trkpt lat="40.0743817" lon="8.5398383"><ele>263.0</ele><time>2026-05-02T10:36:17.369Z</time></trkpt><trkpt lat="40.07433" lon="8.5397117"><ele>263.0</ele><time>2026-05-02T10:36:18.369Z</time></trkpt><trkpt lat="40.0742433" lon="8.5396067"><ele>263.0</ele><time>2026-05-02T10:36:19.369Z</time></trkpt><trkpt lat="40.074135" lon="8.5395317"><ele>263.0</ele><time>2026-05-02T10:36:20.369Z</time></trkpt><trkpt lat="40.0740167" lon="8.5394967"><ele>259.0</ele><time>2026-05-02T10:36:21.369Z</time></trkpt><trkpt lat="40.07387" lon="8.5394783"><ele>255.0</ele><time>2026-05-02T10:36:22.369Z</time></trkpt><trkpt lat="40.0737117" lon="8.5394967"><ele>251.0</ele><time>2026-05-02T10:36:23.369Z</time></trkpt><trkpt lat="40.0735433" lon="8.539515"><ele>251.0</ele><time>2026-05-02T10:36:24.369Z</time></trkpt><trkpt lat="40.0733817" lon="8.5395233"><ele>251.0</ele><time>2026-05-02T10:36:25.369Z</time></trkpt><trkpt lat="40.0732133" lon="8.5395417"><ele>251.0</ele><time>2026-05-02T10:36:26.369Z</time></trkpt><trkpt lat="40.0730483" lon="8.53957"><ele>254.66666666666669</ele><time>2026-05-02T10:36:27.369Z</time></trkpt><trkpt lat="40.0728867" lon="8.5396133"><ele>258.3333333333333</ele><time>2026-05-02T10:36:28.369Z</time></trkpt><trkpt lat="40.0727117" lon="8.5396633"><ele>262.0</ele><time>2026-05-02T10:36:29.369Z</time></trkpt><trkpt lat="40.072535" lon="8.5397"><ele>260.66666666666663</ele><time>2026-05-02T10:36:30.369Z</time></trkpt><trkpt lat="40.0723667" lon="8.5397283"><ele>259.3333333333333</ele><time>2026-05-02T10:36:31.369Z</time></trkpt><trkpt lat="40.07219" lon="8.5397217"><ele>258.0</ele><time>2026-05-02T10:36:32.369Z</time></trkpt><trkpt lat="40.0720317" lon="8.539695"><ele>258.0</ele><time>2026-05-02T10:36:33.369Z</time></trkpt><trkpt lat="40.0718733" lon="8.539635"><ele>258.0</ele><time>2026-05-02T10:36:34.369Z</time></trkpt><trkpt lat="40.07172" lon="8.5395617"><ele>258.0</ele><time>2026-05-02T10:36:35.369Z</time></trkpt><trkpt lat="40.0715683" lon="8.5394683"><ele>252.33333333333331</ele><time>2026-05-02T10:36:36.369Z</time></trkpt><trkpt lat="40.0714233" lon="8.5393717"><ele>246.66666666666666</ele><time>2026-05-02T10:36:37.369Z</time></trkpt><trkpt lat="40.07127" lon="8.539275"><ele>241.0</ele><time>2026-05-02T10:36:38.369Z</time></trkpt><trkpt lat="40.071115" lon="8.5391733"><ele>241.0</ele><time>2026-05-02T10:36:39.369Z</time></trkpt><trkpt lat="40.0709667" lon="8.5390583"><ele>241.0</ele><time>2026-05-02T10:36:40.369Z</time></trkpt><trkpt lat="40.07083" lon="8.5389317"><ele>241.0</ele><time>2026-05-02T10:36:41.369Z</time></trkpt><trkpt lat="40.0707117" lon="8.538805"><ele>235.33333333333331</ele><time>2026-05-02T10:36:42.369Z</time></trkpt><trkpt lat="40.0705983" lon="8.5386683"><ele>229.66666666666669</ele><time>2026-05-02T10:36:43.369Z</time></trkpt><trkpt lat="40.0704917" lon="8.5385183"><ele>224.0</ele><time>2026-05-02T10:36:44.369Z</time></trkpt><trkpt lat="40.0704033" lon="8.53836"><ele>224.0</ele><time>2026-05-02T10:36:45.369Z</time></trkpt><trkpt lat="40.0703267" lon="8.5381983"><ele>224.0</ele><time>2026-05-02T10:36:46.369Z</time></trkpt><trkpt lat="40.070255" lon="8.538025"><ele>224.0</ele><time>2026-05-02T10:36:47.369Z</time></trkpt><trkpt lat="40.0701817" lon="8.53784"><ele>223.0</ele><time>2026-05-02T10:36:48.369Z</time></trkpt><trkpt lat="40.0701117" lon="8.5376567"><ele>222.0</ele><time>2026-05-02T10:36:49.369Z</time></trkpt><trkpt lat="40.0700483" lon="8.53748"><ele>221.0</ele><time>2026-05-02T10:36:50.369Z</time></trkpt><trkpt lat="40.0699817" lon="8.5373233"><ele>220.0</ele><time>2026-05-02T10:36:51.369Z</time></trkpt><trkpt lat="40.069915" lon="8.5371833"><ele>217.4</ele><time>2026-05-02T10:36:52.369Z</time></trkpt><trkpt lat="40.0698433" lon="8.5370917"><ele>214.8</ele><time>2026-05-02T10:36:53.369Z</time></trkpt><trkpt lat="40.0697633" lon="8.53705"><ele>212.2</ele><time>2026-05-02T10:36:54.369Z</time></trkpt><trkpt lat="40.0696783" lon="8.53706"><ele>209.6</ele><time>2026-05-02T10:36:55.369Z</time></trkpt><trkpt lat="40.0696" lon="8.537115"><ele>207.0</ele><time>2026-05-02T10:36:56.369Z</time></trkpt><trkpt lat="40.0695467" lon="8.5372233"><ele>207.0</ele><time>2026-05-02T10:36:57.369Z</time></trkpt><trkpt lat="40.0695183" lon="8.5373517"><ele>207.0</ele><time>2026-05-02T10:36:58.369Z</time></trkpt><trkpt lat="40.0695117" lon="8.5374917"><ele>207.0</ele><time>2026-05-02T10:36:59.369Z</time></trkpt><trkpt lat="40.06954" lon="8.53765"><ele>207.0</ele><time>2026-05-02T10:37:00.369Z</time></trkpt><trkpt lat="40.0695683" lon="8.5378183"><ele>207.75</ele><time>2026-05-02T10:37:01.369Z</time></trkpt><trkpt lat="40.0696017" lon="8.5379983"><ele>208.5</ele><time>2026-05-02T10:37:02.369Z</time></trkpt><trkpt lat="40.0696333" lon="8.538205"><ele>209.25</ele><time>2026-05-02T10:37:03.369Z</time></trkpt><trkpt lat="40.0696533" lon="8.53839"><ele>210.0</ele><time>2026-05-02T10:37:04.369Z</time></trkpt><trkpt lat="40.06968" lon="8.5385583"><ele>210.0</ele><time>2026-05-02T10:37:05.369Z</time></trkpt><trkpt lat="40.06971" lon="8.5387083"><ele>210.0</ele><time>2026-05-02T10:37:06.369Z</time></trkpt><trkpt lat="40.069715" lon="8.5388567"><ele>210.0</ele><time>2026-05-02T10:37:07.369Z</time></trkpt><trkpt lat="40.0696983" lon="8.5389717"><ele>210.0</ele><time>2026-05-02T10:37:08.369Z</time></trkpt><trkpt lat="40.0696433" lon="8.5390667"><ele>210.0</ele><time>2026-05-02T10:37:09.369Z</time></trkpt><trkpt lat="40.0695733" lon="8.5391233"><ele>211.6</ele><time>2026-05-02T10:37:10.369Z</time></trkpt><trkpt lat="40.06949" lon="8.5391283"><ele>213.2</ele><time>2026-05-02T10:37:11.369Z</time></trkpt><trkpt lat="40.0694" lon="8.5390883"><ele>214.8</ele><time>2026-05-02T10:37:12.369Z</time></trkpt><trkpt lat="40.0693083" lon="8.5390183"><ele>216.4</ele><time>2026-05-02T10:37:13.369Z</time></trkpt><trkpt lat="40.0692217" lon="8.53888"><ele>218.0</ele><time>2026-05-02T10:37:14.369Z</time></trkpt><trkpt lat="40.0691383" lon="8.53872"><ele>217.66666666666669</ele><time>2026-05-02T10:37:15.369Z</time></trkpt><trkpt lat="40.0690517" lon="8.538545"><ele>217.33333333333331</ele><time>2026-05-02T10:37:16.369Z</time></trkpt><trkpt lat="40.06895" lon="8.5383567"><ele>217.0</ele><time>2026-05-02T10:37:17.369Z</time></trkpt><trkpt lat="40.0688467" lon="8.53816"><ele>217.0</ele><time>2026-05-02T10:37:18.369Z</time></trkpt><trkpt lat="40.0687433" lon="8.5379567"><ele>217.0</ele><time>2026-05-02T10:37:19.369Z</time></trkpt><trkpt lat="40.0686533" lon="8.5377683"><ele>217.0</ele><time>2026-05-02T10:37:20.369Z</time></trkpt><trkpt lat="40.0685483" lon="8.5375683"><ele>213.33333333333331</ele><time>2026-05-02T10:37:21.369Z</time></trkpt><trkpt lat="40.0684583" lon="8.537375"><ele>209.66666666666669</ele><time>2026-05-02T10:37:22.369Z</time></trkpt><trkpt lat="40.0683817" lon="8.5371967"><ele>206.0</ele><time>2026-05-02T10:37:23.369Z</time></trkpt><trkpt lat="40.0683117" lon="8.5370017"><ele>206.33333333333334</ele><time>2026-05-02T10:37:24.369Z</time></trkpt><trkpt lat="40.0682417" lon="8.5367867"><ele>206.66666666666669</ele><time>2026-05-02T10:37:25.369Z</time></trkpt><trkpt lat="40.06817" lon="8.5365867"><ele>207.0</ele><time>2026-05-02T10:37:26.369Z</time></trkpt><trkpt lat="40.0680967" lon="8.536375"><ele>206.33333333333331</ele><time>2026-05-02T10:37:27.369Z</time></trkpt><trkpt lat="40.0680233" lon="8.5361617"><ele>205.66666666666666</ele><time>2026-05-02T10:37:28.369Z</time></trkpt><trkpt lat="40.0679583" lon="8.5359667"><ele>205.0</ele><time>2026-05-02T10:37:29.369Z</time></trkpt><trkpt lat="40.06789" lon="8.5357767"><ele>205.0</ele><time>2026-05-02T10:37:30.369Z</time></trkpt><trkpt lat="40.067815" lon="8.53559"><ele>205.0</ele><time>2026-05-02T10:37:31.369Z</time></trkpt><trkpt lat="40.0677417" lon="8.5354167"><ele>205.0</ele><time>2026-05-02T10:37:32.369Z</time></trkpt><trkpt lat="40.0676633" lon="8.5352467"><ele>204.75</ele><time>2026-05-02T10:37:33.369Z</time></trkpt><trkpt lat="40.0675617" lon="8.5351167"><ele>204.5</ele><time>2026-05-02T10:37:34.369Z</time></trkpt><trkpt lat="40.0674483" lon="8.5350167"><ele>204.25</ele><time>2026-05-02T10:37:35.369Z</time></trkpt><trkpt lat="40.067315" lon="8.5349417"><ele>204.0</ele><time>2026-05-02T10:37:36.369Z</time></trkpt><trkpt lat="40.0671817" lon="8.5349033"><ele>203.75</ele><time>2026-05-02T10:37:37.369Z</time></trkpt><trkpt lat="40.0670467" lon="8.5348767"><ele>203.5</ele><time>2026-05-02T10:37:38.369Z</time></trkpt><trkpt lat="40.066905" lon="8.5348633"><ele>203.25</ele><time>2026-05-02T10:37:39.369Z</time></trkpt><trkpt lat="40.066755" lon="8.5348467"><ele>203.0</ele><time>2026-05-02T10:37:40.369Z</time></trkpt><trkpt lat="40.06661" lon="8.5348433"><ele>200.0</ele><time>2026-05-02T10:37:41.369Z</time></trkpt><trkpt lat="40.0664733" lon="8.53484"><ele>197.0</ele><time>2026-05-02T10:37:42.369Z</time></trkpt><trkpt lat="40.06635" lon="8.5348217"><ele>194.0</ele><time>2026-05-02T10:37:43.369Z</time></trkpt><trkpt lat="40.0662217" lon="8.5347817"><ele>191.0</ele><time>2026-05-02T10:37:44.369Z</time></trkpt><trkpt lat="40.066095" lon="8.5347383"><ele>191.0</ele><time>2026-05-02T10:37:45.369Z</time></trkpt><trkpt lat="40.0659867" lon="8.53469"><ele>191.0</ele><time>2026-05-02T10:37:46.369Z</time></trkpt><trkpt lat="40.0658783" lon="8.5346117"><ele>191.0</ele><time>2026-05-02T10:37:47.369Z</time></trkpt><trkpt lat="40.0657767" lon="8.5345133"><ele>191.0</ele><time>2026-05-02T10:37:48.369Z</time></trkpt><trkpt lat="40.0656833" lon="8.5344133"><ele>187.75</ele><time>2026-05-02T10:37:49.369Z</time></trkpt><trkpt lat="40.065595" lon="8.5343017"><ele>184.5</ele><time>2026-05-02T10:37:50.369Z</time></trkpt><trkpt lat="40.0654967" lon="8.53418"><ele>181.25</ele><time>2026-05-02T10:37:51.369Z</time></trkpt><trkpt lat="40.0654033" lon="8.5340533"><ele>178.0</ele><time>2026-05-02T10:37:52.369Z</time></trkpt><trkpt lat="40.06531" lon="8.5339317"><ele>178.0</ele><time>2026-05-02T10:37:53.369Z</time></trkpt><trkpt lat="40.0652133" lon="8.5338117"><ele>178.0</ele><time>2026-05-02T10:37:54.369Z</time></trkpt><trkpt lat="40.0651183" lon="8.533685"><ele>178.0</ele><time>2026-05-02T10:37:55.369Z</time></trkpt><trkpt lat="40.0650217" lon="8.5335567"><ele>178.0</ele><time>2026-05-02T10:37:56.369Z</time></trkpt><trkpt lat="40.0649133" lon="8.53343"><ele>174.0</ele><time>2026-05-02T10:37:57.369Z</time></trkpt><trkpt lat="40.0648" lon="8.533275"><ele>170.0</ele><time>2026-05-02T10:37:58.369Z</time></trkpt><trkpt lat="40.0646917" lon="8.53313"><ele>166.0</ele><time>2026-05-02T10:37:59.369Z</time></trkpt><trkpt lat="40.0645883" lon="8.5329633"><ele>166.66666666666669</ele><time>2026-05-02T10:38:00.369Z</time></trkpt><trkpt lat="40.064475" lon="8.5327817"><ele>167.33333333333334</ele><time>2026-05-02T10:38:01.369Z</time></trkpt><trkpt lat="40.0643583" lon="8.5325767"><ele>168.0</ele><time>2026-05-02T10:38:02.369Z</time></trkpt><trkpt lat="40.0642433" lon="8.5323683"><ele>168.0</ele><time>2026-05-02T10:38:03.369Z</time></trkpt><trkpt lat="40.064125" lon="8.5321417"><ele>168.0</ele><time>2026-05-02T10:38:04.369Z</time></trkpt><trkpt lat="40.0640017" lon="8.5319033"><ele>168.0</ele><time>2026-05-02T10:38:05.369Z</time></trkpt><trkpt lat="40.0638781" lon="8.5316781"><ele>163.33333333333334</ele><time>2026-05-02T10:38:06.369Z</time></trkpt><trkpt lat="40.0637567" lon="8.53146"><ele>158.66666666666669</ele><time>2026-05-02T10:38:07.369Z</time></trkpt><trkpt lat="40.0636369" lon="8.5312305"><ele>154.0</ele><time>2026-05-02T10:38:08.369Z</time></trkpt><trkpt lat="40.0635349" lon="8.53101"><ele>153.66666666666669</ele><time>2026-05-02T10:38:09.369Z</time></trkpt><trkpt lat="40.0634341" lon="8.5307883"><ele>153.33333333333334</ele><time>2026-05-02T10:38:10.369Z</time></trkpt><trkpt lat="40.0633361" lon="8.5305663"><ele>153.0</ele><time>2026-05-02T10:38:11.369Z</time></trkpt><trkpt lat="40.0632359" lon="8.530339"><ele>149.0</ele><time>2026-05-02T10:38:12.369Z</time></trkpt><trkpt lat="40.0631326" lon="8.5301104"><ele>145.0</ele><time>2026-05-02T10:38:13.369Z</time></trkpt><trkpt lat="40.0630307" lon="8.5298753"><ele>141.0</ele><time>2026-05-02T10:38:14.369Z</time></trkpt><trkpt lat="40.0629276" lon="8.5296483"><ele>141.0</ele><time>2026-05-02T10:38:15.369Z</time></trkpt><trkpt lat="40.0628248" lon="8.5294232"><ele>141.0</ele><time>2026-05-02T10:38:16.369Z</time></trkpt><trkpt lat="40.0627253" lon="8.5291954"><ele>141.0</ele><time>2026-05-02T10:38:17.369Z</time></trkpt><trkpt lat="40.0626187" lon="8.5289626"><ele>141.0</ele><time>2026-05-02T10:38:18.369Z</time></trkpt><trkpt lat="40.0625196" lon="8.5287346"><ele>141.0</ele><time>2026-05-02T10:38:19.369Z</time></trkpt><trkpt lat="40.0624211" lon="8.5285096"><ele>141.0</ele><time>2026-05-02T10:38:20.369Z</time></trkpt><trkpt lat="40.0623218" lon="8.5282885"><ele>138.0</ele><time>2026-05-02T10:38:21.369Z</time></trkpt><trkpt lat="40.0622196" lon="8.5280669"><ele>135.0</ele><time>2026-05-02T10:38:22.369Z</time></trkpt><trkpt lat="40.0621213" lon="8.5278445"><ele>132.0</ele><time>2026-05-02T10:38:23.369Z</time></trkpt><trkpt lat="40.0620186" lon="8.5276177"><ele>132.0</ele><time>2026-05-02T10:38:24.369Z</time></trkpt><trkpt lat="40.0619141" lon="8.5274069"><ele>132.0</ele><time>2026-05-02T10:38:25.369Z</time></trkpt><trkpt lat="40.0617915" lon="8.5272079"><ele>132.0</ele><time>2026-05-02T10:38:26.369Z</time></trkpt><trkpt lat="40.0616631" lon="8.527014"><ele>129.0</ele><time>2026-05-02T10:38:27.369Z</time></trkpt><trkpt lat="40.0615284" lon="8.5268156"><ele>126.0</ele><time>2026-05-02T10:38:28.369Z</time></trkpt><trkpt lat="40.0613966" lon="8.5266091"><ele>123.0</ele><time>2026-05-02T10:38:29.369Z</time></trkpt><trkpt lat="40.0612629" lon="8.5264074"><ele>124.0</ele><time>2026-05-02T10:38:30.369Z</time></trkpt><trkpt lat="40.06113" lon="8.5262058"><ele>125.0</ele><time>2026-05-02T10:38:31.369Z</time></trkpt><trkpt lat="40.0610011" lon="8.5259885"><ele>126.0</ele><time>2026-05-02T10:38:32.369Z</time></trkpt><trkpt lat="40.0608801" lon="8.5257714"><ele>124.33333333333334</ele><time>2026-05-02T10:38:33.369Z</time></trkpt><trkpt lat="40.0607765" lon="8.5255517"><ele>122.66666666666667</ele><time>2026-05-02T10:38:34.369Z</time></trkpt><trkpt lat="40.0606795" lon="8.5253204"><ele>121.0</ele><time>2026-05-02T10:38:35.369Z</time></trkpt><trkpt lat="40.0605821" lon="8.5250744"><ele>121.0</ele><time>2026-05-02T10:38:36.369Z</time></trkpt><trkpt lat="40.060484" lon="8.5248352"><ele>121.0</ele><time>2026-05-02T10:38:37.369Z</time></trkpt><trkpt lat="40.060387" lon="8.5246036"><ele>121.0</ele><time>2026-05-02T10:38:38.369Z</time></trkpt><trkpt lat="40.060285" lon="8.5243917"><ele>120.66666666666667</ele><time>2026-05-02T10:38:39.369Z</time></trkpt><trkpt lat="40.0601817" lon="8.52417"><ele>120.33333333333334</ele><time>2026-05-02T10:38:40.369Z</time></trkpt><trkpt lat="40.0600783" lon="8.5239617"><ele>120.0</ele><time>2026-05-02T10:38:41.369Z</time></trkpt><trkpt lat="40.0599617" lon="8.523755"><ele>118.33333333333334</ele><time>2026-05-02T10:38:42.369Z</time></trkpt><trkpt lat="40.0598667" lon="8.5235683"><ele>116.66666666666667</ele><time>2026-05-02T10:38:43.369Z</time></trkpt><trkpt lat="40.0597717" lon="8.5233767"><ele>115.0</ele><time>2026-05-02T10:38:44.369Z</time></trkpt><trkpt lat="40.05967" lon="8.5231767"><ele>115.0</ele><time>2026-05-02T10:38:45.369Z</time></trkpt><trkpt lat="40.0595717" lon="8.522985"><ele>115.0</ele><time>2026-05-02T10:38:46.369Z</time></trkpt><trkpt lat="40.0594667" lon="8.5227917"><ele>115.0</ele><time>2026-05-02T10:38:47.369Z</time></trkpt><trkpt lat="40.0593517" lon="8.5226017"><ele>115.33333333333334</ele><time>2026-05-02T10:38:48.369Z</time></trkpt><trkpt lat="40.0592417" lon="8.5224233"><ele>115.66666666666666</ele><time>2026-05-02T10:38:49.369Z</time></trkpt><trkpt lat="40.0591383" lon="8.5222383"><ele>116.0</ele><time>2026-05-02T10:38:50.369Z</time></trkpt><trkpt lat="40.059035" lon="8.5220633"><ele>114.0</ele><time>2026-05-02T10:38:51.369Z</time></trkpt><trkpt lat="40.0589383" lon="8.52189"><ele>112.0</ele><time>2026-05-02T10:38:52.369Z</time></trkpt><trkpt lat="40.0588333" lon="8.5217183"><ele>110.0</ele><time>2026-05-02T10:38:53.369Z</time></trkpt><trkpt lat="40.058745" lon="8.5215567"><ele>110.0</ele><time>2026-05-02T10:38:54.369Z</time></trkpt><trkpt lat="40.058655" lon="8.5213967"><ele>110.0</ele><time>2026-05-02T10:38:55.369Z</time></trkpt><trkpt lat="40.05854" lon="8.52122"><ele>110.0</ele><time>2026-05-02T10:38:56.369Z</time></trkpt><trkpt lat="40.05844" lon="8.52104"><ele>110.0</ele><time>2026-05-02T10:38:57.369Z</time></trkpt><trkpt lat="40.0583367" lon="8.52086"><ele>110.0</ele><time>2026-05-02T10:38:58.369Z</time></trkpt><trkpt lat="40.058235" lon="8.520685"><ele>110.0</ele><time>2026-05-02T10:38:59.369Z</time></trkpt><trkpt lat="40.0581517" lon="8.5205267"><ele>108.75</ele><time>2026-05-02T10:39:00.369Z</time></trkpt><trkpt lat="40.0580767" lon="8.5203883"><ele>107.5</ele><time>2026-05-02T10:39:01.369Z</time></trkpt><trkpt lat="40.0580117" lon="8.5202583"><ele>106.25</ele><time>2026-05-02T10:39:02.37Z</time></trkpt><trkpt lat="40.05795" lon="8.5201417"><ele>105.0</ele><time>2026-05-02T10:39:03.369Z</time></trkpt><trkpt lat="40.0578917" lon="8.52004"><ele>105.0</ele><time>2026-05-02T10:39:04.369Z</time></trkpt><trkpt lat="40.0578317" lon="8.5199967"><ele>105.0</ele><time>2026-05-02T10:39:05.369Z</time></trkpt><trkpt lat="40.05775" lon="8.520025"><ele>105.0</ele><time>2026-05-02T10:39:06.369Z</time></trkpt><trkpt lat="40.05766" lon="8.5200817"><ele>105.0</ele><time>2026-05-02T10:39:07.369Z</time></trkpt><trkpt lat="40.057555" lon="8.5201717"><ele>105.0</ele><time>2026-05-02T10:39:08.369Z</time></trkpt><trkpt lat="40.05744" lon="8.52028"><ele>103.25</ele><time>2026-05-02T10:39:09.369Z</time></trkpt><trkpt lat="40.057315" lon="8.5203833"><ele>101.5</ele><time>2026-05-02T10:39:10.369Z</time></trkpt><trkpt lat="40.0571817" lon="8.5204567"><ele>99.75</ele><time>2026-05-02T10:39:11.369Z</time></trkpt><trkpt lat="40.05705" lon="8.5205283"><ele>98.0</ele><time>2026-05-02T10:39:12.369Z</time></trkpt><trkpt lat="40.0569183" lon="8.5205983"><ele>98.0</ele><time>2026-05-02T10:39:13.369Z</time></trkpt><trkpt lat="40.0567817" lon="8.5206667"><ele>98.0</ele><time>2026-05-02T10:39:14.369Z</time></trkpt><trkpt lat="40.0566467" lon="8.5207317"><ele>98.0</ele><time>2026-05-02T10:39:15.369Z</time></trkpt><trkpt lat="40.0565033" lon="8.5207833"><ele>98.0</ele><time>2026-05-02T10:39:16.369Z</time></trkpt><trkpt lat="40.0563733" lon="8.5208583"><ele>96.0</ele><time>2026-05-02T10:39:17.369Z</time></trkpt><trkpt lat="40.056245" lon="8.5209533"><ele>94.0</ele><time>2026-05-02T10:39:18.369Z</time></trkpt><trkpt lat="40.0561117" lon="8.5210833"><ele>92.0</ele><time>2026-05-02T10:39:19.369Z</time></trkpt><trkpt lat="40.055975" lon="8.5212083"><ele>92.0</ele><time>2026-05-02T10:39:20.369Z</time></trkpt><trkpt lat="40.0558333" lon="8.521325"><ele>92.0</ele><time>2026-05-02T10:39:21.369Z</time></trkpt><trkpt lat="40.0556717" lon="8.5214333"><ele>92.0</ele><time>2026-05-02T10:39:22.369Z</time></trkpt><trkpt lat="40.05552" lon="8.5215233"><ele>91.33333333333334</ele><time>2026-05-02T10:39:23.369Z</time></trkpt><trkpt lat="40.0553517" lon="8.5215917"><ele>90.66666666666667</ele><time>2026-05-02T10:39:24.369Z</time></trkpt><trkpt lat="40.0551867" lon="8.521655"><ele>90.0</ele><time>2026-05-02T10:39:25.369Z</time></trkpt><trkpt lat="40.0550183" lon="8.5217167"><ele>90.25</ele><time>2026-05-02T10:39:26.369Z</time></trkpt><trkpt lat="40.0548633" lon="8.521775"><ele>90.5</ele><time>2026-05-02T10:39:27.369Z</time></trkpt><trkpt lat="40.05472" lon="8.521825"><ele>90.75</ele><time>2026-05-02T10:39:28.369Z</time></trkpt><trkpt lat="40.0545833" lon="8.5218533"><ele>91.0</ele><time>2026-05-02T10:39:29.369Z</time></trkpt><trkpt lat="40.0544333" lon="8.52188"><ele>91.0</ele><time>2026-05-02T10:39:30.369Z</time></trkpt><trkpt lat="40.0543033" lon="8.52189"><ele>91.0</ele><time>2026-05-02T10:39:31.369Z</time></trkpt><trkpt lat="40.0541783" lon="8.521915"><ele>91.0</ele><time>2026-05-02T10:39:32.369Z</time></trkpt><trkpt lat="40.0540317" lon="8.521945"><ele>91.0</ele><time>2026-05-02T10:39:33.369Z</time></trkpt><trkpt lat="40.0539033" lon="8.52201"><ele>91.0</ele><time>2026-05-02T10:39:34.369Z</time></trkpt><trkpt lat="40.0537783" lon="8.5220817"><ele>91.0</ele><time>2026-05-02T10:39:35.369Z</time></trkpt><trkpt lat="40.053665" lon="8.5221683"><ele>91.0</ele><time>2026-05-02T10:39:36.369Z</time></trkpt><trkpt lat="40.0535733" lon="8.5222567"><ele>91.0</ele><time>2026-05-02T10:39:37.369Z</time></trkpt><trkpt lat="40.053485" lon="8.5223667"><ele>91.0</ele><time>2026-05-02T10:39:38.369Z</time></trkpt><trkpt lat="40.05341" lon="8.5224717"><ele>91.0</ele><time>2026-05-02T10:39:39.369Z</time></trkpt><trkpt lat="40.0533433" lon="8.52258"><ele>91.0</ele><time>2026-05-02T10:39:40.369Z</time></trkpt><trkpt lat="40.0532683" lon="8.5226817"><ele>91.0</ele><time>2026-05-02T10:39:41.369Z</time></trkpt><trkpt lat="40.053185" lon="8.5227817"><ele>91.0</ele><time>2026-05-02T10:39:42.369Z</time></trkpt><trkpt lat="40.0531033" lon="8.5228733"><ele>91.83333333333333</ele><time>2026-05-02T10:39:43.369Z</time></trkpt><trkpt lat="40.0530333" lon="8.5229267"><ele>92.66666666666666</ele><time>2026-05-02T10:39:44.369Z</time></trkpt><trkpt lat="40.052955" lon="8.522975"><ele>93.5</ele><time>2026-05-02T10:39:45.369Z</time></trkpt><trkpt lat="40.0528717" lon="8.523005"><ele>94.33333333333333</ele><time>2026-05-02T10:39:46.369Z</time></trkpt><trkpt lat="40.05279" lon="8.5230283"><ele>95.16666666666667</ele><time>2026-05-02T10:39:47.369Z</time></trkpt><trkpt lat="40.0526883" lon="8.5230567"><ele>96.0</ele><time>2026-05-02T10:39:48.369Z</time></trkpt><trkpt lat="40.0525833" lon="8.52308"><ele>96.0</ele><time>2026-05-02T10:39:49.369Z</time></trkpt><trkpt lat="40.05246" lon="8.5231083"><ele>96.0</ele><time>2026-05-02T10:39:50.369Z</time></trkpt><trkpt lat="40.0523283" lon="8.523125"><ele>96.0</ele><time>2026-05-02T10:39:51.369Z</time></trkpt><trkpt lat="40.0521683" lon="8.5231483"><ele>96.0</ele><time>2026-05-02T10:39:52.369Z</time></trkpt><trkpt lat="40.052005" lon="8.5231667"><ele>95.0</ele><time>2026-05-02T10:39:53.369Z</time></trkpt><trkpt lat="40.05183" lon="8.5231817"><ele>94.0</ele><time>2026-05-02T10:39:54.369Z</time></trkpt><trkpt lat="40.051645" lon="8.5232"><ele>93.0</ele><time>2026-05-02T10:39:55.369Z</time></trkpt><trkpt lat="40.0514567" lon="8.5232217"><ele>92.66666666666667</ele><time>2026-05-02T10:39:56.369Z</time></trkpt><trkpt lat="40.0512667" lon="8.5232433"><ele>92.33333333333334</ele><time>2026-05-02T10:39:57.369Z</time></trkpt><trkpt lat="40.05107" lon="8.5232617"><ele>92.0</ele><time>2026-05-02T10:39:58.369Z</time></trkpt><trkpt lat="40.0508883" lon="8.5232833"><ele>91.5</ele><time>2026-05-02T10:39:59.369Z</time></trkpt><trkpt lat="40.05074" lon="8.523315"><ele>91.0</ele><time>2026-05-02T10:40:00.369Z</time></trkpt><trkpt lat="40.05061" lon="8.523365"><ele>90.5</ele><time>2026-05-02T10:40:01.369Z</time></trkpt><trkpt lat="40.050495" lon="8.5234317"><ele>90.0</ele><time>2026-05-02T10:40:02.369Z</time></trkpt><trkpt lat="40.050395" lon="8.5235467"><ele>90.0</ele><time>2026-05-02T10:40:03.369Z</time></trkpt><trkpt lat="40.0503017" lon="8.5236883"><ele>90.0</ele><time>2026-05-02T10:40:04.369Z</time></trkpt><trkpt lat="40.0501967" lon="8.5238417"><ele>90.0</ele><time>2026-05-02T10:40:05.369Z</time></trkpt><trkpt lat="40.050085" lon="8.523995"><ele>89.66666666666667</ele><time>2026-05-02T10:40:06.369Z</time></trkpt><trkpt lat="40.0499617" lon="8.5241567"><ele>89.33333333333334</ele><time>2026-05-02T10:40:07.369Z</time></trkpt><trkpt lat="40.0498483" lon="8.5243183"><ele>89.0</ele><time>2026-05-02T10:40:08.369Z</time></trkpt><trkpt lat="40.0497217" lon="8.52449"><ele>87.33333333333334</ele><time>2026-05-02T10:40:09.369Z</time></trkpt><trkpt lat="40.0495883" lon="8.5246767"><ele>85.66666666666667</ele><time>2026-05-02T10:40:10.369Z</time></trkpt><trkpt lat="40.049445" lon="8.5248633"><ele>84.0</ele><time>2026-05-02T10:40:11.369Z</time></trkpt><trkpt lat="40.049295" lon="8.5250417"><ele>84.0</ele><time>2026-05-02T10:40:12.369Z</time></trkpt><trkpt lat="40.0491567" lon="8.5252233"><ele>84.0</ele><time>2026-05-02T10:40:13.369Z</time></trkpt><trkpt lat="40.0490317" lon="8.5254"><ele>84.0</ele><time>2026-05-02T10:40:14.369Z</time></trkpt><trkpt lat="40.0489117" lon="8.5255517"><ele>83.25</ele><time>2026-05-02T10:40:15.369Z</time></trkpt><trkpt lat="40.0488" lon="8.525685"><ele>82.5</ele><time>2026-05-02T10:40:16.369Z</time></trkpt><trkpt lat="40.0487" lon="8.5258067"><ele>81.75</ele><time>2026-05-02T10:40:17.369Z</time></trkpt><trkpt lat="40.04861" lon="8.5259283"><ele>81.0</ele><time>2026-05-02T10:40:18.369Z</time></trkpt><trkpt lat="40.0485317" lon="8.5260367"><ele>81.0</ele><time>2026-05-02T10:40:19.369Z</time></trkpt><trkpt lat="40.048445" lon="8.5261383"><ele>81.0</ele><time>2026-05-02T10:40:20.369Z</time></trkpt><trkpt lat="40.0483617" lon="8.526235"><ele>81.0</ele><time>2026-05-02T10:40:21.369Z</time></trkpt><trkpt lat="40.0482883" lon="8.5263367"><ele>81.0</ele><time>2026-05-02T10:40:22.369Z</time></trkpt><trkpt lat="40.048225" lon="8.5264283"><ele>81.0</ele><time>2026-05-02T10:40:23.369Z</time></trkpt><trkpt lat="40.0481617" lon="8.526515"><ele>81.8</ele><time>2026-05-02T10:40:24.369Z</time></trkpt><trkpt lat="40.0481183" lon="8.526595"><ele>82.6</ele><time>2026-05-02T10:40:25.369Z</time></trkpt><trkpt lat="40.0479983" lon="8.5266633"><ele>83.4</ele><time>2026-05-02T10:40:27.369Z</time></trkpt><trkpt lat="40.04792" lon="8.5266533"><ele>84.2</ele><time>2026-05-02T10:40:28.369Z</time></trkpt><trkpt lat="40.047835" lon="8.5266317"><ele>85.0</ele><time>2026-05-02T10:40:29.369Z</time></trkpt><trkpt lat="40.0477467" lon="8.5266117"><ele>85.0</ele><time>2026-05-02T10:40:30.369Z</time></trkpt><trkpt lat="40.0476567" lon="8.5266017"><ele>85.0</ele><time>2026-05-02T10:40:31.369Z</time></trkpt><trkpt lat="40.04757" lon="8.5266017"><ele>85.0</ele><time>2026-05-02T10:40:32.369Z</time></trkpt><trkpt lat="40.0474867" lon="8.5265967"><ele>85.0</ele><time>2026-05-02T10:40:33.369Z</time></trkpt><trkpt lat="40.0474" lon="8.526595"><ele>85.0</ele><time>2026-05-02T10:40:34.369Z</time></trkpt><trkpt lat="40.04731" lon="8.5265883"><ele>85.0</ele><time>2026-05-02T10:40:35.369Z</time></trkpt><trkpt lat="40.047215" lon="8.5265667"><ele>84.8</ele><time>2026-05-02T10:40:36.369Z</time></trkpt><trkpt lat="40.04712" lon="8.5265333"><ele>84.6</ele><time>2026-05-02T10:40:37.369Z</time></trkpt><trkpt lat="40.0470283" lon="8.5265017"><ele>84.4</ele><time>2026-05-02T10:40:38.369Z</time></trkpt><trkpt lat="40.0469333" lon="8.5264617"><ele>84.2</ele><time>2026-05-02T10:40:39.369Z</time></trkpt><trkpt lat="40.046845" lon="8.5264317"><ele>84.0</ele><time>2026-05-02T10:40:40.369Z</time></trkpt><trkpt lat="40.0467517" lon="8.526385"><ele>84.0</ele><time>2026-05-02T10:40:41.369Z</time></trkpt><trkpt lat="40.0466583" lon="8.5263583"><ele>84.0</ele><time>2026-05-02T10:40:42.369Z</time></trkpt><trkpt lat="40.0465633" lon="8.52633"><ele>84.0</ele><time>2026-05-02T10:40:43.369Z</time></trkpt><trkpt lat="40.0464667" lon="8.526315"><ele>84.0</ele><time>2026-05-02T10:40:44.369Z</time></trkpt><trkpt lat="40.0463667" lon="8.5263083"><ele>84.0</ele><time>2026-05-02T10:40:45.369Z</time></trkpt><trkpt lat="40.0462767" lon="8.5262933"><ele>84.0</ele><time>2026-05-02T10:40:46.369Z</time></trkpt><trkpt lat="40.0461733" lon="8.52628"><ele>84.0</ele><time>2026-05-02T10:40:47.369Z</time></trkpt><trkpt lat="40.04608" lon="8.5262583"><ele>84.0</ele><time>2026-05-02T10:40:48.369Z</time></trkpt><trkpt lat="40.045985" lon="8.52623"><ele>84.0</ele><time>2026-05-02T10:40:49.369Z</time></trkpt><trkpt lat="40.045895" lon="8.5261883"><ele>84.0</ele><time>2026-05-02T10:40:50.369Z</time></trkpt><trkpt lat="40.045805" lon="8.526145"><ele>84.0</ele><time>2026-05-02T10:40:51.369Z</time></trkpt><trkpt lat="40.0457133" lon="8.5260917"><ele>84.0</ele><time>2026-05-02T10:40:52.369Z</time></trkpt><trkpt lat="40.0456283" lon="8.52604"><ele>84.0</ele><time>2026-05-02T10:40:53.369Z</time></trkpt><trkpt lat="40.0455433" lon="8.525975"><ele>84.0</ele><time>2026-05-02T10:40:54.369Z</time></trkpt><trkpt lat="40.0454483" lon="8.5259133"><ele>84.0</ele><time>2026-05-02T10:40:55.369Z</time></trkpt><trkpt lat="40.0453467" lon="8.5258467"><ele>84.0</ele><time>2026-05-02T10:40:56.369Z</time></trkpt><trkpt lat="40.045255" lon="8.5257933"><ele>84.0</ele><time>2026-05-02T10:40:57.369Z</time></trkpt><trkpt lat="40.0451683" lon="8.5257283"><ele>84.0</ele><time>2026-05-02T10:40:58.369Z</time></trkpt><trkpt lat="40.0450783" lon="8.5256617"><ele>84.0</ele><time>2026-05-02T10:40:59.369Z</time></trkpt><trkpt lat="40.044975" lon="8.5256067"><ele>84.0</ele><time>2026-05-02T10:41:00.369Z</time></trkpt><trkpt lat="40.0448833" lon="8.525545"><ele>84.0</ele><time>2026-05-02T10:41:01.369Z</time></trkpt><trkpt lat="40.044785" lon="8.525485"><ele>84.0</ele><time>2026-05-02T10:41:02.369Z</time></trkpt><trkpt lat="40.0446917" lon="8.5254217"><ele>84.0</ele><time>2026-05-02T10:41:03.369Z</time></trkpt><trkpt lat="40.044605" lon="8.5253333"><ele>84.0</ele><time>2026-05-02T10:41:04.369Z</time></trkpt><trkpt lat="40.04452" lon="8.5252433"><ele>84.0</ele><time>2026-05-02T10:41:05.369Z</time></trkpt><trkpt lat="40.04443" lon="8.52513"><ele>84.0</ele><time>2026-05-02T10:41:06.369Z</time></trkpt><trkpt lat="40.0443283" lon="8.5250183"><ele>84.0</ele><time>2026-05-02T10:41:07.369Z</time></trkpt><trkpt lat="40.044235" lon="8.5249217"><ele>84.0</ele><time>2026-05-02T10:41:08.369Z</time></trkpt><trkpt lat="40.044135" lon="8.52482"><ele>84.0</ele><time>2026-05-02T10:41:09.369Z</time></trkpt><trkpt lat="40.0440217" lon="8.524725"><ele>84.25</ele><time>2026-05-02T10:41:10.369Z</time></trkpt><trkpt lat="40.0439017" lon="8.5246533"><ele>84.5</ele><time>2026-05-02T10:41:11.369Z</time></trkpt><trkpt lat="40.04379" lon="8.5245917"><ele>84.75</ele><time>2026-05-02T10:41:12.369Z</time></trkpt><trkpt lat="40.0436717" lon="8.524535"><ele>85.0</ele><time>2026-05-02T10:41:13.369Z</time></trkpt><trkpt lat="40.0435583" lon="8.5245"><ele>85.0</ele><time>2026-05-02T10:41:14.369Z</time></trkpt><trkpt lat="40.0434383" lon="8.5244733"><ele>85.0</ele><time>2026-05-02T10:41:15.369Z</time></trkpt><trkpt lat="40.0433167" lon="8.52446"><ele>85.0</ele><time>2026-05-02T10:41:16.369Z</time></trkpt><trkpt lat="40.0431983" lon="8.5244517"><ele>85.0</ele><time>2026-05-02T10:41:17.369Z</time></trkpt><trkpt lat="40.043075" lon="8.524445"><ele>84.5</ele><time>2026-05-02T10:41:18.369Z</time></trkpt><trkpt lat="40.04296" lon="8.524425"><ele>84.0</ele><time>2026-05-02T10:41:19.369Z</time></trkpt><trkpt lat="40.042845" lon="8.5244017"><ele>83.5</ele><time>2026-05-02T10:41:20.369Z</time></trkpt><trkpt lat="40.0427317" lon="8.5243633"><ele>83.0</ele><time>2026-05-02T10:41:21.369Z</time></trkpt><trkpt lat="40.0426067" lon="8.5243183"><ele>83.0</ele><time>2026-05-02T10:41:22.369Z</time></trkpt><trkpt lat="40.0424917" lon="8.52427"><ele>83.0</ele><time>2026-05-02T10:41:23.369Z</time></trkpt><trkpt lat="40.0423567" lon="8.5242267"><ele>83.0</ele><time>2026-05-02T10:41:24.369Z</time></trkpt><trkpt lat="40.0422217" lon="8.5241917"><ele>83.0</ele><time>2026-05-02T10:41:25.369Z</time></trkpt><trkpt lat="40.0420933" lon="8.5241583"><ele>81.75</ele><time>2026-05-02T10:41:26.369Z</time></trkpt><trkpt lat="40.04196" lon="8.52412"><ele>80.5</ele><time>2026-05-02T10:41:27.369Z</time></trkpt><trkpt lat="40.0418233" lon="8.5240883"><ele>79.25</ele><time>2026-05-02T10:41:28.369Z</time></trkpt><trkpt lat="40.041695" lon="8.52405"><ele>78.0</ele><time>2026-05-02T10:41:29.369Z</time></trkpt><trkpt lat="40.0415667" lon="8.524025"><ele>77.25</ele><time>2026-05-02T10:41:30.369Z</time></trkpt><trkpt lat="40.041435" lon="8.5239983"><ele>76.5</ele><time>2026-05-02T10:41:31.369Z</time></trkpt><trkpt lat="40.041315" lon="8.5239933"><ele>75.75</ele><time>2026-05-02T10:41:32.369Z</time></trkpt><trkpt lat="40.041185" lon="8.5239867"><ele>75.0</ele><time>2026-05-02T10:41:33.369Z</time></trkpt><trkpt lat="40.0410633" lon="8.5239733"><ele>75.0</ele><time>2026-05-02T10:41:34.369Z</time></trkpt><trkpt lat="40.0409383" lon="8.5239933"><ele>75.0</ele><time>2026-05-02T10:41:35.369Z</time></trkpt><trkpt lat="40.0408033" lon="8.5240133"><ele>75.0</ele><time>2026-05-02T10:41:36.369Z</time></trkpt><trkpt lat="40.0406617" lon="8.5240283"><ele>75.0</ele><time>2026-05-02T10:41:37.369Z</time></trkpt><trkpt lat="40.0405217" lon="8.5240417"><ele>74.25</ele><time>2026-05-02T10:41:38.369Z</time></trkpt><trkpt lat="40.0403733" lon="8.52405"><ele>73.5</ele><time>2026-05-02T10:41:39.369Z</time></trkpt><trkpt lat="40.0402417" lon="8.52406"><ele>72.75</ele><time>2026-05-02T10:41:40.369Z</time></trkpt><trkpt lat="40.0401067" lon="8.5240767"><ele>72.0</ele><time>2026-05-02T10:41:41.369Z</time></trkpt><trkpt lat="40.0399783" lon="8.52409"><ele>71.5</ele><time>2026-05-02T10:41:42.369Z</time></trkpt><trkpt lat="40.0398517" lon="8.5241017"><ele>71.0</ele><time>2026-05-02T10:41:43.369Z</time></trkpt><trkpt lat="40.0397133" lon="8.52411"><ele>70.5</ele><time>2026-05-02T10:41:44.369Z</time></trkpt><trkpt lat="40.0395767" lon="8.5241"><ele>70.0</ele><time>2026-05-02T10:41:45.369Z</time></trkpt><trkpt lat="40.0394533" lon="8.52409"><ele>70.0</ele><time>2026-05-02T10:41:46.369Z</time></trkpt><trkpt lat="40.0393233" lon="8.5240733"><ele>70.0</ele><time>2026-05-02T10:41:47.369Z</time></trkpt><trkpt lat="40.0391983" lon="8.52405"><ele>70.0</ele><time>2026-05-02T10:41:48.369Z</time></trkpt><trkpt lat="40.0390683" lon="8.52401"><ele>70.0</ele><time>2026-05-02T10:41:49.369Z</time></trkpt><trkpt lat="40.0389417" lon="8.5239833"><ele>69.5</ele><time>2026-05-02T10:41:50.369Z</time></trkpt><trkpt lat="40.0388117" lon="8.5239583"><ele>69.0</ele><time>2026-05-02T10:41:51.369Z</time></trkpt><trkpt lat="40.0386817" lon="8.5239233"><ele>68.5</ele><time>2026-05-02T10:41:52.369Z</time></trkpt><trkpt lat="40.0385533" lon="8.5239"><ele>68.0</ele><time>2026-05-02T10:41:53.369Z</time></trkpt><trkpt lat="40.0384333" lon="8.5238933"><ele>68.0</ele><time>2026-05-02T10:41:54.369Z</time></trkpt><trkpt lat="40.0383067" lon="8.5239017"><ele>68.0</ele><time>2026-05-02T10:41:55.369Z</time></trkpt><trkpt lat="40.038185" lon="8.52391"><ele>68.0</ele><time>2026-05-02T10:41:56.369Z</time></trkpt><trkpt lat="40.0380733" lon="8.5239217"><ele>68.0</ele><time>2026-05-02T10:41:57.369Z</time></trkpt><trkpt lat="40.0379667" lon="8.5239067"><ele>67.5</ele><time>2026-05-02T10:41:58.369Z</time></trkpt><trkpt lat="40.0378617" lon="8.52388"><ele>67.0</ele><time>2026-05-02T10:41:59.369Z</time></trkpt><trkpt lat="40.0377433" lon="8.5238383"><ele>66.5</ele><time>2026-05-02T10:42:00.369Z</time></trkpt><trkpt lat="40.0376183" lon="8.5237917"><ele>66.0</ele><time>2026-05-02T10:42:01.369Z</time></trkpt><trkpt lat="40.0375017" lon="8.5237467"><ele>66.75</ele><time>2026-05-02T10:42:02.369Z</time></trkpt><trkpt lat="40.0373783" lon="8.523705"><ele>67.5</ele><time>2026-05-02T10:42:03.369Z</time></trkpt><trkpt lat="40.03726" lon="8.5236567"><ele>68.25</ele><time>2026-05-02T10:42:04.369Z</time></trkpt><trkpt lat="40.0371483" lon="8.5236167"><ele>69.0</ele><time>2026-05-02T10:42:05.369Z</time></trkpt><trkpt lat="40.037045" lon="8.5235767"><ele>69.0</ele><time>2026-05-02T10:42:06.369Z</time></trkpt><trkpt lat="40.03694" lon="8.5235267"><ele>69.0</ele><time>2026-05-02T10:42:07.369Z</time></trkpt><trkpt lat="40.0368333" lon="8.5234783"><ele>69.0</ele><time>2026-05-02T10:42:08.369Z</time></trkpt><trkpt lat="40.0367233" lon="8.52342"><ele>69.0</ele><time>2026-05-02T10:42:09.369Z</time></trkpt><trkpt lat="40.0366183" lon="8.523365"><ele>69.0</ele><time>2026-05-02T10:42:10.369Z</time></trkpt><trkpt lat="40.0365133" lon="8.5233267"><ele>69.0</ele><time>2026-05-02T10:42:11.369Z</time></trkpt><trkpt lat="40.036415" lon="8.523285"><ele>69.0</ele><time>2026-05-02T10:42:12.369Z</time></trkpt><trkpt lat="40.036305" lon="8.5232433"><ele>69.0</ele><time>2026-05-02T10:42:13.369Z</time></trkpt><trkpt lat="40.0362067" lon="8.5232217"><ele>69.0</ele><time>2026-05-02T10:42:14.369Z</time></trkpt><trkpt lat="40.0361017" lon="8.52322"><ele>69.0</ele><time>2026-05-02T10:42:15.369Z</time></trkpt><trkpt lat="40.0359967" lon="8.5232467"><ele>69.0</ele><time>2026-05-02T10:42:16.369Z</time></trkpt><trkpt lat="40.0358833" lon="8.5232667"><ele>69.0</ele><time>2026-05-02T10:42:17.369Z</time></trkpt><trkpt lat="40.0357783" lon="8.523315"><ele>69.0</ele><time>2026-05-02T10:42:18.369Z</time></trkpt><trkpt lat="40.0356767" lon="8.52337"><ele>69.0</ele><time>2026-05-02T10:42:19.369Z</time></trkpt><trkpt lat="40.0355633" lon="8.5234333"><ele>68.5</ele><time>2026-05-02T10:42:20.369Z</time></trkpt><trkpt lat="40.0354517" lon="8.5234783"><ele>68.0</ele><time>2026-05-02T10:42:21.369Z</time></trkpt><trkpt lat="40.0353367" lon="8.523535"><ele>67.5</ele><time>2026-05-02T10:42:22.369Z</time></trkpt><trkpt lat="40.03523" lon="8.52358"><ele>67.0</ele><time>2026-05-02T10:42:23.369Z</time></trkpt><trkpt lat="40.0351017" lon="8.5236217"><ele>67.0</ele><time>2026-05-02T10:42:24.369Z</time></trkpt><trkpt lat="40.0349767" lon="8.5236617"><ele>67.0</ele><time>2026-05-02T10:42:25.369Z</time></trkpt><trkpt lat="40.0348667" lon="8.5237067"><ele>67.0</ele><time>2026-05-02T10:42:26.369Z</time></trkpt><trkpt lat="40.0347683" lon="8.5237467"><ele>67.0</ele><time>2026-05-02T10:42:27.369Z</time></trkpt><trkpt lat="40.0346633" lon="8.5237833"><ele>67.2</ele><time>2026-05-02T10:42:28.369Z</time></trkpt><trkpt lat="40.03457" lon="8.52382"><ele>67.4</ele><time>2026-05-02T10:42:29.369Z</time></trkpt><trkpt lat="40.0344867" lon="8.5238717"><ele>67.6</ele><time>2026-05-02T10:42:30.369Z</time></trkpt><trkpt lat="40.0344" lon="8.52395"><ele>67.8</ele><time>2026-05-02T10:42:31.369Z</time></trkpt><trkpt lat="40.0343117" lon="8.52403"><ele>68.0</ele><time>2026-05-02T10:42:32.369Z</time></trkpt><trkpt lat="40.0342283" lon="8.5241217"><ele>68.0</ele><time>2026-05-02T10:42:33.369Z</time></trkpt><trkpt lat="40.0341383" lon="8.52419"><ele>68.0</ele><time>2026-05-02T10:42:34.369Z</time></trkpt><trkpt lat="40.03406" lon="8.5242517"><ele>68.0</ele><time>2026-05-02T10:42:35.369Z</time></trkpt><trkpt lat="40.0339717" lon="8.5243017"><ele>68.0</ele><time>2026-05-02T10:42:36.369Z</time></trkpt><trkpt lat="40.03388" lon="8.5243117"><ele>68.0</ele><time>2026-05-02T10:42:37.369Z</time></trkpt><trkpt lat="40.0337817" lon="8.5243067"><ele>68.25</ele><time>2026-05-02T10:42:38.369Z</time></trkpt><trkpt lat="40.033675" lon="8.524285"><ele>68.5</ele><time>2026-05-02T10:42:39.369Z</time></trkpt><trkpt lat="40.033565" lon="8.5242817"><ele>68.75</ele><time>2026-05-02T10:42:40.369Z</time></trkpt><trkpt lat="40.0334483" lon="8.5242917"><ele>69.0</ele><time>2026-05-02T10:42:41.369Z</time></trkpt><trkpt lat="40.0333317" lon="8.5242983"><ele>68.25</ele><time>2026-05-02T10:42:42.369Z</time></trkpt><trkpt lat="40.03321" lon="8.524305"><ele>67.5</ele><time>2026-05-02T10:42:43.369Z</time></trkpt><trkpt lat="40.03309" lon="8.5243167"><ele>66.75</ele><time>2026-05-02T10:42:44.369Z</time></trkpt><trkpt lat="40.0329733" lon="8.524325"><ele>66.0</ele><time>2026-05-02T10:42:45.369Z</time></trkpt><trkpt lat="40.032855" lon="8.5243483"><ele>66.0</ele><time>2026-05-02T10:42:46.369Z</time></trkpt><trkpt lat="40.0327383" lon="8.5243833"><ele>66.0</ele><time>2026-05-02T10:42:47.369Z</time></trkpt><trkpt lat="40.0326133" lon="8.52442"><ele>66.0</ele><time>2026-05-02T10:42:48.369Z</time></trkpt><trkpt lat="40.03248" lon="8.524445"><ele>66.0</ele><time>2026-05-02T10:42:49.369Z</time></trkpt><trkpt lat="40.0323583" lon="8.5244567"><ele>65.0</ele><time>2026-05-02T10:42:50.369Z</time></trkpt><trkpt lat="40.03224" lon="8.5244567"><ele>64.0</ele><time>2026-05-02T10:42:51.369Z</time></trkpt><trkpt lat="40.0321217" lon="8.5244633"><ele>63.0</ele><time>2026-05-02T10:42:52.369Z</time></trkpt><trkpt lat="40.0319883" lon="8.52447"><ele>62.0</ele><time>2026-05-02T10:42:53.369Z</time></trkpt><trkpt lat="40.03185" lon="8.5244783"><ele>62.0</ele><time>2026-05-02T10:42:54.369Z</time></trkpt><trkpt lat="40.031705" lon="8.52448"><ele>62.0</ele><time>2026-05-02T10:42:55.369Z</time></trkpt><trkpt lat="40.031575" lon="8.5244933"><ele>62.0</ele><time>2026-05-02T10:42:56.369Z</time></trkpt><trkpt lat="40.0314567" lon="8.5245433"><ele>62.0</ele><time>2026-05-02T10:42:57.369Z</time></trkpt><trkpt lat="40.0313167" lon="8.524595"><ele>61.0</ele><time>2026-05-02T10:42:58.369Z</time></trkpt><trkpt lat="40.0311783" lon="8.52466"><ele>60.0</ele><time>2026-05-02T10:42:59.369Z</time></trkpt><trkpt lat="40.031035" lon="8.5247233"><ele>59.0</ele><time>2026-05-02T10:43:00.369Z</time></trkpt><trkpt lat="40.0308967" lon="8.524795"><ele>58.0</ele><time>2026-05-02T10:43:01.369Z</time></trkpt><trkpt lat="40.0307717" lon="8.5248667"><ele>57.25</ele><time>2026-05-02T10:43:02.369Z</time></trkpt><trkpt lat="40.0306633" lon="8.52495"><ele>56.5</ele><time>2026-05-02T10:43:03.369Z</time></trkpt><trkpt lat="40.0305517" lon="8.525035"><ele>55.75</ele><time>2026-05-02T10:43:04.369Z</time></trkpt><trkpt lat="40.0304283" lon="8.5251283"><ele>55.0</ele><time>2026-05-02T10:43:05.369Z</time></trkpt><trkpt lat="40.0302983" lon="8.5252183"><ele>55.0</ele><time>2026-05-02T10:43:06.369Z</time></trkpt><trkpt lat="40.0301783" lon="8.5252833"><ele>55.0</ele><time>2026-05-02T10:43:07.369Z</time></trkpt><trkpt lat="40.0300567" lon="8.5253333"><ele>55.0</ele><time>2026-05-02T10:43:08.369Z</time></trkpt><trkpt lat="40.02993" lon="8.5253733"><ele>55.0</ele><time>2026-05-02T10:43:09.369Z</time></trkpt><trkpt lat="40.0298" lon="8.525415"><ele>54.0</ele><time>2026-05-02T10:43:10.369Z</time></trkpt><trkpt lat="40.0296983" lon="8.52548"><ele>53.0</ele><time>2026-05-02T10:43:11.369Z</time></trkpt><trkpt lat="40.029615" lon="8.5255667"><ele>52.0</ele><time>2026-05-02T10:43:12.369Z</time></trkpt><trkpt lat="40.0295217" lon="8.525695"><ele>51.0</ele><time>2026-05-02T10:43:13.369Z</time></trkpt><trkpt lat="40.029395" lon="8.5258367"><ele>51.0</ele><time>2026-05-02T10:43:14.369Z</time></trkpt><trkpt lat="40.0292417" lon="8.5259517"><ele>51.0</ele><time>2026-05-02T10:43:15.369Z</time></trkpt><trkpt lat="40.02908" lon="8.5260233"><ele>51.0</ele><time>2026-05-02T10:43:16.369Z</time></trkpt><trkpt lat="40.0289117" lon="8.5260633"><ele>49.75</ele><time>2026-05-02T10:43:17.369Z</time></trkpt><trkpt lat="40.0287533" lon="8.526065"><ele>48.5</ele><time>2026-05-02T10:43:18.369Z</time></trkpt><trkpt lat="40.0286117" lon="8.526065"><ele>47.25</ele><time>2026-05-02T10:43:19.369Z</time></trkpt><trkpt lat="40.0284717" lon="8.52605"><ele>46.0</ele><time>2026-05-02T10:43:20.369Z</time></trkpt><trkpt lat="40.0283367" lon="8.5260433"><ele>45.25</ele><time>2026-05-02T10:43:21.369Z</time></trkpt><trkpt lat="40.0281967" lon="8.5260583"><ele>44.5</ele><time>2026-05-02T10:43:22.369Z</time></trkpt><trkpt lat="40.02804" lon="8.5260917"><ele>43.75</ele><time>2026-05-02T10:43:23.369Z</time></trkpt><trkpt lat="40.0279217" lon="8.5261383"><ele>43.0</ele><time>2026-05-02T10:43:24.369Z</time></trkpt><trkpt lat="40.0278567" lon="8.526185"><ele>43.25</ele><time>2026-05-02T10:43:25.369Z</time></trkpt><trkpt lat="40.0278117" lon="8.5262867"><ele>43.5</ele><time>2026-05-02T10:43:27.369Z</time></trkpt><trkpt lat="40.0277833" lon="8.5264817"><ele>43.75</ele><time>2026-05-02T10:43:29.369Z</time></trkpt><trkpt lat="40.027715" lon="8.52661"><ele>44.0</ele><time>2026-05-02T10:43:30.369Z</time></trkpt><trkpt lat="40.0276067" lon="8.5267417"><ele>44.0</ele><time>2026-05-02T10:43:31.369Z</time></trkpt><trkpt lat="40.0274783" lon="8.5268833"><ele>44.0</ele><time>2026-05-02T10:43:32.369Z</time></trkpt><trkpt lat="40.0273367" lon="8.527035"><ele>44.0</ele><time>2026-05-02T10:43:33.369Z</time></trkpt><trkpt lat="40.02719" lon="8.5272"><ele>42.0</ele><time>2026-05-02T10:43:34.369Z</time></trkpt><trkpt lat="40.0270483" lon="8.5273633"><ele>40.0</ele><time>2026-05-02T10:43:35.369Z</time></trkpt><trkpt lat="40.0269017" lon="8.5275183"><ele>38.0</ele><time>2026-05-02T10:43:36.369Z</time></trkpt><trkpt lat="40.0267417" lon="8.5276467"><ele>37.33333333333333</ele><time>2026-05-02T10:43:37.369Z</time></trkpt><trkpt lat="40.02659" lon="8.527755"><ele>36.666666666666664</ele><time>2026-05-02T10:43:38.369Z</time></trkpt><trkpt lat="40.0264383" lon="8.52785"><ele>36.0</ele><time>2026-05-02T10:43:39.369Z</time></trkpt><trkpt lat="40.0262883" lon="8.5279417"><ele>35.666666666666664</ele><time>2026-05-02T10:43:40.369Z</time></trkpt><trkpt lat="40.0261367" lon="8.5280383"><ele>35.33333333333333</ele><time>2026-05-02T10:43:41.369Z</time></trkpt><trkpt lat="40.0259833" lon="8.52814"><ele>35.0</ele><time>2026-05-02T10:43:42.369Z</time></trkpt><trkpt lat="40.025835" lon="8.5282317"><ele>34.75</ele><time>2026-05-02T10:43:43.369Z</time></trkpt><trkpt lat="40.0256917" lon="8.5283167"><ele>34.5</ele><time>2026-05-02T10:43:44.369Z</time></trkpt><trkpt lat="40.0255583" lon="8.5284033"><ele>34.25</ele><time>2026-05-02T10:43:45.368Z</time></trkpt><trkpt lat="40.0254417" lon="8.528485"><ele>34.0</ele><time>2026-05-02T10:43:46.368Z</time></trkpt><trkpt lat="40.02533" lon="8.5285617"><ele>34.0</ele><time>2026-05-02T10:43:47.368Z</time></trkpt><trkpt lat="40.025225" lon="8.528625"><ele>34.0</ele><time>2026-05-02T10:43:48.368Z</time></trkpt><trkpt lat="40.0251367" lon="8.5286833"><ele>34.0</ele><time>2026-05-02T10:43:49.368Z</time></trkpt><trkpt lat="40.0250683" lon="8.5287183"><ele>34.0</ele><time>2026-05-02T10:43:50.368Z</time></trkpt><trkpt lat="40.0250033" lon="8.528745"><ele>34.0</ele><time>2026-05-02T10:43:54.368Z</time></trkpt><trkpt lat="40.0249383" lon="8.5287767"><ele>34.0</ele><time>2026-05-02T10:43:56.368Z</time></trkpt><trkpt lat="40.0247917" lon="8.5287967"><ele>33.75</ele><time>2026-05-02T10:43:58.368Z</time></trkpt><trkpt lat="40.02468" lon="8.5288033"><ele>33.5</ele><time>2026-05-02T10:43:59.368Z</time></trkpt><trkpt lat="40.0245633" lon="8.528795"><ele>33.25</ele><time>2026-05-02T10:44:00.368Z</time></trkpt><trkpt lat="40.0244383" lon="8.5287767"><ele>33.0</ele><time>2026-05-02T10:44:01.368Z</time></trkpt><trkpt lat="40.0242983" lon="8.5287533"><ele>33.0</ele><time>2026-05-02T10:44:02.368Z</time></trkpt><trkpt lat="40.024165" lon="8.528735"><ele>33.0</ele><time>2026-05-02T10:44:03.368Z</time></trkpt><trkpt lat="40.0240333" lon="8.5287183"><ele>33.0</ele><time>2026-05-02T10:44:04.368Z</time></trkpt><trkpt lat="40.0239033" lon="8.528715"><ele>33.0</ele><time>2026-05-02T10:44:05.368Z</time></trkpt><trkpt lat="40.0237683" lon="8.5287167"><ele>32.5</ele><time>2026-05-02T10:44:06.368Z</time></trkpt><trkpt lat="40.0236217" lon="8.5287233"><ele>32.0</ele><time>2026-05-02T10:44:07.368Z</time></trkpt><trkpt lat="40.02348" lon="8.528725"><ele>31.5</ele><time>2026-05-02T10:44:08.368Z</time></trkpt><trkpt lat="40.023325" lon="8.5287267"><ele>31.0</ele><time>2026-05-02T10:44:09.368Z</time></trkpt><trkpt lat="40.0231917" lon="8.5287117"><ele>30.25</ele><time>2026-05-02T10:44:10.368Z</time></trkpt><trkpt lat="40.0230583" lon="8.5286917"><ele>29.5</ele><time>2026-05-02T10:44:11.368Z</time></trkpt><trkpt lat="40.022935" lon="8.52869"><ele>28.75</ele><time>2026-05-02T10:44:12.368Z</time></trkpt><trkpt lat="40.02282" lon="8.528695"><ele>28.0</ele><time>2026-05-02T10:44:13.368Z</time></trkpt><trkpt lat="40.02269" lon="8.5287083"><ele>28.0</ele><time>2026-05-02T10:44:14.368Z</time></trkpt><trkpt lat="40.02254" lon="8.528715"><ele>28.0</ele><time>2026-05-02T10:44:15.368Z</time></trkpt><trkpt lat="40.0223817" lon="8.5287183"><ele>28.0</ele><time>2026-05-02T10:44:16.368Z</time></trkpt><trkpt lat="40.0222217" lon="8.52872"><ele>27.75</ele><time>2026-05-02T10:44:17.368Z</time></trkpt><trkpt lat="40.02207" lon="8.5287367"><ele>27.5</ele><time>2026-05-02T10:44:18.368Z</time></trkpt><trkpt lat="40.021925" lon="8.52876"><ele>27.25</ele><time>2026-05-02T10:44:19.368Z</time></trkpt><trkpt lat="40.0217867" lon="8.52879"><ele>27.0</ele><time>2026-05-02T10:44:20.368Z</time></trkpt><trkpt lat="40.02164" lon="8.5288267"><ele>26.333333333333336</ele><time>2026-05-02T10:44:21.368Z</time></trkpt><trkpt lat="40.0214967" lon="8.5288767"><ele>25.666666666666668</ele><time>2026-05-02T10:44:22.368Z</time></trkpt><trkpt lat="40.0213367" lon="8.52894"><ele>25.0</ele><time>2026-05-02T10:44:23.368Z</time></trkpt><trkpt lat="40.0211717" lon="8.52899"><ele>25.0</ele><time>2026-05-02T10:44:24.368Z</time></trkpt><trkpt lat="40.021025" lon="8.529035"><ele>25.0</ele><time>2026-05-02T10:44:25.368Z</time></trkpt><trkpt lat="40.0208833" lon="8.5290767"><ele>25.0</ele><time>2026-05-02T10:44:26.368Z</time></trkpt><trkpt lat="40.0207317" lon="8.5291183"><ele>24.75</ele><time>2026-05-02T10:44:27.368Z</time></trkpt><trkpt lat="40.0205833" lon="8.5291583"><ele>24.5</ele><time>2026-05-02T10:44:28.368Z</time></trkpt><trkpt lat="40.020435" lon="8.529185"><ele>24.25</ele><time>2026-05-02T10:44:29.368Z</time></trkpt><trkpt lat="40.0202933" lon="8.529195"><ele>24.0</ele><time>2026-05-02T10:44:30.368Z</time></trkpt><trkpt lat="40.0201667" lon="8.5292017"><ele>24.0</ele><time>2026-05-02T10:44:31.368Z</time></trkpt><trkpt lat="40.0200483" lon="8.5292167"><ele>24.0</ele><time>2026-05-02T10:44:32.368Z</time></trkpt><trkpt lat="40.0199467" lon="8.529235"><ele>24.0</ele><time>2026-05-02T10:44:33.368Z</time></trkpt><trkpt lat="40.0198683" lon="8.529245"><ele>24.0</ele><time>2026-05-02T10:44:34.368Z</time></trkpt><trkpt lat="40.01979" lon="8.5292117"><ele>24.0</ele><time>2026-05-02T10:44:36.368Z</time></trkpt><trkpt lat="40.01978" lon="8.52909"><ele>23.5</ele><time>2026-05-02T10:44:38.368Z</time></trkpt><trkpt lat="40.01978" lon="8.52895"><ele>23.0</ele><time>2026-05-02T10:44:39.368Z</time></trkpt><trkpt lat="40.01979" lon="8.5288033"><ele>22.5</ele><time>2026-05-02T10:44:40.368Z</time></trkpt><trkpt lat="40.0197983" lon="8.5286267"><ele>22.0</ele><time>2026-05-02T10:44:41.368Z</time></trkpt><trkpt lat="40.0198167" lon="8.5284367"><ele>22.0</ele><time>2026-05-02T10:44:42.368Z</time></trkpt><trkpt lat="40.01982" lon="8.528245"><ele>22.0</ele><time>2026-05-02T10:44:43.368Z</time></trkpt><trkpt lat="40.01982" lon="8.5280683"><ele>22.0</ele><time>2026-05-02T10:44:44.368Z</time></trkpt><trkpt lat="40.0198267" lon="8.5278933"><ele>22.0</ele><time>2026-05-02T10:44:45.368Z</time></trkpt><trkpt lat="40.0198417" lon="8.527725"><ele>21.666666666666664</ele><time>2026-05-02T10:44:46.368Z</time></trkpt><trkpt lat="40.0198683" lon="8.527535"><ele>21.333333333333332</ele><time>2026-05-02T10:44:47.368Z</time></trkpt><trkpt lat="40.0199133" lon="8.5273283"><ele>21.0</ele><time>2026-05-02T10:44:48.368Z</time></trkpt><trkpt lat="40.0199633" lon="8.5271067"><ele>21.666666666666668</ele><time>2026-05-02T10:44:49.368Z</time></trkpt><trkpt lat="40.0199967" lon="8.52688"><ele>22.333333333333336</ele><time>2026-05-02T10:44:50.368Z</time></trkpt><trkpt lat="40.02004" lon="8.5266617"><ele>23.0</ele><time>2026-05-02T10:44:51.368Z</time></trkpt><trkpt lat="40.0200833" lon="8.5264667"><ele>23.0</ele><time>2026-05-02T10:44:52.368Z</time></trkpt><trkpt lat="40.0201283" lon="8.5262617"><ele>23.0</ele><time>2026-05-02T10:44:53.368Z</time></trkpt><trkpt lat="40.0201717" lon="8.5260683"><ele>23.0</ele><time>2026-05-02T10:44:54.368Z</time></trkpt><trkpt lat="40.0202217" lon="8.5258583"><ele>22.333333333333336</ele><time>2026-05-02T10:44:55.368Z</time></trkpt><trkpt lat="40.02026" lon="8.5256517"><ele>21.666666666666668</ele><time>2026-05-02T10:44:56.368Z</time></trkpt><trkpt lat="40.0203" lon="8.5254467"><ele>21.0</ele><time>2026-05-02T10:44:57.368Z</time></trkpt><trkpt lat="40.0203417" lon="8.52525"><ele>20.5</ele><time>2026-05-02T10:44:58.368Z</time></trkpt><trkpt lat="40.0203683" lon="8.525055"><ele>20.0</ele><time>2026-05-02T10:44:59.368Z</time></trkpt><trkpt lat="40.0203967" lon="8.5248633"><ele>19.5</ele><time>2026-05-02T10:45:00.368Z</time></trkpt><trkpt lat="40.020415" lon="8.5246833"><ele>19.0</ele><time>2026-05-02T10:45:01.368Z</time></trkpt><trkpt lat="40.0204433" lon="8.524505"><ele>19.0</ele><time>2026-05-02T10:45:02.368Z</time></trkpt><trkpt lat="40.0204917" lon="8.5243183"><ele>19.0</ele><time>2026-05-02T10:45:03.368Z</time></trkpt><trkpt lat="40.0205433" lon="8.524135"><ele>19.0</ele><time>2026-05-02T10:45:04.368Z</time></trkpt><trkpt lat="40.0206017" lon="8.523955"><ele>19.0</ele><time>2026-05-02T10:45:05.368Z</time></trkpt><trkpt lat="40.020645" lon="8.523765"><ele>19.0</ele><time>2026-05-02T10:45:06.368Z</time></trkpt><trkpt lat="40.0206817" lon="8.5235733"><ele>19.0</ele><time>2026-05-02T10:45:07.368Z</time></trkpt><trkpt lat="40.0207067" lon="8.523395"><ele>19.0</ele><time>2026-05-02T10:45:08.368Z</time></trkpt><trkpt lat="40.020725" lon="8.52322"><ele>19.25</ele><time>2026-05-02T10:45:09.368Z</time></trkpt><trkpt lat="40.020725" lon="8.52304"><ele>19.5</ele><time>2026-05-02T10:45:10.368Z</time></trkpt><trkpt lat="40.020725" lon="8.5228467"><ele>19.75</ele><time>2026-05-02T10:45:11.368Z</time></trkpt><trkpt lat="40.0207467" lon="8.5226617"><ele>20.0</ele><time>2026-05-02T10:45:12.368Z</time></trkpt><trkpt lat="40.0207783" lon="8.5225033"><ele>20.0</ele><time>2026-05-02T10:45:13.368Z</time></trkpt><trkpt lat="40.0208083" lon="8.5223617"><ele>20.0</ele><time>2026-05-02T10:45:14.368Z</time></trkpt><trkpt lat="40.0208317" lon="8.5222417"><ele>20.0</ele><time>2026-05-02T10:45:15.368Z</time></trkpt><trkpt lat="40.0208417" lon="8.5221517"><ele>20.0</ele><time>2026-05-02T10:45:16.368Z</time></trkpt><trkpt lat="40.02087" lon="8.5220367"><ele>20.0</ele><time>2026-05-02T10:45:18.368Z</time></trkpt><trkpt lat="40.0208433" lon="8.5219217"><ele>19.5</ele><time>2026-05-02T10:45:25.368Z</time></trkpt><trkpt lat="40.020835" lon="8.5217517"><ele>19.0</ele><time>2026-05-02T10:45:27.368Z</time></trkpt><trkpt lat="40.02084" lon="8.5216267"><ele>18.5</ele><time>2026-05-02T10:45:28.368Z</time></trkpt><trkpt lat="40.020855" lon="8.5214783"><ele>18.0</ele><time>2026-05-02T10:45:29.368Z</time></trkpt><trkpt lat="40.0208767" lon="8.5213083"><ele>17.5</ele><time>2026-05-02T10:45:30.368Z</time></trkpt><trkpt lat="40.0209033" lon="8.521135"><ele>17.0</ele><time>2026-05-02T10:45:31.368Z</time></trkpt><trkpt lat="40.02093" lon="8.520955"><ele>16.5</ele><time>2026-05-02T10:45:32.368Z</time></trkpt><trkpt lat="40.0209517" lon="8.5207583"><ele>16.0</ele><time>2026-05-02T10:45:33.368Z</time></trkpt><trkpt lat="40.0209833" lon="8.5205517"><ele>16.333333333333332</ele><time>2026-05-02T10:45:34.368Z</time></trkpt><trkpt lat="40.0210017" lon="8.52033"><ele>16.666666666666668</ele><time>2026-05-02T10:45:35.368Z</time></trkpt><trkpt lat="40.0210033" lon="8.5200917"><ele>17.0</ele><time>2026-05-02T10:45:36.368Z</time></trkpt><trkpt lat="40.021" lon="8.5198567"><ele>17.0</ele><time>2026-05-02T10:45:37.368Z</time></trkpt><trkpt lat="40.0209883" lon="8.5196533"><ele>17.0</ele><time>2026-05-02T10:45:38.368Z</time></trkpt><trkpt lat="40.0209783" lon="8.5194817"><ele>17.0</ele><time>2026-05-02T10:45:39.368Z</time></trkpt><trkpt lat="40.020975" lon="8.5193"><ele>17.0</ele><time>2026-05-02T10:45:40.368Z</time></trkpt><trkpt lat="40.0209683" lon="8.51911"><ele>17.2</ele><time>2026-05-02T10:45:41.368Z</time></trkpt><trkpt lat="40.0209683" lon="8.518935"><ele>17.4</ele><time>2026-05-02T10:45:42.368Z</time></trkpt><trkpt lat="40.02097" lon="8.5187833"><ele>17.6</ele><time>2026-05-02T10:45:43.368Z</time></trkpt><trkpt lat="40.02098" lon="8.5186617"><ele>17.8</ele><time>2026-05-02T10:45:44.368Z</time></trkpt><trkpt lat="40.0209933" lon="8.5185717"><ele>18.0</ele><time>2026-05-02T10:45:45.368Z</time></trkpt><trkpt lat="40.0209517" lon="8.5184867"><ele>17.666666666666668</ele><time>2026-05-02T10:45:47.368Z</time></trkpt><trkpt lat="40.020785" lon="8.518545"><ele>17.333333333333336</ele><time>2026-05-02T10:45:49.368Z</time></trkpt><trkpt lat="40.02066" lon="8.5185917"><ele>17.0</ele><time>2026-05-02T10:45:50.368Z</time></trkpt><trkpt lat="40.0205067" lon="8.5186467"><ele>17.0</ele><time>2026-05-02T10:45:51.368Z</time></trkpt><trkpt lat="40.02034" lon="8.5186867"><ele>17.0</ele><time>2026-05-02T10:45:52.368Z</time></trkpt><trkpt lat="40.0201717" lon="8.518725"><ele>17.0</ele><time>2026-05-02T10:45:53.368Z</time></trkpt><trkpt lat="40.0200167" lon="8.518765"><ele>16.333333333333336</ele><time>2026-05-02T10:45:54.368Z</time></trkpt><trkpt lat="40.019845" lon="8.5187917"><ele>15.666666666666668</ele><time>2026-05-02T10:45:55.368Z</time></trkpt><trkpt lat="40.0196667" lon="8.518825"><ele>15.0</ele><time>2026-05-02T10:45:56.368Z</time></trkpt><trkpt lat="40.0194967" lon="8.5188683"><ele>15.0</ele><time>2026-05-02T10:45:57.368Z</time></trkpt><trkpt lat="40.019355" lon="8.518895"><ele>15.0</ele><time>2026-05-02T10:45:58.368Z</time></trkpt><trkpt lat="40.0192267" lon="8.5189267"><ele>15.0</ele><time>2026-05-02T10:45:59.368Z</time></trkpt><trkpt lat="40.019105" lon="8.518975"><ele>15.0</ele><time>2026-05-02T10:46:00.368Z</time></trkpt><trkpt lat="40.0189867" lon="8.51903"><ele>15.5</ele><time>2026-05-02T10:46:01.368Z</time></trkpt><trkpt lat="40.0188817" lon="8.5190983"><ele>16.0</ele><time>2026-05-02T10:46:02.368Z</time></trkpt><trkpt lat="40.0187583" lon="8.5191833"><ele>16.5</ele><time>2026-05-02T10:46:03.368Z</time></trkpt><trkpt lat="40.0186517" lon="8.5192683"><ele>17.0</ele><time>2026-05-02T10:46:04.368Z</time></trkpt><trkpt lat="40.0185283" lon="8.519375"><ele>17.0</ele><time>2026-05-02T10:46:05.368Z</time></trkpt><trkpt lat="40.0184017" lon="8.51947"><ele>17.0</ele><time>2026-05-02T10:46:06.368Z</time></trkpt><trkpt lat="40.0182683" lon="8.5195617"><ele>17.0</ele><time>2026-05-02T10:46:07.368Z</time></trkpt><trkpt lat="40.0181383" lon="8.5196633"><ele>17.0</ele><time>2026-05-02T10:46:08.368Z</time></trkpt><trkpt lat="40.0179867" lon="8.51977"><ele>16.333333333333336</ele><time>2026-05-02T10:46:09.368Z</time></trkpt><trkpt lat="40.0178317" lon="8.51991"><ele>15.666666666666668</ele><time>2026-05-02T10:46:10.369Z</time></trkpt><trkpt lat="40.0176667" lon="8.52005"><ele>15.0</ele><time>2026-05-02T10:46:11.368Z</time></trkpt><trkpt lat="40.01753" lon="8.5201883"><ele>15.0</ele><time>2026-05-02T10:46:12.368Z</time></trkpt><trkpt lat="40.0173783" lon="8.5203067"><ele>15.0</ele><time>2026-05-02T10:46:13.368Z</time></trkpt><trkpt lat="40.0172383" lon="8.5204067"><ele>15.0</ele><time>2026-05-02T10:46:14.368Z</time></trkpt><trkpt lat="40.01709" lon="8.5205017"><ele>14.666666666666668</ele><time>2026-05-02T10:46:15.368Z</time></trkpt><trkpt lat="40.01694" lon="8.5205883"><ele>14.333333333333334</ele><time>2026-05-02T10:46:16.368Z</time></trkpt><trkpt lat="40.0167783" lon="8.5206783"><ele>14.0</ele><time>2026-05-02T10:46:17.368Z</time></trkpt><trkpt lat="40.0165967" lon="8.5207633"><ele>13.666666666666668</ele><time>2026-05-02T10:46:18.368Z</time></trkpt><trkpt lat="40.0164283" lon="8.5208483"><ele>13.333333333333332</ele><time>2026-05-02T10:46:19.368Z</time></trkpt><trkpt lat="40.0162717" lon="8.5209367"><ele>13.0</ele><time>2026-05-02T10:46:20.368Z</time></trkpt><trkpt lat="40.016125" lon="8.5210383"><ele>13.0</ele><time>2026-05-02T10:46:21.368Z</time></trkpt><trkpt lat="40.0159733" lon="8.5211367"><ele>13.0</ele><time>2026-05-02T10:46:22.368Z</time></trkpt><trkpt lat="40.0158283" lon="8.5212367"><ele>13.0</ele><time>2026-05-02T10:46:23.368Z</time></trkpt><trkpt lat="40.0156817" lon="8.5213317"><ele>12.666666666666666</ele><time>2026-05-02T10:46:24.368Z</time></trkpt><trkpt lat="40.0155333" lon="8.5214083"><ele>12.333333333333332</ele><time>2026-05-02T10:46:25.368Z</time></trkpt><trkpt lat="40.015375" lon="8.5214733"><ele>12.0</ele><time>2026-05-02T10:46:26.368Z</time></trkpt><trkpt lat="40.0152233" lon="8.5215383"><ele>12.0</ele><time>2026-05-02T10:46:27.368Z</time></trkpt><trkpt lat="40.0150733" lon="8.5216067"><ele>12.0</ele><time>2026-05-02T10:46:28.368Z</time></trkpt><trkpt lat="40.0149167" lon="8.5216717"><ele>12.0</ele><time>2026-05-02T10:46:29.368Z</time></trkpt><trkpt lat="40.0147667" lon="8.521735"><ele>12.25</ele><time>2026-05-02T10:46:30.368Z</time></trkpt><trkpt lat="40.0146267" lon="8.52178"><ele>12.5</ele><time>2026-05-02T10:46:31.368Z</time></trkpt><trkpt lat="40.014485" lon="8.52182"><ele>12.75</ele><time>2026-05-02T10:46:32.368Z</time></trkpt><trkpt lat="40.0143567" lon="8.5218583"><ele>13.0</ele><time>2026-05-02T10:46:33.368Z</time></trkpt><trkpt lat="40.0142333" lon="8.5219167"><ele>12.5</ele><time>2026-05-02T10:46:34.368Z</time></trkpt><trkpt lat="40.0140983" lon="8.522015"><ele>12.0</ele><time>2026-05-02T10:46:35.368Z</time></trkpt><trkpt lat="40.0139833" lon="8.5221117"><ele>11.5</ele><time>2026-05-02T10:46:36.368Z</time></trkpt><trkpt lat="40.0138767" lon="8.522215"><ele>11.0</ele><time>2026-05-02T10:46:37.368Z</time></trkpt><trkpt lat="40.0137867" lon="8.5223217"><ele>11.0</ele><time>2026-05-02T10:46:38.368Z</time></trkpt><trkpt lat="40.0137033" lon="8.52244"><ele>11.0</ele><time>2026-05-02T10:46:39.368Z</time></trkpt><trkpt lat="40.01362" lon="8.5225483"><ele>11.0</ele><time>2026-05-02T10:46:40.368Z</time></trkpt><trkpt lat="40.013535" lon="8.5226483"><ele>11.0</ele><time>2026-05-02T10:46:41.368Z</time></trkpt><trkpt lat="40.013435" lon="8.52275"><ele>11.0</ele><time>2026-05-02T10:46:42.368Z</time></trkpt><trkpt lat="40.0133333" lon="8.5228617"><ele>11.0</ele><time>2026-05-02T10:46:43.368Z</time></trkpt><trkpt lat="40.0132217" lon="8.522975"><ele>11.0</ele><time>2026-05-02T10:46:44.368Z</time></trkpt><trkpt lat="40.013135" lon="8.5230633"><ele>11.0</ele><time>2026-05-02T10:46:45.368Z</time></trkpt><trkpt lat="40.0130583" lon="8.5231433"><ele>10.666666666666666</ele><time>2026-05-02T10:46:46.368Z</time></trkpt><trkpt lat="40.012985" lon="8.52321"><ele>10.333333333333332</ele><time>2026-05-02T10:46:47.368Z</time></trkpt><trkpt lat="40.0129317" lon="8.5232583"><ele>10.0</ele><time>2026-05-02T10:46:48.368Z</time></trkpt><trkpt lat="40.0128767" lon="8.5233"><ele>9.666666666666666</ele><time>2026-05-02T10:46:50.368Z</time></trkpt><trkpt lat="40.0127867" lon="8.5233917"><ele>9.333333333333334</ele><time>2026-05-02T10:46:53.368Z</time></trkpt><trkpt lat="40.0127283" lon="8.5234433"><ele>9.0</ele><time>2026-05-02T10:46:54.368Z</time></trkpt><trkpt lat="40.012665" lon="8.5235033"><ele>9.0</ele><time>2026-05-02T10:46:55.368Z</time></trkpt><trkpt lat="40.0126067" lon="8.5235633"><ele>9.0</ele><time>2026-05-02T10:46:56.368Z</time></trkpt><trkpt lat="40.0125517" lon="8.5236233"><ele>9.0</ele><time>2026-05-02T10:46:57.368Z</time></trkpt><trkpt lat="40.0124833" lon="8.5236917"><ele>9.0</ele><time>2026-05-02T10:46:58.368Z</time></trkpt><trkpt lat="40.0123967" lon="8.523765"><ele>9.0</ele><time>2026-05-02T10:46:59.368Z</time></trkpt><trkpt lat="40.012305" lon="8.5238433"><ele>9.0</ele><time>2026-05-02T10:47:00.368Z</time></trkpt><trkpt lat="40.0122083" lon="8.5239233"><ele>9.25</ele><time>2026-05-02T10:47:01.368Z</time></trkpt><trkpt lat="40.01209" lon="8.5239967"><ele>9.5</ele><time>2026-05-02T10:47:02.368Z</time></trkpt><trkpt lat="40.0119583" lon="8.5240917"><ele>9.75</ele><time>2026-05-02T10:47:03.368Z</time></trkpt><trkpt lat="40.011825" lon="8.52419"><ele>10.0</ele><time>2026-05-02T10:47:04.368Z</time></trkpt><trkpt lat="40.0116967" lon="8.52428"><ele>10.25</ele><time>2026-05-02T10:47:05.368Z</time></trkpt><trkpt lat="40.0115733" lon="8.5243817"><ele>10.5</ele><time>2026-05-02T10:47:06.368Z</time></trkpt><trkpt lat="40.0114417" lon="8.524475"><ele>10.75</ele><time>2026-05-02T10:47:07.368Z</time></trkpt><trkpt lat="40.011325" lon="8.5245833"><ele>11.0</ele><time>2026-05-02T10:47:08.368Z</time></trkpt><trkpt lat="40.0112267" lon="8.52469"><ele>11.0</ele><time>2026-05-02T10:47:09.368Z</time></trkpt><trkpt lat="40.0111233" lon="8.5248033"><ele>11.0</ele><time>2026-05-02T10:47:10.368Z</time></trkpt><trkpt lat="40.011015" lon="8.5249167"><ele>11.0</ele><time>2026-05-02T10:47:11.368Z</time></trkpt><trkpt lat="40.0109" lon="8.52504"><ele>11.0</ele><time>2026-05-02T10:47:12.368Z</time></trkpt><trkpt lat="40.010785" lon="8.5251833"><ele>11.0</ele><time>2026-05-02T10:47:13.368Z</time></trkpt><trkpt lat="40.0106683" lon="8.52534"><ele>11.0</ele><time>2026-05-02T10:47:14.368Z</time></trkpt><trkpt lat="40.010555" lon="8.5255083"><ele>11.0</ele><time>2026-05-02T10:47:15.368Z</time></trkpt><trkpt lat="40.0104267" lon="8.5256667"><ele>10.333333333333332</ele><time>2026-05-02T10:47:16.368Z</time></trkpt><trkpt lat="40.0103067" lon="8.52583"><ele>9.666666666666666</ele><time>2026-05-02T10:47:17.368Z</time></trkpt><trkpt lat="40.0101717" lon="8.525995"><ele>9.0</ele><time>2026-05-02T10:47:18.368Z</time></trkpt><trkpt lat="40.010035" lon="8.52615"><ele>9.0</ele><time>2026-05-02T10:47:19.368Z</time></trkpt><trkpt lat="40.0099067" lon="8.5263133"><ele>9.0</ele><time>2026-05-02T10:47:20.368Z</time></trkpt><trkpt lat="40.0097833" lon="8.5264767"><ele>9.0</ele><time>2026-05-02T10:47:21.368Z</time></trkpt><trkpt lat="40.00967" lon="8.52664"><ele>9.0</ele><time>2026-05-02T10:47:22.368Z</time></trkpt><trkpt lat="40.00956" lon="8.5267967"><ele>9.0</ele><time>2026-05-02T10:47:23.368Z</time></trkpt><trkpt lat="40.0094483" lon="8.5269583"><ele>9.0</ele><time>2026-05-02T10:47:24.368Z</time></trkpt><trkpt lat="40.0093583" lon="8.5271067"><ele>9.0</ele><time>2026-05-02T10:47:25.368Z</time></trkpt><trkpt lat="40.00926" lon="8.527245"><ele>9.0</ele><time>2026-05-02T10:47:26.368Z</time></trkpt><trkpt lat="40.0091583" lon="8.5273633"><ele>9.0</ele><time>2026-05-02T10:47:27.368Z</time></trkpt><trkpt lat="40.0090633" lon="8.527465"><ele>9.0</ele><time>2026-05-02T10:47:28.368Z</time></trkpt><trkpt lat="40.0089833" lon="8.52754"><ele>9.0</ele><time>2026-05-02T10:47:29.368Z</time></trkpt><trkpt lat="40.0088817" lon="8.52762"><ele>9.0</ele><time>2026-05-02T10:47:30.368Z</time></trkpt><trkpt lat="40.008755" lon="8.5277117"><ele>9.0</ele><time>2026-05-02T10:47:31.368Z</time></trkpt><trkpt lat="40.00863" lon="8.5278017"><ele>9.0</ele><time>2026-05-02T10:47:32.368Z</time></trkpt><trkpt lat="40.0085217" lon="8.5279133"><ele>8.75</ele><time>2026-05-02T10:47:33.368Z</time></trkpt><trkpt lat="40.00842" lon="8.528055"><ele>8.5</ele><time>2026-05-02T10:47:34.368Z</time></trkpt><trkpt lat="40.008305" lon="8.5282017"><ele>8.25</ele><time>2026-05-02T10:47:35.368Z</time></trkpt><trkpt lat="40.0082067" lon="8.52833"><ele>8.0</ele><time>2026-05-02T10:47:36.368Z</time></trkpt><trkpt lat="40.0081117" lon="8.5284483"><ele>8.25</ele><time>2026-05-02T10:47:37.368Z</time></trkpt><trkpt lat="40.00802" lon="8.5285567"><ele>8.5</ele><time>2026-05-02T10:47:38.368Z</time></trkpt><trkpt lat="40.0079333" lon="8.528675"><ele>8.75</ele><time>2026-05-02T10:47:39.368Z</time></trkpt><trkpt lat="40.0078333" lon="8.528805"><ele>9.0</ele><time>2026-05-02T10:47:40.368Z</time></trkpt><trkpt lat="40.0077317" lon="8.5289267"><ele>9.0</ele><time>2026-05-02T10:47:41.368Z</time></trkpt><trkpt lat="40.007635" lon="8.529035"><ele>9.0</ele><time>2026-05-02T10:47:42.368Z</time></trkpt><trkpt lat="40.0075183" lon="8.5291267"><ele>9.0</ele><time>2026-05-02T10:47:43.368Z</time></trkpt><trkpt lat="40.0074017" lon="8.52921"><ele>9.0</ele><time>2026-05-02T10:47:44.368Z</time></trkpt><trkpt lat="40.0072967" lon="8.5292817"><ele>8.833333333333334</ele><time>2026-05-02T10:47:45.368Z</time></trkpt><trkpt lat="40.0072" lon="8.529345"><ele>8.666666666666666</ele><time>2026-05-02T10:47:46.368Z</time></trkpt><trkpt lat="40.0071167" lon="8.5293933"><ele>8.5</ele><time>2026-05-02T10:47:47.368Z</time></trkpt><trkpt lat="40.0070483" lon="8.5294067"><ele>8.333333333333332</ele><time>2026-05-02T10:47:48.368Z</time></trkpt><trkpt lat="40.0069783" lon="8.5293833"><ele>8.166666666666666</ele><time>2026-05-02T10:47:50.368Z</time></trkpt><trkpt lat="40.0069867" lon="8.5292667"><ele>8.0</ele><time>2026-05-02T10:47:52.368Z</time></trkpt><trkpt lat="40.0070133" lon="8.5291683"><ele>8.0</ele><time>2026-05-02T10:47:53.368Z</time></trkpt><trkpt lat="40.0070483" lon="8.5290517"><ele>8.0</ele><time>2026-05-02T10:47:54.368Z</time></trkpt><trkpt lat="40.0070833" lon="8.528905"><ele>8.0</ele><time>2026-05-02T10:47:55.368Z</time></trkpt><trkpt lat="40.00712" lon="8.5287567"><ele>8.0</ele><time>2026-05-02T10:47:56.368Z</time></trkpt><trkpt lat="40.0071467" lon="8.5286"><ele>7.5</ele><time>2026-05-02T10:47:57.368Z</time></trkpt><trkpt lat="40.0071717" lon="8.52844"><ele>7.0</ele><time>2026-05-02T10:47:58.368Z</time></trkpt><trkpt lat="40.0072017" lon="8.528285"><ele>6.5</ele><time>2026-05-02T10:47:59.368Z</time></trkpt><trkpt lat="40.0072333" lon="8.5281267"><ele>6.0</ele><time>2026-05-02T10:48:00.368Z</time></trkpt><trkpt lat="40.0072633" lon="8.5279733"><ele>6.25</ele><time>2026-05-02T10:48:01.368Z</time></trkpt><trkpt lat="40.0072967" lon="8.527815"><ele>6.5</ele><time>2026-05-02T10:48:02.368Z</time></trkpt><trkpt lat="40.0073333" lon="8.52766"><ele>6.75</ele><time>2026-05-02T10:48:03.368Z</time></trkpt><trkpt lat="40.0073683" lon="8.5274967"><ele>7.0</ele><time>2026-05-02T10:48:04.368Z</time></trkpt><trkpt lat="40.0073967" lon="8.52733"><ele>7.0</ele><time>2026-05-02T10:48:05.368Z</time></trkpt><trkpt lat="40.00743" lon="8.5271717"><ele>7.0</ele><time>2026-05-02T10:48:06.368Z</time></trkpt><trkpt lat="40.0074517" lon="8.5270067"><ele>7.0</ele><time>2026-05-02T10:48:07.368Z</time></trkpt><trkpt lat="40.0074683" lon="8.52684"><ele>7.0</ele><time>2026-05-02T10:48:08.368Z</time></trkpt><trkpt lat="40.0074933" lon="8.5266583"><ele>7.75</ele><time>2026-05-02T10:48:09.368Z</time></trkpt><trkpt lat="40.0075233" lon="8.5264833"><ele>8.5</ele><time>2026-05-02T10:48:10.368Z</time></trkpt><trkpt lat="40.007545" lon="8.5263"><ele>9.25</ele><time>2026-05-02T10:48:11.368Z</time></trkpt><trkpt lat="40.0075667" lon="8.526125"><ele>10.0</ele><time>2026-05-02T10:48:12.368Z</time></trkpt><trkpt lat="40.0075933" lon="8.5259433"><ele>10.0</ele><time>2026-05-02T10:48:13.368Z</time></trkpt><trkpt lat="40.0076217" lon="8.5257567"><ele>10.0</ele><time>2026-05-02T10:48:14.368Z</time></trkpt><trkpt lat="40.0076667" lon="8.525575"><ele>10.0</ele><time>2026-05-02T10:48:15.368Z</time></trkpt><trkpt lat="40.0077067" lon="8.5253933"><ele>10.0</ele><time>2026-05-02T10:48:16.368Z</time></trkpt><trkpt lat="40.0077433" lon="8.52522"><ele>9.75</ele><time>2026-05-02T10:48:17.368Z</time></trkpt><trkpt lat="40.00777" lon="8.52505"><ele>9.5</ele><time>2026-05-02T10:48:18.368Z</time></trkpt><trkpt lat="40.007795" lon="8.52487"><ele>9.25</ele><time>2026-05-02T10:48:19.368Z</time></trkpt><trkpt lat="40.00784" lon="8.5246983"><ele>9.0</ele><time>2026-05-02T10:48:20.368Z</time></trkpt><trkpt lat="40.0078767" lon="8.5245367"><ele>9.0</ele><time>2026-05-02T10:48:21.368Z</time></trkpt><trkpt lat="40.0079083" lon="8.5243683"><ele>9.0</ele><time>2026-05-02T10:48:22.368Z</time></trkpt><trkpt lat="40.00794" lon="8.5241883"><ele>9.0</ele><time>2026-05-02T10:48:23.368Z</time></trkpt><trkpt lat="40.007985" lon="8.5239933"><ele>9.0</ele><time>2026-05-02T10:48:24.368Z</time></trkpt><trkpt lat="40.0080233" lon="8.5237967"><ele>8.666666666666666</ele><time>2026-05-02T10:48:25.368Z</time></trkpt><trkpt lat="40.008055" lon="8.5235867"><ele>8.333333333333332</ele><time>2026-05-02T10:48:26.368Z</time></trkpt><trkpt lat="40.0081033" lon="8.5233767"><ele>8.0</ele><time>2026-05-02T10:48:27.368Z</time></trkpt><trkpt lat="40.00815" lon="8.5231433"><ele>8.0</ele><time>2026-05-02T10:48:28.368Z</time></trkpt><trkpt lat="40.0081833" lon="8.5229167"><ele>8.0</ele><time>2026-05-02T10:48:29.368Z</time></trkpt><trkpt lat="40.0082283" lon="8.52268"><ele>8.0</ele><time>2026-05-02T10:48:30.368Z</time></trkpt><trkpt lat="40.00828" lon="8.5224483"><ele>7.666666666666666</ele><time>2026-05-02T10:48:31.368Z</time></trkpt><trkpt lat="40.0083133" lon="8.52222"><ele>7.333333333333334</ele><time>2026-05-02T10:48:32.368Z</time></trkpt><trkpt lat="40.0083583" lon="8.52199"><ele>7.0</ele><time>2026-05-02T10:48:33.368Z</time></trkpt><trkpt lat="40.008405" lon="8.5217567"><ele>7.0</ele><time>2026-05-02T10:48:34.368Z</time></trkpt><trkpt lat="40.00844" lon="8.5215267"><ele>7.0</ele><time>2026-05-02T10:48:35.368Z</time></trkpt><trkpt lat="40.0084883" lon="8.5212883"><ele>7.0</ele><time>2026-05-02T10:48:36.368Z</time></trkpt><trkpt lat="40.008535" lon="8.5210417"><ele>7.0</ele><time>2026-05-02T10:48:37.368Z</time></trkpt><trkpt lat="40.008585" lon="8.5207833"><ele>7.0</ele><time>2026-05-02T10:48:38.368Z</time></trkpt><trkpt lat="40.008635" lon="8.5205233"><ele>7.0</ele><time>2026-05-02T10:48:39.368Z</time></trkpt><trkpt lat="40.0086867" lon="8.5202583"><ele>7.0</ele><time>2026-05-02T10:48:40.368Z</time></trkpt><trkpt lat="40.0087433" lon="8.519995"><ele>7.0</ele><time>2026-05-02T10:48:41.368Z</time></trkpt><trkpt lat="40.0088" lon="8.519725"><ele>7.0</ele><time>2026-05-02T10:48:42.368Z</time></trkpt><trkpt lat="40.008855" lon="8.5194467"><ele>7.0</ele><time>2026-05-02T10:48:43.368Z</time></trkpt><trkpt lat="40.0088967" lon="8.5191667"><ele>7.0</ele><time>2026-05-02T10:48:44.368Z</time></trkpt><trkpt lat="40.0089417" lon="8.518885"><ele>7.0</ele><time>2026-05-02T10:48:45.368Z</time></trkpt><trkpt lat="40.0090017" lon="8.5186"><ele>7.0</ele><time>2026-05-02T10:48:46.368Z</time></trkpt><trkpt lat="40.00907" lon="8.51832"><ele>7.0</ele><time>2026-05-02T10:48:47.368Z</time></trkpt><trkpt lat="40.00912" lon="8.5180417"><ele>7.0</ele><time>2026-05-02T10:48:48.368Z</time></trkpt><trkpt lat="40.0091667" lon="8.5177633"><ele>7.666666666666667</ele><time>2026-05-02T10:48:49.368Z</time></trkpt><trkpt lat="40.0092267" lon="8.5174783"><ele>8.333333333333334</ele><time>2026-05-02T10:48:50.368Z</time></trkpt><trkpt lat="40.00928" lon="8.5172067"><ele>9.0</ele><time>2026-05-02T10:48:51.368Z</time></trkpt><trkpt lat="40.00933" lon="8.516935"><ele>9.0</ele><time>2026-05-02T10:48:52.368Z</time></trkpt><trkpt lat="40.009365" lon="8.5166683"><ele>9.0</ele><time>2026-05-02T10:48:53.368Z</time></trkpt><trkpt lat="40.009415" lon="8.5163967"><ele>9.0</ele><time>2026-05-02T10:48:54.368Z</time></trkpt><trkpt lat="40.009465" lon="8.516135"><ele>8.666666666666666</ele><time>2026-05-02T10:48:55.368Z</time></trkpt><trkpt lat="40.0095183" lon="8.51587"><ele>8.333333333333332</ele><time>2026-05-02T10:48:56.368Z</time></trkpt><trkpt lat="40.009565" lon="8.5156083"><ele>8.0</ele><time>2026-05-02T10:48:57.368Z</time></trkpt><trkpt lat="40.0096117" lon="8.5153483"><ele>7.666666666666666</ele><time>2026-05-02T10:48:58.368Z</time></trkpt><trkpt lat="40.0096567" lon="8.5151083"><ele>7.333333333333334</ele><time>2026-05-02T10:48:59.368Z</time></trkpt><trkpt lat="40.009685" lon="8.5148867"><ele>7.0</ele><time>2026-05-02T10:49:00.368Z</time></trkpt><trkpt lat="40.0097133" lon="8.5146533"><ele>6.666666666666667</ele><time>2026-05-02T10:49:01.368Z</time></trkpt><trkpt lat="40.0097383" lon="8.5144283"><ele>6.333333333333334</ele><time>2026-05-02T10:49:02.368Z</time></trkpt><trkpt lat="40.009755" lon="8.5141983"><ele>6.0</ele><time>2026-05-02T10:49:03.368Z</time></trkpt><trkpt lat="40.0097467" lon="8.5139583"><ele>6.666666666666666</ele><time>2026-05-02T10:49:04.368Z</time></trkpt><trkpt lat="40.0097533" lon="8.5137117"><ele>7.333333333333333</ele><time>2026-05-02T10:49:05.368Z</time></trkpt><trkpt lat="40.0097433" lon="8.5134533"><ele>8.0</ele><time>2026-05-02T10:49:06.368Z</time></trkpt><trkpt lat="40.0097467" lon="8.5131933"><ele>8.0</ele><time>2026-05-02T10:49:07.368Z</time></trkpt><trkpt lat="40.009745" lon="8.51292"><ele>8.0</ele><time>2026-05-02T10:49:08.368Z</time></trkpt><trkpt lat="40.00973" lon="8.5126483"><ele>8.0</ele><time>2026-05-02T10:49:09.368Z</time></trkpt><trkpt lat="40.0097333" lon="8.512375"><ele>8.333333333333332</ele><time>2026-05-02T10:49:10.368Z</time></trkpt><trkpt lat="40.0097367" lon="8.512085"><ele>8.666666666666666</ele><time>2026-05-02T10:49:11.368Z</time></trkpt><trkpt lat="40.009735" lon="8.5118017"><ele>9.0</ele><time>2026-05-02T10:49:12.368Z</time></trkpt><trkpt lat="40.0097367" lon="8.5115267"><ele>9.0</ele><time>2026-05-02T10:49:13.368Z</time></trkpt><trkpt lat="40.0097517" lon="8.5112383"><ele>9.0</ele><time>2026-05-02T10:49:14.368Z</time></trkpt><trkpt lat="40.0097467" lon="8.5109683"><ele>9.0</ele><time>2026-05-02T10:49:15.368Z</time></trkpt><trkpt lat="40.0097467" lon="8.5107017"><ele>9.0</ele><time>2026-05-02T10:49:16.368Z</time></trkpt><trkpt lat="40.0097333" lon="8.5104517"><ele>9.0</ele><time>2026-05-02T10:49:17.368Z</time></trkpt><trkpt lat="40.0097333" lon="8.5102017"><ele>9.0</ele><time>2026-05-02T10:49:18.368Z</time></trkpt><trkpt lat="40.0097317" lon="8.5099517"><ele>8.666666666666666</ele><time>2026-05-02T10:49:19.368Z</time></trkpt><trkpt lat="40.0097367" lon="8.5097083"><ele>8.333333333333332</ele><time>2026-05-02T10:49:20.368Z</time></trkpt><trkpt lat="40.00974" lon="8.5094667"><ele>8.0</ele><time>2026-05-02T10:49:21.368Z</time></trkpt><trkpt lat="40.0097433" lon="8.5092217"><ele>7.333333333333333</ele><time>2026-05-02T10:49:22.368Z</time></trkpt><trkpt lat="40.0097367" lon="8.5089767"><ele>6.666666666666666</ele><time>2026-05-02T10:49:23.368Z</time></trkpt><trkpt lat="40.009725" lon="8.5087383"><ele>6.0</ele><time>2026-05-02T10:49:24.368Z</time></trkpt><trkpt lat="40.00972" lon="8.5084883"><ele>6.0</ele><time>2026-05-02T10:49:25.368Z</time></trkpt><trkpt lat="40.0097217" lon="8.508235"><ele>6.0</ele><time>2026-05-02T10:49:26.368Z</time></trkpt><trkpt lat="40.009715" lon="8.5079967"><ele>6.0</ele><time>2026-05-02T10:49:27.368Z</time></trkpt><trkpt lat="40.0097133" lon="8.5077817"><ele>6.0</ele><time>2026-05-02T10:49:28.368Z</time></trkpt><trkpt lat="40.0097117" lon="8.5075683"><ele>6.0</ele><time>2026-05-02T10:49:29.368Z</time></trkpt><trkpt lat="40.009705" lon="8.5073483"><ele>6.0</ele><time>2026-05-02T10:49:30.368Z</time></trkpt><trkpt lat="40.0097" lon="8.5071117"><ele>6.0</ele><time>2026-05-02T10:49:31.368Z</time></trkpt><trkpt lat="40.0096917" lon="8.5068783"><ele>6.0</ele><time>2026-05-02T10:49:32.368Z</time></trkpt><trkpt lat="40.00969" lon="8.5066333"><ele>6.0</ele><time>2026-05-02T10:49:33.368Z</time></trkpt><trkpt lat="40.0096883" lon="8.5063867"><ele>6.333333333333334</ele><time>2026-05-02T10:49:34.368Z</time></trkpt><trkpt lat="40.0096917" lon="8.50615"><ele>6.666666666666667</ele><time>2026-05-02T10:49:35.368Z</time></trkpt><trkpt lat="40.00969" lon="8.5059317"><ele>7.0</ele><time>2026-05-02T10:49:36.368Z</time></trkpt><trkpt lat="40.0096833" lon="8.50575"><ele>7.000000000000001</ele><time>2026-05-02T10:49:37.368Z</time></trkpt><trkpt lat="40.0096867" lon="8.5055917"><ele>7.0</ele><time>2026-05-02T10:49:38.368Z</time></trkpt><trkpt lat="40.0096917" lon="8.505465"><ele>7.0</ele><time>2026-05-02T10:49:39.368Z</time></trkpt><trkpt lat="40.00969" lon="8.5053617"><ele>7.0</ele><time>2026-05-02T10:49:40.368Z</time></trkpt><trkpt lat="40.0096817" lon="8.5052717"><ele>7.000000000000001</ele><time>2026-05-02T10:49:41.368Z</time></trkpt><trkpt lat="40.00968" lon="8.5051783"><ele>7.0</ele><time>2026-05-02T10:49:42.368Z</time></trkpt><trkpt lat="40.00969" lon="8.50506"><ele>7.25</ele><time>2026-05-02T10:49:43.368Z</time></trkpt><trkpt lat="40.0097117" lon="8.5049183"><ele>7.5</ele><time>2026-05-02T10:49:44.368Z</time></trkpt><trkpt lat="40.0097267" lon="8.5047617"><ele>7.75</ele><time>2026-05-02T10:49:45.368Z</time></trkpt><trkpt lat="40.0097483" lon="8.5045917"><ele>8.0</ele><time>2026-05-02T10:49:46.368Z</time></trkpt><trkpt lat="40.00976" lon="8.5044117"><ele>7.5</ele><time>2026-05-02T10:49:47.368Z</time></trkpt><trkpt lat="40.0097783" lon="8.50422"><ele>7.0</ele><time>2026-05-02T10:49:48.368Z</time></trkpt><trkpt lat="40.0097883" lon="8.5040317"><ele>6.5</ele><time>2026-05-02T10:49:49.368Z</time></trkpt><trkpt lat="40.0098117" lon="8.5038367"><ele>6.0</ele><time>2026-05-02T10:49:50.368Z</time></trkpt><trkpt lat="40.00983" lon="8.5036483"><ele>6.0</ele><time>2026-05-02T10:49:51.368Z</time></trkpt><trkpt lat="40.0098533" lon="8.5034433"><ele>6.0</ele><time>2026-05-02T10:49:52.368Z</time></trkpt><trkpt lat="40.00988" lon="8.5032433"><ele>6.0</ele><time>2026-05-02T10:49:53.368Z</time></trkpt><trkpt lat="40.0099" lon="8.5030517"><ele>5.666666666666667</ele><time>2026-05-02T10:49:54.368Z</time></trkpt><trkpt lat="40.0099117" lon="8.5028483"><ele>5.333333333333334</ele><time>2026-05-02T10:49:55.368Z</time></trkpt><trkpt lat="40.00991" lon="8.50266"><ele>5.0</ele><time>2026-05-02T10:49:56.368Z</time></trkpt><trkpt lat="40.0099" lon="8.5024583"><ele>5.0</ele><time>2026-05-02T10:49:57.368Z</time></trkpt><trkpt lat="40.0098933" lon="8.5022333"><ele>5.0</ele><time>2026-05-02T10:49:58.368Z</time></trkpt><trkpt lat="40.009875" lon="8.50201"><ele>5.0</ele><time>2026-05-02T10:49:59.368Z</time></trkpt><trkpt lat="40.00986" lon="8.5018267"><ele>5.0</ele><time>2026-05-02T10:50:00.368Z</time></trkpt><trkpt lat="40.0098517" lon="8.5016667"><ele>5.0</ele><time>2026-05-02T10:50:01.368Z</time></trkpt><trkpt lat="40.0098383" lon="8.50151"><ele>5.0</ele><time>2026-05-02T10:50:02.368Z</time></trkpt><trkpt lat="40.00983" lon="8.50136"><ele>5.0</ele><time>2026-05-02T10:50:03.368Z</time></trkpt><trkpt lat="40.009815" lon="8.501195"><ele>5.333333333333334</ele><time>2026-05-02T10:50:04.368Z</time></trkpt><trkpt lat="40.009795" lon="8.50101"><ele>5.666666666666667</ele><time>2026-05-02T10:50:05.368Z</time></trkpt><trkpt lat="40.0097683" lon="8.500825"><ele>6.0</ele><time>2026-05-02T10:50:06.368Z</time></trkpt><trkpt lat="40.0097467" lon="8.5006133"><ele>6.0</ele><time>2026-05-02T10:50:07.368Z</time></trkpt><trkpt lat="40.0097333" lon="8.50042"><ele>6.0</ele><time>2026-05-02T10:50:08.368Z</time></trkpt><trkpt lat="40.0097233" lon="8.5002483"><ele>6.0</ele><time>2026-05-02T10:50:09.368Z</time></trkpt><trkpt lat="40.0097017" lon="8.5000917"><ele>6.0</ele><time>2026-05-02T10:50:10.368Z</time></trkpt><trkpt lat="40.00969" lon="8.4999283"><ele>6.0</ele><time>2026-05-02T10:50:11.368Z</time></trkpt><trkpt lat="40.009685" lon="8.4997567"><ele>6.0</ele><time>2026-05-02T10:50:12.368Z</time></trkpt><trkpt lat="40.0096883" lon="8.4995733"><ele>6.0</ele><time>2026-05-02T10:50:13.368Z</time></trkpt><trkpt lat="40.0096867" lon="8.4993867"><ele>6.0</ele><time>2026-05-02T10:50:14.368Z</time></trkpt><trkpt lat="40.0096767" lon="8.4992017"><ele>6.0</ele><time>2026-05-02T10:50:15.368Z</time></trkpt><trkpt lat="40.0096817" lon="8.49902"><ele>6.0</ele><time>2026-05-02T10:50:16.368Z</time></trkpt><trkpt lat="40.00968" lon="8.4988917"><ele>6.0</ele><time>2026-05-02T10:50:17.368Z</time></trkpt><trkpt lat="40.00969" lon="8.4988033"><ele>6.0</ele><time>2026-05-02T10:50:18.368Z</time></trkpt><trkpt lat="40.009675" lon="8.4990133"><ele>6.0</ele><time>2026-05-02T10:50:23.368Z</time></trkpt><trkpt lat="40.00968" lon="8.49918"><ele>6.0</ele><time>2026-05-02T10:50:24.368Z</time></trkpt><trkpt lat="40.0096883" lon="8.4993783"><ele>6.0</ele><time>2026-05-02T10:50:25.368Z</time></trkpt><trkpt lat="40.0096983" lon="8.49959"><ele>6.0</ele><time>2026-05-02T10:50:26.368Z</time></trkpt><trkpt lat="40.0097017" lon="8.4997917"><ele>6.0</ele><time>2026-05-02T10:50:27.368Z</time></trkpt><trkpt lat="40.0097" lon="8.4999667"><ele>6.0</ele><time>2026-05-02T10:50:28.368Z</time></trkpt><trkpt lat="40.009705" lon="8.5000883"><ele>6.0</ele><time>2026-05-02T10:50:29.368Z</time></trkpt><trkpt lat="40.009715" lon="8.5001883"><ele>6.0</ele><time>2026-05-02T10:50:31.368Z</time></trkpt><trkpt lat="40.0097767" lon="8.5001617"><ele>6.0</ele><time>2026-05-02T10:50:33.368Z</time></trkpt><trkpt lat="40.0098467" lon="8.50007"><ele>6.0</ele><time>2026-05-02T10:50:35.368Z</time></trkpt><trkpt lat="40.00987" lon="8.4999067"><ele>6.0</ele><time>2026-05-02T10:50:37.368Z</time></trkpt><trkpt lat="40.0098617" lon="8.4997867"><ele>6.0</ele><time>2026-05-02T10:50:38.368Z</time></trkpt><trkpt lat="40.0098567" lon="8.499635"><ele>6.0</ele><time>2026-05-02T10:50:39.368Z</time></trkpt><trkpt lat="40.00985" lon="8.49951"><ele>6.0</ele><time>2026-05-02T10:50:40.368Z</time></trkpt><trkpt lat="40.0098467" lon="8.499405"><ele>6.0</ele><time>2026-05-02T10:50:41.368Z</time></trkpt><trkpt lat="40.0098533" lon="8.49932"><ele>6.0</ele><time>2026-05-02T10:50:43.368Z</time></trkpt><trkpt lat="40.00984" lon="8.49922"><ele>6.0</ele><time>2026-05-02T10:50:56.368Z</time></trkpt><trkpt lat="40.00983" lon="8.499105"><ele>6.0</ele><time>2026-05-02T10:50:57.368Z</time></trkpt><trkpt lat="40.0098133" lon="8.498945"><ele>6.0</ele><time>2026-05-02T10:50:58.368Z</time></trkpt><trkpt lat="40.0098083" lon="8.4987917"><ele>6.0</ele><time>2026-05-02T10:50:59.368Z</time></trkpt><trkpt lat="40.009805" lon="8.4986467"><ele>6.0</ele><time>2026-05-02T10:51:00.368Z</time></trkpt><trkpt lat="40.0098233" lon="8.4985317"><ele>6.0</ele><time>2026-05-02T10:51:01.368Z</time></trkpt><trkpt lat="40.0098333" lon="8.498435"><ele>6.0</ele><time>2026-05-02T10:51:02.368Z</time></trkpt><trkpt lat="40.009845" lon="8.4983533"><ele>6.0</ele><time>2026-05-02T10:51:03.368Z</time></trkpt><trkpt lat="40.0098633" lon="8.49827"><ele>6.0</ele><time>2026-05-02T10:51:05.368Z</time></trkpt><trkpt lat="40.00989" lon="8.4981933"><ele>6.0</ele><time>2026-05-02T10:53:25.367Z</time></trkpt><trkpt lat="40.00991" lon="8.49809"><ele>6.0</ele><time>2026-05-02T10:53:26.367Z</time></trkpt><trkpt lat="40.0099317" lon="8.4979583"><ele>6.0</ele><time>2026-05-02T10:53:27.367Z</time></trkpt><trkpt lat="40.0099433" lon="8.4978133"><ele>6.0</ele><time>2026-05-02T10:53:28.367Z</time></trkpt><trkpt lat="40.0099483" lon="8.4976733"><ele>6.0</ele><time>2026-05-02T10:53:29.367Z</time></trkpt><trkpt lat="40.0099433" lon="8.4975333"><ele>6.0</ele><time>2026-05-02T10:53:30.367Z</time></trkpt><trkpt lat="40.0099183" lon="8.4973967"><ele>6.0</ele><time>2026-05-02T10:53:31.367Z</time></trkpt><trkpt lat="40.00988" lon="8.4972717"><ele>6.0</ele><time>2026-05-02T10:53:32.367Z</time></trkpt><trkpt lat="40.0098383" lon="8.497135"><ele>6.0</ele><time>2026-05-02T10:53:33.367Z</time></trkpt><trkpt lat="40.009795" lon="8.4969733"><ele>6.333333333333334</ele><time>2026-05-02T10:53:34.367Z</time></trkpt><trkpt lat="40.0097867" lon="8.49678"><ele>6.666666666666667</ele><time>2026-05-02T10:53:35.367Z</time></trkpt><trkpt lat="40.0098083" lon="8.4965667"><ele>7.0</ele><time>2026-05-02T10:53:36.367Z</time></trkpt><trkpt lat="40.0098333" lon="8.4963517"><ele>7.0</ele><time>2026-05-02T10:53:37.367Z</time></trkpt><trkpt lat="40.0098633" lon="8.49612"><ele>7.0</ele><time>2026-05-02T10:53:38.367Z</time></trkpt><trkpt lat="40.0098967" lon="8.4958867"><ele>7.0</ele><time>2026-05-02T10:53:39.367Z</time></trkpt><trkpt lat="40.0099433" lon="8.4956483"><ele>7.333333333333334</ele><time>2026-05-02T10:53:40.367Z</time></trkpt><trkpt lat="40.0099867" lon="8.49538"><ele>7.666666666666666</ele><time>2026-05-02T10:53:41.367Z</time></trkpt><trkpt lat="40.0100233" lon="8.495095"><ele>8.0</ele><time>2026-05-02T10:53:42.367Z</time></trkpt><trkpt lat="40.0100633" lon="8.4948"><ele>8.0</ele><time>2026-05-02T10:53:43.367Z</time></trkpt><trkpt lat="40.0100967" lon="8.4944967"><ele>8.0</ele><time>2026-05-02T10:53:44.367Z</time></trkpt><trkpt lat="40.0101217" lon="8.4942017"><ele>8.0</ele><time>2026-05-02T10:53:45.367Z</time></trkpt><trkpt lat="40.0101417" lon="8.4939217"><ele>8.0</ele><time>2026-05-02T10:53:46.367Z</time></trkpt><trkpt lat="40.010145" lon="8.4936467"><ele>8.0</ele><time>2026-05-02T10:53:47.367Z</time></trkpt><trkpt lat="40.0101383" lon="8.493385"><ele>8.0</ele><time>2026-05-02T10:53:48.367Z</time></trkpt><trkpt lat="40.010115" lon="8.4931133"><ele>8.0</ele><time>2026-05-02T10:53:49.367Z</time></trkpt><trkpt lat="40.0100983" lon="8.4928367"><ele>8.0</ele><time>2026-05-02T10:53:50.367Z</time></trkpt><trkpt lat="40.01008" lon="8.49256"><ele>8.0</ele><time>2026-05-02T10:53:51.367Z</time></trkpt><trkpt lat="40.0100667" lon="8.4922833"><ele>8.0</ele><time>2026-05-02T10:53:52.367Z</time></trkpt><trkpt lat="40.0100467" lon="8.491995"><ele>8.0</ele><time>2026-05-02T10:53:53.367Z</time></trkpt><trkpt lat="40.0100267" lon="8.4917033"><ele>7.666666666666666</ele><time>2026-05-02T10:53:54.367Z</time></trkpt><trkpt lat="40.0100217" lon="8.4914083"><ele>7.333333333333334</ele><time>2026-05-02T10:53:55.367Z</time></trkpt><trkpt lat="40.01004" lon="8.491155"><ele>7.0</ele><time>2026-05-02T10:53:56.367Z</time></trkpt><trkpt lat="40.0101083" lon="8.490925"><ele>7.0</ele><time>2026-05-02T10:53:57.367Z</time></trkpt><trkpt lat="40.0102017" lon="8.4907167"><ele>7.0</ele><time>2026-05-02T10:53:58.367Z</time></trkpt><trkpt lat="40.0103033" lon="8.4904883"><ele>7.0</ele><time>2026-05-02T10:53:59.367Z</time></trkpt><trkpt lat="40.0104333" lon="8.49026"><ele>6.666666666666667</ele><time>2026-05-02T10:54:00.367Z</time></trkpt><trkpt lat="40.0105683" lon="8.4900467"><ele>6.333333333333334</ele><time>2026-05-02T10:54:01.367Z</time></trkpt><trkpt lat="40.0107017" lon="8.4898433"><ele>6.0</ele><time>2026-05-02T10:54:02.367Z</time></trkpt><trkpt lat="40.0108433" lon="8.4896483"><ele>6.333333333333334</ele><time>2026-05-02T10:54:03.367Z</time></trkpt><trkpt lat="40.010985" lon="8.4894783"><ele>6.666666666666667</ele><time>2026-05-02T10:54:04.367Z</time></trkpt><trkpt lat="40.0111283" lon="8.4893033"><ele>7.0</ele><time>2026-05-02T10:54:05.367Z</time></trkpt><trkpt lat="40.0112817" lon="8.489145"><ele>7.0</ele><time>2026-05-02T10:54:06.367Z</time></trkpt><trkpt lat="40.0114367" lon="8.4889883"><ele>7.0</ele><time>2026-05-02T10:54:07.367Z</time></trkpt><trkpt lat="40.011585" lon="8.4888433"><ele>7.0</ele><time>2026-05-02T10:54:08.367Z</time></trkpt><trkpt lat="40.01173" lon="8.4887017"><ele>7.0</ele><time>2026-05-02T10:54:09.367Z</time></trkpt><trkpt lat="40.01189" lon="8.4885583"><ele>7.0</ele><time>2026-05-02T10:54:10.367Z</time></trkpt><trkpt lat="40.0120533" lon="8.4884083"><ele>7.0</ele><time>2026-05-02T10:54:11.367Z</time></trkpt><trkpt lat="40.012215" lon="8.4882717"><ele>7.0</ele><time>2026-05-02T10:54:12.367Z</time></trkpt><trkpt lat="40.01236" lon="8.4881683"><ele>7.0</ele><time>2026-05-02T10:54:13.367Z</time></trkpt><trkpt lat="40.0125" lon="8.48804"><ele>7.0</ele><time>2026-05-02T10:54:14.367Z</time></trkpt><trkpt lat="40.01264" lon="8.4878983"><ele>7.0</ele><time>2026-05-02T10:54:15.367Z</time></trkpt><trkpt lat="40.0127633" lon="8.4877517"><ele>7.0</ele><time>2026-05-02T10:54:16.367Z</time></trkpt><trkpt lat="40.01286" lon="8.48759"><ele>7.0</ele><time>2026-05-02T10:54:17.367Z</time></trkpt><trkpt lat="40.012945" lon="8.4874183"><ele>7.0</ele><time>2026-05-02T10:54:18.367Z</time></trkpt><trkpt lat="40.013025" lon="8.4872517"><ele>7.0</ele><time>2026-05-02T10:54:19.367Z</time></trkpt><trkpt lat="40.0131133" lon="8.48708"><ele>7.0</ele><time>2026-05-02T10:54:20.367Z</time></trkpt><trkpt lat="40.0132017" lon="8.4869183"><ele>7.333333333333334</ele><time>2026-05-02T10:54:21.367Z</time></trkpt><trkpt lat="40.0133033" lon="8.4867483"><ele>7.666666666666666</ele><time>2026-05-02T10:54:22.367Z</time></trkpt><trkpt lat="40.01339" lon="8.486565"><ele>8.0</ele><time>2026-05-02T10:54:23.367Z</time></trkpt><trkpt lat="40.01347" lon="8.4863817"><ele>7.666666666666666</ele><time>2026-05-02T10:54:24.367Z</time></trkpt><trkpt lat="40.0135267" lon="8.4861967"><ele>7.333333333333334</ele><time>2026-05-02T10:54:25.367Z</time></trkpt><trkpt lat="40.013575" lon="8.4859917"><ele>7.0</ele><time>2026-05-02T10:54:26.367Z</time></trkpt><trkpt lat="40.0136117" lon="8.4857883"><ele>7.0</ele><time>2026-05-02T10:54:27.367Z</time></trkpt><trkpt lat="40.0136333" lon="8.4855867"><ele>7.0</ele><time>2026-05-02T10:54:28.367Z</time></trkpt><trkpt lat="40.0136267" lon="8.4853967"><ele>7.0</ele><time>2026-05-02T10:54:29.367Z</time></trkpt><trkpt lat="40.0136183" lon="8.4851983"><ele>7.0</ele><time>2026-05-02T10:54:30.367Z</time></trkpt><trkpt lat="40.0136083" lon="8.4849633"><ele>7.0</ele><time>2026-05-02T10:54:31.367Z</time></trkpt><trkpt lat="40.0135883" lon="8.48473"><ele>7.0</ele><time>2026-05-02T10:54:32.367Z</time></trkpt><trkpt lat="40.0135733" lon="8.4845117"><ele>7.0</ele><time>2026-05-02T10:54:33.367Z</time></trkpt><trkpt lat="40.0135583" lon="8.4842567"><ele>7.0</ele><time>2026-05-02T10:54:34.367Z</time></trkpt><trkpt lat="40.0135483" lon="8.4840117"><ele>7.0</ele><time>2026-05-02T10:54:35.367Z</time></trkpt><trkpt lat="40.01354" lon="8.4837633"><ele>7.333333333333334</ele><time>2026-05-02T10:54:36.367Z</time></trkpt><trkpt lat="40.0135367" lon="8.4834917"><ele>7.666666666666666</ele><time>2026-05-02T10:54:37.367Z</time></trkpt><trkpt lat="40.0135317" lon="8.48323"><ele>8.0</ele><time>2026-05-02T10:54:38.367Z</time></trkpt><trkpt lat="40.0135233" lon="8.482985"><ele>8.666666666666666</ele><time>2026-05-02T10:54:39.367Z</time></trkpt><trkpt lat="40.0135167" lon="8.4827533"><ele>9.333333333333334</ele><time>2026-05-02T10:54:40.367Z</time></trkpt><trkpt lat="40.0135067" lon="8.4825533"><ele>10.0</ele><time>2026-05-02T10:54:41.367Z</time></trkpt><trkpt lat="40.0134867" lon="8.4823683"><ele>10.0</ele><time>2026-05-02T10:54:42.367Z</time></trkpt><trkpt lat="40.0134717" lon="8.4821617"><ele>10.0</ele><time>2026-05-02T10:54:43.367Z</time></trkpt><trkpt lat="40.0134533" lon="8.4819333"><ele>10.0</ele><time>2026-05-02T10:54:44.367Z</time></trkpt><trkpt lat="40.0134367" lon="8.4816833"><ele>9.666666666666668</ele><time>2026-05-02T10:54:45.367Z</time></trkpt><trkpt lat="40.0134067" lon="8.48144"><ele>9.333333333333334</ele><time>2026-05-02T10:54:46.367Z</time></trkpt><trkpt lat="40.0133933" lon="8.481225"><ele>9.0</ele><time>2026-05-02T10:54:47.367Z</time></trkpt><trkpt lat="40.013385" lon="8.4810317"><ele>8.666666666666666</ele><time>2026-05-02T10:54:48.367Z</time></trkpt><trkpt lat="40.01338" lon="8.4808383"><ele>8.333333333333332</ele><time>2026-05-02T10:54:49.367Z</time></trkpt><trkpt lat="40.013375" lon="8.4806183"><ele>8.0</ele><time>2026-05-02T10:54:50.367Z</time></trkpt><trkpt lat="40.013375" lon="8.4803767"><ele>8.0</ele><time>2026-05-02T10:54:51.367Z</time></trkpt><trkpt lat="40.0133683" lon="8.48013"><ele>8.0</ele><time>2026-05-02T10:54:52.367Z</time></trkpt><trkpt lat="40.0133583" lon="8.479865"><ele>8.0</ele><time>2026-05-02T10:54:53.367Z</time></trkpt><trkpt lat="40.0133417" lon="8.4796"><ele>7.666666666666666</ele><time>2026-05-02T10:54:54.367Z</time></trkpt><trkpt lat="40.0133417" lon="8.4793233"><ele>7.333333333333334</ele><time>2026-05-02T10:54:55.367Z</time></trkpt><trkpt lat="40.01334" lon="8.4790433"><ele>7.0</ele><time>2026-05-02T10:54:56.367Z</time></trkpt><trkpt lat="40.0133217" lon="8.478735"><ele>8.0</ele><time>2026-05-02T10:54:57.367Z</time></trkpt><trkpt lat="40.0133083" lon="8.478425"><ele>9.0</ele><time>2026-05-02T10:54:58.367Z</time></trkpt><trkpt lat="40.0132917" lon="8.4781167"><ele>9.5</ele><time>2026-05-02T10:54:59.367Z</time></trkpt><trkpt lat="40.01327" lon="8.47778"><ele>10.0</ele><time>2026-05-02T10:55:00.367Z</time></trkpt><trkpt lat="40.0132583" lon="8.4774567"><ele>10.0</ele><time>2026-05-02T10:55:01.367Z</time></trkpt><trkpt lat="40.013245" lon="8.477145"><ele>10.0</ele><time>2026-05-02T10:55:02.367Z</time></trkpt><trkpt lat="40.01322" lon="8.4768483"><ele>10.0</ele><time>2026-05-02T10:55:03.367Z</time></trkpt><trkpt lat="40.0132083" lon="8.4765667"><ele>10.0</ele><time>2026-05-02T10:55:04.367Z</time></trkpt><trkpt lat="40.013195" lon="8.4762917"><ele>10.0</ele><time>2026-05-02T10:55:05.367Z</time></trkpt><trkpt lat="40.013185" lon="8.4760433"><ele>10.0</ele><time>2026-05-02T10:55:06.367Z</time></trkpt><trkpt lat="40.01317" lon="8.4758183"><ele>10.0</ele><time>2026-05-02T10:55:07.367Z</time></trkpt><trkpt lat="40.013165" lon="8.47561"><ele>10.0</ele><time>2026-05-02T10:55:08.367Z</time></trkpt><trkpt lat="40.0131483" lon="8.4754317"><ele>10.2</ele><time>2026-05-02T10:55:09.367Z</time></trkpt><trkpt lat="40.0131433" lon="8.47528"><ele>10.4</ele><time>2026-05-02T10:55:10.367Z</time></trkpt><trkpt lat="40.0131583" lon="8.4751633"><ele>10.600000000000001</ele><time>2026-05-02T10:55:11.367Z</time></trkpt><trkpt lat="40.0131983" lon="8.475075"><ele>10.8</ele><time>2026-05-02T10:55:12.367Z</time></trkpt><trkpt lat="40.0132783" lon="8.4750117"><ele>11.0</ele><time>2026-05-02T10:55:13.367Z</time></trkpt><trkpt lat="40.0133733" lon="8.47496"><ele>10.600000000000001</ele><time>2026-05-02T10:55:14.367Z</time></trkpt><trkpt lat="40.01344" lon="8.47491"><ele>10.200000000000001</ele><time>2026-05-02T10:55:15.367Z</time></trkpt><trkpt lat="40.01349" lon="8.4748333"><ele>9.8</ele><time>2026-05-02T10:55:16.367Z</time></trkpt><trkpt lat="40.0134933" lon="8.4747033"><ele>9.4</ele><time>2026-05-02T10:55:17.367Z</time></trkpt><trkpt lat="40.0134767" lon="8.4745467"><ele>9.0</ele><time>2026-05-02T10:55:18.367Z</time></trkpt><trkpt lat="40.0134633" lon="8.474355"><ele>9.0</ele><time>2026-05-02T10:55:19.367Z</time></trkpt><trkpt lat="40.0134383" lon="8.47414"><ele>9.0</ele><time>2026-05-02T10:55:20.367Z</time></trkpt><trkpt lat="40.0134167" lon="8.4739283"><ele>9.0</ele><time>2026-05-02T10:55:21.367Z</time></trkpt><trkpt lat="40.013405" lon="8.47373"><ele>8.6</ele><time>2026-05-02T10:55:22.367Z</time></trkpt><trkpt lat="40.013405" lon="8.4735883"><ele>8.2</ele><time>2026-05-02T10:55:23.367Z</time></trkpt><trkpt lat="40.0134217" lon="8.47346"><ele>7.799999999999999</ele><time>2026-05-02T10:55:24.367Z</time></trkpt><trkpt lat="40.0134567" lon="8.473355"><ele>7.3999999999999995</ele><time>2026-05-02T10:55:25.367Z</time></trkpt><trkpt lat="40.0135083" lon="8.4732533"><ele>7.0</ele><time>2026-05-02T10:55:26.367Z</time></trkpt><trkpt lat="40.0135733" lon="8.4731483"><ele>7.0</ele><time>2026-05-02T10:55:27.367Z</time></trkpt><trkpt lat="40.01365" lon="8.4730217"><ele>7.0</ele><time>2026-05-02T10:55:28.367Z</time></trkpt><trkpt lat="40.0137233" lon="8.4728783"><ele>7.0</ele><time>2026-05-02T10:55:29.367Z</time></trkpt><trkpt lat="40.0137967" lon="8.4727267"><ele>7.0</ele><time>2026-05-02T10:55:30.367Z</time></trkpt><trkpt lat="40.01387" lon="8.4725983"><ele>7.3999999999999995</ele><time>2026-05-02T10:55:31.367Z</time></trkpt><trkpt lat="40.01396" lon="8.472475"><ele>7.799999999999999</ele><time>2026-05-02T10:55:32.367Z</time></trkpt><trkpt lat="40.014055" lon="8.4723817"><ele>8.2</ele><time>2026-05-02T10:55:33.367Z</time></trkpt><trkpt lat="40.0141333" lon="8.47232"><ele>8.6</ele><time>2026-05-02T10:55:34.367Z</time></trkpt><trkpt lat="40.0141933" lon="8.4722917"><ele>9.0</ele><time>2026-05-02T10:55:35.367Z</time></trkpt><trkpt lat="40.0141583" lon="8.472185"><ele>9.0</ele><time>2026-05-02T10:55:39.367Z</time></trkpt><trkpt lat="40.0140733" lon="8.4721083"><ele>9.0</ele><time>2026-05-02T10:55:40.367Z</time></trkpt><trkpt lat="40.01397" lon="8.4720083"><ele>9.0</ele><time>2026-05-02T10:55:41.367Z</time></trkpt><trkpt lat="40.0138467" lon="8.4718833"><ele>9.0</ele><time>2026-05-02T10:55:42.367Z</time></trkpt><trkpt lat="40.0137067" lon="8.471735"><ele>9.0</ele><time>2026-05-02T10:55:43.367Z</time></trkpt><trkpt lat="40.0135633" lon="8.47158"><ele>9.0</ele><time>2026-05-02T10:55:44.367Z</time></trkpt><trkpt lat="40.0133967" lon="8.47144"><ele>9.0</ele><time>2026-05-02T10:55:45.367Z</time></trkpt><trkpt lat="40.0132067" lon="8.4713083"><ele>9.0</ele><time>2026-05-02T10:55:46.367Z</time></trkpt><trkpt lat="40.013005" lon="8.4711833"><ele>9.0</ele><time>2026-05-02T10:55:47.367Z</time></trkpt><trkpt lat="40.0128133" lon="8.4710717"><ele>9.0</ele><time>2026-05-02T10:55:48.367Z</time></trkpt><trkpt lat="40.012645" lon="8.470975"><ele>9.0</ele><time>2026-05-02T10:55:49.367Z</time></trkpt><trkpt lat="40.012495" lon="8.4708883"><ele>9.0</ele><time>2026-05-02T10:55:50.367Z</time></trkpt><trkpt lat="40.0123683" lon="8.4708133"><ele>9.0</ele><time>2026-05-02T10:55:51.367Z</time></trkpt><trkpt lat="40.0122867" lon="8.470735"><ele>9.0</ele><time>2026-05-02T10:55:52.367Z</time></trkpt><trkpt lat="40.0122433" lon="8.4706667"><ele>9.25</ele><time>2026-05-02T10:55:53.367Z</time></trkpt><trkpt lat="40.0122083" lon="8.47057"><ele>9.5</ele><time>2026-05-02T10:55:54.367Z</time></trkpt><trkpt lat="40.0122117" lon="8.4704183"><ele>9.75</ele><time>2026-05-02T10:55:55.367Z</time></trkpt><trkpt lat="40.01223" lon="8.470215"><ele>10.0</ele><time>2026-05-02T10:55:56.367Z</time></trkpt><trkpt lat="40.01225" lon="8.46997"><ele>10.333333333333334</ele><time>2026-05-02T10:55:57.367Z</time></trkpt><trkpt lat="40.01227" lon="8.469725"><ele>10.666666666666666</ele><time>2026-05-02T10:55:58.367Z</time></trkpt><trkpt lat="40.0122883" lon="8.4694633"><ele>11.0</ele><time>2026-05-02T10:55:59.367Z</time></trkpt><trkpt lat="40.01231" lon="8.4692117"><ele>11.0</ele><time>2026-05-02T10:56:00.367Z</time></trkpt><trkpt lat="40.0123417" lon="8.46898"><ele>11.0</ele><time>2026-05-02T10:56:01.367Z</time></trkpt><trkpt lat="40.0123983" lon="8.4687617"><ele>11.0</ele><time>2026-05-02T10:56:02.367Z</time></trkpt><trkpt lat="40.012445" lon="8.4685833"><ele>11.0</ele><time>2026-05-02T10:56:03.367Z</time></trkpt><trkpt lat="40.0124617" lon="8.4684717"><ele>11.0</ele><time>2026-05-02T10:56:04.367Z</time></trkpt><trkpt lat="40.0124533" lon="8.4683617"><ele>11.0</ele><time>2026-05-02T10:56:05.367Z</time></trkpt><trkpt lat="40.0124183" lon="8.4682283"><ele>11.0</ele><time>2026-05-02T10:56:06.367Z</time></trkpt><trkpt lat="40.0123717" lon="8.4680667"><ele>11.0</ele><time>2026-05-02T10:56:07.367Z</time></trkpt><trkpt lat="40.0123367" lon="8.4678717"><ele>10.666666666666666</ele><time>2026-05-02T10:56:08.367Z</time></trkpt><trkpt lat="40.0123133" lon="8.4676717"><ele>10.333333333333334</ele><time>2026-05-02T10:56:09.367Z</time></trkpt><trkpt lat="40.0123033" lon="8.4674383"><ele>10.0</ele><time>2026-05-02T10:56:10.367Z</time></trkpt><trkpt lat="40.012275" lon="8.467205"><ele>9.666666666666668</ele><time>2026-05-02T10:56:11.367Z</time></trkpt><trkpt lat="40.012235" lon="8.4669767"><ele>9.333333333333334</ele><time>2026-05-02T10:56:12.367Z</time></trkpt><trkpt lat="40.0122067" lon="8.4667417"><ele>9.0</ele><time>2026-05-02T10:56:13.367Z</time></trkpt><trkpt lat="40.0121617" lon="8.4665083"><ele>9.0</ele><time>2026-05-02T10:56:14.367Z</time></trkpt><trkpt lat="40.0121117" lon="8.4662867"><ele>9.0</ele><time>2026-05-02T10:56:15.367Z</time></trkpt><trkpt lat="40.0120617" lon="8.4660767"><ele>9.0</ele><time>2026-05-02T10:56:16.367Z</time></trkpt><trkpt lat="40.0120283" lon="8.4658533"><ele>9.333333333333334</ele><time>2026-05-02T10:56:17.367Z</time></trkpt><trkpt lat="40.0120033" lon="8.4656483"><ele>9.666666666666668</ele><time>2026-05-02T10:56:18.367Z</time></trkpt><trkpt lat="40.011995" lon="8.4654617"><ele>10.0</ele><time>2026-05-02T10:56:19.367Z</time></trkpt><trkpt lat="40.01198" lon="8.4652683"><ele>10.333333333333334</ele><time>2026-05-02T10:56:20.367Z</time></trkpt><trkpt lat="40.01197" lon="8.4650617"><ele>10.666666666666666</ele><time>2026-05-02T10:56:21.367Z</time></trkpt><trkpt lat="40.0119817" lon="8.46485"><ele>11.0</ele><time>2026-05-02T10:56:22.367Z</time></trkpt><trkpt lat="40.0119933" lon="8.4646333"><ele>10.666666666666666</ele><time>2026-05-02T10:56:23.367Z</time></trkpt><trkpt lat="40.0119917" lon="8.4644117"><ele>10.333333333333334</ele><time>2026-05-02T10:56:24.367Z</time></trkpt><trkpt lat="40.0120067" lon="8.4641967"><ele>10.0</ele><time>2026-05-02T10:56:25.367Z</time></trkpt><trkpt lat="40.0120117" lon="8.4640217"><ele>10.0</ele><time>2026-05-02T10:56:26.367Z</time></trkpt><trkpt lat="40.01202" lon="8.463865"><ele>10.0</ele><time>2026-05-02T10:56:27.367Z</time></trkpt><trkpt lat="40.012005" lon="8.4637167"><ele>10.0</ele><time>2026-05-02T10:56:28.367Z</time></trkpt><trkpt lat="40.0119567" lon="8.463555"><ele>10.0</ele><time>2026-05-02T10:56:29.367Z</time></trkpt><trkpt lat="40.0118983" lon="8.463365"><ele>10.0</ele><time>2026-05-02T10:56:30.367Z</time></trkpt><trkpt lat="40.0118467" lon="8.46317"><ele>10.0</ele><time>2026-05-02T10:56:31.367Z</time></trkpt><trkpt lat="40.0117833" lon="8.4630217"><ele>10.0</ele><time>2026-05-02T10:56:32.367Z</time></trkpt><trkpt lat="40.01174" lon="8.4629017"><ele>10.0</ele><time>2026-05-02T10:56:33.367Z</time></trkpt><trkpt lat="40.0116917" lon="8.462795"><ele>9.4</ele><time>2026-05-02T10:56:34.367Z</time></trkpt><trkpt lat="40.0116783" lon="8.4626833"><ele>8.8</ele><time>2026-05-02T10:56:35.367Z</time></trkpt><trkpt lat="40.0116933" lon="8.4625617"><ele>8.2</ele><time>2026-05-02T10:56:36.367Z</time></trkpt><trkpt lat="40.0117383" lon="8.4624117"><ele>7.6</ele><time>2026-05-02T10:56:37.367Z</time></trkpt><trkpt lat="40.0117983" lon="8.4622433"><ele>7.0</ele><time>2026-05-02T10:56:38.367Z</time></trkpt><trkpt lat="40.0118483" lon="8.4620917"><ele>7.0</ele><time>2026-05-02T10:56:39.367Z</time></trkpt><trkpt lat="40.01189" lon="8.4619233"><ele>7.0</ele><time>2026-05-02T10:56:40.367Z</time></trkpt><trkpt lat="40.0119017" lon="8.4617667"><ele>7.0</ele><time>2026-05-02T10:56:41.367Z</time></trkpt><trkpt lat="40.01189" lon="8.4616167"><ele>7.0</ele><time>2026-05-02T10:56:42.367Z</time></trkpt><trkpt lat="40.0118817" lon="8.461445"><ele>7.25</ele><time>2026-05-02T10:56:43.367Z</time></trkpt><trkpt lat="40.011875" lon="8.46128"><ele>7.5</ele><time>2026-05-02T10:56:44.367Z</time></trkpt><trkpt lat="40.0118517" lon="8.461115"><ele>7.75</ele><time>2026-05-02T10:56:45.367Z</time></trkpt><trkpt lat="40.0118217" lon="8.4609433"><ele>8.0</ele><time>2026-05-02T10:56:46.367Z</time></trkpt><trkpt lat="40.0117867" lon="8.4607433"><ele>8.0</ele><time>2026-05-02T10:56:47.367Z</time></trkpt><trkpt lat="40.0117533" lon="8.4605333"><ele>8.0</ele><time>2026-05-02T10:56:48.367Z</time></trkpt><trkpt lat="40.0117217" lon="8.4603067"><ele>8.0</ele><time>2026-05-02T10:56:49.367Z</time></trkpt><trkpt lat="40.011665" lon="8.4601117"><ele>8.666666666666666</ele><time>2026-05-02T10:56:50.367Z</time></trkpt><trkpt lat="40.0115767" lon="8.4599133"><ele>9.333333333333334</ele><time>2026-05-02T10:56:51.367Z</time></trkpt><trkpt lat="40.0114917" lon="8.459715"><ele>10.0</ele><time>2026-05-02T10:56:52.367Z</time></trkpt><trkpt lat="40.01142" lon="8.4595333"><ele>10.0</ele><time>2026-05-02T10:56:53.367Z</time></trkpt><trkpt lat="40.0113767" lon="8.45934"><ele>10.0</ele><time>2026-05-02T10:56:54.367Z</time></trkpt><trkpt lat="40.01136" lon="8.4591683"><ele>10.0</ele><time>2026-05-02T10:56:55.367Z</time></trkpt><trkpt lat="40.0113617" lon="8.45903"><ele>10.0</ele><time>2026-05-02T10:56:56.367Z</time></trkpt><trkpt lat="40.011345" lon="8.45891"><ele>10.0</ele><time>2026-05-02T10:56:57.367Z</time></trkpt><trkpt lat="40.0112983" lon="8.45879"><ele>10.0</ele><time>2026-05-02T10:56:58.367Z</time></trkpt><trkpt lat="40.0112133" lon="8.4586733"><ele>10.0</ele><time>2026-05-02T10:56:59.367Z</time></trkpt><trkpt lat="40.01114" lon="8.458535"><ele>10.0</ele><time>2026-05-02T10:57:00.367Z</time></trkpt><trkpt lat="40.0110767" lon="8.458365"><ele>10.0</ele><time>2026-05-02T10:57:01.367Z</time></trkpt><trkpt lat="40.0110233" lon="8.4581583"><ele>10.0</ele><time>2026-05-02T10:57:02.367Z</time></trkpt><trkpt lat="40.0109933" lon="8.4579583"><ele>10.0</ele><time>2026-05-02T10:57:03.367Z</time></trkpt><trkpt lat="40.0109617" lon="8.4577617"><ele>10.0</ele><time>2026-05-02T10:57:04.367Z</time></trkpt><trkpt lat="40.0109183" lon="8.457585"><ele>10.0</ele><time>2026-05-02T10:57:05.367Z</time></trkpt><trkpt lat="40.0108583" lon="8.4574217"><ele>10.0</ele><time>2026-05-02T10:57:06.367Z</time></trkpt><trkpt lat="40.0107617" lon="8.4572467"><ele>10.0</ele><time>2026-05-02T10:57:07.367Z</time></trkpt><trkpt lat="40.010655" lon="8.4570683"><ele>9.666666666666668</ele><time>2026-05-02T10:57:08.367Z</time></trkpt><trkpt lat="40.01055" lon="8.4568867"><ele>9.333333333333334</ele><time>2026-05-02T10:57:09.367Z</time></trkpt><trkpt lat="40.0104433" lon="8.4567067"><ele>9.0</ele><time>2026-05-02T10:57:10.367Z</time></trkpt><trkpt lat="40.010325" lon="8.456535"><ele>9.0</ele><time>2026-05-02T10:57:11.367Z</time></trkpt><trkpt lat="40.0102033" lon="8.45639"><ele>9.0</ele><time>2026-05-02T10:57:12.367Z</time></trkpt><trkpt lat="40.0101017" lon="8.4562733"><ele>9.0</ele><time>2026-05-02T10:57:13.367Z</time></trkpt><trkpt lat="40.0100167" lon="8.4561617"><ele>9.0</ele><time>2026-05-02T10:57:14.367Z</time></trkpt><trkpt lat="40.0099367" lon="8.4560467"><ele>9.5</ele><time>2026-05-02T10:57:15.367Z</time></trkpt><trkpt lat="40.0098667" lon="8.4559"><ele>10.0</ele><time>2026-05-02T10:57:16.367Z</time></trkpt><trkpt lat="40.0098" lon="8.4557533"><ele>10.5</ele><time>2026-05-02T10:57:17.367Z</time></trkpt><trkpt lat="40.00975" lon="8.4556183"><ele>11.0</ele><time>2026-05-02T10:57:18.367Z</time></trkpt><trkpt lat="40.00972" lon="8.455465"><ele>10.0</ele><time>2026-05-02T10:57:19.367Z</time></trkpt><trkpt lat="40.0096917" lon="8.4552867"><ele>9.0</ele><time>2026-05-02T10:57:20.367Z</time></trkpt><trkpt lat="40.009645" lon="8.4550967"><ele>8.0</ele><time>2026-05-02T10:57:21.367Z</time></trkpt><trkpt lat="40.00957" lon="8.454875"><ele>8.0</ele><time>2026-05-02T10:57:22.367Z</time></trkpt><trkpt lat="40.0094817" lon="8.4546367"><ele>8.0</ele><time>2026-05-02T10:57:23.367Z</time></trkpt><trkpt lat="40.00938" lon="8.4543867"><ele>8.0</ele><time>2026-05-02T10:57:24.367Z</time></trkpt><trkpt lat="40.0093" lon="8.45416"><ele>8.0</ele><time>2026-05-02T10:57:25.367Z</time></trkpt><trkpt lat="40.0092417" lon="8.4539717"><ele>8.0</ele><time>2026-05-02T10:57:26.367Z</time></trkpt><trkpt lat="40.0092133" lon="8.4537983"><ele>8.0</ele><time>2026-05-02T10:57:27.367Z</time></trkpt><trkpt lat="40.00919" lon="8.4536283"><ele>8.0</ele><time>2026-05-02T10:57:28.367Z</time></trkpt><trkpt lat="40.0091567" lon="8.4534567"><ele>7.75</ele><time>2026-05-02T10:57:29.367Z</time></trkpt><trkpt lat="40.0091067" lon="8.4532817"><ele>7.5</ele><time>2026-05-02T10:57:30.367Z</time></trkpt><trkpt lat="40.0090433" lon="8.453105"><ele>7.25</ele><time>2026-05-02T10:57:31.367Z</time></trkpt><trkpt lat="40.0089617" lon="8.452945"><ele>7.0</ele><time>2026-05-02T10:57:32.367Z</time></trkpt><trkpt lat="40.00889" lon="8.4528083"><ele>6.5</ele><time>2026-05-02T10:57:33.367Z</time></trkpt><trkpt lat="40.0087983" lon="8.452685"><ele>6.0</ele><time>2026-05-02T10:57:34.367Z</time></trkpt><trkpt lat="40.0086683" lon="8.452575"><ele>5.5</ele><time>2026-05-02T10:57:35.367Z</time></trkpt><trkpt lat="40.0085233" lon="8.45248"><ele>5.0</ele><time>2026-05-02T10:57:36.367Z</time></trkpt><trkpt lat="40.0083567" lon="8.4524017"><ele>5.666666666666667</ele><time>2026-05-02T10:57:37.367Z</time></trkpt><trkpt lat="40.0081917" lon="8.4523283"><ele>6.333333333333334</ele><time>2026-05-02T10:57:38.367Z</time></trkpt><trkpt lat="40.00803" lon="8.4522533"><ele>7.0</ele><time>2026-05-02T10:57:39.367Z</time></trkpt><trkpt lat="40.0078933" lon="8.452155"><ele>6.666666666666667</ele><time>2026-05-02T10:57:40.367Z</time></trkpt><trkpt lat="40.00776" lon="8.45204"><ele>6.333333333333334</ele><time>2026-05-02T10:57:41.367Z</time></trkpt><trkpt lat="40.0076267" lon="8.45191"><ele>6.0</ele><time>2026-05-02T10:57:42.367Z</time></trkpt><trkpt lat="40.00749" lon="8.4517817"><ele>6.5</ele><time>2026-05-02T10:57:43.367Z</time></trkpt><trkpt lat="40.0073683" lon="8.4516867"><ele>7.0</ele><time>2026-05-02T10:57:44.367Z</time></trkpt><trkpt lat="40.0072683" lon="8.4515967"><ele>7.5</ele><time>2026-05-02T10:57:45.367Z</time></trkpt><trkpt lat="40.0071767" lon="8.4515"><ele>8.0</ele><time>2026-05-02T10:57:46.367Z</time></trkpt><trkpt lat="40.0070783" lon="8.451375"><ele>7.333333333333333</ele><time>2026-05-02T10:57:47.367Z</time></trkpt><trkpt lat="40.0069733" lon="8.45121"><ele>6.666666666666666</ele><time>2026-05-02T10:57:48.367Z</time></trkpt><trkpt lat="40.0068583" lon="8.4510383"><ele>6.0</ele><time>2026-05-02T10:57:49.367Z</time></trkpt><trkpt lat="40.006755" lon="8.4508717"><ele>6.333333333333334</ele><time>2026-05-02T10:57:50.367Z</time></trkpt><trkpt lat="40.006635" lon="8.4507233"><ele>6.666666666666667</ele><time>2026-05-02T10:57:51.367Z</time></trkpt><trkpt lat="40.0065" lon="8.4505883"><ele>7.0</ele><time>2026-05-02T10:57:52.367Z</time></trkpt><trkpt lat="40.0063483" lon="8.45045"><ele>6.333333333333334</ele><time>2026-05-02T10:57:53.367Z</time></trkpt><trkpt lat="40.00621" lon="8.4503217"><ele>5.666666666666667</ele><time>2026-05-02T10:57:54.367Z</time></trkpt><trkpt lat="40.0060683" lon="8.4501883"><ele>5.0</ele><time>2026-05-02T10:57:55.367Z</time></trkpt><trkpt lat="40.0059433" lon="8.4500617"><ele>5.333333333333334</ele><time>2026-05-02T10:57:56.367Z</time></trkpt><trkpt lat="40.0058217" lon="8.44993"><ele>5.666666666666667</ele><time>2026-05-02T10:57:57.367Z</time></trkpt><trkpt lat="40.0057033" lon="8.449805"><ele>6.0</ele><time>2026-05-02T10:57:58.367Z</time></trkpt><trkpt lat="40.005585" lon="8.4496883"><ele>5.666666666666667</ele><time>2026-05-02T10:57:59.367Z</time></trkpt><trkpt lat="40.00546" lon="8.4495567"><ele>5.333333333333334</ele><time>2026-05-02T10:58:00.367Z</time></trkpt><trkpt lat="40.0053083" lon="8.44939"><ele>5.0</ele><time>2026-05-02T10:58:01.367Z</time></trkpt><trkpt lat="40.0051583" lon="8.44923"><ele>5.0</ele><time>2026-05-02T10:58:02.367Z</time></trkpt><trkpt lat="40.0049967" lon="8.44907"><ele>5.0</ele><time>2026-05-02T10:58:03.367Z</time></trkpt><trkpt lat="40.0048433" lon="8.448935"><ele>5.0</ele><time>2026-05-02T10:58:04.367Z</time></trkpt><trkpt lat="40.0046983" lon="8.4488083"><ele>5.666666666666667</ele><time>2026-05-02T10:58:05.367Z</time></trkpt><trkpt lat="40.0045667" lon="8.44869"><ele>6.333333333333334</ele><time>2026-05-02T10:58:06.367Z</time></trkpt><trkpt lat="40.0044367" lon="8.44858"><ele>7.0</ele><time>2026-05-02T10:58:07.367Z</time></trkpt><trkpt lat="40.0042967" lon="8.4484983"><ele>6.666666666666667</ele><time>2026-05-02T10:58:08.367Z</time></trkpt><trkpt lat="40.0041367" lon="8.4484317"><ele>6.333333333333334</ele><time>2026-05-02T10:58:09.367Z</time></trkpt><trkpt lat="40.0039817" lon="8.4483883"><ele>6.0</ele><time>2026-05-02T10:58:10.367Z</time></trkpt><trkpt lat="40.0038467" lon="8.44834"><ele>6.0</ele><time>2026-05-02T10:58:11.367Z</time></trkpt><trkpt lat="40.0037133" lon="8.4482717"><ele>6.0</ele><time>2026-05-02T10:58:12.367Z</time></trkpt><trkpt lat="40.00358" lon="8.4481683"><ele>6.0</ele><time>2026-05-02T10:58:13.367Z</time></trkpt><trkpt lat="40.0034383" lon="8.4480567"><ele>6.0</ele><time>2026-05-02T10:58:14.367Z</time></trkpt><trkpt lat="40.0032783" lon="8.44797"><ele>6.0</ele><time>2026-05-02T10:58:15.367Z</time></trkpt><trkpt lat="40.0031067" lon="8.447895"><ele>6.0</ele><time>2026-05-02T10:58:16.367Z</time></trkpt><trkpt lat="40.00291" lon="8.447835"><ele>6.0</ele><time>2026-05-02T10:58:17.367Z</time></trkpt><trkpt lat="40.002705" lon="8.4477783"><ele>6.0</ele><time>2026-05-02T10:58:18.367Z</time></trkpt><trkpt lat="40.0025083" lon="8.4477133"><ele>6.0</ele><time>2026-05-02T10:58:19.367Z</time></trkpt><trkpt lat="40.0023183" lon="8.44764"><ele>6.333333333333334</ele><time>2026-05-02T10:58:20.367Z</time></trkpt><trkpt lat="40.00213" lon="8.44755"><ele>6.666666666666667</ele><time>2026-05-02T10:58:21.367Z</time></trkpt><trkpt lat="40.0019483" lon="8.44747"><ele>7.0</ele><time>2026-05-02T10:58:22.367Z</time></trkpt><trkpt lat="40.00176" lon="8.4473667"><ele>7.0</ele><time>2026-05-02T10:58:23.367Z</time></trkpt><trkpt lat="40.0015733" lon="8.4472583"><ele>7.0</ele><time>2026-05-02T10:58:24.367Z</time></trkpt><trkpt lat="40.0013833" lon="8.4471517"><ele>7.0</ele><time>2026-05-02T10:58:25.367Z</time></trkpt><trkpt lat="40.0012017" lon="8.447045"><ele>7.0</ele><time>2026-05-02T10:58:26.367Z</time></trkpt><trkpt lat="40.0010283" lon="8.4469517"><ele>7.0</ele><time>2026-05-02T10:58:27.367Z</time></trkpt><trkpt lat="40.00087" lon="8.446875"><ele>7.0</ele><time>2026-05-02T10:58:28.367Z</time></trkpt><trkpt lat="40.0007067" lon="8.4468217"><ele>6.666666666666667</ele><time>2026-05-02T10:58:29.367Z</time></trkpt><trkpt lat="40.0005583" lon="8.4468"><ele>6.333333333333334</ele><time>2026-05-02T10:58:30.367Z</time></trkpt><trkpt lat="40.0004067" lon="8.4467867"><ele>6.0</ele><time>2026-05-02T10:58:31.367Z</time></trkpt><trkpt lat="40.0002533" lon="8.4467883"><ele>6.0</ele><time>2026-05-02T10:58:32.367Z</time></trkpt><trkpt lat="40.0001067" lon="8.4467833"><ele>6.0</ele><time>2026-05-02T10:58:33.367Z</time></trkpt><trkpt lat="39.9999517" lon="8.4467483"><ele>6.0</ele><time>2026-05-02T10:58:34.367Z</time></trkpt><trkpt lat="39.999795" lon="8.446685"><ele>6.0</ele><time>2026-05-02T10:58:35.367Z</time></trkpt><trkpt lat="39.9996533" lon="8.4466167"><ele>6.0</ele><time>2026-05-02T10:58:36.367Z</time></trkpt><trkpt lat="39.9995017" lon="8.4465183"><ele>6.0</ele><time>2026-05-02T10:58:37.367Z</time></trkpt><trkpt lat="39.9993533" lon="8.44641"><ele>6.0</ele><time>2026-05-02T10:58:38.367Z</time></trkpt><trkpt lat="39.9992033" lon="8.446285"><ele>6.0</ele><time>2026-05-02T10:58:39.367Z</time></trkpt><trkpt lat="39.9990333" lon="8.4461683"><ele>6.0</ele><time>2026-05-02T10:58:40.367Z</time></trkpt><trkpt lat="39.9988617" lon="8.44606"><ele>5.666666666666667</ele><time>2026-05-02T10:58:41.367Z</time></trkpt><trkpt lat="39.9986983" lon="8.44596"><ele>5.333333333333334</ele><time>2026-05-02T10:58:42.367Z</time></trkpt><trkpt lat="39.9985483" lon="8.445855"><ele>5.0</ele><time>2026-05-02T10:58:43.367Z</time></trkpt><trkpt lat="39.9984083" lon="8.445755"><ele>5.0</ele><time>2026-05-02T10:58:44.367Z</time></trkpt><trkpt lat="39.9982883" lon="8.4456517"><ele>5.0</ele><time>2026-05-02T10:58:45.367Z</time></trkpt><trkpt lat="39.9981583" lon="8.44557"><ele>5.0</ele><time>2026-05-02T10:58:46.367Z</time></trkpt><trkpt lat="39.9980283" lon="8.4455083"><ele>5.0</ele><time>2026-05-02T10:58:47.367Z</time></trkpt><trkpt lat="39.99791" lon="8.44548"><ele>5.0</ele><time>2026-05-02T10:58:48.367Z</time></trkpt><trkpt lat="39.997785" lon="8.4454567"><ele>5.0</ele><time>2026-05-02T10:58:49.367Z</time></trkpt><trkpt lat="39.9976633" lon="8.4454317"><ele>5.0</ele><time>2026-05-02T10:58:50.367Z</time></trkpt><trkpt lat="39.9975433" lon="8.4453983"><ele>5.0</ele><time>2026-05-02T10:58:51.367Z</time></trkpt><trkpt lat="39.9974117" lon="8.4453717"><ele>4.5</ele><time>2026-05-02T10:58:52.366Z</time></trkpt><trkpt lat="39.99728" lon="8.44536"><ele>4.0</ele><time>2026-05-02T10:58:53.366Z</time></trkpt><trkpt lat="39.9971233" lon="8.4453517"><ele>3.5</ele><time>2026-05-02T10:58:54.366Z</time></trkpt><trkpt lat="39.9969683" lon="8.44535"><ele>3.0</ele><time>2026-05-02T10:58:55.366Z</time></trkpt><trkpt lat="39.9968217" lon="8.4453333"><ele>3.0</ele><time>2026-05-02T10:58:56.366Z</time></trkpt><trkpt lat="39.9966883" lon="8.445325"><ele>3.0</ele><time>2026-05-02T10:58:57.366Z</time></trkpt><trkpt lat="39.996565" lon="8.44531"><ele>3.0</ele><time>2026-05-02T10:58:58.366Z</time></trkpt><trkpt lat="39.9964367" lon="8.4452967"><ele>3.0</ele><time>2026-05-02T10:58:59.366Z</time></trkpt><trkpt lat="39.99633" lon="8.4452967"><ele>3.2</ele><time>2026-05-02T10:59:00.366Z</time></trkpt><trkpt lat="39.9962233" lon="8.4453"><ele>3.4</ele><time>2026-05-02T10:59:01.366Z</time></trkpt><trkpt lat="39.9961133" lon="8.4453083"><ele>3.6000000000000005</ele><time>2026-05-02T10:59:02.366Z</time></trkpt><trkpt lat="39.9960033" lon="8.4453133"><ele>3.8000000000000003</ele><time>2026-05-02T10:59:03.366Z</time></trkpt><trkpt lat="39.9958933" lon="8.4453217"><ele>4.0</ele><time>2026-05-02T10:59:04.366Z</time></trkpt><trkpt lat="39.995785" lon="8.4453267"><ele>4.0</ele><time>2026-05-02T10:59:05.366Z</time></trkpt><trkpt lat="39.9956717" lon="8.44531"><ele>4.0</ele><time>2026-05-02T10:59:06.366Z</time></trkpt><trkpt lat="39.9955517" lon="8.4452633"><ele>4.0</ele><time>2026-05-02T10:59:07.366Z</time></trkpt><trkpt lat="39.9954233" lon="8.4451983"><ele>4.0</ele><time>2026-05-02T10:59:08.366Z</time></trkpt><trkpt lat="39.9952967" lon="8.44514"><ele>4.0</ele><time>2026-05-02T10:59:09.366Z</time></trkpt><trkpt lat="39.9951783" lon="8.4451033"><ele>4.0</ele><time>2026-05-02T10:59:10.366Z</time></trkpt><trkpt lat="39.99505" lon="8.445055"><ele>4.0</ele><time>2026-05-02T10:59:11.366Z</time></trkpt><trkpt lat="39.994915" lon="8.4450083"><ele>4.0</ele><time>2026-05-02T10:59:12.366Z</time></trkpt><trkpt lat="39.994765" lon="8.4449683"><ele>4.666666666666666</ele><time>2026-05-02T10:59:13.366Z</time></trkpt><trkpt lat="39.994605" lon="8.444935"><ele>5.333333333333333</ele><time>2026-05-02T10:59:14.366Z</time></trkpt><trkpt lat="39.9944417" lon="8.44489"><ele>6.0</ele><time>2026-05-02T10:59:15.366Z</time></trkpt><trkpt lat="39.9942767" lon="8.444835"><ele>5.333333333333333</ele><time>2026-05-02T10:59:16.366Z</time></trkpt><trkpt lat="39.9941233" lon="8.4447933"><ele>4.666666666666666</ele><time>2026-05-02T10:59:17.366Z</time></trkpt><trkpt lat="39.993965" lon="8.4447467"><ele>4.0</ele><time>2026-05-02T10:59:18.366Z</time></trkpt><trkpt lat="39.99381" lon="8.44471"><ele>4.0</ele><time>2026-05-02T10:59:19.366Z</time></trkpt><trkpt lat="39.993635" lon="8.4446867"><ele>4.0</ele><time>2026-05-02T10:59:20.366Z</time></trkpt><trkpt lat="39.9934533" lon="8.44468"><ele>4.0</ele><time>2026-05-02T10:59:21.366Z</time></trkpt><trkpt lat="39.99328" lon="8.4446817"><ele>4.0</ele><time>2026-05-02T10:59:22.366Z</time></trkpt><trkpt lat="39.9930933" lon="8.4447217"><ele>4.0</ele><time>2026-05-02T10:59:23.366Z</time></trkpt><trkpt lat="39.9929183" lon="8.4447467"><ele>4.0</ele><time>2026-05-02T10:59:24.366Z</time></trkpt><trkpt lat="39.992765" lon="8.4447383"><ele>4.0</ele><time>2026-05-02T10:59:25.366Z</time></trkpt><trkpt lat="39.9926" lon="8.4446833"><ele>4.0</ele><time>2026-05-02T10:59:26.366Z</time></trkpt><trkpt lat="39.9924367" lon="8.4446067"><ele>4.0</ele><time>2026-05-02T10:59:27.366Z</time></trkpt><trkpt lat="39.992255" lon="8.4445017"><ele>4.0</ele><time>2026-05-02T10:59:28.366Z</time></trkpt><trkpt lat="39.9920833" lon="8.44439"><ele>4.0</ele><time>2026-05-02T10:59:29.366Z</time></trkpt><trkpt lat="39.99197" lon="8.44432"><ele>4.0</ele><time>2026-05-02T10:59:30.366Z</time></trkpt><trkpt lat="39.9919033" lon="8.4442833"><ele>4.0</ele><time>2026-05-02T10:59:31.366Z</time></trkpt><trkpt lat="39.9917917" lon="8.4443133"><ele>4.0</ele><time>2026-05-02T10:59:33.366Z</time></trkpt><trkpt lat="39.991745" lon="8.4444017"><ele>4.0</ele><time>2026-05-02T10:59:34.366Z</time></trkpt><trkpt lat="39.9916783" lon="8.44453"><ele>4.0</ele><time>2026-05-02T10:59:35.366Z</time></trkpt><trkpt lat="39.991585" lon="8.444685"><ele>4.0</ele><time>2026-05-02T10:59:36.366Z</time></trkpt><trkpt lat="39.9914733" lon="8.4448467"><ele>4.25</ele><time>2026-05-02T10:59:37.366Z</time></trkpt><trkpt lat="39.99136" lon="8.4450083"><ele>4.5</ele><time>2026-05-02T10:59:38.366Z</time></trkpt><trkpt lat="39.9912617" lon="8.4451517"><ele>4.75</ele><time>2026-05-02T10:59:39.366Z</time></trkpt><trkpt lat="39.9911783" lon="8.4452617"><ele>5.0</ele><time>2026-05-02T10:59:40.366Z</time></trkpt><trkpt lat="39.9911117" lon="8.44533"><ele>5.0</ele><time>2026-05-02T10:59:41.366Z</time></trkpt><trkpt lat="39.9910483" lon="8.4453517"><ele>5.0</ele><time>2026-05-02T10:59:42.366Z</time></trkpt><trkpt lat="39.9909833" lon="8.4453333"><ele>5.0</ele><time>2026-05-02T10:59:43.366Z</time></trkpt><trkpt lat="39.9909067" lon="8.44527"><ele>5.0</ele><time>2026-05-02T10:59:44.366Z</time></trkpt><trkpt lat="39.9908167" lon="8.4451617"><ele>5.0</ele><time>2026-05-02T10:59:45.366Z</time></trkpt><trkpt lat="39.99071" lon="8.44504"><ele>4.75</ele><time>2026-05-02T10:59:46.366Z</time></trkpt><trkpt lat="39.990595" lon="8.4449217"><ele>4.5</ele><time>2026-05-02T10:59:47.366Z</time></trkpt><trkpt lat="39.9904933" lon="8.4448117"><ele>4.25</ele><time>2026-05-02T10:59:48.366Z</time></trkpt><trkpt lat="39.9904167" lon="8.44473"><ele>4.0</ele><time>2026-05-02T10:59:49.366Z</time></trkpt><trkpt lat="39.990355" lon="8.4446767"><ele>4.0</ele><time>2026-05-02T10:59:50.366Z</time></trkpt><trkpt lat="39.99029" lon="8.4446483"><ele>4.0</ele><time>2026-05-02T10:59:51.366Z</time></trkpt><trkpt lat="39.9902217" lon="8.444675"><ele>4.0</ele><time>2026-05-02T10:59:52.366Z</time></trkpt><trkpt lat="39.99015" lon="8.4447383"><ele>4.0</ele><time>2026-05-02T10:59:53.366Z</time></trkpt><trkpt lat="39.9900683" lon="8.4448583"><ele>4.0</ele><time>2026-05-02T10:59:54.366Z</time></trkpt><trkpt lat="39.9899767" lon="8.4450183"><ele>4.333333333333333</ele><time>2026-05-02T10:59:55.366Z</time></trkpt><trkpt lat="39.9898833" lon="8.44518"><ele>4.666666666666667</ele><time>2026-05-02T10:59:56.366Z</time></trkpt><trkpt lat="39.9897717" lon="8.4453367"><ele>5.0</ele><time>2026-05-02T10:59:57.366Z</time></trkpt><trkpt lat="39.9896533" lon="8.44547"><ele>4.333333333333334</ele><time>2026-05-02T10:59:58.366Z</time></trkpt><trkpt lat="39.9894967" lon="8.4456267"><ele>3.666666666666667</ele><time>2026-05-02T10:59:59.366Z</time></trkpt><trkpt lat="39.989345" lon="8.44578"><ele>3.0</ele><time>2026-05-02T11:00:00.366Z</time></trkpt><trkpt lat="39.9892017" lon="8.445935"><ele>2.6666666666666665</ele><time>2026-05-02T11:00:01.366Z</time></trkpt><trkpt lat="39.98906" lon="8.4460667"><ele>2.333333333333333</ele><time>2026-05-02T11:00:02.366Z</time></trkpt><trkpt lat="39.98894" lon="8.4461683"><ele>2.0</ele><time>2026-05-02T11:00:03.366Z</time></trkpt><trkpt lat="39.9888217" lon="8.4462583"><ele>2.75</ele><time>2026-05-02T11:00:04.366Z</time></trkpt><trkpt lat="39.9886917" lon="8.4463317"><ele>3.5</ele><time>2026-05-02T11:00:05.366Z</time></trkpt><trkpt lat="39.988575" lon="8.4464183"><ele>4.25</ele><time>2026-05-02T11:00:06.366Z</time></trkpt><trkpt lat="39.98846" lon="8.44654"><ele>5.0</ele><time>2026-05-02T11:00:07.367Z</time></trkpt><trkpt lat="39.988345" lon="8.4466833"><ele>5.0</ele><time>2026-05-02T11:00:08.366Z</time></trkpt><trkpt lat="39.988215" lon="8.4468517"><ele>5.0</ele><time>2026-05-02T11:00:09.366Z</time></trkpt><trkpt lat="39.9880767" lon="8.4470067"><ele>5.0</ele><time>2026-05-02T11:00:10.366Z</time></trkpt><trkpt lat="39.987925" lon="8.4471717"><ele>5.0</ele><time>2026-05-02T11:00:11.366Z</time></trkpt><trkpt lat="39.987765" lon="8.4473483"><ele>5.0</ele><time>2026-05-02T11:00:12.366Z</time></trkpt><trkpt lat="39.9876017" lon="8.4475083"><ele>5.0</ele><time>2026-05-02T11:00:13.366Z</time></trkpt><trkpt lat="39.987445" lon="8.4476783"><ele>5.0</ele><time>2026-05-02T11:00:14.366Z</time></trkpt><trkpt lat="39.987295" lon="8.4478283"><ele>5.0</ele><time>2026-05-02T11:00:15.366Z</time></trkpt><trkpt lat="39.9871467" lon="8.447975"><ele>5.0</ele><time>2026-05-02T11:00:16.366Z</time></trkpt><trkpt lat="39.9869883" lon="8.448105"><ele>5.0</ele><time>2026-05-02T11:00:17.366Z</time></trkpt><trkpt lat="39.9868383" lon="8.4482267"><ele>5.0</ele><time>2026-05-02T11:00:18.366Z</time></trkpt><trkpt lat="39.9866967" lon="8.448345"><ele>5.0</ele><time>2026-05-02T11:00:19.366Z</time></trkpt><trkpt lat="39.9865633" lon="8.448465"><ele>5.25</ele><time>2026-05-02T11:00:20.366Z</time></trkpt><trkpt lat="39.98645" lon="8.448585"><ele>5.5</ele><time>2026-05-02T11:00:21.366Z</time></trkpt><trkpt lat="39.9863583" lon="8.4486767"><ele>5.75</ele><time>2026-05-02T11:00:22.366Z</time></trkpt><trkpt lat="39.9862767" lon="8.4487217"><ele>6.0</ele><time>2026-05-02T11:00:23.366Z</time></trkpt><trkpt lat="39.986175" lon="8.4487267"><ele>6.0</ele><time>2026-05-02T11:00:25.366Z</time></trkpt><trkpt lat="39.98612" lon="8.448685"><ele>6.0</ele><time>2026-05-02T11:00:29.366Z</time></trkpt><trkpt lat="39.9860567" lon="8.448805"><ele>6.0</ele><time>2026-05-02T11:00:31.366Z</time></trkpt><trkpt lat="39.9859933" lon="8.4489517"><ele>6.0</ele><time>2026-05-02T11:00:32.366Z</time></trkpt><trkpt lat="39.985915" lon="8.449095"><ele>6.0</ele><time>2026-05-02T11:00:33.366Z</time></trkpt><trkpt lat="39.9858383" lon="8.4492117"><ele>6.4</ele><time>2026-05-02T11:00:34.366Z</time></trkpt><trkpt lat="39.985775" lon="8.44933"><ele>6.8</ele><time>2026-05-02T11:00:35.366Z</time></trkpt><trkpt lat="39.985715" lon="8.44943"><ele>7.200000000000001</ele><time>2026-05-02T11:00:36.366Z</time></trkpt><trkpt lat="39.9856433" lon="8.44953"><ele>7.6000000000000005</ele><time>2026-05-02T11:00:38.366Z</time></trkpt><trkpt lat="39.9855417" lon="8.44945"><ele>8.0</ele><time>2026-05-02T11:00:40.366Z</time></trkpt><trkpt lat="39.98549" lon="8.4493683"><ele>8.0</ele><time>2026-05-02T11:00:41.366Z</time></trkpt><trkpt lat="39.9854183" lon="8.4492667"><ele>8.0</ele><time>2026-05-02T11:00:42.366Z</time></trkpt><trkpt lat="39.9853317" lon="8.44915"><ele>8.0</ele><time>2026-05-02T11:00:43.366Z</time></trkpt><trkpt lat="39.9852317" lon="8.4490267"><ele>8.0</ele><time>2026-05-02T11:00:44.366Z</time></trkpt><trkpt lat="39.985125" lon="8.44889"><ele>8.0</ele><time>2026-05-02T11:00:45.366Z</time></trkpt><trkpt lat="39.9850117" lon="8.4487533"><ele>8.0</ele><time>2026-05-02T11:00:46.366Z</time></trkpt><trkpt lat="39.98491" lon="8.4486233"><ele>8.0</ele><time>2026-05-02T11:00:47.366Z</time></trkpt><trkpt lat="39.984825" lon="8.4485083"><ele>8.0</ele><time>2026-05-02T11:00:48.366Z</time></trkpt><trkpt lat="39.98475" lon="8.4483967"><ele>8.0</ele><time>2026-05-02T11:00:49.366Z</time></trkpt><trkpt lat="39.98466" lon="8.4482733"><ele>8.0</ele><time>2026-05-02T11:00:50.366Z</time></trkpt><trkpt lat="39.9845833" lon="8.4481433"><ele>8.0</ele><time>2026-05-02T11:00:51.366Z</time></trkpt><trkpt lat="39.984505" lon="8.448015"><ele>8.0</ele><time>2026-05-02T11:00:52.366Z</time></trkpt><trkpt lat="39.9844267" lon="8.4478767"><ele>7.666666666666666</ele><time>2026-05-02T11:00:53.366Z</time></trkpt><trkpt lat="39.9843233" lon="8.4477333"><ele>7.333333333333334</ele><time>2026-05-02T11:00:54.366Z</time></trkpt><trkpt lat="39.9841983" lon="8.447555"><ele>7.0</ele><time>2026-05-02T11:00:55.366Z</time></trkpt><trkpt lat="39.9840567" lon="8.447375"><ele>8.0</ele><time>2026-05-02T11:00:56.366Z</time></trkpt><trkpt lat="39.9839" lon="8.4471967"><ele>9.0</ele><time>2026-05-02T11:00:57.366Z</time></trkpt><trkpt lat="39.9837683" lon="8.4470417"><ele>10.0</ele><time>2026-05-02T11:00:58.366Z</time></trkpt><trkpt lat="39.9836583" lon="8.4468883"><ele>10.0</ele><time>2026-05-02T11:00:59.366Z</time></trkpt><trkpt lat="39.9835583" lon="8.4467233"><ele>10.0</ele><time>2026-05-02T11:01:00.366Z</time></trkpt><trkpt lat="39.9834783" lon="8.4465517"><ele>10.0</ele><time>2026-05-02T11:01:01.366Z</time></trkpt><trkpt lat="39.983425" lon="8.4464033"><ele>10.0</ele><time>2026-05-02T11:01:02.366Z</time></trkpt><trkpt lat="39.9833917" lon="8.4462183"><ele>9.333333333333334</ele><time>2026-05-02T11:01:03.366Z</time></trkpt><trkpt lat="39.9833717" lon="8.446005"><ele>8.666666666666666</ele><time>2026-05-02T11:01:04.366Z</time></trkpt><trkpt lat="39.98336" lon="8.445775"><ele>8.0</ele><time>2026-05-02T11:01:05.366Z</time></trkpt><trkpt lat="39.9833383" lon="8.4455283"><ele>8.0</ele><time>2026-05-02T11:01:06.366Z</time></trkpt><trkpt lat="39.9833167" lon="8.4452817"><ele>8.0</ele><time>2026-05-02T11:01:07.366Z</time></trkpt><trkpt lat="39.983275" lon="8.4450767"><ele>8.0</ele><time>2026-05-02T11:01:08.366Z</time></trkpt><trkpt lat="39.98323" lon="8.4448883"><ele>8.0</ele><time>2026-05-02T11:01:09.366Z</time></trkpt><trkpt lat="39.9831917" lon="8.4447067"><ele>8.0</ele><time>2026-05-02T11:01:10.366Z</time></trkpt><trkpt lat="39.9831517" lon="8.4445167"><ele>8.0</ele><time>2026-05-02T11:01:11.366Z</time></trkpt><trkpt lat="39.983095" lon="8.444345"><ele>8.0</ele><time>2026-05-02T11:01:12.366Z</time></trkpt><trkpt lat="39.9830433" lon="8.4441967"><ele>8.0</ele><time>2026-05-02T11:01:13.366Z</time></trkpt><trkpt lat="39.9829733" lon="8.44404"><ele>8.0</ele><time>2026-05-02T11:01:14.366Z</time></trkpt><trkpt lat="39.9828783" lon="8.4438683"><ele>8.0</ele><time>2026-05-02T11:01:15.366Z</time></trkpt><trkpt lat="39.9827717" lon="8.44369"><ele>7.666666666666666</ele><time>2026-05-02T11:01:16.366Z</time></trkpt><trkpt lat="39.98266" lon="8.4435167"><ele>7.333333333333334</ele><time>2026-05-02T11:01:17.366Z</time></trkpt><trkpt lat="39.9825433" lon="8.443345"><ele>7.0</ele><time>2026-05-02T11:01:18.366Z</time></trkpt><trkpt lat="39.9824283" lon="8.443165"><ele>7.0</ele><time>2026-05-02T11:01:19.366Z</time></trkpt><trkpt lat="39.98231" lon="8.4429967"><ele>7.0</ele><time>2026-05-02T11:01:20.366Z</time></trkpt><trkpt lat="39.982215" lon="8.4428383"><ele>7.0</ele><time>2026-05-02T11:01:21.366Z</time></trkpt><trkpt lat="39.98212" lon="8.4426967"><ele>6.6</ele><time>2026-05-02T11:01:22.366Z</time></trkpt><trkpt lat="39.9820517" lon="8.4425767"><ele>6.199999999999999</ele><time>2026-05-02T11:01:23.366Z</time></trkpt><trkpt lat="39.9819917" lon="8.4424783"><ele>5.8</ele><time>2026-05-02T11:01:24.366Z</time></trkpt><trkpt lat="39.9819383" lon="8.44238"><ele>5.4</ele><time>2026-05-02T11:01:25.366Z</time></trkpt><trkpt lat="39.9818867" lon="8.4422617"><ele>5.0</ele><time>2026-05-02T11:01:26.366Z</time></trkpt><trkpt lat="39.981825" lon="8.4421"><ele>5.0</ele><time>2026-05-02T11:01:27.366Z</time></trkpt><trkpt lat="39.98178" lon="8.44191"><ele>5.0</ele><time>2026-05-02T11:01:28.366Z</time></trkpt><trkpt lat="39.9817383" lon="8.4417033"><ele>5.0</ele><time>2026-05-02T11:01:29.366Z</time></trkpt><trkpt lat="39.981695" lon="8.4414783"><ele>5.666666666666667</ele><time>2026-05-02T11:01:30.366Z</time></trkpt><trkpt lat="39.981635" lon="8.4412767"><ele>6.333333333333334</ele><time>2026-05-02T11:01:31.366Z</time></trkpt><trkpt lat="39.9815617" lon="8.4411033"><ele>7.0</ele><time>2026-05-02T11:01:32.366Z</time></trkpt><trkpt lat="39.98148" lon="8.4409433"><ele>7.0</ele><time>2026-05-02T11:01:33.366Z</time></trkpt><trkpt lat="39.9813683" lon="8.440775"><ele>7.0</ele><time>2026-05-02T11:01:34.366Z</time></trkpt><trkpt lat="39.9812467" lon="8.4405967"><ele>7.0</ele><time>2026-05-02T11:01:35.366Z</time></trkpt><trkpt lat="39.981125" lon="8.4404017"><ele>7.0</ele><time>2026-05-02T11:01:36.366Z</time></trkpt><trkpt lat="39.9809983" lon="8.440195"><ele>7.0</ele><time>2026-05-02T11:01:37.366Z</time></trkpt><trkpt lat="39.9808483" lon="8.4399583"><ele>7.0</ele><time>2026-05-02T11:01:38.366Z</time></trkpt><trkpt lat="39.98069" lon="8.4397233"><ele>7.0</ele><time>2026-05-02T11:01:39.366Z</time></trkpt><trkpt lat="39.9805383" lon="8.4394733"><ele>7.0</ele><time>2026-05-02T11:01:40.366Z</time></trkpt><trkpt lat="39.9803933" lon="8.439225"><ele>7.0</ele><time>2026-05-02T11:01:41.366Z</time></trkpt><trkpt lat="39.9802567" lon="8.4389817"><ele>7.0</ele><time>2026-05-02T11:01:42.366Z</time></trkpt><trkpt lat="39.98011" lon="8.438725"><ele>8.0</ele><time>2026-05-02T11:01:43.366Z</time></trkpt><trkpt lat="39.97997" lon="8.4384733"><ele>9.0</ele><time>2026-05-02T11:01:44.366Z</time></trkpt><trkpt lat="39.979825" lon="8.438225"><ele>9.0</ele><time>2026-05-02T11:01:45.366Z</time></trkpt><trkpt lat="39.9796667" lon="8.4379833"><ele>9.0</ele><time>2026-05-02T11:01:46.366Z</time></trkpt><trkpt lat="39.97951" lon="8.4377417"><ele>9.0</ele><time>2026-05-02T11:01:47.366Z</time></trkpt><trkpt lat="39.9793517" lon="8.4374983"><ele>9.0</ele><time>2026-05-02T11:01:48.366Z</time></trkpt><trkpt lat="39.979195" lon="8.437265"><ele>10.5</ele><time>2026-05-02T11:01:49.366Z</time></trkpt><trkpt lat="39.9790383" lon="8.437045"><ele>12.0</ele><time>2026-05-02T11:01:50.366Z</time></trkpt><trkpt lat="39.9788917" lon="8.43683"><ele>12.0</ele><time>2026-05-02T11:01:51.366Z</time></trkpt><trkpt lat="39.9787533" lon="8.4366317"><ele>12.0</ele><time>2026-05-02T11:01:52.366Z</time></trkpt><trkpt lat="39.9786333" lon="8.4364283"><ele>12.0</ele><time>2026-05-02T11:01:53.366Z</time></trkpt><trkpt lat="39.9785317" lon="8.4362317"><ele>12.333333333333332</ele><time>2026-05-02T11:01:54.366Z</time></trkpt><trkpt lat="39.9784583" lon="8.4360217"><ele>12.666666666666666</ele><time>2026-05-02T11:01:55.366Z</time></trkpt><trkpt lat="39.9784033" lon="8.4357983"><ele>13.0</ele><time>2026-05-02T11:01:56.366Z</time></trkpt><trkpt lat="39.9783583" lon="8.4355383"><ele>13.0</ele><time>2026-05-02T11:01:57.366Z</time></trkpt><trkpt lat="39.9783233" lon="8.435295"><ele>13.0</ele><time>2026-05-02T11:01:58.366Z</time></trkpt><trkpt lat="39.978295" lon="8.4351033"><ele>13.0</ele><time>2026-05-02T11:01:59.366Z</time></trkpt><trkpt lat="39.97827" lon="8.43493"><ele>13.0</ele><time>2026-05-02T11:02:00.366Z</time></trkpt><trkpt lat="39.9782467" lon="8.4347583"><ele>13.0</ele><time>2026-05-02T11:02:01.366Z</time></trkpt><trkpt lat="39.9782233" lon="8.4346017"><ele>13.0</ele><time>2026-05-02T11:02:02.366Z</time></trkpt><trkpt lat="39.9781783" lon="8.4344833"><ele>13.0</ele><time>2026-05-02T11:02:03.366Z</time></trkpt><trkpt lat="39.978095" lon="8.4343933"><ele>13.0</ele><time>2026-05-02T11:02:04.366Z</time></trkpt><trkpt lat="39.9779817" lon="8.4343217"><ele>13.0</ele><time>2026-05-02T11:02:05.366Z</time></trkpt><trkpt lat="39.9778817" lon="8.4342467"><ele>13.0</ele><time>2026-05-02T11:02:06.366Z</time></trkpt><trkpt lat="39.9777883" lon="8.4341633"><ele>13.0</ele><time>2026-05-02T11:02:07.366Z</time></trkpt><trkpt lat="39.9777267" lon="8.4340483"><ele>13.0</ele><time>2026-05-02T11:02:08.366Z</time></trkpt><trkpt lat="39.9776933" lon="8.4338967"><ele>13.0</ele><time>2026-05-02T11:02:09.366Z</time></trkpt><trkpt lat="39.97765" lon="8.4337033"><ele>13.0</ele><time>2026-05-02T11:02:10.366Z</time></trkpt><trkpt lat="39.9775883" lon="8.4335067"><ele>13.0</ele><time>2026-05-02T11:02:11.366Z</time></trkpt><trkpt lat="39.977515" lon="8.433315"><ele>14.0</ele><time>2026-05-02T11:02:12.366Z</time></trkpt><trkpt lat="39.9774417" lon="8.4331133"><ele>15.0</ele><time>2026-05-02T11:02:13.366Z</time></trkpt><trkpt lat="39.9773667" lon="8.4328967"><ele>16.0</ele><time>2026-05-02T11:02:14.366Z</time></trkpt><trkpt lat="39.9772883" lon="8.4326883"><ele>16.0</ele><time>2026-05-02T11:02:15.366Z</time></trkpt><trkpt lat="39.9772117" lon="8.4324917"><ele>16.0</ele><time>2026-05-02T11:02:16.366Z</time></trkpt><trkpt lat="39.9771267" lon="8.4323117"><ele>16.0</ele><time>2026-05-02T11:02:17.366Z</time></trkpt><trkpt lat="39.9770417" lon="8.4321317"><ele>16.333333333333332</ele><time>2026-05-02T11:02:18.366Z</time></trkpt><trkpt lat="39.9769517" lon="8.4319467"><ele>16.666666666666668</ele><time>2026-05-02T11:02:19.366Z</time></trkpt><trkpt lat="39.97687" lon="8.43176"><ele>17.0</ele><time>2026-05-02T11:02:20.366Z</time></trkpt><trkpt lat="39.9767833" lon="8.4315633"><ele>17.0</ele><time>2026-05-02T11:02:21.366Z</time></trkpt><trkpt lat="39.9767117" lon="8.4313467"><ele>17.0</ele><time>2026-05-02T11:02:22.366Z</time></trkpt><trkpt lat="39.9766383" lon="8.4311383"><ele>17.0</ele><time>2026-05-02T11:02:23.366Z</time></trkpt><trkpt lat="39.97658" lon="8.4309067"><ele>17.0</ele><time>2026-05-02T11:02:24.366Z</time></trkpt><trkpt lat="39.9765067" lon="8.4306767"><ele>17.0</ele><time>2026-05-02T11:02:25.366Z</time></trkpt><trkpt lat="39.97644" lon="8.4304517"><ele>17.0</ele><time>2026-05-02T11:02:26.366Z</time></trkpt><trkpt lat="39.9763567" lon="8.4302333"><ele>17.333333333333336</ele><time>2026-05-02T11:02:27.366Z</time></trkpt><trkpt lat="39.9762833" lon="8.4300467"><ele>17.666666666666668</ele><time>2026-05-02T11:02:28.366Z</time></trkpt><trkpt lat="39.9762167" lon="8.4298767"><ele>18.0</ele><time>2026-05-02T11:02:29.366Z</time></trkpt><trkpt lat="39.9761433" lon="8.4296933"><ele>17.666666666666668</ele><time>2026-05-02T11:02:30.366Z</time></trkpt><trkpt lat="39.9760617" lon="8.429495"><ele>17.333333333333336</ele><time>2026-05-02T11:02:31.366Z</time></trkpt><trkpt lat="39.9759717" lon="8.4292633"><ele>17.0</ele><time>2026-05-02T11:02:32.366Z</time></trkpt><trkpt lat="39.975895" lon="8.4290317"><ele>17.333333333333336</ele><time>2026-05-02T11:02:33.365Z</time></trkpt><trkpt lat="39.97583" lon="8.428815"><ele>17.666666666666668</ele><time>2026-05-02T11:02:34.366Z</time></trkpt><trkpt lat="39.97575" lon="8.4285983"><ele>18.0</ele><time>2026-05-02T11:02:35.366Z</time></trkpt><trkpt lat="39.9756583" lon="8.4283817"><ele>18.0</ele><time>2026-05-02T11:02:36.366Z</time></trkpt><trkpt lat="39.9755583" lon="8.4281483"><ele>18.0</ele><time>2026-05-02T11:02:37.366Z</time></trkpt><trkpt lat="39.9754317" lon="8.4278983"><ele>18.0</ele><time>2026-05-02T11:02:38.366Z</time></trkpt><trkpt lat="39.9753017" lon="8.427655"><ele>17.666666666666668</ele><time>2026-05-02T11:02:39.366Z</time></trkpt><trkpt lat="39.9751883" lon="8.4274383"><ele>17.333333333333336</ele><time>2026-05-02T11:02:40.366Z</time></trkpt><trkpt lat="39.9750967" lon="8.4272433"><ele>17.0</ele><time>2026-05-02T11:02:41.366Z</time></trkpt><trkpt lat="39.97502" lon="8.4270883"><ele>17.5</ele><time>2026-05-02T11:02:42.366Z</time></trkpt><trkpt lat="39.97496" lon="8.4269433"><ele>18.0</ele><time>2026-05-02T11:02:43.366Z</time></trkpt><trkpt lat="39.97492" lon="8.42678"><ele>18.5</ele><time>2026-05-02T11:02:44.366Z</time></trkpt><trkpt lat="39.97489" lon="8.4266133"><ele>19.0</ele><time>2026-05-02T11:02:45.366Z</time></trkpt><trkpt lat="39.9749017" lon="8.42644"><ele>19.25</ele><time>2026-05-02T11:02:46.366Z</time></trkpt><trkpt lat="39.974925" lon="8.4262667"><ele>19.5</ele><time>2026-05-02T11:02:47.366Z</time></trkpt><trkpt lat="39.9749183" lon="8.4260833"><ele>19.75</ele><time>2026-05-02T11:02:48.366Z</time></trkpt><trkpt lat="39.97488" lon="8.4259067"><ele>20.0</ele><time>2026-05-02T11:02:49.366Z</time></trkpt><trkpt lat="39.9748483" lon="8.4257383"><ele>20.0</ele><time>2026-05-02T11:02:50.366Z</time></trkpt><trkpt lat="39.9748333" lon="8.4255667"><ele>20.0</ele><time>2026-05-02T11:02:51.366Z</time></trkpt><trkpt lat="39.9748317" lon="8.4253667"><ele>20.0</ele><time>2026-05-02T11:02:52.366Z</time></trkpt><trkpt lat="39.97484" lon="8.4251633"><ele>20.0</ele><time>2026-05-02T11:02:53.366Z</time></trkpt><trkpt lat="39.9748517" lon="8.4249917"><ele>20.0</ele><time>2026-05-02T11:02:54.366Z</time></trkpt><trkpt lat="39.9748433" lon="8.4248483"><ele>20.0</ele><time>2026-05-02T11:02:55.366Z</time></trkpt><trkpt lat="39.9748017" lon="8.4246917"><ele>20.0</ele><time>2026-05-02T11:02:56.366Z</time></trkpt><trkpt lat="39.9747467" lon="8.424535"><ele>20.0</ele><time>2026-05-02T11:02:57.366Z</time></trkpt><trkpt lat="39.9746933" lon="8.424365"><ele>20.0</ele><time>2026-05-02T11:02:58.366Z</time></trkpt><trkpt lat="39.9746217" lon="8.4242183"><ele>20.0</ele><time>2026-05-02T11:02:59.366Z</time></trkpt><trkpt lat="39.97455" lon="8.424065"><ele>20.0</ele><time>2026-05-02T11:03:00.366Z</time></trkpt><trkpt lat="39.9744867" lon="8.4239233"><ele>20.0</ele><time>2026-05-02T11:03:01.366Z</time></trkpt><trkpt lat="39.9744517" lon="8.4237633"><ele>19.75</ele><time>2026-05-02T11:03:02.366Z</time></trkpt><trkpt lat="39.9744267" lon="8.423595"><ele>19.5</ele><time>2026-05-02T11:03:03.366Z</time></trkpt><trkpt lat="39.9744017" lon="8.4234067"><ele>19.25</ele><time>2026-05-02T11:03:04.366Z</time></trkpt><trkpt lat="39.9743667" lon="8.42324"><ele>19.0</ele><time>2026-05-02T11:03:05.366Z</time></trkpt><trkpt lat="39.9743033" lon="8.423075"><ele>18.333333333333332</ele><time>2026-05-02T11:03:06.366Z</time></trkpt><trkpt lat="39.974225" lon="8.4229033"><ele>17.666666666666668</ele><time>2026-05-02T11:03:07.366Z</time></trkpt><trkpt lat="39.9741667" lon="8.42273"><ele>17.0</ele><time>2026-05-02T11:03:08.366Z</time></trkpt><trkpt lat="39.974115" lon="8.4224983"><ele>17.0</ele><time>2026-05-02T11:03:09.366Z</time></trkpt><trkpt lat="39.9740633" lon="8.4222517"><ele>17.0</ele><time>2026-05-02T11:03:10.366Z</time></trkpt><trkpt lat="39.9740267" lon="8.42203"><ele>17.0</ele><time>2026-05-02T11:03:11.366Z</time></trkpt><trkpt lat="39.9739983" lon="8.4217967"><ele>17.333333333333336</ele><time>2026-05-02T11:03:12.366Z</time></trkpt><trkpt lat="39.9739617" lon="8.4215817"><ele>17.666666666666668</ele><time>2026-05-02T11:03:13.366Z</time></trkpt><trkpt lat="39.9739133" lon="8.421375"><ele>18.0</ele><time>2026-05-02T11:03:14.366Z</time></trkpt><trkpt lat="39.9738533" lon="8.421185"><ele>18.0</ele><time>2026-05-02T11:03:15.366Z</time></trkpt><trkpt lat="39.97377" lon="8.421025"><ele>18.0</ele><time>2026-05-02T11:03:16.366Z</time></trkpt><trkpt lat="39.973695" lon="8.4208883"><ele>18.0</ele><time>2026-05-02T11:03:17.366Z</time></trkpt><trkpt lat="39.9736217" lon="8.4207617"><ele>18.0</ele><time>2026-05-02T11:03:18.366Z</time></trkpt><trkpt lat="39.97356" lon="8.420665"><ele>18.0</ele><time>2026-05-02T11:03:19.366Z</time></trkpt><trkpt lat="39.973525" lon="8.42059"><ele>18.0</ele><time>2026-05-02T11:03:20.366Z</time></trkpt><trkpt lat="39.9734833" lon="8.420515"><ele>18.0</ele><time>2026-05-02T11:03:22.366Z</time></trkpt><trkpt lat="39.9734033" lon="8.4205717"><ele>18.0</ele><time>2026-05-02T11:03:26.366Z</time></trkpt><trkpt lat="39.9733067" lon="8.4207017"><ele>18.0</ele><time>2026-05-02T11:03:28.366Z</time></trkpt><trkpt lat="39.973235" lon="8.4208067"><ele>18.666666666666668</ele><time>2026-05-02T11:03:29.366Z</time></trkpt><trkpt lat="39.9731433" lon="8.42095"><ele>19.333333333333336</ele><time>2026-05-02T11:03:30.366Z</time></trkpt><trkpt lat="39.9730367" lon="8.4210983"><ele>20.0</ele><time>2026-05-02T11:03:31.366Z</time></trkpt><trkpt lat="39.9729367" lon="8.421255"><ele>20.0</ele><time>2026-05-02T11:03:32.366Z</time></trkpt><trkpt lat="39.9728333" lon="8.4214183"><ele>20.0</ele><time>2026-05-02T11:03:33.366Z</time></trkpt><trkpt lat="39.972725" lon="8.4215817"><ele>20.0</ele><time>2026-05-02T11:03:34.366Z</time></trkpt><trkpt lat="39.9726117" lon="8.42174"><ele>20.0</ele><time>2026-05-02T11:03:35.366Z</time></trkpt><trkpt lat="39.9724917" lon="8.421905"><ele>20.0</ele><time>2026-05-02T11:03:36.366Z</time></trkpt><trkpt lat="39.9723783" lon="8.4220967"><ele>20.0</ele><time>2026-05-02T11:03:37.366Z</time></trkpt><trkpt lat="39.972245" lon="8.4222933"><ele>20.0</ele><time>2026-05-02T11:03:38.366Z</time></trkpt><trkpt lat="39.9721167" lon="8.4224683"><ele>20.0</ele><time>2026-05-02T11:03:39.366Z</time></trkpt><trkpt lat="39.9719967" lon="8.42265"><ele>20.0</ele><time>2026-05-02T11:03:40.366Z</time></trkpt><trkpt lat="39.9718817" lon="8.422825"><ele>20.333333333333336</ele><time>2026-05-02T11:03:41.366Z</time></trkpt><trkpt lat="39.9717633" lon="8.4230017"><ele>20.666666666666668</ele><time>2026-05-02T11:03:42.366Z</time></trkpt><trkpt lat="39.9716617" lon="8.4231683"><ele>21.0</ele><time>2026-05-02T11:03:43.366Z</time></trkpt><trkpt lat="39.97156" lon="8.4233133"><ele>21.75</ele><time>2026-05-02T11:03:44.366Z</time></trkpt><trkpt lat="39.971475" lon="8.42345"><ele>22.5</ele><time>2026-05-02T11:03:45.366Z</time></trkpt><trkpt lat="39.9713883" lon="8.4236017"><ele>23.25</ele><time>2026-05-02T11:03:46.366Z</time></trkpt><trkpt lat="39.9713067" lon="8.423775"><ele>24.0</ele><time>2026-05-02T11:03:47.366Z</time></trkpt><trkpt lat="39.9712317" lon="8.4239583"><ele>24.0</ele><time>2026-05-02T11:03:48.366Z</time></trkpt><trkpt lat="39.9711667" lon="8.424155"><ele>24.0</ele><time>2026-05-02T11:03:49.366Z</time></trkpt><trkpt lat="39.9711017" lon="8.4243633"><ele>24.0</ele><time>2026-05-02T11:03:50.366Z</time></trkpt><trkpt lat="39.971055" lon="8.4245817"><ele>24.666666666666664</ele><time>2026-05-02T11:03:51.366Z</time></trkpt><trkpt lat="39.9710067" lon="8.4248167"><ele>25.333333333333332</ele><time>2026-05-02T11:03:52.366Z</time></trkpt><trkpt lat="39.970965" lon="8.4250333"><ele>26.0</ele><time>2026-05-02T11:03:53.366Z</time></trkpt><trkpt lat="39.97092" lon="8.42526"><ele>26.0</ele><time>2026-05-02T11:03:54.366Z</time></trkpt><trkpt lat="39.9708767" lon="8.425475"><ele>26.0</ele><time>2026-05-02T11:03:55.366Z</time></trkpt><trkpt lat="39.9708317" lon="8.4256617"><ele>26.0</ele><time>2026-05-02T11:03:56.366Z</time></trkpt><trkpt lat="39.97078" lon="8.4258467"><ele>26.666666666666664</ele><time>2026-05-02T11:03:57.366Z</time></trkpt><trkpt lat="39.9707183" lon="8.426025"><ele>27.333333333333336</ele><time>2026-05-02T11:03:58.366Z</time></trkpt><trkpt lat="39.97065" lon="8.4262133"><ele>28.0</ele><time>2026-05-02T11:03:59.366Z</time></trkpt><trkpt lat="39.9705617" lon="8.4263917"><ele>28.666666666666668</ele><time>2026-05-02T11:04:00.366Z</time></trkpt><trkpt lat="39.9704717" lon="8.42656"><ele>29.333333333333336</ele><time>2026-05-02T11:04:01.366Z</time></trkpt><trkpt lat="39.9703583" lon="8.4267183"><ele>30.0</ele><time>2026-05-02T11:04:02.366Z</time></trkpt><trkpt lat="39.970215" lon="8.42686"><ele>30.0</ele><time>2026-05-02T11:04:03.366Z</time></trkpt><trkpt lat="39.97006" lon="8.427005"><ele>30.0</ele><time>2026-05-02T11:04:04.366Z</time></trkpt><trkpt lat="39.9698933" lon="8.4271533"><ele>30.0</ele><time>2026-05-02T11:04:05.366Z</time></trkpt><trkpt lat="39.9697033" lon="8.4273183"><ele>33.5</ele><time>2026-05-02T11:04:06.366Z</time></trkpt><trkpt lat="39.9695117" lon="8.4274983"><ele>37.0</ele><time>2026-05-02T11:04:07.366Z</time></trkpt><trkpt lat="39.9693267" lon="8.4276883"><ele>37.0</ele><time>2026-05-02T11:04:08.366Z</time></trkpt><trkpt lat="39.9691517" lon="8.4278667"><ele>37.0</ele><time>2026-05-02T11:04:09.366Z</time></trkpt><trkpt lat="39.968985" lon="8.42803"><ele>37.0</ele><time>2026-05-02T11:04:10.366Z</time></trkpt><trkpt lat="39.9688117" lon="8.4282067"><ele>38.5</ele><time>2026-05-02T11:04:11.366Z</time></trkpt><trkpt lat="39.96864" lon="8.428395"><ele>40.0</ele><time>2026-05-02T11:04:12.366Z</time></trkpt><trkpt lat="39.968455" lon="8.4285783"><ele>40.333333333333336</ele><time>2026-05-02T11:04:13.366Z</time></trkpt><trkpt lat="39.968305" lon="8.428745"><ele>40.666666666666664</ele><time>2026-05-02T11:04:14.366Z</time></trkpt><trkpt lat="39.968145" lon="8.4288933"><ele>41.0</ele><time>2026-05-02T11:04:15.366Z</time></trkpt><trkpt lat="39.9680017" lon="8.4290233"><ele>41.599999999999994</ele><time>2026-05-02T11:04:16.366Z</time></trkpt><trkpt lat="39.9679017" lon="8.429125"><ele>42.2</ele><time>2026-05-02T11:04:17.366Z</time></trkpt><trkpt lat="39.967835" lon="8.429195"><ele>42.8</ele><time>2026-05-02T11:04:18.366Z</time></trkpt><trkpt lat="39.967765" lon="8.4292583"><ele>43.400000000000006</ele><time>2026-05-02T11:04:20.366Z</time></trkpt><trkpt lat="39.96768" lon="8.429365"><ele>44.0</ele><time>2026-05-02T11:04:22.366Z</time></trkpt><trkpt lat="39.96758" lon="8.42947"><ele>44.33333333333333</ele><time>2026-05-02T11:04:23.366Z</time></trkpt><trkpt lat="39.9674433" lon="8.4296033"><ele>44.666666666666664</ele><time>2026-05-02T11:04:24.366Z</time></trkpt><trkpt lat="39.96729" lon="8.4297717"><ele>45.0</ele><time>2026-05-02T11:04:25.366Z</time></trkpt><trkpt lat="39.967135" lon="8.4299833"><ele>45.0</ele><time>2026-05-02T11:04:26.366Z</time></trkpt><trkpt lat="39.9669883" lon="8.43022"><ele>45.0</ele><time>2026-05-02T11:04:27.366Z</time></trkpt><trkpt lat="39.966855" lon="8.4304917"><ele>45.5</ele><time>2026-05-02T11:04:28.366Z</time></trkpt><trkpt lat="39.96671" lon="8.43079"><ele>46.0</ele><time>2026-05-02T11:04:29.366Z</time></trkpt><trkpt lat="39.96656" lon="8.4311133"><ele>47.0</ele><time>2026-05-02T11:04:30.366Z</time></trkpt><trkpt lat="39.9664133" lon="8.43145"><ele>48.0</ele><time>2026-05-02T11:04:31.366Z</time></trkpt><trkpt lat="39.9662617" lon="8.4317967"><ele>49.5</ele><time>2026-05-02T11:04:32.366Z</time></trkpt><trkpt lat="39.966105" lon="8.4321417"><ele>51.0</ele><time>2026-05-02T11:04:33.366Z</time></trkpt><trkpt lat="39.96595" lon="8.4324683"><ele>50.5</ele><time>2026-05-02T11:04:34.366Z</time></trkpt><trkpt lat="39.96581" lon="8.4327733"><ele>50.0</ele><time>2026-05-02T11:04:35.366Z</time></trkpt><trkpt lat="39.9656783" lon="8.43306"><ele>51.5</ele><time>2026-05-02T11:04:36.366Z</time></trkpt><trkpt lat="39.965565" lon="8.4333417"><ele>53.0</ele><time>2026-05-02T11:04:37.366Z</time></trkpt><trkpt lat="39.96547" lon="8.4336067"><ele>54.0</ele><time>2026-05-02T11:04:38.366Z</time></trkpt><trkpt lat="39.965375" lon="8.43389"><ele>55.0</ele><time>2026-05-02T11:04:39.366Z</time></trkpt><trkpt lat="39.9653033" lon="8.4341683"><ele>55.0</ele><time>2026-05-02T11:04:40.366Z</time></trkpt><trkpt lat="39.9652433" lon="8.43446"><ele>55.0</ele><time>2026-05-02T11:04:41.366Z</time></trkpt><trkpt lat="39.965195" lon="8.4347683"><ele>54.5</ele><time>2026-05-02T11:04:42.366Z</time></trkpt><trkpt lat="39.9651533" lon="8.4350833"><ele>54.0</ele><time>2026-05-02T11:04:43.366Z</time></trkpt><trkpt lat="39.96512" lon="8.4353867"><ele>53.33333333333333</ele><time>2026-05-02T11:04:44.366Z</time></trkpt><trkpt lat="39.9650783" lon="8.4356717"><ele>52.666666666666664</ele><time>2026-05-02T11:04:45.366Z</time></trkpt><trkpt lat="39.9650367" lon="8.4359617"><ele>52.0</ele><time>2026-05-02T11:04:46.366Z</time></trkpt><trkpt lat="39.9649967" lon="8.4362417"><ele>51.33333333333333</ele><time>2026-05-02T11:04:47.366Z</time></trkpt><trkpt lat="39.9649683" lon="8.4365167"><ele>50.66666666666667</ele><time>2026-05-02T11:04:48.366Z</time></trkpt><trkpt lat="39.9649367" lon="8.43679"><ele>50.0</ele><time>2026-05-02T11:04:49.366Z</time></trkpt><trkpt lat="39.9648967" lon="8.4370833"><ele>50.0</ele><time>2026-05-02T11:04:50.366Z</time></trkpt><trkpt lat="39.96485" lon="8.4373717"><ele>50.0</ele><time>2026-05-02T11:04:51.366Z</time></trkpt><trkpt lat="39.964805" lon="8.4376617"><ele>50.0</ele><time>2026-05-02T11:04:52.366Z</time></trkpt><trkpt lat="39.9647683" lon="8.43793"><ele>50.0</ele><time>2026-05-02T11:04:53.366Z</time></trkpt><trkpt lat="39.9647417" lon="8.4381983"><ele>50.0</ele><time>2026-05-02T11:04:54.366Z</time></trkpt><trkpt lat="39.9647117" lon="8.4384617"><ele>48.66666666666667</ele><time>2026-05-02T11:04:55.366Z</time></trkpt><trkpt lat="39.9646883" lon="8.4387167"><ele>47.333333333333336</ele><time>2026-05-02T11:04:56.366Z</time></trkpt><trkpt lat="39.964665" lon="8.4389833"><ele>46.0</ele><time>2026-05-02T11:04:57.366Z</time></trkpt><trkpt lat="39.96466" lon="8.439255"><ele>44.66666666666667</ele><time>2026-05-02T11:04:58.366Z</time></trkpt><trkpt lat="39.9646467" lon="8.4395233"><ele>43.333333333333336</ele><time>2026-05-02T11:04:59.366Z</time></trkpt><trkpt lat="39.964635" lon="8.439795"><ele>42.0</ele><time>2026-05-02T11:05:00.366Z</time></trkpt><trkpt lat="39.9646233" lon="8.4400767"><ele>41.666666666666664</ele><time>2026-05-02T11:05:01.366Z</time></trkpt><trkpt lat="39.9646117" lon="8.4403483"><ele>41.33333333333333</ele><time>2026-05-02T11:05:02.366Z</time></trkpt><trkpt lat="39.9646017" lon="8.440625"><ele>41.0</ele><time>2026-05-02T11:05:03.366Z</time></trkpt><trkpt lat="39.9646" lon="8.4408933"><ele>40.0</ele><time>2026-05-02T11:05:04.366Z</time></trkpt><trkpt lat="39.9646" lon="8.4411433"><ele>39.0</ele><time>2026-05-02T11:05:05.366Z</time></trkpt><trkpt lat="39.9645933" lon="8.4413967"><ele>38.0</ele><time>2026-05-02T11:05:06.366Z</time></trkpt><trkpt lat="39.9645617" lon="8.4416267"><ele>38.0</ele><time>2026-05-02T11:05:07.366Z</time></trkpt><trkpt lat="39.9644933" lon="8.4418717"><ele>38.0</ele><time>2026-05-02T11:05:08.366Z</time></trkpt><trkpt lat="39.9643983" lon="8.4421067"><ele>38.0</ele><time>2026-05-02T11:05:09.366Z</time></trkpt><trkpt lat="39.9642683" lon="8.4423167"><ele>36.666666666666664</ele><time>2026-05-02T11:05:10.366Z</time></trkpt><trkpt lat="39.9641233" lon="8.4424983"><ele>35.333333333333336</ele><time>2026-05-02T11:05:11.366Z</time></trkpt><trkpt lat="39.9639883" lon="8.4426733"><ele>34.0</ele><time>2026-05-02T11:05:12.366Z</time></trkpt><trkpt lat="39.9638717" lon="8.4428367"><ele>33.66666666666667</ele><time>2026-05-02T11:05:13.366Z</time></trkpt><trkpt lat="39.963745" lon="8.443"><ele>33.333333333333336</ele><time>2026-05-02T11:05:14.366Z</time></trkpt><trkpt lat="39.9636083" lon="8.4431667"><ele>33.0</ele><time>2026-05-02T11:05:15.366Z</time></trkpt><trkpt lat="39.9634667" lon="8.443345"><ele>32.666666666666664</ele><time>2026-05-02T11:05:16.366Z</time></trkpt><trkpt lat="39.9633233" lon="8.443525"><ele>32.33333333333333</ele><time>2026-05-02T11:05:17.366Z</time></trkpt><trkpt lat="39.9631783" lon="8.443705"><ele>32.0</ele><time>2026-05-02T11:05:18.366Z</time></trkpt><trkpt lat="39.96305" lon="8.4438717"><ele>31.333333333333332</ele><time>2026-05-02T11:05:19.366Z</time></trkpt><trkpt lat="39.96293" lon="8.4440267"><ele>30.666666666666664</ele><time>2026-05-02T11:05:20.366Z</time></trkpt><trkpt lat="39.9628133" lon="8.44417"><ele>30.0</ele><time>2026-05-02T11:05:21.366Z</time></trkpt><trkpt lat="39.9627067" lon="8.444305"><ele>30.0</ele><time>2026-05-02T11:05:22.366Z</time></trkpt><trkpt lat="39.9626117" lon="8.4444617"><ele>30.0</ele><time>2026-05-02T11:05:23.366Z</time></trkpt><trkpt lat="39.9625233" lon="8.444625"><ele>30.0</ele><time>2026-05-02T11:05:24.366Z</time></trkpt><trkpt lat="39.9624467" lon="8.44479"><ele>29.0</ele><time>2026-05-02T11:05:25.366Z</time></trkpt><trkpt lat="39.9623867" lon="8.4449667"><ele>28.0</ele><time>2026-05-02T11:05:26.366Z</time></trkpt><trkpt lat="39.9623417" lon="8.4451633"><ele>27.0</ele><time>2026-05-02T11:05:27.366Z</time></trkpt><trkpt lat="39.9622983" lon="8.4453783"><ele>27.0</ele><time>2026-05-02T11:05:28.366Z</time></trkpt><trkpt lat="39.9622483" lon="8.4455933"><ele>27.0</ele><time>2026-05-02T11:05:29.366Z</time></trkpt><trkpt lat="39.9622033" lon="8.4458067"><ele>27.0</ele><time>2026-05-02T11:05:30.366Z</time></trkpt><trkpt lat="39.9621433" lon="8.446025"><ele>27.0</ele><time>2026-05-02T11:05:31.366Z</time></trkpt><trkpt lat="39.9620883" lon="8.4462417"><ele>27.0</ele><time>2026-05-02T11:05:32.366Z</time></trkpt><trkpt lat="39.962045" lon="8.4464567"><ele>27.0</ele><time>2026-05-02T11:05:33.366Z</time></trkpt><trkpt lat="39.962" lon="8.4466483"><ele>27.25</ele><time>2026-05-02T11:05:34.366Z</time></trkpt><trkpt lat="39.9619567" lon="8.4468233"><ele>27.5</ele><time>2026-05-02T11:05:35.366Z</time></trkpt><trkpt lat="39.9619083" lon="8.4469817"><ele>27.75</ele><time>2026-05-02T11:05:36.366Z</time></trkpt><trkpt lat="39.9618733" lon="8.4471333"><ele>28.0</ele><time>2026-05-02T11:05:37.366Z</time></trkpt><trkpt lat="39.9618333" lon="8.447285"><ele>27.799999999999997</ele><time>2026-05-02T11:05:38.366Z</time></trkpt><trkpt lat="39.961795" lon="8.4474167"><ele>27.599999999999998</ele><time>2026-05-02T11:05:39.366Z</time></trkpt><trkpt lat="39.961765" lon="8.4475517"><ele>27.400000000000002</ele><time>2026-05-02T11:05:40.366Z</time></trkpt><trkpt lat="39.9617317" lon="8.4476917"><ele>27.200000000000003</ele><time>2026-05-02T11:05:41.366Z</time></trkpt><trkpt lat="39.9617067" lon="8.4478333"><ele>27.0</ele><time>2026-05-02T11:05:42.366Z</time></trkpt><trkpt lat="39.961675" lon="8.4479717"><ele>27.0</ele><time>2026-05-02T11:05:43.366Z</time></trkpt><trkpt lat="39.9616533" lon="8.4481"><ele>27.0</ele><time>2026-05-02T11:05:44.366Z</time></trkpt><trkpt lat="39.9616367" lon="8.4482183"><ele>27.0</ele><time>2026-05-02T11:05:45.366Z</time></trkpt><trkpt lat="39.9616017" lon="8.4483033"><ele>27.0</ele><time>2026-05-02T11:05:46.366Z</time></trkpt><trkpt lat="39.9615183" lon="8.44839"><ele>27.0</ele><time>2026-05-02T11:05:48.366Z</time></trkpt><trkpt lat="39.9614483" lon="8.448375"><ele>27.0</ele><time>2026-05-02T11:05:49.366Z</time></trkpt><trkpt lat="39.961325" lon="8.4482667"><ele>27.0</ele><time>2026-05-02T11:05:50.366Z</time></trkpt><trkpt lat="39.9611967" lon="8.44818"><ele>27.0</ele><time>2026-05-02T11:05:51.366Z</time></trkpt><trkpt lat="39.96106" lon="8.4481083"><ele>27.0</ele><time>2026-05-02T11:05:52.366Z</time></trkpt><trkpt lat="39.9609183" lon="8.4480283"><ele>27.0</ele><time>2026-05-02T11:05:53.366Z</time></trkpt><trkpt lat="39.9607633" lon="8.4479483"><ele>27.0</ele><time>2026-05-02T11:05:54.366Z</time></trkpt><trkpt lat="39.9606133" lon="8.447855"><ele>27.0</ele><time>2026-05-02T11:05:55.366Z</time></trkpt><trkpt lat="39.96047" lon="8.4477683"><ele>27.0</ele><time>2026-05-02T11:05:56.366Z</time></trkpt><trkpt lat="39.9603367" lon="8.4476783"><ele>27.0</ele><time>2026-05-02T11:05:57.366Z</time></trkpt><trkpt lat="39.9602217" lon="8.4476267"><ele>27.0</ele><time>2026-05-02T11:05:58.366Z</time></trkpt><trkpt lat="39.9601083" lon="8.4475867"><ele>27.0</ele><time>2026-05-02T11:05:59.366Z</time></trkpt><trkpt lat="39.9599983" lon="8.4475683"><ele>27.0</ele><time>2026-05-02T11:06:00.366Z</time></trkpt><trkpt lat="39.9598867" lon="8.4475633"><ele>29.0</ele><time>2026-05-02T11:06:01.366Z</time></trkpt><trkpt lat="39.9597617" lon="8.4475617"><ele>31.0</ele><time>2026-05-02T11:06:02.366Z</time></trkpt><trkpt lat="39.9596467" lon="8.4475433"><ele>33.0</ele><time>2026-05-02T11:06:03.366Z</time></trkpt><trkpt lat="39.9595417" lon="8.4475083"><ele>35.0</ele><time>2026-05-02T11:06:04.366Z</time></trkpt><trkpt lat="39.9594367" lon="8.4474483"><ele>35.0</ele><time>2026-05-02T11:06:05.366Z</time></trkpt><trkpt lat="39.9593217" lon="8.447375"><ele>35.0</ele><time>2026-05-02T11:06:06.366Z</time></trkpt><trkpt lat="39.9592117" lon="8.447295"><ele>35.0</ele><time>2026-05-02T11:06:07.366Z</time></trkpt><trkpt lat="39.9591083" lon="8.4472217"><ele>35.0</ele><time>2026-05-02T11:06:08.366Z</time></trkpt><trkpt lat="39.9590083" lon="8.4471483"><ele>36.5</ele><time>2026-05-02T11:06:09.366Z</time></trkpt><trkpt lat="39.9589167" lon="8.4470683"><ele>38.0</ele><time>2026-05-02T11:06:10.366Z</time></trkpt><trkpt lat="39.9588133" lon="8.4469783"><ele>39.5</ele><time>2026-05-02T11:06:11.366Z</time></trkpt><trkpt lat="39.9587067" lon="8.44687"><ele>41.0</ele><time>2026-05-02T11:06:12.366Z</time></trkpt><trkpt lat="39.95861" lon="8.4467733"><ele>41.0</ele><time>2026-05-02T11:06:13.366Z</time></trkpt><trkpt lat="39.958515" lon="8.44667"><ele>41.0</ele><time>2026-05-02T11:06:14.366Z</time></trkpt><trkpt lat="39.958405" lon="8.44655"><ele>41.0</ele><time>2026-05-02T11:06:15.366Z</time></trkpt><trkpt lat="39.9582667" lon="8.4464033"><ele>41.0</ele><time>2026-05-02T11:06:16.366Z</time></trkpt><trkpt lat="39.9581233" lon="8.4462533"><ele>43.0</ele><time>2026-05-02T11:06:17.366Z</time></trkpt><trkpt lat="39.9579783" lon="8.446075"><ele>45.0</ele><time>2026-05-02T11:06:18.366Z</time></trkpt><trkpt lat="39.9578483" lon="8.4458983"><ele>47.0</ele><time>2026-05-02T11:06:19.366Z</time></trkpt><trkpt lat="39.95773" lon="8.4457067"><ele>47.0</ele><time>2026-05-02T11:06:20.366Z</time></trkpt><trkpt lat="39.95763" lon="8.4455017"><ele>47.0</ele><time>2026-05-02T11:06:21.366Z</time></trkpt><trkpt lat="39.9575483" lon="8.44528"><ele>47.0</ele><time>2026-05-02T11:06:22.366Z</time></trkpt><trkpt lat="39.9574583" lon="8.4450817"><ele>48.666666666666664</ele><time>2026-05-02T11:06:23.366Z</time></trkpt><trkpt lat="39.9573617" lon="8.444905"><ele>50.33333333333333</ele><time>2026-05-02T11:06:24.366Z</time></trkpt><trkpt lat="39.9572667" lon="8.4447517"><ele>52.0</ele><time>2026-05-02T11:06:25.366Z</time></trkpt><trkpt lat="39.9571767" lon="8.4446067"><ele>52.0</ele><time>2026-05-02T11:06:26.366Z</time></trkpt><trkpt lat="39.9570817" lon="8.4444517"><ele>52.0</ele><time>2026-05-02T11:06:27.366Z</time></trkpt><trkpt lat="39.9569933" lon="8.4443"><ele>52.0</ele><time>2026-05-02T11:06:28.366Z</time></trkpt><trkpt lat="39.9568983" lon="8.44414"><ele>52.0</ele><time>2026-05-02T11:06:29.366Z</time></trkpt><trkpt lat="39.9568" lon="8.4439667"><ele>52.0</ele><time>2026-05-02T11:06:30.366Z</time></trkpt><trkpt lat="39.9566983" lon="8.4438"><ele>52.0</ele><time>2026-05-02T11:06:31.366Z</time></trkpt><trkpt lat="39.9565933" lon="8.4436333"><ele>52.666666666666664</ele><time>2026-05-02T11:06:32.366Z</time></trkpt><trkpt lat="39.956485" lon="8.4434633"><ele>53.33333333333333</ele><time>2026-05-02T11:06:33.366Z</time></trkpt><trkpt lat="39.956375" lon="8.4432967"><ele>54.0</ele><time>2026-05-02T11:06:34.366Z</time></trkpt><trkpt lat="39.9562683" lon="8.4431167"><ele>53.66666666666667</ele><time>2026-05-02T11:06:35.366Z</time></trkpt><trkpt lat="39.9561583" lon="8.4429333"><ele>53.333333333333336</ele><time>2026-05-02T11:06:36.366Z</time></trkpt><trkpt lat="39.9560533" lon="8.44277"><ele>53.0</ele><time>2026-05-02T11:06:37.365Z</time></trkpt><trkpt lat="39.9559483" lon="8.4425967"><ele>53.333333333333336</ele><time>2026-05-02T11:06:38.365Z</time></trkpt><trkpt lat="39.9558383" lon="8.44241"><ele>53.66666666666667</ele><time>2026-05-02T11:06:39.365Z</time></trkpt><trkpt lat="39.95573" lon="8.4422267"><ele>54.0</ele><time>2026-05-02T11:06:40.365Z</time></trkpt><trkpt lat="39.95562" lon="8.4420567"><ele>54.0</ele><time>2026-05-02T11:06:41.365Z</time></trkpt><trkpt lat="39.955515" lon="8.441885"><ele>54.0</ele><time>2026-05-02T11:06:42.365Z</time></trkpt><trkpt lat="39.9554133" lon="8.4417133"><ele>54.0</ele><time>2026-05-02T11:06:43.365Z</time></trkpt><trkpt lat="39.9553133" lon="8.4415383"><ele>54.0</ele><time>2026-05-02T11:06:44.365Z</time></trkpt><trkpt lat="39.9551967" lon="8.4413633"><ele>54.0</ele><time>2026-05-02T11:06:45.365Z</time></trkpt><trkpt lat="39.95508" lon="8.4412017"><ele>54.0</ele><time>2026-05-02T11:06:46.365Z</time></trkpt><trkpt lat="39.954965" lon="8.4410233"><ele>54.66666666666667</ele><time>2026-05-02T11:06:47.365Z</time></trkpt><trkpt lat="39.954865" lon="8.4408467"><ele>55.333333333333336</ele><time>2026-05-02T11:06:48.365Z</time></trkpt><trkpt lat="39.9547567" lon="8.4406783"><ele>56.0</ele><time>2026-05-02T11:06:49.365Z</time></trkpt><trkpt lat="39.9546483" lon="8.440495"><ele>55.5</ele><time>2026-05-02T11:06:50.365Z</time></trkpt><trkpt lat="39.9545533" lon="8.4403233"><ele>55.0</ele><time>2026-05-02T11:06:51.365Z</time></trkpt><trkpt lat="39.9544767" lon="8.44016"><ele>54.5</ele><time>2026-05-02T11:06:52.365Z</time></trkpt><trkpt lat="39.9544117" lon="8.44002"><ele>54.0</ele><time>2026-05-02T11:06:53.365Z</time></trkpt><trkpt lat="39.9543317" lon="8.43988"><ele>54.0</ele><time>2026-05-02T11:06:54.365Z</time></trkpt><trkpt lat="39.95428" lon="8.4397317"><ele>54.0</ele><time>2026-05-02T11:06:55.365Z</time></trkpt><trkpt lat="39.9542317" lon="8.4395417"><ele>54.0</ele><time>2026-05-02T11:06:56.365Z</time></trkpt><trkpt lat="39.954185" lon="8.43934"><ele>54.0</ele><time>2026-05-02T11:06:57.365Z</time></trkpt><trkpt lat="39.9541283" lon="8.43913"><ele>54.33333333333333</ele><time>2026-05-02T11:06:58.365Z</time></trkpt><trkpt lat="39.95408" lon="8.438925"><ele>54.666666666666664</ele><time>2026-05-02T11:06:59.365Z</time></trkpt><trkpt lat="39.9540167" lon="8.4387133"><ele>55.0</ele><time>2026-05-02T11:07:00.365Z</time></trkpt><trkpt lat="39.9539367" lon="8.4385283"><ele>54.33333333333333</ele><time>2026-05-02T11:07:01.365Z</time></trkpt><trkpt lat="39.9538483" lon="8.4383533"><ele>53.66666666666667</ele><time>2026-05-02T11:07:02.365Z</time></trkpt><trkpt lat="39.9537333" lon="8.4381817"><ele>53.0</ele><time>2026-05-02T11:07:03.366Z</time></trkpt><trkpt lat="39.9536333" lon="8.4379967"><ele>53.0</ele><time>2026-05-02T11:07:04.365Z</time></trkpt><trkpt lat="39.9535367" lon="8.43782"><ele>53.0</ele><time>2026-05-02T11:07:05.365Z</time></trkpt><trkpt lat="39.9534417" lon="8.4376583"><ele>53.0</ele><time>2026-05-02T11:07:06.365Z</time></trkpt><trkpt lat="39.95335" lon="8.437495"><ele>53.0</ele><time>2026-05-02T11:07:07.365Z</time></trkpt><trkpt lat="39.95326" lon="8.43734"><ele>53.0</ele><time>2026-05-02T11:07:08.365Z</time></trkpt><trkpt lat="39.9531733" lon="8.43719"><ele>53.0</ele><time>2026-05-02T11:07:09.365Z</time></trkpt><trkpt lat="39.9531033" lon="8.4370267"><ele>53.0</ele><time>2026-05-02T11:07:10.365Z</time></trkpt><trkpt lat="39.9530333" lon="8.436865"><ele>53.0</ele><time>2026-05-02T11:07:11.365Z</time></trkpt><trkpt lat="39.9529733" lon="8.436685"><ele>53.0</ele><time>2026-05-02T11:07:12.365Z</time></trkpt><trkpt lat="39.95291" lon="8.4365067"><ele>53.0</ele><time>2026-05-02T11:07:13.365Z</time></trkpt><trkpt lat="39.9528517" lon="8.4363367"><ele>53.0</ele><time>2026-05-02T11:07:14.365Z</time></trkpt><trkpt lat="39.952795" lon="8.43619"><ele>53.0</ele><time>2026-05-02T11:07:15.365Z</time></trkpt><trkpt lat="39.9527367" lon="8.43605"><ele>53.0</ele><time>2026-05-02T11:07:16.365Z</time></trkpt><trkpt lat="39.95266" lon="8.4359283"><ele>53.0</ele><time>2026-05-02T11:07:17.365Z</time></trkpt><trkpt lat="39.952565" lon="8.4357983"><ele>53.0</ele><time>2026-05-02T11:07:18.365Z</time></trkpt><trkpt lat="39.95247" lon="8.435665"><ele>53.0</ele><time>2026-05-02T11:07:19.365Z</time></trkpt><trkpt lat="39.9523783" lon="8.4355367"><ele>53.0</ele><time>2026-05-02T11:07:20.365Z</time></trkpt><trkpt lat="39.9523017" lon="8.43543"><ele>53.0</ele><time>2026-05-02T11:07:21.365Z</time></trkpt><trkpt lat="39.9522267" lon="8.4353483"><ele>53.0</ele><time>2026-05-02T11:07:22.365Z</time></trkpt><trkpt lat="39.9521567" lon="8.4353067"><ele>53.0</ele><time>2026-05-02T11:07:23.365Z</time></trkpt><trkpt lat="39.95207" lon="8.435285"><ele>52.75</ele><time>2026-05-02T11:07:24.365Z</time></trkpt><trkpt lat="39.9519767" lon="8.4352783"><ele>52.5</ele><time>2026-05-02T11:07:25.365Z</time></trkpt><trkpt lat="39.9518567" lon="8.4352983"><ele>52.25</ele><time>2026-05-02T11:07:26.365Z</time></trkpt><trkpt lat="39.9517233" lon="8.43532"><ele>52.0</ele><time>2026-05-02T11:07:27.365Z</time></trkpt><trkpt lat="39.9515933" lon="8.435325"><ele>52.0</ele><time>2026-05-02T11:07:28.365Z</time></trkpt><trkpt lat="39.9514867" lon="8.4353033"><ele>52.0</ele><time>2026-05-02T11:07:29.365Z</time></trkpt><trkpt lat="39.9513983" lon="8.4352733"><ele>52.0</ele><time>2026-05-02T11:07:30.365Z</time></trkpt><trkpt lat="39.9513117" lon="8.4352233"><ele>52.0</ele><time>2026-05-02T11:07:32.365Z</time></trkpt><trkpt lat="39.9512083" lon="8.4353083"><ele>52.0</ele><time>2026-05-02T11:07:52.365Z</time></trkpt><trkpt lat="39.951125" lon="8.4353483"><ele>52.0</ele><time>2026-05-02T11:07:53.365Z</time></trkpt><trkpt lat="39.9510183" lon="8.43539"><ele>52.0</ele><time>2026-05-02T11:07:54.365Z</time></trkpt><trkpt lat="39.95091" lon="8.4354233"><ele>52.0</ele><time>2026-05-02T11:07:55.365Z</time></trkpt><trkpt lat="39.950795" lon="8.4354467"><ele>52.0</ele><time>2026-05-02T11:07:56.365Z</time></trkpt><trkpt lat="39.9506867" lon="8.4354767"><ele>52.6</ele><time>2026-05-02T11:07:57.365Z</time></trkpt><trkpt lat="39.9505767" lon="8.4355117"><ele>53.2</ele><time>2026-05-02T11:07:58.365Z</time></trkpt><trkpt lat="39.950475" lon="8.43555"><ele>53.8</ele><time>2026-05-02T11:07:59.365Z</time></trkpt><trkpt lat="39.9503683" lon="8.4355983"><ele>54.4</ele><time>2026-05-02T11:08:00.365Z</time></trkpt><trkpt lat="39.95027" lon="8.435645"><ele>55.0</ele><time>2026-05-02T11:08:01.365Z</time></trkpt><trkpt lat="39.9501767" lon="8.4357"><ele>55.0</ele><time>2026-05-02T11:08:02.365Z</time></trkpt><trkpt lat="39.9500767" lon="8.4357567"><ele>55.0</ele><time>2026-05-02T11:08:03.365Z</time></trkpt><trkpt lat="39.9499783" lon="8.435815"><ele>55.0</ele><time>2026-05-02T11:08:04.365Z</time></trkpt><trkpt lat="39.949875" lon="8.4358733"><ele>55.0</ele><time>2026-05-02T11:08:05.365Z</time></trkpt><trkpt lat="39.9497667" lon="8.4359267"><ele>55.0</ele><time>2026-05-02T11:08:06.365Z</time></trkpt><trkpt lat="39.9496467" lon="8.435975"><ele>54.25</ele><time>2026-05-02T11:08:07.365Z</time></trkpt><trkpt lat="39.9495283" lon="8.4360367"><ele>53.5</ele><time>2026-05-02T11:08:08.365Z</time></trkpt><trkpt lat="39.9494233" lon="8.43611"><ele>52.75</ele><time>2026-05-02T11:08:09.365Z</time></trkpt><trkpt lat="39.9493283" lon="8.436195"><ele>52.0</ele><time>2026-05-02T11:08:10.365Z</time></trkpt><trkpt lat="39.9492333" lon="8.43629"><ele>51.75</ele><time>2026-05-02T11:08:11.365Z</time></trkpt><trkpt lat="39.949145" lon="8.4364167"><ele>51.5</ele><time>2026-05-02T11:08:12.365Z</time></trkpt><trkpt lat="39.9490533" lon="8.4365333"><ele>51.25</ele><time>2026-05-02T11:08:13.365Z</time></trkpt><trkpt lat="39.9489617" lon="8.43666"><ele>51.0</ele><time>2026-05-02T11:08:14.365Z</time></trkpt><trkpt lat="39.9488717" lon="8.4367917"><ele>51.0</ele><time>2026-05-02T11:08:15.365Z</time></trkpt><trkpt lat="39.94878" lon="8.4369133"><ele>51.0</ele><time>2026-05-02T11:08:16.365Z</time></trkpt><trkpt lat="39.9486967" lon="8.4370433"><ele>51.0</ele><time>2026-05-02T11:08:17.365Z</time></trkpt><trkpt lat="39.94862" lon="8.4371783"><ele>51.0</ele><time>2026-05-02T11:08:18.365Z</time></trkpt><trkpt lat="39.9485517" lon="8.43731"><ele>52.0</ele><time>2026-05-02T11:08:19.365Z</time></trkpt><trkpt lat="39.94851" lon="8.4374583"><ele>53.0</ele><time>2026-05-02T11:08:20.365Z</time></trkpt><trkpt lat="39.9484683" lon="8.4376083"><ele>54.0</ele><time>2026-05-02T11:08:21.365Z</time></trkpt><trkpt lat="39.9484333" lon="8.437775"><ele>55.0</ele><time>2026-05-02T11:08:22.365Z</time></trkpt><trkpt lat="39.9484" lon="8.4379217"><ele>54.75</ele><time>2026-05-02T11:08:23.365Z</time></trkpt><trkpt lat="39.9483583" lon="8.4380467"><ele>54.5</ele><time>2026-05-02T11:08:24.365Z</time></trkpt><trkpt lat="39.9483033" lon="8.4381617"><ele>54.25</ele><time>2026-05-02T11:08:25.365Z</time></trkpt><trkpt lat="39.9482383" lon="8.4382833"><ele>54.0</ele><time>2026-05-02T11:08:26.365Z</time></trkpt><trkpt lat="39.9481417" lon="8.4384167"><ele>54.0</ele><time>2026-05-02T11:08:27.365Z</time></trkpt><trkpt lat="39.9480467" lon="8.4385483"><ele>54.0</ele><time>2026-05-02T11:08:28.365Z</time></trkpt><trkpt lat="39.9479567" lon="8.438665"><ele>54.0</ele><time>2026-05-02T11:08:29.365Z</time></trkpt><trkpt lat="39.947865" lon="8.4387767"><ele>54.0</ele><time>2026-05-02T11:08:30.365Z</time></trkpt><trkpt lat="39.947775" lon="8.43888"><ele>53.75</ele><time>2026-05-02T11:08:31.365Z</time></trkpt><trkpt lat="39.947675" lon="8.4389833"><ele>53.5</ele><time>2026-05-02T11:08:32.365Z</time></trkpt><trkpt lat="39.9475617" lon="8.4390767"><ele>53.25</ele><time>2026-05-02T11:08:33.365Z</time></trkpt><trkpt lat="39.947465" lon="8.4391683"><ele>53.0</ele><time>2026-05-02T11:08:34.365Z</time></trkpt><trkpt lat="39.9473667" lon="8.4392533"><ele>53.0</ele><time>2026-05-02T11:08:35.365Z</time></trkpt><trkpt lat="39.9472733" lon="8.439355"><ele>53.0</ele><time>2026-05-02T11:08:36.365Z</time></trkpt><trkpt lat="39.947185" lon="8.4394633"><ele>53.0</ele><time>2026-05-02T11:08:37.365Z</time></trkpt><trkpt lat="39.9470933" lon="8.4395683"><ele>53.0</ele><time>2026-05-02T11:08:38.365Z</time></trkpt><trkpt lat="39.94699" lon="8.4396767"><ele>52.75</ele><time>2026-05-02T11:08:39.365Z</time></trkpt><trkpt lat="39.9468733" lon="8.439775"><ele>52.5</ele><time>2026-05-02T11:08:40.365Z</time></trkpt><trkpt lat="39.9467683" lon="8.43988"><ele>52.25</ele><time>2026-05-02T11:08:41.365Z</time></trkpt><trkpt lat="39.9466717" lon="8.4399867"><ele>52.0</ele><time>2026-05-02T11:08:42.365Z</time></trkpt><trkpt lat="39.9465817" lon="8.4400933"><ele>52.0</ele><time>2026-05-02T11:08:43.365Z</time></trkpt><trkpt lat="39.94649" lon="8.4401967"><ele>52.0</ele><time>2026-05-02T11:08:44.365Z</time></trkpt><trkpt lat="39.9463983" lon="8.4402867"><ele>52.0</ele><time>2026-05-02T11:08:45.365Z</time></trkpt><trkpt lat="39.9463017" lon="8.4403767"><ele>52.0</ele><time>2026-05-02T11:08:46.365Z</time></trkpt><trkpt lat="39.9462017" lon="8.440465"><ele>52.5</ele><time>2026-05-02T11:08:47.365Z</time></trkpt><trkpt lat="39.9461" lon="8.4405333"><ele>53.0</ele><time>2026-05-02T11:08:48.365Z</time></trkpt><trkpt lat="39.945985" lon="8.4405867"><ele>53.5</ele><time>2026-05-02T11:08:49.365Z</time></trkpt><trkpt lat="39.9458633" lon="8.440615"><ele>54.0</ele><time>2026-05-02T11:08:50.365Z</time></trkpt><trkpt lat="39.9457383" lon="8.4406483"><ele>54.0</ele><time>2026-05-02T11:08:51.365Z</time></trkpt><trkpt lat="39.9456133" lon="8.44069"><ele>54.00000000000001</ele><time>2026-05-02T11:08:52.365Z</time></trkpt><trkpt lat="39.9455083" lon="8.4407383"><ele>54.00000000000001</ele><time>2026-05-02T11:08:53.365Z</time></trkpt><trkpt lat="39.9454067" lon="8.440775"><ele>54.0</ele><time>2026-05-02T11:08:54.365Z</time></trkpt><trkpt lat="39.9453133" lon="8.4408017"><ele>54.0</ele><time>2026-05-02T11:08:55.365Z</time></trkpt><trkpt lat="39.9452267" lon="8.440805"><ele>54.0</ele><time>2026-05-02T11:08:56.365Z</time></trkpt><trkpt lat="39.945145" lon="8.4407967"><ele>54.0</ele><time>2026-05-02T11:08:57.365Z</time></trkpt><trkpt lat="39.94508" lon="8.44078"><ele>54.0</ele><time>2026-05-02T11:08:58.365Z</time></trkpt><trkpt lat="39.9450133" lon="8.4407683"><ele>54.0</ele><time>2026-05-02T11:08:59.365Z</time></trkpt><trkpt lat="39.9449383" lon="8.4407767"><ele>54.0</ele><time>2026-05-02T11:09:00.365Z</time></trkpt><trkpt lat="39.944865" lon="8.4408233"><ele>54.0</ele><time>2026-05-02T11:09:01.365Z</time></trkpt><trkpt lat="39.944775" lon="8.4408717"><ele>54.0</ele><time>2026-05-02T11:09:02.365Z</time></trkpt><trkpt lat="39.9446767" lon="8.4409283"><ele>54.0</ele><time>2026-05-02T11:09:03.365Z</time></trkpt><trkpt lat="39.9445933" lon="8.440975"><ele>54.0</ele><time>2026-05-02T11:09:04.365Z</time></trkpt><trkpt lat="39.9445067" lon="8.441015"><ele>54.0</ele><time>2026-05-02T11:09:05.365Z</time></trkpt><trkpt lat="39.9444417" lon="8.4410467"><ele>54.0</ele><time>2026-05-02T11:09:06.365Z</time></trkpt><trkpt lat="39.9443733" lon="8.4410783"><ele>54.0</ele><time>2026-05-02T11:09:07.365Z</time></trkpt><trkpt lat="39.9443117" lon="8.441105"><ele>54.0</ele><time>2026-05-02T11:09:08.365Z</time></trkpt><trkpt lat="39.9442417" lon="8.4411317"><ele>54.0</ele><time>2026-05-02T11:09:09.365Z</time></trkpt><trkpt lat="39.9441617" lon="8.4411583"><ele>54.0</ele><time>2026-05-02T11:09:10.365Z</time></trkpt><trkpt lat="39.9440783" lon="8.44118"><ele>54.0</ele><time>2026-05-02T11:09:11.365Z</time></trkpt><trkpt lat="39.9440033" lon="8.4412067"><ele>54.0</ele><time>2026-05-02T11:09:12.365Z</time></trkpt><trkpt lat="39.9439217" lon="8.4412383"><ele>54.0</ele><time>2026-05-02T11:09:13.365Z</time></trkpt><trkpt lat="39.9438383" lon="8.4412667"><ele>54.333333333333336</ele><time>2026-05-02T11:09:14.365Z</time></trkpt><trkpt lat="39.9437583" lon="8.4413067"><ele>54.66666666666667</ele><time>2026-05-02T11:09:15.365Z</time></trkpt><trkpt lat="39.94368" lon="8.4413433"><ele>55.0</ele><time>2026-05-02T11:09:16.365Z</time></trkpt><trkpt lat="39.9435967" lon="8.4413633"><ele>55.333333333333336</ele><time>2026-05-02T11:09:17.365Z</time></trkpt><trkpt lat="39.943505" lon="8.44138"><ele>55.66666666666667</ele><time>2026-05-02T11:09:18.365Z</time></trkpt><trkpt lat="39.9434017" lon="8.441385"><ele>56.0</ele><time>2026-05-02T11:09:19.365Z</time></trkpt><trkpt lat="39.9433" lon="8.441375"><ele>56.0</ele><time>2026-05-02T11:09:20.365Z</time></trkpt><trkpt lat="39.9431883" lon="8.4413783"><ele>56.0</ele><time>2026-05-02T11:09:21.365Z</time></trkpt><trkpt lat="39.94308" lon="8.4413917"><ele>56.0</ele><time>2026-05-02T11:09:22.365Z</time></trkpt><trkpt lat="39.9429683" lon="8.441425"><ele>56.0</ele><time>2026-05-02T11:09:23.365Z</time></trkpt><trkpt lat="39.9428533" lon="8.4414617"><ele>56.0</ele><time>2026-05-02T11:09:24.365Z</time></trkpt><trkpt lat="39.9427483" lon="8.441495"><ele>55.99999999999999</ele><time>2026-05-02T11:09:25.365Z</time></trkpt><trkpt lat="39.9426583" lon="8.4415417"><ele>55.99999999999999</ele><time>2026-05-02T11:09:26.365Z</time></trkpt><trkpt lat="39.94257" lon="8.4415983"><ele>56.0</ele><time>2026-05-02T11:09:27.365Z</time></trkpt><trkpt lat="39.9424883" lon="8.4416567"><ele>56.0</ele><time>2026-05-02T11:09:28.365Z</time></trkpt><trkpt lat="39.9423983" lon="8.4417233"><ele>55.8</ele><time>2026-05-02T11:09:29.365Z</time></trkpt><trkpt lat="39.9423033" lon="8.4417917"><ele>55.599999999999994</ele><time>2026-05-02T11:09:30.365Z</time></trkpt><trkpt lat="39.9422117" lon="8.4418683"><ele>55.4</ele><time>2026-05-02T11:09:31.365Z</time></trkpt><trkpt lat="39.9421133" lon="8.4419517"><ele>55.2</ele><time>2026-05-02T11:09:32.365Z</time></trkpt><trkpt lat="39.942025" lon="8.4420217"><ele>55.0</ele><time>2026-05-02T11:09:33.365Z</time></trkpt><trkpt lat="39.941925" lon="8.442085"><ele>55.0</ele><time>2026-05-02T11:09:34.365Z</time></trkpt><trkpt lat="39.9418183" lon="8.4421183"><ele>55.0</ele><time>2026-05-02T11:09:35.365Z</time></trkpt><trkpt lat="39.9417217" lon="8.4421533"><ele>55.0</ele><time>2026-05-02T11:09:36.365Z</time></trkpt><trkpt lat="39.9416233" lon="8.4421867"><ele>55.0</ele><time>2026-05-02T11:09:37.365Z</time></trkpt><trkpt lat="39.9415383" lon="8.4422283"><ele>55.0</ele><time>2026-05-02T11:09:38.365Z</time></trkpt><trkpt lat="39.9414417" lon="8.4422783"><ele>56.0</ele><time>2026-05-02T11:09:39.365Z</time></trkpt><trkpt lat="39.9413633" lon="8.4423383"><ele>57.0</ele><time>2026-05-02T11:09:40.365Z</time></trkpt><trkpt lat="39.9412817" lon="8.442405"><ele>58.0</ele><time>2026-05-02T11:09:41.365Z</time></trkpt><trkpt lat="39.9411917" lon="8.4424917"><ele>59.0</ele><time>2026-05-02T11:09:42.365Z</time></trkpt><trkpt lat="39.941115" lon="8.4425683"><ele>60.0</ele><time>2026-05-02T11:09:43.365Z</time></trkpt><trkpt lat="39.9410533" lon="8.442655"><ele>60.0</ele><time>2026-05-02T11:09:44.365Z</time></trkpt><trkpt lat="39.94102" lon="8.4427533"><ele>60.0</ele><time>2026-05-02T11:09:45.365Z</time></trkpt><trkpt lat="39.9409833" lon="8.4428483"><ele>60.0</ele><time>2026-05-02T11:09:46.365Z</time></trkpt><trkpt lat="39.9409433" lon="8.4429417"><ele>60.0</ele><time>2026-05-02T11:09:47.365Z</time></trkpt><trkpt lat="39.9409017" lon="8.4430333"><ele>60.0</ele><time>2026-05-02T11:09:48.365Z</time></trkpt><trkpt lat="39.94084" lon="8.4431183"><ele>60.0</ele><time>2026-05-02T11:09:49.365Z</time></trkpt><trkpt lat="39.9407583" lon="8.4432033"><ele>59.75</ele><time>2026-05-02T11:09:50.365Z</time></trkpt><trkpt lat="39.9406767" lon="8.4433"><ele>59.5</ele><time>2026-05-02T11:09:51.365Z</time></trkpt><trkpt lat="39.9406" lon="8.443425"><ele>59.25</ele><time>2026-05-02T11:09:52.365Z</time></trkpt><trkpt lat="39.940505" lon="8.4435533"><ele>59.0</ele><time>2026-05-02T11:09:53.365Z</time></trkpt><trkpt lat="39.9404117" lon="8.4436917"><ele>59.75</ele><time>2026-05-02T11:09:54.365Z</time></trkpt><trkpt lat="39.9403117" lon="8.443835"><ele>60.5</ele><time>2026-05-02T11:09:55.365Z</time></trkpt><trkpt lat="39.9402017" lon="8.4439717"><ele>61.25</ele><time>2026-05-02T11:09:56.365Z</time></trkpt><trkpt lat="39.9400983" lon="8.4440633"><ele>62.0</ele><time>2026-05-02T11:09:57.365Z</time></trkpt><trkpt lat="39.9399983" lon="8.4441333"><ele>60.5</ele><time>2026-05-02T11:09:58.365Z</time></trkpt><trkpt lat="39.9399033" lon="8.4442067"><ele>59.0</ele><time>2026-05-02T11:09:59.365Z</time></trkpt><trkpt lat="39.93981" lon="8.444305"><ele>57.5</ele><time>2026-05-02T11:10:00.365Z</time></trkpt><trkpt lat="39.9397267" lon="8.4444267"><ele>56.0</ele><time>2026-05-02T11:10:01.365Z</time></trkpt><trkpt lat="39.9396517" lon="8.4445317"><ele>57.0</ele><time>2026-05-02T11:10:02.365Z</time></trkpt><trkpt lat="39.9395933" lon="8.4446367"><ele>58.0</ele><time>2026-05-02T11:10:03.365Z</time></trkpt><trkpt lat="39.9395267" lon="8.44475"><ele>59.0</ele><time>2026-05-02T11:10:04.365Z</time></trkpt><trkpt lat="39.9394483" lon="8.444865"><ele>60.0</ele><time>2026-05-02T11:10:05.365Z</time></trkpt><trkpt lat="39.939365" lon="8.4450033"><ele>60.0</ele><time>2026-05-02T11:10:06.365Z</time></trkpt><trkpt lat="39.9392683" lon="8.44516"><ele>60.0</ele><time>2026-05-02T11:10:07.365Z</time></trkpt><trkpt lat="39.939175" lon="8.4453183"><ele>60.0</ele><time>2026-05-02T11:10:08.365Z</time></trkpt><trkpt lat="39.9390833" lon="8.4454817"><ele>59.8</ele><time>2026-05-02T11:10:09.365Z</time></trkpt><trkpt lat="39.9389883" lon="8.4456267"><ele>59.6</ele><time>2026-05-02T11:10:10.365Z</time></trkpt><trkpt lat="39.938905" lon="8.44574"><ele>59.400000000000006</ele><time>2026-05-02T11:10:11.365Z</time></trkpt><trkpt lat="39.93884" lon="8.4458"><ele>59.2</ele><time>2026-05-02T11:10:12.366Z</time></trkpt><trkpt lat="39.9387717" lon="8.4458183"><ele>59.0</ele><time>2026-05-02T11:10:13.365Z</time></trkpt><trkpt lat="39.938685" lon="8.4458283"><ele>59.0</ele><time>2026-05-02T11:10:14.365Z</time></trkpt><trkpt lat="39.9385783" lon="8.4458417"><ele>59.0</ele><time>2026-05-02T11:10:15.365Z</time></trkpt><trkpt lat="39.9384667" lon="8.44586"><ele>59.0</ele><time>2026-05-02T11:10:16.365Z</time></trkpt><trkpt lat="39.93835" lon="8.4458867"><ele>59.0</ele><time>2026-05-02T11:10:17.365Z</time></trkpt><trkpt lat="39.9382367" lon="8.4459317"><ele>58.25</ele><time>2026-05-02T11:10:18.365Z</time></trkpt><trkpt lat="39.9381267" lon="8.4459867"><ele>57.5</ele><time>2026-05-02T11:10:19.365Z</time></trkpt><trkpt lat="39.938" lon="8.4460333"><ele>56.75</ele><time>2026-05-02T11:10:20.365Z</time></trkpt><trkpt lat="39.937865" lon="8.4460717"><ele>56.0</ele><time>2026-05-02T11:10:21.365Z</time></trkpt><trkpt lat="39.937725" lon="8.446085"><ele>56.0</ele><time>2026-05-02T11:10:22.365Z</time></trkpt><trkpt lat="39.9376017" lon="8.4461067"><ele>55.99999999999999</ele><time>2026-05-02T11:10:23.365Z</time></trkpt><trkpt lat="39.9375233" lon="8.4461467"><ele>55.99999999999999</ele><time>2026-05-02T11:10:24.365Z</time></trkpt><trkpt lat="39.937465" lon="8.4462017"><ele>56.0</ele><time>2026-05-02T11:10:25.365Z</time></trkpt><trkpt lat="39.9374067" lon="8.4462867"><ele>56.0</ele><time>2026-05-02T11:10:26.365Z</time></trkpt><trkpt lat="39.937335" lon="8.4464017"><ele>56.25</ele><time>2026-05-02T11:10:27.365Z</time></trkpt><trkpt lat="39.9372467" lon="8.446535"><ele>56.5</ele><time>2026-05-02T11:10:28.365Z</time></trkpt><trkpt lat="39.9371567" lon="8.4466867"><ele>56.75</ele><time>2026-05-02T11:10:29.365Z</time></trkpt><trkpt lat="39.937055" lon="8.4468533"><ele>57.0</ele><time>2026-05-02T11:10:30.365Z</time></trkpt><trkpt lat="39.9369433" lon="8.44704"><ele>57.33333333333333</ele><time>2026-05-02T11:10:31.365Z</time></trkpt><trkpt lat="39.9368217" lon="8.4472367"><ele>57.666666666666664</ele><time>2026-05-02T11:10:32.365Z</time></trkpt><trkpt lat="39.9367083" lon="8.447425"><ele>58.0</ele><time>2026-05-02T11:10:33.365Z</time></trkpt><trkpt lat="39.9365883" lon="8.447605"><ele>58.0</ele><time>2026-05-02T11:10:34.365Z</time></trkpt><trkpt lat="39.936465" lon="8.447785"><ele>58.0</ele><time>2026-05-02T11:10:35.365Z</time></trkpt><trkpt lat="39.9363483" lon="8.44796"><ele>58.0</ele><time>2026-05-02T11:10:36.365Z</time></trkpt><trkpt lat="39.936235" lon="8.44813"><ele>59.0</ele><time>2026-05-02T11:10:37.365Z</time></trkpt><trkpt lat="39.9361067" lon="8.448305"><ele>60.0</ele><time>2026-05-02T11:10:38.365Z</time></trkpt><trkpt lat="39.9359833" lon="8.4484767"><ele>61.0</ele><time>2026-05-02T11:10:39.365Z</time></trkpt><trkpt lat="39.9358567" lon="8.4486517"><ele>61.33333333333333</ele><time>2026-05-02T11:10:40.365Z</time></trkpt><trkpt lat="39.9357267" lon="8.4488333"><ele>61.66666666666667</ele><time>2026-05-02T11:10:41.365Z</time></trkpt><trkpt lat="39.9356017" lon="8.44901"><ele>62.0</ele><time>2026-05-02T11:10:42.365Z</time></trkpt><trkpt lat="39.9354817" lon="8.44919"><ele>62.0</ele><time>2026-05-02T11:10:43.365Z</time></trkpt><trkpt lat="39.93537" lon="8.449365"><ele>62.0</ele><time>2026-05-02T11:10:44.365Z</time></trkpt><trkpt lat="39.9352617" lon="8.44952"><ele>62.0</ele><time>2026-05-02T11:10:45.365Z</time></trkpt><trkpt lat="39.935165" lon="8.4496583"><ele>61.8</ele><time>2026-05-02T11:10:46.365Z</time></trkpt><trkpt lat="39.93509" lon="8.4497667"><ele>61.6</ele><time>2026-05-02T11:10:47.365Z</time></trkpt><trkpt lat="39.9350383" lon="8.4498333"><ele>61.39999999999999</ele><time>2026-05-02T11:10:48.365Z</time></trkpt><trkpt lat="39.9349379" lon="8.4498761"><ele>61.199999999999996</ele><time>2026-05-02T11:10:50.365Z</time></trkpt><trkpt lat="39.9348834" lon="8.4498141"><ele>61.0</ele><time>2026-05-02T11:10:51.365Z</time></trkpt><trkpt lat="39.9348245" lon="8.449715"><ele>60.666666666666664</ele><time>2026-05-02T11:10:52.365Z</time></trkpt><trkpt lat="39.9347352" lon="8.4495823"><ele>60.33333333333333</ele><time>2026-05-02T11:10:53.365Z</time></trkpt><trkpt lat="39.9346156" lon="8.4494321"><ele>60.0</ele><time>2026-05-02T11:10:54.365Z</time></trkpt><trkpt lat="39.934472" lon="8.4492692"><ele>60.0</ele><time>2026-05-02T11:10:55.365Z</time></trkpt><trkpt lat="39.9343307" lon="8.4491105"><ele>60.0</ele><time>2026-05-02T11:10:56.365Z</time></trkpt><trkpt lat="39.9342004" lon="8.4489515"><ele>60.0</ele><time>2026-05-02T11:10:57.365Z</time></trkpt><trkpt lat="39.9340798" lon="8.4488038"><ele>59.75</ele><time>2026-05-02T11:10:58.365Z</time></trkpt><trkpt lat="39.9339567" lon="8.4486736"><ele>59.5</ele><time>2026-05-02T11:10:59.365Z</time></trkpt><trkpt lat="39.9338446" lon="8.4485555"><ele>59.25</ele><time>2026-05-02T11:11:00.365Z</time></trkpt><trkpt lat="39.9337445" lon="8.4484565"><ele>59.0</ele><time>2026-05-02T11:11:01.365Z</time></trkpt><trkpt lat="39.9336613" lon="8.4483462"><ele>59.00000000000001</ele><time>2026-05-02T11:11:02.365Z</time></trkpt><trkpt lat="39.9335886" lon="8.4482419"><ele>59.0</ele><time>2026-05-02T11:11:03.365Z</time></trkpt><trkpt lat="39.9335296" lon="8.4481404"><ele>59.0</ele><time>2026-05-02T11:11:04.365Z</time></trkpt><trkpt lat="39.9334804" lon="8.4480635"><ele>59.0</ele><time>2026-05-02T11:11:05.365Z</time></trkpt><trkpt lat="39.9334368" lon="8.4480023"><ele>59.00000000000001</ele><time>2026-05-02T11:11:06.365Z</time></trkpt><trkpt lat="39.9333766" lon="8.447944"><ele>59.0</ele><time>2026-05-02T11:11:08.365Z</time></trkpt><trkpt lat="39.93331" lon="8.44794"><ele>59.0</ele><time>2026-05-02T11:11:10.365Z</time></trkpt><trkpt lat="39.933185" lon="8.4480383"><ele>59.0</ele><time>2026-05-02T11:11:12.365Z</time></trkpt><trkpt lat="39.9330933" lon="8.4481367"><ele>59.0</ele><time>2026-05-02T11:11:13.365Z</time></trkpt><trkpt lat="39.9329817" lon="8.44825"><ele>59.0</ele><time>2026-05-02T11:11:14.365Z</time></trkpt><trkpt lat="39.9328567" lon="8.4483567"><ele>59.0</ele><time>2026-05-02T11:11:15.365Z</time></trkpt><trkpt lat="39.932745" lon="8.4484467"><ele>59.0</ele><time>2026-05-02T11:11:16.365Z</time></trkpt><trkpt lat="39.9326383" lon="8.4485317"><ele>59.0</ele><time>2026-05-02T11:11:17.365Z</time></trkpt><trkpt lat="39.9325383" lon="8.4486133"><ele>59.0</ele><time>2026-05-02T11:11:18.365Z</time></trkpt><trkpt lat="39.9324183" lon="8.4487033"><ele>57.333333333333336</ele><time>2026-05-02T11:11:19.365Z</time></trkpt><trkpt lat="39.9322783" lon="8.44881"><ele>55.66666666666667</ele><time>2026-05-02T11:11:20.365Z</time></trkpt><trkpt lat="39.93214" lon="8.44894"><ele>54.0</ele><time>2026-05-02T11:11:21.365Z</time></trkpt><trkpt lat="39.9320017" lon="8.44909"><ele>54.0</ele><time>2026-05-02T11:11:22.365Z</time></trkpt><trkpt lat="39.9318733" lon="8.449265"><ele>54.0</ele><time>2026-05-02T11:11:23.365Z</time></trkpt><trkpt lat="39.9317633" lon="8.4494717"><ele>54.0</ele><time>2026-05-02T11:11:24.365Z</time></trkpt><trkpt lat="39.931655" lon="8.4496933"><ele>51.666666666666664</ele><time>2026-05-02T11:11:25.365Z</time></trkpt><trkpt lat="39.9315633" lon="8.449935"><ele>49.33333333333333</ele><time>2026-05-02T11:11:26.365Z</time></trkpt><trkpt lat="39.9315067" lon="8.45019"><ele>47.0</ele><time>2026-05-02T11:11:27.365Z</time></trkpt><trkpt lat="39.931465" lon="8.450455"><ele>46.666666666666664</ele><time>2026-05-02T11:11:28.365Z</time></trkpt><trkpt lat="39.931435" lon="8.4507233"><ele>46.333333333333336</ele><time>2026-05-02T11:11:29.365Z</time></trkpt><trkpt lat="39.931395" lon="8.4509833"><ele>46.0</ele><time>2026-05-02T11:11:30.365Z</time></trkpt><trkpt lat="39.9313633" lon="8.451225"><ele>46.66666666666667</ele><time>2026-05-02T11:11:31.365Z</time></trkpt><trkpt lat="39.931315" lon="8.4514583"><ele>47.333333333333336</ele><time>2026-05-02T11:11:32.365Z</time></trkpt><trkpt lat="39.9312467" lon="8.4516817"><ele>48.0</ele><time>2026-05-02T11:11:33.365Z</time></trkpt><trkpt lat="39.9311483" lon="8.4518967"><ele>48.0</ele><time>2026-05-02T11:11:34.365Z</time></trkpt><trkpt lat="39.9310233" lon="8.4521117"><ele>48.0</ele><time>2026-05-02T11:11:35.365Z</time></trkpt><trkpt lat="39.93088" lon="8.4523367"><ele>48.0</ele><time>2026-05-02T11:11:36.365Z</time></trkpt><trkpt lat="39.9307417" lon="8.452555"><ele>42.0</ele><time>2026-05-02T11:11:37.365Z</time></trkpt><trkpt lat="39.9306033" lon="8.452785"><ele>36.0</ele><time>2026-05-02T11:11:38.365Z</time></trkpt><trkpt lat="39.93046" lon="8.45302"><ele>36.0</ele><time>2026-05-02T11:11:39.365Z</time></trkpt><trkpt lat="39.9303233" lon="8.4532433"><ele>36.0</ele><time>2026-05-02T11:11:40.365Z</time></trkpt><trkpt lat="39.9302067" lon="8.4534383"><ele>36.0</ele><time>2026-05-02T11:11:41.365Z</time></trkpt><trkpt lat="39.930095" lon="8.4536383"><ele>33.333333333333336</ele><time>2026-05-02T11:11:42.365Z</time></trkpt><trkpt lat="39.9299967" lon="8.4538217"><ele>30.666666666666668</ele><time>2026-05-02T11:11:43.365Z</time></trkpt><trkpt lat="39.92989" lon="8.4540067"><ele>28.0</ele><time>2026-05-02T11:11:44.365Z</time></trkpt><trkpt lat="39.9297783" lon="8.4542067"><ele>28.0</ele><time>2026-05-02T11:11:45.365Z</time></trkpt><trkpt lat="39.9296817" lon="8.4544233"><ele>28.0</ele><time>2026-05-02T11:11:46.365Z</time></trkpt><trkpt lat="39.9295967" lon="8.4546317"><ele>28.0</ele><time>2026-05-02T11:11:47.365Z</time></trkpt><trkpt lat="39.929515" lon="8.454825"><ele>27.0</ele><time>2026-05-02T11:11:48.365Z</time></trkpt><trkpt lat="39.929435" lon="8.4550033"><ele>26.0</ele><time>2026-05-02T11:11:49.365Z</time></trkpt><trkpt lat="39.9293517" lon="8.4551633"><ele>25.0</ele><time>2026-05-02T11:11:50.365Z</time></trkpt><trkpt lat="39.9292767" lon="8.4553033"><ele>24.0</ele><time>2026-05-02T11:11:51.365Z</time></trkpt><trkpt lat="39.9292033" lon="8.45541"><ele>23.0</ele><time>2026-05-02T11:11:52.365Z</time></trkpt><trkpt lat="39.929125" lon="8.4554717"><ele>22.0</ele><time>2026-05-02T11:11:53.365Z</time></trkpt><trkpt lat="39.9290183" lon="8.4554883"><ele>21.0</ele><time>2026-05-02T11:11:54.365Z</time></trkpt><trkpt lat="39.928905" lon="8.4554717"><ele>20.0</ele><time>2026-05-02T11:11:55.365Z</time></trkpt><trkpt lat="39.928785" lon="8.4554383"><ele>19.0</ele><time>2026-05-02T11:11:56.365Z</time></trkpt><trkpt lat="39.9286417" lon="8.455375"><ele>19.0</ele><time>2026-05-02T11:11:57.365Z</time></trkpt><trkpt lat="39.9284767" lon="8.45531"><ele>19.0</ele><time>2026-05-02T11:11:58.365Z</time></trkpt><trkpt lat="39.9282933" lon="8.4552467"><ele>19.0</ele><time>2026-05-02T11:11:59.365Z</time></trkpt><trkpt lat="39.9281017" lon="8.4551717"><ele>18.666666666666664</ele><time>2026-05-02T11:12:00.365Z</time></trkpt><trkpt lat="39.927905" lon="8.4551017"><ele>18.333333333333332</ele><time>2026-05-02T11:12:01.365Z</time></trkpt><trkpt lat="39.9277033" lon="8.4550183"><ele>18.0</ele><time>2026-05-02T11:12:02.365Z</time></trkpt><trkpt lat="39.9275083" lon="8.4549317"><ele>17.333333333333332</ele><time>2026-05-02T11:12:03.365Z</time></trkpt><trkpt lat="39.9273117" lon="8.4548683"><ele>16.666666666666664</ele><time>2026-05-02T11:12:04.365Z</time></trkpt><trkpt lat="39.9271083" lon="8.4547933"><ele>16.0</ele><time>2026-05-02T11:12:05.365Z</time></trkpt><trkpt lat="39.9269117" lon="8.4547167"><ele>15.333333333333332</ele><time>2026-05-02T11:12:06.365Z</time></trkpt><trkpt lat="39.9267183" lon="8.4546433"><ele>14.666666666666668</ele><time>2026-05-02T11:12:07.365Z</time></trkpt><trkpt lat="39.92652" lon="8.4545917"><ele>14.0</ele><time>2026-05-02T11:12:08.365Z</time></trkpt><trkpt lat="39.9263283" lon="8.4545667"><ele>14.0</ele><time>2026-05-02T11:12:09.365Z</time></trkpt><trkpt lat="39.9261283" lon="8.4545633"><ele>14.0</ele><time>2026-05-02T11:12:10.365Z</time></trkpt><trkpt lat="39.9259333" lon="8.4545567"><ele>14.0</ele><time>2026-05-02T11:12:11.365Z</time></trkpt><trkpt lat="39.9257583" lon="8.4545383"><ele>13.333333333333334</ele><time>2026-05-02T11:12:12.365Z</time></trkpt><trkpt lat="39.9256" lon="8.45451"><ele>12.666666666666668</ele><time>2026-05-02T11:12:13.365Z</time></trkpt><trkpt lat="39.9254583" lon="8.4544467"><ele>12.0</ele><time>2026-05-02T11:12:14.365Z</time></trkpt><trkpt lat="39.925315" lon="8.4543667"><ele>12.0</ele><time>2026-05-02T11:12:15.365Z</time></trkpt><trkpt lat="39.92518" lon="8.4542633"><ele>12.0</ele><time>2026-05-02T11:12:16.365Z</time></trkpt><trkpt lat="39.9250467" lon="8.45414"><ele>12.0</ele><time>2026-05-02T11:12:17.365Z</time></trkpt><trkpt lat="39.9249083" lon="8.454"><ele>11.333333333333334</ele><time>2026-05-02T11:12:18.365Z</time></trkpt><trkpt lat="39.9247617" lon="8.4538683"><ele>10.666666666666668</ele><time>2026-05-02T11:12:19.365Z</time></trkpt><trkpt lat="39.924585" lon="8.453725"><ele>10.0</ele><time>2026-05-02T11:12:20.365Z</time></trkpt><trkpt lat="39.9244067" lon="8.4535817"><ele>10.333333333333334</ele><time>2026-05-02T11:12:21.365Z</time></trkpt><trkpt lat="39.9242367" lon="8.4534483"><ele>10.666666666666666</ele><time>2026-05-02T11:12:22.365Z</time></trkpt><trkpt lat="39.9240717" lon="8.4533267"><ele>11.0</ele><time>2026-05-02T11:12:23.365Z</time></trkpt><trkpt lat="39.9238967" lon="8.4532083"><ele>11.0</ele><time>2026-05-02T11:12:24.365Z</time></trkpt><trkpt lat="39.9237317" lon="8.45309"><ele>11.0</ele><time>2026-05-02T11:12:25.365Z</time></trkpt><trkpt lat="39.9235733" lon="8.4529817"><ele>11.0</ele><time>2026-05-02T11:12:26.365Z</time></trkpt><trkpt lat="39.9234233" lon="8.4528733"><ele>10.0</ele><time>2026-05-02T11:12:27.365Z</time></trkpt><trkpt lat="39.9232867" lon="8.4527633"><ele>9.0</ele><time>2026-05-02T11:12:28.365Z</time></trkpt><trkpt lat="39.9231367" lon="8.452655"><ele>8.0</ele><time>2026-05-02T11:12:29.365Z</time></trkpt><trkpt lat="39.92299" lon="8.4525417"><ele>8.0</ele><time>2026-05-02T11:12:30.365Z</time></trkpt><trkpt lat="39.9228333" lon="8.452415"><ele>8.0</ele><time>2026-05-02T11:12:31.365Z</time></trkpt><trkpt lat="39.9226833" lon="8.4522783"><ele>8.0</ele><time>2026-05-02T11:12:32.365Z</time></trkpt><trkpt lat="39.9225317" lon="8.4521517"><ele>8.0</ele><time>2026-05-02T11:12:33.365Z</time></trkpt><trkpt lat="39.92238" lon="8.45202"><ele>8.0</ele><time>2026-05-02T11:12:34.365Z</time></trkpt><trkpt lat="39.9222333" lon="8.4518917"><ele>8.0</ele><time>2026-05-02T11:12:35.365Z</time></trkpt><trkpt lat="39.92209" lon="8.451765"><ele>8.0</ele><time>2026-05-02T11:12:36.365Z</time></trkpt><trkpt lat="39.92195" lon="8.4516333"><ele>8.0</ele><time>2026-05-02T11:12:37.365Z</time></trkpt><trkpt lat="39.9218117" lon="8.4515133"><ele>8.0</ele><time>2026-05-02T11:12:38.365Z</time></trkpt><trkpt lat="39.9216833" lon="8.4514033"><ele>8.0</ele><time>2026-05-02T11:12:39.365Z</time></trkpt><trkpt lat="39.9215667" lon="8.451305"><ele>8.0</ele><time>2026-05-02T11:12:40.365Z</time></trkpt><trkpt lat="39.921465" lon="8.4512133"><ele>8.0</ele><time>2026-05-02T11:12:41.365Z</time></trkpt><trkpt lat="39.9213583" lon="8.4511267"><ele>8.0</ele><time>2026-05-02T11:12:42.365Z</time></trkpt><trkpt lat="39.92126" lon="8.451055"><ele>8.0</ele><time>2026-05-02T11:12:43.365Z</time></trkpt><trkpt lat="39.92116" lon="8.450975"><ele>8.0</ele><time>2026-05-02T11:12:44.365Z</time></trkpt><trkpt lat="39.921055" lon="8.4508867"><ele>8.0</ele><time>2026-05-02T11:12:45.365Z</time></trkpt><trkpt lat="39.920945" lon="8.4508183"><ele>8.0</ele><time>2026-05-02T11:12:46.365Z</time></trkpt><trkpt lat="39.9208183" lon="8.4507867"><ele>7.75</ele><time>2026-05-02T11:12:47.365Z</time></trkpt><trkpt lat="39.92069" lon="8.4508017"><ele>7.5</ele><time>2026-05-02T11:12:48.365Z</time></trkpt><trkpt lat="39.9205717" lon="8.45085"><ele>7.25</ele><time>2026-05-02T11:12:49.365Z</time></trkpt><trkpt lat="39.9204783" lon="8.4509167"><ele>7.0</ele><time>2026-05-02T11:12:50.365Z</time></trkpt><trkpt lat="39.9204033" lon="8.4509933"><ele>7.0</ele><time>2026-05-02T11:12:51.365Z</time></trkpt><trkpt lat="39.9203417" lon="8.4510717"><ele>6.999999999999999</ele><time>2026-05-02T11:12:52.365Z</time></trkpt><trkpt lat="39.92029" lon="8.4511433"><ele>6.999999999999999</ele><time>2026-05-02T11:12:53.365Z</time></trkpt><trkpt lat="39.9202717" lon="8.4512883"><ele>7.0</ele><time>2026-05-02T11:12:55.365Z</time></trkpt><trkpt lat="39.9202233" lon="8.45144"><ele>7.0</ele><time>2026-05-02T11:12:57.365Z</time></trkpt><trkpt lat="39.9201783" lon="8.4515083"><ele>7.166666666666667</ele><time>2026-05-02T11:12:58.365Z</time></trkpt><trkpt lat="39.920125" lon="8.4515767"><ele>7.333333333333334</ele><time>2026-05-02T11:12:59.365Z</time></trkpt><trkpt lat="39.92007" lon="8.4516517"><ele>7.5</ele><time>2026-05-02T11:13:00.365Z</time></trkpt><trkpt lat="39.9200183" lon="8.45174"><ele>7.666666666666666</ele><time>2026-05-02T11:13:01.365Z</time></trkpt><trkpt lat="39.9199767" lon="8.4518317"><ele>7.833333333333333</ele><time>2026-05-02T11:13:02.365Z</time></trkpt><trkpt lat="39.9199283" lon="8.45193"><ele>8.0</ele><time>2026-05-02T11:13:03.365Z</time></trkpt><trkpt lat="39.9198867" lon="8.4520283"><ele>7.666666666666666</ele><time>2026-05-02T11:13:04.365Z</time></trkpt><trkpt lat="39.9198467" lon="8.4521333"><ele>7.333333333333333</ele><time>2026-05-02T11:13:05.365Z</time></trkpt><trkpt lat="39.9197983" lon="8.45225"><ele>7.0</ele><time>2026-05-02T11:13:06.365Z</time></trkpt><trkpt lat="39.9197533" lon="8.4523567"><ele>6.666666666666666</ele><time>2026-05-02T11:13:07.365Z</time></trkpt><trkpt lat="39.9197183" lon="8.45245"><ele>6.333333333333333</ele><time>2026-05-02T11:13:08.365Z</time></trkpt><trkpt lat="39.9196833" lon="8.4525333"><ele>6.0</ele><time>2026-05-02T11:13:09.365Z</time></trkpt><trkpt lat="39.9196483" lon="8.4526167"><ele>6.0</ele><time>2026-05-02T11:13:10.365Z</time></trkpt><trkpt lat="39.919615" lon="8.4527083"><ele>6.0</ele><time>2026-05-02T11:13:11.365Z</time></trkpt><trkpt lat="39.9195733" lon="8.45282"><ele>6.0</ele><time>2026-05-02T11:13:12.365Z</time></trkpt><trkpt lat="39.9195267" lon="8.452955"><ele>6.0</ele><time>2026-05-02T11:13:13.365Z</time></trkpt><trkpt lat="39.919485" lon="8.45312"><ele>6.0</ele><time>2026-05-02T11:13:14.365Z</time></trkpt><trkpt lat="39.9194483" lon="8.4532883"><ele>5.5</ele><time>2026-05-02T11:13:15.365Z</time></trkpt><trkpt lat="39.91942" lon="8.4534417"><ele>5.0</ele><time>2026-05-02T11:13:16.365Z</time></trkpt><trkpt lat="39.9194067" lon="8.4536067"><ele>4.5</ele><time>2026-05-02T11:13:17.365Z</time></trkpt><trkpt lat="39.9194067" lon="8.4537617"><ele>4.0</ele><time>2026-05-02T11:13:18.365Z</time></trkpt><trkpt lat="39.9194133" lon="8.4539233"><ele>3.75</ele><time>2026-05-02T11:13:19.365Z</time></trkpt><trkpt lat="39.9194167" lon="8.4540917"><ele>3.5</ele><time>2026-05-02T11:13:20.365Z</time></trkpt><trkpt lat="39.9194083" lon="8.4542567"><ele>3.25</ele><time>2026-05-02T11:13:21.365Z</time></trkpt><trkpt lat="39.9193933" lon="8.45444"><ele>3.0</ele><time>2026-05-02T11:13:22.365Z</time></trkpt><trkpt lat="39.9193717" lon="8.4546017"><ele>3.0</ele><time>2026-05-02T11:13:23.365Z</time></trkpt><trkpt lat="39.9193483" lon="8.4547917"><ele>3.0</ele><time>2026-05-02T11:13:24.365Z</time></trkpt><trkpt lat="39.91932" lon="8.4549933"><ele>3.0</ele><time>2026-05-02T11:13:25.365Z</time></trkpt><trkpt lat="39.9192967" lon="8.4551933"><ele>3.0</ele><time>2026-05-02T11:13:26.365Z</time></trkpt><trkpt lat="39.9192833" lon="8.45539"><ele>3.0</ele><time>2026-05-02T11:13:27.365Z</time></trkpt><trkpt lat="39.9192667" lon="8.4555783"><ele>3.0</ele><time>2026-05-02T11:13:28.365Z</time></trkpt><trkpt lat="39.91925" lon="8.455765"><ele>3.0</ele><time>2026-05-02T11:13:29.365Z</time></trkpt><trkpt lat="39.9192317" lon="8.4559633"><ele>2.6666666666666665</ele><time>2026-05-02T11:13:30.365Z</time></trkpt><trkpt lat="39.9192217" lon="8.4561783"><ele>2.333333333333333</ele><time>2026-05-02T11:13:31.365Z</time></trkpt><trkpt lat="39.9192233" lon="8.4563867"><ele>2.0</ele><time>2026-05-02T11:13:32.365Z</time></trkpt><trkpt lat="39.9192217" lon="8.4565967"><ele>2.0</ele><time>2026-05-02T11:13:33.365Z</time></trkpt><trkpt lat="39.9192267" lon="8.45681"><ele>2.0</ele><time>2026-05-02T11:13:34.365Z</time></trkpt><trkpt lat="39.9192233" lon="8.45702"><ele>2.0</ele><time>2026-05-02T11:13:35.365Z</time></trkpt><trkpt lat="39.9192217" lon="8.4572333"><ele>2.0</ele><time>2026-05-02T11:13:36.365Z</time></trkpt><trkpt lat="39.9192117" lon="8.4574567"><ele>2.0</ele><time>2026-05-02T11:13:37.365Z</time></trkpt><trkpt lat="39.9192033" lon="8.45767"><ele>2.0</ele><time>2026-05-02T11:13:38.365Z</time></trkpt><trkpt lat="39.9192033" lon="8.4578783"><ele>2.0</ele><time>2026-05-02T11:13:39.365Z</time></trkpt><trkpt lat="39.9192017" lon="8.45808"><ele>2.0</ele><time>2026-05-02T11:13:40.365Z</time></trkpt><trkpt lat="39.9192067" lon="8.4582883"><ele>2.0</ele><time>2026-05-02T11:13:41.365Z</time></trkpt><trkpt lat="39.9192033" lon="8.4584967"><ele>2.0</ele><time>2026-05-02T11:13:42.365Z</time></trkpt><trkpt lat="39.919195" lon="8.4587183"><ele>2.0</ele><time>2026-05-02T11:13:43.365Z</time></trkpt><trkpt lat="39.9191833" lon="8.4589617"><ele>2.0</ele><time>2026-05-02T11:13:44.365Z</time></trkpt><trkpt lat="39.91918" lon="8.4592067"><ele>2.333333333333333</ele><time>2026-05-02T11:13:45.365Z</time></trkpt><trkpt lat="39.9191767" lon="8.4594517"><ele>2.6666666666666665</ele><time>2026-05-02T11:13:46.365Z</time></trkpt><trkpt lat="39.91917" lon="8.45969"><ele>3.0</ele><time>2026-05-02T11:13:47.365Z</time></trkpt><trkpt lat="39.9191683" lon="8.45994"><ele>3.0</ele><time>2026-05-02T11:13:48.365Z</time></trkpt><trkpt lat="39.9191583" lon="8.4601967"><ele>3.0</ele><time>2026-05-02T11:13:49.365Z</time></trkpt><trkpt lat="39.9191517" lon="8.4604517"><ele>3.0</ele><time>2026-05-02T11:13:50.365Z</time></trkpt><trkpt lat="39.9191467" lon="8.4607083"><ele>3.0</ele><time>2026-05-02T11:13:51.365Z</time></trkpt><trkpt lat="39.919145" lon="8.4609717"><ele>3.0</ele><time>2026-05-02T11:13:52.365Z</time></trkpt><trkpt lat="39.9191433" lon="8.461245"><ele>3.0</ele><time>2026-05-02T11:13:53.365Z</time></trkpt><trkpt lat="39.91914" lon="8.4615"><ele>3.0</ele><time>2026-05-02T11:13:54.365Z</time></trkpt><trkpt lat="39.9191383" lon="8.46175"><ele>3.0</ele><time>2026-05-02T11:13:55.365Z</time></trkpt><trkpt lat="39.9191317" lon="8.4620067"><ele>3.0</ele><time>2026-05-02T11:13:56.365Z</time></trkpt><trkpt lat="39.9191117" lon="8.4622633"><ele>2.6666666666666665</ele><time>2026-05-02T11:13:57.365Z</time></trkpt><trkpt lat="39.9190917" lon="8.46252"><ele>2.333333333333333</ele><time>2026-05-02T11:13:58.365Z</time></trkpt><trkpt lat="39.919075" lon="8.4627833"><ele>2.0</ele><time>2026-05-02T11:13:59.365Z</time></trkpt><trkpt lat="39.91905" lon="8.4630433"><ele>2.0</ele><time>2026-05-02T11:14:00.365Z</time></trkpt><trkpt lat="39.9190217" lon="8.4633017"><ele>2.0</ele><time>2026-05-02T11:14:01.365Z</time></trkpt><trkpt lat="39.9189983" lon="8.4635583"><ele>2.0</ele><time>2026-05-02T11:14:02.365Z</time></trkpt><trkpt lat="39.9189817" lon="8.4638133"><ele>1.6666666666666665</ele><time>2026-05-02T11:14:03.365Z</time></trkpt><trkpt lat="39.91897" lon="8.4640567"><ele>1.3333333333333333</ele><time>2026-05-02T11:14:04.365Z</time></trkpt><trkpt lat="39.9189683" lon="8.4643083"><ele>1.0</ele><time>2026-05-02T11:14:05.365Z</time></trkpt><trkpt lat="39.9189717" lon="8.4645617"><ele>1.3333333333333333</ele><time>2026-05-02T11:14:06.365Z</time></trkpt><trkpt lat="39.9189917" lon="8.4648067"><ele>1.6666666666666665</ele><time>2026-05-02T11:14:07.365Z</time></trkpt><trkpt lat="39.919025" lon="8.4650383"><ele>2.0</ele><time>2026-05-02T11:14:08.365Z</time></trkpt><trkpt lat="39.9190533" lon="8.4652383"><ele>1.6666666666666665</ele><time>2026-05-02T11:14:09.365Z</time></trkpt><trkpt lat="39.91909" lon="8.4654467"><ele>1.3333333333333333</ele><time>2026-05-02T11:14:10.365Z</time></trkpt><trkpt lat="39.9191467" lon="8.4656567"><ele>1.0</ele><time>2026-05-02T11:14:11.365Z</time></trkpt><trkpt lat="39.9192117" lon="8.4658633"><ele>1.3333333333333333</ele><time>2026-05-02T11:14:12.365Z</time></trkpt><trkpt lat="39.9192917" lon="8.46607"><ele>1.6666666666666665</ele><time>2026-05-02T11:14:13.364Z</time></trkpt><trkpt lat="39.9193767" lon="8.4662817"><ele>2.0</ele><time>2026-05-02T11:14:14.364Z</time></trkpt><trkpt lat="39.919455" lon="8.4664667"><ele>2.0</ele><time>2026-05-02T11:14:15.364Z</time></trkpt><trkpt lat="39.919525" lon="8.4666483"><ele>2.0</ele><time>2026-05-02T11:14:16.364Z</time></trkpt><trkpt lat="39.9195983" lon="8.466825"><ele>2.0</ele><time>2026-05-02T11:14:17.364Z</time></trkpt><trkpt lat="39.9196583" lon="8.4669883"><ele>2.0</ele><time>2026-05-02T11:14:18.364Z</time></trkpt><trkpt lat="39.9197117" lon="8.4671367"><ele>2.0</ele><time>2026-05-02T11:14:19.364Z</time></trkpt><trkpt lat="39.9197633" lon="8.4672633"><ele>2.0</ele><time>2026-05-02T11:14:20.364Z</time></trkpt><trkpt lat="39.919825" lon="8.4673633"><ele>2.0</ele><time>2026-05-02T11:14:21.364Z</time></trkpt><trkpt lat="39.9198917" lon="8.4674617"><ele>2.0</ele><time>2026-05-02T11:14:22.364Z</time></trkpt><trkpt lat="39.9199633" lon="8.467575"><ele>2.0</ele><time>2026-05-02T11:14:23.364Z</time></trkpt><trkpt lat="39.92003" lon="8.467705"><ele>2.0</ele><time>2026-05-02T11:14:24.364Z</time></trkpt><trkpt lat="39.9200617" lon="8.4678583"><ele>2.0</ele><time>2026-05-02T11:14:25.364Z</time></trkpt><trkpt lat="39.9200667" lon="8.4680283"><ele>2.0</ele><time>2026-05-02T11:14:26.364Z</time></trkpt><trkpt lat="39.9200467" lon="8.46821"><ele>2.0</ele><time>2026-05-02T11:14:27.364Z</time></trkpt><trkpt lat="39.9200317" lon="8.468405"><ele>2.0</ele><time>2026-05-02T11:14:28.364Z</time></trkpt><trkpt lat="39.92001" lon="8.46861"><ele>2.0</ele><time>2026-05-02T11:14:29.364Z</time></trkpt><trkpt lat="39.9199933" lon="8.4688033"><ele>2.0</ele><time>2026-05-02T11:14:30.364Z</time></trkpt><trkpt lat="39.9199767" lon="8.4689967"><ele>1.75</ele><time>2026-05-02T11:14:31.364Z</time></trkpt><trkpt lat="39.9199733" lon="8.4691783"><ele>1.5</ele><time>2026-05-02T11:14:32.364Z</time></trkpt><trkpt lat="39.9199683" lon="8.46937"><ele>1.25</ele><time>2026-05-02T11:14:33.364Z</time></trkpt><trkpt lat="39.9199767" lon="8.4695817"><ele>1.0</ele><time>2026-05-02T11:14:34.364Z</time></trkpt><trkpt lat="39.9200017" lon="8.469765"><ele>1.0</ele><time>2026-05-02T11:14:35.364Z</time></trkpt><trkpt lat="39.9200183" lon="8.4699533"><ele>1.0</ele><time>2026-05-02T11:14:36.364Z</time></trkpt><trkpt lat="39.9200483" lon="8.47014"><ele>1.0</ele><time>2026-05-02T11:14:37.364Z</time></trkpt><trkpt lat="39.920075" lon="8.47032"><ele>1.0</ele><time>2026-05-02T11:14:38.364Z</time></trkpt><trkpt lat="39.9201067" lon="8.4705033"><ele>1.25</ele><time>2026-05-02T11:14:39.364Z</time></trkpt><trkpt lat="39.9201317" lon="8.47067"><ele>1.5</ele><time>2026-05-02T11:14:40.364Z</time></trkpt><trkpt lat="39.92015" lon="8.4708433"><ele>1.75</ele><time>2026-05-02T11:14:41.364Z</time></trkpt><trkpt lat="39.9201467" lon="8.4710417"><ele>2.0</ele><time>2026-05-02T11:14:42.364Z</time></trkpt><trkpt lat="39.920145" lon="8.4712433"><ele>2.0</ele><time>2026-05-02T11:14:43.364Z</time></trkpt><trkpt lat="39.9201333" lon="8.4714417"><ele>2.0</ele><time>2026-05-02T11:14:44.364Z</time></trkpt><trkpt lat="39.9201283" lon="8.4716317"><ele>2.0</ele><time>2026-05-02T11:14:45.364Z</time></trkpt><trkpt lat="39.9201183" lon="8.47183"><ele>2.0</ele><time>2026-05-02T11:14:46.364Z</time></trkpt><trkpt lat="39.920115" lon="8.4720317"><ele>2.0</ele><time>2026-05-02T11:14:47.364Z</time></trkpt><trkpt lat="39.92011" lon="8.4722333"><ele>2.0</ele><time>2026-05-02T11:14:48.364Z</time></trkpt><trkpt lat="39.9201067" lon="8.4724217"><ele>2.0</ele><time>2026-05-02T11:14:49.364Z</time></trkpt><trkpt lat="39.9200983" lon="8.47262"><ele>2.0</ele><time>2026-05-02T11:14:50.364Z</time></trkpt><trkpt lat="39.9201167" lon="8.47282"><ele>2.0</ele><time>2026-05-02T11:14:51.364Z</time></trkpt><trkpt lat="39.9201367" lon="8.4730117"><ele>2.0</ele><time>2026-05-02T11:14:52.364Z</time></trkpt><trkpt lat="39.9201583" lon="8.4731917"><ele>2.0</ele><time>2026-05-02T11:14:53.364Z</time></trkpt><trkpt lat="39.9201667" lon="8.4733633"><ele>2.0</ele><time>2026-05-02T11:14:54.364Z</time></trkpt><trkpt lat="39.9201533" lon="8.4735333"><ele>2.0</ele><time>2026-05-02T11:14:55.364Z</time></trkpt><trkpt lat="39.9201367" lon="8.47368"><ele>1.8</ele><time>2026-05-02T11:14:56.364Z</time></trkpt><trkpt lat="39.92011" lon="8.4738183"><ele>1.6</ele><time>2026-05-02T11:14:57.364Z</time></trkpt><trkpt lat="39.9200933" lon="8.4739567"><ele>1.4000000000000001</ele><time>2026-05-02T11:14:58.364Z</time></trkpt><trkpt lat="39.9200783" lon="8.4740817"><ele>1.2000000000000002</ele><time>2026-05-02T11:14:59.364Z</time></trkpt><trkpt lat="39.920015" lon="8.4741983"><ele>1.0</ele><time>2026-05-02T11:15:01.364Z</time></trkpt><trkpt lat="39.9199433" lon="8.4742317"><ele>1.5</ele><time>2026-05-02T11:15:02.364Z</time></trkpt><trkpt lat="39.9198383" lon="8.4742667"><ele>2.0</ele><time>2026-05-02T11:15:03.364Z</time></trkpt><trkpt lat="39.91973" lon="8.474305"><ele>2.5</ele><time>2026-05-02T11:15:04.364Z</time></trkpt><trkpt lat="39.9196033" lon="8.4743533"><ele>3.0</ele><time>2026-05-02T11:15:05.364Z</time></trkpt><trkpt lat="39.9194717" lon="8.474415"><ele>3.0</ele><time>2026-05-02T11:15:06.364Z</time></trkpt><trkpt lat="39.9193667" lon="8.47447"><ele>3.0</ele><time>2026-05-02T11:15:07.364Z</time></trkpt><trkpt lat="39.919255" lon="8.4745267"><ele>3.0</ele><time>2026-05-02T11:15:08.364Z</time></trkpt><trkpt lat="39.919135" lon="8.474565"><ele>3.0</ele><time>2026-05-02T11:15:09.364Z</time></trkpt><trkpt lat="39.9190183" lon="8.4745883"><ele>2.5</ele><time>2026-05-02T11:15:10.364Z</time></trkpt><trkpt lat="39.9188967" lon="8.47461"><ele>2.0</ele><time>2026-05-02T11:15:11.364Z</time></trkpt><trkpt lat="39.9187783" lon="8.4746317"><ele>1.5</ele><time>2026-05-02T11:15:12.364Z</time></trkpt><trkpt lat="39.9186517" lon="8.4746483"><ele>1.0</ele><time>2026-05-02T11:15:13.364Z</time></trkpt><trkpt lat="39.9185167" lon="8.4746633"><ele>1.25</ele><time>2026-05-02T11:15:14.364Z</time></trkpt><trkpt lat="39.9183783" lon="8.4746767"><ele>1.5</ele><time>2026-05-02T11:15:15.364Z</time></trkpt><trkpt lat="39.9182367" lon="8.4746933"><ele>1.75</ele><time>2026-05-02T11:15:16.364Z</time></trkpt><trkpt lat="39.918095" lon="8.4747"><ele>2.0</ele><time>2026-05-02T11:15:17.364Z</time></trkpt><trkpt lat="39.917965" lon="8.4747"><ele>2.0</ele><time>2026-05-02T11:15:18.364Z</time></trkpt><trkpt lat="39.9178367" lon="8.4747067"><ele>2.0</ele><time>2026-05-02T11:15:19.364Z</time></trkpt><trkpt lat="39.9177217" lon="8.474715"><ele>2.0</ele><time>2026-05-02T11:15:20.364Z</time></trkpt><trkpt lat="39.9176267" lon="8.4747233"><ele>2.0</ele><time>2026-05-02T11:15:21.364Z</time></trkpt><trkpt lat="39.91753" lon="8.47473"><ele>2.0</ele><time>2026-05-02T11:15:22.364Z</time></trkpt><trkpt lat="39.91743" lon="8.4747333"><ele>2.0</ele><time>2026-05-02T11:15:23.364Z</time></trkpt><trkpt lat="39.91733" lon="8.4747517"><ele>2.0</ele><time>2026-05-02T11:15:24.364Z</time></trkpt><trkpt lat="39.9172283" lon="8.4747583"><ele>2.0</ele><time>2026-05-02T11:15:25.364Z</time></trkpt><trkpt lat="39.9171333" lon="8.4747433"><ele>2.0</ele><time>2026-05-02T11:15:26.364Z</time></trkpt><trkpt lat="39.9170433" lon="8.4747317"><ele>2.0</ele><time>2026-05-02T11:15:27.364Z</time></trkpt><trkpt lat="39.9169683" lon="8.4747083"><ele>1.9999999999999998</ele><time>2026-05-02T11:15:28.364Z</time></trkpt><trkpt lat="39.9169" lon="8.47467"><ele>2.0</ele><time>2026-05-02T11:15:29.364Z</time></trkpt><trkpt lat="39.91681" lon="8.4746033"><ele>2.0</ele><time>2026-05-02T11:15:31.364Z</time></trkpt><trkpt lat="39.9167483" lon="8.4746767"><ele>2.0</ele><time>2026-05-02T11:15:42.364Z</time></trkpt><trkpt lat="39.9167433" lon="8.4747683"><ele>1.9999999999999998</ele><time>2026-05-02T11:15:43.364Z</time></trkpt><trkpt lat="39.9167467" lon="8.4749117"><ele>2.0</ele><time>2026-05-02T11:15:44.364Z</time></trkpt><trkpt lat="39.9167367" lon="8.4750817"><ele>2.0</ele><time>2026-05-02T11:15:45.364Z</time></trkpt><trkpt lat="39.9167283" lon="8.4752717"><ele>2.0</ele><time>2026-05-02T11:15:46.364Z</time></trkpt><trkpt lat="39.9167083" lon="8.4754733"><ele>2.0</ele><time>2026-05-02T11:15:47.364Z</time></trkpt><trkpt lat="39.9166833" lon="8.47567"><ele>2.25</ele><time>2026-05-02T11:15:48.364Z</time></trkpt><trkpt lat="39.9166583" lon="8.4758667"><ele>2.5</ele><time>2026-05-02T11:15:49.364Z</time></trkpt><trkpt lat="39.9166417" lon="8.476045"><ele>2.75</ele><time>2026-05-02T11:15:50.364Z</time></trkpt><trkpt lat="39.9166233" lon="8.476245"><ele>3.0</ele><time>2026-05-02T11:15:51.364Z</time></trkpt><trkpt lat="39.9166067" lon="8.4764383"><ele>3.0</ele><time>2026-05-02T11:15:52.364Z</time></trkpt><trkpt lat="39.9165867" lon="8.476645"><ele>3.0</ele><time>2026-05-02T11:15:53.364Z</time></trkpt><trkpt lat="39.91657" lon="8.476855"><ele>3.0</ele><time>2026-05-02T11:15:54.364Z</time></trkpt><trkpt lat="39.916565" lon="8.4770717"><ele>3.0</ele><time>2026-05-02T11:15:55.364Z</time></trkpt><trkpt lat="39.9165567" lon="8.4772867"><ele>3.0</ele><time>2026-05-02T11:15:56.364Z</time></trkpt><trkpt lat="39.9165483" lon="8.4775017"><ele>3.0</ele><time>2026-05-02T11:15:57.364Z</time></trkpt><trkpt lat="39.9165267" lon="8.47772"><ele>2.6666666666666665</ele><time>2026-05-02T11:15:58.364Z</time></trkpt><trkpt lat="39.916505" lon="8.4779567"><ele>2.333333333333333</ele><time>2026-05-02T11:15:59.364Z</time></trkpt><trkpt lat="39.91649" lon="8.47821"><ele>2.0</ele><time>2026-05-02T11:16:00.364Z</time></trkpt><trkpt lat="39.916465" lon="8.47845"><ele>2.0</ele><time>2026-05-02T11:16:01.364Z</time></trkpt><trkpt lat="39.9164433" lon="8.4786833"><ele>2.0</ele><time>2026-05-02T11:16:02.364Z</time></trkpt><trkpt lat="39.9164233" lon="8.4789083"><ele>2.0</ele><time>2026-05-02T11:16:03.364Z</time></trkpt><trkpt lat="39.9163983" lon="8.4791367"><ele>2.0</ele><time>2026-05-02T11:16:04.364Z</time></trkpt><trkpt lat="39.9163733" lon="8.4793767"><ele>2.0</ele><time>2026-05-02T11:16:05.364Z</time></trkpt><trkpt lat="39.916355" lon="8.47961"><ele>2.0</ele><time>2026-05-02T11:16:06.364Z</time></trkpt><trkpt lat="39.91634" lon="8.4798383"><ele>2.0</ele><time>2026-05-02T11:16:07.364Z</time></trkpt><trkpt lat="39.9163233" lon="8.4800717"><ele>2.0</ele><time>2026-05-02T11:16:08.364Z</time></trkpt><trkpt lat="39.9163183" lon="8.48029"><ele>2.0</ele><time>2026-05-02T11:16:09.364Z</time></trkpt><trkpt lat="39.9163133" lon="8.4805017"><ele>2.0</ele><time>2026-05-02T11:16:10.364Z</time></trkpt><trkpt lat="39.91629" lon="8.4807217"><ele>2.0</ele><time>2026-05-02T11:16:11.364Z</time></trkpt><trkpt lat="39.9162733" lon="8.4809317"><ele>2.0</ele><time>2026-05-02T11:16:12.364Z</time></trkpt><trkpt lat="39.9162583" lon="8.4811333"><ele>2.0</ele><time>2026-05-02T11:16:13.364Z</time></trkpt><trkpt lat="39.916265" lon="8.4813417"><ele>2.0</ele><time>2026-05-02T11:16:14.364Z</time></trkpt><trkpt lat="39.9162833" lon="8.4815467"><ele>2.0</ele><time>2026-05-02T11:16:15.364Z</time></trkpt><trkpt lat="39.9163083" lon="8.4817533"><ele>2.0</ele><time>2026-05-02T11:16:16.364Z</time></trkpt><trkpt lat="39.916335" lon="8.4819633"><ele>2.0</ele><time>2026-05-02T11:16:17.364Z</time></trkpt><trkpt lat="39.9163683" lon="8.4821767"><ele>2.0</ele><time>2026-05-02T11:16:18.364Z</time></trkpt><trkpt lat="39.9164033" lon="8.48239"><ele>2.0</ele><time>2026-05-02T11:16:19.364Z</time></trkpt><trkpt lat="39.9164283" lon="8.4826067"><ele>2.0</ele><time>2026-05-02T11:16:20.364Z</time></trkpt><trkpt lat="39.91646" lon="8.482815"><ele>2.0</ele><time>2026-05-02T11:16:21.364Z</time></trkpt><trkpt lat="39.916485" lon="8.4830333"><ele>2.0</ele><time>2026-05-02T11:16:22.364Z</time></trkpt><trkpt lat="39.9165133" lon="8.4832583"><ele>2.0</ele><time>2026-05-02T11:16:23.364Z</time></trkpt><trkpt lat="39.9165367" lon="8.4835117"><ele>2.0</ele><time>2026-05-02T11:16:24.364Z</time></trkpt><trkpt lat="39.916575" lon="8.4837517"><ele>2.0</ele><time>2026-05-02T11:16:25.364Z</time></trkpt><trkpt lat="39.9166083" lon="8.483995"><ele>2.0</ele><time>2026-05-02T11:16:26.364Z</time></trkpt><trkpt lat="39.9166283" lon="8.4842467"><ele>2.0</ele><time>2026-05-02T11:16:27.364Z</time></trkpt><trkpt lat="39.9166583" lon="8.4844817"><ele>2.0</ele><time>2026-05-02T11:16:28.364Z</time></trkpt><trkpt lat="39.91669" lon="8.4847067"><ele>2.0</ele><time>2026-05-02T11:16:29.364Z</time></trkpt><trkpt lat="39.9167283" lon="8.4849367"><ele>2.0</ele><time>2026-05-02T11:16:30.364Z</time></trkpt><trkpt lat="39.9167717" lon="8.4851633"><ele>2.0</ele><time>2026-05-02T11:16:31.364Z</time></trkpt><trkpt lat="39.9168033" lon="8.4854067"><ele>2.0</ele><time>2026-05-02T11:16:32.364Z</time></trkpt><trkpt lat="39.9168433" lon="8.4856533"><ele>2.0</ele><time>2026-05-02T11:16:33.364Z</time></trkpt><trkpt lat="39.9168733" lon="8.485915"><ele>1.6666666666666665</ele><time>2026-05-02T11:16:34.364Z</time></trkpt><trkpt lat="39.916905" lon="8.4861833"><ele>1.3333333333333333</ele><time>2026-05-02T11:16:35.364Z</time></trkpt><trkpt lat="39.9169483" lon="8.4864367"><ele>1.0</ele><time>2026-05-02T11:16:36.364Z</time></trkpt><trkpt lat="39.9169767" lon="8.4866933"><ele>1.0</ele><time>2026-05-02T11:16:37.364Z</time></trkpt><trkpt lat="39.917005" lon="8.4869367"><ele>1.0</ele><time>2026-05-02T11:16:38.364Z</time></trkpt><trkpt lat="39.9170333" lon="8.4871833"><ele>1.0</ele><time>2026-05-02T11:16:39.364Z</time></trkpt><trkpt lat="39.9170667" lon="8.4874317"><ele>1.0</ele><time>2026-05-02T11:16:40.364Z</time></trkpt><trkpt lat="39.9170983" lon="8.4876883"><ele>1.0</ele><time>2026-05-02T11:16:41.364Z</time></trkpt><trkpt lat="39.91713" lon="8.4879383"><ele>1.0</ele><time>2026-05-02T11:16:42.364Z</time></trkpt><trkpt lat="39.917155" lon="8.4881933"><ele>1.0</ele><time>2026-05-02T11:16:43.364Z</time></trkpt><trkpt lat="39.917195" lon="8.48846"><ele>1.0</ele><time>2026-05-02T11:16:44.364Z</time></trkpt><trkpt lat="39.9172367" lon="8.4887267"><ele>1.0</ele><time>2026-05-02T11:16:45.364Z</time></trkpt><trkpt lat="39.9172667" lon="8.4889967"><ele>1.0</ele><time>2026-05-02T11:16:46.364Z</time></trkpt><trkpt lat="39.9173033" lon="8.489255"><ele>1.0</ele><time>2026-05-02T11:16:47.364Z</time></trkpt><trkpt lat="39.917335" lon="8.4895233"><ele>1.0</ele><time>2026-05-02T11:16:48.364Z</time></trkpt><trkpt lat="39.9173683" lon="8.48979"><ele>1.0</ele><time>2026-05-02T11:16:49.364Z</time></trkpt><trkpt lat="39.9173983" lon="8.4900583"><ele>1.0</ele><time>2026-05-02T11:16:50.364Z</time></trkpt><trkpt lat="39.9174367" lon="8.4903333"><ele>1.0</ele><time>2026-05-02T11:16:51.364Z</time></trkpt><trkpt lat="39.9174817" lon="8.4906083"><ele>0.6666666666666666</ele><time>2026-05-02T11:16:52.364Z</time></trkpt><trkpt lat="39.9175367" lon="8.4908683"><ele>0.3333333333333333</ele><time>2026-05-02T11:16:53.364Z</time></trkpt><trkpt lat="39.917605" lon="8.4911217"><ele>0.0</ele><time>2026-05-02T11:16:54.364Z</time></trkpt><trkpt lat="39.9176783" lon="8.4913717"><ele>0.6666666666666666</ele><time>2026-05-02T11:16:55.364Z</time></trkpt><trkpt lat="39.9177517" lon="8.4916217"><ele>1.3333333333333333</ele><time>2026-05-02T11:16:56.364Z</time></trkpt><trkpt lat="39.917835" lon="8.491855"><ele>2.0</ele><time>2026-05-02T11:16:57.364Z</time></trkpt><trkpt lat="39.9179267" lon="8.4920817"><ele>1.6666666666666665</ele><time>2026-05-02T11:16:58.364Z</time></trkpt><trkpt lat="39.9180133" lon="8.4923083"><ele>1.3333333333333333</ele><time>2026-05-02T11:16:59.364Z</time></trkpt><trkpt lat="39.9180967" lon="8.492535"><ele>1.0</ele><time>2026-05-02T11:17:00.364Z</time></trkpt><trkpt lat="39.9181883" lon="8.4927567"><ele>1.0</ele><time>2026-05-02T11:17:01.364Z</time></trkpt><trkpt lat="39.91828" lon="8.4929783"><ele>1.0</ele><time>2026-05-02T11:17:02.364Z</time></trkpt><trkpt lat="39.9183717" lon="8.493205"><ele>1.0</ele><time>2026-05-02T11:17:03.364Z</time></trkpt><trkpt lat="39.9184617" lon="8.49344"><ele>1.0</ele><time>2026-05-02T11:17:04.364Z</time></trkpt><trkpt lat="39.9185433" lon="8.49368"><ele>1.0</ele><time>2026-05-02T11:17:05.364Z</time></trkpt><trkpt lat="39.918605" lon="8.49393"><ele>1.0</ele><time>2026-05-02T11:17:06.364Z</time></trkpt><trkpt lat="39.9186633" lon="8.4941933"><ele>1.3333333333333333</ele><time>2026-05-02T11:17:07.364Z</time></trkpt><trkpt lat="39.91869" lon="8.4944633"><ele>1.6666666666666665</ele><time>2026-05-02T11:17:08.364Z</time></trkpt><trkpt lat="39.9186983" lon="8.4947383"><ele>2.0</ele><time>2026-05-02T11:17:09.364Z</time></trkpt><trkpt lat="39.9186967" lon="8.4950017"><ele>2.0</ele><time>2026-05-02T11:17:10.364Z</time></trkpt><trkpt lat="39.9186833" lon="8.495255"><ele>2.0</ele><time>2026-05-02T11:17:11.364Z</time></trkpt><trkpt lat="39.9186633" lon="8.49551"><ele>2.0</ele><time>2026-05-02T11:17:12.364Z</time></trkpt><trkpt lat="39.91863" lon="8.4957567"><ele>2.333333333333333</ele><time>2026-05-02T11:17:13.364Z</time></trkpt><trkpt lat="39.9185767" lon="8.4960033"><ele>2.6666666666666665</ele><time>2026-05-02T11:17:14.364Z</time></trkpt><trkpt lat="39.9185067" lon="8.4962467"><ele>3.0</ele><time>2026-05-02T11:17:15.364Z</time></trkpt><trkpt lat="39.9184117" lon="8.49647"><ele>3.0</ele><time>2026-05-02T11:17:16.364Z</time></trkpt><trkpt lat="39.9183133" lon="8.4967"><ele>3.0</ele><time>2026-05-02T11:17:17.364Z</time></trkpt><trkpt lat="39.91821" lon="8.4969117"><ele>3.0</ele><time>2026-05-02T11:17:18.364Z</time></trkpt><trkpt lat="39.9180867" lon="8.4971183"><ele>2.3333333333333335</ele><time>2026-05-02T11:17:19.364Z</time></trkpt><trkpt lat="39.91796" lon="8.4973183"><ele>1.6666666666666665</ele><time>2026-05-02T11:17:20.364Z</time></trkpt><trkpt lat="39.91782" lon="8.497515"><ele>1.0</ele><time>2026-05-02T11:17:21.364Z</time></trkpt><trkpt lat="39.9176833" lon="8.4977033"><ele>0.6666666666666666</ele><time>2026-05-02T11:17:22.364Z</time></trkpt><trkpt lat="39.9175533" lon="8.4979033"><ele>0.3333333333333333</ele><time>2026-05-02T11:17:23.364Z</time></trkpt><trkpt lat="39.91743" lon="8.4981083"><ele>0.0</ele><time>2026-05-02T11:17:24.364Z</time></trkpt><trkpt lat="39.9173" lon="8.4983167"><ele>0.0</ele><time>2026-05-02T11:17:25.364Z</time></trkpt><trkpt lat="39.917175" lon="8.49852"><ele>0.0</ele><time>2026-05-02T11:17:26.364Z</time></trkpt><trkpt lat="39.9170417" lon="8.4987317"><ele>0.0</ele><time>2026-05-02T11:17:27.364Z</time></trkpt><trkpt lat="39.9169067" lon="8.4989417"><ele>0.0</ele><time>2026-05-02T11:17:28.364Z</time></trkpt><trkpt lat="39.9167783" lon="8.4991417"><ele>0.0</ele><time>2026-05-02T11:17:29.364Z</time></trkpt><trkpt lat="39.9166467" lon="8.4993433"><ele>0.0</ele><time>2026-05-02T11:17:30.364Z</time></trkpt><trkpt lat="39.9165183" lon="8.4995583"><ele>0.6666666666666666</ele><time>2026-05-02T11:17:31.364Z</time></trkpt><trkpt lat="39.9164067" lon="8.4997817"><ele>1.3333333333333333</ele><time>2026-05-02T11:17:32.364Z</time></trkpt><trkpt lat="39.9162967" lon="8.5000133"><ele>2.0</ele><time>2026-05-02T11:17:33.364Z</time></trkpt><trkpt lat="39.9162067" lon="8.500265"><ele>2.333333333333333</ele><time>2026-05-02T11:17:34.364Z</time></trkpt><trkpt lat="39.9161283" lon="8.5005183"><ele>2.6666666666666665</ele><time>2026-05-02T11:17:35.364Z</time></trkpt><trkpt lat="39.9160733" lon="8.5007767"><ele>3.0</ele><time>2026-05-02T11:17:36.364Z</time></trkpt><trkpt lat="39.9160283" lon="8.5010533"><ele>3.0</ele><time>2026-05-02T11:17:37.364Z</time></trkpt><trkpt lat="39.9159933" lon="8.5013217"><ele>3.0</ele><time>2026-05-02T11:17:38.364Z</time></trkpt><trkpt lat="39.915975" lon="8.5015933"><ele>3.0</ele><time>2026-05-02T11:17:39.364Z</time></trkpt><trkpt lat="39.9159783" lon="8.5018517"><ele>3.0</ele><time>2026-05-02T11:17:40.364Z</time></trkpt><trkpt lat="39.9160017" lon="8.5020983"><ele>3.0</ele><time>2026-05-02T11:17:41.364Z</time></trkpt><trkpt lat="39.9160383" lon="8.5023467"><ele>3.0</ele><time>2026-05-02T11:17:42.364Z</time></trkpt><trkpt lat="39.9160933" lon="8.5026017"><ele>3.0</ele><time>2026-05-02T11:17:43.364Z</time></trkpt><trkpt lat="39.9161567" lon="8.50286"><ele>3.0</ele><time>2026-05-02T11:17:44.364Z</time></trkpt><trkpt lat="39.9162483" lon="8.50311"><ele>3.0</ele><time>2026-05-02T11:17:45.364Z</time></trkpt><trkpt lat="39.91635" lon="8.50337"><ele>3.0</ele><time>2026-05-02T11:17:46.364Z</time></trkpt><trkpt lat="39.9164633" lon="8.5036083"><ele>3.0</ele><time>2026-05-02T11:17:47.364Z</time></trkpt><trkpt lat="39.9165833" lon="8.50384"><ele>3.0</ele><time>2026-05-02T11:17:48.364Z</time></trkpt><trkpt lat="39.9167183" lon="8.504065"><ele>3.0</ele><time>2026-05-02T11:17:49.364Z</time></trkpt><trkpt lat="39.9168567" lon="8.504285"><ele>3.0</ele><time>2026-05-02T11:17:50.364Z</time></trkpt><trkpt lat="39.916995" lon="8.5045"><ele>3.0</ele><time>2026-05-02T11:17:51.364Z</time></trkpt><trkpt lat="39.9171283" lon="8.5047233"><ele>3.0</ele><time>2026-05-02T11:17:52.364Z</time></trkpt><trkpt lat="39.91725" lon="8.5049517"><ele>3.0</ele><time>2026-05-02T11:17:53.364Z</time></trkpt><trkpt lat="39.917375" lon="8.5051833"><ele>3.0</ele><time>2026-05-02T11:17:54.364Z</time></trkpt><trkpt lat="39.9174767" lon="8.5054333"><ele>3.0</ele><time>2026-05-02T11:17:55.364Z</time></trkpt><trkpt lat="39.9175733" lon="8.5056717"><ele>3.0</ele><time>2026-05-02T11:17:56.364Z</time></trkpt><trkpt lat="39.9176517" lon="8.5059233"><ele>3.0</ele><time>2026-05-02T11:17:57.364Z</time></trkpt><trkpt lat="39.917735" lon="8.5061817"><ele>3.0</ele><time>2026-05-02T11:17:58.364Z</time></trkpt><trkpt lat="39.9178117" lon="8.5064383"><ele>3.0</ele><time>2026-05-02T11:17:59.364Z</time></trkpt><trkpt lat="39.9178683" lon="8.506705"><ele>3.0</ele><time>2026-05-02T11:18:00.364Z</time></trkpt><trkpt lat="39.917915" lon="8.5069717"><ele>2.6666666666666665</ele><time>2026-05-02T11:18:01.364Z</time></trkpt><trkpt lat="39.9179683" lon="8.5072283"><ele>2.333333333333333</ele><time>2026-05-02T11:18:02.365Z</time></trkpt><trkpt lat="39.9180283" lon="8.5074817"><ele>2.0</ele><time>2026-05-02T11:18:03.364Z</time></trkpt><trkpt lat="39.91809" lon="8.5077367"><ele>1.6666666666666665</ele><time>2026-05-02T11:18:04.364Z</time></trkpt><trkpt lat="39.9181483" lon="8.5079917"><ele>1.3333333333333333</ele><time>2026-05-02T11:18:05.364Z</time></trkpt><trkpt lat="39.9182" lon="8.50824"><ele>1.0</ele><time>2026-05-02T11:18:06.364Z</time></trkpt><trkpt lat="39.91826" lon="8.5084817"><ele>1.0</ele><time>2026-05-02T11:18:07.364Z</time></trkpt><trkpt lat="39.9183133" lon="8.5087233"><ele>1.0</ele><time>2026-05-02T11:18:08.364Z</time></trkpt><trkpt lat="39.9183467" lon="8.508985"><ele>1.0</ele><time>2026-05-02T11:18:09.364Z</time></trkpt><trkpt lat="39.9183667" lon="8.5092483"><ele>0.6666666666666666</ele><time>2026-05-02T11:18:10.364Z</time></trkpt><trkpt lat="39.9183867" lon="8.50952"><ele>0.3333333333333333</ele><time>2026-05-02T11:18:11.364Z</time></trkpt><trkpt lat="39.91841" lon="8.5097933"><ele>0.0</ele><time>2026-05-02T11:18:12.364Z</time></trkpt><trkpt lat="39.9184267" lon="8.5100733"><ele>0.0</ele><time>2026-05-02T11:18:13.364Z</time></trkpt><trkpt lat="39.9184517" lon="8.5103467"><ele>0.0</ele><time>2026-05-02T11:18:14.364Z</time></trkpt><trkpt lat="39.91847" lon="8.5106367"><ele>0.0</ele><time>2026-05-02T11:18:15.364Z</time></trkpt><trkpt lat="39.91849" lon="8.5109283"><ele>0.0</ele><time>2026-05-02T11:18:16.364Z</time></trkpt><trkpt lat="39.9185267" lon="8.5112183"><ele>0.0</ele><time>2026-05-02T11:18:17.364Z</time></trkpt><trkpt lat="39.91856" lon="8.5114917"><ele>0.0</ele><time>2026-05-02T11:18:18.364Z</time></trkpt><trkpt lat="39.9185867" lon="8.51177"><ele>0.3333333333333333</ele><time>2026-05-02T11:18:19.364Z</time></trkpt><trkpt lat="39.91862" lon="8.5120433"><ele>0.6666666666666666</ele><time>2026-05-02T11:18:20.364Z</time></trkpt><trkpt lat="39.9186467" lon="8.5123183"><ele>1.0</ele><time>2026-05-02T11:18:21.364Z</time></trkpt><trkpt lat="39.91868" lon="8.51259"><ele>1.0</ele><time>2026-05-02T11:18:22.364Z</time></trkpt><trkpt lat="39.9187117" lon="8.512865"><ele>1.0</ele><time>2026-05-02T11:18:23.364Z</time></trkpt><trkpt lat="39.918745" lon="8.5131417"><ele>1.0</ele><time>2026-05-02T11:18:24.364Z</time></trkpt><trkpt lat="39.9187783" lon="8.5134167"><ele>1.3333333333333333</ele><time>2026-05-02T11:18:25.364Z</time></trkpt><trkpt lat="39.9188083" lon="8.513675"><ele>1.6666666666666665</ele><time>2026-05-02T11:18:26.364Z</time></trkpt><trkpt lat="39.91884" lon="8.5139133"><ele>2.0</ele><time>2026-05-02T11:18:27.364Z</time></trkpt><trkpt lat="39.9188633" lon="8.514135"><ele>2.0</ele><time>2026-05-02T11:18:28.364Z</time></trkpt><trkpt lat="39.9188583" lon="8.51435"><ele>2.0</ele><time>2026-05-02T11:18:29.364Z</time></trkpt><trkpt lat="39.9188133" lon="8.5145733"><ele>2.0</ele><time>2026-05-02T11:18:30.364Z</time></trkpt><trkpt lat="39.9187517" lon="8.514795"><ele>2.0</ele><time>2026-05-02T11:18:31.364Z</time></trkpt><trkpt lat="39.918675" lon="8.5150133"><ele>2.0</ele><time>2026-05-02T11:18:32.364Z</time></trkpt><trkpt lat="39.9185967" lon="8.5152233"><ele>2.0</ele><time>2026-05-02T11:18:33.364Z</time></trkpt><trkpt lat="39.9185267" lon="8.51544"><ele>2.0</ele><time>2026-05-02T11:18:34.364Z</time></trkpt><trkpt lat="39.9184533" lon="8.5156583"><ele>2.0</ele><time>2026-05-02T11:18:35.364Z</time></trkpt><trkpt lat="39.9183833" lon="8.51588"><ele>2.0</ele><time>2026-05-02T11:18:36.364Z</time></trkpt><trkpt lat="39.9183133" lon="8.51611"><ele>2.0</ele><time>2026-05-02T11:18:37.364Z</time></trkpt><trkpt lat="39.9182467" lon="8.5163317"><ele>2.0</ele><time>2026-05-02T11:18:38.364Z</time></trkpt><trkpt lat="39.9181767" lon="8.516565"><ele>2.0</ele><time>2026-05-02T11:18:39.364Z</time></trkpt><trkpt lat="39.9181" lon="8.5167933"><ele>2.0</ele><time>2026-05-02T11:18:40.364Z</time></trkpt><trkpt lat="39.9180217" lon="8.517"><ele>2.0</ele><time>2026-05-02T11:18:41.364Z</time></trkpt><trkpt lat="39.9179567" lon="8.5172183"><ele>2.0</ele><time>2026-05-02T11:18:42.364Z</time></trkpt><trkpt lat="39.9179267" lon="8.51746"><ele>2.0</ele><time>2026-05-02T11:18:43.364Z</time></trkpt><trkpt lat="39.9179233" lon="8.5176883"><ele>2.0</ele><time>2026-05-02T11:18:44.364Z</time></trkpt><trkpt lat="39.9179433" lon="8.5179333"><ele>2.0</ele><time>2026-05-02T11:18:45.364Z</time></trkpt><trkpt lat="39.9179867" lon="8.5181867"><ele>1.6666666666666665</ele><time>2026-05-02T11:18:46.364Z</time></trkpt><trkpt lat="39.91805" lon="8.5184517"><ele>1.3333333333333333</ele><time>2026-05-02T11:18:47.364Z</time></trkpt><trkpt lat="39.9181283" lon="8.5186917"><ele>1.0</ele><time>2026-05-02T11:18:48.364Z</time></trkpt><trkpt lat="39.9182183" lon="8.5189167"><ele>1.0</ele><time>2026-05-02T11:18:49.364Z</time></trkpt><trkpt lat="39.9183167" lon="8.5191517"><ele>1.0</ele><time>2026-05-02T11:18:50.364Z</time></trkpt><trkpt lat="39.9184017" lon="8.5193733"><ele>1.0</ele><time>2026-05-02T11:18:51.364Z</time></trkpt><trkpt lat="39.9184767" lon="8.5195733"><ele>0.5</ele><time>2026-05-02T11:18:52.364Z</time></trkpt><trkpt lat="39.9185417" lon="8.5197483"><ele>0.0</ele><time>2026-05-02T11:18:53.364Z</time></trkpt><trkpt lat="39.9185933" lon="8.5199133"><ele>-0.5</ele><time>2026-05-02T11:18:54.364Z</time></trkpt><trkpt lat="39.9186417" lon="8.520065"><ele>-1.0</ele><time>2026-05-02T11:18:55.364Z</time></trkpt><trkpt lat="39.9186717" lon="8.5202133"><ele>-1.0</ele><time>2026-05-02T11:18:56.364Z</time></trkpt><trkpt lat="39.9187017" lon="8.5203567"><ele>-1.0</ele><time>2026-05-02T11:18:57.364Z</time></trkpt><trkpt lat="39.91871" lon="8.5205033"><ele>-1.0</ele><time>2026-05-02T11:18:58.365Z</time></trkpt><trkpt lat="39.9187233" lon="8.5206483"><ele>-1.0</ele><time>2026-05-02T11:18:59.364Z</time></trkpt><trkpt lat="39.91876" lon="8.5207833"><ele>-1.0</ele><time>2026-05-02T11:19:00.364Z</time></trkpt><trkpt lat="39.91883" lon="8.5209067"><ele>-0.5</ele><time>2026-05-02T11:19:01.364Z</time></trkpt><trkpt lat="39.9189183" lon="8.5210133"><ele>0.0</ele><time>2026-05-02T11:19:02.364Z</time></trkpt><trkpt lat="39.91899" lon="8.52115"><ele>0.5</ele><time>2026-05-02T11:19:03.364Z</time></trkpt><trkpt lat="39.9190483" lon="8.52131"><ele>1.0</ele><time>2026-05-02T11:19:04.364Z</time></trkpt><trkpt lat="39.9190883" lon="8.521505"><ele>1.3333333333333333</ele><time>2026-05-02T11:19:05.364Z</time></trkpt><trkpt lat="39.919115" lon="8.5217133"><ele>1.6666666666666665</ele><time>2026-05-02T11:19:06.364Z</time></trkpt><trkpt lat="39.919125" lon="8.5219417"><ele>2.0</ele><time>2026-05-02T11:19:07.364Z</time></trkpt><trkpt lat="39.9191083" lon="8.522175"><ele>1.3333333333333333</ele><time>2026-05-02T11:19:08.364Z</time></trkpt><trkpt lat="39.9191017" lon="8.5224117"><ele>0.6666666666666666</ele><time>2026-05-02T11:19:09.364Z</time></trkpt><trkpt lat="39.9190683" lon="8.522655"><ele>0.0</ele><time>2026-05-02T11:19:10.364Z</time></trkpt><trkpt lat="39.9190217" lon="8.5229083"><ele>0.0</ele><time>2026-05-02T11:19:11.364Z</time></trkpt><trkpt lat="39.9189583" lon="8.5231617"><ele>0.0</ele><time>2026-05-02T11:19:12.364Z</time></trkpt><trkpt lat="39.9189067" lon="8.5234217"><ele>0.0</ele><time>2026-05-02T11:19:13.364Z</time></trkpt><trkpt lat="39.9188533" lon="8.5236933"><ele>0.0</ele><time>2026-05-02T11:19:14.364Z</time></trkpt><trkpt lat="39.9188017" lon="8.5239667"><ele>0.0</ele><time>2026-05-02T11:19:15.364Z</time></trkpt><trkpt lat="39.918745" lon="8.5242533"><ele>0.0</ele><time>2026-05-02T11:19:16.364Z</time></trkpt><trkpt lat="39.9186833" lon="8.5245517"><ele>-0.5</ele><time>2026-05-02T11:19:17.364Z</time></trkpt><trkpt lat="39.9186283" lon="8.5248433"><ele>-1.0</ele><time>2026-05-02T11:19:18.364Z</time></trkpt><trkpt lat="39.9185717" lon="8.5251317"><ele>-0.5</ele><time>2026-05-02T11:19:19.364Z</time></trkpt><trkpt lat="39.91852" lon="8.5254183"><ele>0.0</ele><time>2026-05-02T11:19:20.364Z</time></trkpt><trkpt lat="39.9184633" lon="8.52571"><ele>0.0</ele><time>2026-05-02T11:19:21.364Z</time></trkpt><trkpt lat="39.918405" lon="8.5260017"><ele>0.0</ele><time>2026-05-02T11:19:22.364Z</time></trkpt><trkpt lat="39.9183483" lon="8.52628"><ele>0.0</ele><time>2026-05-02T11:19:23.364Z</time></trkpt><trkpt lat="39.918285" lon="8.5265583"><ele>0.0</ele><time>2026-05-02T11:19:24.364Z</time></trkpt><trkpt lat="39.9182333" lon="8.526835"><ele>0.0</ele><time>2026-05-02T11:19:25.364Z</time></trkpt><trkpt lat="39.9181883" lon="8.5270983"><ele>0.0</ele><time>2026-05-02T11:19:26.364Z</time></trkpt><trkpt lat="39.91814" lon="8.5273717"><ele>0.0</ele><time>2026-05-02T11:19:27.364Z</time></trkpt><trkpt lat="39.9180883" lon="8.52765"><ele>0.0</ele><time>2026-05-02T11:19:28.364Z</time></trkpt><trkpt lat="39.918045" lon="8.5279217"><ele>1.0</ele><time>2026-05-02T11:19:29.364Z</time></trkpt><trkpt lat="39.9179983" lon="8.52821"><ele>2.0</ele><time>2026-05-02T11:19:30.364Z</time></trkpt><trkpt lat="39.91796" lon="8.5285033"><ele>2.0</ele><time>2026-05-02T11:19:31.364Z</time></trkpt><trkpt lat="39.9179317" lon="8.5287933"><ele>2.0</ele><time>2026-05-02T11:19:32.364Z</time></trkpt><trkpt lat="39.917915" lon="8.5290883"><ele>2.0</ele><time>2026-05-02T11:19:33.364Z</time></trkpt><trkpt lat="39.9179083" lon="8.5293833"><ele>2.0</ele><time>2026-05-02T11:19:34.364Z</time></trkpt><trkpt lat="39.917935" lon="8.5296717"><ele>2.0</ele><time>2026-05-02T11:19:35.364Z</time></trkpt><trkpt lat="39.917965" lon="8.5299717"><ele>1.5</ele><time>2026-05-02T11:19:36.364Z</time></trkpt><trkpt lat="39.9180083" lon="8.5302683"><ele>1.0</ele><time>2026-05-02T11:19:37.364Z</time></trkpt><trkpt lat="39.9180667" lon="8.530555"><ele>1.0</ele><time>2026-05-02T11:19:38.364Z</time></trkpt><trkpt lat="39.9181217" lon="8.5308417"><ele>1.0</ele><time>2026-05-02T11:19:39.364Z</time></trkpt><trkpt lat="39.9181717" lon="8.5311333"><ele>1.3333333333333333</ele><time>2026-05-02T11:19:40.364Z</time></trkpt><trkpt lat="39.918225" lon="8.5314117"><ele>1.6666666666666665</ele><time>2026-05-02T11:19:41.364Z</time></trkpt><trkpt lat="39.9182667" lon="8.5316917"><ele>2.0</ele><time>2026-05-02T11:19:42.364Z</time></trkpt><trkpt lat="39.9183167" lon="8.5319683"><ele>2.0</ele><time>2026-05-02T11:19:43.364Z</time></trkpt><trkpt lat="39.91836" lon="8.53224"><ele>2.0</ele><time>2026-05-02T11:19:44.364Z</time></trkpt><trkpt lat="39.9184133" lon="8.5325183"><ele>2.0</ele><time>2026-05-02T11:19:45.364Z</time></trkpt><trkpt lat="39.9184617" lon="8.5327867"><ele>1.6666666666666665</ele><time>2026-05-02T11:19:46.364Z</time></trkpt><trkpt lat="39.9185067" lon="8.5330533"><ele>1.3333333333333333</ele><time>2026-05-02T11:19:47.364Z</time></trkpt><trkpt lat="39.9185517" lon="8.5333233"><ele>1.0</ele><time>2026-05-02T11:19:48.364Z</time></trkpt><trkpt lat="39.9186083" lon="8.5335967"><ele>1.0</ele><time>2026-05-02T11:19:49.364Z</time></trkpt><trkpt lat="39.9186683" lon="8.5338667"><ele>1.0</ele><time>2026-05-02T11:19:50.364Z</time></trkpt><trkpt lat="39.918725" lon="8.5341283"><ele>1.0</ele><time>2026-05-02T11:19:51.364Z</time></trkpt><trkpt lat="39.9187767" lon="8.5343967"><ele>1.3333333333333333</ele><time>2026-05-02T11:19:52.364Z</time></trkpt><trkpt lat="39.918825" lon="8.534655"><ele>1.6666666666666665</ele><time>2026-05-02T11:19:53.364Z</time></trkpt><trkpt lat="39.9188667" lon="8.53492"><ele>2.0</ele><time>2026-05-02T11:19:54.364Z</time></trkpt><trkpt lat="39.9189167" lon="8.5351883"><ele>1.6666666666666665</ele><time>2026-05-02T11:19:55.364Z</time></trkpt><trkpt lat="39.9189636" lon="8.5354485"><ele>1.3333333333333333</ele><time>2026-05-02T11:19:56.364Z</time></trkpt><trkpt lat="39.9190145" lon="8.53571"><ele>1.0</ele><time>2026-05-02T11:19:57.364Z</time></trkpt><trkpt lat="39.9190684" lon="8.535975"><ele>1.0</ele><time>2026-05-02T11:19:58.364Z</time></trkpt><trkpt lat="39.9191156" lon="8.536227"><ele>1.0</ele><time>2026-05-02T11:19:59.364Z</time></trkpt><trkpt lat="39.9191537" lon="8.5364621"><ele>1.0</ele><time>2026-05-02T11:20:00.364Z</time></trkpt><trkpt lat="39.9191858" lon="8.5366672"><ele>1.0</ele><time>2026-05-02T11:20:01.364Z</time></trkpt><trkpt lat="39.9192064" lon="8.536847"><ele>1.0</ele><time>2026-05-02T11:20:02.364Z</time></trkpt><trkpt lat="39.9192115" lon="8.5370099"><ele>1.0</ele><time>2026-05-02T11:20:03.364Z</time></trkpt><trkpt lat="39.9191889" lon="8.537158"><ele>1.0</ele><time>2026-05-02T11:20:04.364Z</time></trkpt><trkpt lat="39.9191359" lon="8.5372901"><ele>1.25</ele><time>2026-05-02T11:20:05.364Z</time></trkpt><trkpt lat="39.9190648" lon="8.5374197"><ele>1.5</ele><time>2026-05-02T11:20:06.364Z</time></trkpt><trkpt lat="39.9189946" lon="8.537571"><ele>1.75</ele><time>2026-05-02T11:20:07.364Z</time></trkpt><trkpt lat="39.9189221" lon="8.5377533"><ele>2.0</ele><time>2026-05-02T11:20:08.364Z</time></trkpt><trkpt lat="39.9188364" lon="8.5379372"><ele>2.0</ele><time>2026-05-02T11:20:09.364Z</time></trkpt><trkpt lat="39.9187212" lon="8.5381066"><ele>2.0</ele><time>2026-05-02T11:20:10.364Z</time></trkpt><trkpt lat="39.9185804" lon="8.538275"><ele>2.0</ele><time>2026-05-02T11:20:11.364Z</time></trkpt><trkpt lat="39.9184196" lon="8.5384429"><ele>1.6666666666666665</ele><time>2026-05-02T11:20:12.364Z</time></trkpt><trkpt lat="39.9182523" lon="8.5386111"><ele>1.3333333333333333</ele><time>2026-05-02T11:20:13.364Z</time></trkpt><trkpt lat="39.9180794" lon="8.53878"><ele>1.0</ele><time>2026-05-02T11:20:14.364Z</time></trkpt><trkpt lat="39.9179083" lon="8.5389462"><ele>1.6666666666666665</ele><time>2026-05-02T11:20:15.364Z</time></trkpt><trkpt lat="39.9177419" lon="8.5391144"><ele>2.3333333333333335</ele><time>2026-05-02T11:20:16.364Z</time></trkpt><trkpt lat="39.9175851" lon="8.5392754"><ele>3.0</ele><time>2026-05-02T11:20:17.364Z</time></trkpt><trkpt lat="39.9174368" lon="8.5394341"><ele>3.0</ele><time>2026-05-02T11:20:18.364Z</time></trkpt><trkpt lat="39.9172951" lon="8.5395801"><ele>3.0</ele><time>2026-05-02T11:20:19.364Z</time></trkpt><trkpt lat="39.9171517" lon="8.5397211"><ele>3.0</ele><time>2026-05-02T11:20:20.364Z</time></trkpt><trkpt lat="39.9170038" lon="8.5398679"><ele>3.0</ele><time>2026-05-02T11:20:21.364Z</time></trkpt><trkpt lat="39.9168478" lon="8.5400051"><ele>3.0</ele><time>2026-05-02T11:20:22.364Z</time></trkpt><trkpt lat="39.916688" lon="8.5401177"><ele>3.0</ele><time>2026-05-02T11:20:23.364Z</time></trkpt><trkpt lat="39.9165273" lon="8.5402193"><ele>3.0</ele><time>2026-05-02T11:20:24.364Z</time></trkpt><trkpt lat="39.9163602" lon="8.5403074"><ele>3.0</ele><time>2026-05-02T11:20:25.364Z</time></trkpt><trkpt lat="39.9161998" lon="8.5403924"><ele>3.0</ele><time>2026-05-02T11:20:26.364Z</time></trkpt><trkpt lat="39.9160384" lon="8.5404789"><ele>3.333333333333333</ele><time>2026-05-02T11:20:27.364Z</time></trkpt><trkpt lat="39.915872" lon="8.5405681"><ele>3.6666666666666665</ele><time>2026-05-02T11:20:28.364Z</time></trkpt><trkpt lat="39.91571" lon="8.5406583"><ele>4.0</ele><time>2026-05-02T11:20:29.364Z</time></trkpt><trkpt lat="39.9155583" lon="8.5407667"><ele>4.0</ele><time>2026-05-02T11:20:30.364Z</time></trkpt><trkpt lat="39.9154133" lon="8.5408933"><ele>4.0</ele><time>2026-05-02T11:20:31.364Z</time></trkpt><trkpt lat="39.915285" lon="8.5410483"><ele>4.0</ele><time>2026-05-02T11:20:32.364Z</time></trkpt><trkpt lat="39.91517" lon="8.5412183"><ele>4.25</ele><time>2026-05-02T11:20:33.364Z</time></trkpt><trkpt lat="39.91508" lon="8.5413883"><ele>4.5</ele><time>2026-05-02T11:20:34.364Z</time></trkpt><trkpt lat="39.9149933" lon="8.5415283"><ele>4.75</ele><time>2026-05-02T11:20:35.364Z</time></trkpt><trkpt lat="39.91491" lon="8.5416433"><ele>5.0</ele><time>2026-05-02T11:20:36.364Z</time></trkpt><trkpt lat="39.9148383" lon="8.5417317"><ele>5.166666666666667</ele><time>2026-05-02T11:20:37.364Z</time></trkpt><trkpt lat="39.9147733" lon="8.5418"><ele>5.333333333333334</ele><time>2026-05-02T11:20:38.364Z</time></trkpt><trkpt lat="39.9146917" lon="8.5418383"><ele>5.5</ele><time>2026-05-02T11:20:39.364Z</time></trkpt><trkpt lat="39.91461" lon="8.54182"><ele>5.666666666666667</ele><time>2026-05-02T11:20:40.364Z</time></trkpt><trkpt lat="39.9145483" lon="8.54176"><ele>5.833333333333333</ele><time>2026-05-02T11:20:41.364Z</time></trkpt><trkpt lat="39.91451" lon="8.5416683"><ele>6.0</ele><time>2026-05-02T11:20:42.364Z</time></trkpt><trkpt lat="39.9145017" lon="8.5415683"><ele>6.0</ele><time>2026-05-02T11:20:43.364Z</time></trkpt><trkpt lat="39.914515" lon="8.5414633"><ele>6.0</ele><time>2026-05-02T11:20:44.364Z</time></trkpt><trkpt lat="39.9145717" lon="8.54135"><ele>6.0</ele><time>2026-05-02T11:20:45.364Z</time></trkpt><trkpt lat="39.91461" lon="8.54125"><ele>6.0</ele><time>2026-05-02T11:20:46.364Z</time></trkpt><trkpt lat="39.9146283" lon="8.5411367"><ele>6.0</ele><time>2026-05-02T11:20:47.364Z</time></trkpt><trkpt lat="39.91462" lon="8.5410217"><ele>6.0</ele><time>2026-05-02T11:20:48.364Z</time></trkpt><trkpt lat="39.9145983" lon="8.5409233"><ele>5.833333333333333</ele><time>2026-05-02T11:20:49.364Z</time></trkpt><trkpt lat="39.91458" lon="8.5408383"><ele>5.666666666666667</ele><time>2026-05-02T11:20:50.364Z</time></trkpt><trkpt lat="39.914555" lon="8.5406933"><ele>5.5</ele><time>2026-05-02T11:20:52.364Z</time></trkpt><trkpt lat="39.914525" lon="8.540595"><ele>5.333333333333334</ele><time>2026-05-02T11:20:54.364Z</time></trkpt><trkpt lat="39.9144967" lon="8.5404933"><ele>5.166666666666667</ele><time>2026-05-02T11:20:56.364Z</time></trkpt><trkpt lat="39.91451" lon="8.54041"><ele>5.0</ele><time>2026-05-02T11:20:59.364Z</time></trkpt><trkpt lat="39.9145133" lon="8.5405283"><ele>5.0</ele><time>2026-05-02T11:32:02.362Z</time></trkpt><trkpt lat="39.91449" lon="8.5406183"><ele>5.0</ele><time>2026-05-02T11:32:06.362Z</time></trkpt><trkpt lat="39.9144917" lon="8.54071"><ele>5.0</ele><time>2026-05-02T11:32:11.362Z</time></trkpt><trkpt lat="39.9144867" lon="8.5408033"><ele>5.0</ele><time>2026-05-02T11:32:17.362Z</time></trkpt><trkpt lat="39.91449" lon="8.5408883"><ele>5.0</ele><time>2026-05-02T11:32:22.362Z</time></trkpt><trkpt lat="39.9144317" lon="8.5410767"><ele>5.0</ele><time>2026-05-02T11:36:58.362Z</time></trkpt><trkpt lat="39.914485" lon="8.541005"><ele>5.0</ele><time>2026-05-02T11:39:38.362Z</time></trkpt><trkpt lat="39.914565" lon="8.5409917"><ele>5.0</ele><time>2026-05-02T11:39:42.362Z</time></trkpt><trkpt lat="39.9145967" lon="8.5410667"><ele>5.0</ele><time>2026-05-02T11:39:47.362Z</time></trkpt><trkpt lat="39.9146467" lon="8.54119"><ele>5.0</ele><time>2026-05-02T11:40:19.362Z</time></trkpt><trkpt lat="39.9147133" lon="8.5412083"><ele>5.0</ele><time>2026-05-02T11:40:24.362Z</time></trkpt><trkpt lat="39.914775" lon="8.541135"><ele>5.0</ele><time>2026-05-02T11:40:44.362Z</time></trkpt><trkpt lat="39.9148367" lon="8.5410767"><ele>5.0</ele><time>2026-05-02T11:40:47.362Z</time></trkpt><trkpt lat="39.9148917" lon="8.5410267"><ele>5.0</ele><time>2026-05-02T11:40:49.362Z</time></trkpt><trkpt lat="39.91496" lon="8.5409667"><ele>5.0</ele><time>2026-05-02T11:40:51.362Z</time></trkpt><trkpt lat="39.9150267" lon="8.540905"><ele>5.0</ele><time>2026-05-02T11:40:53.362Z</time></trkpt><trkpt lat="39.9150983" lon="8.5408267"><ele>5.0</ele><time>2026-05-02T11:40:55.362Z</time></trkpt><trkpt lat="39.9151933" lon="8.5407683"><ele>5.0</ele><time>2026-05-02T11:40:57.362Z</time></trkpt><trkpt lat="39.915305" lon="8.5407283"><ele>4.833333333333334</ele><time>2026-05-02T11:40:59.362Z</time></trkpt><trkpt lat="39.9154133" lon="8.54067"><ele>4.666666666666667</ele><time>2026-05-02T11:41:01.362Z</time></trkpt><trkpt lat="39.91549" lon="8.540605"><ele>4.5</ele><time>2026-05-02T11:41:03.362Z</time></trkpt><trkpt lat="39.915565" lon="8.5405433"><ele>4.333333333333333</ele><time>2026-05-02T11:41:30.362Z</time></trkpt><trkpt lat="39.9156367" lon="8.5405017"><ele>4.166666666666666</ele><time>2026-05-02T11:41:34.362Z</time></trkpt><trkpt lat="39.9157" lon="8.540465"><ele>4.0</ele><time>2026-05-02T11:41:36.362Z</time></trkpt><trkpt lat="39.9157817" lon="8.540415"><ele>4.0</ele><time>2026-05-02T11:41:38.362Z</time></trkpt><trkpt lat="39.915875" lon="8.5403667"><ele>4.0</ele><time>2026-05-02T11:41:40.362Z</time></trkpt><trkpt lat="39.9159733" lon="8.5403217"><ele>4.0</ele><time>2026-05-02T11:41:42.362Z</time></trkpt><trkpt lat="39.9160767" lon="8.5402633"><ele>4.0</ele><time>2026-05-02T11:41:44.362Z</time></trkpt><trkpt lat="39.9161883" lon="8.5402117"><ele>4.0</ele><time>2026-05-02T11:41:46.362Z</time></trkpt><trkpt lat="39.916295" lon="8.54016"><ele>3.9999999999999996</ele><time>2026-05-02T11:41:48.362Z</time></trkpt><trkpt lat="39.9163967" lon="8.54009"><ele>4.0</ele><time>2026-05-02T11:41:50.362Z</time></trkpt><trkpt lat="39.9165083" lon="8.5400167"><ele>4.0</ele><time>2026-05-02T11:41:52.362Z</time></trkpt><trkpt lat="39.916565" lon="8.53998"><ele>4.0</ele><time>2026-05-02T11:41:53.362Z</time></trkpt><trkpt lat="39.916625" lon="8.53994"><ele>3.9999999999999996</ele><time>2026-05-02T11:41:54.362Z</time></trkpt><trkpt lat="39.9166867" lon="8.5398933"><ele>4.0</ele><time>2026-05-02T11:41:55.362Z</time></trkpt><trkpt lat="39.916745" lon="8.5398467"><ele>3.8571428571428568</ele><time>2026-05-02T11:41:56.362Z</time></trkpt><trkpt lat="39.9168017" lon="8.5397883"><ele>3.714285714285714</ele><time>2026-05-02T11:41:57.362Z</time></trkpt><trkpt lat="39.9168617" lon="8.5397333"><ele>3.571428571428571</ele><time>2026-05-02T11:41:58.362Z</time></trkpt><trkpt lat="39.9169183" lon="8.539675"><ele>3.4285714285714284</ele><time>2026-05-02T11:41:59.362Z</time></trkpt><trkpt lat="39.9169783" lon="8.53962"><ele>3.2857142857142856</ele><time>2026-05-02T11:42:00.362Z</time></trkpt><trkpt lat="39.9170317" lon="8.5395667"><ele>3.1428571428571423</ele><time>2026-05-02T11:42:01.361Z</time></trkpt><trkpt lat="39.9170833" lon="8.5395133"><ele>3.0</ele><time>2026-05-02T11:42:02.361Z</time></trkpt><trkpt lat="39.917135" lon="8.5394567"><ele>3.0</ele><time>2026-05-02T11:42:03.361Z</time></trkpt><trkpt lat="39.9172433" lon="8.5393517"><ele>3.0</ele><time>2026-05-02T11:42:05.361Z</time></trkpt><trkpt lat="39.9173067" lon="8.5393033"><ele>3.0</ele><time>2026-05-02T11:42:06.361Z</time></trkpt><trkpt lat="39.917385" lon="8.5392267"><ele>3.0</ele><time>2026-05-02T11:42:08.361Z</time></trkpt><trkpt lat="39.9173333" lon="8.5392817"><ele>3.0</ele><time>2026-05-02T11:42:13.361Z</time></trkpt><trkpt lat="39.9172633" lon="8.5393667"><ele>3.0</ele><time>2026-05-02T11:42:14.361Z</time></trkpt><trkpt lat="39.9171733" lon="8.5394633"><ele>3.0</ele><time>2026-05-02T11:42:15.361Z</time></trkpt><trkpt lat="39.9170683" lon="8.5395733"><ele>3.0</ele><time>2026-05-02T11:42:16.361Z</time></trkpt><trkpt lat="39.9169517" lon="8.539685"><ele>3.0</ele><time>2026-05-02T11:42:17.361Z</time></trkpt><trkpt lat="39.91684" lon="8.5397867"><ele>3.25</ele><time>2026-05-02T11:42:18.361Z</time></trkpt><trkpt lat="39.916725" lon="8.53988"><ele>3.5</ele><time>2026-05-02T11:42:19.361Z</time></trkpt><trkpt lat="39.9166167" lon="8.5399333"><ele>3.75</ele><time>2026-05-02T11:42:20.361Z</time></trkpt><trkpt lat="39.9165017" lon="8.5400333"><ele>4.0</ele><time>2026-05-02T11:42:21.361Z</time></trkpt><trkpt lat="39.9163833" lon="8.5401083"><ele>4.0</ele><time>2026-05-02T11:42:22.361Z</time></trkpt><trkpt lat="39.9162633" lon="8.5401783"><ele>4.0</ele><time>2026-05-02T11:42:23.361Z</time></trkpt><trkpt lat="39.91615" lon="8.54025"><ele>4.0</ele><time>2026-05-02T11:42:24.361Z</time></trkpt><trkpt lat="39.916035" lon="8.540305"><ele>4.0</ele><time>2026-05-02T11:42:25.361Z</time></trkpt><trkpt lat="39.9159267" lon="8.5403617"><ele>4.0</ele><time>2026-05-02T11:42:26.361Z</time></trkpt><trkpt lat="39.9158183" lon="8.5404117"><ele>4.0</ele><time>2026-05-02T11:42:27.361Z</time></trkpt><trkpt lat="39.9157133" lon="8.5404733"><ele>4.0</ele><time>2026-05-02T11:42:28.361Z</time></trkpt><trkpt lat="39.91561" lon="8.540535"><ele>4.0</ele><time>2026-05-02T11:42:29.361Z</time></trkpt><trkpt lat="39.91551" lon="8.540595"><ele>4.0</ele><time>2026-05-02T11:42:30.361Z</time></trkpt><trkpt lat="39.915415" lon="8.5406517"><ele>4.0</ele><time>2026-05-02T11:42:31.361Z</time></trkpt><trkpt lat="39.91532" lon="8.540705"><ele>4.0</ele><time>2026-05-02T11:42:32.361Z</time></trkpt><trkpt lat="39.91523" lon="8.5407633"><ele>4.0</ele><time>2026-05-02T11:42:33.361Z</time></trkpt><trkpt lat="39.9151367" lon="8.540815"><ele>4.0</ele><time>2026-05-02T11:42:34.361Z</time></trkpt><trkpt lat="39.91504" lon="8.540875"><ele>4.2</ele><time>2026-05-02T11:42:35.361Z</time></trkpt><trkpt lat="39.91495" lon="8.540935"><ele>4.4</ele><time>2026-05-02T11:42:36.361Z</time></trkpt><trkpt lat="39.914865" lon="8.5409933"><ele>4.6</ele><time>2026-05-02T11:42:37.361Z</time></trkpt><trkpt lat="39.9147867" lon="8.5410617"><ele>4.8</ele><time>2026-05-02T11:42:38.361Z</time></trkpt><trkpt lat="39.9147133" lon="8.541125"><ele>5.0</ele><time>2026-05-02T11:42:39.361Z</time></trkpt><trkpt lat="39.91465" lon="8.541195"><ele>5.166666666666667</ele><time>2026-05-02T11:42:40.361Z</time></trkpt><trkpt lat="39.9146017" lon="8.54126"><ele>5.333333333333334</ele><time>2026-05-02T11:42:41.361Z</time></trkpt><trkpt lat="39.9145667" lon="8.541335"><ele>5.5</ele><time>2026-05-02T11:42:42.361Z</time></trkpt><trkpt lat="39.9145383" lon="8.5414117"><ele>5.666666666666667</ele><time>2026-05-02T11:42:43.361Z</time></trkpt><trkpt lat="39.9144783" lon="8.5415467"><ele>5.833333333333333</ele><time>2026-05-02T11:42:45.361Z</time></trkpt><trkpt lat="39.9144333" lon="8.5416533"><ele>6.0</ele><time>2026-05-02T11:42:47.361Z</time></trkpt><trkpt lat="39.9143383" lon="8.5417067"><ele>6.0</ele><time>2026-05-02T11:43:07.361Z</time></trkpt><trkpt lat="39.9142617" lon="8.54175"><ele>6.0</ele><time>2026-05-02T11:43:08.361Z</time></trkpt><trkpt lat="39.9141567" lon="8.5418067"><ele>6.0</ele><time>2026-05-02T11:43:09.361Z</time></trkpt><trkpt lat="39.9140667" lon="8.5418733"><ele>6.0</ele><time>2026-05-02T11:43:10.361Z</time></trkpt><trkpt lat="39.9139983" lon="8.5419767"><ele>6.0</ele><time>2026-05-02T11:43:11.361Z</time></trkpt><trkpt lat="39.9139483" lon="8.5420933"><ele>5.5</ele><time>2026-05-02T11:43:12.361Z</time></trkpt><trkpt lat="39.91391" lon="8.54224"><ele>5.0</ele><time>2026-05-02T11:43:13.361Z</time></trkpt><trkpt lat="39.9138567" lon="8.5423833"><ele>4.5</ele><time>2026-05-02T11:43:14.361Z</time></trkpt><trkpt lat="39.913795" lon="8.54253"><ele>4.0</ele><time>2026-05-02T11:43:15.361Z</time></trkpt><trkpt lat="39.91371" lon="8.5426633"><ele>4.0</ele><time>2026-05-02T11:43:16.361Z</time></trkpt><trkpt lat="39.9136133" lon="8.5428017"><ele>4.0</ele><time>2026-05-02T11:43:17.361Z</time></trkpt><trkpt lat="39.91351" lon="8.54294"><ele>4.0</ele><time>2026-05-02T11:43:18.361Z</time></trkpt><trkpt lat="39.9134017" lon="8.54309"><ele>3.0</ele><time>2026-05-02T11:43:19.361Z</time></trkpt><trkpt lat="39.9132933" lon="8.5432433"><ele>2.0</ele><time>2026-05-02T11:43:20.361Z</time></trkpt><trkpt lat="39.913185" lon="8.5433967"><ele>1.0</ele><time>2026-05-02T11:43:21.361Z</time></trkpt><trkpt lat="39.91308" lon="8.5435483"><ele>1.0</ele><time>2026-05-02T11:43:22.361Z</time></trkpt><trkpt lat="39.9129717" lon="8.543705"><ele>1.0</ele><time>2026-05-02T11:43:23.361Z</time></trkpt><trkpt lat="39.9128517" lon="8.54387"><ele>1.0</ele><time>2026-05-02T11:43:24.361Z</time></trkpt><trkpt lat="39.9127433" lon="8.54404"><ele>1.3333333333333333</ele><time>2026-05-02T11:43:25.361Z</time></trkpt><trkpt lat="39.9126367" lon="8.5442133"><ele>1.6666666666666665</ele><time>2026-05-02T11:43:26.361Z</time></trkpt><trkpt lat="39.9125317" lon="8.544395"><ele>2.0</ele><time>2026-05-02T11:43:27.361Z</time></trkpt><trkpt lat="39.9124417" lon="8.5445867"><ele>2.0</ele><time>2026-05-02T11:43:28.361Z</time></trkpt><trkpt lat="39.912355" lon="8.5447933"><ele>2.0</ele><time>2026-05-02T11:43:29.361Z</time></trkpt><trkpt lat="39.91228" lon="8.5450033"><ele>2.0</ele><time>2026-05-02T11:43:30.361Z</time></trkpt><trkpt lat="39.9122067" lon="8.5452233"><ele>2.0</ele><time>2026-05-02T11:43:31.361Z</time></trkpt><trkpt lat="39.9121433" lon="8.5454483"><ele>2.0</ele><time>2026-05-02T11:43:32.361Z</time></trkpt><trkpt lat="39.9120917" lon="8.5456833"><ele>2.0</ele><time>2026-05-02T11:43:33.361Z</time></trkpt><trkpt lat="39.91205" lon="8.5459083"><ele>2.0</ele><time>2026-05-02T11:43:34.361Z</time></trkpt><trkpt lat="39.91202" lon="8.546135"><ele>2.0</ele><time>2026-05-02T11:43:35.361Z</time></trkpt><trkpt lat="39.9119967" lon="8.5463683"><ele>2.0</ele><time>2026-05-02T11:43:36.361Z</time></trkpt><trkpt lat="39.9119733" lon="8.5465867"><ele>2.333333333333333</ele><time>2026-05-02T11:43:37.361Z</time></trkpt><trkpt lat="39.9119483" lon="8.5468167"><ele>2.6666666666666665</ele><time>2026-05-02T11:43:38.361Z</time></trkpt><trkpt lat="39.911925" lon="8.547045"><ele>3.0</ele><time>2026-05-02T11:43:39.361Z</time></trkpt><trkpt lat="39.911895" lon="8.54728"><ele>3.0</ele><time>2026-05-02T11:43:40.361Z</time></trkpt><trkpt lat="39.9118717" lon="8.5475133"><ele>3.0</ele><time>2026-05-02T11:43:41.361Z</time></trkpt><trkpt lat="39.9118467" lon="8.5477583"><ele>3.0</ele><time>2026-05-02T11:43:42.361Z</time></trkpt><trkpt lat="39.9118167" lon="8.548015"><ele>3.0</ele><time>2026-05-02T11:43:43.361Z</time></trkpt><trkpt lat="39.9117883" lon="8.5482667"><ele>3.0</ele><time>2026-05-02T11:43:44.361Z</time></trkpt><trkpt lat="39.9117633" lon="8.5485283"><ele>3.0</ele><time>2026-05-02T11:43:45.361Z</time></trkpt><trkpt lat="39.9117367" lon="8.5487917"><ele>3.0</ele><time>2026-05-02T11:43:46.361Z</time></trkpt><trkpt lat="39.9117067" lon="8.54906"><ele>3.0</ele><time>2026-05-02T11:43:47.361Z</time></trkpt><trkpt lat="39.911675" lon="8.549335"><ele>3.0</ele><time>2026-05-02T11:43:48.361Z</time></trkpt><trkpt lat="39.9116533" lon="8.549605"><ele>3.0</ele><time>2026-05-02T11:43:49.361Z</time></trkpt><trkpt lat="39.91162" lon="8.549875"><ele>3.0</ele><time>2026-05-02T11:43:50.361Z</time></trkpt><trkpt lat="39.9116033" lon="8.55015"><ele>3.0</ele><time>2026-05-02T11:43:51.361Z</time></trkpt><trkpt lat="39.911585" lon="8.5504117"><ele>3.0</ele><time>2026-05-02T11:43:52.361Z</time></trkpt><trkpt lat="39.9115633" lon="8.5506783"><ele>3.0</ele><time>2026-05-02T11:43:53.361Z</time></trkpt><trkpt lat="39.9115317" lon="8.5509417"><ele>3.0</ele><time>2026-05-02T11:43:54.361Z</time></trkpt><trkpt lat="39.9115017" lon="8.5512067"><ele>3.0</ele><time>2026-05-02T11:43:55.361Z</time></trkpt><trkpt lat="39.9114833" lon="8.551465"><ele>3.0</ele><time>2026-05-02T11:43:56.361Z</time></trkpt><trkpt lat="39.91147" lon="8.5517233"><ele>3.0</ele><time>2026-05-02T11:43:57.361Z</time></trkpt><trkpt lat="39.911435" lon="8.5519883"><ele>3.0</ele><time>2026-05-02T11:43:58.361Z</time></trkpt><trkpt lat="39.91141" lon="8.5522483"><ele>3.0</ele><time>2026-05-02T11:43:59.361Z</time></trkpt><trkpt lat="39.9113917" lon="8.5525083"><ele>3.0</ele><time>2026-05-02T11:44:00.361Z</time></trkpt><trkpt lat="39.9113767" lon="8.5527683"><ele>2.6666666666666665</ele><time>2026-05-02T11:44:01.361Z</time></trkpt><trkpt lat="39.9113533" lon="8.55304"><ele>2.333333333333333</ele><time>2026-05-02T11:44:02.361Z</time></trkpt><trkpt lat="39.9113283" lon="8.5533117"><ele>2.0</ele><time>2026-05-02T11:44:03.361Z</time></trkpt><trkpt lat="39.9113083" lon="8.5535583"><ele>2.0</ele><time>2026-05-02T11:44:04.361Z</time></trkpt><trkpt lat="39.9112767" lon="8.553835"><ele>2.0</ele><time>2026-05-02T11:44:05.361Z</time></trkpt><trkpt lat="39.911255" lon="8.5541"><ele>2.0</ele><time>2026-05-02T11:44:06.361Z</time></trkpt><trkpt lat="39.9112267" lon="8.5543717"><ele>2.333333333333333</ele><time>2026-05-02T11:44:07.361Z</time></trkpt><trkpt lat="39.911205" lon="8.5546233"><ele>2.6666666666666665</ele><time>2026-05-02T11:44:08.361Z</time></trkpt><trkpt lat="39.9111817" lon="8.5548833"><ele>3.0</ele><time>2026-05-02T11:44:09.361Z</time></trkpt><trkpt lat="39.9111533" lon="8.5551467"><ele>2.6666666666666665</ele><time>2026-05-02T11:44:10.361Z</time></trkpt><trkpt lat="39.9111333" lon="8.5554017"><ele>2.333333333333333</ele><time>2026-05-02T11:44:11.361Z</time></trkpt><trkpt lat="39.9111083" lon="8.5556667"><ele>2.0</ele><time>2026-05-02T11:44:12.361Z</time></trkpt><trkpt lat="39.911075" lon="8.5559183"><ele>2.0</ele><time>2026-05-02T11:44:13.361Z</time></trkpt><trkpt lat="39.9110433" lon="8.5561833"><ele>2.0</ele><time>2026-05-02T11:44:14.361Z</time></trkpt><trkpt lat="39.9110267" lon="8.55644"><ele>2.0</ele><time>2026-05-02T11:44:15.361Z</time></trkpt><trkpt lat="39.91101" lon="8.5566617"><ele>2.0</ele><time>2026-05-02T11:44:16.361Z</time></trkpt><trkpt lat="39.9109933" lon="8.5568683"><ele>2.0</ele><time>2026-05-02T11:44:17.361Z</time></trkpt><trkpt lat="39.9109783" lon="8.557055"><ele>2.0</ele><time>2026-05-02T11:44:18.361Z</time></trkpt><trkpt lat="39.9109617" lon="8.5572317"><ele>2.0</ele><time>2026-05-02T11:44:19.361Z</time></trkpt><trkpt lat="39.9109533" lon="8.5573783"><ele>2.2</ele><time>2026-05-02T11:44:20.361Z</time></trkpt><trkpt lat="39.910935" lon="8.5575"><ele>2.4000000000000004</ele><time>2026-05-02T11:44:21.361Z</time></trkpt><trkpt lat="39.9109033" lon="8.557615"><ele>2.5999999999999996</ele><time>2026-05-02T11:44:22.361Z</time></trkpt><trkpt lat="39.9108533" lon="8.5576983"><ele>2.8</ele><time>2026-05-02T11:44:23.361Z</time></trkpt><trkpt lat="39.91078" lon="8.5577667"><ele>3.0</ele><time>2026-05-02T11:44:24.361Z</time></trkpt><trkpt lat="39.91069" lon="8.5577983"><ele>3.1666666666666665</ele><time>2026-05-02T11:44:25.361Z</time></trkpt><trkpt lat="39.9106017" lon="8.557805"><ele>3.333333333333333</ele><time>2026-05-02T11:44:26.361Z</time></trkpt><trkpt lat="39.9105383" lon="8.5577883"><ele>3.5</ele><time>2026-05-02T11:44:27.361Z</time></trkpt><trkpt lat="39.9104867" lon="8.557695"><ele>3.6666666666666665</ele><time>2026-05-02T11:44:30.361Z</time></trkpt><trkpt lat="39.91044" lon="8.55762"><ele>3.833333333333333</ele><time>2026-05-02T11:44:33.361Z</time></trkpt><trkpt lat="39.9104083" lon="8.557715"><ele>4.0</ele><time>2026-05-02T11:46:33.361Z</time></trkpt><trkpt lat="39.9104717" lon="8.5578117"><ele>3.6</ele><time>2026-05-02T11:46:35.361Z</time></trkpt><trkpt lat="39.91054" lon="8.5579217"><ele>3.2</ele><time>2026-05-02T11:46:37.361Z</time></trkpt><trkpt lat="39.9105783" lon="8.5580733"><ele>2.8000000000000003</ele><time>2026-05-02T11:46:39.361Z</time></trkpt><trkpt lat="39.9105867" lon="8.5581667"><ele>2.4000000000000004</ele><time>2026-05-02T11:46:40.361Z</time></trkpt><trkpt lat="39.9106" lon="8.55826"><ele>2.0</ele><time>2026-05-02T11:46:41.361Z</time></trkpt><trkpt lat="39.9106217" lon="8.5583617"><ele>2.0</ele><time>2026-05-02T11:46:42.361Z</time></trkpt><trkpt lat="39.9106567" lon="8.5584633"><ele>2.0</ele><time>2026-05-02T11:46:43.361Z</time></trkpt><trkpt lat="39.9106933" lon="8.5585633"><ele>2.0</ele><time>2026-05-02T11:46:44.361Z</time></trkpt><trkpt lat="39.9107233" lon="8.5586817"><ele>2.0</ele><time>2026-05-02T11:46:45.361Z</time></trkpt><trkpt lat="39.91073" lon="8.558805"><ele>2.0</ele><time>2026-05-02T11:46:46.361Z</time></trkpt><trkpt lat="39.910715" lon="8.5589317"><ele>2.2</ele><time>2026-05-02T11:46:47.361Z</time></trkpt><trkpt lat="39.91069" lon="8.5590717"><ele>2.4000000000000004</ele><time>2026-05-02T11:46:48.361Z</time></trkpt><trkpt lat="39.9106667" lon="8.559215"><ele>2.5999999999999996</ele><time>2026-05-02T11:46:49.361Z</time></trkpt><trkpt lat="39.910635" lon="8.55935"><ele>2.8</ele><time>2026-05-02T11:46:50.361Z</time></trkpt><trkpt lat="39.9106017" lon="8.55949"><ele>3.0</ele><time>2026-05-02T11:46:51.361Z</time></trkpt><trkpt lat="39.910555" lon="8.5596483"><ele>3.4</ele><time>2026-05-02T11:46:52.361Z</time></trkpt><trkpt lat="39.910515" lon="8.559795"><ele>3.8</ele><time>2026-05-02T11:46:53.361Z</time></trkpt><trkpt lat="39.9104717" lon="8.5599283"><ele>4.2</ele><time>2026-05-02T11:46:54.361Z</time></trkpt><trkpt lat="39.9104333" lon="8.5600533"><ele>4.6</ele><time>2026-05-02T11:46:55.361Z</time></trkpt><trkpt lat="39.910395" lon="8.56017"><ele>5.0</ele><time>2026-05-02T11:46:56.361Z</time></trkpt><trkpt lat="39.91036" lon="8.5602833"><ele>4.8</ele><time>2026-05-02T11:46:57.361Z</time></trkpt><trkpt lat="39.9103317" lon="8.5604033"><ele>4.6</ele><time>2026-05-02T11:46:58.361Z</time></trkpt><trkpt lat="39.9102917" lon="8.5605283"><ele>4.4</ele><time>2026-05-02T11:46:59.361Z</time></trkpt><trkpt lat="39.9102417" lon="8.560655"><ele>4.2</ele><time>2026-05-02T11:47:00.361Z</time></trkpt><trkpt lat="39.910195" lon="8.5607883"><ele>4.0</ele><time>2026-05-02T11:47:01.361Z</time></trkpt><trkpt lat="39.9101517" lon="8.560915"><ele>4.0</ele><time>2026-05-02T11:47:02.361Z</time></trkpt><trkpt lat="39.9101083" lon="8.5610333"><ele>4.0</ele><time>2026-05-02T11:47:03.361Z</time></trkpt><trkpt lat="39.9100583" lon="8.5611583"><ele>4.0</ele><time>2026-05-02T11:47:04.361Z</time></trkpt><trkpt lat="39.910015" lon="8.561265"><ele>4.0</ele><time>2026-05-02T11:47:05.361Z</time></trkpt><trkpt lat="39.909985" lon="8.56136"><ele>4.0</ele><time>2026-05-02T11:47:06.361Z</time></trkpt><trkpt lat="39.9099483" lon="8.5614667"><ele>4.166666666666666</ele><time>2026-05-02T11:47:07.361Z</time></trkpt><trkpt lat="39.9099117" lon="8.561585"><ele>4.333333333333333</ele><time>2026-05-02T11:47:08.361Z</time></trkpt><trkpt lat="39.9098667" lon="8.5617017"><ele>4.5</ele><time>2026-05-02T11:47:09.361Z</time></trkpt><trkpt lat="39.9098283" lon="8.561815"><ele>4.666666666666667</ele><time>2026-05-02T11:47:10.361Z</time></trkpt><trkpt lat="39.9097967" lon="8.5619183"><ele>4.833333333333334</ele><time>2026-05-02T11:47:11.361Z</time></trkpt><trkpt lat="39.9097683" lon="8.5620017"><ele>5.0</ele><time>2026-05-02T11:47:12.361Z</time></trkpt><trkpt lat="39.9097283" lon="8.5621333"><ele>5.0</ele><time>2026-05-02T11:47:14.361Z</time></trkpt><trkpt lat="39.9096933" lon="8.5622367"><ele>5.0</ele><time>2026-05-02T11:48:33.361Z</time></trkpt><trkpt lat="39.9096483" lon="8.5624217"><ele>5.0</ele><time>2026-05-02T11:48:35.361Z</time></trkpt><trkpt lat="39.9095917" lon="8.5625683"><ele>5.0</ele><time>2026-05-02T11:48:36.361Z</time></trkpt><trkpt lat="39.9095367" lon="8.5627467"><ele>5.0</ele><time>2026-05-02T11:48:37.361Z</time></trkpt><trkpt lat="39.9094667" lon="8.562945"><ele>5.0</ele><time>2026-05-02T11:48:38.361Z</time></trkpt><trkpt lat="39.9093967" lon="8.56315"><ele>5.0</ele><time>2026-05-02T11:48:39.361Z</time></trkpt><trkpt lat="39.9093233" lon="8.56336"><ele>5.0</ele><time>2026-05-02T11:48:40.361Z</time></trkpt><trkpt lat="39.9092667" lon="8.56356"><ele>5.0</ele><time>2026-05-02T11:48:41.361Z</time></trkpt><trkpt lat="39.909195" lon="8.5637417"><ele>5.0</ele><time>2026-05-02T11:48:42.361Z</time></trkpt><trkpt lat="39.9091367" lon="8.563925"><ele>4.333333333333334</ele><time>2026-05-02T11:48:43.361Z</time></trkpt><trkpt lat="39.9090683" lon="8.564105"><ele>3.666666666666667</ele><time>2026-05-02T11:48:44.361Z</time></trkpt><trkpt lat="39.9090133" lon="8.5642933"><ele>3.0</ele><time>2026-05-02T11:48:45.361Z</time></trkpt><trkpt lat="39.9089467" lon="8.5644833"><ele>3.0</ele><time>2026-05-02T11:48:46.361Z</time></trkpt><trkpt lat="39.9088917" lon="8.5646633"><ele>3.0</ele><time>2026-05-02T11:48:47.361Z</time></trkpt><trkpt lat="39.90883" lon="8.5648417"><ele>3.0</ele><time>2026-05-02T11:48:48.361Z</time></trkpt><trkpt lat="39.9087733" lon="8.565015"><ele>3.0</ele><time>2026-05-02T11:48:49.361Z</time></trkpt><trkpt lat="39.908715" lon="8.5652017"><ele>3.0</ele><time>2026-05-02T11:48:50.361Z</time></trkpt><trkpt lat="39.9086517" lon="8.5653833"><ele>3.0</ele><time>2026-05-02T11:48:51.361Z</time></trkpt><trkpt lat="39.9085967" lon="8.565555"><ele>3.0</ele><time>2026-05-02T11:48:52.361Z</time></trkpt><trkpt lat="39.9085483" lon="8.5657217"><ele>3.0</ele><time>2026-05-02T11:48:53.361Z</time></trkpt><trkpt lat="39.9084917" lon="8.565875"><ele>3.0</ele><time>2026-05-02T11:48:54.361Z</time></trkpt><trkpt lat="39.908435" lon="8.5660317"><ele>3.0</ele><time>2026-05-02T11:48:55.361Z</time></trkpt><trkpt lat="39.9083883" lon="8.5661867"><ele>3.0</ele><time>2026-05-02T11:48:56.361Z</time></trkpt><trkpt lat="39.9083433" lon="8.5663417"><ele>3.0</ele><time>2026-05-02T11:48:57.361Z</time></trkpt><trkpt lat="39.9082917" lon="8.5665067"><ele>3.333333333333333</ele><time>2026-05-02T11:48:58.361Z</time></trkpt><trkpt lat="39.9082417" lon="8.5666783"><ele>3.6666666666666665</ele><time>2026-05-02T11:48:59.361Z</time></trkpt><trkpt lat="39.9081917" lon="8.5668617"><ele>4.0</ele><time>2026-05-02T11:49:00.361Z</time></trkpt><trkpt lat="39.9081417" lon="8.56706"><ele>4.0</ele><time>2026-05-02T11:49:01.361Z</time></trkpt><trkpt lat="39.9081" lon="8.5672667"><ele>4.0</ele><time>2026-05-02T11:49:02.361Z</time></trkpt><trkpt lat="39.90805" lon="8.56748"><ele>4.0</ele><time>2026-05-02T11:49:03.361Z</time></trkpt><trkpt lat="39.9080067" lon="8.5677"><ele>4.0</ele><time>2026-05-02T11:49:04.361Z</time></trkpt><trkpt lat="39.90797" lon="8.56793"><ele>4.0</ele><time>2026-05-02T11:49:05.362Z</time></trkpt><trkpt lat="39.907935" lon="8.5681617"><ele>4.0</ele><time>2026-05-02T11:49:06.361Z</time></trkpt><trkpt lat="39.9078983" lon="8.5683983"><ele>4.0</ele><time>2026-05-02T11:49:07.361Z</time></trkpt><trkpt lat="39.9078583" lon="8.5686233"><ele>4.0</ele><time>2026-05-02T11:49:08.361Z</time></trkpt><trkpt lat="39.9078267" lon="8.5688367"><ele>4.0</ele><time>2026-05-02T11:49:09.361Z</time></trkpt><trkpt lat="39.90779" lon="8.56904"><ele>4.0</ele><time>2026-05-02T11:49:10.361Z</time></trkpt><trkpt lat="39.9077633" lon="8.5692417"><ele>4.0</ele><time>2026-05-02T11:49:11.361Z</time></trkpt><trkpt lat="39.9077333" lon="8.5694533"><ele>4.0</ele><time>2026-05-02T11:49:12.361Z</time></trkpt><trkpt lat="39.9077017" lon="8.56966"><ele>4.0</ele><time>2026-05-02T11:49:13.361Z</time></trkpt><trkpt lat="39.9076667" lon="8.56987"><ele>4.0</ele><time>2026-05-02T11:49:14.361Z</time></trkpt><trkpt lat="39.9076333" lon="8.57009"><ele>4.0</ele><time>2026-05-02T11:49:15.361Z</time></trkpt><trkpt lat="39.9076033" lon="8.5703"><ele>3.6666666666666665</ele><time>2026-05-02T11:49:16.361Z</time></trkpt><trkpt lat="39.9075667" lon="8.5705233"><ele>3.333333333333333</ele><time>2026-05-02T11:49:17.361Z</time></trkpt><trkpt lat="39.9075317" lon="8.5707567"><ele>3.0</ele><time>2026-05-02T11:49:18.361Z</time></trkpt><trkpt lat="39.9075033" lon="8.5709833"><ele>3.0</ele><time>2026-05-02T11:49:19.361Z</time></trkpt><trkpt lat="39.9074667" lon="8.57121"><ele>3.0</ele><time>2026-05-02T11:49:20.361Z</time></trkpt><trkpt lat="39.90744" lon="8.57144"><ele>3.0</ele><time>2026-05-02T11:49:21.361Z</time></trkpt><trkpt lat="39.907405" lon="8.5716733"><ele>3.0</ele><time>2026-05-02T11:49:22.361Z</time></trkpt><trkpt lat="39.9073717" lon="8.5719067"><ele>3.0</ele><time>2026-05-02T11:49:23.361Z</time></trkpt><trkpt lat="39.90734" lon="8.5721367"><ele>3.0</ele><time>2026-05-02T11:49:24.361Z</time></trkpt><trkpt lat="39.90731" lon="8.5723633"><ele>3.0</ele><time>2026-05-02T11:49:25.361Z</time></trkpt><trkpt lat="39.90727" lon="8.5725867"><ele>3.0</ele><time>2026-05-02T11:49:26.361Z</time></trkpt><trkpt lat="39.90723" lon="8.5728017"><ele>3.0</ele><time>2026-05-02T11:49:27.361Z</time></trkpt><trkpt lat="39.90719" lon="8.57303"><ele>3.0</ele><time>2026-05-02T11:49:28.361Z</time></trkpt><trkpt lat="39.9071483" lon="8.5732583"><ele>3.0</ele><time>2026-05-02T11:49:29.361Z</time></trkpt><trkpt lat="39.907095" lon="8.5734817"><ele>3.0</ele><time>2026-05-02T11:49:30.361Z</time></trkpt><trkpt lat="39.9070433" lon="8.573715"><ele>2.6666666666666665</ele><time>2026-05-02T11:49:31.361Z</time></trkpt><trkpt lat="39.907" lon="8.5739583"><ele>2.333333333333333</ele><time>2026-05-02T11:49:32.361Z</time></trkpt><trkpt lat="39.9069633" lon="8.5741883"><ele>2.0</ele><time>2026-05-02T11:49:33.361Z</time></trkpt><trkpt lat="39.9069133" lon="8.5744017"><ele>1.6666666666666665</ele><time>2026-05-02T11:49:34.361Z</time></trkpt><trkpt lat="39.9068733" lon="8.5746283"><ele>1.3333333333333333</ele><time>2026-05-02T11:49:35.361Z</time></trkpt><trkpt lat="39.9068283" lon="8.5748383"><ele>1.0</ele><time>2026-05-02T11:49:36.361Z</time></trkpt><trkpt lat="39.90678" lon="8.5750467"><ele>1.6666666666666665</ele><time>2026-05-02T11:49:37.361Z</time></trkpt><trkpt lat="39.9067333" lon="8.575255"><ele>2.3333333333333335</ele><time>2026-05-02T11:49:38.361Z</time></trkpt><trkpt lat="39.9066867" lon="8.575455"><ele>3.0</ele><time>2026-05-02T11:49:39.361Z</time></trkpt><trkpt lat="39.906645" lon="8.5756483"><ele>3.0</ele><time>2026-05-02T11:49:40.361Z</time></trkpt><trkpt lat="39.906605" lon="8.5758383"><ele>3.0</ele><time>2026-05-02T11:49:41.361Z</time></trkpt><trkpt lat="39.9065683" lon="8.5760317"><ele>3.0</ele><time>2026-05-02T11:49:42.361Z</time></trkpt><trkpt lat="39.9065317" lon="8.5762417"><ele>3.333333333333333</ele><time>2026-05-02T11:49:43.361Z</time></trkpt><trkpt lat="39.9065" lon="8.5764517"><ele>3.6666666666666665</ele><time>2026-05-02T11:49:44.361Z</time></trkpt><trkpt lat="39.906465" lon="8.5766667"><ele>4.0</ele><time>2026-05-02T11:49:45.361Z</time></trkpt><trkpt lat="39.9064317" lon="8.5768883"><ele>4.333333333333333</ele><time>2026-05-02T11:49:46.361Z</time></trkpt><trkpt lat="39.9064133" lon="8.5771083"><ele>4.666666666666667</ele><time>2026-05-02T11:49:47.361Z</time></trkpt><trkpt lat="39.9063933" lon="8.5773317"><ele>5.0</ele><time>2026-05-02T11:49:48.361Z</time></trkpt><trkpt lat="39.9063667" lon="8.577535"><ele>5.0</ele><time>2026-05-02T11:49:49.361Z</time></trkpt><trkpt lat="39.9063433" lon="8.5777333"><ele>5.0</ele><time>2026-05-02T11:49:50.361Z</time></trkpt><trkpt lat="39.9063217" lon="8.5779483"><ele>5.0</ele><time>2026-05-02T11:49:51.361Z</time></trkpt><trkpt lat="39.9063133" lon="8.5781683"><ele>5.0</ele><time>2026-05-02T11:49:52.361Z</time></trkpt><trkpt lat="39.906295" lon="8.57839"><ele>5.0</ele><time>2026-05-02T11:49:53.361Z</time></trkpt><trkpt lat="39.906285" lon="8.5786067"><ele>5.0</ele><time>2026-05-02T11:49:54.361Z</time></trkpt><trkpt lat="39.9062783" lon="8.5788033"><ele>4.75</ele><time>2026-05-02T11:49:55.361Z</time></trkpt><trkpt lat="39.9062767" lon="8.57899"><ele>4.5</ele><time>2026-05-02T11:49:56.361Z</time></trkpt><trkpt lat="39.9062667" lon="8.57919"><ele>4.25</ele><time>2026-05-02T11:49:57.361Z</time></trkpt><trkpt lat="39.9062533" lon="8.579385"><ele>4.0</ele><time>2026-05-02T11:49:58.361Z</time></trkpt><trkpt lat="39.9062417" lon="8.579565"><ele>4.0</ele><time>2026-05-02T11:49:59.361Z</time></trkpt><trkpt lat="39.9062317" lon="8.5797333"><ele>4.0</ele><time>2026-05-02T11:50:00.361Z</time></trkpt><trkpt lat="39.90622" lon="8.5798867"><ele>4.0</ele><time>2026-05-02T11:50:01.361Z</time></trkpt><trkpt lat="39.90622" lon="8.5800167"><ele>4.0</ele><time>2026-05-02T11:50:02.361Z</time></trkpt><trkpt lat="39.9062133" lon="8.5801317"><ele>4.0</ele><time>2026-05-02T11:50:03.361Z</time></trkpt><trkpt lat="39.9062033" lon="8.58024"><ele>4.2</ele><time>2026-05-02T11:50:04.361Z</time></trkpt><trkpt lat="39.9061783" lon="8.580355"><ele>4.4</ele><time>2026-05-02T11:50:05.361Z</time></trkpt><trkpt lat="39.90616" lon="8.5804783"><ele>4.6</ele><time>2026-05-02T11:50:06.361Z</time></trkpt><trkpt lat="39.906165" lon="8.5806183"><ele>4.8</ele><time>2026-05-02T11:50:07.361Z</time></trkpt><trkpt lat="39.906175" lon="8.580755"><ele>5.0</ele><time>2026-05-02T11:50:08.361Z</time></trkpt><trkpt lat="39.906185" lon="8.5809033"><ele>5.0</ele><time>2026-05-02T11:50:09.361Z</time></trkpt><trkpt lat="39.90618" lon="8.5810717"><ele>5.0</ele><time>2026-05-02T11:50:10.361Z</time></trkpt><trkpt lat="39.9061733" lon="8.58123"><ele>5.0</ele><time>2026-05-02T11:50:11.361Z</time></trkpt><trkpt lat="39.9061717" lon="8.5813933"><ele>5.0</ele><time>2026-05-02T11:50:12.361Z</time></trkpt><trkpt lat="39.9061667" lon="8.581545"><ele>5.0</ele><time>2026-05-02T11:50:13.361Z</time></trkpt><trkpt lat="39.9061667" lon="8.5817033"><ele>5.0</ele><time>2026-05-02T11:50:14.361Z</time></trkpt><trkpt lat="39.9061567" lon="8.58184"><ele>5.0</ele><time>2026-05-02T11:50:15.361Z</time></trkpt><trkpt lat="39.906145" lon="8.5819467"><ele>5.0</ele><time>2026-05-02T11:50:16.361Z</time></trkpt><trkpt lat="39.9061233" lon="8.5820467"><ele>5.0</ele><time>2026-05-02T11:50:17.361Z</time></trkpt><trkpt lat="39.9061317" lon="8.5821983"><ele>5.25</ele><time>2026-05-02T11:50:19.361Z</time></trkpt><trkpt lat="39.9062017" lon="8.5822967"><ele>5.5</ele><time>2026-05-02T11:50:21.361Z</time></trkpt><trkpt lat="39.90634" lon="8.582325"><ele>5.75</ele><time>2026-05-02T11:50:23.361Z</time></trkpt><trkpt lat="39.9064383" lon="8.5823067"><ele>6.0</ele><time>2026-05-02T11:50:24.361Z</time></trkpt><trkpt lat="39.9065467" lon="8.58231"><ele>6.0</ele><time>2026-05-02T11:50:25.361Z</time></trkpt><trkpt lat="39.9066433" lon="8.5823133"><ele>6.0</ele><time>2026-05-02T11:50:26.361Z</time></trkpt><trkpt lat="39.9067283" lon="8.5823267"><ele>6.0</ele><time>2026-05-02T11:50:27.361Z</time></trkpt><trkpt lat="39.9068067" lon="8.5823233"><ele>6.0</ele><time>2026-05-02T11:50:28.361Z</time></trkpt><trkpt lat="39.9068733" lon="8.5823417"><ele>6.0</ele><time>2026-05-02T11:50:29.361Z</time></trkpt><trkpt lat="39.9069717" lon="8.5823867"><ele>6.0</ele><time>2026-05-02T11:50:31.361Z</time></trkpt><trkpt lat="39.907005" lon="8.582515"><ele>5.8</ele><time>2026-05-02T11:50:33.361Z</time></trkpt><trkpt lat="39.9070133" lon="8.5826267"><ele>5.6</ele><time>2026-05-02T11:50:34.361Z</time></trkpt><trkpt lat="39.9070017" lon="8.58276"><ele>5.4</ele><time>2026-05-02T11:50:35.361Z</time></trkpt><trkpt lat="39.9069883" lon="8.58291"><ele>5.2</ele><time>2026-05-02T11:50:36.361Z</time></trkpt><trkpt lat="39.9069683" lon="8.5830583"><ele>5.0</ele><time>2026-05-02T11:50:37.361Z</time></trkpt><trkpt lat="39.90696" lon="8.58321"><ele>5.2</ele><time>2026-05-02T11:50:38.361Z</time></trkpt><trkpt lat="39.9069433" lon="8.58336"><ele>5.4</ele><time>2026-05-02T11:50:39.361Z</time></trkpt><trkpt lat="39.906915" lon="8.5835017"><ele>5.6</ele><time>2026-05-02T11:50:40.361Z</time></trkpt><trkpt lat="39.90689" lon="8.583635"><ele>5.8</ele><time>2026-05-02T11:50:41.361Z</time></trkpt><trkpt lat="39.906875" lon="8.58375"><ele>6.0</ele><time>2026-05-02T11:50:42.361Z</time></trkpt><trkpt lat="39.9068617" lon="8.583845"><ele>6.0</ele><time>2026-05-02T11:50:43.361Z</time></trkpt><trkpt lat="39.9068617" lon="8.5839283"><ele>6.0</ele><time>2026-05-02T11:50:44.361Z</time></trkpt><trkpt lat="39.906905" lon="8.5840433"><ele>6.0</ele><time>2026-05-02T11:50:46.361Z</time></trkpt><trkpt lat="39.9070167" lon="8.5841"><ele>6.0</ele><time>2026-05-02T11:50:48.361Z</time></trkpt><trkpt lat="39.9071" lon="8.584115"><ele>6.0</ele><time>2026-05-02T11:50:49.361Z</time></trkpt><trkpt lat="39.9072083" lon="8.5841133"><ele>6.0</ele><time>2026-05-02T11:50:50.361Z</time></trkpt><trkpt lat="39.90733" lon="8.5841167"><ele>6.0</ele><time>2026-05-02T11:50:51.361Z</time></trkpt><trkpt lat="39.9074517" lon="8.5841267"><ele>6.0</ele><time>2026-05-02T11:50:52.361Z</time></trkpt><trkpt lat="39.9075617" lon="8.5841383"><ele>6.0</ele><time>2026-05-02T11:50:53.361Z</time></trkpt><trkpt lat="39.90765" lon="8.584135"><ele>6.0</ele><time>2026-05-02T11:50:54.361Z</time></trkpt><trkpt lat="39.90772" lon="8.5841483"><ele>6.0</ele><time>2026-05-02T11:50:55.361Z</time></trkpt><trkpt lat="39.9078333" lon="8.5841917"><ele>6.0</ele><time>2026-05-02T11:50:57.361Z</time></trkpt><trkpt lat="39.9078817" lon="8.5842817"><ele>6.0</ele><time>2026-05-02T11:50:59.361Z</time></trkpt><trkpt lat="39.9078367" lon="8.5844567"><ele>6.0</ele><time>2026-05-02T11:51:01.361Z</time></trkpt><trkpt lat="39.9077717" lon="8.58456"><ele>6.0</ele><time>2026-05-02T11:51:02.361Z</time></trkpt><trkpt lat="39.90769" lon="8.58468"><ele>6.0</ele><time>2026-05-02T11:51:03.361Z</time></trkpt><trkpt lat="39.9076067" lon="8.5848"><ele>6.0</ele><time>2026-05-02T11:51:04.361Z</time></trkpt><trkpt lat="39.9075283" lon="8.5849167"><ele>6.0</ele><time>2026-05-02T11:51:05.361Z</time></trkpt><trkpt lat="39.90744" lon="8.58503"><ele>6.0</ele><time>2026-05-02T11:51:06.361Z</time></trkpt><trkpt lat="39.9073583" lon="8.585135"><ele>5.8</ele><time>2026-05-02T11:51:07.361Z</time></trkpt><trkpt lat="39.90728" lon="8.5852483"><ele>5.6</ele><time>2026-05-02T11:51:08.361Z</time></trkpt><trkpt lat="39.90721" lon="8.585355"><ele>5.4</ele><time>2026-05-02T11:51:09.361Z</time></trkpt><trkpt lat="39.9071517" lon="8.5854633"><ele>5.2</ele><time>2026-05-02T11:51:10.361Z</time></trkpt><trkpt lat="39.9070817" lon="8.5855733"><ele>5.0</ele><time>2026-05-02T11:51:11.361Z</time></trkpt><trkpt lat="39.9070083" lon="8.585685"><ele>5.0</ele><time>2026-05-02T11:51:12.361Z</time></trkpt><trkpt lat="39.9069333" lon="8.5858"><ele>5.0</ele><time>2026-05-02T11:51:13.361Z</time></trkpt><trkpt lat="39.9068583" lon="8.5859217"><ele>5.0</ele><time>2026-05-02T11:51:14.361Z</time></trkpt><trkpt lat="39.9067933" lon="8.5860283"><ele>5.0</ele><time>2026-05-02T11:51:15.361Z</time></trkpt><trkpt lat="39.9067217" lon="8.5861367"><ele>5.5</ele><time>2026-05-02T11:51:16.361Z</time></trkpt><trkpt lat="39.906665" lon="8.5862417"><ele>6.0</ele><time>2026-05-02T11:51:17.361Z</time></trkpt><trkpt lat="39.9066133" lon="8.5863417"><ele>6.5</ele><time>2026-05-02T11:51:18.361Z</time></trkpt><trkpt lat="39.9065617" lon="8.586445"><ele>7.0</ele><time>2026-05-02T11:51:19.361Z</time></trkpt><trkpt lat="39.9065333" lon="8.586535"><ele>7.499999999999999</ele><time>2026-05-02T11:51:20.361Z</time></trkpt><trkpt lat="39.90651" lon="8.5866133"><ele>8.0</ele><time>2026-05-02T11:51:21.361Z</time></trkpt><trkpt lat="39.9064683" lon="8.5867267"><ele>7.999999999999999</ele><time>2026-05-02T11:51:23.361Z</time></trkpt><trkpt lat="39.906425" lon="8.5868083"><ele>8.0</ele><time>2026-05-02T11:51:26.361Z</time></trkpt><trkpt lat="39.9064633" lon="8.5869483"><ele>8.0</ele><time>2026-05-02T11:51:56.361Z</time></trkpt><trkpt lat="39.9065033" lon="8.5870167"><ele>8.0</ele><time>2026-05-02T11:51:57.361Z</time></trkpt><trkpt lat="39.90657" lon="8.5870867"><ele>7.999999999999999</ele><time>2026-05-02T11:51:58.361Z</time></trkpt><trkpt lat="39.906645" lon="8.5871533"><ele>8.0</ele><time>2026-05-02T11:51:59.361Z</time></trkpt><trkpt lat="39.9067217" lon="8.587215"><ele>7.800000000000001</ele><time>2026-05-02T11:52:00.36Z</time></trkpt><trkpt lat="39.9068133" lon="8.58728"><ele>7.6000000000000005</ele><time>2026-05-02T11:52:01.36Z</time></trkpt><trkpt lat="39.9069117" lon="8.5873483"><ele>7.3999999999999995</ele><time>2026-05-02T11:52:02.36Z</time></trkpt><trkpt lat="39.9070083" lon="8.5874"><ele>7.199999999999999</ele><time>2026-05-02T11:52:03.36Z</time></trkpt><trkpt lat="39.9070917" lon="8.58746"><ele>7.0</ele><time>2026-05-02T11:52:04.36Z</time></trkpt><trkpt lat="39.9071933" lon="8.5875183"><ele>7.0</ele><time>2026-05-02T11:52:05.36Z</time></trkpt><trkpt lat="39.9072817" lon="8.5875733"><ele>6.999999999999999</ele><time>2026-05-02T11:52:06.36Z</time></trkpt><trkpt lat="39.907365" lon="8.587635"><ele>6.999999999999999</ele><time>2026-05-02T11:52:07.36Z</time></trkpt><trkpt lat="39.9074417" lon="8.5877083"><ele>7.0</ele><time>2026-05-02T11:52:08.36Z</time></trkpt><trkpt lat="39.9075167" lon="8.587755"><ele>7.0</ele><time>2026-05-02T11:52:09.36Z</time></trkpt><trkpt lat="39.907595" lon="8.587805"><ele>7.0</ele><time>2026-05-02T11:52:10.36Z</time></trkpt><trkpt lat="39.9076733" lon="8.5878683"><ele>6.999999999999999</ele><time>2026-05-02T11:52:11.36Z</time></trkpt><trkpt lat="39.907755" lon="8.587935"><ele>6.999999999999999</ele><time>2026-05-02T11:52:12.36Z</time></trkpt><trkpt lat="39.9078167" lon="8.5880267"><ele>7.0</ele><time>2026-05-02T11:52:13.36Z</time></trkpt><trkpt lat="39.9078717" lon="8.588115"><ele>7.0</ele><time>2026-05-02T11:52:14.36Z</time></trkpt><trkpt lat="39.9079267" lon="8.58821"><ele>7.000000000000001</ele><time>2026-05-02T11:52:15.36Z</time></trkpt><trkpt lat="39.907985" lon="8.5882883"><ele>7.0</ele><time>2026-05-02T11:52:16.36Z</time></trkpt><trkpt lat="39.90806" lon="8.5883417"><ele>7.0</ele><time>2026-05-02T11:52:17.36Z</time></trkpt><trkpt lat="39.908145" lon="8.588395"><ele>7.0</ele><time>2026-05-02T11:52:18.36Z</time></trkpt><trkpt lat="39.9082267" lon="8.5884167"><ele>7.000000000000001</ele><time>2026-05-02T11:52:19.36Z</time></trkpt><trkpt lat="39.90832" lon="8.58842"><ele>7.0</ele><time>2026-05-02T11:52:20.36Z</time></trkpt><trkpt lat="39.9084067" lon="8.588415"><ele>7.000000000000001</ele><time>2026-05-02T11:52:21.36Z</time></trkpt><trkpt lat="39.90849" lon="8.5884067"><ele>7.0</ele><time>2026-05-02T11:52:22.36Z</time></trkpt><trkpt lat="39.9085683" lon="8.588405"><ele>7.0</ele><time>2026-05-02T11:52:23.36Z</time></trkpt><trkpt lat="39.90865" lon="8.5884033"><ele>7.0</ele><time>2026-05-02T11:52:24.36Z</time></trkpt><trkpt lat="39.908745" lon="8.5883967"><ele>7.000000000000001</ele><time>2026-05-02T11:52:25.36Z</time></trkpt><trkpt lat="39.908835" lon="8.5884"><ele>7.0</ele><time>2026-05-02T11:52:26.36Z</time></trkpt><trkpt lat="39.9089467" lon="8.5883867"><ele>7.0</ele><time>2026-05-02T11:52:27.36Z</time></trkpt><trkpt lat="39.90906" lon="8.5883767"><ele>6.999999999999999</ele><time>2026-05-02T11:52:28.36Z</time></trkpt><trkpt lat="39.9091617" lon="8.5883717"><ele>6.999999999999999</ele><time>2026-05-02T11:52:29.36Z</time></trkpt><trkpt lat="39.9092717" lon="8.58837"><ele>7.0</ele><time>2026-05-02T11:52:30.36Z</time></trkpt><trkpt lat="39.909375" lon="8.5883683"><ele>7.0</ele><time>2026-05-02T11:52:31.36Z</time></trkpt><trkpt lat="39.9094717" lon="8.5883733"><ele>6.857142857142857</ele><time>2026-05-02T11:52:32.36Z</time></trkpt><trkpt lat="39.9095633" lon="8.588375"><ele>6.714285714285714</ele><time>2026-05-02T11:52:33.36Z</time></trkpt><trkpt lat="39.909645" lon="8.5883833"><ele>6.571428571428571</ele><time>2026-05-02T11:52:34.36Z</time></trkpt><trkpt lat="39.9097133" lon="8.5883867"><ele>6.428571428571429</ele><time>2026-05-02T11:52:35.36Z</time></trkpt><trkpt lat="39.9097783" lon="8.5884083"><ele>6.285714285714286</ele><time>2026-05-02T11:52:36.36Z</time></trkpt><trkpt lat="39.9098467" lon="8.588445"><ele>6.142857142857142</ele><time>2026-05-02T11:52:37.36Z</time></trkpt><trkpt lat="39.9098933" lon="8.588505"><ele>6.0</ele><time>2026-05-02T11:52:38.36Z</time></trkpt><trkpt lat="39.909955" lon="8.5885583"><ele>5.999999999999999</ele><time>2026-05-02T11:52:39.36Z</time></trkpt><trkpt lat="39.91002" lon="8.5885833"><ele>6.0</ele><time>2026-05-02T11:52:40.36Z</time></trkpt><trkpt lat="39.9100917" lon="8.58858"><ele>6.0</ele><time>2026-05-02T11:52:41.36Z</time></trkpt><trkpt lat="39.91016" lon="8.5885567"><ele>6.0</ele><time>2026-05-02T11:52:42.36Z</time></trkpt><trkpt lat="39.9102217" lon="8.5885233"><ele>6.0</ele><time>2026-05-02T11:52:43.36Z</time></trkpt><trkpt lat="39.9102983" lon="8.5884383"><ele>5.999999999999999</ele><time>2026-05-02T11:52:45.36Z</time></trkpt><trkpt lat="39.91036" lon="8.5883917"><ele>6.0</ele><time>2026-05-02T11:52:48.36Z</time></trkpt><trkpt lat="39.91041" lon="8.5884933"><ele>6.285714285714285</ele><time>2026-05-02T12:00:54.359Z</time></trkpt><trkpt lat="39.9104617" lon="8.5884133"><ele>6.571428571428571</ele><time>2026-05-02T12:10:07.356Z</time></trkpt><trkpt lat="39.910515" lon="8.5883683"><ele>6.857142857142857</ele><time>2026-05-02T12:10:08.356Z</time></trkpt><trkpt lat="39.9105717" lon="8.588325"><ele>7.142857142857142</ele><time>2026-05-02T12:10:09.356Z</time></trkpt><trkpt lat="39.9106317" lon="8.5882783"><ele>7.428571428571428</ele><time>2026-05-02T12:10:10.356Z</time></trkpt><trkpt lat="39.9107" lon="8.5882183"><ele>7.7142857142857135</ele><time>2026-05-02T12:10:11.356Z</time></trkpt><trkpt lat="39.9107667" lon="8.5881517"><ele>8.0</ele><time>2026-05-02T12:10:12.356Z</time></trkpt><trkpt lat="39.9108383" lon="8.5880767"><ele>7.800000000000001</ele><time>2026-05-02T12:10:13.356Z</time></trkpt><trkpt lat="39.91092" lon="8.5880033"><ele>7.6000000000000005</ele><time>2026-05-02T12:10:14.356Z</time></trkpt><trkpt lat="39.9110083" lon="8.587955"><ele>7.3999999999999995</ele><time>2026-05-02T12:10:15.356Z</time></trkpt><trkpt lat="39.9110933" lon="8.5879"><ele>7.199999999999999</ele><time>2026-05-02T12:10:16.356Z</time></trkpt><trkpt lat="39.9111833" lon="8.5878433"><ele>7.0</ele><time>2026-05-02T12:10:17.356Z</time></trkpt><trkpt lat="39.9112667" lon="8.5877867"><ele>6.8</ele><time>2026-05-02T12:10:18.356Z</time></trkpt><trkpt lat="39.91136" lon="8.587735"><ele>6.6</ele><time>2026-05-02T12:10:19.356Z</time></trkpt><trkpt lat="39.91145" lon="8.5876833"><ele>6.3999999999999995</ele><time>2026-05-02T12:10:20.356Z</time></trkpt><trkpt lat="39.9115217" lon="8.5876233"><ele>6.199999999999999</ele><time>2026-05-02T12:10:21.356Z</time></trkpt><trkpt lat="39.9116067" lon="8.5875667"><ele>6.0</ele><time>2026-05-02T12:10:22.356Z</time></trkpt><trkpt lat="39.91169" lon="8.58751"><ele>6.166666666666667</ele><time>2026-05-02T12:10:23.356Z</time></trkpt><trkpt lat="39.91176" lon="8.5874567"><ele>6.333333333333334</ele><time>2026-05-02T12:10:24.356Z</time></trkpt><trkpt lat="39.9118233" lon="8.587415"><ele>6.5</ele><time>2026-05-02T12:10:25.356Z</time></trkpt><trkpt lat="39.9118883" lon="8.5873817"><ele>6.666666666666667</ele><time>2026-05-02T12:10:26.356Z</time></trkpt><trkpt lat="39.9120033" lon="8.5873533"><ele>6.833333333333334</ele><time>2026-05-02T12:10:28.356Z</time></trkpt><trkpt lat="39.91207" lon="8.5873433"><ele>7.0</ele><time>2026-05-02T12:10:29.356Z</time></trkpt><trkpt lat="39.912175" lon="8.5872783"><ele>7.0</ele><time>2026-05-02T12:10:31.356Z</time></trkpt><trkpt lat="39.9121683" lon="8.5871717"><ele>6.999999999999999</ele><time>2026-05-02T12:10:34.356Z</time></trkpt><trkpt lat="39.91206" lon="8.587235"><ele>6.999999999999999</ele><time>2026-05-02T12:10:36.356Z</time></trkpt><trkpt lat="39.9119783" lon="8.5873167"><ele>7.0</ele><time>2026-05-02T12:10:37.356Z</time></trkpt><trkpt lat="39.9118917" lon="8.5873967"><ele>7.0</ele><time>2026-05-02T12:10:38.356Z</time></trkpt><trkpt lat="39.9117983" lon="8.5874533"><ele>6.8</ele><time>2026-05-02T12:10:39.356Z</time></trkpt><trkpt lat="39.91171" lon="8.5875133"><ele>6.6</ele><time>2026-05-02T12:10:40.356Z</time></trkpt><trkpt lat="39.9116083" lon="8.5875667"><ele>6.3999999999999995</ele><time>2026-05-02T12:10:41.356Z</time></trkpt><trkpt lat="39.911505" lon="8.587615"><ele>6.199999999999999</ele><time>2026-05-02T12:10:42.356Z</time></trkpt><trkpt lat="39.9113917" lon="8.5876767"><ele>6.0</ele><time>2026-05-02T12:10:43.356Z</time></trkpt><trkpt lat="39.9112733" lon="8.587745"><ele>6.0</ele><time>2026-05-02T12:10:44.356Z</time></trkpt><trkpt lat="39.9111583" lon="8.58782"><ele>6.0</ele><time>2026-05-02T12:10:45.356Z</time></trkpt><trkpt lat="39.9110283" lon="8.5878983"><ele>6.0</ele><time>2026-05-02T12:10:46.356Z</time></trkpt><trkpt lat="39.910905" lon="8.5879633"><ele>6.0</ele><time>2026-05-02T12:10:47.356Z</time></trkpt><trkpt lat="39.9107833" lon="8.58804"><ele>6.333333333333333</ele><time>2026-05-02T12:10:48.356Z</time></trkpt><trkpt lat="39.9106933" lon="8.588105"><ele>6.666666666666666</ele><time>2026-05-02T12:10:49.356Z</time></trkpt><trkpt lat="39.910605" lon="8.5881667"><ele>7.0</ele><time>2026-05-02T12:10:50.356Z</time></trkpt><trkpt lat="39.91052" lon="8.5882067"><ele>7.333333333333333</ele><time>2026-05-02T12:10:51.356Z</time></trkpt><trkpt lat="39.9104467" lon="8.5882517"><ele>7.666666666666666</ele><time>2026-05-02T12:10:52.356Z</time></trkpt><trkpt lat="39.910375" lon="8.58828"><ele>8.0</ele><time>2026-05-02T12:10:53.356Z</time></trkpt><trkpt lat="39.9103117" lon="8.5883033"><ele>7.999999999999999</ele><time>2026-05-02T12:10:54.356Z</time></trkpt><trkpt lat="39.91025" lon="8.58833"><ele>8.0</ele><time>2026-05-02T12:10:55.356Z</time></trkpt><trkpt lat="39.9101867" lon="8.58835"><ele>8.0</ele><time>2026-05-02T12:10:56.356Z</time></trkpt><trkpt lat="39.910115" lon="8.5883667"><ele>8.0</ele><time>2026-05-02T12:10:57.356Z</time></trkpt><trkpt lat="39.9100367" lon="8.5883717"><ele>7.999999999999999</ele><time>2026-05-02T12:10:58.356Z</time></trkpt><trkpt lat="39.90994" lon="8.5883817"><ele>8.0</ele><time>2026-05-02T12:10:59.356Z</time></trkpt><trkpt lat="39.90984" lon="8.5883817"><ele>7.6000000000000005</ele><time>2026-05-02T12:11:00.356Z</time></trkpt><trkpt lat="39.9097267" lon="8.5883767"><ele>7.200000000000001</ele><time>2026-05-02T12:11:01.356Z</time></trkpt><trkpt lat="39.9096083" lon="8.58837"><ele>6.8</ele><time>2026-05-02T12:11:02.356Z</time></trkpt><trkpt lat="39.9094933" lon="8.588355"><ele>6.4</ele><time>2026-05-02T12:11:03.357Z</time></trkpt><trkpt lat="39.9093917" lon="8.5883617"><ele>6.0</ele><time>2026-05-02T12:11:04.356Z</time></trkpt><trkpt lat="39.9092833" lon="8.588375"><ele>6.166666666666667</ele><time>2026-05-02T12:11:05.356Z</time></trkpt><trkpt lat="39.9091883" lon="8.5883717"><ele>6.333333333333334</ele><time>2026-05-02T12:11:06.356Z</time></trkpt><trkpt lat="39.909095" lon="8.5883683"><ele>6.5</ele><time>2026-05-02T12:11:07.356Z</time></trkpt><trkpt lat="39.909015" lon="8.5883633"><ele>6.666666666666667</ele><time>2026-05-02T12:11:08.356Z</time></trkpt><trkpt lat="39.9089383" lon="8.588355"><ele>6.833333333333334</ele><time>2026-05-02T12:11:09.356Z</time></trkpt><trkpt lat="39.908865" lon="8.588345"><ele>7.0</ele><time>2026-05-02T12:11:10.356Z</time></trkpt><trkpt lat="39.9087933" lon="8.588345"><ele>7.000000000000001</ele><time>2026-05-02T12:11:11.356Z</time></trkpt><trkpt lat="39.9087167" lon="8.588355"><ele>7.0</ele><time>2026-05-02T12:11:12.356Z</time></trkpt><trkpt lat="39.90865" lon="8.5883733"><ele>7.0</ele><time>2026-05-02T12:11:13.356Z</time></trkpt><trkpt lat="39.9085833" lon="8.5883883"><ele>7.0</ele><time>2026-05-02T12:11:14.356Z</time></trkpt><trkpt lat="39.9085183" lon="8.588395"><ele>7.000000000000001</ele><time>2026-05-02T12:11:15.356Z</time></trkpt><trkpt lat="39.9083933" lon="8.5884017"><ele>7.0</ele><time>2026-05-02T12:11:17.356Z</time></trkpt><trkpt lat="39.908275" lon="8.5883867"><ele>7.000000000000001</ele><time>2026-05-02T12:11:19.356Z</time></trkpt><trkpt lat="39.90818" lon="8.5883867"><ele>7.0</ele><time>2026-05-02T12:11:21.356Z</time></trkpt><trkpt lat="39.9081083" lon="8.588365"><ele>7.0</ele><time>2026-05-02T12:11:25.356Z</time></trkpt><trkpt lat="39.9080433" lon="8.5883183"><ele>7.0</ele><time>2026-05-02T12:11:41.356Z</time></trkpt><trkpt lat="39.907975" lon="8.58832"><ele>7.000000000000001</ele><time>2026-05-02T12:11:42.356Z</time></trkpt><trkpt lat="39.9078917" lon="8.588325"><ele>7.0</ele><time>2026-05-02T12:11:43.356Z</time></trkpt><trkpt lat="39.9077917" lon="8.5883233"><ele>7.0</ele><time>2026-05-02T12:11:44.356Z</time></trkpt><trkpt lat="39.9076833" lon="8.588325"><ele>7.0</ele><time>2026-05-02T12:11:45.356Z</time></trkpt><trkpt lat="39.9075683" lon="8.588325"><ele>7.0</ele><time>2026-05-02T12:11:46.356Z</time></trkpt><trkpt lat="39.9074483" lon="8.5883283"><ele>7.0</ele><time>2026-05-02T12:11:47.356Z</time></trkpt><trkpt lat="39.9073267" lon="8.58833"><ele>7.0</ele><time>2026-05-02T12:11:48.356Z</time></trkpt><trkpt lat="39.90721" lon="8.5883317"><ele>7.0</ele><time>2026-05-02T12:11:49.356Z</time></trkpt><trkpt lat="39.9070917" lon="8.5883333"><ele>7.0</ele><time>2026-05-02T12:11:50.356Z</time></trkpt><trkpt lat="39.9069717" lon="8.588335"><ele>7.0</ele><time>2026-05-02T12:11:51.356Z</time></trkpt><trkpt lat="39.9068567" lon="8.588335"><ele>7.000000000000001</ele><time>2026-05-02T12:11:52.356Z</time></trkpt><trkpt lat="39.9067483" lon="8.5883383"><ele>7.0</ele><time>2026-05-02T12:11:53.356Z</time></trkpt><trkpt lat="39.906655" lon="8.5883333"><ele>7.0</ele><time>2026-05-02T12:11:54.356Z</time></trkpt><trkpt lat="39.9065667" lon="8.58832"><ele>7.0</ele><time>2026-05-02T12:11:55.356Z</time></trkpt><trkpt lat="39.90648" lon="8.5883167"><ele>7.000000000000001</ele><time>2026-05-02T12:11:56.356Z</time></trkpt><trkpt lat="39.90641" lon="8.58831"><ele>7.0</ele><time>2026-05-02T12:11:57.356Z</time></trkpt><trkpt lat="39.906315" lon="8.5883017"><ele>7.199999999999999</ele><time>2026-05-02T12:11:59.356Z</time></trkpt><trkpt lat="39.9062333" lon="8.5883167"><ele>7.3999999999999995</ele><time>2026-05-02T12:12:27.356Z</time></trkpt><trkpt lat="39.90612" lon="8.588335"><ele>7.6000000000000005</ele><time>2026-05-02T12:12:29.356Z</time></trkpt><trkpt lat="39.9060283" lon="8.588335"><ele>7.800000000000001</ele><time>2026-05-02T12:12:30.356Z</time></trkpt><trkpt lat="39.9059183" lon="8.5883367"><ele>8.0</ele><time>2026-05-02T12:12:31.356Z</time></trkpt><trkpt lat="39.9058017" lon="8.588355"><ele>8.25</ele><time>2026-05-02T12:12:32.356Z</time></trkpt><trkpt lat="39.9056833" lon="8.5883583"><ele>8.5</ele><time>2026-05-02T12:12:33.356Z</time></trkpt><trkpt lat="39.9055683" lon="8.5883617"><ele>8.75</ele><time>2026-05-02T12:12:34.356Z</time></trkpt><trkpt lat="39.905445" lon="8.5883567"><ele>9.0</ele><time>2026-05-02T12:12:35.356Z</time></trkpt><trkpt lat="39.9053217" lon="8.5883483"><ele>9.0</ele><time>2026-05-02T12:12:36.356Z</time></trkpt><trkpt lat="39.9051933" lon="8.588355"><ele>9.0</ele><time>2026-05-02T12:12:37.356Z</time></trkpt><trkpt lat="39.9050733" lon="8.5883433"><ele>9.0</ele><time>2026-05-02T12:12:38.356Z</time></trkpt><trkpt lat="39.9049517" lon="8.5883417"><ele>9.0</ele><time>2026-05-02T12:12:39.356Z</time></trkpt><trkpt lat="39.9048183" lon="8.5883483"><ele>8.75</ele><time>2026-05-02T12:12:40.356Z</time></trkpt><trkpt lat="39.9046883" lon="8.588335"><ele>8.5</ele><time>2026-05-02T12:12:41.356Z</time></trkpt><trkpt lat="39.904555" lon="8.588345"><ele>8.25</ele><time>2026-05-02T12:12:42.356Z</time></trkpt><trkpt lat="39.9044333" lon="8.5883417"><ele>8.0</ele><time>2026-05-02T12:12:43.356Z</time></trkpt><trkpt lat="39.9043183" lon="8.5883417"><ele>8.333333333333332</ele><time>2026-05-02T12:12:44.356Z</time></trkpt><trkpt lat="39.9042167" lon="8.5883283"><ele>8.666666666666666</ele><time>2026-05-02T12:12:45.356Z</time></trkpt><trkpt lat="39.90413" lon="8.5883267"><ele>9.0</ele><time>2026-05-02T12:12:46.356Z</time></trkpt><trkpt lat="39.9040533" lon="8.58833"><ele>9.333333333333334</ele><time>2026-05-02T12:12:47.356Z</time></trkpt><trkpt lat="39.90397" lon="8.5883367"><ele>9.666666666666668</ele><time>2026-05-02T12:12:48.356Z</time></trkpt><trkpt lat="39.9038817" lon="8.5883433"><ele>10.0</ele><time>2026-05-02T12:12:49.356Z</time></trkpt><trkpt lat="39.9037883" lon="8.5883267"><ele>10.0</ele><time>2026-05-02T12:12:50.356Z</time></trkpt><trkpt lat="39.90368" lon="8.5883283"><ele>10.0</ele><time>2026-05-02T12:12:51.356Z</time></trkpt><trkpt lat="39.9035667" lon="8.588325"><ele>10.0</ele><time>2026-05-02T12:12:52.356Z</time></trkpt><trkpt lat="39.9034567" lon="8.5883333"><ele>10.0</ele><time>2026-05-02T12:12:53.356Z</time></trkpt><trkpt lat="39.9033417" lon="8.588345"><ele>10.0</ele><time>2026-05-02T12:12:54.356Z</time></trkpt><trkpt lat="39.9032317" lon="8.58835"><ele>10.0</ele><time>2026-05-02T12:12:55.356Z</time></trkpt><trkpt lat="39.9031117" lon="8.5883533"><ele>10.0</ele><time>2026-05-02T12:12:56.356Z</time></trkpt><trkpt lat="39.9029883" lon="8.58836"><ele>10.0</ele><time>2026-05-02T12:12:57.356Z</time></trkpt><trkpt lat="39.9028633" lon="8.58838"><ele>10.0</ele><time>2026-05-02T12:12:58.356Z</time></trkpt><trkpt lat="39.9027417" lon="8.5884267"><ele>10.0</ele><time>2026-05-02T12:12:59.356Z</time></trkpt><trkpt lat="39.902615" lon="8.5885"><ele>10.0</ele><time>2026-05-02T12:13:00.356Z</time></trkpt><trkpt lat="39.9025067" lon="8.5885767"><ele>10.0</ele><time>2026-05-02T12:13:01.356Z</time></trkpt><trkpt lat="39.9024" lon="8.58866"><ele>10.0</ele><time>2026-05-02T12:13:02.356Z</time></trkpt><trkpt lat="39.9022917" lon="8.5887533"><ele>10.0</ele><time>2026-05-02T12:13:03.356Z</time></trkpt><trkpt lat="39.9021883" lon="8.58887"><ele>10.0</ele><time>2026-05-02T12:13:04.356Z</time></trkpt><trkpt lat="39.9020933" lon="8.5890033"><ele>10.0</ele><time>2026-05-02T12:13:05.356Z</time></trkpt><trkpt lat="39.9020067" lon="8.5891517"><ele>10.0</ele><time>2026-05-02T12:13:06.356Z</time></trkpt><trkpt lat="39.9019267" lon="8.5893117"><ele>10.0</ele><time>2026-05-02T12:13:07.356Z</time></trkpt><trkpt lat="39.90185" lon="8.5894717"><ele>10.0</ele><time>2026-05-02T12:13:08.356Z</time></trkpt><trkpt lat="39.9017767" lon="8.5896267"><ele>10.0</ele><time>2026-05-02T12:13:09.356Z</time></trkpt><trkpt lat="39.9017067" lon="8.589775"><ele>10.0</ele><time>2026-05-02T12:13:10.356Z</time></trkpt><trkpt lat="39.9016417" lon="8.5899233"><ele>10.0</ele><time>2026-05-02T12:13:11.356Z</time></trkpt><trkpt lat="39.9015767" lon="8.590075"><ele>10.0</ele><time>2026-05-02T12:13:12.356Z</time></trkpt><trkpt lat="39.9015083" lon="8.590225"><ele>10.0</ele><time>2026-05-02T12:13:13.356Z</time></trkpt><trkpt lat="39.9014417" lon="8.5903633"><ele>10.0</ele><time>2026-05-02T12:13:14.356Z</time></trkpt><trkpt lat="39.9013767" lon="8.5905"><ele>10.25</ele><time>2026-05-02T12:13:15.356Z</time></trkpt><trkpt lat="39.9013117" lon="8.59063"><ele>10.5</ele><time>2026-05-02T12:13:16.356Z</time></trkpt><trkpt lat="39.9012467" lon="8.5907717"><ele>10.75</ele><time>2026-05-02T12:13:17.356Z</time></trkpt><trkpt lat="39.901185" lon="8.590915"><ele>11.0</ele><time>2026-05-02T12:13:18.356Z</time></trkpt><trkpt lat="39.9011233" lon="8.591055"><ele>11.25</ele><time>2026-05-02T12:13:19.356Z</time></trkpt><trkpt lat="39.901065" lon="8.5912017"><ele>11.5</ele><time>2026-05-02T12:13:20.356Z</time></trkpt><trkpt lat="39.901005" lon="8.59134"><ele>11.75</ele><time>2026-05-02T12:13:21.355Z</time></trkpt><trkpt lat="39.900955" lon="8.591465"><ele>12.0</ele><time>2026-05-02T12:13:22.355Z</time></trkpt><trkpt lat="39.9009067" lon="8.591575"><ele>12.0</ele><time>2026-05-02T12:13:23.355Z</time></trkpt><trkpt lat="39.9008633" lon="8.5916717"><ele>12.0</ele><time>2026-05-02T12:13:24.355Z</time></trkpt><trkpt lat="39.9008267" lon="8.5917483"><ele>12.0</ele><time>2026-05-02T12:13:25.355Z</time></trkpt><trkpt lat="39.9007733" lon="8.5917933"><ele>12.0</ele><time>2026-05-02T12:13:26.355Z</time></trkpt><trkpt lat="39.9007183" lon="8.59186"><ele>12.0</ele><time>2026-05-02T12:13:27.355Z</time></trkpt><trkpt lat="39.900655" lon="8.5919167"><ele>12.0</ele><time>2026-05-02T12:13:28.355Z</time></trkpt><trkpt lat="39.90058" lon="8.591975"><ele>12.2</ele><time>2026-05-02T12:13:29.355Z</time></trkpt><trkpt lat="39.9005033" lon="8.5920383"><ele>12.399999999999999</ele><time>2026-05-02T12:13:30.355Z</time></trkpt><trkpt lat="39.9004183" lon="8.5920983"><ele>12.600000000000001</ele><time>2026-05-02T12:13:31.355Z</time></trkpt><trkpt lat="39.900325" lon="8.5921633"><ele>12.8</ele><time>2026-05-02T12:13:32.355Z</time></trkpt><trkpt lat="39.90023" lon="8.592235"><ele>13.0</ele><time>2026-05-02T12:13:33.355Z</time></trkpt><trkpt lat="39.90014" lon="8.5923"><ele>12.600000000000001</ele><time>2026-05-02T12:13:34.355Z</time></trkpt><trkpt lat="39.9000533" lon="8.59236"><ele>12.200000000000001</ele><time>2026-05-02T12:13:35.355Z</time></trkpt><trkpt lat="39.89996" lon="8.592425"><ele>11.8</ele><time>2026-05-02T12:13:36.355Z</time></trkpt><trkpt lat="39.8998667" lon="8.5924967"><ele>11.4</ele><time>2026-05-02T12:13:37.355Z</time></trkpt><trkpt lat="39.899775" lon="8.5925733"><ele>11.0</ele><time>2026-05-02T12:13:38.355Z</time></trkpt><trkpt lat="39.8996783" lon="8.59267"><ele>11.0</ele><time>2026-05-02T12:13:39.355Z</time></trkpt><trkpt lat="39.8995883" lon="8.5927683"><ele>11.0</ele><time>2026-05-02T12:13:40.355Z</time></trkpt><trkpt lat="39.8995017" lon="8.592865"><ele>11.0</ele><time>2026-05-02T12:13:41.355Z</time></trkpt><trkpt lat="39.89943" lon="8.59296"><ele>11.0</ele><time>2026-05-02T12:13:42.355Z</time></trkpt><trkpt lat="39.8993683" lon="8.5930483"><ele>11.0</ele><time>2026-05-02T12:13:43.355Z</time></trkpt><trkpt lat="39.8993133" lon="8.5931283"><ele>11.166666666666666</ele><time>2026-05-02T12:13:44.355Z</time></trkpt><trkpt lat="39.8992583" lon="8.5931917"><ele>11.333333333333332</ele><time>2026-05-02T12:13:45.355Z</time></trkpt><trkpt lat="39.8991833" lon="8.5932933"><ele>11.5</ele><time>2026-05-02T12:13:47.355Z</time></trkpt><trkpt lat="39.8991183" lon="8.5933717"><ele>11.666666666666666</ele><time>2026-05-02T12:13:49.355Z</time></trkpt><trkpt lat="39.8990617" lon="8.593435"><ele>11.833333333333334</ele><time>2026-05-02T12:13:51.355Z</time></trkpt><trkpt lat="39.8990033" lon="8.5935133"><ele>12.0</ele><time>2026-05-02T12:13:54.355Z</time></trkpt><trkpt lat="39.8989483" lon="8.5935833"><ele>12.0</ele><time>2026-05-02T12:13:56.355Z</time></trkpt><trkpt lat="39.89886" lon="8.5936283"><ele>12.0</ele><time>2026-05-02T12:13:58.355Z</time></trkpt><trkpt lat="39.8987767" lon="8.5936267"><ele>12.0</ele><time>2026-05-02T12:14:00.355Z</time></trkpt><trkpt lat="39.8987267" lon="8.5935283"><ele>12.0</ele><time>2026-05-02T12:14:02.355Z</time></trkpt><trkpt lat="39.8987267" lon="8.5934383"><ele>12.0</ele><time>2026-05-02T12:14:03.355Z</time></trkpt><trkpt lat="39.898725" lon="8.5933033"><ele>12.0</ele><time>2026-05-02T12:14:04.355Z</time></trkpt><trkpt lat="39.8987283" lon="8.59316"><ele>12.0</ele><time>2026-05-02T12:14:05.355Z</time></trkpt><trkpt lat="39.8987433" lon="8.5930117"><ele>12.0</ele><time>2026-05-02T12:14:06.355Z</time></trkpt><trkpt lat="39.8987567" lon="8.59288"><ele>12.0</ele><time>2026-05-02T12:14:07.355Z</time></trkpt><trkpt lat="39.8987583" lon="8.5927517"><ele>12.0</ele><time>2026-05-02T12:14:08.355Z</time></trkpt><trkpt lat="39.8987483" lon="8.5925933"><ele>12.0</ele><time>2026-05-02T12:14:09.355Z</time></trkpt><trkpt lat="39.8987183" lon="8.5924533"><ele>12.2</ele><time>2026-05-02T12:14:10.355Z</time></trkpt><trkpt lat="39.898675" lon="8.5923383"><ele>12.399999999999999</ele><time>2026-05-02T12:14:11.355Z</time></trkpt><trkpt lat="39.898625" lon="8.5922267"><ele>12.600000000000001</ele><time>2026-05-02T12:14:12.355Z</time></trkpt><trkpt lat="39.8985783" lon="8.5921167"><ele>12.8</ele><time>2026-05-02T12:14:13.355Z</time></trkpt><trkpt lat="39.8985333" lon="8.5919783"><ele>13.0</ele><time>2026-05-02T12:14:14.355Z</time></trkpt><trkpt lat="39.8984817" lon="8.5918583"><ele>12.600000000000001</ele><time>2026-05-02T12:14:15.355Z</time></trkpt><trkpt lat="39.89843" lon="8.5917383"><ele>12.200000000000001</ele><time>2026-05-02T12:14:16.355Z</time></trkpt><trkpt lat="39.8983717" lon="8.5916317"><ele>11.8</ele><time>2026-05-02T12:14:17.355Z</time></trkpt><trkpt lat="39.8982983" lon="8.591535"><ele>11.4</ele><time>2026-05-02T12:14:18.355Z</time></trkpt><trkpt lat="39.8982133" lon="8.5914483"><ele>11.0</ele><time>2026-05-02T12:14:19.355Z</time></trkpt><trkpt lat="39.898115" lon="8.5913767"><ele>11.0</ele><time>2026-05-02T12:14:20.355Z</time></trkpt><trkpt lat="39.8980167" lon="8.5912967"><ele>11.0</ele><time>2026-05-02T12:14:21.355Z</time></trkpt><trkpt lat="39.8979067" lon="8.5912267"><ele>11.0</ele><time>2026-05-02T12:14:22.355Z</time></trkpt><trkpt lat="39.8977967" lon="8.5911533"><ele>11.0</ele><time>2026-05-02T12:14:23.355Z</time></trkpt><trkpt lat="39.89768" lon="8.5910783"><ele>11.0</ele><time>2026-05-02T12:14:24.355Z</time></trkpt><trkpt lat="39.8975633" lon="8.5910083"><ele>11.0</ele><time>2026-05-02T12:14:25.355Z</time></trkpt><trkpt lat="39.8974517" lon="8.5909483"><ele>11.0</ele><time>2026-05-02T12:14:26.355Z</time></trkpt><trkpt lat="39.89733" lon="8.59087"><ele>11.0</ele><time>2026-05-02T12:14:27.355Z</time></trkpt><trkpt lat="39.8972083" lon="8.5908217"><ele>11.0</ele><time>2026-05-02T12:14:28.355Z</time></trkpt><trkpt lat="39.8971033" lon="8.5907517"><ele>11.0</ele><time>2026-05-02T12:14:29.355Z</time></trkpt><trkpt lat="39.8969933" lon="8.590685"><ele>11.0</ele><time>2026-05-02T12:14:30.356Z</time></trkpt><trkpt lat="39.8968967" lon="8.590635"><ele>11.0</ele><time>2026-05-02T12:14:31.355Z</time></trkpt><trkpt lat="39.8968017" lon="8.590585"><ele>11.0</ele><time>2026-05-02T12:14:32.355Z</time></trkpt><trkpt lat="39.8967267" lon="8.59056"><ele>11.0</ele><time>2026-05-02T12:14:33.355Z</time></trkpt><trkpt lat="39.896655" lon="8.5905267"><ele>11.0</ele><time>2026-05-02T12:14:34.355Z</time></trkpt><trkpt lat="39.89659" lon="8.5905017"><ele>11.0</ele><time>2026-05-02T12:14:35.355Z</time></trkpt><trkpt lat="39.8965183" lon="8.5904817"><ele>11.0</ele><time>2026-05-02T12:14:36.355Z</time></trkpt><trkpt lat="39.8964367" lon="8.5904667"><ele>11.0</ele><time>2026-05-02T12:14:37.355Z</time></trkpt><trkpt lat="39.8963367" lon="8.590475"><ele>11.0</ele><time>2026-05-02T12:14:38.355Z</time></trkpt><trkpt lat="39.8962417" lon="8.5904883"><ele>11.0</ele><time>2026-05-02T12:14:39.355Z</time></trkpt><trkpt lat="39.896125" lon="8.590505"><ele>11.0</ele><time>2026-05-02T12:14:40.355Z</time></trkpt><trkpt lat="39.895995" lon="8.5905117"><ele>11.0</ele><time>2026-05-02T12:14:41.355Z</time></trkpt><trkpt lat="39.89587" lon="8.590505"><ele>11.0</ele><time>2026-05-02T12:14:42.355Z</time></trkpt><trkpt lat="39.8957283" lon="8.5904917"><ele>10.25</ele><time>2026-05-02T12:14:43.355Z</time></trkpt><trkpt lat="39.8955817" lon="8.590495"><ele>9.5</ele><time>2026-05-02T12:14:44.355Z</time></trkpt><trkpt lat="39.8954417" lon="8.5904667"><ele>8.75</ele><time>2026-05-02T12:14:45.355Z</time></trkpt><trkpt lat="39.895295" lon="8.5904483"><ele>8.0</ele><time>2026-05-02T12:14:46.355Z</time></trkpt><trkpt lat="39.8951683" lon="8.5904283"><ele>8.75</ele><time>2026-05-02T12:14:47.355Z</time></trkpt><trkpt lat="39.8950483" lon="8.5903967"><ele>9.5</ele><time>2026-05-02T12:14:48.355Z</time></trkpt><trkpt lat="39.89493" lon="8.590365"><ele>10.25</ele><time>2026-05-02T12:14:49.355Z</time></trkpt><trkpt lat="39.8948167" lon="8.5903367"><ele>11.0</ele><time>2026-05-02T12:14:50.355Z</time></trkpt><trkpt lat="39.894705" lon="8.5903333"><ele>11.333333333333332</ele><time>2026-05-02T12:14:51.355Z</time></trkpt><trkpt lat="39.8945983" lon="8.5903267"><ele>11.666666666666666</ele><time>2026-05-02T12:14:52.355Z</time></trkpt><trkpt lat="39.89451" lon="8.5903183"><ele>12.0</ele><time>2026-05-02T12:14:53.355Z</time></trkpt><trkpt lat="39.8944367" lon="8.5903067"><ele>12.333333333333332</ele><time>2026-05-02T12:14:54.355Z</time></trkpt><trkpt lat="39.8943667" lon="8.5902983"><ele>12.666666666666666</ele><time>2026-05-02T12:14:55.355Z</time></trkpt><trkpt lat="39.8942933" lon="8.5902967"><ele>13.0</ele><time>2026-05-02T12:14:56.355Z</time></trkpt><trkpt lat="39.8942183" lon="8.5902667"><ele>13.166666666666666</ele><time>2026-05-02T12:14:57.355Z</time></trkpt><trkpt lat="39.8941467" lon="8.5902183"><ele>13.333333333333332</ele><time>2026-05-02T12:14:58.355Z</time></trkpt><trkpt lat="39.89407" lon="8.5901633"><ele>13.5</ele><time>2026-05-02T12:14:59.355Z</time></trkpt><trkpt lat="39.8939783" lon="8.5901467"><ele>13.666666666666668</ele><time>2026-05-02T12:15:00.355Z</time></trkpt><trkpt lat="39.8938967" lon="8.590185"><ele>13.833333333333334</ele><time>2026-05-02T12:15:01.355Z</time></trkpt><trkpt lat="39.8938117" lon="8.5902333"><ele>14.0</ele><time>2026-05-02T12:15:02.355Z</time></trkpt><trkpt lat="39.8937167" lon="8.590245"><ele>14.0</ele><time>2026-05-02T12:15:03.355Z</time></trkpt><trkpt lat="39.8936117" lon="8.59023"><ele>13.999999999999998</ele><time>2026-05-02T12:15:04.355Z</time></trkpt><trkpt lat="39.8935" lon="8.590225"><ele>13.999999999999998</ele><time>2026-05-02T12:15:05.355Z</time></trkpt><trkpt lat="39.8933933" lon="8.590225"><ele>14.0</ele><time>2026-05-02T12:15:06.355Z</time></trkpt><trkpt lat="39.8932917" lon="8.59022"><ele>14.0</ele><time>2026-05-02T12:15:07.355Z</time></trkpt><trkpt lat="39.893185" lon="8.5902117"><ele>13.399999999999999</ele><time>2026-05-02T12:15:08.355Z</time></trkpt><trkpt lat="39.8930733" lon="8.5902083"><ele>12.799999999999999</ele><time>2026-05-02T12:15:09.355Z</time></trkpt><trkpt lat="39.892965" lon="8.5901967"><ele>12.2</ele><time>2026-05-02T12:15:10.355Z</time></trkpt><trkpt lat="39.892865" lon="8.5901867"><ele>11.600000000000001</ele><time>2026-05-02T12:15:11.355Z</time></trkpt><trkpt lat="39.89277" lon="8.5901633"><ele>11.0</ele><time>2026-05-02T12:15:12.355Z</time></trkpt><trkpt lat="39.892685" lon="8.5901483"><ele>11.0</ele><time>2026-05-02T12:15:13.355Z</time></trkpt><trkpt lat="39.8926033" lon="8.5901367"><ele>11.0</ele><time>2026-05-02T12:15:14.355Z</time></trkpt><trkpt lat="39.892525" lon="8.59012"><ele>11.0</ele><time>2026-05-02T12:15:15.355Z</time></trkpt><trkpt lat="39.8924467" lon="8.5900883"><ele>11.0</ele><time>2026-05-02T12:15:16.355Z</time></trkpt><trkpt lat="39.89236" lon="8.590035"><ele>11.0</ele><time>2026-05-02T12:15:17.355Z</time></trkpt><trkpt lat="39.8922733" lon="8.5899633"><ele>11.0</ele><time>2026-05-02T12:15:18.355Z</time></trkpt><trkpt lat="39.89217" lon="8.5898683"><ele>11.0</ele><time>2026-05-02T12:15:19.355Z</time></trkpt><trkpt lat="39.892065" lon="8.5897717"><ele>11.0</ele><time>2026-05-02T12:15:20.355Z</time></trkpt><trkpt lat="39.8919533" lon="8.5896717"><ele>11.0</ele><time>2026-05-02T12:15:21.355Z</time></trkpt><trkpt lat="39.8918433" lon="8.58957"><ele>11.0</ele><time>2026-05-02T12:15:22.355Z</time></trkpt><trkpt lat="39.8917267" lon="8.5894583"><ele>10.25</ele><time>2026-05-02T12:15:23.355Z</time></trkpt><trkpt lat="39.8916117" lon="8.58935"><ele>9.5</ele><time>2026-05-02T12:15:24.355Z</time></trkpt><trkpt lat="39.8915017" lon="8.5892433"><ele>8.75</ele><time>2026-05-02T12:15:25.355Z</time></trkpt><trkpt lat="39.8913967" lon="8.5891367"><ele>8.0</ele><time>2026-05-02T12:15:26.355Z</time></trkpt><trkpt lat="39.8912917" lon="8.5890283"><ele>8.0</ele><time>2026-05-02T12:15:27.355Z</time></trkpt><trkpt lat="39.8911967" lon="8.588925"><ele>8.0</ele><time>2026-05-02T12:15:28.355Z</time></trkpt><trkpt lat="39.8910917" lon="8.5888333"><ele>8.0</ele><time>2026-05-02T12:15:29.355Z</time></trkpt><trkpt lat="39.8909833" lon="8.5887283"><ele>8.0</ele><time>2026-05-02T12:15:30.355Z</time></trkpt><trkpt lat="39.8908633" lon="8.5886183"><ele>8.25</ele><time>2026-05-02T12:15:31.355Z</time></trkpt><trkpt lat="39.89075" lon="8.58851"><ele>8.5</ele><time>2026-05-02T12:15:32.355Z</time></trkpt><trkpt lat="39.8906283" lon="8.5883983"><ele>8.75</ele><time>2026-05-02T12:15:33.355Z</time></trkpt><trkpt lat="39.8905217" lon="8.5882867"><ele>9.0</ele><time>2026-05-02T12:15:34.355Z</time></trkpt><trkpt lat="39.890415" lon="8.58818"><ele>9.0</ele><time>2026-05-02T12:15:35.355Z</time></trkpt><trkpt lat="39.8903083" lon="8.588075"><ele>9.0</ele><time>2026-05-02T12:15:36.355Z</time></trkpt><trkpt lat="39.8902" lon="8.5879683"><ele>9.0</ele><time>2026-05-02T12:15:37.355Z</time></trkpt><trkpt lat="39.89009" lon="8.5878617"><ele>9.0</ele><time>2026-05-02T12:15:38.355Z</time></trkpt><trkpt lat="39.889975" lon="8.5877483"><ele>8.5</ele><time>2026-05-02T12:15:39.355Z</time></trkpt><trkpt lat="39.8898517" lon="8.587635"><ele>8.0</ele><time>2026-05-02T12:15:40.355Z</time></trkpt><trkpt lat="39.88974" lon="8.587525"><ele>7.5</ele><time>2026-05-02T12:15:41.355Z</time></trkpt><trkpt lat="39.8896367" lon="8.5874217"><ele>7.0</ele><time>2026-05-02T12:15:42.355Z</time></trkpt><trkpt lat="39.88955" lon="8.5873283"><ele>7.0</ele><time>2026-05-02T12:15:43.355Z</time></trkpt><trkpt lat="39.8894733" lon="8.5872417"><ele>6.999999999999999</ele><time>2026-05-02T12:15:44.355Z</time></trkpt><trkpt lat="39.889405" lon="8.587155"><ele>6.999999999999999</ele><time>2026-05-02T12:15:45.355Z</time></trkpt><trkpt lat="39.8893583" lon="8.5870533"><ele>7.0</ele><time>2026-05-02T12:15:46.355Z</time></trkpt><trkpt lat="39.889325" lon="8.5869367"><ele>7.0</ele><time>2026-05-02T12:15:47.355Z</time></trkpt><trkpt lat="39.8892933" lon="8.5867767"><ele>7.0</ele><time>2026-05-02T12:15:48.355Z</time></trkpt><trkpt lat="39.8892617" lon="8.586595"><ele>7.0</ele><time>2026-05-02T12:15:49.355Z</time></trkpt><trkpt lat="39.8892333" lon="8.5864117"><ele>7.0</ele><time>2026-05-02T12:15:50.355Z</time></trkpt><trkpt lat="39.8892133" lon="8.5862317"><ele>7.0</ele><time>2026-05-02T12:15:51.355Z</time></trkpt><trkpt lat="39.8891917" lon="8.58606"><ele>7.0</ele><time>2026-05-02T12:15:52.355Z</time></trkpt><trkpt lat="39.8891733" lon="8.5858833"><ele>7.0</ele><time>2026-05-02T12:15:53.355Z</time></trkpt><trkpt lat="39.8891533" lon="8.5857233"><ele>7.0</ele><time>2026-05-02T12:15:54.355Z</time></trkpt><trkpt lat="39.8891283" lon="8.58556"><ele>7.0</ele><time>2026-05-02T12:15:55.355Z</time></trkpt><trkpt lat="39.8891067" lon="8.5853883"><ele>5.5</ele><time>2026-05-02T12:15:56.355Z</time></trkpt><trkpt lat="39.88908" lon="8.5852117"><ele>4.0</ele><time>2026-05-02T12:15:57.355Z</time></trkpt><trkpt lat="39.8890567" lon="8.5850533"><ele>2.5</ele><time>2026-05-02T12:15:58.355Z</time></trkpt><trkpt lat="39.8890333" lon="8.5848883"><ele>1.0</ele><time>2026-05-02T12:15:59.355Z</time></trkpt><trkpt lat="39.8890217" lon="8.5847333"><ele>1.0</ele><time>2026-05-02T12:16:00.355Z</time></trkpt><trkpt lat="39.8890283" lon="8.584585"><ele>1.0</ele><time>2026-05-02T12:16:01.355Z</time></trkpt><trkpt lat="39.8890367" lon="8.5844467"><ele>1.0</ele><time>2026-05-02T12:16:02.355Z</time></trkpt><trkpt lat="39.8890283" lon="8.584305"><ele>1.0</ele><time>2026-05-02T12:16:03.355Z</time></trkpt><trkpt lat="39.8890033" lon="8.58416"><ele>1.0</ele><time>2026-05-02T12:16:04.355Z</time></trkpt><trkpt lat="39.888945" lon="8.5839967"><ele>1.0</ele><time>2026-05-02T12:16:05.355Z</time></trkpt><trkpt lat="39.8888917" lon="8.5838267"><ele>1.0</ele><time>2026-05-02T12:16:06.355Z</time></trkpt><trkpt lat="39.8888583" lon="8.58365"><ele>1.0</ele><time>2026-05-02T12:16:07.355Z</time></trkpt><trkpt lat="39.8888367" lon="8.583465"><ele>1.0</ele><time>2026-05-02T12:16:08.355Z</time></trkpt><trkpt lat="39.88881" lon="8.58327"><ele>1.0</ele><time>2026-05-02T12:16:09.355Z</time></trkpt><trkpt lat="39.8887833" lon="8.5830717"><ele>1.0</ele><time>2026-05-02T12:16:10.355Z</time></trkpt><trkpt lat="39.88876" lon="8.582875"><ele>1.0</ele><time>2026-05-02T12:16:11.355Z</time></trkpt><trkpt lat="39.88873" lon="8.5826683"><ele>1.0</ele><time>2026-05-02T12:16:12.355Z</time></trkpt><trkpt lat="39.8886933" lon="8.5824667"><ele>1.0</ele><time>2026-05-02T12:16:13.355Z</time></trkpt><trkpt lat="39.88866" lon="8.58227"><ele>1.0</ele><time>2026-05-02T12:16:14.355Z</time></trkpt><trkpt lat="39.8886283" lon="8.582065"><ele>1.0</ele><time>2026-05-02T12:16:15.355Z</time></trkpt><trkpt lat="39.8885967" lon="8.5818683"><ele>1.0</ele><time>2026-05-02T12:16:16.355Z</time></trkpt><trkpt lat="39.8885667" lon="8.5816617"><ele>1.0</ele><time>2026-05-02T12:16:17.355Z</time></trkpt><trkpt lat="39.8885367" lon="8.5814633"><ele>1.0</ele><time>2026-05-02T12:16:18.355Z</time></trkpt><trkpt lat="39.88851" lon="8.58129"><ele>1.0</ele><time>2026-05-02T12:16:19.355Z</time></trkpt><trkpt lat="39.8884767" lon="8.5811217"><ele>1.0</ele><time>2026-05-02T12:16:20.355Z</time></trkpt><trkpt lat="39.8884217" lon="8.580975"><ele>1.0</ele><time>2026-05-02T12:16:21.355Z</time></trkpt><trkpt lat="39.8883533" lon="8.580865"><ele>0.5</ele><time>2026-05-02T12:16:22.355Z</time></trkpt><trkpt lat="39.8882367" lon="8.5807983"><ele>0.0</ele><time>2026-05-02T12:16:23.355Z</time></trkpt><trkpt lat="39.8881" lon="8.58077"><ele>-0.5</ele><time>2026-05-02T12:16:24.355Z</time></trkpt><trkpt lat="39.88795" lon="8.580765"><ele>-1.0</ele><time>2026-05-02T12:16:25.355Z</time></trkpt><trkpt lat="39.8878033" lon="8.5807717"><ele>-1.0</ele><time>2026-05-02T12:16:26.355Z</time></trkpt><trkpt lat="39.8876583" lon="8.580755"><ele>-1.0</ele><time>2026-05-02T12:16:27.355Z</time></trkpt><trkpt lat="39.8875133" lon="8.5807383"><ele>-1.0</ele><time>2026-05-02T12:16:28.355Z</time></trkpt><trkpt lat="39.88737" lon="8.580705"><ele>-1.0</ele><time>2026-05-02T12:16:29.355Z</time></trkpt><trkpt lat="39.8872183" lon="8.5806667"><ele>0.0</ele><time>2026-05-02T12:16:30.355Z</time></trkpt><trkpt lat="39.8870717" lon="8.580625"><ele>1.0</ele><time>2026-05-02T12:16:31.355Z</time></trkpt><trkpt lat="39.88693" lon="8.5805667"><ele>2.0</ele><time>2026-05-02T12:16:32.355Z</time></trkpt><trkpt lat="39.8867783" lon="8.58051"><ele>1.6666666666666665</ele><time>2026-05-02T12:16:33.355Z</time></trkpt><trkpt lat="39.8866183" lon="8.58046"><ele>1.3333333333333333</ele><time>2026-05-02T12:16:34.355Z</time></trkpt><trkpt lat="39.8864617" lon="8.5804133"><ele>1.0</ele><time>2026-05-02T12:16:35.355Z</time></trkpt><trkpt lat="39.8863067" lon="8.5803733"><ele>1.0</ele><time>2026-05-02T12:16:36.355Z</time></trkpt><trkpt lat="39.88615" lon="8.580325"><ele>1.0</ele><time>2026-05-02T12:16:37.355Z</time></trkpt><trkpt lat="39.885985" lon="8.5802717"><ele>1.0</ele><time>2026-05-02T12:16:38.355Z</time></trkpt><trkpt lat="39.8858217" lon="8.5802117"><ele>1.0</ele><time>2026-05-02T12:16:39.355Z</time></trkpt><trkpt lat="39.8856533" lon="8.5801517"><ele>1.0</ele><time>2026-05-02T12:16:40.355Z</time></trkpt><trkpt lat="39.8854783" lon="8.58009"><ele>1.0</ele><time>2026-05-02T12:16:41.355Z</time></trkpt><trkpt lat="39.885305" lon="8.580035"><ele>1.0</ele><time>2026-05-02T12:16:42.355Z</time></trkpt><trkpt lat="39.8851283" lon="8.57998"><ele>1.0</ele><time>2026-05-02T12:16:43.355Z</time></trkpt><trkpt lat="39.8849567" lon="8.5799283"><ele>1.0</ele><time>2026-05-02T12:16:44.355Z</time></trkpt><trkpt lat="39.8847917" lon="8.5798667"><ele>1.0</ele><time>2026-05-02T12:16:45.355Z</time></trkpt><trkpt lat="39.8846183" lon="8.57979"><ele>1.0</ele><time>2026-05-02T12:16:46.355Z</time></trkpt><trkpt lat="39.88446" lon="8.5797133"><ele>1.0</ele><time>2026-05-02T12:16:47.355Z</time></trkpt><trkpt lat="39.8843183" lon="8.579645"><ele>1.25</ele><time>2026-05-02T12:16:48.355Z</time></trkpt><trkpt lat="39.8841733" lon="8.579565"><ele>1.5</ele><time>2026-05-02T12:16:49.355Z</time></trkpt><trkpt lat="39.8840433" lon="8.57949"><ele>1.75</ele><time>2026-05-02T12:16:50.355Z</time></trkpt><trkpt lat="39.883925" lon="8.5794267"><ele>2.0</ele><time>2026-05-02T12:16:51.355Z</time></trkpt><trkpt lat="39.8838" lon="8.5793583"><ele>2.0</ele><time>2026-05-02T12:16:52.355Z</time></trkpt><trkpt lat="39.8836717" lon="8.579295"><ele>2.0</ele><time>2026-05-02T12:16:53.355Z</time></trkpt><trkpt lat="39.883545" lon="8.579225"><ele>2.0</ele><time>2026-05-02T12:16:54.356Z</time></trkpt><trkpt lat="39.8834083" lon="8.5791583"><ele>2.0</ele><time>2026-05-02T12:16:55.355Z</time></trkpt><trkpt lat="39.8832717" lon="8.5790767"><ele>2.0</ele><time>2026-05-02T12:16:56.355Z</time></trkpt><trkpt lat="39.8831283" lon="8.57899"><ele>2.0</ele><time>2026-05-02T12:16:57.355Z</time></trkpt><trkpt lat="39.8829867" lon="8.5789033"><ele>2.0</ele><time>2026-05-02T12:16:58.355Z</time></trkpt><trkpt lat="39.8828367" lon="8.5788183"><ele>2.0</ele><time>2026-05-02T12:16:59.355Z</time></trkpt><trkpt lat="39.88268" lon="8.5787217"><ele>2.0</ele><time>2026-05-02T12:17:00.355Z</time></trkpt><trkpt lat="39.88252" lon="8.5786183"><ele>2.0</ele><time>2026-05-02T12:17:01.355Z</time></trkpt><trkpt lat="39.8823617" lon="8.57852"><ele>2.0</ele><time>2026-05-02T12:17:02.355Z</time></trkpt><trkpt lat="39.8821967" lon="8.5784233"><ele>2.0</ele><time>2026-05-02T12:17:03.355Z</time></trkpt><trkpt lat="39.8820283" lon="8.5783283"><ele>2.0</ele><time>2026-05-02T12:17:04.355Z</time></trkpt><trkpt lat="39.8818567" lon="8.5782283"><ele>1.6666666666666665</ele><time>2026-05-02T12:17:05.355Z</time></trkpt><trkpt lat="39.88168" lon="8.57813"><ele>1.3333333333333333</ele><time>2026-05-02T12:17:06.355Z</time></trkpt><trkpt lat="39.8815117" lon="8.578035"><ele>1.0</ele><time>2026-05-02T12:17:07.355Z</time></trkpt><trkpt lat="39.88134" lon="8.577935"><ele>0.6666666666666666</ele><time>2026-05-02T12:17:08.355Z</time></trkpt><trkpt lat="39.8811817" lon="8.5778417"><ele>0.3333333333333333</ele><time>2026-05-02T12:17:09.355Z</time></trkpt><trkpt lat="39.8810217" lon="8.57774"><ele>0.0</ele><time>2026-05-02T12:17:10.355Z</time></trkpt><trkpt lat="39.880855" lon="8.5776467"><ele>0.0</ele><time>2026-05-02T12:17:11.355Z</time></trkpt><trkpt lat="39.880695" lon="8.5775483"><ele>0.0</ele><time>2026-05-02T12:17:12.355Z</time></trkpt><trkpt lat="39.8805317" lon="8.57745"><ele>0.0</ele><time>2026-05-02T12:17:13.355Z</time></trkpt><trkpt lat="39.8803717" lon="8.5773633"><ele>0.0</ele><time>2026-05-02T12:17:14.355Z</time></trkpt><trkpt lat="39.880215" lon="8.5772783"><ele>0.0</ele><time>2026-05-02T12:17:15.355Z</time></trkpt><trkpt lat="39.880055" lon="8.5771967"><ele>0.0</ele><time>2026-05-02T12:17:16.355Z</time></trkpt><trkpt lat="39.879905" lon="8.5771217"><ele>0.0</ele><time>2026-05-02T12:17:17.355Z</time></trkpt><trkpt lat="39.8797483" lon="8.5770267"><ele>0.0</ele><time>2026-05-02T12:17:18.355Z</time></trkpt><trkpt lat="39.8795867" lon="8.5769383"><ele>0.0</ele><time>2026-05-02T12:17:19.355Z</time></trkpt><trkpt lat="39.87942" lon="8.576845"><ele>0.3333333333333333</ele><time>2026-05-02T12:17:20.355Z</time></trkpt><trkpt lat="39.879255" lon="8.5767467"><ele>0.6666666666666666</ele><time>2026-05-02T12:17:21.355Z</time></trkpt><trkpt lat="39.8790867" lon="8.57664"><ele>1.0</ele><time>2026-05-02T12:17:22.355Z</time></trkpt><trkpt lat="39.87892" lon="8.5765367"><ele>1.0</ele><time>2026-05-02T12:17:23.355Z</time></trkpt><trkpt lat="39.8787483" lon="8.57644"><ele>1.0</ele><time>2026-05-02T12:17:24.355Z</time></trkpt><trkpt lat="39.8785733" lon="8.5763383"><ele>1.0</ele><time>2026-05-02T12:17:25.355Z</time></trkpt><trkpt lat="39.8784" lon="8.5762367"><ele>1.0</ele><time>2026-05-02T12:17:26.355Z</time></trkpt><trkpt lat="39.8782267" lon="8.5761417"><ele>1.0</ele><time>2026-05-02T12:17:27.355Z</time></trkpt><trkpt lat="39.878055" lon="8.5760383"><ele>1.0</ele><time>2026-05-02T12:17:28.355Z</time></trkpt><trkpt lat="39.87788" lon="8.5759383"><ele>1.0</ele><time>2026-05-02T12:17:29.355Z</time></trkpt><trkpt lat="39.877695" lon="8.575835"><ele>1.0</ele><time>2026-05-02T12:17:30.355Z</time></trkpt><trkpt lat="39.8775067" lon="8.5757333"><ele>1.0</ele><time>2026-05-02T12:17:31.355Z</time></trkpt><trkpt lat="39.8773217" lon="8.575635"><ele>1.0</ele><time>2026-05-02T12:17:32.355Z</time></trkpt><trkpt lat="39.8771417" lon="8.5755283"><ele>1.0</ele><time>2026-05-02T12:17:33.355Z</time></trkpt><trkpt lat="39.876955" lon="8.5754233"><ele>1.0</ele><time>2026-05-02T12:17:34.355Z</time></trkpt><trkpt lat="39.876775" lon="8.575295"><ele>1.0</ele><time>2026-05-02T12:17:35.355Z</time></trkpt><trkpt lat="39.8766117" lon="8.575145"><ele>1.0</ele><time>2026-05-02T12:17:36.355Z</time></trkpt><trkpt lat="39.876455" lon="8.574985"><ele>1.0</ele><time>2026-05-02T12:17:37.355Z</time></trkpt><trkpt lat="39.8763167" lon="8.5748017"><ele>1.0</ele><time>2026-05-02T12:17:38.355Z</time></trkpt><trkpt lat="39.8761917" lon="8.5746183"><ele>1.0</ele><time>2026-05-02T12:17:39.355Z</time></trkpt><trkpt lat="39.8760667" lon="8.5744167"><ele>1.0</ele><time>2026-05-02T12:17:40.355Z</time></trkpt><trkpt lat="39.87595" lon="8.5742233"><ele>1.6666666666666665</ele><time>2026-05-02T12:17:41.355Z</time></trkpt><trkpt lat="39.87583" lon="8.5740367"><ele>2.3333333333333335</ele><time>2026-05-02T12:17:42.355Z</time></trkpt><trkpt lat="39.8757033" lon="8.573845"><ele>3.0</ele><time>2026-05-02T12:17:43.355Z</time></trkpt><trkpt lat="39.8755817" lon="8.5736617"><ele>3.0</ele><time>2026-05-02T12:17:44.355Z</time></trkpt><trkpt lat="39.8754567" lon="8.573475"><ele>3.0</ele><time>2026-05-02T12:17:45.355Z</time></trkpt><trkpt lat="39.8753383" lon="8.5732883"><ele>3.0</ele><time>2026-05-02T12:17:46.355Z</time></trkpt><trkpt lat="39.8752217" lon="8.573105"><ele>3.333333333333333</ele><time>2026-05-02T12:17:47.355Z</time></trkpt><trkpt lat="39.875095" lon="8.5729167"><ele>3.6666666666666665</ele><time>2026-05-02T12:17:48.355Z</time></trkpt><trkpt lat="39.87496" lon="8.5727267"><ele>4.0</ele><time>2026-05-02T12:17:49.354Z</time></trkpt><trkpt lat="39.874825" lon="8.5725283"><ele>4.0</ele><time>2026-05-02T12:17:50.354Z</time></trkpt><trkpt lat="39.87469" lon="8.5723233"><ele>4.0</ele><time>2026-05-02T12:17:51.354Z</time></trkpt><trkpt lat="39.87455" lon="8.572115"><ele>4.0</ele><time>2026-05-02T12:17:52.354Z</time></trkpt><trkpt lat="39.87441" lon="8.5719083"><ele>3.333333333333333</ele><time>2026-05-02T12:17:53.354Z</time></trkpt><trkpt lat="39.8742733" lon="8.5717083"><ele>2.6666666666666665</ele><time>2026-05-02T12:17:54.354Z</time></trkpt><trkpt lat="39.8741333" lon="8.5715017"><ele>2.0</ele><time>2026-05-02T12:17:55.354Z</time></trkpt><trkpt lat="39.8739867" lon="8.571295"><ele>2.0</ele><time>2026-05-02T12:17:56.354Z</time></trkpt><trkpt lat="39.873835" lon="8.5710783"><ele>2.0</ele><time>2026-05-02T12:17:57.354Z</time></trkpt><trkpt lat="39.873695" lon="8.570875"><ele>2.0</ele><time>2026-05-02T12:17:58.354Z</time></trkpt><trkpt lat="39.8735533" lon="8.570665"><ele>2.0</ele><time>2026-05-02T12:17:59.354Z</time></trkpt><trkpt lat="39.8734167" lon="8.5704483"><ele>2.0</ele><time>2026-05-02T12:18:00.354Z</time></trkpt><trkpt lat="39.8732817" lon="8.5702383"><ele>2.0</ele><time>2026-05-02T12:18:01.354Z</time></trkpt><trkpt lat="39.8731433" lon="8.5700317"><ele>2.0</ele><time>2026-05-02T12:18:02.354Z</time></trkpt><trkpt lat="39.8730183" lon="8.5698383"><ele>2.0</ele><time>2026-05-02T12:18:03.354Z</time></trkpt><trkpt lat="39.8728933" lon="8.5696533"><ele>2.0</ele><time>2026-05-02T12:18:04.354Z</time></trkpt><trkpt lat="39.8727617" lon="8.5694667"><ele>2.0</ele><time>2026-05-02T12:18:05.354Z</time></trkpt><trkpt lat="39.8726267" lon="8.5692933"><ele>2.0</ele><time>2026-05-02T12:18:06.354Z</time></trkpt><trkpt lat="39.8724783" lon="8.5691433"><ele>2.0</ele><time>2026-05-02T12:18:07.354Z</time></trkpt><trkpt lat="39.8723383" lon="8.569005"><ele>2.6666666666666665</ele><time>2026-05-02T12:18:08.354Z</time></trkpt><trkpt lat="39.872185" lon="8.5688883"><ele>3.333333333333333</ele><time>2026-05-02T12:18:09.354Z</time></trkpt><trkpt lat="39.8720233" lon="8.5688133"><ele>4.0</ele><time>2026-05-02T12:18:10.354Z</time></trkpt><trkpt lat="39.8718483" lon="8.5687767"><ele>3.333333333333333</ele><time>2026-05-02T12:18:11.354Z</time></trkpt><trkpt lat="39.8716583" lon="8.5687633"><ele>2.6666666666666665</ele><time>2026-05-02T12:18:12.354Z</time></trkpt><trkpt lat="39.8714633" lon="8.5687733"><ele>2.0</ele><time>2026-05-02T12:18:13.354Z</time></trkpt><trkpt lat="39.87127" lon="8.568795"><ele>2.0</ele><time>2026-05-02T12:18:14.354Z</time></trkpt><trkpt lat="39.87107" lon="8.5688217"><ele>2.0</ele><time>2026-05-02T12:18:15.354Z</time></trkpt><trkpt lat="39.8708683" lon="8.5688517"><ele>2.0</ele><time>2026-05-02T12:18:16.354Z</time></trkpt><trkpt lat="39.8706633" lon="8.5688717"><ele>2.333333333333333</ele><time>2026-05-02T12:18:17.354Z</time></trkpt><trkpt lat="39.8704617" lon="8.568895"><ele>2.6666666666666665</ele><time>2026-05-02T12:18:18.354Z</time></trkpt><trkpt lat="39.87026" lon="8.5689133"><ele>3.0</ele><time>2026-05-02T12:18:19.354Z</time></trkpt><trkpt lat="39.8700683" lon="8.5689317"><ele>2.3333333333333335</ele><time>2026-05-02T12:18:20.354Z</time></trkpt><trkpt lat="39.8698817" lon="8.568945"><ele>1.6666666666666665</ele><time>2026-05-02T12:18:21.354Z</time></trkpt><trkpt lat="39.8697183" lon="8.5689583"><ele>1.0</ele><time>2026-05-02T12:18:22.354Z</time></trkpt><trkpt lat="39.8695717" lon="8.5689733"><ele>1.0</ele><time>2026-05-02T12:18:23.354Z</time></trkpt><trkpt lat="39.8694217" lon="8.5689867"><ele>1.0</ele><time>2026-05-02T12:18:24.355Z</time></trkpt><trkpt lat="39.8692683" lon="8.568995"><ele>1.0</ele><time>2026-05-02T12:18:25.354Z</time></trkpt><trkpt lat="39.8691133" lon="8.5689967"><ele>1.0</ele><time>2026-05-02T12:18:26.354Z</time></trkpt><trkpt lat="39.8689567" lon="8.5690083"><ele>1.0</ele><time>2026-05-02T12:18:27.354Z</time></trkpt><trkpt lat="39.8688" lon="8.5690233"><ele>1.0</ele><time>2026-05-02T12:18:28.354Z</time></trkpt><trkpt lat="39.8686333" lon="8.5690467"><ele>1.0</ele><time>2026-05-02T12:18:29.354Z</time></trkpt><trkpt lat="39.86847" lon="8.5690817"><ele>1.0</ele><time>2026-05-02T12:18:30.354Z</time></trkpt><trkpt lat="39.868295" lon="8.569135"><ele>1.0</ele><time>2026-05-02T12:18:31.354Z</time></trkpt><trkpt lat="39.8681167" lon="8.5692"><ele>2.0</ele><time>2026-05-02T12:18:32.354Z</time></trkpt><trkpt lat="39.8679417" lon="8.569275"><ele>3.0</ele><time>2026-05-02T12:18:33.354Z</time></trkpt><trkpt lat="39.867775" lon="8.5693867"><ele>4.0</ele><time>2026-05-02T12:18:34.354Z</time></trkpt><trkpt lat="39.8676233" lon="8.5695067"><ele>4.333333333333333</ele><time>2026-05-02T12:18:35.354Z</time></trkpt><trkpt lat="39.86748" lon="8.569655"><ele>4.666666666666667</ele><time>2026-05-02T12:18:36.354Z</time></trkpt><trkpt lat="39.8673433" lon="8.5698333"><ele>5.0</ele><time>2026-05-02T12:18:37.354Z</time></trkpt><trkpt lat="39.86721" lon="8.5700133"><ele>5.0</ele><time>2026-05-02T12:18:38.354Z</time></trkpt><trkpt lat="39.8670783" lon="8.5702067"><ele>5.0</ele><time>2026-05-02T12:18:39.354Z</time></trkpt><trkpt lat="39.8669483" lon="8.5703883"><ele>5.0</ele><time>2026-05-02T12:18:40.354Z</time></trkpt><trkpt lat="39.8668117" lon="8.5705683"><ele>4.666666666666667</ele><time>2026-05-02T12:18:41.354Z</time></trkpt><trkpt lat="39.8666767" lon="8.5707567"><ele>4.333333333333333</ele><time>2026-05-02T12:18:42.354Z</time></trkpt><trkpt lat="39.8665467" lon="8.5709417"><ele>4.0</ele><time>2026-05-02T12:18:43.354Z</time></trkpt><trkpt lat="39.866415" lon="8.5711133"><ele>3.6666666666666665</ele><time>2026-05-02T12:18:44.354Z</time></trkpt><trkpt lat="39.8662817" lon="8.5712833"><ele>3.333333333333333</ele><time>2026-05-02T12:18:45.354Z</time></trkpt><trkpt lat="39.8661517" lon="8.5714617"><ele>3.0</ele><time>2026-05-02T12:18:46.354Z</time></trkpt><trkpt lat="39.8660217" lon="8.5716417"><ele>3.333333333333333</ele><time>2026-05-02T12:18:47.354Z</time></trkpt><trkpt lat="39.8659" lon="8.5718083"><ele>3.6666666666666665</ele><time>2026-05-02T12:18:48.354Z</time></trkpt><trkpt lat="39.8657733" lon="8.57197"><ele>4.0</ele><time>2026-05-02T12:18:49.354Z</time></trkpt><trkpt lat="39.865635" lon="8.5721317"><ele>4.0</ele><time>2026-05-02T12:18:50.354Z</time></trkpt><trkpt lat="39.865485" lon="8.5722717"><ele>4.0</ele><time>2026-05-02T12:18:51.354Z</time></trkpt><trkpt lat="39.8653183" lon="8.5724017"><ele>4.0</ele><time>2026-05-02T12:18:52.354Z</time></trkpt><trkpt lat="39.865165" lon="8.5725017"><ele>4.0</ele><time>2026-05-02T12:18:53.354Z</time></trkpt><trkpt lat="39.8649917" lon="8.5725867"><ele>4.0</ele><time>2026-05-02T12:18:54.354Z</time></trkpt><trkpt lat="39.8648083" lon="8.57265"><ele>4.0</ele><time>2026-05-02T12:18:55.354Z</time></trkpt><trkpt lat="39.8646083" lon="8.572695"><ele>4.0</ele><time>2026-05-02T12:18:56.354Z</time></trkpt><trkpt lat="39.8644167" lon="8.5727317"><ele>4.0</ele><time>2026-05-02T12:18:57.354Z</time></trkpt><trkpt lat="39.8642183" lon="8.5727567"><ele>4.0</ele><time>2026-05-02T12:18:58.354Z</time></trkpt><trkpt lat="39.8640283" lon="8.572785"><ele>3.6666666666666665</ele><time>2026-05-02T12:18:59.354Z</time></trkpt><trkpt lat="39.8638233" lon="8.57281"><ele>3.333333333333333</ele><time>2026-05-02T12:19:00.354Z</time></trkpt><trkpt lat="39.8636233" lon="8.5728383"><ele>3.0</ele><time>2026-05-02T12:19:01.354Z</time></trkpt><trkpt lat="39.8634317" lon="8.5728633"><ele>3.666666666666667</ele><time>2026-05-02T12:19:02.354Z</time></trkpt><trkpt lat="39.8632417" lon="8.5728867"><ele>4.333333333333334</ele><time>2026-05-02T12:19:03.354Z</time></trkpt><trkpt lat="39.86304" lon="8.5729083"><ele>5.0</ele><time>2026-05-02T12:19:04.354Z</time></trkpt><trkpt lat="39.8628383" lon="8.5729367"><ele>5.0</ele><time>2026-05-02T12:19:05.354Z</time></trkpt><trkpt lat="39.8626333" lon="8.5729667"><ele>5.0</ele><time>2026-05-02T12:19:06.354Z</time></trkpt><trkpt lat="39.8624283" lon="8.573"><ele>5.0</ele><time>2026-05-02T12:19:07.354Z</time></trkpt><trkpt lat="39.8622283" lon="8.5730267"><ele>5.0</ele><time>2026-05-02T12:19:08.354Z</time></trkpt><trkpt lat="39.8620167" lon="8.5730467"><ele>5.0</ele><time>2026-05-02T12:19:09.354Z</time></trkpt><trkpt lat="39.8618" lon="8.5730733"><ele>5.0</ele><time>2026-05-02T12:19:10.354Z</time></trkpt><trkpt lat="39.8615833" lon="8.5730983"><ele>4.666666666666667</ele><time>2026-05-02T12:19:11.354Z</time></trkpt><trkpt lat="39.8613667" lon="8.5731283"><ele>4.333333333333333</ele><time>2026-05-02T12:19:12.354Z</time></trkpt><trkpt lat="39.86116" lon="8.5731617"><ele>4.0</ele><time>2026-05-02T12:19:13.354Z</time></trkpt><trkpt lat="39.8609533" lon="8.5731933"><ele>4.0</ele><time>2026-05-02T12:19:14.354Z</time></trkpt><trkpt lat="39.8607467" lon="8.5732317"><ele>4.0</ele><time>2026-05-02T12:19:15.354Z</time></trkpt><trkpt lat="39.8605333" lon="8.57326"><ele>4.0</ele><time>2026-05-02T12:19:16.354Z</time></trkpt><trkpt lat="39.8603283" lon="8.57329"><ele>4.0</ele><time>2026-05-02T12:19:17.354Z</time></trkpt><trkpt lat="39.8601267" lon="8.5733183"><ele>4.0</ele><time>2026-05-02T12:19:18.354Z</time></trkpt><trkpt lat="39.859935" lon="8.57335"><ele>4.0</ele><time>2026-05-02T12:19:19.354Z</time></trkpt><trkpt lat="39.8597467" lon="8.5733783"><ele>4.0</ele><time>2026-05-02T12:19:20.354Z</time></trkpt><trkpt lat="39.8595467" lon="8.5733867"><ele>4.0</ele><time>2026-05-02T12:19:21.354Z</time></trkpt><trkpt lat="39.85935" lon="8.57341"><ele>4.0</ele><time>2026-05-02T12:19:22.354Z</time></trkpt><trkpt lat="39.8591533" lon="8.5734233"><ele>3.333333333333333</ele><time>2026-05-02T12:19:23.354Z</time></trkpt><trkpt lat="39.8589517" lon="8.5734467"><ele>2.6666666666666665</ele><time>2026-05-02T12:19:24.354Z</time></trkpt><trkpt lat="39.8587517" lon="8.5734783"><ele>2.0</ele><time>2026-05-02T12:19:25.354Z</time></trkpt><trkpt lat="39.85855" lon="8.5735"><ele>2.333333333333333</ele><time>2026-05-02T12:19:26.354Z</time></trkpt><trkpt lat="39.858355" lon="8.5735333"><ele>2.6666666666666665</ele><time>2026-05-02T12:19:27.354Z</time></trkpt><trkpt lat="39.8581483" lon="8.57357"><ele>3.0</ele><time>2026-05-02T12:19:28.354Z</time></trkpt><trkpt lat="39.8579433" lon="8.5736133"><ele>3.0</ele><time>2026-05-02T12:19:29.354Z</time></trkpt><trkpt lat="39.85774" lon="8.573665"><ele>3.0</ele><time>2026-05-02T12:19:30.354Z</time></trkpt><trkpt lat="39.85754" lon="8.573735"><ele>3.0</ele><time>2026-05-02T12:19:31.354Z</time></trkpt><trkpt lat="39.8573383" lon="8.57381"><ele>3.0</ele><time>2026-05-02T12:19:32.354Z</time></trkpt><trkpt lat="39.85714" lon="8.5739"><ele>3.0</ele><time>2026-05-02T12:19:33.354Z</time></trkpt><trkpt lat="39.8569517" lon="8.5740183"><ele>3.0</ele><time>2026-05-02T12:19:34.354Z</time></trkpt><trkpt lat="39.8567717" lon="8.5741517"><ele>3.0</ele><time>2026-05-02T12:19:35.354Z</time></trkpt><trkpt lat="39.8566017" lon="8.574305"><ele>3.0</ele><time>2026-05-02T12:19:36.354Z</time></trkpt><trkpt lat="39.8564267" lon="8.57447"><ele>3.0</ele><time>2026-05-02T12:19:37.354Z</time></trkpt><trkpt lat="39.8562617" lon="8.5746433"><ele>3.333333333333333</ele><time>2026-05-02T12:19:38.354Z</time></trkpt><trkpt lat="39.856105" lon="8.574825"><ele>3.6666666666666665</ele><time>2026-05-02T12:19:39.354Z</time></trkpt><trkpt lat="39.8559467" lon="8.5750117"><ele>4.0</ele><time>2026-05-02T12:19:40.354Z</time></trkpt><trkpt lat="39.855795" lon="8.57521"><ele>4.333333333333333</ele><time>2026-05-02T12:19:41.354Z</time></trkpt><trkpt lat="39.8556483" lon="8.5753983"><ele>4.666666666666667</ele><time>2026-05-02T12:19:42.354Z</time></trkpt><trkpt lat="39.8555017" lon="8.57559"><ele>5.0</ele><time>2026-05-02T12:19:43.354Z</time></trkpt><trkpt lat="39.8553533" lon="8.575785"><ele>5.0</ele><time>2026-05-02T12:19:44.354Z</time></trkpt><trkpt lat="39.8552017" lon="8.575975"><ele>5.0</ele><time>2026-05-02T12:19:45.354Z</time></trkpt><trkpt lat="39.85505" lon="8.5761617"><ele>5.0</ele><time>2026-05-02T12:19:46.354Z</time></trkpt><trkpt lat="39.8549033" lon="8.576345"><ele>5.0</ele><time>2026-05-02T12:19:47.354Z</time></trkpt><trkpt lat="39.8547567" lon="8.5765217"><ele>5.0</ele><time>2026-05-02T12:19:48.354Z</time></trkpt><trkpt lat="39.8546117" lon="8.5767"><ele>5.0</ele><time>2026-05-02T12:19:49.354Z</time></trkpt><trkpt lat="39.8544717" lon="8.5768717"><ele>4.666666666666667</ele><time>2026-05-02T12:19:50.354Z</time></trkpt><trkpt lat="39.8543367" lon="8.5770267"><ele>4.333333333333333</ele><time>2026-05-02T12:19:51.354Z</time></trkpt><trkpt lat="39.8542033" lon="8.5771767"><ele>4.0</ele><time>2026-05-02T12:19:52.354Z</time></trkpt><trkpt lat="39.8540833" lon="8.5773033"><ele>4.0</ele><time>2026-05-02T12:19:53.354Z</time></trkpt><trkpt lat="39.8539767" lon="8.5774217"><ele>4.0</ele><time>2026-05-02T12:19:54.354Z</time></trkpt><trkpt lat="39.8538617" lon="8.5775017"><ele>4.0</ele><time>2026-05-02T12:19:55.354Z</time></trkpt><trkpt lat="39.85375" lon="8.577565"><ele>4.0</ele><time>2026-05-02T12:19:56.354Z</time></trkpt><trkpt lat="39.8536367" lon="8.57762"><ele>4.0</ele><time>2026-05-02T12:19:57.354Z</time></trkpt><trkpt lat="39.853545" lon="8.577695"><ele>4.0</ele><time>2026-05-02T12:19:58.354Z</time></trkpt><trkpt lat="39.8534833" lon="8.57782"><ele>4.0</ele><time>2026-05-02T12:19:59.354Z</time></trkpt><trkpt lat="39.8534417" lon="8.577965"><ele>4.0</ele><time>2026-05-02T12:20:00.354Z</time></trkpt><trkpt lat="39.85338" lon="8.5781333"><ele>3.0</ele><time>2026-05-02T12:20:01.354Z</time></trkpt><trkpt lat="39.8532817" lon="8.5782933"><ele>2.0</ele><time>2026-05-02T12:20:02.354Z</time></trkpt><trkpt lat="39.8531633" lon="8.578445"><ele>1.0</ele><time>2026-05-02T12:20:03.354Z</time></trkpt><trkpt lat="39.8530333" lon="8.5786033"><ele>1.6666666666666665</ele><time>2026-05-02T12:20:04.354Z</time></trkpt><trkpt lat="39.8528917" lon="8.5787783"><ele>2.3333333333333335</ele><time>2026-05-02T12:20:05.354Z</time></trkpt><trkpt lat="39.8527383" lon="8.5789667"><ele>3.0</ele><time>2026-05-02T12:20:06.355Z</time></trkpt><trkpt lat="39.8525783" lon="8.5791667"><ele>3.0</ele><time>2026-05-02T12:20:07.354Z</time></trkpt><trkpt lat="39.8524117" lon="8.57937"><ele>3.0</ele><time>2026-05-02T12:20:08.354Z</time></trkpt><trkpt lat="39.8522317" lon="8.5795883"><ele>4.0</ele><time>2026-05-02T12:20:09.354Z</time></trkpt><trkpt lat="39.8520633" lon="8.5798167"><ele>5.0</ele><time>2026-05-02T12:20:10.354Z</time></trkpt><trkpt lat="39.8518917" lon="8.5800383"><ele>3.5</ele><time>2026-05-02T12:20:11.354Z</time></trkpt><trkpt lat="39.8517217" lon="8.5802517"><ele>2.0</ele><time>2026-05-02T12:20:12.354Z</time></trkpt><trkpt lat="39.8515567" lon="8.5804667"><ele>2.0</ele><time>2026-05-02T12:20:13.354Z</time></trkpt><trkpt lat="39.85139" lon="8.5806733"><ele>2.0</ele><time>2026-05-02T12:20:14.354Z</time></trkpt><trkpt lat="39.8512317" lon="8.5808833"><ele>2.0</ele><time>2026-05-02T12:20:15.354Z</time></trkpt><trkpt lat="39.8510767" lon="8.581095"><ele>2.0</ele><time>2026-05-02T12:20:16.354Z</time></trkpt><trkpt lat="39.85093" lon="8.5813133"><ele>2.0</ele><time>2026-05-02T12:20:17.354Z</time></trkpt><trkpt lat="39.850785" lon="8.58154"><ele>1.5</ele><time>2026-05-02T12:20:18.354Z</time></trkpt><trkpt lat="39.8506433" lon="8.58178"><ele>1.0</ele><time>2026-05-02T12:20:19.354Z</time></trkpt><trkpt lat="39.8505117" lon="8.582025"><ele>1.6666666666666665</ele><time>2026-05-02T12:20:20.354Z</time></trkpt><trkpt lat="39.8503833" lon="8.5822683"><ele>2.3333333333333335</ele><time>2026-05-02T12:20:21.354Z</time></trkpt><trkpt lat="39.85026" lon="8.58251"><ele>3.0</ele><time>2026-05-02T12:20:22.354Z</time></trkpt><trkpt lat="39.8501367" lon="8.5827517"><ele>3.5</ele><time>2026-05-02T12:20:23.354Z</time></trkpt><trkpt lat="39.85001" lon="8.5830033"><ele>4.0</ele><time>2026-05-02T12:20:24.354Z</time></trkpt><trkpt lat="39.8498867" lon="8.5832483"><ele>4.0</ele><time>2026-05-02T12:20:25.354Z</time></trkpt><trkpt lat="39.8497667" lon="8.5834983"><ele>4.0</ele><time>2026-05-02T12:20:26.354Z</time></trkpt><trkpt lat="39.84964" lon="8.5837483"><ele>3.5</ele><time>2026-05-02T12:20:27.354Z</time></trkpt><trkpt lat="39.8495133" lon="8.583995"><ele>3.0</ele><time>2026-05-02T12:20:28.354Z</time></trkpt><trkpt lat="39.8493884" lon="8.5842503"><ele>2.6666666666666665</ele><time>2026-05-02T12:20:29.354Z</time></trkpt><trkpt lat="39.8492669" lon="8.5845003"><ele>2.333333333333333</ele><time>2026-05-02T12:20:30.354Z</time></trkpt><trkpt lat="39.8491486" lon="8.5847447"><ele>2.0</ele><time>2026-05-02T12:20:31.354Z</time></trkpt><trkpt lat="39.8490221" lon="8.5849936"><ele>2.0</ele><time>2026-05-02T12:20:32.354Z</time></trkpt><trkpt lat="39.8488985" lon="8.5852437"><ele>2.0</ele><time>2026-05-02T12:20:33.354Z</time></trkpt><trkpt lat="39.8487709" lon="8.5854932"><ele>2.5</ele><time>2026-05-02T12:20:34.354Z</time></trkpt><trkpt lat="39.8486451" lon="8.5857451"><ele>3.0</ele><time>2026-05-02T12:20:35.354Z</time></trkpt><trkpt lat="39.8485211" lon="8.5859955"><ele>3.5</ele><time>2026-05-02T12:20:36.354Z</time></trkpt><trkpt lat="39.8483988" lon="8.5862433"><ele>4.0</ele><time>2026-05-02T12:20:37.354Z</time></trkpt><trkpt lat="39.8482771" lon="8.5864892"><ele>4.0</ele><time>2026-05-02T12:20:38.354Z</time></trkpt><trkpt lat="39.8481541" lon="8.5867371"><ele>4.0</ele><time>2026-05-02T12:20:39.354Z</time></trkpt><trkpt lat="39.8480368" lon="8.5869883"><ele>3.333333333333333</ele><time>2026-05-02T12:20:40.354Z</time></trkpt><trkpt lat="39.847919" lon="8.5872394"><ele>2.6666666666666665</ele><time>2026-05-02T12:20:41.354Z</time></trkpt><trkpt lat="39.847801" lon="8.5874663"><ele>2.0</ele><time>2026-05-02T12:20:42.354Z</time></trkpt><trkpt lat="39.8476879" lon="8.5876849"><ele>3.0</ele><time>2026-05-02T12:20:43.354Z</time></trkpt><trkpt lat="39.8475845" lon="8.587895"><ele>4.0</ele><time>2026-05-02T12:20:44.354Z</time></trkpt><trkpt lat="39.8474854" lon="8.5880918"><ele>5.0</ele><time>2026-05-02T12:20:45.354Z</time></trkpt><trkpt lat="39.847396" lon="8.5882701"><ele>5.0</ele><time>2026-05-02T12:20:46.354Z</time></trkpt><trkpt lat="39.8473129" lon="8.5884374"><ele>5.0</ele><time>2026-05-02T12:20:47.354Z</time></trkpt><trkpt lat="39.8472334" lon="8.5885976"><ele>5.0</ele><time>2026-05-02T12:20:48.354Z</time></trkpt><trkpt lat="39.8471518" lon="8.5887523"><ele>5.0</ele><time>2026-05-02T12:20:49.354Z</time></trkpt><trkpt lat="39.8470625" lon="8.5888919"><ele>4.5</ele><time>2026-05-02T12:20:50.354Z</time></trkpt><trkpt lat="39.8469591" lon="8.5890088"><ele>4.0</ele><time>2026-05-02T12:20:51.354Z</time></trkpt><trkpt lat="39.8468421" lon="8.5891086"><ele>3.5</ele><time>2026-05-02T12:20:52.354Z</time></trkpt><trkpt lat="39.8467103" lon="8.5891825"><ele>3.0</ele><time>2026-05-02T12:20:53.354Z</time></trkpt><trkpt lat="39.8465696" lon="8.5892259"><ele>2.6666666666666665</ele><time>2026-05-02T12:20:54.354Z</time></trkpt><trkpt lat="39.8464228" lon="8.589239"><ele>2.333333333333333</ele><time>2026-05-02T12:20:55.354Z</time></trkpt><trkpt lat="39.8462691" lon="8.5892063"><ele>2.0</ele><time>2026-05-02T12:20:56.354Z</time></trkpt><trkpt lat="39.8461205" lon="8.5891344"><ele>2.0</ele><time>2026-05-02T12:20:57.354Z</time></trkpt><trkpt lat="39.8459802" lon="8.5890266"><ele>2.0</ele><time>2026-05-02T12:20:58.354Z</time></trkpt><trkpt lat="39.8458411" lon="8.5889101"><ele>2.0</ele><time>2026-05-02T12:20:59.354Z</time></trkpt><trkpt lat="39.8456914" lon="8.5887876"><ele>2.0</ele><time>2026-05-02T12:21:00.354Z</time></trkpt><trkpt lat="39.8455348" lon="8.5886606"><ele>2.0</ele><time>2026-05-02T12:21:01.354Z</time></trkpt><trkpt lat="39.8453641" lon="8.5885457"><ele>2.0</ele><time>2026-05-02T12:21:02.354Z</time></trkpt><trkpt lat="39.8451909" lon="8.5884453"><ele>2.333333333333333</ele><time>2026-05-02T12:21:03.354Z</time></trkpt><trkpt lat="39.8450094" lon="8.5883591"><ele>2.6666666666666665</ele><time>2026-05-02T12:21:04.354Z</time></trkpt><trkpt lat="39.8448106" lon="8.5882738"><ele>3.0</ele><time>2026-05-02T12:21:05.354Z</time></trkpt><trkpt lat="39.8446183" lon="8.5882026"><ele>3.0</ele><time>2026-05-02T12:21:06.354Z</time></trkpt><trkpt lat="39.8444313" lon="8.5881339"><ele>3.0</ele><time>2026-05-02T12:21:07.354Z</time></trkpt><trkpt lat="39.8442561" lon="8.5880532"><ele>3.0</ele><time>2026-05-02T12:21:08.354Z</time></trkpt><trkpt lat="39.8440803" lon="8.5879712"><ele>3.333333333333333</ele><time>2026-05-02T12:21:09.354Z</time></trkpt><trkpt lat="39.8439042" lon="8.5878902"><ele>3.6666666666666665</ele><time>2026-05-02T12:21:10.354Z</time></trkpt><trkpt lat="39.8437277" lon="8.5878119"><ele>4.0</ele><time>2026-05-02T12:21:11.354Z</time></trkpt><trkpt lat="39.8435567" lon="8.5877377"><ele>3.333333333333333</ele><time>2026-05-02T12:21:12.354Z</time></trkpt><trkpt lat="39.8433752" lon="8.5876635"><ele>2.6666666666666665</ele><time>2026-05-02T12:21:13.354Z</time></trkpt><trkpt lat="39.84318" lon="8.5875814"><ele>2.0</ele><time>2026-05-02T12:21:14.354Z</time></trkpt><trkpt lat="39.8429965" lon="8.5874903"><ele>2.0</ele><time>2026-05-02T12:21:15.354Z</time></trkpt><trkpt lat="39.8428116" lon="8.5874033"><ele>2.0</ele><time>2026-05-02T12:21:16.354Z</time></trkpt><trkpt lat="39.8426263" lon="8.5873139"><ele>2.0</ele><time>2026-05-02T12:21:17.354Z</time></trkpt><trkpt lat="39.8424334" lon="8.5872274"><ele>2.333333333333333</ele><time>2026-05-02T12:21:18.354Z</time></trkpt><trkpt lat="39.8422386" lon="8.587143"><ele>2.6666666666666665</ele><time>2026-05-02T12:21:19.354Z</time></trkpt><trkpt lat="39.8420422" lon="8.587058"><ele>3.0</ele><time>2026-05-02T12:21:20.354Z</time></trkpt><trkpt lat="39.8418564" lon="8.5869706"><ele>4.0</ele><time>2026-05-02T12:21:21.354Z</time></trkpt><trkpt lat="39.841675" lon="8.5868902"><ele>5.0</ele><time>2026-05-02T12:21:22.354Z</time></trkpt><trkpt lat="39.8414841" lon="8.5868157"><ele>6.0</ele><time>2026-05-02T12:21:23.354Z</time></trkpt><trkpt lat="39.8413025" lon="8.586735"><ele>6.0</ele><time>2026-05-02T12:21:24.354Z</time></trkpt><trkpt lat="39.8411125" lon="8.5866506"><ele>6.0</ele><time>2026-05-02T12:21:25.354Z</time></trkpt><trkpt lat="39.8409273" lon="8.5865643"><ele>6.0</ele><time>2026-05-02T12:21:26.354Z</time></trkpt><trkpt lat="39.8407413" lon="8.586475"><ele>6.0</ele><time>2026-05-02T12:21:27.354Z</time></trkpt><trkpt lat="39.8405573" lon="8.5863934"><ele>6.0</ele><time>2026-05-02T12:21:28.354Z</time></trkpt><trkpt lat="39.8403726" lon="8.5863157"><ele>6.0</ele><time>2026-05-02T12:21:29.354Z</time></trkpt><trkpt lat="39.8401804" lon="8.5862368"><ele>5.0</ele><time>2026-05-02T12:21:30.354Z</time></trkpt><trkpt lat="39.8399899" lon="8.5861539"><ele>4.0</ele><time>2026-05-02T12:21:31.354Z</time></trkpt><trkpt lat="39.8398084" lon="8.5860717"><ele>3.0</ele><time>2026-05-02T12:21:32.354Z</time></trkpt><trkpt lat="39.8396292" lon="8.5859909"><ele>3.0</ele><time>2026-05-02T12:21:33.354Z</time></trkpt><trkpt lat="39.839435" lon="8.5858998"><ele>3.0</ele><time>2026-05-02T12:21:34.354Z</time></trkpt><trkpt lat="39.839245" lon="8.5858062"><ele>3.0</ele><time>2026-05-02T12:21:35.354Z</time></trkpt><trkpt lat="39.839055" lon="8.5857117"><ele>3.333333333333333</ele><time>2026-05-02T12:21:36.354Z</time></trkpt><trkpt lat="39.8388667" lon="8.58563"><ele>3.6666666666666665</ele><time>2026-05-02T12:21:37.354Z</time></trkpt><trkpt lat="39.8386783" lon="8.5855467"><ele>4.0</ele><time>2026-05-02T12:21:38.354Z</time></trkpt><trkpt lat="39.8384967" lon="8.5854617"><ele>3.6666666666666665</ele><time>2026-05-02T12:21:39.354Z</time></trkpt><trkpt lat="39.83831" lon="8.58537"><ele>3.333333333333333</ele><time>2026-05-02T12:21:40.354Z</time></trkpt><trkpt lat="39.8381233" lon="8.5852883"><ele>3.0</ele><time>2026-05-02T12:21:41.354Z</time></trkpt><trkpt lat="39.83793" lon="8.5852067"><ele>3.333333333333333</ele><time>2026-05-02T12:21:42.354Z</time></trkpt><trkpt lat="39.8377417" lon="8.585125"><ele>3.6666666666666665</ele><time>2026-05-02T12:21:43.354Z</time></trkpt><trkpt lat="39.8375633" lon="8.585045"><ele>4.0</ele><time>2026-05-02T12:21:44.354Z</time></trkpt><trkpt lat="39.83739" lon="8.584965"><ele>4.0</ele><time>2026-05-02T12:21:45.354Z</time></trkpt><trkpt lat="39.8372083" lon="8.5848783"><ele>4.0</ele><time>2026-05-02T12:21:46.354Z</time></trkpt><trkpt lat="39.837025" lon="8.5847933"><ele>4.0</ele><time>2026-05-02T12:21:47.354Z</time></trkpt><trkpt lat="39.8368417" lon="8.5847067"><ele>4.0</ele><time>2026-05-02T12:21:48.354Z</time></trkpt><trkpt lat="39.8366533" lon="8.5846233"><ele>4.0</ele><time>2026-05-02T12:21:49.354Z</time></trkpt><trkpt lat="39.8364667" lon="8.5845267"><ele>4.0</ele><time>2026-05-02T12:21:50.354Z</time></trkpt><trkpt lat="39.8362683" lon="8.5844333"><ele>4.0</ele><time>2026-05-02T12:21:51.354Z</time></trkpt><trkpt lat="39.8360867" lon="8.584345"><ele>4.0</ele><time>2026-05-02T12:21:52.354Z</time></trkpt><trkpt lat="39.8358783" lon="8.58423"><ele>4.0</ele><time>2026-05-02T12:21:53.354Z</time></trkpt><trkpt lat="39.8357" lon="8.5841233"><ele>4.333333333333333</ele><time>2026-05-02T12:21:54.354Z</time></trkpt><trkpt lat="39.83552" lon="8.5840167"><ele>4.666666666666667</ele><time>2026-05-02T12:21:55.354Z</time></trkpt><trkpt lat="39.8353283" lon="8.58392"><ele>5.0</ele><time>2026-05-02T12:21:56.354Z</time></trkpt><trkpt lat="39.835135" lon="8.5838167"><ele>5.0</ele><time>2026-05-02T12:21:57.354Z</time></trkpt><trkpt lat="39.834945" lon="8.5837183"><ele>5.0</ele><time>2026-05-02T12:21:58.354Z</time></trkpt><trkpt lat="39.8347533" lon="8.5836117"><ele>5.0</ele><time>2026-05-02T12:21:59.354Z</time></trkpt><trkpt lat="39.8345567" lon="8.5835067"><ele>5.0</ele><time>2026-05-02T12:22:00.354Z</time></trkpt><trkpt lat="39.8343633" lon="8.5834"><ele>5.0</ele><time>2026-05-02T12:22:01.354Z</time></trkpt><trkpt lat="39.8341667" lon="8.583295"><ele>5.0</ele><time>2026-05-02T12:22:02.354Z</time></trkpt><trkpt lat="39.83397" lon="8.583185"><ele>5.0</ele><time>2026-05-02T12:22:03.354Z</time></trkpt><trkpt lat="39.8337733" lon="8.5830733"><ele>5.0</ele><time>2026-05-02T12:22:04.354Z</time></trkpt><trkpt lat="39.8335833" lon="8.5829667"><ele>5.0</ele><time>2026-05-02T12:22:05.354Z</time></trkpt><trkpt lat="39.83339" lon="8.58286"><ele>4.666666666666667</ele><time>2026-05-02T12:22:06.354Z</time></trkpt><trkpt lat="39.8332" lon="8.5827583"><ele>4.333333333333333</ele><time>2026-05-02T12:22:07.354Z</time></trkpt><trkpt lat="39.8330183" lon="8.582655"><ele>4.0</ele><time>2026-05-02T12:22:08.354Z</time></trkpt><trkpt lat="39.8328267" lon="8.5825533"><ele>4.333333333333333</ele><time>2026-05-02T12:22:09.354Z</time></trkpt><trkpt lat="39.832635" lon="8.5824483"><ele>4.666666666666667</ele><time>2026-05-02T12:22:10.354Z</time></trkpt><trkpt lat="39.83244" lon="8.5823383"><ele>5.0</ele><time>2026-05-02T12:22:11.354Z</time></trkpt><trkpt lat="39.8322483" lon="8.5822333"><ele>5.0</ele><time>2026-05-02T12:22:12.354Z</time></trkpt><trkpt lat="39.8320533" lon="8.58213"><ele>5.0</ele><time>2026-05-02T12:22:13.354Z</time></trkpt><trkpt lat="39.8318567" lon="8.5820367"><ele>5.0</ele><time>2026-05-02T12:22:14.354Z</time></trkpt><trkpt lat="39.8316667" lon="8.5819333"><ele>5.333333333333334</ele><time>2026-05-02T12:22:15.354Z</time></trkpt><trkpt lat="39.8314767" lon="8.5818183"><ele>5.666666666666667</ele><time>2026-05-02T12:22:16.354Z</time></trkpt><trkpt lat="39.8312883" lon="8.5817"><ele>6.0</ele><time>2026-05-02T12:22:17.354Z</time></trkpt><trkpt lat="39.8311" lon="8.581605"><ele>6.0</ele><time>2026-05-02T12:22:18.354Z</time></trkpt><trkpt lat="39.830905" lon="8.5814917"><ele>6.0</ele><time>2026-05-02T12:22:19.354Z</time></trkpt><trkpt lat="39.8307133" lon="8.5813917"><ele>6.0</ele><time>2026-05-02T12:22:20.354Z</time></trkpt><trkpt lat="39.8305083" lon="8.5812817"><ele>6.333333333333334</ele><time>2026-05-02T12:22:21.354Z</time></trkpt><trkpt lat="39.83031" lon="8.5811783"><ele>6.666666666666667</ele><time>2026-05-02T12:22:22.354Z</time></trkpt><trkpt lat="39.83012" lon="8.581075"><ele>7.0</ele><time>2026-05-02T12:22:23.354Z</time></trkpt><trkpt lat="39.8299267" lon="8.5809583"><ele>7.0</ele><time>2026-05-02T12:22:24.354Z</time></trkpt><trkpt lat="39.82974" lon="8.5808517"><ele>7.0</ele><time>2026-05-02T12:22:25.354Z</time></trkpt><trkpt lat="39.8295517" lon="8.5807417"><ele>7.0</ele><time>2026-05-02T12:22:26.354Z</time></trkpt><trkpt lat="39.8293633" lon="8.580635"><ele>7.666666666666667</ele><time>2026-05-02T12:22:27.354Z</time></trkpt><trkpt lat="39.8291783" lon="8.5805433"><ele>8.333333333333334</ele><time>2026-05-02T12:22:28.354Z</time></trkpt><trkpt lat="39.8289767" lon="8.5804383"><ele>9.0</ele><time>2026-05-02T12:22:29.354Z</time></trkpt><trkpt lat="39.8287767" lon="8.5803283"><ele>8.666666666666666</ele><time>2026-05-02T12:22:30.354Z</time></trkpt><trkpt lat="39.8285783" lon="8.5802183"><ele>8.333333333333332</ele><time>2026-05-02T12:22:31.354Z</time></trkpt><trkpt lat="39.8283767" lon="8.5801017"><ele>8.0</ele><time>2026-05-02T12:22:32.354Z</time></trkpt><trkpt lat="39.8281867" lon="8.5799983"><ele>8.0</ele><time>2026-05-02T12:22:33.354Z</time></trkpt><trkpt lat="39.828005" lon="8.5798983"><ele>8.0</ele><time>2026-05-02T12:22:34.354Z</time></trkpt><trkpt lat="39.827815" lon="8.5797967"><ele>8.0</ele><time>2026-05-02T12:22:35.354Z</time></trkpt><trkpt lat="39.8276233" lon="8.5797"><ele>7.666666666666666</ele><time>2026-05-02T12:22:36.354Z</time></trkpt><trkpt lat="39.8274283" lon="8.5795933"><ele>7.333333333333334</ele><time>2026-05-02T12:22:37.354Z</time></trkpt><trkpt lat="39.8272333" lon="8.5794917"><ele>7.0</ele><time>2026-05-02T12:22:38.354Z</time></trkpt><trkpt lat="39.82705" lon="8.5793967"><ele>6.666666666666667</ele><time>2026-05-02T12:22:39.354Z</time></trkpt><trkpt lat="39.8268667" lon="8.5792767"><ele>6.333333333333334</ele><time>2026-05-02T12:22:40.354Z</time></trkpt><trkpt lat="39.826685" lon="8.5791517"><ele>6.0</ele><time>2026-05-02T12:22:41.354Z</time></trkpt><trkpt lat="39.8265167" lon="8.57901"><ele>5.666666666666667</ele><time>2026-05-02T12:22:42.354Z</time></trkpt><trkpt lat="39.8263517" lon="8.578845"><ele>5.333333333333334</ele><time>2026-05-02T12:22:43.354Z</time></trkpt><trkpt lat="39.8261867" lon="8.578665"><ele>5.0</ele><time>2026-05-02T12:22:44.354Z</time></trkpt><trkpt lat="39.8260267" lon="8.5784783"><ele>5.0</ele><time>2026-05-02T12:22:45.354Z</time></trkpt><trkpt lat="39.825865" lon="8.5783117"><ele>5.0</ele><time>2026-05-02T12:22:46.354Z</time></trkpt><trkpt lat="39.8257117" lon="8.57814"><ele>5.0</ele><time>2026-05-02T12:22:47.354Z</time></trkpt><trkpt lat="39.82554" lon="8.5779617"><ele>4.666666666666667</ele><time>2026-05-02T12:22:48.354Z</time></trkpt><trkpt lat="39.8253867" lon="8.5777933"><ele>4.333333333333333</ele><time>2026-05-02T12:22:49.354Z</time></trkpt><trkpt lat="39.8252367" lon="8.5776333"><ele>4.0</ele><time>2026-05-02T12:22:50.354Z</time></trkpt><trkpt lat="39.8250733" lon="8.5774917"><ele>4.0</ele><time>2026-05-02T12:22:51.354Z</time></trkpt><trkpt lat="39.8249" lon="8.5773567"><ele>4.0</ele><time>2026-05-02T12:22:52.354Z</time></trkpt><trkpt lat="39.8247133" lon="8.57724"><ele>4.0</ele><time>2026-05-02T12:22:53.354Z</time></trkpt><trkpt lat="39.82453" lon="8.5771633"><ele>4.0</ele><time>2026-05-02T12:22:54.354Z</time></trkpt><trkpt lat="39.82434" lon="8.577085"><ele>4.0</ele><time>2026-05-02T12:22:55.354Z</time></trkpt><trkpt lat="39.8241433" lon="8.5770117"><ele>4.0</ele><time>2026-05-02T12:22:56.354Z</time></trkpt><trkpt lat="39.8239567" lon="8.5769483"><ele>3.0</ele><time>2026-05-02T12:22:57.354Z</time></trkpt><trkpt lat="39.82376" lon="8.5768883"><ele>2.0</ele><time>2026-05-02T12:22:58.354Z</time></trkpt><trkpt lat="39.823555" lon="8.576855"><ele>1.0</ele><time>2026-05-02T12:22:59.354Z</time></trkpt><trkpt lat="39.8233517" lon="8.57684"><ele>1.0</ele><time>2026-05-02T12:23:00.354Z</time></trkpt><trkpt lat="39.8231433" lon="8.5768517"><ele>1.0</ele><time>2026-05-02T12:23:01.354Z</time></trkpt><trkpt lat="39.8229417" lon="8.5768917"><ele>1.0</ele><time>2026-05-02T12:23:02.354Z</time></trkpt><trkpt lat="39.8227433" lon="8.5769333"><ele>1.0</ele><time>2026-05-02T12:23:03.354Z</time></trkpt><trkpt lat="39.82254" lon="8.5769733"><ele>1.0</ele><time>2026-05-02T12:23:04.354Z</time></trkpt><trkpt lat="39.8223367" lon="8.5770067"><ele>1.0</ele><time>2026-05-02T12:23:05.354Z</time></trkpt><trkpt lat="39.8221333" lon="8.5770133"><ele>1.0</ele><time>2026-05-02T12:23:06.354Z</time></trkpt><trkpt lat="39.8219467" lon="8.5769767"><ele>1.0</ele><time>2026-05-02T12:23:07.354Z</time></trkpt><trkpt lat="39.8217767" lon="8.57691"><ele>1.0</ele><time>2026-05-02T12:23:08.354Z</time></trkpt><trkpt lat="39.821605" lon="8.5767983"><ele>0.6666666666666666</ele><time>2026-05-02T12:23:09.354Z</time></trkpt><trkpt lat="39.8214433" lon="8.5766533"><ele>0.3333333333333333</ele><time>2026-05-02T12:23:10.354Z</time></trkpt><trkpt lat="39.8212917" lon="8.576495"><ele>0.0</ele><time>2026-05-02T12:23:11.354Z</time></trkpt><trkpt lat="39.821155" lon="8.5763333"><ele>0.0</ele><time>2026-05-02T12:23:12.354Z</time></trkpt><trkpt lat="39.8210267" lon="8.5761733"><ele>0.0</ele><time>2026-05-02T12:23:13.354Z</time></trkpt><trkpt lat="39.8208967" lon="8.5760033"><ele>0.0</ele><time>2026-05-02T12:23:14.354Z</time></trkpt><trkpt lat="39.8207667" lon="8.575845"><ele>0.0</ele><time>2026-05-02T12:23:15.354Z</time></trkpt><trkpt lat="39.8206283" lon="8.5757"><ele>0.0</ele><time>2026-05-02T12:23:16.354Z</time></trkpt><trkpt lat="39.8205" lon="8.57555"><ele>0.0</ele><time>2026-05-02T12:23:17.354Z</time></trkpt><trkpt lat="39.8203683" lon="8.5754067"><ele>0.0</ele><time>2026-05-02T12:23:18.354Z</time></trkpt><trkpt lat="39.8202483" lon="8.5752633"><ele>0.0</ele><time>2026-05-02T12:23:19.354Z</time></trkpt><trkpt lat="39.8201283" lon="8.575115"><ele>0.0</ele><time>2026-05-02T12:23:20.354Z</time></trkpt><trkpt lat="39.8200083" lon="8.574975"><ele>-0.3333333333333333</ele><time>2026-05-02T12:23:21.354Z</time></trkpt><trkpt lat="39.8198833" lon="8.5748283"><ele>-0.6666666666666666</ele><time>2026-05-02T12:23:22.354Z</time></trkpt><trkpt lat="39.8197533" lon="8.5746883"><ele>-1.0</ele><time>2026-05-02T12:23:23.354Z</time></trkpt><trkpt lat="39.819615" lon="8.574565"><ele>-0.3333333333333333</ele><time>2026-05-02T12:23:24.354Z</time></trkpt><trkpt lat="39.8194733" lon="8.5744433"><ele>0.3333333333333333</ele><time>2026-05-02T12:23:25.354Z</time></trkpt><trkpt lat="39.81932" lon="8.57436"><ele>1.0</ele><time>2026-05-02T12:23:26.354Z</time></trkpt><trkpt lat="39.8191533" lon="8.574295"><ele>1.0</ele><time>2026-05-02T12:23:27.354Z</time></trkpt><trkpt lat="39.8189867" lon="8.5742567"><ele>1.0</ele><time>2026-05-02T12:23:28.354Z</time></trkpt><trkpt lat="39.8188183" lon="8.5742333"><ele>1.0</ele><time>2026-05-02T12:23:29.354Z</time></trkpt><trkpt lat="39.8186533" lon="8.5742117"><ele>1.0</ele><time>2026-05-02T12:23:30.354Z</time></trkpt><trkpt lat="39.81849" lon="8.5741817"><ele>1.0</ele><time>2026-05-02T12:23:31.354Z</time></trkpt><trkpt lat="39.8183217" lon="8.5741533"><ele>1.0</ele><time>2026-05-02T12:23:32.354Z</time></trkpt><trkpt lat="39.8181467" lon="8.5741117"><ele>1.0</ele><time>2026-05-02T12:23:33.354Z</time></trkpt><trkpt lat="39.8179683" lon="8.5740567"><ele>1.0</ele><time>2026-05-02T12:23:34.354Z</time></trkpt><trkpt lat="39.8177867" lon="8.5739717"><ele>1.0</ele><time>2026-05-02T12:23:35.354Z</time></trkpt><trkpt lat="39.817615" lon="8.5738917"><ele>1.3333333333333333</ele><time>2026-05-02T12:23:36.354Z</time></trkpt><trkpt lat="39.8174417" lon="8.5738033"><ele>1.6666666666666665</ele><time>2026-05-02T12:23:37.354Z</time></trkpt><trkpt lat="39.8172783" lon="8.5737233"><ele>2.0</ele><time>2026-05-02T12:23:38.354Z</time></trkpt><trkpt lat="39.817115" lon="8.5736367"><ele>2.0</ele><time>2026-05-02T12:23:39.354Z</time></trkpt><trkpt lat="39.8169583" lon="8.5735467"><ele>2.0</ele><time>2026-05-02T12:23:40.354Z</time></trkpt><trkpt lat="39.81679" lon="8.5734683"><ele>2.0</ele><time>2026-05-02T12:23:41.354Z</time></trkpt><trkpt lat="39.8166183" lon="8.573425"><ele>2.0</ele><time>2026-05-02T12:23:42.354Z</time></trkpt><trkpt lat="39.816425" lon="8.57341"><ele>2.0</ele><time>2026-05-02T12:23:43.354Z</time></trkpt><trkpt lat="39.8162283" lon="8.5734683"><ele>2.0</ele><time>2026-05-02T12:23:44.354Z</time></trkpt><trkpt lat="39.8160583" lon="8.5735567"><ele>2.333333333333333</ele><time>2026-05-02T12:23:45.354Z</time></trkpt><trkpt lat="39.8159067" lon="8.5736967"><ele>2.6666666666666665</ele><time>2026-05-02T12:23:46.354Z</time></trkpt><trkpt lat="39.81578" lon="8.5738717"><ele>3.0</ele><time>2026-05-02T12:23:47.354Z</time></trkpt><trkpt lat="39.815665" lon="8.5740667"><ele>3.0</ele><time>2026-05-02T12:23:48.354Z</time></trkpt><trkpt lat="39.8155717" lon="8.574265"><ele>3.0</ele><time>2026-05-02T12:23:49.354Z</time></trkpt><trkpt lat="39.8154983" lon="8.574465"><ele>3.0</ele><time>2026-05-02T12:23:50.354Z</time></trkpt><trkpt lat="39.8154267" lon="8.57467"><ele>2.3333333333333335</ele><time>2026-05-02T12:23:51.354Z</time></trkpt><trkpt lat="39.8153417" lon="8.57488"><ele>1.6666666666666665</ele><time>2026-05-02T12:23:52.354Z</time></trkpt><trkpt lat="39.8152483" lon="8.5750917"><ele>1.0</ele><time>2026-05-02T12:23:53.354Z</time></trkpt><trkpt lat="39.8151583" lon="8.5753033"><ele>2.0</ele><time>2026-05-02T12:23:54.354Z</time></trkpt><trkpt lat="39.815055" lon="8.575515"><ele>3.0</ele><time>2026-05-02T12:23:55.354Z</time></trkpt><trkpt lat="39.8149667" lon="8.5757217"><ele>4.0</ele><time>2026-05-02T12:23:56.354Z</time></trkpt><trkpt lat="39.8148883" lon="8.5758967"><ele>4.0</ele><time>2026-05-02T12:23:57.354Z</time></trkpt><trkpt lat="39.81481" lon="8.5760733"><ele>4.0</ele><time>2026-05-02T12:23:58.354Z</time></trkpt><trkpt lat="39.8147217" lon="8.5762783"><ele>4.0</ele><time>2026-05-02T12:23:59.354Z</time></trkpt><trkpt lat="39.8146283" lon="8.576485"><ele>3.6666666666666665</ele><time>2026-05-02T12:24:00.354Z</time></trkpt><trkpt lat="39.8145283" lon="8.5767033"><ele>3.333333333333333</ele><time>2026-05-02T12:24:01.354Z</time></trkpt><trkpt lat="39.81442" lon="8.57693"><ele>3.0</ele><time>2026-05-02T12:24:02.354Z</time></trkpt><trkpt lat="39.8143133" lon="8.57715"><ele>3.0</ele><time>2026-05-02T12:24:03.354Z</time></trkpt><trkpt lat="39.814225" lon="8.5773467"><ele>3.0</ele><time>2026-05-02T12:24:04.354Z</time></trkpt><trkpt lat="39.81415" lon="8.5775067"><ele>3.0</ele><time>2026-05-02T12:24:05.354Z</time></trkpt><trkpt lat="39.81408" lon="8.5776667"><ele>3.0</ele><time>2026-05-02T12:24:06.354Z</time></trkpt><trkpt lat="39.8140067" lon="8.5778283"><ele>3.0</ele><time>2026-05-02T12:24:07.354Z</time></trkpt><trkpt lat="39.8139217" lon="8.5779983"><ele>3.0</ele><time>2026-05-02T12:24:08.354Z</time></trkpt><trkpt lat="39.8138217" lon="8.5781583"><ele>3.0</ele><time>2026-05-02T12:24:09.354Z</time></trkpt><trkpt lat="39.8137117" lon="8.578305"><ele>3.0</ele><time>2026-05-02T12:24:10.354Z</time></trkpt><trkpt lat="39.81359" lon="8.5784517"><ele>3.0</ele><time>2026-05-02T12:24:11.354Z</time></trkpt><trkpt lat="39.81347" lon="8.5785933"><ele>2.3333333333333335</ele><time>2026-05-02T12:24:12.354Z</time></trkpt><trkpt lat="39.8133483" lon="8.5787467"><ele>1.6666666666666665</ele><time>2026-05-02T12:24:13.354Z</time></trkpt><trkpt lat="39.8132367" lon="8.5788833"><ele>1.0</ele><time>2026-05-02T12:24:14.354Z</time></trkpt><trkpt lat="39.8131117" lon="8.579045"><ele>1.0</ele><time>2026-05-02T12:24:15.354Z</time></trkpt><trkpt lat="39.8129917" lon="8.5792017"><ele>1.0</ele><time>2026-05-02T12:24:16.354Z</time></trkpt><trkpt lat="39.8128583" lon="8.5793467"><ele>1.0</ele><time>2026-05-02T12:24:17.354Z</time></trkpt><trkpt lat="39.8127183" lon="8.579495"><ele>1.3333333333333333</ele><time>2026-05-02T12:24:18.354Z</time></trkpt><trkpt lat="39.8125783" lon="8.57963"><ele>1.6666666666666665</ele><time>2026-05-02T12:24:19.354Z</time></trkpt><trkpt lat="39.812435" lon="8.579755"><ele>2.0</ele><time>2026-05-02T12:24:20.354Z</time></trkpt><trkpt lat="39.8122883" lon="8.5798817"><ele>2.0</ele><time>2026-05-02T12:24:21.354Z</time></trkpt><trkpt lat="39.8121417" lon="8.5800067"><ele>2.0</ele><time>2026-05-02T12:24:22.354Z</time></trkpt><trkpt lat="39.8120033" lon="8.5801317"><ele>2.0</ele><time>2026-05-02T12:24:23.354Z</time></trkpt><trkpt lat="39.8118517" lon="8.580265"><ele>1.6666666666666665</ele><time>2026-05-02T12:24:24.354Z</time></trkpt><trkpt lat="39.8116917" lon="8.5804033"><ele>1.3333333333333333</ele><time>2026-05-02T12:24:25.354Z</time></trkpt><trkpt lat="39.8115333" lon="8.5805383"><ele>1.0</ele><time>2026-05-02T12:24:26.354Z</time></trkpt><trkpt lat="39.8113683" lon="8.5806717"><ele>1.0</ele><time>2026-05-02T12:24:27.354Z</time></trkpt><trkpt lat="39.8112133" lon="8.58081"><ele>1.0</ele><time>2026-05-02T12:24:28.354Z</time></trkpt><trkpt lat="39.8110633" lon="8.5809367"><ele>1.0</ele><time>2026-05-02T12:24:29.354Z</time></trkpt><trkpt lat="39.8109067" lon="8.5810717"><ele>2.0</ele><time>2026-05-02T12:24:30.354Z</time></trkpt><trkpt lat="39.8107683" lon="8.5812133"><ele>3.0</ele><time>2026-05-02T12:24:31.354Z</time></trkpt><trkpt lat="39.8106267" lon="8.5813633"><ele>4.0</ele><time>2026-05-02T12:24:32.354Z</time></trkpt><trkpt lat="39.8104817" lon="8.5815233"><ele>4.0</ele><time>2026-05-02T12:24:33.354Z</time></trkpt><trkpt lat="39.810335" lon="8.5816683"><ele>4.0</ele><time>2026-05-02T12:24:34.354Z</time></trkpt><trkpt lat="39.8102017" lon="8.58181"><ele>4.0</ele><time>2026-05-02T12:24:35.354Z</time></trkpt><trkpt lat="39.810065" lon="8.5819367"><ele>4.0</ele><time>2026-05-02T12:24:36.354Z</time></trkpt><trkpt lat="39.80993" lon="8.5820317"><ele>4.0</ele><time>2026-05-02T12:24:37.354Z</time></trkpt><trkpt lat="39.8098033" lon="8.5820817"><ele>4.0</ele><time>2026-05-02T12:24:38.354Z</time></trkpt><trkpt lat="39.8096767" lon="8.5820983"><ele>4.0</ele><time>2026-05-02T12:24:39.353Z</time></trkpt><trkpt lat="39.80955" lon="8.5821017"><ele>4.0</ele><time>2026-05-02T12:24:40.353Z</time></trkpt><trkpt lat="39.8094083" lon="8.582095"><ele>4.0</ele><time>2026-05-02T12:24:41.353Z</time></trkpt><trkpt lat="39.8092617" lon="8.58209"><ele>4.0</ele><time>2026-05-02T12:24:42.353Z</time></trkpt><trkpt lat="39.809115" lon="8.5820967"><ele>4.0</ele><time>2026-05-02T12:24:43.353Z</time></trkpt><trkpt lat="39.80897" lon="8.5821033"><ele>4.0</ele><time>2026-05-02T12:24:44.353Z</time></trkpt><trkpt lat="39.808815" lon="8.5821067"><ele>4.0</ele><time>2026-05-02T12:24:45.353Z</time></trkpt><trkpt lat="39.8086517" lon="8.5821083"><ele>4.0</ele><time>2026-05-02T12:24:46.353Z</time></trkpt><trkpt lat="39.8084833" lon="8.5821117"><ele>4.333333333333333</ele><time>2026-05-02T12:24:47.353Z</time></trkpt><trkpt lat="39.80832" lon="8.5821083"><ele>4.666666666666667</ele><time>2026-05-02T12:24:48.353Z</time></trkpt><trkpt lat="39.8081517" lon="8.5821067"><ele>5.0</ele><time>2026-05-02T12:24:49.353Z</time></trkpt><trkpt lat="39.8079817" lon="8.5821083"><ele>5.0</ele><time>2026-05-02T12:24:50.353Z</time></trkpt><trkpt lat="39.8078117" lon="8.5821133"><ele>5.0</ele><time>2026-05-02T12:24:51.353Z</time></trkpt><trkpt lat="39.8076317" lon="8.5821083"><ele>5.0</ele><time>2026-05-02T12:24:52.353Z</time></trkpt><trkpt lat="39.8074517" lon="8.5821017"><ele>4.666666666666667</ele><time>2026-05-02T12:24:53.353Z</time></trkpt><trkpt lat="39.8072583" lon="8.5821017"><ele>4.333333333333333</ele><time>2026-05-02T12:24:54.353Z</time></trkpt><trkpt lat="39.8070683" lon="8.5821033"><ele>4.0</ele><time>2026-05-02T12:24:55.353Z</time></trkpt><trkpt lat="39.8068783" lon="8.582105"><ele>5.0</ele><time>2026-05-02T12:24:56.353Z</time></trkpt><trkpt lat="39.8066933" lon="8.5821017"><ele>6.0</ele><time>2026-05-02T12:24:57.353Z</time></trkpt><trkpt lat="39.80651" lon="8.5821033"><ele>7.0</ele><time>2026-05-02T12:24:58.353Z</time></trkpt><trkpt lat="39.8063233" lon="8.5821067"><ele>7.0</ele><time>2026-05-02T12:24:59.353Z</time></trkpt><trkpt lat="39.8061467" lon="8.582105"><ele>7.0</ele><time>2026-05-02T12:25:00.353Z</time></trkpt><trkpt lat="39.805965" lon="8.5821017"><ele>7.0</ele><time>2026-05-02T12:25:01.353Z</time></trkpt><trkpt lat="39.8057883" lon="8.582105"><ele>7.0</ele><time>2026-05-02T12:25:02.353Z</time></trkpt><trkpt lat="39.805615" lon="8.5820967"><ele>7.0</ele><time>2026-05-02T12:25:03.353Z</time></trkpt><trkpt lat="39.8054467" lon="8.5821083"><ele>7.0</ele><time>2026-05-02T12:25:04.353Z</time></trkpt><trkpt lat="39.8052817" lon="8.5821067"><ele>7.0</ele><time>2026-05-02T12:25:05.353Z</time></trkpt><trkpt lat="39.8051067" lon="8.5820983"><ele>7.0</ele><time>2026-05-02T12:25:06.353Z</time></trkpt><trkpt lat="39.80493" lon="8.5820983"><ele>7.0</ele><time>2026-05-02T12:25:07.353Z</time></trkpt><trkpt lat="39.8047567" lon="8.5820967"><ele>7.0</ele><time>2026-05-02T12:25:08.353Z</time></trkpt><trkpt lat="39.8045867" lon="8.5820983"><ele>7.0</ele><time>2026-05-02T12:25:09.353Z</time></trkpt><trkpt lat="39.8044117" lon="8.5821033"><ele>7.0</ele><time>2026-05-02T12:25:10.353Z</time></trkpt><trkpt lat="39.8042433" lon="8.5821117"><ele>6.0</ele><time>2026-05-02T12:25:11.353Z</time></trkpt><trkpt lat="39.8040733" lon="8.5821117"><ele>5.0</ele><time>2026-05-02T12:25:12.353Z</time></trkpt><trkpt lat="39.803905" lon="8.5821083"><ele>4.0</ele><time>2026-05-02T12:25:13.353Z</time></trkpt><trkpt lat="39.8037467" lon="8.5821067"><ele>4.0</ele><time>2026-05-02T12:25:14.353Z</time></trkpt><trkpt lat="39.80359" lon="8.5821067"><ele>4.0</ele><time>2026-05-02T12:25:15.353Z</time></trkpt><trkpt lat="39.8034433" lon="8.5821083"><ele>4.0</ele><time>2026-05-02T12:25:16.353Z</time></trkpt><trkpt lat="39.80331" lon="8.58211"><ele>4.0</ele><time>2026-05-02T12:25:17.353Z</time></trkpt><trkpt lat="39.80318" lon="8.5821183"><ele>4.0</ele><time>2026-05-02T12:25:18.353Z</time></trkpt><trkpt lat="39.8030533" lon="8.5821167"><ele>4.0</ele><time>2026-05-02T12:25:19.353Z</time></trkpt><trkpt lat="39.8029367" lon="8.5821117"><ele>4.0</ele><time>2026-05-02T12:25:20.353Z</time></trkpt><trkpt lat="39.8028217" lon="8.5821133"><ele>4.0</ele><time>2026-05-02T12:25:21.353Z</time></trkpt><trkpt lat="39.8027133" lon="8.5821133"><ele>4.2</ele><time>2026-05-02T12:25:22.353Z</time></trkpt><trkpt lat="39.8026167" lon="8.5821167"><ele>4.4</ele><time>2026-05-02T12:25:23.353Z</time></trkpt><trkpt lat="39.8025267" lon="8.582115"><ele>4.6</ele><time>2026-05-02T12:25:24.353Z</time></trkpt><trkpt lat="39.80243" lon="8.5821117"><ele>4.8</ele><time>2026-05-02T12:25:25.353Z</time></trkpt><trkpt lat="39.8023317" lon="8.5821083"><ele>5.0</ele><time>2026-05-02T12:25:26.353Z</time></trkpt><trkpt lat="39.80223" lon="8.5821167"><ele>5.0</ele><time>2026-05-02T12:25:27.353Z</time></trkpt><trkpt lat="39.8021267" lon="8.5821117"><ele>5.0</ele><time>2026-05-02T12:25:28.353Z</time></trkpt><trkpt lat="39.8020267" lon="8.58211"><ele>5.0</ele><time>2026-05-02T12:25:29.353Z</time></trkpt><trkpt lat="39.8019117" lon="8.5821183"><ele>5.0</ele><time>2026-05-02T12:25:30.353Z</time></trkpt><trkpt lat="39.8017883" lon="8.5821233"><ele>5.0</ele><time>2026-05-02T12:25:31.353Z</time></trkpt><trkpt lat="39.80165" lon="8.5821283"><ele>5.666666666666667</ele><time>2026-05-02T12:25:32.353Z</time></trkpt><trkpt lat="39.8015033" lon="8.58214"><ele>6.333333333333334</ele><time>2026-05-02T12:25:33.353Z</time></trkpt><trkpt lat="39.801345" lon="8.5821483"><ele>7.0</ele><time>2026-05-02T12:25:34.353Z</time></trkpt><trkpt lat="39.8011717" lon="8.5821567"><ele>6.333333333333334</ele><time>2026-05-02T12:25:35.353Z</time></trkpt><trkpt lat="39.800995" lon="8.5821567"><ele>5.666666666666667</ele><time>2026-05-02T12:25:36.353Z</time></trkpt><trkpt lat="39.800805" lon="8.5821583"><ele>5.0</ele><time>2026-05-02T12:25:37.353Z</time></trkpt><trkpt lat="39.8006167" lon="8.582165"><ele>5.0</ele><time>2026-05-02T12:25:38.353Z</time></trkpt><trkpt lat="39.8004217" lon="8.5821717"><ele>5.0</ele><time>2026-05-02T12:25:39.353Z</time></trkpt><trkpt lat="39.8002217" lon="8.5821667"><ele>5.0</ele><time>2026-05-02T12:25:40.353Z</time></trkpt><trkpt lat="39.8000317" lon="8.5821567"><ele>5.0</ele><time>2026-05-02T12:25:41.353Z</time></trkpt><trkpt lat="39.7998567" lon="8.5821533"><ele>5.0</ele><time>2026-05-02T12:25:42.353Z</time></trkpt><trkpt lat="39.7996767" lon="8.5821533"><ele>5.0</ele><time>2026-05-02T12:25:43.353Z</time></trkpt><trkpt lat="39.799505" lon="8.58215"><ele>4.666666666666667</ele><time>2026-05-02T12:25:44.353Z</time></trkpt><trkpt lat="39.7993267" lon="8.582155"><ele>4.333333333333333</ele><time>2026-05-02T12:25:45.353Z</time></trkpt><trkpt lat="39.79914" lon="8.5821617"><ele>4.0</ele><time>2026-05-02T12:25:46.351Z</time></trkpt><trkpt lat="39.7989617" lon="8.5821683"><ele>4.0</ele><time>2026-05-02T12:25:47.353Z</time></trkpt><trkpt lat="39.79879" lon="8.58216"><ele>4.0</ele><time>2026-05-02T12:25:48.353Z</time></trkpt><trkpt lat="39.7986333" lon="8.58217"><ele>4.0</ele><time>2026-05-02T12:25:49.353Z</time></trkpt><trkpt lat="39.7984717" lon="8.58217"><ele>4.666666666666666</ele><time>2026-05-02T12:25:50.353Z</time></trkpt><trkpt lat="39.798305" lon="8.5821717"><ele>5.333333333333333</ele><time>2026-05-02T12:25:51.353Z</time></trkpt><trkpt lat="39.7981317" lon="8.582165"><ele>6.0</ele><time>2026-05-02T12:25:52.353Z</time></trkpt><trkpt lat="39.7979683" lon="8.582165"><ele>6.0</ele><time>2026-05-02T12:25:53.353Z</time></trkpt><trkpt lat="39.7978133" lon="8.58216"><ele>6.0</ele><time>2026-05-02T12:25:54.353Z</time></trkpt><trkpt lat="39.7976633" lon="8.5821583"><ele>6.0</ele><time>2026-05-02T12:25:55.353Z</time></trkpt><trkpt lat="39.7975067" lon="8.5821617"><ele>6.75</ele><time>2026-05-02T12:25:56.353Z</time></trkpt><trkpt lat="39.797355" lon="8.5821617"><ele>7.5</ele><time>2026-05-02T12:25:57.353Z</time></trkpt><trkpt lat="39.79721" lon="8.5821617"><ele>8.25</ele><time>2026-05-02T12:25:58.353Z</time></trkpt><trkpt lat="39.7970717" lon="8.5821567"><ele>9.0</ele><time>2026-05-02T12:25:59.353Z</time></trkpt><trkpt lat="39.7969317" lon="8.582155"><ele>9.25</ele><time>2026-05-02T12:26:00.353Z</time></trkpt><trkpt lat="39.7967967" lon="8.58216"><ele>9.5</ele><time>2026-05-02T12:26:01.354Z</time></trkpt><trkpt lat="39.7966533" lon="8.58216"><ele>9.75</ele><time>2026-05-02T12:26:02.353Z</time></trkpt><trkpt lat="39.7965" lon="8.5821767"><ele>10.0</ele><time>2026-05-02T12:26:03.353Z</time></trkpt><trkpt lat="39.796335" lon="8.5821683"><ele>10.0</ele><time>2026-05-02T12:26:04.353Z</time></trkpt><trkpt lat="39.7961767" lon="8.5821783"><ele>10.0</ele><time>2026-05-02T12:26:05.353Z</time></trkpt><trkpt lat="39.7960217" lon="8.5821767"><ele>10.0</ele><time>2026-05-02T12:26:06.353Z</time></trkpt><trkpt lat="39.7958717" lon="8.58217"><ele>11.0</ele><time>2026-05-02T12:26:07.353Z</time></trkpt><trkpt lat="39.7957267" lon="8.5821733"><ele>12.0</ele><time>2026-05-02T12:26:08.353Z</time></trkpt><trkpt lat="39.79559" lon="8.58218"><ele>13.0</ele><time>2026-05-02T12:26:09.353Z</time></trkpt><trkpt lat="39.79546" lon="8.5821817"><ele>14.0</ele><time>2026-05-02T12:26:10.353Z</time></trkpt><trkpt lat="39.7953367" lon="8.5821767"><ele>14.0</ele><time>2026-05-02T12:26:11.353Z</time></trkpt><trkpt lat="39.7952217" lon="8.5821767"><ele>13.999999999999998</ele><time>2026-05-02T12:26:12.353Z</time></trkpt><trkpt lat="39.795105" lon="8.5821683"><ele>13.999999999999998</ele><time>2026-05-02T12:26:13.353Z</time></trkpt><trkpt lat="39.7949967" lon="8.5821633"><ele>14.0</ele><time>2026-05-02T12:26:14.353Z</time></trkpt><trkpt lat="39.7948983" lon="8.5821617"><ele>14.0</ele><time>2026-05-02T12:26:15.353Z</time></trkpt><trkpt lat="39.7948067" lon="8.5821583"><ele>14.0</ele><time>2026-05-02T12:26:16.353Z</time></trkpt><trkpt lat="39.794725" lon="8.5821583"><ele>14.0</ele><time>2026-05-02T12:26:17.353Z</time></trkpt><trkpt lat="39.7946517" lon="8.5821417"><ele>14.0</ele><time>2026-05-02T12:26:18.353Z</time></trkpt><trkpt lat="39.79459" lon="8.582105"><ele>14.0</ele><time>2026-05-02T12:26:19.353Z</time></trkpt><trkpt lat="39.7945383" lon="8.582055"><ele>14.0</ele><time>2026-05-02T12:26:20.353Z</time></trkpt><trkpt lat="39.794495" lon="8.58199"><ele>14.0</ele><time>2026-05-02T12:26:21.353Z</time></trkpt><trkpt lat="39.7944633" lon="8.5819017"><ele>14.0</ele><time>2026-05-02T12:26:22.353Z</time></trkpt><trkpt lat="39.7944483" lon="8.5817767"><ele>12.75</ele><time>2026-05-02T12:26:23.353Z</time></trkpt><trkpt lat="39.7944583" lon="8.5816233"><ele>11.5</ele><time>2026-05-02T12:26:24.353Z</time></trkpt><trkpt lat="39.7944833" lon="8.5814233"><ele>10.25</ele><time>2026-05-02T12:26:25.353Z</time></trkpt><trkpt lat="39.79449" lon="8.5812317"><ele>9.0</ele><time>2026-05-02T12:26:26.353Z</time></trkpt><trkpt lat="39.7944967" lon="8.5810583"><ele>7.75</ele><time>2026-05-02T12:26:27.353Z</time></trkpt><trkpt lat="39.794505" lon="8.5808967"><ele>6.5</ele><time>2026-05-02T12:26:28.353Z</time></trkpt><trkpt lat="39.7945083" lon="8.5807217"><ele>5.25</ele><time>2026-05-02T12:26:29.353Z</time></trkpt><trkpt lat="39.7945067" lon="8.580535"><ele>4.0</ele><time>2026-05-02T12:26:30.353Z</time></trkpt><trkpt lat="39.7945117" lon="8.580355"><ele>4.75</ele><time>2026-05-02T12:26:31.353Z</time></trkpt><trkpt lat="39.794515" lon="8.5801617"><ele>5.5</ele><time>2026-05-02T12:26:32.353Z</time></trkpt><trkpt lat="39.7945133" lon="8.5799783"><ele>6.25</ele><time>2026-05-02T12:26:33.353Z</time></trkpt><trkpt lat="39.7945083" lon="8.57979"><ele>7.0</ele><time>2026-05-02T12:26:34.353Z</time></trkpt><trkpt lat="39.794505" lon="8.579605"><ele>7.25</ele><time>2026-05-02T12:26:35.353Z</time></trkpt><trkpt lat="39.7945033" lon="8.5794217"><ele>7.5</ele><time>2026-05-02T12:26:36.353Z</time></trkpt><trkpt lat="39.7945033" lon="8.5792233"><ele>7.75</ele><time>2026-05-02T12:26:37.353Z</time></trkpt><trkpt lat="39.7945083" lon="8.579025"><ele>8.0</ele><time>2026-05-02T12:26:38.353Z</time></trkpt><trkpt lat="39.7945017" lon="8.5788167"><ele>7.666666666666666</ele><time>2026-05-02T12:26:39.353Z</time></trkpt><trkpt lat="39.7945033" lon="8.578605"><ele>7.333333333333334</ele><time>2026-05-02T12:26:40.353Z</time></trkpt><trkpt lat="39.7944917" lon="8.5783983"><ele>7.0</ele><time>2026-05-02T12:26:41.353Z</time></trkpt><trkpt lat="39.7944983" lon="8.5781817"><ele>7.0</ele><time>2026-05-02T12:26:42.353Z</time></trkpt><trkpt lat="39.7944983" lon="8.577975"><ele>7.0</ele><time>2026-05-02T12:26:43.353Z</time></trkpt><trkpt lat="39.7945" lon="8.577755"><ele>7.0</ele><time>2026-05-02T12:26:44.353Z</time></trkpt><trkpt lat="39.7945067" lon="8.5775417"><ele>6.333333333333334</ele><time>2026-05-02T12:26:45.353Z</time></trkpt><trkpt lat="39.7945083" lon="8.5773133"><ele>5.666666666666667</ele><time>2026-05-02T12:26:46.353Z</time></trkpt><trkpt lat="39.794505" lon="8.5770867"><ele>5.0</ele><time>2026-05-02T12:26:47.353Z</time></trkpt><trkpt lat="39.7944883" lon="8.5768733"><ele>5.0</ele><time>2026-05-02T12:26:48.353Z</time></trkpt><trkpt lat="39.794485" lon="8.5766417"><ele>5.0</ele><time>2026-05-02T12:26:49.353Z</time></trkpt><trkpt lat="39.7944867" lon="8.5764117"><ele>5.0</ele><time>2026-05-02T12:26:50.353Z</time></trkpt><trkpt lat="39.7944783" lon="8.5761733"><ele>5.0</ele><time>2026-05-02T12:26:51.353Z</time></trkpt><trkpt lat="39.794495" lon="8.5759567"><ele>5.0</ele><time>2026-05-02T12:26:52.353Z</time></trkpt><trkpt lat="39.7944883" lon="8.5757283"><ele>5.0</ele><time>2026-05-02T12:26:53.353Z</time></trkpt><trkpt lat="39.7944917" lon="8.5755"><ele>5.333333333333334</ele><time>2026-05-02T12:26:54.353Z</time></trkpt><trkpt lat="39.794485" lon="8.5752633"><ele>5.666666666666667</ele><time>2026-05-02T12:26:55.353Z</time></trkpt><trkpt lat="39.7944867" lon="8.5750333"><ele>6.0</ele><time>2026-05-02T12:26:56.353Z</time></trkpt><trkpt lat="39.7944883" lon="8.5748017"><ele>6.0</ele><time>2026-05-02T12:26:57.353Z</time></trkpt><trkpt lat="39.79449" lon="8.57456"><ele>6.0</ele><time>2026-05-02T12:26:58.353Z</time></trkpt><trkpt lat="39.7944883" lon="8.5743267"><ele>6.0</ele><time>2026-05-02T12:26:59.353Z</time></trkpt><trkpt lat="39.7944883" lon="8.574095"><ele>6.0</ele><time>2026-05-02T12:27:00.353Z</time></trkpt><trkpt lat="39.7944933" lon="8.5738517"><ele>6.0</ele><time>2026-05-02T12:27:01.353Z</time></trkpt><trkpt lat="39.7944983" lon="8.57361"><ele>6.0</ele><time>2026-05-02T12:27:02.353Z</time></trkpt><trkpt lat="39.7945017" lon="8.5733717"><ele>6.666666666666666</ele><time>2026-05-02T12:27:03.353Z</time></trkpt><trkpt lat="39.7944967" lon="8.5731383"><ele>7.333333333333333</ele><time>2026-05-02T12:27:04.353Z</time></trkpt><trkpt lat="39.794495" lon="8.5729133"><ele>8.0</ele><time>2026-05-02T12:27:05.353Z</time></trkpt><trkpt lat="39.79449" lon="8.5726917"><ele>8.333333333333332</ele><time>2026-05-02T12:27:06.353Z</time></trkpt><trkpt lat="39.7944733" lon="8.5724833"><ele>8.666666666666666</ele><time>2026-05-02T12:27:07.353Z</time></trkpt><trkpt lat="39.7944683" lon="8.5722883"><ele>9.0</ele><time>2026-05-02T12:27:08.353Z</time></trkpt><trkpt lat="39.7944633" lon="8.57209"><ele>8.75</ele><time>2026-05-02T12:27:09.353Z</time></trkpt><trkpt lat="39.7944583" lon="8.5718983"><ele>8.5</ele><time>2026-05-02T12:27:10.353Z</time></trkpt><trkpt lat="39.7944583" lon="8.571715"><ele>8.25</ele><time>2026-05-02T12:27:11.353Z</time></trkpt><trkpt lat="39.7944633" lon="8.5715267"><ele>8.0</ele><time>2026-05-02T12:27:12.353Z</time></trkpt><trkpt lat="39.7944667" lon="8.5713617"><ele>7.5</ele><time>2026-05-02T12:27:13.353Z</time></trkpt><trkpt lat="39.7944667" lon="8.57119"><ele>7.0</ele><time>2026-05-02T12:27:14.353Z</time></trkpt><trkpt lat="39.7944583" lon="8.5710083"><ele>6.5</ele><time>2026-05-02T12:27:15.353Z</time></trkpt><trkpt lat="39.7944617" lon="8.5708217"><ele>6.0</ele><time>2026-05-02T12:27:16.353Z</time></trkpt><trkpt lat="39.794465" lon="8.5706133"><ele>6.0</ele><time>2026-05-02T12:27:17.353Z</time></trkpt><trkpt lat="39.7944583" lon="8.5704117"><ele>6.0</ele><time>2026-05-02T12:27:18.353Z</time></trkpt><trkpt lat="39.7944667" lon="8.5702017"><ele>6.0</ele><time>2026-05-02T12:27:19.353Z</time></trkpt><trkpt lat="39.794475" lon="8.5699967"><ele>5.666666666666667</ele><time>2026-05-02T12:27:20.353Z</time></trkpt><trkpt lat="39.79448" lon="8.5697867"><ele>5.333333333333334</ele><time>2026-05-02T12:27:21.353Z</time></trkpt><trkpt lat="39.7944733" lon="8.5695617"><ele>5.0</ele><time>2026-05-02T12:27:22.353Z</time></trkpt><trkpt lat="39.7944717" lon="8.56935"><ele>4.666666666666667</ele><time>2026-05-02T12:27:23.353Z</time></trkpt><trkpt lat="39.7944833" lon="8.5691333"><ele>4.333333333333333</ele><time>2026-05-02T12:27:24.353Z</time></trkpt><trkpt lat="39.79448" lon="8.5689083"><ele>4.0</ele><time>2026-05-02T12:27:25.353Z</time></trkpt><trkpt lat="39.7944667" lon="8.5686733"><ele>4.0</ele><time>2026-05-02T12:27:26.353Z</time></trkpt><trkpt lat="39.7944617" lon="8.56842"><ele>4.0</ele><time>2026-05-02T12:27:27.353Z</time></trkpt><trkpt lat="39.794455" lon="8.56817"><ele>4.0</ele><time>2026-05-02T12:27:28.353Z</time></trkpt><trkpt lat="39.79445" lon="8.5679083"><ele>4.666666666666666</ele><time>2026-05-02T12:27:29.353Z</time></trkpt><trkpt lat="39.79444" lon="8.567665"><ele>5.333333333333333</ele><time>2026-05-02T12:27:30.353Z</time></trkpt><trkpt lat="39.7944533" lon="8.5674217"><ele>6.0</ele><time>2026-05-02T12:27:31.353Z</time></trkpt><trkpt lat="39.7944583" lon="8.567185"><ele>5.666666666666667</ele><time>2026-05-02T12:27:32.353Z</time></trkpt><trkpt lat="39.7944617" lon="8.5669367"><ele>5.333333333333334</ele><time>2026-05-02T12:27:33.353Z</time></trkpt><trkpt lat="39.79448" lon="8.566695"><ele>5.0</ele><time>2026-05-02T12:27:34.352Z</time></trkpt><trkpt lat="39.7944933" lon="8.56646"><ele>5.0</ele><time>2026-05-02T12:27:35.353Z</time></trkpt><trkpt lat="39.79449" lon="8.5662317"><ele>5.0</ele><time>2026-05-02T12:27:36.353Z</time></trkpt><trkpt lat="39.7944917" lon="8.5660133"><ele>5.0</ele><time>2026-05-02T12:27:37.353Z</time></trkpt><trkpt lat="39.7944933" lon="8.5658033"><ele>5.0</ele><time>2026-05-02T12:27:38.353Z</time></trkpt><trkpt lat="39.7944967" lon="8.5655867"><ele>5.0</ele><time>2026-05-02T12:27:39.353Z</time></trkpt><trkpt lat="39.7944933" lon="8.5653733"><ele>5.0</ele><time>2026-05-02T12:27:40.353Z</time></trkpt><trkpt lat="39.79448" lon="8.5651633"><ele>4.666666666666667</ele><time>2026-05-02T12:27:41.353Z</time></trkpt><trkpt lat="39.7944783" lon="8.5649617"><ele>4.333333333333333</ele><time>2026-05-02T12:27:42.353Z</time></trkpt><trkpt lat="39.79448" lon="8.56475"><ele>4.0</ele><time>2026-05-02T12:27:43.353Z</time></trkpt><trkpt lat="39.79447" lon="8.5645167"><ele>4.0</ele><time>2026-05-02T12:27:44.353Z</time></trkpt><trkpt lat="39.79446" lon="8.5643033"><ele>4.0</ele><time>2026-05-02T12:27:45.353Z</time></trkpt><trkpt lat="39.7944617" lon="8.5640833"><ele>4.0</ele><time>2026-05-02T12:27:46.353Z</time></trkpt><trkpt lat="39.7944683" lon="8.563865"><ele>4.333333333333333</ele><time>2026-05-02T12:27:47.353Z</time></trkpt><trkpt lat="39.7944633" lon="8.5636283"><ele>4.666666666666667</ele><time>2026-05-02T12:27:48.353Z</time></trkpt><trkpt lat="39.79447" lon="8.5633967"><ele>5.0</ele><time>2026-05-02T12:27:49.353Z</time></trkpt><trkpt lat="39.79447" lon="8.5631683"><ele>5.0</ele><time>2026-05-02T12:27:50.353Z</time></trkpt><trkpt lat="39.79447" lon="8.56293"><ele>5.0</ele><time>2026-05-02T12:27:51.353Z</time></trkpt><trkpt lat="39.794465" lon="8.5626967"><ele>5.0</ele><time>2026-05-02T12:27:52.353Z</time></trkpt><trkpt lat="39.79446" lon="8.5624517"><ele>4.666666666666667</ele><time>2026-05-02T12:27:53.353Z</time></trkpt><trkpt lat="39.79446" lon="8.562205"><ele>4.333333333333333</ele><time>2026-05-02T12:27:54.353Z</time></trkpt><trkpt lat="39.7944633" lon="8.561975"><ele>4.0</ele><time>2026-05-02T12:27:55.353Z</time></trkpt><trkpt lat="39.7944617" lon="8.5617333"><ele>3.6666666666666665</ele><time>2026-05-02T12:27:56.353Z</time></trkpt><trkpt lat="39.7944583" lon="8.561485"><ele>3.333333333333333</ele><time>2026-05-02T12:27:57.353Z</time></trkpt><trkpt lat="39.794455" lon="8.5612517"><ele>3.0</ele><time>2026-05-02T12:27:58.353Z</time></trkpt><trkpt lat="39.7944467" lon="8.56101"><ele>3.0</ele><time>2026-05-02T12:27:59.353Z</time></trkpt><trkpt lat="39.7944433" lon="8.5607767"><ele>3.0</ele><time>2026-05-02T12:28:00.353Z</time></trkpt><trkpt lat="39.79445" lon="8.5605517"><ele>3.0</ele><time>2026-05-02T12:28:01.353Z</time></trkpt><trkpt lat="39.7944617" lon="8.560325"><ele>3.333333333333333</ele><time>2026-05-02T12:28:02.353Z</time></trkpt><trkpt lat="39.7944633" lon="8.5600933"><ele>3.6666666666666665</ele><time>2026-05-02T12:28:03.353Z</time></trkpt><trkpt lat="39.7944683" lon="8.5598533"><ele>4.0</ele><time>2026-05-02T12:28:04.353Z</time></trkpt><trkpt lat="39.7944683" lon="8.5596217"><ele>4.333333333333333</ele><time>2026-05-02T12:28:05.353Z</time></trkpt><trkpt lat="39.7944683" lon="8.5593867"><ele>4.666666666666667</ele><time>2026-05-02T12:28:06.353Z</time></trkpt><trkpt lat="39.7944683" lon="8.5591517"><ele>5.0</ele><time>2026-05-02T12:28:07.353Z</time></trkpt><trkpt lat="39.7944617" lon="8.5589217"><ele>5.333333333333334</ele><time>2026-05-02T12:28:08.353Z</time></trkpt><trkpt lat="39.794465" lon="8.5586917"><ele>5.666666666666667</ele><time>2026-05-02T12:28:09.353Z</time></trkpt><trkpt lat="39.7944667" lon="8.5584633"><ele>6.0</ele><time>2026-05-02T12:28:10.353Z</time></trkpt><trkpt lat="39.79447" lon="8.5582383"><ele>6.0</ele><time>2026-05-02T12:28:11.353Z</time></trkpt><trkpt lat="39.7944667" lon="8.558015"><ele>6.0</ele><time>2026-05-02T12:28:12.353Z</time></trkpt><trkpt lat="39.7944617" lon="8.5578"><ele>6.0</ele><time>2026-05-02T12:28:13.353Z</time></trkpt><trkpt lat="39.7944567" lon="8.55759"><ele>6.0</ele><time>2026-05-02T12:28:14.353Z</time></trkpt><trkpt lat="39.7944567" lon="8.5573767"><ele>6.0</ele><time>2026-05-02T12:28:15.353Z</time></trkpt><trkpt lat="39.79446" lon="8.55718"><ele>6.0</ele><time>2026-05-02T12:28:16.353Z</time></trkpt><trkpt lat="39.7944583" lon="8.5569767"><ele>5.666666666666667</ele><time>2026-05-02T12:28:17.353Z</time></trkpt><trkpt lat="39.7944533" lon="8.5567733"><ele>5.333333333333334</ele><time>2026-05-02T12:28:18.353Z</time></trkpt><trkpt lat="39.79445" lon="8.5565617"><ele>5.0</ele><time>2026-05-02T12:28:19.353Z</time></trkpt><trkpt lat="39.7944483" lon="8.5563533"><ele>5.0</ele><time>2026-05-02T12:28:20.353Z</time></trkpt><trkpt lat="39.79445" lon="8.5561383"><ele>5.0</ele><time>2026-05-02T12:28:21.353Z</time></trkpt><trkpt lat="39.7944533" lon="8.5559333"><ele>5.0</ele><time>2026-05-02T12:28:22.353Z</time></trkpt><trkpt lat="39.7944583" lon="8.55574"><ele>5.0</ele><time>2026-05-02T12:28:23.353Z</time></trkpt><trkpt lat="39.7944583" lon="8.55555"><ele>5.0</ele><time>2026-05-02T12:28:24.353Z</time></trkpt><trkpt lat="39.7944583" lon="8.5553767"><ele>5.0</ele><time>2026-05-02T12:28:25.353Z</time></trkpt><trkpt lat="39.7944617" lon="8.555205"><ele>5.0</ele><time>2026-05-02T12:28:26.353Z</time></trkpt><trkpt lat="39.794465" lon="8.5550417"><ele>4.75</ele><time>2026-05-02T12:28:27.353Z</time></trkpt><trkpt lat="39.79447" lon="8.5548733"><ele>4.5</ele><time>2026-05-02T12:28:28.353Z</time></trkpt><trkpt lat="39.7944717" lon="8.5546983"><ele>4.25</ele><time>2026-05-02T12:28:29.353Z</time></trkpt><trkpt lat="39.794465" lon="8.5545333"><ele>4.0</ele><time>2026-05-02T12:28:30.353Z</time></trkpt><trkpt lat="39.79446" lon="8.5543783"><ele>3.833333333333333</ele><time>2026-05-02T12:28:31.353Z</time></trkpt><trkpt lat="39.7944583" lon="8.55424"><ele>3.6666666666666665</ele><time>2026-05-02T12:28:32.353Z</time></trkpt><trkpt lat="39.7944583" lon="8.55411"><ele>3.5</ele><time>2026-05-02T12:28:33.353Z</time></trkpt><trkpt lat="39.7944583" lon="8.5539983"><ele>3.333333333333333</ele><time>2026-05-02T12:28:34.353Z</time></trkpt><trkpt lat="39.7944583" lon="8.5538967"><ele>3.1666666666666665</ele><time>2026-05-02T12:28:35.353Z</time></trkpt><trkpt lat="39.7944617" lon="8.5538"><ele>3.0</ele><time>2026-05-02T12:28:36.353Z</time></trkpt><trkpt lat="39.79446" lon="8.5537033"><ele>3.0</ele><time>2026-05-02T12:28:37.353Z</time></trkpt><trkpt lat="39.7944583" lon="8.5535967"><ele>3.0</ele><time>2026-05-02T12:28:38.353Z</time></trkpt><trkpt lat="39.7944567" lon="8.5535017"><ele>3.0</ele><time>2026-05-02T12:28:39.353Z</time></trkpt><trkpt lat="39.7944583" lon="8.5534"><ele>3.0</ele><time>2026-05-02T12:28:40.353Z</time></trkpt><trkpt lat="39.7944533" lon="8.5533017"><ele>3.0</ele><time>2026-05-02T12:28:41.353Z</time></trkpt><trkpt lat="39.7944467" lon="8.5531983"><ele>3.0</ele><time>2026-05-02T12:28:42.353Z</time></trkpt><trkpt lat="39.79444" lon="8.553095"><ele>3.0</ele><time>2026-05-02T12:28:43.353Z</time></trkpt><trkpt lat="39.7944383" lon="8.5529817"><ele>3.0</ele><time>2026-05-02T12:28:44.353Z</time></trkpt><trkpt lat="39.7944367" lon="8.5528633"><ele>3.0</ele><time>2026-05-02T12:28:45.353Z</time></trkpt><trkpt lat="39.7944367" lon="8.552745"><ele>3.0</ele><time>2026-05-02T12:28:46.353Z</time></trkpt><trkpt lat="39.794435" lon="8.5526267"><ele>3.0</ele><time>2026-05-02T12:28:47.353Z</time></trkpt><trkpt lat="39.794435" lon="8.5525083"><ele>3.666666666666667</ele><time>2026-05-02T12:28:48.353Z</time></trkpt><trkpt lat="39.7944383" lon="8.552395"><ele>4.333333333333334</ele><time>2026-05-02T12:28:49.353Z</time></trkpt><trkpt lat="39.7944317" lon="8.5522733"><ele>5.0</ele><time>2026-05-02T12:28:50.353Z</time></trkpt><trkpt lat="39.79443" lon="8.5521583"><ele>5.666666666666667</ele><time>2026-05-02T12:28:51.353Z</time></trkpt><trkpt lat="39.79443" lon="8.55205"><ele>6.333333333333334</ele><time>2026-05-02T12:28:52.353Z</time></trkpt><trkpt lat="39.7944283" lon="8.55194"><ele>7.0</ele><time>2026-05-02T12:28:53.353Z</time></trkpt><trkpt lat="39.7944333" lon="8.5518033"><ele>7.0</ele><time>2026-05-02T12:28:54.353Z</time></trkpt><trkpt lat="39.79444" lon="8.55168"><ele>6.999999999999999</ele><time>2026-05-02T12:28:55.353Z</time></trkpt><trkpt lat="39.7944367" lon="8.55156"><ele>6.999999999999999</ele><time>2026-05-02T12:28:56.353Z</time></trkpt><trkpt lat="39.79444" lon="8.5514467"><ele>7.0</ele><time>2026-05-02T12:28:57.353Z</time></trkpt><trkpt lat="39.7944367" lon="8.551325"><ele>7.0</ele><time>2026-05-02T12:28:58.353Z</time></trkpt><trkpt lat="39.794445" lon="8.5512"><ele>7.000000000000001</ele><time>2026-05-02T12:28:59.353Z</time></trkpt><trkpt lat="39.7944483" lon="8.5510833"><ele>7.0</ele><time>2026-05-02T12:29:00.353Z</time></trkpt><trkpt lat="39.7944367" lon="8.5509567"><ele>7.0</ele><time>2026-05-02T12:29:01.353Z</time></trkpt><trkpt lat="39.7944317" lon="8.5508317"><ele>7.0</ele><time>2026-05-02T12:29:02.353Z</time></trkpt><trkpt lat="39.7944267" lon="8.55072"><ele>7.000000000000001</ele><time>2026-05-02T12:29:03.353Z</time></trkpt><trkpt lat="39.7944217" lon="8.5506217"><ele>7.0</ele><time>2026-05-02T12:29:04.353Z</time></trkpt><trkpt lat="39.79442" lon="8.55053"><ele>7.0</ele><time>2026-05-02T12:29:05.353Z</time></trkpt><trkpt lat="39.7944233" lon="8.55044"><ele>7.0</ele><time>2026-05-02T12:29:06.353Z</time></trkpt><trkpt lat="39.7944233" lon="8.55035"><ele>7.0</ele><time>2026-05-02T12:29:07.353Z</time></trkpt><trkpt lat="39.7944217" lon="8.5502617"><ele>7.0</ele><time>2026-05-02T12:29:08.353Z</time></trkpt><trkpt lat="39.794415" lon="8.5501767"><ele>7.0</ele><time>2026-05-02T12:29:09.353Z</time></trkpt><trkpt lat="39.7944133" lon="8.5500933"><ele>7.0</ele><time>2026-05-02T12:29:10.353Z</time></trkpt><trkpt lat="39.794415" lon="8.55001"><ele>7.0</ele><time>2026-05-02T12:29:11.353Z</time></trkpt><trkpt lat="39.7944233" lon="8.549845"><ele>7.6</ele><time>2026-05-02T12:29:13.353Z</time></trkpt><trkpt lat="39.79442" lon="8.549755"><ele>8.2</ele><time>2026-05-02T12:29:14.353Z</time></trkpt><trkpt lat="39.7944217" lon="8.5496"><ele>8.8</ele><time>2026-05-02T12:29:16.353Z</time></trkpt><trkpt lat="39.7944183" lon="8.5494467"><ele>9.4</ele><time>2026-05-02T12:29:18.353Z</time></trkpt><trkpt lat="39.7944183" lon="8.549295"><ele>10.0</ele><time>2026-05-02T12:29:20.353Z</time></trkpt><trkpt lat="39.79442" lon="8.549175"><ele>10.0</ele><time>2026-05-02T12:29:22.353Z</time></trkpt><trkpt lat="39.794415" lon="8.5490733"><ele>10.0</ele><time>2026-05-02T12:29:24.353Z</time></trkpt><trkpt lat="39.79442" lon="8.5489883"><ele>10.0</ele><time>2026-05-02T12:29:26.353Z</time></trkpt><trkpt lat="39.7944117" lon="8.5488883"><ele>10.0</ele><time>2026-05-02T12:29:30.353Z</time></trkpt><trkpt lat="39.79441" lon="8.5488017"><ele>10.0</ele><time>2026-05-02T12:30:14.353Z</time></trkpt><trkpt lat="39.794415" lon="8.5486417"><ele>10.0</ele><time>2026-05-02T12:30:16.353Z</time></trkpt><trkpt lat="39.7944233" lon="8.5485417"><ele>10.333333333333334</ele><time>2026-05-02T12:30:17.353Z</time></trkpt><trkpt lat="39.794425" lon="8.5484383"><ele>10.666666666666668</ele><time>2026-05-02T12:30:18.353Z</time></trkpt><trkpt lat="39.7944233" lon="8.5483417"><ele>11.0</ele><time>2026-05-02T12:30:19.353Z</time></trkpt><trkpt lat="39.79442" lon="8.5482533"><ele>11.333333333333334</ele><time>2026-05-02T12:30:20.353Z</time></trkpt><trkpt lat="39.7944183" lon="8.548165"><ele>11.666666666666666</ele><time>2026-05-02T12:30:21.353Z</time></trkpt><trkpt lat="39.7944283" lon="8.54808"><ele>12.0</ele><time>2026-05-02T12:30:22.353Z</time></trkpt><trkpt lat="39.79443" lon="8.5479333"><ele>11.6</ele><time>2026-05-02T12:30:24.353Z</time></trkpt><trkpt lat="39.79442" lon="8.5478017"><ele>11.2</ele><time>2026-05-02T12:30:26.353Z</time></trkpt><trkpt lat="39.7943883" lon="8.5476817"><ele>10.8</ele><time>2026-05-02T12:30:28.353Z</time></trkpt><trkpt lat="39.7943617" lon="8.54758"><ele>10.4</ele><time>2026-05-02T12:30:30.353Z</time></trkpt><trkpt lat="39.7942383" lon="8.5475683"><ele>10.0</ele><time>2026-05-02T13:58:58.369Z</time></trkpt><trkpt lat="39.7943217" lon="8.5475983"><ele>9.8</ele><time>2026-05-02T14:01:14.369Z</time></trkpt><trkpt lat="39.7942383" lon="8.5475017"><ele>9.6</ele><time>2026-05-02T14:10:02.369Z</time></trkpt><trkpt lat="39.7942683" lon="8.5476133"><ele>9.4</ele><time>2026-05-02T14:12:02.369Z</time></trkpt><trkpt lat="39.7942517" lon="8.5474867"><ele>9.2</ele><time>2026-05-02T14:13:47.369Z</time></trkpt><trkpt lat="39.7943083" lon="8.5475833"><ele>9.0</ele><time>2026-05-02T14:14:12.369Z</time></trkpt><trkpt lat="39.7942267" lon="8.54756"><ele>9.0</ele><time>2026-05-02T14:17:49.369Z</time></trkpt><trkpt lat="39.794285" lon="8.5476067"><ele>9.0</ele><time>2026-05-02T14:18:10.369Z</time></trkpt><trkpt lat="39.7943783" lon="8.54755"><ele>9.0</ele><time>2026-05-02T14:22:42.369Z</time></trkpt><trkpt lat="39.79426" lon="8.5474783"><ele>9.0</ele><time>2026-05-02T15:22:08.37Z</time></trkpt><trkpt lat="39.7943433" lon="8.5474933"><ele>9.0</ele><time>2026-05-02T15:24:26.37Z</time></trkpt><trkpt lat="39.7944283" lon="8.5475583"><ele>10.0</ele><time>2026-05-02T15:32:49.37Z</time></trkpt></trkseg><trkseg><trkpt lat="39.794295" lon="8.5475333"><ele>9.333333333333334</ele><time>2026-05-03T05:18:13.689Z</time></trkpt><trkpt lat="39.7943783" lon="8.547505"><ele>9.666666666666668</ele><time>2026-05-03T05:18:45.689Z</time></trkpt><trkpt lat="39.7943967" lon="8.547595"><ele>10.0</ele><time>2026-05-03T05:55:28.03Z</time></trkpt><trkpt lat="39.7949417" lon="8.5505633"><ele>10.0</ele><time>2026-05-03T05:55:38.567Z</time></trkpt><trkpt lat="39.79465" lon="8.547505"><ele>10.0</ele><time>2026-05-03T05:55:39.567Z</time></trkpt><trkpt lat="39.794585" lon="8.5475717"><ele>10.0</ele><time>2026-05-03T05:55:41.567Z</time></trkpt><trkpt lat="39.7945167" lon="8.547585"><ele>10.0</ele><time>2026-05-03T05:55:43.567Z</time></trkpt><trkpt lat="39.7944217" lon="8.54764"><ele>10.0</ele><time>2026-05-03T05:55:44.568Z</time></trkpt><trkpt lat="39.7943867" lon="8.5475667"><ele>10.0</ele><time>2026-05-03T05:55:54.682Z</time></trkpt><trkpt lat="39.7944467" lon="8.5475317"><ele>10.0</ele><time>2026-05-03T05:56:35.681Z</time></trkpt><trkpt lat="39.7943733" lon="8.5475833"><ele>10.0</ele><time>2026-05-03T05:57:17.682Z</time></trkpt><trkpt lat="39.7943883" lon="8.5476683"><ele>10.0</ele><time>2026-05-03T05:57:19.681Z</time></trkpt><trkpt lat="39.79441" lon="8.5477617"><ele>10.0</ele><time>2026-05-03T05:57:21.681Z</time></trkpt><trkpt lat="39.7944117" lon="8.5478883"><ele>10.0</ele><time>2026-05-03T05:57:24.681Z</time></trkpt><trkpt lat="39.794415" lon="8.5480083"><ele>10.0</ele><time>2026-05-03T05:57:26.681Z</time></trkpt><trkpt lat="39.7944117" lon="8.54813"><ele>10.0</ele><time>2026-05-03T05:57:28.681Z</time></trkpt><trkpt lat="39.79441" lon="8.5482167"><ele>10.0</ele><time>2026-05-03T05:57:30.681Z</time></trkpt><trkpt lat="39.7944233" lon="8.5483017"><ele>10.0</ele><time>2026-05-03T05:57:32.681Z</time></trkpt><trkpt lat="39.7944367" lon="8.548395"><ele>10.0</ele><time>2026-05-03T05:57:35.681Z</time></trkpt><trkpt lat="39.7944433" lon="8.548495"><ele>10.0</ele><time>2026-05-03T05:57:37.681Z</time></trkpt><trkpt lat="39.794445" lon="8.5486"><ele>10.0</ele><time>2026-05-03T05:57:39.681Z</time></trkpt><trkpt lat="39.7944317" lon="8.548715"><ele>10.0</ele><time>2026-05-03T05:57:42.681Z</time></trkpt><trkpt lat="39.7944317" lon="8.5488"><ele>10.0</ele><time>2026-05-03T05:57:45.681Z</time></trkpt><trkpt lat="39.7944067" lon="8.54894"><ele>10.0</ele><time>2026-05-03T05:58:15.681Z</time></trkpt><trkpt lat="39.7944233" lon="8.5490333"><ele>10.0</ele><time>2026-05-03T05:58:17.681Z</time></trkpt><trkpt lat="39.7944317" lon="8.5491767"><ele>10.0</ele><time>2026-05-03T05:58:19.681Z</time></trkpt><trkpt lat="39.7944267" lon="8.5493483"><ele>10.0</ele><time>2026-05-03T05:58:22.681Z</time></trkpt><trkpt lat="39.7944183" lon="8.5494717"><ele>10.0</ele><time>2026-05-03T05:58:24.681Z</time></trkpt><trkpt lat="39.7944133" lon="8.549595"><ele>10.0</ele><time>2026-05-03T05:58:26.681Z</time></trkpt><trkpt lat="39.79442" lon="8.5496967"><ele>10.0</ele><time>2026-05-03T05:58:28.681Z</time></trkpt><trkpt lat="39.7944267" lon="8.5498033"><ele>10.0</ele><time>2026-05-03T05:58:30.682Z</time></trkpt><trkpt lat="39.7944317" lon="8.5499133"><ele>10.0</ele><time>2026-05-03T05:58:32.681Z</time></trkpt><trkpt lat="39.79444" lon="8.55004"><ele>10.0</ele><time>2026-05-03T05:58:34.682Z</time></trkpt><trkpt lat="39.7944383" lon="8.55015"><ele>10.0</ele><time>2026-05-03T05:58:36.681Z</time></trkpt><trkpt lat="39.7944417" lon="8.5502783"><ele>10.0</ele><time>2026-05-03T05:58:38.681Z</time></trkpt><trkpt lat="39.79443" lon="8.5504217"><ele>10.0</ele><time>2026-05-03T05:58:40.682Z</time></trkpt><trkpt lat="39.79443" lon="8.5505733"><ele>10.0</ele><time>2026-05-03T05:58:42.682Z</time></trkpt><trkpt lat="39.7944383" lon="8.5507133"><ele>10.0</ele><time>2026-05-03T05:58:44.682Z</time></trkpt><trkpt lat="39.7944383" lon="8.550855"><ele>9.4</ele><time>2026-05-03T05:58:46.682Z</time></trkpt><trkpt lat="39.7944417" lon="8.55097"><ele>8.8</ele><time>2026-05-03T05:58:48.682Z</time></trkpt><trkpt lat="39.79444" lon="8.5510983"><ele>8.2</ele><time>2026-05-03T05:58:50.682Z</time></trkpt><trkpt lat="39.794445" lon="8.5512333"><ele>7.6</ele><time>2026-05-03T05:58:52.682Z</time></trkpt><trkpt lat="39.794455" lon="8.551365"><ele>7.0</ele><time>2026-05-03T05:58:54.681Z</time></trkpt><trkpt lat="39.7944483" lon="8.5514967"><ele>7.0</ele><time>2026-05-03T05:58:56.681Z</time></trkpt><trkpt lat="39.7944383" lon="8.5516117"><ele>6.999999999999999</ele><time>2026-05-03T05:58:58.682Z</time></trkpt><trkpt lat="39.7944367" lon="8.5517483"><ele>6.999999999999999</ele><time>2026-05-03T05:59:00.681Z</time></trkpt><trkpt lat="39.794425" lon="8.551935"><ele>7.0</ele><time>2026-05-03T05:59:02.681Z</time></trkpt><trkpt lat="39.7944333" lon="8.5520283"><ele>7.0</ele><time>2026-05-03T05:59:03.682Z</time></trkpt><trkpt lat="39.794435" lon="8.552125"><ele>7.0</ele><time>2026-05-03T05:59:04.681Z</time></trkpt><trkpt lat="39.79443" lon="8.55221"><ele>6.999999999999999</ele><time>2026-05-03T05:59:05.681Z</time></trkpt><trkpt lat="39.7944317" lon="8.5523583"><ele>6.999999999999999</ele><time>2026-05-03T05:59:07.682Z</time></trkpt><trkpt lat="39.7944267" lon="8.5524783"><ele>7.0</ele><time>2026-05-03T05:59:09.682Z</time></trkpt><trkpt lat="39.794415" lon="8.5525833"><ele>7.0</ele><time>2026-05-03T05:59:11.681Z</time></trkpt><trkpt lat="39.7944267" lon="8.5527433"><ele>7.000000000000001</ele><time>2026-05-03T05:59:13.682Z</time></trkpt><trkpt lat="39.7944267" lon="8.5528267"><ele>7.0</ele><time>2026-05-03T05:59:14.682Z</time></trkpt><trkpt lat="39.7944267" lon="8.5529217"><ele>7.0</ele><time>2026-05-03T05:59:15.681Z</time></trkpt><trkpt lat="39.7944317" lon="8.5530317"><ele>7.0</ele><time>2026-05-03T05:59:16.681Z</time></trkpt><trkpt lat="39.7944317" lon="8.5531433"><ele>7.000000000000001</ele><time>2026-05-03T05:59:17.682Z</time></trkpt><trkpt lat="39.7944317" lon="8.5532617"><ele>7.0</ele><time>2026-05-03T05:59:18.681Z</time></trkpt><trkpt lat="39.79444" lon="8.5533817"><ele>6.199999999999999</ele><time>2026-05-03T05:59:19.681Z</time></trkpt><trkpt lat="39.7944433" lon="8.5535083"><ele>5.3999999999999995</ele><time>2026-05-03T05:59:20.681Z</time></trkpt><trkpt lat="39.7944483" lon="8.553645"><ele>4.6</ele><time>2026-05-03T05:59:21.681Z</time></trkpt><trkpt lat="39.7944467" lon="8.553775"><ele>3.8</ele><time>2026-05-03T05:59:22.682Z</time></trkpt><trkpt lat="39.794445" lon="8.553885"><ele>3.0</ele><time>2026-05-03T05:59:23.681Z</time></trkpt><trkpt lat="39.79444" lon="8.5540317"><ele>3.0</ele><time>2026-05-03T05:59:25.682Z</time></trkpt><trkpt lat="39.7944283" lon="8.554135"><ele>3.0</ele><time>2026-05-03T05:59:27.682Z</time></trkpt><trkpt lat="39.7944367" lon="8.5542467"><ele>3.0</ele><time>2026-05-03T05:59:48.681Z</time></trkpt><trkpt lat="39.79444" lon="8.554345"><ele>3.0</ele><time>2026-05-03T05:59:49.681Z</time></trkpt><trkpt lat="39.7944433" lon="8.5544467"><ele>3.0</ele><time>2026-05-03T05:59:50.682Z</time></trkpt><trkpt lat="39.7944417" lon="8.5545517"><ele>3.0</ele><time>2026-05-03T05:59:51.681Z</time></trkpt><trkpt lat="39.79444" lon="8.55464"><ele>3.1666666666666665</ele><time>2026-05-03T05:59:52.681Z</time></trkpt><trkpt lat="39.7944383" lon="8.5547267"><ele>3.333333333333333</ele><time>2026-05-03T05:59:53.681Z</time></trkpt><trkpt lat="39.79444" lon="8.55487"><ele>3.5</ele><time>2026-05-03T05:59:55.681Z</time></trkpt><trkpt lat="39.7944567" lon="8.5549533"><ele>3.6666666666666665</ele><time>2026-05-03T05:59:57.682Z</time></trkpt><trkpt lat="39.7945183" lon="8.5549833"><ele>3.833333333333333</ele><time>2026-05-03T05:59:59.682Z</time></trkpt><trkpt lat="39.79465" lon="8.5550083"><ele>4.0</ele><time>2026-05-03T06:00:01.681Z</time></trkpt><trkpt lat="39.7947267" lon="8.5550033"><ele>4.0</ele><time>2026-05-03T06:00:02.681Z</time></trkpt><trkpt lat="39.7948067" lon="8.5550017"><ele>4.0</ele><time>2026-05-03T06:00:03.681Z</time></trkpt><trkpt lat="39.7949017" lon="8.555"><ele>4.0</ele><time>2026-05-03T06:00:04.682Z</time></trkpt><trkpt lat="39.7950117" lon="8.55499"><ele>4.0</ele><time>2026-05-03T06:00:05.682Z</time></trkpt><trkpt lat="39.7951383" lon="8.5549883"><ele>4.0</ele><time>2026-05-03T06:00:06.681Z</time></trkpt><trkpt lat="39.795265" lon="8.5549833"><ele>3.75</ele><time>2026-05-03T06:00:07.682Z</time></trkpt><trkpt lat="39.7953983" lon="8.554985"><ele>3.5</ele><time>2026-05-03T06:00:08.681Z</time></trkpt><trkpt lat="39.7955217" lon="8.5549883"><ele>3.25</ele><time>2026-05-03T06:00:09.681Z</time></trkpt><trkpt lat="39.7956383" lon="8.5549933"><ele>3.0</ele><time>2026-05-03T06:00:10.682Z</time></trkpt><trkpt lat="39.7957533" lon="8.5549917"><ele>3.0</ele><time>2026-05-03T06:00:11.682Z</time></trkpt><trkpt lat="39.795865" lon="8.5549917"><ele>3.0</ele><time>2026-05-03T06:00:12.681Z</time></trkpt><trkpt lat="39.795985" lon="8.5549983"><ele>3.0</ele><time>2026-05-03T06:00:13.681Z</time></trkpt><trkpt lat="39.796105" lon="8.5549933"><ele>3.0</ele><time>2026-05-03T06:00:14.681Z</time></trkpt><trkpt lat="39.796225" lon="8.55499"><ele>3.25</ele><time>2026-05-03T06:00:15.681Z</time></trkpt><trkpt lat="39.7963433" lon="8.55499"><ele>3.5</ele><time>2026-05-03T06:00:16.682Z</time></trkpt><trkpt lat="39.7964683" lon="8.5549867"><ele>3.75</ele><time>2026-05-03T06:00:17.682Z</time></trkpt><trkpt lat="39.7965967" lon="8.5549967"><ele>4.0</ele><time>2026-05-03T06:00:18.681Z</time></trkpt><trkpt lat="39.796725" lon="8.5549917"><ele>4.5</ele><time>2026-05-03T06:00:19.682Z</time></trkpt><trkpt lat="39.7968583" lon="8.5549933"><ele>5.0</ele><time>2026-05-03T06:00:20.681Z</time></trkpt><trkpt lat="39.7969817" lon="8.55499"><ele>5.5</ele><time>2026-05-03T06:00:21.682Z</time></trkpt><trkpt lat="39.79711" lon="8.5549917"><ele>6.0</ele><time>2026-05-03T06:00:22.682Z</time></trkpt><trkpt lat="39.7972333" lon="8.5549817"><ele>6.0</ele><time>2026-05-03T06:00:23.681Z</time></trkpt><trkpt lat="39.7973567" lon="8.5549733"><ele>6.0</ele><time>2026-05-03T06:00:24.681Z</time></trkpt><trkpt lat="39.7974633" lon="8.5549667"><ele>6.0</ele><time>2026-05-03T06:00:25.681Z</time></trkpt><trkpt lat="39.79758" lon="8.5549617"><ele>6.0</ele><time>2026-05-03T06:00:26.681Z</time></trkpt><trkpt lat="39.7977017" lon="8.5549567"><ele>6.166666666666667</ele><time>2026-05-03T06:00:27.681Z</time></trkpt><trkpt lat="39.7978217" lon="8.55497"><ele>6.333333333333334</ele><time>2026-05-03T06:00:28.682Z</time></trkpt><trkpt lat="39.797925" lon="8.5549817"><ele>6.5</ele><time>2026-05-03T06:00:29.681Z</time></trkpt><trkpt lat="39.7980117" lon="8.554985"><ele>6.666666666666667</ele><time>2026-05-03T06:00:30.681Z</time></trkpt><trkpt lat="39.7980817" lon="8.5550067"><ele>6.833333333333334</ele><time>2026-05-03T06:00:31.682Z</time></trkpt><trkpt lat="39.79813" lon="8.5550633"><ele>7.0</ele><time>2026-05-03T06:00:32.681Z</time></trkpt><trkpt lat="39.79814" lon="8.5551733"><ele>7.0</ele><time>2026-05-03T06:00:33.682Z</time></trkpt><trkpt lat="39.7981267" lon="8.5553"><ele>6.999999999999999</ele><time>2026-05-03T06:00:34.682Z</time></trkpt><trkpt lat="39.798105" lon="8.55544"><ele>6.999999999999999</ele><time>2026-05-03T06:00:35.682Z</time></trkpt><trkpt lat="39.79809" lon="8.5555933"><ele>7.0</ele><time>2026-05-03T06:00:36.682Z</time></trkpt><trkpt lat="39.79808" lon="8.5557433"><ele>7.0</ele><time>2026-05-03T06:00:37.682Z</time></trkpt><trkpt lat="39.7980767" lon="8.5559017"><ele>6.25</ele><time>2026-05-03T06:00:38.682Z</time></trkpt><trkpt lat="39.798075" lon="8.5560717"><ele>5.5</ele><time>2026-05-03T06:00:39.681Z</time></trkpt><trkpt lat="39.7980667" lon="8.5562417"><ele>4.75</ele><time>2026-05-03T06:00:40.681Z</time></trkpt><trkpt lat="39.7980683" lon="8.5564067"><ele>4.0</ele><time>2026-05-03T06:00:41.681Z</time></trkpt><trkpt lat="39.7980667" lon="8.556565"><ele>3.75</ele><time>2026-05-03T06:00:42.682Z</time></trkpt><trkpt lat="39.7980667" lon="8.5567417"><ele>3.5</ele><time>2026-05-03T06:00:43.681Z</time></trkpt><trkpt lat="39.7980733" lon="8.5569083"><ele>3.25</ele><time>2026-05-03T06:00:44.682Z</time></trkpt><trkpt lat="39.79808" lon="8.5570533"><ele>3.0</ele><time>2026-05-03T06:00:45.682Z</time></trkpt><trkpt lat="39.7980767" lon="8.5571733"><ele>3.0</ele><time>2026-05-03T06:00:46.681Z</time></trkpt><trkpt lat="39.7980683" lon="8.5572867"><ele>3.0</ele><time>2026-05-03T06:00:47.682Z</time></trkpt><trkpt lat="39.7980667" lon="8.5573817"><ele>3.0</ele><time>2026-05-03T06:00:48.682Z</time></trkpt><trkpt lat="39.79814" lon="8.5574867"><ele>3.0</ele><time>2026-05-03T06:00:50.682Z</time></trkpt><trkpt lat="39.7982083" lon="8.5575033"><ele>3.0</ele><time>2026-05-03T06:00:51.681Z</time></trkpt><trkpt lat="39.7983067" lon="8.5575183"><ele>3.0</ele><time>2026-05-03T06:00:52.682Z</time></trkpt><trkpt lat="39.7984333" lon="8.5575133"><ele>3.333333333333333</ele><time>2026-05-03T06:00:53.682Z</time></trkpt><trkpt lat="39.7985783" lon="8.5575017"><ele>3.6666666666666665</ele><time>2026-05-03T06:00:54.681Z</time></trkpt><trkpt lat="39.7987283" lon="8.5574867"><ele>4.0</ele><time>2026-05-03T06:00:55.681Z</time></trkpt><trkpt lat="39.7988833" lon="8.5574867"><ele>4.0</ele><time>2026-05-03T06:00:56.681Z</time></trkpt><trkpt lat="39.7990467" lon="8.5574867"><ele>4.0</ele><time>2026-05-03T06:00:57.681Z</time></trkpt><trkpt lat="39.7992" lon="8.557485"><ele>4.0</ele><time>2026-05-03T06:00:58.681Z</time></trkpt><trkpt lat="39.7993633" lon="8.5574917"><ele>3.6666666666666665</ele><time>2026-05-03T06:00:59.681Z</time></trkpt><trkpt lat="39.799525" lon="8.55749"><ele>3.333333333333333</ele><time>2026-05-03T06:01:00.682Z</time></trkpt><trkpt lat="39.7996917" lon="8.55749"><ele>3.0</ele><time>2026-05-03T06:01:01.681Z</time></trkpt><trkpt lat="39.7998617" lon="8.557485"><ele>3.0</ele><time>2026-05-03T06:01:02.681Z</time></trkpt><trkpt lat="39.8000333" lon="8.5574783"><ele>3.0</ele><time>2026-05-03T06:01:03.681Z</time></trkpt><trkpt lat="39.800205" lon="8.5574783"><ele>3.0</ele><time>2026-05-03T06:01:04.681Z</time></trkpt><trkpt lat="39.8003767" lon="8.5574817"><ele>3.333333333333333</ele><time>2026-05-03T06:01:05.681Z</time></trkpt><trkpt lat="39.8005533" lon="8.5574833"><ele>3.6666666666666665</ele><time>2026-05-03T06:01:06.681Z</time></trkpt><trkpt lat="39.8007183" lon="8.55748"><ele>4.0</ele><time>2026-05-03T06:01:07.682Z</time></trkpt><trkpt lat="39.8008617" lon="8.5574767"><ele>4.0</ele><time>2026-05-03T06:01:08.681Z</time></trkpt><trkpt lat="39.8009983" lon="8.5574817"><ele>4.0</ele><time>2026-05-03T06:01:09.681Z</time></trkpt><trkpt lat="39.801135" lon="8.55748"><ele>4.0</ele><time>2026-05-03T06:01:10.681Z</time></trkpt><trkpt lat="39.8012683" lon="8.5574617"><ele>4.0</ele><time>2026-05-03T06:01:11.681Z</time></trkpt><trkpt lat="39.801395" lon="8.5574583"><ele>3.8000000000000003</ele><time>2026-05-03T06:01:12.681Z</time></trkpt><trkpt lat="39.8015133" lon="8.55745"><ele>3.6000000000000005</ele><time>2026-05-03T06:01:13.681Z</time></trkpt><trkpt lat="39.8016167" lon="8.5574467"><ele>3.4</ele><time>2026-05-03T06:01:14.681Z</time></trkpt><trkpt lat="39.8017067" lon="8.55745"><ele>3.2</ele><time>2026-05-03T06:01:15.681Z</time></trkpt><trkpt lat="39.8017817" lon="8.5574533"><ele>3.0</ele><time>2026-05-03T06:01:16.681Z</time></trkpt><trkpt lat="39.801875" lon="8.5574583"><ele>2.8</ele><time>2026-05-03T06:01:18.681Z</time></trkpt><trkpt lat="39.80194" lon="8.5575533"><ele>2.5999999999999996</ele><time>2026-05-03T06:01:20.681Z</time></trkpt><trkpt lat="39.801965" lon="8.557645"><ele>2.4000000000000004</ele><time>2026-05-03T06:01:21.681Z</time></trkpt><trkpt lat="39.8019583" lon="8.557785"><ele>2.2</ele><time>2026-05-03T06:01:22.681Z</time></trkpt><trkpt lat="39.80195" lon="8.5579467"><ele>2.0</ele><time>2026-05-03T06:01:23.681Z</time></trkpt><trkpt lat="39.8019467" lon="8.5581067"><ele>1.75</ele><time>2026-05-03T06:01:24.681Z</time></trkpt><trkpt lat="39.8019483" lon="8.5582783"><ele>1.5</ele><time>2026-05-03T06:01:25.681Z</time></trkpt><trkpt lat="39.8019433" lon="8.5584517"><ele>1.25</ele><time>2026-05-03T06:01:26.682Z</time></trkpt><trkpt lat="39.8019417" lon="8.558635"><ele>1.0</ele><time>2026-05-03T06:01:27.682Z</time></trkpt><trkpt lat="39.8019483" lon="8.5588317"><ele>1.6666666666666665</ele><time>2026-05-03T06:01:28.682Z</time></trkpt><trkpt lat="39.80195" lon="8.5590333"><ele>2.3333333333333335</ele><time>2026-05-03T06:01:29.681Z</time></trkpt><trkpt lat="39.8019567" lon="8.5592433"><ele>3.0</ele><time>2026-05-03T06:01:30.681Z</time></trkpt><trkpt lat="39.8019583" lon="8.5594683"><ele>2.6666666666666665</ele><time>2026-05-03T06:01:31.681Z</time></trkpt><trkpt lat="39.80196" lon="8.559685"><ele>2.333333333333333</ele><time>2026-05-03T06:01:32.681Z</time></trkpt><trkpt lat="39.801965" lon="8.5599167"><ele>2.0</ele><time>2026-05-03T06:01:33.681Z</time></trkpt><trkpt lat="39.8019633" lon="8.5601533"><ele>2.0</ele><time>2026-05-03T06:01:34.681Z</time></trkpt><trkpt lat="39.8019633" lon="8.5603967"><ele>2.0</ele><time>2026-05-03T06:01:35.681Z</time></trkpt><trkpt lat="39.8019667" lon="8.5606467"><ele>2.0</ele><time>2026-05-03T06:01:36.681Z</time></trkpt><trkpt lat="39.8019583" lon="8.5609167"><ele>2.0</ele><time>2026-05-03T06:01:37.681Z</time></trkpt><trkpt lat="39.80195" lon="8.5611833"><ele>2.0</ele><time>2026-05-03T06:01:38.681Z</time></trkpt><trkpt lat="39.80195" lon="8.5614567"><ele>2.0</ele><time>2026-05-03T06:01:39.681Z</time></trkpt><trkpt lat="39.80194" lon="8.56173"><ele>2.0</ele><time>2026-05-03T06:01:40.682Z</time></trkpt><trkpt lat="39.8019367" lon="8.5620167"><ele>2.0</ele><time>2026-05-03T06:01:41.682Z</time></trkpt><trkpt lat="39.80194" lon="8.5623067"><ele>2.0</ele><time>2026-05-03T06:01:42.682Z</time></trkpt><trkpt lat="39.8019483" lon="8.5625983"><ele>3.0</ele><time>2026-05-03T06:01:43.682Z</time></trkpt><trkpt lat="39.8019533" lon="8.5629167"><ele>4.0</ele><time>2026-05-03T06:01:44.682Z</time></trkpt><trkpt lat="39.8019533" lon="8.5632383"><ele>4.0</ele><time>2026-05-03T06:01:45.682Z</time></trkpt><trkpt lat="39.8019517" lon="8.5635617"><ele>4.0</ele><time>2026-05-03T06:01:46.681Z</time></trkpt><trkpt lat="39.8019517" lon="8.5638717"><ele>3.5</ele><time>2026-05-03T06:01:47.682Z</time></trkpt><trkpt lat="39.8019517" lon="8.56421"><ele>3.0</ele><time>2026-05-03T06:01:48.681Z</time></trkpt><trkpt lat="39.8019533" lon="8.5645317"><ele>3.0</ele><time>2026-05-03T06:01:49.681Z</time></trkpt><trkpt lat="39.8019467" lon="8.5648533"><ele>3.0</ele><time>2026-05-03T06:01:50.681Z</time></trkpt><trkpt lat="39.80195" lon="8.565165"><ele>4.5</ele><time>2026-05-03T06:01:51.681Z</time></trkpt><trkpt lat="39.801955" lon="8.5654867"><ele>6.0</ele><time>2026-05-03T06:01:52.681Z</time></trkpt><trkpt lat="39.8019567" lon="8.565815"><ele>6.0</ele><time>2026-05-03T06:01:53.682Z</time></trkpt><trkpt lat="39.8019633" lon="8.5661467"><ele>6.0</ele><time>2026-05-03T06:01:54.682Z</time></trkpt><trkpt lat="39.801965" lon="8.566465"><ele>5.5</ele><time>2026-05-03T06:01:55.681Z</time></trkpt><trkpt lat="39.8019667" lon="8.566795"><ele>5.0</ele><time>2026-05-03T06:01:56.681Z</time></trkpt><trkpt lat="39.8019717" lon="8.56713"><ele>5.0</ele><time>2026-05-03T06:01:57.681Z</time></trkpt><trkpt lat="39.801955" lon="8.5674533"><ele>5.0</ele><time>2026-05-03T06:01:58.681Z</time></trkpt><trkpt lat="39.8019583" lon="8.5677817"><ele>5.5</ele><time>2026-05-03T06:01:59.681Z</time></trkpt><trkpt lat="39.801965" lon="8.5681133"><ele>6.0</ele><time>2026-05-03T06:02:00.681Z</time></trkpt><trkpt lat="39.8019617" lon="8.5684383"><ele>5.0</ele><time>2026-05-03T06:02:01.682Z</time></trkpt><trkpt lat="39.8019567" lon="8.5687633"><ele>4.0</ele><time>2026-05-03T06:02:02.682Z</time></trkpt><trkpt lat="39.801965" lon="8.569095"><ele>4.0</ele><time>2026-05-03T06:02:03.681Z</time></trkpt><trkpt lat="39.8019717" lon="8.5694267"><ele>4.0</ele><time>2026-05-03T06:02:04.682Z</time></trkpt><trkpt lat="39.8019817" lon="8.5697683"><ele>3.5</ele><time>2026-05-03T06:02:05.681Z</time></trkpt><trkpt lat="39.8019867" lon="8.5701033"><ele>3.0</ele><time>2026-05-03T06:02:06.681Z</time></trkpt><trkpt lat="39.8019917" lon="8.5704183"><ele>3.0</ele><time>2026-05-03T06:02:07.681Z</time></trkpt><trkpt lat="39.8019933" lon="8.5707433"><ele>3.0</ele><time>2026-05-03T06:02:08.681Z</time></trkpt><trkpt lat="39.8019833" lon="8.5710667"><ele>3.5</ele><time>2026-05-03T06:02:09.681Z</time></trkpt><trkpt lat="39.8019833" lon="8.5713917"><ele>4.0</ele><time>2026-05-03T06:02:10.681Z</time></trkpt><trkpt lat="39.801975" lon="8.5717133"><ele>4.0</ele><time>2026-05-03T06:02:11.681Z</time></trkpt><trkpt lat="39.8019883" lon="8.5720083"><ele>4.0</ele><time>2026-05-03T06:02:12.682Z</time></trkpt><trkpt lat="39.80199" lon="8.5723283"><ele>4.0</ele><time>2026-05-03T06:02:13.681Z</time></trkpt><trkpt lat="39.8019917" lon="8.57262"><ele>4.0</ele><time>2026-05-03T06:02:14.682Z</time></trkpt><trkpt lat="39.8019917" lon="8.5728917"><ele>4.0</ele><time>2026-05-03T06:02:15.682Z</time></trkpt><trkpt lat="39.8019883" lon="8.5731517"><ele>4.0</ele><time>2026-05-03T06:02:16.681Z</time></trkpt><trkpt lat="39.8019983" lon="8.57339"><ele>4.0</ele><time>2026-05-03T06:02:17.681Z</time></trkpt><trkpt lat="39.8020017" lon="8.5736283"><ele>4.0</ele><time>2026-05-03T06:02:18.682Z</time></trkpt><trkpt lat="39.801995" lon="8.573875"><ele>4.0</ele><time>2026-05-03T06:02:19.682Z</time></trkpt><trkpt lat="39.8019983" lon="8.574135"><ele>4.0</ele><time>2026-05-03T06:02:20.681Z</time></trkpt><trkpt lat="39.8019983" lon="8.5744033"><ele>4.0</ele><time>2026-05-03T06:02:21.682Z</time></trkpt><trkpt lat="39.8019983" lon="8.57469"><ele>4.0</ele><time>2026-05-03T06:02:22.682Z</time></trkpt><trkpt lat="39.801995" lon="8.5749767"><ele>4.0</ele><time>2026-05-03T06:02:23.682Z</time></trkpt><trkpt lat="39.8019917" lon="8.5752667"><ele>4.0</ele><time>2026-05-03T06:02:24.682Z</time></trkpt><trkpt lat="39.8019967" lon="8.5755517"><ele>4.0</ele><time>2026-05-03T06:02:25.681Z</time></trkpt><trkpt lat="39.801995" lon="8.5758383"><ele>4.0</ele><time>2026-05-03T06:02:26.682Z</time></trkpt><trkpt lat="39.801995" lon="8.57614"><ele>4.666666666666666</ele><time>2026-05-03T06:02:27.682Z</time></trkpt><trkpt lat="39.8019833" lon="8.57643"><ele>5.333333333333333</ele><time>2026-05-03T06:02:28.681Z</time></trkpt><trkpt lat="39.8019867" lon="8.57672"><ele>6.0</ele><time>2026-05-03T06:02:29.682Z</time></trkpt><trkpt lat="39.8019883" lon="8.5770033"><ele>6.333333333333334</ele><time>2026-05-03T06:02:30.681Z</time></trkpt><trkpt lat="39.8019867" lon="8.5772933"><ele>6.666666666666667</ele><time>2026-05-03T06:02:31.681Z</time></trkpt><trkpt lat="39.8019883" lon="8.5775767"><ele>7.0</ele><time>2026-05-03T06:02:32.682Z</time></trkpt><trkpt lat="39.80199" lon="8.5778717"><ele>7.0</ele><time>2026-05-03T06:02:33.681Z</time></trkpt><trkpt lat="39.80199" lon="8.5781633"><ele>7.0</ele><time>2026-05-03T06:02:34.681Z</time></trkpt><trkpt lat="39.8019867" lon="8.5784617"><ele>7.0</ele><time>2026-05-03T06:02:35.681Z</time></trkpt><trkpt lat="39.8019867" lon="8.578745"><ele>7.0</ele><time>2026-05-03T06:02:36.681Z</time></trkpt><trkpt lat="39.8019933" lon="8.5790467"><ele>7.0</ele><time>2026-05-03T06:02:37.681Z</time></trkpt><trkpt lat="39.8019967" lon="8.579345"><ele>7.0</ele><time>2026-05-03T06:02:38.682Z</time></trkpt><trkpt lat="39.8020083" lon="8.579645"><ele>6.5</ele><time>2026-05-03T06:02:39.682Z</time></trkpt><trkpt lat="39.80201" lon="8.57994"><ele>6.0</ele><time>2026-05-03T06:02:40.681Z</time></trkpt><trkpt lat="39.8020083" lon="8.5802383"><ele>6.0</ele><time>2026-05-03T06:02:41.682Z</time></trkpt><trkpt lat="39.80201" lon="8.5805467"><ele>6.0</ele><time>2026-05-03T06:02:42.681Z</time></trkpt><trkpt lat="39.8020167" lon="8.58085"><ele>6.0</ele><time>2026-05-03T06:02:43.681Z</time></trkpt><trkpt lat="39.80202" lon="8.5811583"><ele>6.0</ele><time>2026-05-03T06:02:44.681Z</time></trkpt><trkpt lat="39.8020117" lon="8.581445"><ele>6.0</ele><time>2026-05-03T06:02:45.681Z</time></trkpt><trkpt lat="39.8020233" lon="8.581705"><ele>6.0</ele><time>2026-05-03T06:02:46.681Z</time></trkpt><trkpt lat="39.802035" lon="8.5819317"><ele>6.0</ele><time>2026-05-03T06:02:47.681Z</time></trkpt><trkpt lat="39.8020433" lon="8.5821283"><ele>5.666666666666667</ele><time>2026-05-03T06:02:48.682Z</time></trkpt><trkpt lat="39.8020567" lon="8.58232"><ele>5.333333333333334</ele><time>2026-05-03T06:02:49.681Z</time></trkpt><trkpt lat="39.8020483" lon="8.5825117"><ele>5.0</ele><time>2026-05-03T06:02:50.681Z</time></trkpt><trkpt lat="39.8020483" lon="8.582725"><ele>5.0</ele><time>2026-05-03T06:02:51.681Z</time></trkpt><trkpt lat="39.8020483" lon="8.5829483"><ele>5.0</ele><time>2026-05-03T06:02:52.681Z</time></trkpt><trkpt lat="39.802045" lon="8.583195"><ele>5.0</ele><time>2026-05-03T06:02:53.681Z</time></trkpt><trkpt lat="39.8020433" lon="8.58344"><ele>5.333333333333334</ele><time>2026-05-03T06:02:54.681Z</time></trkpt><trkpt lat="39.8020333" lon="8.5837033"><ele>5.666666666666667</ele><time>2026-05-03T06:02:55.681Z</time></trkpt><trkpt lat="39.8020317" lon="8.5839767"><ele>6.0</ele><time>2026-05-03T06:02:56.682Z</time></trkpt><trkpt lat="39.80204" lon="8.584265"><ele>6.333333333333334</ele><time>2026-05-03T06:02:57.681Z</time></trkpt><trkpt lat="39.8020383" lon="8.584555"><ele>6.666666666666667</ele><time>2026-05-03T06:02:58.681Z</time></trkpt><trkpt lat="39.8020333" lon="8.5848433"><ele>7.0</ele><time>2026-05-03T06:02:59.681Z</time></trkpt><trkpt lat="39.80204" lon="8.585145"><ele>6.5</ele><time>2026-05-03T06:03:00.681Z</time></trkpt><trkpt lat="39.8020433" lon="8.5854433"><ele>6.0</ele><time>2026-05-03T06:03:01.682Z</time></trkpt><trkpt lat="39.8020467" lon="8.5857517"><ele>6.0</ele><time>2026-05-03T06:03:02.682Z</time></trkpt><trkpt lat="39.8020567" lon="8.5860483"><ele>6.0</ele><time>2026-05-03T06:03:03.682Z</time></trkpt><trkpt lat="39.8020617" lon="8.586345"><ele>5.5</ele><time>2026-05-03T06:03:04.681Z</time></trkpt><trkpt lat="39.8020567" lon="8.5866467"><ele>5.0</ele><time>2026-05-03T06:03:05.682Z</time></trkpt><trkpt lat="39.80205" lon="8.5869417"><ele>4.333333333333334</ele><time>2026-05-03T06:03:06.681Z</time></trkpt><trkpt lat="39.8020567" lon="8.5872333"><ele>3.666666666666667</ele><time>2026-05-03T06:03:07.681Z</time></trkpt><trkpt lat="39.8020567" lon="8.5875117"><ele>3.0</ele><time>2026-05-03T06:03:08.681Z</time></trkpt><trkpt lat="39.802055" lon="8.587795"><ele>3.0</ele><time>2026-05-03T06:03:09.681Z</time></trkpt><trkpt lat="39.8020583" lon="8.5880833"><ele>3.0</ele><time>2026-05-03T06:03:10.681Z</time></trkpt><trkpt lat="39.80206" lon="8.5883633"><ele>3.0</ele><time>2026-05-03T06:03:11.681Z</time></trkpt><trkpt lat="39.80205" lon="8.5886417"><ele>3.333333333333333</ele><time>2026-05-03T06:03:12.681Z</time></trkpt><trkpt lat="39.8020467" lon="8.5889167"><ele>3.6666666666666665</ele><time>2026-05-03T06:03:13.681Z</time></trkpt><trkpt lat="39.8020467" lon="8.58919"><ele>4.0</ele><time>2026-05-03T06:03:14.681Z</time></trkpt><trkpt lat="39.80205" lon="8.5894567"><ele>4.0</ele><time>2026-05-03T06:03:15.681Z</time></trkpt><trkpt lat="39.8020467" lon="8.5897217"><ele>4.0</ele><time>2026-05-03T06:03:16.681Z</time></trkpt><trkpt lat="39.802045" lon="8.5899783"><ele>4.0</ele><time>2026-05-03T06:03:17.681Z</time></trkpt><trkpt lat="39.8020483" lon="8.5902267"><ele>4.0</ele><time>2026-05-03T06:03:18.681Z</time></trkpt><trkpt lat="39.8020467" lon="8.59048"><ele>4.0</ele><time>2026-05-03T06:03:19.681Z</time></trkpt><trkpt lat="39.80206" lon="8.5907067"><ele>4.0</ele><time>2026-05-03T06:03:20.681Z</time></trkpt><trkpt lat="39.8020567" lon="8.59094"><ele>4.0</ele><time>2026-05-03T06:03:21.681Z</time></trkpt><trkpt lat="39.8020617" lon="8.5911667"><ele>4.0</ele><time>2026-05-03T06:03:22.682Z</time></trkpt><trkpt lat="39.8020717" lon="8.5913767"><ele>4.0</ele><time>2026-05-03T06:03:23.681Z</time></trkpt><trkpt lat="39.8020783" lon="8.5915717"><ele>5.0</ele><time>2026-05-03T06:03:24.681Z</time></trkpt><trkpt lat="39.8020817" lon="8.591775"><ele>6.0</ele><time>2026-05-03T06:03:25.682Z</time></trkpt><trkpt lat="39.8021067" lon="8.5919883"><ele>7.0</ele><time>2026-05-03T06:03:26.681Z</time></trkpt><trkpt lat="39.8021217" lon="8.5921867"><ele>7.0</ele><time>2026-05-03T06:03:27.682Z</time></trkpt><trkpt lat="39.8021233" lon="8.5923717"><ele>7.0</ele><time>2026-05-03T06:03:28.682Z</time></trkpt><trkpt lat="39.80212" lon="8.5925533"><ele>7.0</ele><time>2026-05-03T06:03:29.681Z</time></trkpt><trkpt lat="39.802115" lon="8.5927267"><ele>7.0</ele><time>2026-05-03T06:03:30.682Z</time></trkpt><trkpt lat="39.80211" lon="8.5929117"><ele>6.75</ele><time>2026-05-03T06:03:31.681Z</time></trkpt><trkpt lat="39.8021117" lon="8.5930983"><ele>6.5</ele><time>2026-05-03T06:03:32.681Z</time></trkpt><trkpt lat="39.802105" lon="8.5933033"><ele>6.25</ele><time>2026-05-03T06:03:33.681Z</time></trkpt><trkpt lat="39.8021133" lon="8.5934933"><ele>6.0</ele><time>2026-05-03T06:03:34.681Z</time></trkpt><trkpt lat="39.80212" lon="8.5936833"><ele>5.75</ele><time>2026-05-03T06:03:35.681Z</time></trkpt><trkpt lat="39.80212" lon="8.5938783"><ele>5.5</ele><time>2026-05-03T06:03:36.682Z</time></trkpt><trkpt lat="39.8021183" lon="8.5940667"><ele>5.25</ele><time>2026-05-03T06:03:37.682Z</time></trkpt><trkpt lat="39.8021233" lon="8.59426"><ele>5.0</ele><time>2026-05-03T06:03:38.681Z</time></trkpt><trkpt lat="39.8021233" lon="8.594455"><ele>5.0</ele><time>2026-05-03T06:03:39.681Z</time></trkpt><trkpt lat="39.802115" lon="8.5946567"><ele>5.0</ele><time>2026-05-03T06:03:40.682Z</time></trkpt><trkpt lat="39.8021183" lon="8.59488"><ele>5.0</ele><time>2026-05-03T06:03:41.682Z</time></trkpt><trkpt lat="39.80212" lon="8.5950983"><ele>5.0</ele><time>2026-05-03T06:03:42.682Z</time></trkpt><trkpt lat="39.8021183" lon="8.5953133"><ele>5.0</ele><time>2026-05-03T06:03:43.681Z</time></trkpt><trkpt lat="39.802125" lon="8.5955067"><ele>5.0</ele><time>2026-05-03T06:03:44.682Z</time></trkpt><trkpt lat="39.8021267" lon="8.5957067"><ele>4.333333333333334</ele><time>2026-05-03T06:03:45.681Z</time></trkpt><trkpt lat="39.8021267" lon="8.5959183"><ele>3.666666666666667</ele><time>2026-05-03T06:03:46.681Z</time></trkpt><trkpt lat="39.8021317" lon="8.596125"><ele>3.0</ele><time>2026-05-03T06:03:47.681Z</time></trkpt><trkpt lat="39.80214" lon="8.5963183"><ele>3.0</ele><time>2026-05-03T06:03:48.681Z</time></trkpt><trkpt lat="39.802145" lon="8.5964867"><ele>3.0</ele><time>2026-05-03T06:03:49.681Z</time></trkpt><trkpt lat="39.8021683" lon="8.5966383"><ele>3.0</ele><time>2026-05-03T06:03:50.682Z</time></trkpt><trkpt lat="39.802225" lon="8.596795"><ele>3.0</ele><time>2026-05-03T06:03:51.681Z</time></trkpt><trkpt lat="39.8023033" lon="8.5969483"><ele>2.5</ele><time>2026-05-03T06:03:52.682Z</time></trkpt><trkpt lat="39.8024133" lon="8.5970467"><ele>2.0</ele><time>2026-05-03T06:03:53.682Z</time></trkpt><trkpt lat="39.8025517" lon="8.597075"><ele>1.5</ele><time>2026-05-03T06:03:54.681Z</time></trkpt><trkpt lat="39.8027" lon="8.597075"><ele>1.0</ele><time>2026-05-03T06:03:55.681Z</time></trkpt><trkpt lat="39.8028583" lon="8.5970817"><ele>0.3333333333333333</ele><time>2026-05-03T06:03:56.682Z</time></trkpt><trkpt lat="39.8030233" lon="8.59706"><ele>-0.3333333333333333</ele><time>2026-05-03T06:03:57.681Z</time></trkpt><trkpt lat="39.8031833" lon="8.59706"><ele>-1.0</ele><time>2026-05-03T06:03:58.681Z</time></trkpt><trkpt lat="39.8033317" lon="8.5970667"><ele>-1.0</ele><time>2026-05-03T06:03:59.681Z</time></trkpt><trkpt lat="39.8034683" lon="8.5970867"><ele>-1.0</ele><time>2026-05-03T06:04:00.681Z</time></trkpt><trkpt lat="39.8035917" lon="8.597135"><ele>-1.0</ele><time>2026-05-03T06:04:01.681Z</time></trkpt><trkpt lat="39.8036883" lon="8.5972133"><ele>-1.0</ele><time>2026-05-03T06:04:02.682Z</time></trkpt><trkpt lat="39.8037667" lon="8.5973317"><ele>-0.75</ele><time>2026-05-03T06:04:03.681Z</time></trkpt><trkpt lat="39.80382" lon="8.5975017"><ele>-0.5</ele><time>2026-05-03T06:04:04.682Z</time></trkpt><trkpt lat="39.8038533" lon="8.59768"><ele>-0.25</ele><time>2026-05-03T06:04:05.681Z</time></trkpt><trkpt lat="39.8038717" lon="8.5978817"><ele>0.0</ele><time>2026-05-03T06:04:06.681Z</time></trkpt><trkpt lat="39.8038883" lon="8.59809"><ele>0.0</ele><time>2026-05-03T06:04:07.682Z</time></trkpt><trkpt lat="39.8038833" lon="8.5982983"><ele>0.0</ele><time>2026-05-03T06:04:08.682Z</time></trkpt><trkpt lat="39.803875" lon="8.5985117"><ele>0.0</ele><time>2026-05-03T06:04:09.681Z</time></trkpt><trkpt lat="39.80387" lon="8.5987233"><ele>-0.3333333333333333</ele><time>2026-05-03T06:04:10.681Z</time></trkpt><trkpt lat="39.8038767" lon="8.598915"><ele>-0.6666666666666666</ele><time>2026-05-03T06:04:11.681Z</time></trkpt><trkpt lat="39.8038783" lon="8.5991117"><ele>-1.0</ele><time>2026-05-03T06:04:12.681Z</time></trkpt><trkpt lat="39.80388" lon="8.5993133"><ele>-1.0</ele><time>2026-05-03T06:04:13.681Z</time></trkpt><trkpt lat="39.8038733" lon="8.5995283"><ele>-1.0</ele><time>2026-05-03T06:04:14.681Z</time></trkpt><trkpt lat="39.803875" lon="8.5997433"><ele>-1.0</ele><time>2026-05-03T06:04:15.681Z</time></trkpt><trkpt lat="39.8038817" lon="8.599985"><ele>-1.0</ele><time>2026-05-03T06:04:16.682Z</time></trkpt><trkpt lat="39.8038833" lon="8.6002317"><ele>-1.0</ele><time>2026-05-03T06:04:17.681Z</time></trkpt><trkpt lat="39.803885" lon="8.6004783"><ele>-1.0</ele><time>2026-05-03T06:04:18.681Z</time></trkpt><trkpt lat="39.8038767" lon="8.6007283"><ele>-1.0</ele><time>2026-05-03T06:04:19.681Z</time></trkpt><trkpt lat="39.8038733" lon="8.6009733"><ele>-1.0</ele><time>2026-05-03T06:04:20.682Z</time></trkpt><trkpt lat="39.8038733" lon="8.6012317"><ele>-1.0</ele><time>2026-05-03T06:04:21.682Z</time></trkpt><trkpt lat="39.8038767" lon="8.601495"><ele>-1.0</ele><time>2026-05-03T06:04:22.681Z</time></trkpt><trkpt lat="39.8038783" lon="8.60176"><ele>-1.0</ele><time>2026-05-03T06:04:23.681Z</time></trkpt><trkpt lat="39.8038817" lon="8.6020183"><ele>-1.0</ele><time>2026-05-03T06:04:24.682Z</time></trkpt><trkpt lat="39.8038817" lon="8.6022733"><ele>-1.0</ele><time>2026-05-03T06:04:25.681Z</time></trkpt><trkpt lat="39.803885" lon="8.602535"><ele>-1.0</ele><time>2026-05-03T06:04:26.681Z</time></trkpt><trkpt lat="39.8038867" lon="8.6028067"><ele>-1.0</ele><time>2026-05-03T06:04:27.682Z</time></trkpt><trkpt lat="39.8038867" lon="8.6030917"><ele>-1.0</ele><time>2026-05-03T06:04:28.681Z</time></trkpt><trkpt lat="39.803885" lon="8.603365"><ele>-1.0</ele><time>2026-05-03T06:04:29.681Z</time></trkpt><trkpt lat="39.8038867" lon="8.603635"><ele>-1.0</ele><time>2026-05-03T06:04:30.681Z</time></trkpt><trkpt lat="39.8038867" lon="8.6039033"><ele>-1.0</ele><time>2026-05-03T06:04:31.681Z</time></trkpt><trkpt lat="39.8038867" lon="8.6041667"><ele>-1.0</ele><time>2026-05-03T06:04:32.681Z</time></trkpt><trkpt lat="39.803885" lon="8.6044217"><ele>-1.0</ele><time>2026-05-03T06:04:33.681Z</time></trkpt><trkpt lat="39.8038867" lon="8.6046817"><ele>-1.0</ele><time>2026-05-03T06:04:34.681Z</time></trkpt><trkpt lat="39.80389" lon="8.604955"><ele>-1.0</ele><time>2026-05-03T06:04:35.681Z</time></trkpt><trkpt lat="39.80389" lon="8.60523"><ele>-1.0</ele><time>2026-05-03T06:04:36.682Z</time></trkpt><trkpt lat="39.8038917" lon="8.6055117"><ele>-1.0</ele><time>2026-05-03T06:04:37.681Z</time></trkpt><trkpt lat="39.8038933" lon="8.605775"><ele>-1.0</ele><time>2026-05-03T06:04:38.681Z</time></trkpt><trkpt lat="39.8039033" lon="8.6060283"><ele>-1.0</ele><time>2026-05-03T06:04:39.681Z</time></trkpt><trkpt lat="39.80391" lon="8.606275"><ele>-1.6666666666666665</ele><time>2026-05-03T06:04:40.681Z</time></trkpt><trkpt lat="39.803905" lon="8.6065317"><ele>-2.3333333333333335</ele><time>2026-05-03T06:04:41.681Z</time></trkpt><trkpt lat="39.8039117" lon="8.6068067"><ele>-3.0</ele><time>2026-05-03T06:04:42.681Z</time></trkpt><trkpt lat="39.8039117" lon="8.6071067"><ele>-3.0</ele><time>2026-05-03T06:04:43.681Z</time></trkpt><trkpt lat="39.8039067" lon="8.6074067"><ele>-3.0</ele><time>2026-05-03T06:04:44.682Z</time></trkpt><trkpt lat="39.8039" lon="8.6076967"><ele>-3.0</ele><time>2026-05-03T06:04:45.682Z</time></trkpt><trkpt lat="39.8038983" lon="8.6079833"><ele>-3.0</ele><time>2026-05-03T06:04:46.682Z</time></trkpt><trkpt lat="39.8038967" lon="8.608275"><ele>-3.0</ele><time>2026-05-03T06:04:47.682Z</time></trkpt><trkpt lat="39.8039033" lon="8.6085483"><ele>-2.3333333333333335</ele><time>2026-05-03T06:04:48.681Z</time></trkpt><trkpt lat="39.803905" lon="8.60883"><ele>-1.6666666666666665</ele><time>2026-05-03T06:04:49.681Z</time></trkpt><trkpt lat="39.8039067" lon="8.6091"><ele>-1.0</ele><time>2026-05-03T06:04:50.681Z</time></trkpt><trkpt lat="39.803895" lon="8.6093683"><ele>-1.0</ele><time>2026-05-03T06:04:51.681Z</time></trkpt><trkpt lat="39.80389" lon="8.609635"><ele>-1.0</ele><time>2026-05-03T06:04:52.681Z</time></trkpt><trkpt lat="39.8038867" lon="8.6098933"><ele>-1.0</ele><time>2026-05-03T06:04:53.681Z</time></trkpt><trkpt lat="39.80389" lon="8.61014"><ele>-0.3333333333333333</ele><time>2026-05-03T06:04:54.681Z</time></trkpt><trkpt lat="39.8038867" lon="8.6103783"><ele>0.3333333333333333</ele><time>2026-05-03T06:04:55.681Z</time></trkpt><trkpt lat="39.8038933" lon="8.6106067"><ele>1.0</ele><time>2026-05-03T06:04:56.681Z</time></trkpt><trkpt lat="39.803895" lon="8.61085"><ele>1.0</ele><time>2026-05-03T06:04:57.682Z</time></trkpt><trkpt lat="39.8039" lon="8.611075"><ele>1.0</ele><time>2026-05-03T06:04:58.682Z</time></trkpt><trkpt lat="39.8039" lon="8.611315"><ele>1.0</ele><time>2026-05-03T06:04:59.681Z</time></trkpt><trkpt lat="39.8039067" lon="8.6115567"><ele>1.0</ele><time>2026-05-03T06:05:00.681Z</time></trkpt><trkpt lat="39.803905" lon="8.61181"><ele>1.0</ele><time>2026-05-03T06:05:01.681Z</time></trkpt><trkpt lat="39.8039083" lon="8.612075"><ele>1.0</ele><time>2026-05-03T06:05:02.681Z</time></trkpt><trkpt lat="39.803915" lon="8.612335"><ele>0.6666666666666666</ele><time>2026-05-03T06:05:03.681Z</time></trkpt><trkpt lat="39.8039133" lon="8.612605"><ele>0.3333333333333333</ele><time>2026-05-03T06:05:04.681Z</time></trkpt><trkpt lat="39.8039183" lon="8.6128683"><ele>0.0</ele><time>2026-05-03T06:05:05.681Z</time></trkpt><trkpt lat="39.8039133" lon="8.6131333"><ele>0.0</ele><time>2026-05-03T06:05:06.681Z</time></trkpt><trkpt lat="39.8039117" lon="8.6133933"><ele>0.0</ele><time>2026-05-03T06:05:07.682Z</time></trkpt><trkpt lat="39.8039083" lon="8.61366"><ele>0.0</ele><time>2026-05-03T06:05:08.681Z</time></trkpt><trkpt lat="39.8039117" lon="8.6139133"><ele>0.0</ele><time>2026-05-03T06:05:09.682Z</time></trkpt><trkpt lat="39.8039083" lon="8.6141733"><ele>0.0</ele><time>2026-05-03T06:05:10.682Z</time></trkpt><trkpt lat="39.8039133" lon="8.614415"><ele>0.0</ele><time>2026-05-03T06:05:11.682Z</time></trkpt><trkpt lat="39.803915" lon="8.6146567"><ele>0.0</ele><time>2026-05-03T06:05:12.682Z</time></trkpt><trkpt lat="39.8039083" lon="8.6148833"><ele>0.0</ele><time>2026-05-03T06:05:13.681Z</time></trkpt><trkpt lat="39.803905" lon="8.6150883"><ele>0.0</ele><time>2026-05-03T06:05:14.681Z</time></trkpt><trkpt lat="39.8039083" lon="8.61528"><ele>0.3333333333333333</ele><time>2026-05-03T06:05:15.681Z</time></trkpt><trkpt lat="39.8039133" lon="8.615495"><ele>0.6666666666666666</ele><time>2026-05-03T06:05:16.681Z</time></trkpt><trkpt lat="39.803925" lon="8.6157217"><ele>1.0</ele><time>2026-05-03T06:05:17.682Z</time></trkpt><trkpt lat="39.8039383" lon="8.6159567"><ele>1.0</ele><time>2026-05-03T06:05:18.681Z</time></trkpt><trkpt lat="39.8039367" lon="8.616205"><ele>1.0</ele><time>2026-05-03T06:05:19.682Z</time></trkpt><trkpt lat="39.8039317" lon="8.616475"><ele>1.0</ele><time>2026-05-03T06:05:20.682Z</time></trkpt><trkpt lat="39.8039283" lon="8.6167367"><ele>0.6666666666666666</ele><time>2026-05-03T06:05:21.682Z</time></trkpt><trkpt lat="39.8039283" lon="8.6170033"><ele>0.3333333333333333</ele><time>2026-05-03T06:05:22.681Z</time></trkpt><trkpt lat="39.80393" lon="8.6172633"><ele>0.0</ele><time>2026-05-03T06:05:23.682Z</time></trkpt><trkpt lat="39.8039217" lon="8.617525"><ele>0.0</ele><time>2026-05-03T06:05:24.682Z</time></trkpt><trkpt lat="39.8039267" lon="8.6177783"><ele>0.0</ele><time>2026-05-03T06:05:25.682Z</time></trkpt><trkpt lat="39.8039283" lon="8.6180533"><ele>0.0</ele><time>2026-05-03T06:05:26.681Z</time></trkpt><trkpt lat="39.80393" lon="8.6183217"><ele>0.0</ele><time>2026-05-03T06:05:27.682Z</time></trkpt><trkpt lat="39.8039317" lon="8.6185917"><ele>0.0</ele><time>2026-05-03T06:05:28.681Z</time></trkpt><trkpt lat="39.803925" lon="8.6188583"><ele>0.0</ele><time>2026-05-03T06:05:29.682Z</time></trkpt><trkpt lat="39.8039233" lon="8.6191183"><ele>0.0</ele><time>2026-05-03T06:05:30.682Z</time></trkpt><trkpt lat="39.8039283" lon="8.6193733"><ele>0.0</ele><time>2026-05-03T06:05:31.681Z</time></trkpt><trkpt lat="39.80394" lon="8.619625"><ele>0.0</ele><time>2026-05-03T06:05:32.682Z</time></trkpt><trkpt lat="39.8039467" lon="8.6198833"><ele>0.0</ele><time>2026-05-03T06:05:33.681Z</time></trkpt><trkpt lat="39.8039533" lon="8.620155"><ele>0.0</ele><time>2026-05-03T06:05:34.682Z</time></trkpt><trkpt lat="39.8039533" lon="8.6204317"><ele>0.0</ele><time>2026-05-03T06:05:35.682Z</time></trkpt><trkpt lat="39.8039567" lon="8.6207117"><ele>-0.3333333333333333</ele><time>2026-05-03T06:05:36.681Z</time></trkpt><trkpt lat="39.8039517" lon="8.62098"><ele>-0.6666666666666666</ele><time>2026-05-03T06:05:37.682Z</time></trkpt><trkpt lat="39.8039533" lon="8.621235"><ele>-1.0</ele><time>2026-05-03T06:05:38.681Z</time></trkpt><trkpt lat="39.8039467" lon="8.621475"><ele>0.0</ele><time>2026-05-03T06:05:39.682Z</time></trkpt><trkpt lat="39.8039467" lon="8.6217183"><ele>1.0</ele><time>2026-05-03T06:05:40.682Z</time></trkpt><trkpt lat="39.8039533" lon="8.6219633"><ele>2.0</ele><time>2026-05-03T06:05:41.681Z</time></trkpt><trkpt lat="39.8039483" lon="8.6222317"><ele>3.0</ele><time>2026-05-03T06:05:42.682Z</time></trkpt><trkpt lat="39.803945" lon="8.622505"><ele>4.0</ele><time>2026-05-03T06:05:43.682Z</time></trkpt><trkpt lat="39.8039483" lon="8.62277"><ele>5.0</ele><time>2026-05-03T06:05:44.681Z</time></trkpt><trkpt lat="39.8039483" lon="8.623055"><ele>5.0</ele><time>2026-05-03T06:05:45.682Z</time></trkpt><trkpt lat="39.80394" lon="8.6233417"><ele>5.0</ele><time>2026-05-03T06:05:46.681Z</time></trkpt><trkpt lat="39.803945" lon="8.623625"><ele>5.0</ele><time>2026-05-03T06:05:47.682Z</time></trkpt><trkpt lat="39.8039433" lon="8.6239333"><ele>5.5</ele><time>2026-05-03T06:05:48.682Z</time></trkpt><trkpt lat="39.803945" lon="8.6242317"><ele>6.0</ele><time>2026-05-03T06:05:49.681Z</time></trkpt><trkpt lat="39.8039467" lon="8.6245317"><ele>6.5</ele><time>2026-05-03T06:05:50.681Z</time></trkpt><trkpt lat="39.8039517" lon="8.6248317"><ele>7.0</ele><time>2026-05-03T06:05:51.681Z</time></trkpt><trkpt lat="39.8039567" lon="8.6251367"><ele>7.0</ele><time>2026-05-03T06:05:52.681Z</time></trkpt><trkpt lat="39.8039583" lon="8.6254433"><ele>7.0</ele><time>2026-05-03T06:05:53.681Z</time></trkpt><trkpt lat="39.8039567" lon="8.6257517"><ele>7.0</ele><time>2026-05-03T06:05:54.682Z</time></trkpt><trkpt lat="39.8039567" lon="8.626065"><ele>7.0</ele><time>2026-05-03T06:05:55.681Z</time></trkpt><trkpt lat="39.803955" lon="8.6263733"><ele>7.0</ele><time>2026-05-03T06:05:56.682Z</time></trkpt><trkpt lat="39.80396" lon="8.6266717"><ele>7.0</ele><time>2026-05-03T06:05:57.681Z</time></trkpt><trkpt lat="39.8039583" lon="8.626975"><ele>7.333333333333334</ele><time>2026-05-03T06:05:58.681Z</time></trkpt><trkpt lat="39.8039633" lon="8.627275"><ele>7.666666666666666</ele><time>2026-05-03T06:05:59.681Z</time></trkpt><trkpt lat="39.80397" lon="8.6275533"><ele>8.0</ele><time>2026-05-03T06:06:00.682Z</time></trkpt><trkpt lat="39.80397" lon="8.6278433"><ele>9.5</ele><time>2026-05-03T06:06:01.682Z</time></trkpt><trkpt lat="39.8039683" lon="8.62815"><ele>11.0</ele><time>2026-05-03T06:06:02.681Z</time></trkpt><trkpt lat="39.8039767" lon="8.62846"><ele>11.5</ele><time>2026-05-03T06:06:03.681Z</time></trkpt><trkpt lat="39.8039767" lon="8.6287717"><ele>12.0</ele><time>2026-05-03T06:06:04.681Z</time></trkpt><trkpt lat="39.803975" lon="8.62907"><ele>12.0</ele><time>2026-05-03T06:06:05.681Z</time></trkpt><trkpt lat="39.8039717" lon="8.6293567"><ele>12.0</ele><time>2026-05-03T06:06:06.681Z</time></trkpt><trkpt lat="39.8039717" lon="8.62965"><ele>12.0</ele><time>2026-05-03T06:06:07.681Z</time></trkpt><trkpt lat="39.8039633" lon="8.6299417"><ele>12.5</ele><time>2026-05-03T06:06:08.682Z</time></trkpt><trkpt lat="39.8039633" lon="8.6302383"><ele>13.0</ele><time>2026-05-03T06:06:09.681Z</time></trkpt><trkpt lat="39.8039583" lon="8.6305317"><ele>12.333333333333332</ele><time>2026-05-03T06:06:10.681Z</time></trkpt><trkpt lat="39.80397" lon="8.6308117"><ele>11.666666666666666</ele><time>2026-05-03T06:06:11.682Z</time></trkpt><trkpt lat="39.8039733" lon="8.6310967"><ele>11.0</ele><time>2026-05-03T06:06:12.682Z</time></trkpt><trkpt lat="39.8039833" lon="8.6313717"><ele>10.666666666666666</ele><time>2026-05-03T06:06:13.681Z</time></trkpt><trkpt lat="39.8039833" lon="8.6316533"><ele>10.333333333333334</ele><time>2026-05-03T06:06:14.681Z</time></trkpt><trkpt lat="39.8039867" lon="8.6319333"><ele>10.0</ele><time>2026-05-03T06:06:15.682Z</time></trkpt><trkpt lat="39.8039983" lon="8.6322067"><ele>10.0</ele><time>2026-05-03T06:06:16.681Z</time></trkpt><trkpt lat="39.8040133" lon="8.6324733"><ele>10.0</ele><time>2026-05-03T06:06:17.682Z</time></trkpt><trkpt lat="39.804055" lon="8.6327317"><ele>10.0</ele><time>2026-05-03T06:06:18.682Z</time></trkpt><trkpt lat="39.8041283" lon="8.6329767"><ele>10.0</ele><time>2026-05-03T06:06:19.681Z</time></trkpt><trkpt lat="39.8042217" lon="8.6332117"><ele>10.0</ele><time>2026-05-03T06:06:20.682Z</time></trkpt><trkpt lat="39.80434" lon="8.633435"><ele>10.0</ele><time>2026-05-03T06:06:21.681Z</time></trkpt><trkpt lat="39.8044783" lon="8.6336433"><ele>10.333333333333334</ele><time>2026-05-03T06:06:22.682Z</time></trkpt><trkpt lat="39.8046383" lon="8.6338467"><ele>10.666666666666666</ele><time>2026-05-03T06:06:23.681Z</time></trkpt><trkpt lat="39.8047867" lon="8.63405"><ele>11.0</ele><time>2026-05-03T06:06:24.682Z</time></trkpt><trkpt lat="39.804925" lon="8.6342617"><ele>11.0</ele><time>2026-05-03T06:06:25.682Z</time></trkpt><trkpt lat="39.8050617" lon="8.6344717"><ele>11.0</ele><time>2026-05-03T06:06:26.682Z</time></trkpt><trkpt lat="39.8051967" lon="8.6346733"><ele>11.0</ele><time>2026-05-03T06:06:27.681Z</time></trkpt><trkpt lat="39.80533" lon="8.6348683"><ele>10.666666666666666</ele><time>2026-05-03T06:06:28.681Z</time></trkpt><trkpt lat="39.80546" lon="8.6350733"><ele>10.333333333333334</ele><time>2026-05-03T06:06:29.681Z</time></trkpt><trkpt lat="39.8055917" lon="8.6352783"><ele>10.0</ele><time>2026-05-03T06:06:30.681Z</time></trkpt><trkpt lat="39.805735" lon="8.635505"><ele>10.0</ele><time>2026-05-03T06:06:31.681Z</time></trkpt><trkpt lat="39.805885" lon="8.6357367"><ele>10.0</ele><time>2026-05-03T06:06:32.681Z</time></trkpt><trkpt lat="39.806035" lon="8.6359667"><ele>10.0</ele><time>2026-05-03T06:06:33.681Z</time></trkpt><trkpt lat="39.8061617" lon="8.6361533"><ele>10.0</ele><time>2026-05-03T06:06:34.681Z</time></trkpt><trkpt lat="39.8062767" lon="8.6363183"><ele>10.0</ele><time>2026-05-03T06:06:35.682Z</time></trkpt><trkpt lat="39.8063983" lon="8.6364867"><ele>10.0</ele><time>2026-05-03T06:06:36.681Z</time></trkpt><trkpt lat="39.806525" lon="8.6366433"><ele>10.0</ele><time>2026-05-03T06:06:37.682Z</time></trkpt><trkpt lat="39.8066633" lon="8.636775"><ele>10.0</ele><time>2026-05-03T06:06:38.682Z</time></trkpt><trkpt lat="39.806835" lon="8.6368783"><ele>9.666666666666668</ele><time>2026-05-03T06:06:39.681Z</time></trkpt><trkpt lat="39.8070217" lon="8.63694"><ele>9.333333333333334</ele><time>2026-05-03T06:06:40.681Z</time></trkpt><trkpt lat="39.8072133" lon="8.6369633"><ele>9.0</ele><time>2026-05-03T06:06:41.682Z</time></trkpt><trkpt lat="39.8074183" lon="8.6369917"><ele>9.0</ele><time>2026-05-03T06:06:42.682Z</time></trkpt><trkpt lat="39.80762" lon="8.6370183"><ele>9.0</ele><time>2026-05-03T06:06:43.682Z</time></trkpt><trkpt lat="39.8078283" lon="8.6370483"><ele>9.0</ele><time>2026-05-03T06:06:44.682Z</time></trkpt><trkpt lat="39.80803" lon="8.6370817"><ele>9.0</ele><time>2026-05-03T06:06:45.681Z</time></trkpt><trkpt lat="39.80824" lon="8.63712"><ele>9.0</ele><time>2026-05-03T06:06:46.682Z</time></trkpt><trkpt lat="39.8084417" lon="8.6371533"><ele>9.0</ele><time>2026-05-03T06:06:47.681Z</time></trkpt><trkpt lat="39.8086567" lon="8.6371983"><ele>10.333333333333332</ele><time>2026-05-03T06:06:48.681Z</time></trkpt><trkpt lat="39.8088633" lon="8.637225"><ele>11.666666666666666</ele><time>2026-05-03T06:06:49.681Z</time></trkpt><trkpt lat="39.8090583" lon="8.63724"><ele>13.0</ele><time>2026-05-03T06:06:50.681Z</time></trkpt><trkpt lat="39.8092633" lon="8.6372683"><ele>13.666666666666666</ele><time>2026-05-03T06:06:51.681Z</time></trkpt><trkpt lat="39.8094633" lon="8.6373017"><ele>14.333333333333332</ele><time>2026-05-03T06:06:52.681Z</time></trkpt><trkpt lat="39.8096617" lon="8.637335"><ele>15.0</ele><time>2026-05-03T06:06:53.682Z</time></trkpt><trkpt lat="39.809855" lon="8.6373583"><ele>15.0</ele><time>2026-05-03T06:06:54.682Z</time></trkpt><trkpt lat="39.8100517" lon="8.6373883"><ele>15.0</ele><time>2026-05-03T06:06:55.681Z</time></trkpt><trkpt lat="39.810255" lon="8.6374233"><ele>15.0</ele><time>2026-05-03T06:06:56.682Z</time></trkpt><trkpt lat="39.810445" lon="8.6374467"><ele>14.333333333333332</ele><time>2026-05-03T06:06:57.682Z</time></trkpt><trkpt lat="39.810645" lon="8.6374667"><ele>13.666666666666666</ele><time>2026-05-03T06:06:58.681Z</time></trkpt><trkpt lat="39.8108533" lon="8.6375"><ele>13.0</ele><time>2026-05-03T06:06:59.681Z</time></trkpt><trkpt lat="39.8110583" lon="8.6375367"><ele>12.666666666666666</ele><time>2026-05-03T06:07:00.682Z</time></trkpt><trkpt lat="39.8112633" lon="8.6375633"><ele>12.333333333333332</ele><time>2026-05-03T06:07:01.681Z</time></trkpt><trkpt lat="39.811465" lon="8.6375883"><ele>12.0</ele><time>2026-05-03T06:07:02.681Z</time></trkpt><trkpt lat="39.81165" lon="8.6376167"><ele>12.0</ele><time>2026-05-03T06:07:03.681Z</time></trkpt><trkpt lat="39.811815" lon="8.637645"><ele>12.0</ele><time>2026-05-03T06:07:04.681Z</time></trkpt><trkpt lat="39.8119533" lon="8.637665"><ele>12.0</ele><time>2026-05-03T06:07:05.681Z</time></trkpt><trkpt lat="39.81209" lon="8.6376983"><ele>12.0</ele><time>2026-05-03T06:07:06.682Z</time></trkpt><trkpt lat="39.81221" lon="8.637745"><ele>12.75</ele><time>2026-05-03T06:07:07.681Z</time></trkpt><trkpt lat="39.8123283" lon="8.637825"><ele>13.5</ele><time>2026-05-03T06:07:08.681Z</time></trkpt><trkpt lat="39.8124383" lon="8.63793"><ele>14.25</ele><time>2026-05-03T06:07:09.681Z</time></trkpt><trkpt lat="39.812525" lon="8.6380633"><ele>15.0</ele><time>2026-05-03T06:07:10.682Z</time></trkpt><trkpt lat="39.8126067" lon="8.6382333"><ele>14.666666666666668</ele><time>2026-05-03T06:07:11.681Z</time></trkpt><trkpt lat="39.81268" lon="8.638415"><ele>14.333333333333334</ele><time>2026-05-03T06:07:12.681Z</time></trkpt><trkpt lat="39.8127583" lon="8.6386117"><ele>14.0</ele><time>2026-05-03T06:07:13.681Z</time></trkpt><trkpt lat="39.8128283" lon="8.6388167"><ele>15.0</ele><time>2026-05-03T06:07:14.682Z</time></trkpt><trkpt lat="39.8128933" lon="8.6390183"><ele>16.0</ele><time>2026-05-03T06:07:15.682Z</time></trkpt><trkpt lat="39.81295" lon="8.6392017"><ele>17.0</ele><time>2026-05-03T06:07:16.682Z</time></trkpt><trkpt lat="39.81301" lon="8.639375"><ele>16.75</ele><time>2026-05-03T06:07:17.681Z</time></trkpt><trkpt lat="39.8130583" lon="8.63956"><ele>16.5</ele><time>2026-05-03T06:07:18.681Z</time></trkpt><trkpt lat="39.8131033" lon="8.6397333"><ele>16.25</ele><time>2026-05-03T06:07:19.681Z</time></trkpt><trkpt lat="39.8131417" lon="8.6398917"><ele>16.0</ele><time>2026-05-03T06:07:20.681Z</time></trkpt><trkpt lat="39.813175" lon="8.64005"><ele>16.0</ele><time>2026-05-03T06:07:21.681Z</time></trkpt><trkpt lat="39.8131967" lon="8.6402"><ele>16.0</ele><time>2026-05-03T06:07:22.681Z</time></trkpt><trkpt lat="39.81322" lon="8.6403467"><ele>16.0</ele><time>2026-05-03T06:07:23.681Z</time></trkpt><trkpt lat="39.8132517" lon="8.6404933"><ele>16.0</ele><time>2026-05-03T06:07:24.682Z</time></trkpt><trkpt lat="39.8132833" lon="8.6406533"><ele>16.25</ele><time>2026-05-03T06:07:25.681Z</time></trkpt><trkpt lat="39.8133" lon="8.6408283"><ele>16.5</ele><time>2026-05-03T06:07:26.682Z</time></trkpt><trkpt lat="39.8133167" lon="8.64102"><ele>16.75</ele><time>2026-05-03T06:07:27.681Z</time></trkpt><trkpt lat="39.8133067" lon="8.64121"><ele>17.0</ele><time>2026-05-03T06:07:28.681Z</time></trkpt><trkpt lat="39.8132783" lon="8.6413883"><ele>17.0</ele><time>2026-05-03T06:07:29.681Z</time></trkpt><trkpt lat="39.8132167" lon="8.6415667"><ele>17.0</ele><time>2026-05-03T06:07:30.681Z</time></trkpt><trkpt lat="39.8131383" lon="8.6417317"><ele>17.0</ele><time>2026-05-03T06:07:31.682Z</time></trkpt><trkpt lat="39.8130433" lon="8.6418733"><ele>17.0</ele><time>2026-05-03T06:07:32.681Z</time></trkpt><trkpt lat="39.8129383" lon="8.64199"><ele>16.75</ele><time>2026-05-03T06:07:33.681Z</time></trkpt><trkpt lat="39.8128233" lon="8.6420917"><ele>16.5</ele><time>2026-05-03T06:07:34.681Z</time></trkpt><trkpt lat="39.8127083" lon="8.642175"><ele>16.25</ele><time>2026-05-03T06:07:35.681Z</time></trkpt><trkpt lat="39.8125767" lon="8.6422517"><ele>16.0</ele><time>2026-05-03T06:07:36.681Z</time></trkpt><trkpt lat="39.8124367" lon="8.6423133"><ele>15.75</ele><time>2026-05-03T06:07:37.681Z</time></trkpt><trkpt lat="39.8123067" lon="8.64236"><ele>15.5</ele><time>2026-05-03T06:07:38.681Z</time></trkpt><trkpt lat="39.8121583" lon="8.6423983"><ele>15.25</ele><time>2026-05-03T06:07:39.681Z</time></trkpt><trkpt lat="39.8120317" lon="8.6424367"><ele>15.0</ele><time>2026-05-03T06:07:40.682Z</time></trkpt><trkpt lat="39.8118967" lon="8.642495"><ele>15.0</ele><time>2026-05-03T06:07:41.681Z</time></trkpt><trkpt lat="39.811765" lon="8.6425467"><ele>15.0</ele><time>2026-05-03T06:07:42.681Z</time></trkpt><trkpt lat="39.8116317" lon="8.6426"><ele>15.0</ele><time>2026-05-03T06:07:43.682Z</time></trkpt><trkpt lat="39.8115017" lon="8.6426383"><ele>15.0</ele><time>2026-05-03T06:07:44.681Z</time></trkpt><trkpt lat="39.8113617" lon="8.6427"><ele>15.0</ele><time>2026-05-03T06:07:45.681Z</time></trkpt><trkpt lat="39.8112167" lon="8.6427617"><ele>15.0</ele><time>2026-05-03T06:07:46.682Z</time></trkpt><trkpt lat="39.8110717" lon="8.6428383"><ele>15.0</ele><time>2026-05-03T06:07:47.681Z</time></trkpt><trkpt lat="39.8109367" lon="8.6428967"><ele>15.4</ele><time>2026-05-03T06:07:48.681Z</time></trkpt><trkpt lat="39.8108133" lon="8.6429433"><ele>15.8</ele><time>2026-05-03T06:07:49.682Z</time></trkpt><trkpt lat="39.8107083" lon="8.6429717"><ele>16.2</ele><time>2026-05-03T06:07:50.681Z</time></trkpt><trkpt lat="39.8106183" lon="8.6430083"><ele>16.6</ele><time>2026-05-03T06:07:51.682Z</time></trkpt><trkpt lat="39.8105483" lon="8.6430567"><ele>17.0</ele><time>2026-05-03T06:07:52.681Z</time></trkpt><trkpt lat="39.8104833" lon="8.643135"><ele>17.0</ele><time>2026-05-03T06:07:53.681Z</time></trkpt><trkpt lat="39.810445" lon="8.643235"><ele>17.0</ele><time>2026-05-03T06:07:54.681Z</time></trkpt><trkpt lat="39.8104283" lon="8.6433617"><ele>17.0</ele><time>2026-05-03T06:07:55.681Z</time></trkpt><trkpt lat="39.8104283" lon="8.643495"><ele>17.0</ele><time>2026-05-03T06:07:56.682Z</time></trkpt><trkpt lat="39.8104267" lon="8.6436417"><ele>17.0</ele><time>2026-05-03T06:07:57.681Z</time></trkpt><trkpt lat="39.8104317" lon="8.6437983"><ele>17.0</ele><time>2026-05-03T06:07:58.681Z</time></trkpt><trkpt lat="39.810435" lon="8.64397"><ele>17.0</ele><time>2026-05-03T06:07:59.682Z</time></trkpt><trkpt lat="39.81044" lon="8.644155"><ele>17.0</ele><time>2026-05-03T06:08:00.681Z</time></trkpt><trkpt lat="39.8104417" lon="8.6443433"><ele>17.0</ele><time>2026-05-03T06:08:01.682Z</time></trkpt><trkpt lat="39.81044" lon="8.6445383"><ele>17.333333333333336</ele><time>2026-05-03T06:08:02.681Z</time></trkpt><trkpt lat="39.8104367" lon="8.6447383"><ele>17.666666666666668</ele><time>2026-05-03T06:08:03.681Z</time></trkpt><trkpt lat="39.8104333" lon="8.6449417"><ele>18.0</ele><time>2026-05-03T06:08:04.681Z</time></trkpt><trkpt lat="39.810425" lon="8.6451583"><ele>19.333333333333332</ele><time>2026-05-03T06:08:05.681Z</time></trkpt><trkpt lat="39.8104183" lon="8.6453633"><ele>20.666666666666664</ele><time>2026-05-03T06:08:06.681Z</time></trkpt><trkpt lat="39.8104233" lon="8.6455767"><ele>22.0</ele><time>2026-05-03T06:08:07.682Z</time></trkpt><trkpt lat="39.810425" lon="8.6457883"><ele>22.0</ele><time>2026-05-03T06:08:08.682Z</time></trkpt><trkpt lat="39.81041" lon="8.646"><ele>22.0</ele><time>2026-05-03T06:08:09.682Z</time></trkpt><trkpt lat="39.8103867" lon="8.6462367"><ele>22.0</ele><time>2026-05-03T06:08:10.682Z</time></trkpt><trkpt lat="39.8103817" lon="8.6464583"><ele>22.0</ele><time>2026-05-03T06:08:11.681Z</time></trkpt><trkpt lat="39.8103767" lon="8.64666"><ele>22.0</ele><time>2026-05-03T06:08:12.681Z</time></trkpt><trkpt lat="39.8103733" lon="8.6468417"><ele>22.0</ele><time>2026-05-03T06:08:13.681Z</time></trkpt><trkpt lat="39.810365" lon="8.647"><ele>22.0</ele><time>2026-05-03T06:08:14.681Z</time></trkpt><trkpt lat="39.810365" lon="8.6471533"><ele>21.8</ele><time>2026-05-03T06:08:15.681Z</time></trkpt><trkpt lat="39.8103567" lon="8.6472967"><ele>21.6</ele><time>2026-05-03T06:08:16.681Z</time></trkpt><trkpt lat="39.8103683" lon="8.6474133"><ele>21.400000000000002</ele><time>2026-05-03T06:08:17.681Z</time></trkpt><trkpt lat="39.8103883" lon="8.647505"><ele>21.200000000000003</ele><time>2026-05-03T06:08:18.681Z</time></trkpt><trkpt lat="39.810475" lon="8.6476017"><ele>21.0</ele><time>2026-05-03T06:08:20.681Z</time></trkpt><trkpt lat="39.810555" lon="8.6476067"><ele>21.0</ele><time>2026-05-03T06:08:21.681Z</time></trkpt><trkpt lat="39.8106517" lon="8.6476067"><ele>21.0</ele><time>2026-05-03T06:08:22.682Z</time></trkpt><trkpt lat="39.8107567" lon="8.6476067"><ele>21.0</ele><time>2026-05-03T06:08:23.681Z</time></trkpt><trkpt lat="39.8108633" lon="8.6476083"><ele>21.0</ele><time>2026-05-03T06:08:24.681Z</time></trkpt><trkpt lat="39.8109683" lon="8.6476117"><ele>21.0</ele><time>2026-05-03T06:08:25.681Z</time></trkpt><trkpt lat="39.8110667" lon="8.647615"><ele>21.0</ele><time>2026-05-03T06:08:26.681Z</time></trkpt><trkpt lat="39.8111667" lon="8.6476283"><ele>21.0</ele><time>2026-05-03T06:08:27.681Z</time></trkpt><trkpt lat="39.8112633" lon="8.6476417"><ele>21.0</ele><time>2026-05-03T06:08:28.682Z</time></trkpt><trkpt lat="39.8113617" lon="8.6476367"><ele>21.0</ele><time>2026-05-03T06:08:29.682Z</time></trkpt><trkpt lat="39.81146" lon="8.6476383"><ele>21.0</ele><time>2026-05-03T06:08:30.681Z</time></trkpt><trkpt lat="39.8115583" lon="8.64764"><ele>21.0</ele><time>2026-05-03T06:08:31.681Z</time></trkpt><trkpt lat="39.8116583" lon="8.6476483"><ele>21.0</ele><time>2026-05-03T06:08:32.682Z</time></trkpt><trkpt lat="39.8117433" lon="8.6476517"><ele>21.0</ele><time>2026-05-03T06:08:33.682Z</time></trkpt><trkpt lat="39.8118217" lon="8.6476583"><ele>21.0</ele><time>2026-05-03T06:08:34.681Z</time></trkpt><trkpt lat="39.8119267" lon="8.6476567"><ele>21.0</ele><time>2026-05-03T06:08:36.682Z</time></trkpt><trkpt lat="39.81199" lon="8.6475933"><ele>21.0</ele><time>2026-05-03T06:08:38.682Z</time></trkpt><trkpt lat="39.81203" lon="8.647425"><ele>20.0</ele><time>2026-05-03T06:08:40.681Z</time></trkpt><trkpt lat="39.8120417" lon="8.647295"><ele>19.0</ele><time>2026-05-03T06:08:41.682Z</time></trkpt><trkpt lat="39.81205" lon="8.6471433"><ele>18.0</ele><time>2026-05-03T06:08:42.681Z</time></trkpt><trkpt lat="39.8120617" lon="8.646985"><ele>17.0</ele><time>2026-05-03T06:08:43.682Z</time></trkpt><trkpt lat="39.8120633" lon="8.646825"><ele>17.0</ele><time>2026-05-03T06:08:44.681Z</time></trkpt><trkpt lat="39.81207" lon="8.6466767"><ele>17.0</ele><time>2026-05-03T06:08:45.681Z</time></trkpt><trkpt lat="39.8120817" lon="8.6465267"><ele>17.0</ele><time>2026-05-03T06:08:46.681Z</time></trkpt><trkpt lat="39.812095" lon="8.6463833"><ele>17.0</ele><time>2026-05-03T06:08:47.681Z</time></trkpt><trkpt lat="39.8121083" lon="8.6462417"><ele>17.0</ele><time>2026-05-03T06:08:48.682Z</time></trkpt><trkpt lat="39.8121383" lon="8.6461083"><ele>17.0</ele><time>2026-05-03T06:08:49.681Z</time></trkpt><trkpt lat="39.8121717" lon="8.6459767"><ele>17.0</ele><time>2026-05-03T06:08:50.681Z</time></trkpt><trkpt lat="39.8122217" lon="8.6458567"><ele>17.0</ele><time>2026-05-03T06:08:51.681Z</time></trkpt><trkpt lat="39.8122783" lon="8.6457233"><ele>17.0</ele><time>2026-05-03T06:08:52.681Z</time></trkpt><trkpt lat="39.8123383" lon="8.6455917"><ele>17.0</ele><time>2026-05-03T06:08:53.681Z</time></trkpt><trkpt lat="39.8124017" lon="8.6454633"><ele>17.0</ele><time>2026-05-03T06:08:54.682Z</time></trkpt><trkpt lat="39.8124683" lon="8.64533"><ele>17.0</ele><time>2026-05-03T06:08:55.681Z</time></trkpt><trkpt lat="39.812525" lon="8.645195"><ele>17.0</ele><time>2026-05-03T06:08:56.681Z</time></trkpt><trkpt lat="39.81258" lon="8.64506"><ele>17.25</ele><time>2026-05-03T06:08:57.681Z</time></trkpt><trkpt lat="39.8126333" lon="8.6449333"><ele>17.5</ele><time>2026-05-03T06:08:58.682Z</time></trkpt><trkpt lat="39.81269" lon="8.6448083"><ele>17.75</ele><time>2026-05-03T06:08:59.681Z</time></trkpt><trkpt lat="39.812745" lon="8.6446683"><ele>18.0</ele><time>2026-05-03T06:09:00.682Z</time></trkpt><trkpt lat="39.8127983" lon="8.6445317"><ele>17.5</ele><time>2026-05-03T06:09:01.682Z</time></trkpt><trkpt lat="39.8128567" lon="8.644385"><ele>17.0</ele><time>2026-05-03T06:09:02.682Z</time></trkpt><trkpt lat="39.8129133" lon="8.64425"><ele>16.5</ele><time>2026-05-03T06:09:03.681Z</time></trkpt><trkpt lat="39.8129717" lon="8.6441233"><ele>16.0</ele><time>2026-05-03T06:09:04.681Z</time></trkpt><trkpt lat="39.813025" lon="8.6440017"><ele>15.999999999999998</ele><time>2026-05-03T06:09:05.682Z</time></trkpt><trkpt lat="39.813065" lon="8.6438983"><ele>16.0</ele><time>2026-05-03T06:09:06.682Z</time></trkpt><trkpt lat="39.8131033" lon="8.643815"><ele>16.0</ele><time>2026-05-03T06:09:07.682Z</time></trkpt><trkpt lat="39.81317" lon="8.643705"><ele>16.0</ele><time>2026-05-03T06:09:09.681Z</time></trkpt><trkpt lat="39.8132383" lon="8.6436833"><ele>15.999999999999998</ele><time>2026-05-03T06:09:12.681Z</time></trkpt><trkpt lat="39.813285" lon="8.6437417"><ele>16.0</ele><time>2026-05-03T06:09:14.682Z</time></trkpt><trkpt lat="39.813375" lon="8.64385"><ele>15.999999999999998</ele><time>2026-05-03T06:09:16.682Z</time></trkpt><trkpt lat="39.8134333" lon="8.6439133"><ele>16.0</ele><time>2026-05-03T06:09:17.681Z</time></trkpt><trkpt lat="39.8134967" lon="8.6439833"><ele>16.0</ele><time>2026-05-03T06:09:18.681Z</time></trkpt><trkpt lat="39.8135717" lon="8.6440533"><ele>16.0</ele><time>2026-05-03T06:09:19.681Z</time></trkpt><trkpt lat="39.8136517" lon="8.64413"><ele>15.999999999999998</ele><time>2026-05-03T06:09:20.681Z</time></trkpt><trkpt lat="39.813725" lon="8.6442067"><ele>16.0</ele><time>2026-05-03T06:09:21.681Z</time></trkpt><trkpt lat="39.8138" lon="8.6442817"><ele>16.0</ele><time>2026-05-03T06:09:22.681Z</time></trkpt><trkpt lat="39.8138833" lon="8.64436"><ele>16.0</ele><time>2026-05-03T06:09:23.681Z</time></trkpt><trkpt lat="39.8139617" lon="8.6444333"><ele>16.0</ele><time>2026-05-03T06:09:24.681Z</time></trkpt><trkpt lat="39.8140367" lon="8.6445033"><ele>16.0</ele><time>2026-05-03T06:09:25.682Z</time></trkpt><trkpt lat="39.8141083" lon="8.6445633"><ele>16.0</ele><time>2026-05-03T06:09:26.681Z</time></trkpt><trkpt lat="39.8141767" lon="8.644625"><ele>15.999999999999998</ele><time>2026-05-03T06:09:27.681Z</time></trkpt><trkpt lat="39.8142433" lon="8.644685"><ele>16.0</ele><time>2026-05-03T06:09:28.682Z</time></trkpt><trkpt lat="39.8143067" lon="8.64474"><ele>16.0</ele><time>2026-05-03T06:09:29.682Z</time></trkpt><trkpt lat="39.8143583" lon="8.6447917"><ele>16.0</ele><time>2026-05-03T06:09:30.682Z</time></trkpt><trkpt lat="39.8144517" lon="8.64487"><ele>15.999999999999998</ele><time>2026-05-03T06:09:32.681Z</time></trkpt><trkpt lat="39.8145133" lon="8.6449217"><ele>16.0</ele><time>2026-05-03T06:09:34.681Z</time></trkpt><trkpt lat="39.8145917" lon="8.6449367"><ele>15.666666666666666</ele><time>2026-05-03T06:09:36.681Z</time></trkpt><trkpt lat="39.8146567" lon="8.644945"><ele>15.333333333333332</ele><time>2026-05-03T06:09:37.681Z</time></trkpt><trkpt lat="39.8147317" lon="8.64496"><ele>15.0</ele><time>2026-05-03T06:09:38.682Z</time></trkpt><trkpt lat="39.8148067" lon="8.6449633"><ele>14.666666666666668</ele><time>2026-05-03T06:09:39.681Z</time></trkpt><trkpt lat="39.8148933" lon="8.6449367"><ele>14.333333333333334</ele><time>2026-05-03T06:09:40.682Z</time></trkpt><trkpt lat="39.8149867" lon="8.6448867"><ele>14.0</ele><time>2026-05-03T06:09:41.681Z</time></trkpt><trkpt lat="39.81507" lon="8.64481"><ele>14.000000000000002</ele><time>2026-05-03T06:09:42.681Z</time></trkpt><trkpt lat="39.8151417" lon="8.644715"><ele>14.0</ele><time>2026-05-03T06:09:43.681Z</time></trkpt><trkpt lat="39.8152033" lon="8.6446333"><ele>14.0</ele><time>2026-05-03T06:09:44.681Z</time></trkpt><trkpt lat="39.815255" lon="8.6445583"><ele>14.0</ele><time>2026-05-03T06:09:45.682Z</time></trkpt><trkpt lat="39.8153" lon="8.6444833"><ele>14.000000000000002</ele><time>2026-05-03T06:09:46.682Z</time></trkpt><trkpt lat="39.8153433" lon="8.6444067"><ele>14.0</ele><time>2026-05-03T06:09:47.681Z</time></trkpt><trkpt lat="39.81539" lon="8.6443267"><ele>13.166666666666668</ele><time>2026-05-03T06:09:48.682Z</time></trkpt><trkpt lat="39.815445" lon="8.644245"><ele>12.333333333333334</ele><time>2026-05-03T06:09:49.682Z</time></trkpt><trkpt lat="39.8155033" lon="8.644165"><ele>11.5</ele><time>2026-05-03T06:09:50.681Z</time></trkpt><trkpt lat="39.8155667" lon="8.6440767"><ele>10.666666666666668</ele><time>2026-05-03T06:09:51.682Z</time></trkpt><trkpt lat="39.8156367" lon="8.6439883"><ele>9.833333333333334</ele><time>2026-05-03T06:09:52.681Z</time></trkpt><trkpt lat="39.8157" lon="8.6439117"><ele>9.0</ele><time>2026-05-03T06:09:53.682Z</time></trkpt><trkpt lat="39.815765" lon="8.6438317"><ele>9.0</ele><time>2026-05-03T06:09:54.681Z</time></trkpt><trkpt lat="39.8158333" lon="8.6437617"><ele>9.0</ele><time>2026-05-03T06:09:55.682Z</time></trkpt><trkpt lat="39.8158983" lon="8.6437017"><ele>9.0</ele><time>2026-05-03T06:09:56.682Z</time></trkpt><trkpt lat="39.8159567" lon="8.6436567"><ele>9.0</ele><time>2026-05-03T06:09:57.682Z</time></trkpt><trkpt lat="39.816025" lon="8.643625"><ele>9.0</ele><time>2026-05-03T06:09:58.682Z</time></trkpt><trkpt lat="39.816095" lon="8.6435733"><ele>9.0</ele><time>2026-05-03T06:09:59.681Z</time></trkpt><trkpt lat="39.81617" lon="8.6434933"><ele>9.166666666666666</ele><time>2026-05-03T06:10:00.681Z</time></trkpt><trkpt lat="39.8162267" lon="8.64338"><ele>9.333333333333334</ele><time>2026-05-03T06:10:01.681Z</time></trkpt><trkpt lat="39.8162817" lon="8.64327"><ele>9.5</ele><time>2026-05-03T06:10:02.682Z</time></trkpt><trkpt lat="39.8163417" lon="8.6431917"><ele>9.666666666666668</ele><time>2026-05-03T06:10:03.682Z</time></trkpt><trkpt lat="39.816405" lon="8.6431383"><ele>9.833333333333334</ele><time>2026-05-03T06:10:04.681Z</time></trkpt><trkpt lat="39.81648" lon="8.643125"><ele>10.0</ele><time>2026-05-03T06:10:05.681Z</time></trkpt><trkpt lat="39.8165717" lon="8.64314"><ele>10.0</ele><time>2026-05-03T06:10:06.682Z</time></trkpt><trkpt lat="39.8166717" lon="8.6431533"><ele>10.0</ele><time>2026-05-03T06:10:07.681Z</time></trkpt><trkpt lat="39.8167667" lon="8.6431483"><ele>10.0</ele><time>2026-05-03T06:10:08.681Z</time></trkpt><trkpt lat="39.8168533" lon="8.6431067"><ele>10.0</ele><time>2026-05-03T06:10:09.681Z</time></trkpt><trkpt lat="39.816915" lon="8.6430167"><ele>10.0</ele><time>2026-05-03T06:10:10.682Z</time></trkpt><trkpt lat="39.8169583" lon="8.64288"><ele>11.25</ele><time>2026-05-03T06:10:11.681Z</time></trkpt><trkpt lat="39.8169833" lon="8.6427333"><ele>12.5</ele><time>2026-05-03T06:10:12.681Z</time></trkpt><trkpt lat="39.8170017" lon="8.6425683"><ele>13.75</ele><time>2026-05-03T06:10:13.681Z</time></trkpt><trkpt lat="39.8170017" lon="8.6424033"><ele>15.0</ele><time>2026-05-03T06:10:14.681Z</time></trkpt><trkpt lat="39.8169833" lon="8.6422317"><ele>15.0</ele><time>2026-05-03T06:10:15.682Z</time></trkpt><trkpt lat="39.8169717" lon="8.6420683"><ele>15.0</ele><time>2026-05-03T06:10:16.681Z</time></trkpt><trkpt lat="39.8169617" lon="8.6419"><ele>15.0</ele><time>2026-05-03T06:10:17.681Z</time></trkpt><trkpt lat="39.8169533" lon="8.6417283"><ele>15.0</ele><time>2026-05-03T06:10:18.681Z</time></trkpt><trkpt lat="39.816945" lon="8.64156"><ele>15.0</ele><time>2026-05-03T06:10:19.681Z</time></trkpt><trkpt lat="39.8169517" lon="8.6414317"><ele>15.0</ele><time>2026-05-03T06:10:20.682Z</time></trkpt><trkpt lat="39.816955" lon="8.6413183"><ele>15.0</ele><time>2026-05-03T06:10:21.681Z</time></trkpt><trkpt lat="39.8169567" lon="8.6412283"><ele>15.0</ele><time>2026-05-03T06:10:22.681Z</time></trkpt><trkpt lat="39.81693" lon="8.6411183"><ele>15.0</ele><time>2026-05-03T06:10:24.681Z</time></trkpt><trkpt lat="39.8168517" lon="8.6411317"><ele>15.0</ele><time>2026-05-03T06:10:26.682Z</time></trkpt><trkpt lat="39.8167717" lon="8.6411183"><ele>13.8</ele><time>2026-05-03T06:10:28.681Z</time></trkpt><trkpt lat="39.816735" lon="8.640985"><ele>12.6</ele><time>2026-05-03T06:10:30.682Z</time></trkpt><trkpt lat="39.8167317" lon="8.6408683"><ele>11.4</ele><time>2026-05-03T06:10:31.681Z</time></trkpt><trkpt lat="39.8167417" lon="8.6407317"><ele>10.2</ele><time>2026-05-03T06:10:32.682Z</time></trkpt><trkpt lat="39.8167433" lon="8.6405833"><ele>9.0</ele><time>2026-05-03T06:10:33.682Z</time></trkpt><trkpt lat="39.8167467" lon="8.640445"><ele>9.0</ele><time>2026-05-03T06:10:34.681Z</time></trkpt><trkpt lat="39.8167767" lon="8.6403067"><ele>9.0</ele><time>2026-05-03T06:10:35.681Z</time></trkpt><trkpt lat="39.8168217" lon="8.64017"><ele>9.0</ele><time>2026-05-03T06:10:36.681Z</time></trkpt><trkpt lat="39.816885" lon="8.6400483"><ele>9.0</ele><time>2026-05-03T06:10:37.681Z</time></trkpt><trkpt lat="39.816955" lon="8.639935"><ele>9.0</ele><time>2026-05-03T06:10:38.681Z</time></trkpt><trkpt lat="39.8170317" lon="8.63982"><ele>9.5</ele><time>2026-05-03T06:10:39.681Z</time></trkpt><trkpt lat="39.8171233" lon="8.6397083"><ele>10.0</ele><time>2026-05-03T06:10:40.681Z</time></trkpt><trkpt lat="39.8172267" lon="8.6395967"><ele>10.5</ele><time>2026-05-03T06:10:41.682Z</time></trkpt><trkpt lat="39.8173333" lon="8.6394967"><ele>11.0</ele><time>2026-05-03T06:10:42.682Z</time></trkpt><trkpt lat="39.8174567" lon="8.6394017"><ele>11.0</ele><time>2026-05-03T06:10:43.681Z</time></trkpt><trkpt lat="39.817595" lon="8.63933"><ele>11.0</ele><time>2026-05-03T06:10:44.682Z</time></trkpt><trkpt lat="39.8177317" lon="8.63926"><ele>11.0</ele><time>2026-05-03T06:10:45.681Z</time></trkpt><trkpt lat="39.817875" lon="8.6391967"><ele>11.0</ele><time>2026-05-03T06:10:46.681Z</time></trkpt><trkpt lat="39.81802" lon="8.6391383"><ele>12.0</ele><time>2026-05-03T06:10:47.682Z</time></trkpt><trkpt lat="39.81817" lon="8.6390767"><ele>13.0</ele><time>2026-05-03T06:10:48.681Z</time></trkpt><trkpt lat="39.818335" lon="8.639015"><ele>14.0</ele><time>2026-05-03T06:10:49.681Z</time></trkpt><trkpt lat="39.818485" lon="8.638945"><ele>14.0</ele><time>2026-05-03T06:10:50.681Z</time></trkpt><trkpt lat="39.8186417" lon="8.638885"><ele>14.0</ele><time>2026-05-03T06:10:51.682Z</time></trkpt><trkpt lat="39.8188117" lon="8.6388217"><ele>14.0</ele><time>2026-05-03T06:10:52.681Z</time></trkpt><trkpt lat="39.818995" lon="8.638765"><ele>14.0</ele><time>2026-05-03T06:10:53.681Z</time></trkpt><trkpt lat="39.8191717" lon="8.638715"><ele>14.0</ele><time>2026-05-03T06:10:54.681Z</time></trkpt><trkpt lat="39.8193283" lon="8.6386617"><ele>14.0</ele><time>2026-05-03T06:10:55.681Z</time></trkpt><trkpt lat="39.81948" lon="8.638615"><ele>13.75</ele><time>2026-05-03T06:10:56.681Z</time></trkpt><trkpt lat="39.81962" lon="8.638575"><ele>13.5</ele><time>2026-05-03T06:10:57.681Z</time></trkpt><trkpt lat="39.81976" lon="8.6385383"><ele>13.25</ele><time>2026-05-03T06:10:58.682Z</time></trkpt><trkpt lat="39.81989" lon="8.6384917"><ele>13.0</ele><time>2026-05-03T06:10:59.681Z</time></trkpt><trkpt lat="39.82001" lon="8.6384517"><ele>13.0</ele><time>2026-05-03T06:11:00.682Z</time></trkpt><trkpt lat="39.8201367" lon="8.6384217"><ele>13.0</ele><time>2026-05-03T06:11:01.681Z</time></trkpt><trkpt lat="39.8202517" lon="8.6384133"><ele>13.0</ele><time>2026-05-03T06:11:02.681Z</time></trkpt><trkpt lat="39.8203783" lon="8.63841"><ele>13.0</ele><time>2026-05-03T06:11:03.682Z</time></trkpt><trkpt lat="39.820495" lon="8.63842"><ele>12.600000000000001</ele><time>2026-05-03T06:11:04.681Z</time></trkpt><trkpt lat="39.8205967" lon="8.6384417"><ele>12.200000000000001</ele><time>2026-05-03T06:11:05.681Z</time></trkpt><trkpt lat="39.8206933" lon="8.6384733"><ele>11.8</ele><time>2026-05-03T06:11:06.681Z</time></trkpt><trkpt lat="39.820785" lon="8.6385283"><ele>11.4</ele><time>2026-05-03T06:11:07.682Z</time></trkpt><trkpt lat="39.8208717" lon="8.6385933"><ele>11.0</ele><time>2026-05-03T06:11:08.681Z</time></trkpt><trkpt lat="39.820955" lon="8.6386733"><ele>10.25</ele><time>2026-05-03T06:11:09.681Z</time></trkpt><trkpt lat="39.8210367" lon="8.638765"><ele>9.5</ele><time>2026-05-03T06:11:10.681Z</time></trkpt><trkpt lat="39.821115" lon="8.6388733"><ele>8.75</ele><time>2026-05-03T06:11:11.681Z</time></trkpt><trkpt lat="39.8211867" lon="8.638995"><ele>8.0</ele><time>2026-05-03T06:11:12.681Z</time></trkpt><trkpt lat="39.82125" lon="8.6391283"><ele>8.0</ele><time>2026-05-03T06:11:13.682Z</time></trkpt><trkpt lat="39.8213167" lon="8.6392467"><ele>8.0</ele><time>2026-05-03T06:11:14.681Z</time></trkpt><trkpt lat="39.821395" lon="8.6393633"><ele>8.0</ele><time>2026-05-03T06:11:15.681Z</time></trkpt><trkpt lat="39.821485" lon="8.6394817"><ele>8.0</ele><time>2026-05-03T06:11:16.682Z</time></trkpt><trkpt lat="39.8215817" lon="8.6395767"><ele>8.0</ele><time>2026-05-03T06:11:17.681Z</time></trkpt><trkpt lat="39.821685" lon="8.6396567"><ele>8.0</ele><time>2026-05-03T06:11:18.681Z</time></trkpt><trkpt lat="39.8218067" lon="8.6397133"><ele>8.0</ele><time>2026-05-03T06:11:19.681Z</time></trkpt><trkpt lat="39.8219333" lon="8.6397717"><ele>8.0</ele><time>2026-05-03T06:11:20.681Z</time></trkpt><trkpt lat="39.82207" lon="8.6398083"><ele>8.0</ele><time>2026-05-03T06:11:21.681Z</time></trkpt><trkpt lat="39.82221" lon="8.6398183"><ele>8.0</ele><time>2026-05-03T06:11:22.681Z</time></trkpt><trkpt lat="39.82234" lon="8.6398283"><ele>8.0</ele><time>2026-05-03T06:11:23.681Z</time></trkpt><trkpt lat="39.822465" lon="8.63984"><ele>8.0</ele><time>2026-05-03T06:11:24.681Z</time></trkpt><trkpt lat="39.8225833" lon="8.6398517"><ele>7.833333333333333</ele><time>2026-05-03T06:11:25.682Z</time></trkpt><trkpt lat="39.8226767" lon="8.639865"><ele>7.666666666666666</ele><time>2026-05-03T06:11:26.681Z</time></trkpt><trkpt lat="39.8227533" lon="8.6398817"><ele>7.5</ele><time>2026-05-03T06:11:27.681Z</time></trkpt><trkpt lat="39.82282" lon="8.639885"><ele>7.333333333333334</ele><time>2026-05-03T06:11:28.681Z</time></trkpt><trkpt lat="39.822885" lon="8.63989"><ele>7.166666666666667</ele><time>2026-05-03T06:11:29.682Z</time></trkpt><trkpt lat="39.822975" lon="8.639895"><ele>7.0</ele><time>2026-05-03T06:11:31.681Z</time></trkpt><trkpt lat="39.8230167" lon="8.6399933"><ele>7.0</ele><time>2026-05-03T06:11:34.681Z</time></trkpt><trkpt lat="39.8229867" lon="8.64017"><ele>7.0</ele><time>2026-05-03T06:11:36.681Z</time></trkpt><trkpt lat="39.822965" lon="8.64031"><ele>7.0</ele><time>2026-05-03T06:11:37.681Z</time></trkpt><trkpt lat="39.8229483" lon="8.6404567"><ele>7.0</ele><time>2026-05-03T06:11:38.681Z</time></trkpt><trkpt lat="39.8229467" lon="8.6406083"><ele>7.0</ele><time>2026-05-03T06:11:39.682Z</time></trkpt><trkpt lat="39.8229367" lon="8.6407667"><ele>7.0</ele><time>2026-05-03T06:11:40.682Z</time></trkpt><trkpt lat="39.82293" lon="8.6409217"><ele>7.0</ele><time>2026-05-03T06:11:41.681Z</time></trkpt><trkpt lat="39.8229283" lon="8.641085"><ele>7.0</ele><time>2026-05-03T06:11:42.681Z</time></trkpt><trkpt lat="39.8229217" lon="8.64125"><ele>7.0</ele><time>2026-05-03T06:11:43.682Z</time></trkpt><trkpt lat="39.8229167" lon="8.641415"><ele>7.0</ele><time>2026-05-03T06:11:44.681Z</time></trkpt><trkpt lat="39.82292" lon="8.6415967"><ele>7.0</ele><time>2026-05-03T06:11:45.681Z</time></trkpt><trkpt lat="39.822915" lon="8.6417883"><ele>7.0</ele><time>2026-05-03T06:11:46.681Z</time></trkpt><trkpt lat="39.8229067" lon="8.6419667"><ele>7.25</ele><time>2026-05-03T06:11:47.681Z</time></trkpt><trkpt lat="39.8228967" lon="8.6421633"><ele>7.5</ele><time>2026-05-03T06:11:48.682Z</time></trkpt><trkpt lat="39.8228967" lon="8.6423433"><ele>7.75</ele><time>2026-05-03T06:11:49.681Z</time></trkpt><trkpt lat="39.8228833" lon="8.64252"><ele>8.0</ele><time>2026-05-03T06:11:50.682Z</time></trkpt><trkpt lat="39.822875" lon="8.642685"><ele>8.5</ele><time>2026-05-03T06:11:51.681Z</time></trkpt><trkpt lat="39.822865" lon="8.64285"><ele>9.0</ele><time>2026-05-03T06:11:52.682Z</time></trkpt><trkpt lat="39.8228517" lon="8.6430283"><ele>9.5</ele><time>2026-05-03T06:11:53.681Z</time></trkpt><trkpt lat="39.8228433" lon="8.6432117"><ele>10.0</ele><time>2026-05-03T06:11:54.681Z</time></trkpt><trkpt lat="39.8228333" lon="8.6433833"><ele>10.0</ele><time>2026-05-03T06:11:55.681Z</time></trkpt><trkpt lat="39.8228267" lon="8.6435533"><ele>10.0</ele><time>2026-05-03T06:11:56.682Z</time></trkpt><trkpt lat="39.822825" lon="8.6437183"><ele>10.0</ele><time>2026-05-03T06:11:57.681Z</time></trkpt><trkpt lat="39.822815" lon="8.6438717"><ele>10.0</ele><time>2026-05-03T06:11:58.681Z</time></trkpt><trkpt lat="39.8228067" lon="8.6440033"><ele>10.0</ele><time>2026-05-03T06:11:59.682Z</time></trkpt><trkpt lat="39.8228017" lon="8.64413"><ele>10.0</ele><time>2026-05-03T06:12:00.682Z</time></trkpt><trkpt lat="39.8227983" lon="8.64427"><ele>10.0</ele><time>2026-05-03T06:12:01.681Z</time></trkpt><trkpt lat="39.822805" lon="8.6444233"><ele>10.0</ele><time>2026-05-03T06:12:02.681Z</time></trkpt><trkpt lat="39.8228167" lon="8.6445583"><ele>10.0</ele><time>2026-05-03T06:12:03.681Z</time></trkpt><trkpt lat="39.8228233" lon="8.6446967"><ele>10.25</ele><time>2026-05-03T06:12:04.682Z</time></trkpt><trkpt lat="39.8228167" lon="8.6448417"><ele>10.5</ele><time>2026-05-03T06:12:05.681Z</time></trkpt><trkpt lat="39.8228133" lon="8.6449933"><ele>10.75</ele><time>2026-05-03T06:12:06.682Z</time></trkpt><trkpt lat="39.822805" lon="8.6451617"><ele>11.0</ele><time>2026-05-03T06:12:07.681Z</time></trkpt><trkpt lat="39.822805" lon="8.64533"><ele>11.0</ele><time>2026-05-03T06:12:08.682Z</time></trkpt><trkpt lat="39.822795" lon="8.6454967"><ele>11.0</ele><time>2026-05-03T06:12:09.682Z</time></trkpt><trkpt lat="39.82277" lon="8.645665"><ele>11.0</ele><time>2026-05-03T06:12:10.681Z</time></trkpt><trkpt lat="39.8227333" lon="8.6458433"><ele>11.0</ele><time>2026-05-03T06:12:11.682Z</time></trkpt><trkpt lat="39.8227" lon="8.6460283"><ele>11.333333333333332</ele><time>2026-05-03T06:12:12.681Z</time></trkpt><trkpt lat="39.8226767" lon="8.646225"><ele>11.666666666666666</ele><time>2026-05-03T06:12:13.682Z</time></trkpt><trkpt lat="39.8226667" lon="8.646425"><ele>12.0</ele><time>2026-05-03T06:12:14.681Z</time></trkpt><trkpt lat="39.8226633" lon="8.6466183"><ele>12.0</ele><time>2026-05-03T06:12:15.681Z</time></trkpt><trkpt lat="39.82266" lon="8.6467867"><ele>12.0</ele><time>2026-05-03T06:12:16.681Z</time></trkpt><trkpt lat="39.82265" lon="8.646955"><ele>12.0</ele><time>2026-05-03T06:12:17.681Z</time></trkpt><trkpt lat="39.822635" lon="8.6471283"><ele>12.0</ele><time>2026-05-03T06:12:18.682Z</time></trkpt><trkpt lat="39.82262" lon="8.6473083"><ele>12.25</ele><time>2026-05-03T06:12:19.681Z</time></trkpt><trkpt lat="39.822605" lon="8.6474867"><ele>12.5</ele><time>2026-05-03T06:12:20.682Z</time></trkpt><trkpt lat="39.8225767" lon="8.6476683"><ele>12.75</ele><time>2026-05-03T06:12:21.681Z</time></trkpt><trkpt lat="39.8225467" lon="8.6478567"><ele>13.0</ele><time>2026-05-03T06:12:22.681Z</time></trkpt><trkpt lat="39.82251" lon="8.6480417"><ele>13.0</ele><time>2026-05-03T06:12:23.682Z</time></trkpt><trkpt lat="39.82247" lon="8.6482283"><ele>13.0</ele><time>2026-05-03T06:12:24.682Z</time></trkpt><trkpt lat="39.822425" lon="8.648415"><ele>13.0</ele><time>2026-05-03T06:12:25.682Z</time></trkpt><trkpt lat="39.8223917" lon="8.6485967"><ele>13.0</ele><time>2026-05-03T06:12:26.681Z</time></trkpt><trkpt lat="39.8223467" lon="8.6487883"><ele>13.333333333333332</ele><time>2026-05-03T06:12:27.682Z</time></trkpt><trkpt lat="39.8223033" lon="8.6489833"><ele>13.666666666666668</ele><time>2026-05-03T06:12:28.682Z</time></trkpt><trkpt lat="39.82226" lon="8.6491917"><ele>14.0</ele><time>2026-05-03T06:12:29.682Z</time></trkpt><trkpt lat="39.8222283" lon="8.6493933"><ele>14.5</ele><time>2026-05-03T06:12:30.682Z</time></trkpt><trkpt lat="39.8221917" lon="8.6495817"><ele>15.0</ele><time>2026-05-03T06:12:31.681Z</time></trkpt><trkpt lat="39.8221533" lon="8.6497617"><ele>15.5</ele><time>2026-05-03T06:12:32.681Z</time></trkpt><trkpt lat="39.8221133" lon="8.64995"><ele>16.0</ele><time>2026-05-03T06:12:33.681Z</time></trkpt><trkpt lat="39.8220783" lon="8.6501367"><ele>16.0</ele><time>2026-05-03T06:12:34.682Z</time></trkpt><trkpt lat="39.8220467" lon="8.6503167"><ele>16.0</ele><time>2026-05-03T06:12:35.682Z</time></trkpt><trkpt lat="39.8220233" lon="8.65049"><ele>16.0</ele><time>2026-05-03T06:12:36.681Z</time></trkpt><trkpt lat="39.8219783" lon="8.6506633"><ele>16.0</ele><time>2026-05-03T06:12:37.681Z</time></trkpt><trkpt lat="39.82193" lon="8.6508533"><ele>16.0</ele><time>2026-05-03T06:12:38.681Z</time></trkpt><trkpt lat="39.8218983" lon="8.6510567"><ele>16.0</ele><time>2026-05-03T06:12:39.681Z</time></trkpt><trkpt lat="39.8218567" lon="8.65126"><ele>16.0</ele><time>2026-05-03T06:12:40.681Z</time></trkpt><trkpt lat="39.8218133" lon="8.6514583"><ele>16.25</ele><time>2026-05-03T06:12:41.682Z</time></trkpt><trkpt lat="39.8217667" lon="8.6516383"><ele>16.5</ele><time>2026-05-03T06:12:42.681Z</time></trkpt><trkpt lat="39.8217217" lon="8.6518167"><ele>16.75</ele><time>2026-05-03T06:12:43.681Z</time></trkpt><trkpt lat="39.82169" lon="8.6519967"><ele>17.0</ele><time>2026-05-03T06:12:44.681Z</time></trkpt><trkpt lat="39.8216533" lon="8.6521867"><ele>17.0</ele><time>2026-05-03T06:12:45.681Z</time></trkpt><trkpt lat="39.82162" lon="8.6523783"><ele>17.0</ele><time>2026-05-03T06:12:46.681Z</time></trkpt><trkpt lat="39.82158" lon="8.6525733"><ele>17.0</ele><time>2026-05-03T06:12:47.682Z</time></trkpt><trkpt lat="39.8215383" lon="8.6527517"><ele>17.0</ele><time>2026-05-03T06:12:48.681Z</time></trkpt><trkpt lat="39.8215" lon="8.652905"><ele>17.0</ele><time>2026-05-03T06:12:49.681Z</time></trkpt><trkpt lat="39.8214683" lon="8.653035"><ele>17.0</ele><time>2026-05-03T06:12:50.682Z</time></trkpt><trkpt lat="39.8214467" lon="8.6531633"><ele>17.0</ele><time>2026-05-03T06:12:51.682Z</time></trkpt><trkpt lat="39.82142" lon="8.6532867"><ele>17.0</ele><time>2026-05-03T06:12:52.681Z</time></trkpt><trkpt lat="39.8213917" lon="8.6534067"><ele>17.0</ele><time>2026-05-03T06:12:53.681Z</time></trkpt><trkpt lat="39.8213683" lon="8.6535233"><ele>17.0</ele><time>2026-05-03T06:12:54.682Z</time></trkpt><trkpt lat="39.8213467" lon="8.65364"><ele>17.0</ele><time>2026-05-03T06:12:55.682Z</time></trkpt><trkpt lat="39.82133" lon="8.653765"><ele>17.0</ele><time>2026-05-03T06:12:56.682Z</time></trkpt><trkpt lat="39.821305" lon="8.653895"><ele>17.0</ele><time>2026-05-03T06:12:57.681Z</time></trkpt><trkpt lat="39.82128" lon="8.6540283"><ele>17.0</ele><time>2026-05-03T06:12:58.681Z</time></trkpt><trkpt lat="39.8212517" lon="8.65415"><ele>17.0</ele><time>2026-05-03T06:12:59.681Z</time></trkpt><trkpt lat="39.8212333" lon="8.654265"><ele>17.0</ele><time>2026-05-03T06:13:00.681Z</time></trkpt><trkpt lat="39.821215" lon="8.6543667"><ele>17.0</ele><time>2026-05-03T06:13:01.682Z</time></trkpt><trkpt lat="39.8211867" lon="8.6544683"><ele>17.0</ele><time>2026-05-03T06:13:02.681Z</time></trkpt><trkpt lat="39.82115" lon="8.6545917"><ele>17.0</ele><time>2026-05-03T06:13:03.682Z</time></trkpt><trkpt lat="39.8211283" lon="8.6547017"><ele>17.0</ele><time>2026-05-03T06:13:04.681Z</time></trkpt><trkpt lat="39.8211217" lon="8.6548233"><ele>17.166666666666668</ele><time>2026-05-03T06:13:05.682Z</time></trkpt><trkpt lat="39.8211117" lon="8.6549367"><ele>17.333333333333336</ele><time>2026-05-03T06:13:06.681Z</time></trkpt><trkpt lat="39.8210917" lon="8.6550483"><ele>17.5</ele><time>2026-05-03T06:13:07.681Z</time></trkpt><trkpt lat="39.821065" lon="8.6551617"><ele>17.666666666666668</ele><time>2026-05-03T06:13:08.681Z</time></trkpt><trkpt lat="39.8210417" lon="8.6552667"><ele>17.833333333333332</ele><time>2026-05-03T06:13:09.682Z</time></trkpt><trkpt lat="39.8210183" lon="8.6553667"><ele>18.0</ele><time>2026-05-03T06:13:10.681Z</time></trkpt><trkpt lat="39.8209967" lon="8.6554767"><ele>18.6</ele><time>2026-05-03T06:13:11.681Z</time></trkpt><trkpt lat="39.8209617" lon="8.6555917"><ele>19.200000000000003</ele><time>2026-05-03T06:13:12.681Z</time></trkpt><trkpt lat="39.8209183" lon="8.6557033"><ele>19.8</ele><time>2026-05-03T06:13:13.682Z</time></trkpt><trkpt lat="39.8208933" lon="8.6558167"><ele>20.400000000000002</ele><time>2026-05-03T06:13:14.682Z</time></trkpt><trkpt lat="39.82088" lon="8.65594"><ele>21.0</ele><time>2026-05-03T06:13:15.681Z</time></trkpt><trkpt lat="39.8208667" lon="8.6560617"><ele>20.6</ele><time>2026-05-03T06:13:16.681Z</time></trkpt><trkpt lat="39.82084" lon="8.6561933"><ele>20.200000000000003</ele><time>2026-05-03T06:13:17.681Z</time></trkpt><trkpt lat="39.8208067" lon="8.6563117"><ele>19.799999999999997</ele><time>2026-05-03T06:13:18.681Z</time></trkpt><trkpt lat="39.8207783" lon="8.6564283"><ele>19.4</ele><time>2026-05-03T06:13:19.682Z</time></trkpt><trkpt lat="39.8207533" lon="8.6565367"><ele>19.0</ele><time>2026-05-03T06:13:20.682Z</time></trkpt><trkpt lat="39.82073" lon="8.6566367"><ele>19.0</ele><time>2026-05-03T06:13:21.682Z</time></trkpt><trkpt lat="39.82071" lon="8.656735"><ele>19.0</ele><time>2026-05-03T06:13:22.681Z</time></trkpt><trkpt lat="39.82069" lon="8.65683"><ele>19.0</ele><time>2026-05-03T06:13:23.681Z</time></trkpt><trkpt lat="39.82068" lon="8.656925"><ele>19.0</ele><time>2026-05-03T06:13:24.681Z</time></trkpt><trkpt lat="39.82067" lon="8.6570183"><ele>19.0</ele><time>2026-05-03T06:13:25.682Z</time></trkpt><trkpt lat="39.82066" lon="8.6571167"><ele>19.0</ele><time>2026-05-03T06:13:26.681Z</time></trkpt><trkpt lat="39.820645" lon="8.65722"><ele>19.166666666666664</ele><time>2026-05-03T06:13:27.681Z</time></trkpt><trkpt lat="39.8206233" lon="8.6573217"><ele>19.333333333333332</ele><time>2026-05-03T06:13:28.681Z</time></trkpt><trkpt lat="39.8205967" lon="8.657425"><ele>19.5</ele><time>2026-05-03T06:13:29.681Z</time></trkpt><trkpt lat="39.8205783" lon="8.657525"><ele>19.666666666666668</ele><time>2026-05-03T06:13:30.682Z</time></trkpt><trkpt lat="39.8205617" lon="8.6576233"><ele>19.833333333333336</ele><time>2026-05-03T06:13:31.681Z</time></trkpt><trkpt lat="39.8205417" lon="8.6577267"><ele>20.0</ele><time>2026-05-03T06:13:32.681Z</time></trkpt><trkpt lat="39.8205167" lon="8.6578283"><ele>20.333333333333336</ele><time>2026-05-03T06:13:33.681Z</time></trkpt><trkpt lat="39.82049" lon="8.65793"><ele>20.666666666666668</ele><time>2026-05-03T06:13:34.681Z</time></trkpt><trkpt lat="39.82046" lon="8.658035"><ele>21.0</ele><time>2026-05-03T06:13:35.681Z</time></trkpt><trkpt lat="39.8204367" lon="8.6581433"><ele>21.333333333333332</ele><time>2026-05-03T06:13:36.681Z</time></trkpt><trkpt lat="39.8204067" lon="8.658245"><ele>21.666666666666664</ele><time>2026-05-03T06:13:37.681Z</time></trkpt><trkpt lat="39.8203833" lon="8.6583533"><ele>22.0</ele><time>2026-05-03T06:13:38.681Z</time></trkpt><trkpt lat="39.8203617" lon="8.6584783"><ele>22.0</ele><time>2026-05-03T06:13:39.681Z</time></trkpt><trkpt lat="39.8203483" lon="8.6585917"><ele>22.0</ele><time>2026-05-03T06:13:40.681Z</time></trkpt><trkpt lat="39.82033" lon="8.6587183"><ele>22.0</ele><time>2026-05-03T06:13:41.681Z</time></trkpt><trkpt lat="39.8203133" lon="8.6588617"><ele>22.0</ele><time>2026-05-03T06:13:42.681Z</time></trkpt><trkpt lat="39.820285" lon="8.6590083"><ele>22.0</ele><time>2026-05-03T06:13:43.681Z</time></trkpt><trkpt lat="39.82026" lon="8.659155"><ele>22.5</ele><time>2026-05-03T06:13:44.682Z</time></trkpt><trkpt lat="39.8202283" lon="8.6593017"><ele>23.0</ele><time>2026-05-03T06:13:45.681Z</time></trkpt><trkpt lat="39.8201867" lon="8.6594567"><ele>23.5</ele><time>2026-05-03T06:13:46.681Z</time></trkpt><trkpt lat="39.8201483" lon="8.6596167"><ele>24.0</ele><time>2026-05-03T06:13:47.681Z</time></trkpt><trkpt lat="39.8201183" lon="8.659785"><ele>24.5</ele><time>2026-05-03T06:13:48.681Z</time></trkpt><trkpt lat="39.8200883" lon="8.659935"><ele>25.0</ele><time>2026-05-03T06:13:49.681Z</time></trkpt><trkpt lat="39.820055" lon="8.660085"><ele>25.5</ele><time>2026-05-03T06:13:50.681Z</time></trkpt><trkpt lat="39.8200183" lon="8.6602383"><ele>26.0</ele><time>2026-05-03T06:13:51.681Z</time></trkpt><trkpt lat="39.81999" lon="8.660395"><ele>26.0</ele><time>2026-05-03T06:13:52.681Z</time></trkpt><trkpt lat="39.8199717" lon="8.6605567"><ele>26.0</ele><time>2026-05-03T06:13:53.681Z</time></trkpt><trkpt lat="39.8199417" lon="8.6607167"><ele>26.0</ele><time>2026-05-03T06:13:54.681Z</time></trkpt><trkpt lat="39.8199083" lon="8.6608917"><ele>26.0</ele><time>2026-05-03T06:13:55.682Z</time></trkpt><trkpt lat="39.8198817" lon="8.661075"><ele>26.0</ele><time>2026-05-03T06:13:56.681Z</time></trkpt><trkpt lat="39.819845" lon="8.6612467"><ele>26.0</ele><time>2026-05-03T06:13:57.682Z</time></trkpt><trkpt lat="39.8198133" lon="8.6614033"><ele>26.0</ele><time>2026-05-03T06:13:58.682Z</time></trkpt><trkpt lat="39.81979" lon="8.6615533"><ele>26.0</ele><time>2026-05-03T06:13:59.682Z</time></trkpt><trkpt lat="39.8197667" lon="8.6617017"><ele>26.0</ele><time>2026-05-03T06:14:00.682Z</time></trkpt><trkpt lat="39.819745" lon="8.661845"><ele>26.0</ele><time>2026-05-03T06:14:01.681Z</time></trkpt><trkpt lat="39.81972" lon="8.6619917"><ele>26.0</ele><time>2026-05-03T06:14:02.681Z</time></trkpt><trkpt lat="39.8196867" lon="8.6621233"><ele>26.0</ele><time>2026-05-03T06:14:03.681Z</time></trkpt><trkpt lat="39.8196467" lon="8.6622733"><ele>26.0</ele><time>2026-05-03T06:14:04.681Z</time></trkpt><trkpt lat="39.819605" lon="8.66244"><ele>26.0</ele><time>2026-05-03T06:14:05.681Z</time></trkpt><trkpt lat="39.819565" lon="8.66261"><ele>26.0</ele><time>2026-05-03T06:14:06.682Z</time></trkpt><trkpt lat="39.8195283" lon="8.6627567"><ele>26.0</ele><time>2026-05-03T06:14:07.682Z</time></trkpt><trkpt lat="39.8195" lon="8.662875"><ele>26.200000000000003</ele><time>2026-05-03T06:14:08.681Z</time></trkpt><trkpt lat="39.81947" lon="8.6629883"><ele>26.400000000000002</ele><time>2026-05-03T06:14:09.681Z</time></trkpt><trkpt lat="39.8194433" lon="8.663095"><ele>26.6</ele><time>2026-05-03T06:14:10.681Z</time></trkpt><trkpt lat="39.81943" lon="8.663205"><ele>26.8</ele><time>2026-05-03T06:14:11.681Z</time></trkpt><trkpt lat="39.8194133" lon="8.663325"><ele>27.0</ele><time>2026-05-03T06:14:12.682Z</time></trkpt><trkpt lat="39.8193883" lon="8.6634483"><ele>27.0</ele><time>2026-05-03T06:14:13.681Z</time></trkpt><trkpt lat="39.8193533" lon="8.6635733"><ele>27.000000000000004</ele><time>2026-05-03T06:14:14.681Z</time></trkpt><trkpt lat="39.819325" lon="8.6636933"><ele>27.000000000000004</ele><time>2026-05-03T06:14:15.681Z</time></trkpt><trkpt lat="39.8193033" lon="8.6638233"><ele>27.0</ele><time>2026-05-03T06:14:16.682Z</time></trkpt><trkpt lat="39.8192783" lon="8.6639517"><ele>27.0</ele><time>2026-05-03T06:14:17.682Z</time></trkpt><trkpt lat="39.81927" lon="8.66406"><ele>27.428571428571427</ele><time>2026-05-03T06:14:18.681Z</time></trkpt><trkpt lat="39.81926" lon="8.6641583"><ele>27.857142857142854</ele><time>2026-05-03T06:14:19.682Z</time></trkpt><trkpt lat="39.81924" lon="8.664245"><ele>28.285714285714285</ele><time>2026-05-03T06:14:20.682Z</time></trkpt><trkpt lat="39.8192133" lon="8.6643267"><ele>28.714285714285715</ele><time>2026-05-03T06:14:21.681Z</time></trkpt><trkpt lat="39.8191883" lon="8.66442"><ele>29.142857142857142</ele><time>2026-05-03T06:14:22.681Z</time></trkpt><trkpt lat="39.819165" lon="8.6645083"><ele>29.571428571428573</ele><time>2026-05-03T06:14:23.682Z</time></trkpt><trkpt lat="39.8191517" lon="8.6646067"><ele>30.0</ele><time>2026-05-03T06:14:24.682Z</time></trkpt><trkpt lat="39.8191317" lon="8.66472"><ele>30.0</ele><time>2026-05-03T06:14:25.682Z</time></trkpt><trkpt lat="39.819105" lon="8.6648367"><ele>30.0</ele><time>2026-05-03T06:14:26.682Z</time></trkpt><trkpt lat="39.819055" lon="8.66499"><ele>30.0</ele><time>2026-05-03T06:14:27.681Z</time></trkpt><trkpt lat="39.8190133" lon="8.6651367"><ele>30.0</ele><time>2026-05-03T06:14:28.681Z</time></trkpt><trkpt lat="39.8189683" lon="8.665285"><ele>29.75</ele><time>2026-05-03T06:14:29.682Z</time></trkpt><trkpt lat="39.8189117" lon="8.665455"><ele>29.5</ele><time>2026-05-03T06:14:30.681Z</time></trkpt><trkpt lat="39.818875" lon="8.6656317"><ele>29.25</ele><time>2026-05-03T06:14:31.682Z</time></trkpt><trkpt lat="39.818855" lon="8.66582"><ele>29.0</ele><time>2026-05-03T06:14:32.682Z</time></trkpt><trkpt lat="39.8188333" lon="8.6660117"><ele>29.0</ele><time>2026-05-03T06:14:33.682Z</time></trkpt><trkpt lat="39.8187983" lon="8.66622"><ele>29.0</ele><time>2026-05-03T06:14:34.681Z</time></trkpt><trkpt lat="39.818755" lon="8.6664367"><ele>29.0</ele><time>2026-05-03T06:14:35.681Z</time></trkpt><trkpt lat="39.8187183" lon="8.6666333"><ele>29.0</ele><time>2026-05-03T06:14:36.681Z</time></trkpt><trkpt lat="39.81869" lon="8.6668033"><ele>29.0</ele><time>2026-05-03T06:14:37.681Z</time></trkpt><trkpt lat="39.818655" lon="8.66694"><ele>29.0</ele><time>2026-05-03T06:14:38.681Z</time></trkpt><trkpt lat="39.8186283" lon="8.6670717"><ele>29.0</ele><time>2026-05-03T06:14:39.681Z</time></trkpt><trkpt lat="39.8186083" lon="8.6672267"><ele>29.25</ele><time>2026-05-03T06:14:40.682Z</time></trkpt><trkpt lat="39.8185983" lon="8.667385"><ele>29.5</ele><time>2026-05-03T06:14:41.681Z</time></trkpt><trkpt lat="39.8186117" lon="8.6675433"><ele>29.75</ele><time>2026-05-03T06:14:42.681Z</time></trkpt><trkpt lat="39.8186383" lon="8.6677167"><ele>30.0</ele><time>2026-05-03T06:14:43.682Z</time></trkpt><trkpt lat="39.8186767" lon="8.6679183"><ele>30.0</ele><time>2026-05-03T06:14:44.682Z</time></trkpt><trkpt lat="39.8187217" lon="8.6681433"><ele>30.0</ele><time>2026-05-03T06:14:45.681Z</time></trkpt><trkpt lat="39.8187583" lon="8.668375"><ele>30.0</ele><time>2026-05-03T06:14:46.682Z</time></trkpt><trkpt lat="39.8188067" lon="8.668625"><ele>30.666666666666664</ele><time>2026-05-03T06:14:47.682Z</time></trkpt><trkpt lat="39.818855" lon="8.668895"><ele>31.333333333333332</ele><time>2026-05-03T06:14:48.681Z</time></trkpt><trkpt lat="39.81892" lon="8.6691833"><ele>32.0</ele><time>2026-05-03T06:14:49.681Z</time></trkpt><trkpt lat="39.818975" lon="8.66946"><ele>32.33333333333333</ele><time>2026-05-03T06:14:50.681Z</time></trkpt><trkpt lat="39.81903" lon="8.669715"><ele>32.666666666666664</ele><time>2026-05-03T06:14:51.682Z</time></trkpt><trkpt lat="39.8190917" lon="8.6699683"><ele>33.0</ele><time>2026-05-03T06:14:52.681Z</time></trkpt><trkpt lat="39.81916" lon="8.67024"><ele>34.5</ele><time>2026-05-03T06:14:53.682Z</time></trkpt><trkpt lat="39.8192317" lon="8.6705167"><ele>36.0</ele><time>2026-05-03T06:14:54.682Z</time></trkpt><trkpt lat="39.8193" lon="8.6707983"><ele>34.666666666666664</ele><time>2026-05-03T06:14:55.682Z</time></trkpt><trkpt lat="39.8193617" lon="8.6710667"><ele>33.33333333333333</ele><time>2026-05-03T06:14:56.681Z</time></trkpt><trkpt lat="39.8194133" lon="8.671325"><ele>32.0</ele><time>2026-05-03T06:14:57.681Z</time></trkpt><trkpt lat="39.8194617" lon="8.6715783"><ele>32.0</ele><time>2026-05-03T06:14:58.681Z</time></trkpt><trkpt lat="39.8195017" lon="8.6718083"><ele>32.0</ele><time>2026-05-03T06:14:59.682Z</time></trkpt><trkpt lat="39.8195367" lon="8.6720217"><ele>32.0</ele><time>2026-05-03T06:15:00.682Z</time></trkpt><trkpt lat="39.819555" lon="8.6721983"><ele>32.75</ele><time>2026-05-03T06:15:01.681Z</time></trkpt><trkpt lat="39.8195583" lon="8.6723533"><ele>33.5</ele><time>2026-05-03T06:15:02.682Z</time></trkpt><trkpt lat="39.81953" lon="8.6724883"><ele>34.25</ele><time>2026-05-03T06:15:03.682Z</time></trkpt><trkpt lat="39.8194733" lon="8.6726233"><ele>35.0</ele><time>2026-05-03T06:15:04.681Z</time></trkpt><trkpt lat="39.8193917" lon="8.672765"><ele>36.0</ele><time>2026-05-03T06:15:05.681Z</time></trkpt><trkpt lat="39.8192817" lon="8.67291"><ele>37.0</ele><time>2026-05-03T06:15:06.681Z</time></trkpt><trkpt lat="39.819145" lon="8.673075"><ele>38.0</ele><time>2026-05-03T06:15:07.682Z</time></trkpt><trkpt lat="39.8190167" lon="8.6732433"><ele>38.0</ele><time>2026-05-03T06:15:08.681Z</time></trkpt><trkpt lat="39.8189117" lon="8.673405"><ele>38.0</ele><time>2026-05-03T06:15:09.682Z</time></trkpt><trkpt lat="39.8188167" lon="8.6735567"><ele>38.0</ele><time>2026-05-03T06:15:10.681Z</time></trkpt><trkpt lat="39.8187083" lon="8.6737083"><ele>38.25</ele><time>2026-05-03T06:15:11.681Z</time></trkpt><trkpt lat="39.8186067" lon="8.6738583"><ele>38.5</ele><time>2026-05-03T06:15:12.681Z</time></trkpt><trkpt lat="39.81853" lon="8.6740233"><ele>38.75</ele><time>2026-05-03T06:15:13.682Z</time></trkpt><trkpt lat="39.81848" lon="8.6741817"><ele>39.0</ele><time>2026-05-03T06:15:14.682Z</time></trkpt><trkpt lat="39.8184517" lon="8.67436"><ele>40.333333333333336</ele><time>2026-05-03T06:15:15.681Z</time></trkpt><trkpt lat="39.8184367" lon="8.6745733"><ele>41.66666666666667</ele><time>2026-05-03T06:15:16.681Z</time></trkpt><trkpt lat="39.818425" lon="8.674805"><ele>43.0</ele><time>2026-05-03T06:15:17.682Z</time></trkpt><trkpt lat="39.8184167" lon="8.6750533"><ele>43.0</ele><time>2026-05-03T06:15:18.682Z</time></trkpt><trkpt lat="39.818405" lon="8.6753183"><ele>43.0</ele><time>2026-05-03T06:15:19.681Z</time></trkpt><trkpt lat="39.818385" lon="8.67559"><ele>43.0</ele><time>2026-05-03T06:15:20.682Z</time></trkpt><trkpt lat="39.8183733" lon="8.6758633"><ele>42.66666666666667</ele><time>2026-05-03T06:15:21.682Z</time></trkpt><trkpt lat="39.8183583" lon="8.676145"><ele>42.333333333333336</ele><time>2026-05-03T06:15:22.681Z</time></trkpt><trkpt lat="39.8183417" lon="8.6764183"><ele>42.0</ele><time>2026-05-03T06:15:23.681Z</time></trkpt><trkpt lat="39.81831" lon="8.67666"><ele>42.0</ele><time>2026-05-03T06:15:24.681Z</time></trkpt><trkpt lat="39.8182733" lon="8.67688"><ele>42.0</ele><time>2026-05-03T06:15:25.682Z</time></trkpt><trkpt lat="39.8182267" lon="8.67707"><ele>42.0</ele><time>2026-05-03T06:15:26.681Z</time></trkpt><trkpt lat="39.818165" lon="8.6772417"><ele>42.0</ele><time>2026-05-03T06:15:27.681Z</time></trkpt><trkpt lat="39.8180967" lon="8.6774033"><ele>42.0</ele><time>2026-05-03T06:15:28.681Z</time></trkpt><trkpt lat="39.818045" lon="8.677545"><ele>42.0</ele><time>2026-05-03T06:15:29.682Z</time></trkpt><trkpt lat="39.8180083" lon="8.6776767"><ele>42.0</ele><time>2026-05-03T06:15:30.681Z</time></trkpt><trkpt lat="39.8179583" lon="8.677775"><ele>41.75</ele><time>2026-05-03T06:15:31.681Z</time></trkpt><trkpt lat="39.817875" lon="8.6778733"><ele>41.5</ele><time>2026-05-03T06:15:32.681Z</time></trkpt><trkpt lat="39.817765" lon="8.6779583"><ele>41.25</ele><time>2026-05-03T06:15:33.681Z</time></trkpt><trkpt lat="39.81765" lon="8.6780633"><ele>41.0</ele><time>2026-05-03T06:15:34.681Z</time></trkpt><trkpt lat="39.8175517" lon="8.6781633"><ele>42.0</ele><time>2026-05-03T06:15:35.682Z</time></trkpt><trkpt lat="39.8174567" lon="8.6782733"><ele>43.0</ele><time>2026-05-03T06:15:36.682Z</time></trkpt><trkpt lat="39.817375" lon="8.678385"><ele>44.0</ele><time>2026-05-03T06:15:37.682Z</time></trkpt><trkpt lat="39.8172833" lon="8.6784983"><ele>45.0</ele><time>2026-05-03T06:15:38.681Z</time></trkpt><trkpt lat="39.81718" lon="8.6785983"><ele>45.25</ele><time>2026-05-03T06:15:39.682Z</time></trkpt><trkpt lat="39.8170683" lon="8.6787133"><ele>45.5</ele><time>2026-05-03T06:15:40.681Z</time></trkpt><trkpt lat="39.81696" lon="8.6788417"><ele>45.75</ele><time>2026-05-03T06:15:41.681Z</time></trkpt><trkpt lat="39.8168467" lon="8.6789683"><ele>46.0</ele><time>2026-05-03T06:15:42.681Z</time></trkpt><trkpt lat="39.8167317" lon="8.6791067"><ele>47.0</ele><time>2026-05-03T06:15:43.681Z</time></trkpt><trkpt lat="39.8166117" lon="8.6792367"><ele>48.0</ele><time>2026-05-03T06:15:44.681Z</time></trkpt><trkpt lat="39.81649" lon="8.6793483"><ele>49.0</ele><time>2026-05-03T06:15:45.682Z</time></trkpt><trkpt lat="39.8163783" lon="8.6794617"><ele>50.0</ele><time>2026-05-03T06:15:46.681Z</time></trkpt><trkpt lat="39.8162917" lon="8.6795667"><ele>50.0</ele><time>2026-05-03T06:15:47.682Z</time></trkpt><trkpt lat="39.8162083" lon="8.6796683"><ele>50.0</ele><time>2026-05-03T06:15:48.681Z</time></trkpt><trkpt lat="39.81612" lon="8.679765"><ele>50.0</ele><time>2026-05-03T06:15:49.681Z</time></trkpt><trkpt lat="39.8160217" lon="8.679865"><ele>50.0</ele><time>2026-05-03T06:15:50.681Z</time></trkpt><trkpt lat="39.815925" lon="8.6799667"><ele>50.6</ele><time>2026-05-03T06:15:51.681Z</time></trkpt><trkpt lat="39.8158417" lon="8.6800633"><ele>51.2</ele><time>2026-05-03T06:15:52.681Z</time></trkpt><trkpt lat="39.81576" lon="8.680155"><ele>51.8</ele><time>2026-05-03T06:15:53.681Z</time></trkpt><trkpt lat="39.815685" lon="8.6802283"><ele>52.4</ele><time>2026-05-03T06:15:54.682Z</time></trkpt><trkpt lat="39.8156167" lon="8.6802817"><ele>53.0</ele><time>2026-05-03T06:15:55.681Z</time></trkpt><trkpt lat="39.8155417" lon="8.680315"><ele>53.0</ele><time>2026-05-03T06:15:56.681Z</time></trkpt><trkpt lat="39.81542" lon="8.6803167"><ele>53.0</ele><time>2026-05-03T06:15:58.682Z</time></trkpt><trkpt lat="39.8153517" lon="8.6802883"><ele>53.0</ele><time>2026-05-03T06:15:59.681Z</time></trkpt><trkpt lat="39.815265" lon="8.6802517"><ele>53.0</ele><time>2026-05-03T06:16:00.681Z</time></trkpt><trkpt lat="39.8151667" lon="8.6802"><ele>53.0</ele><time>2026-05-03T06:16:01.682Z</time></trkpt><trkpt lat="39.815065" lon="8.68015"><ele>53.5</ele><time>2026-05-03T06:16:02.681Z</time></trkpt><trkpt lat="39.8149583" lon="8.6801017"><ele>54.0</ele><time>2026-05-03T06:16:03.681Z</time></trkpt><trkpt lat="39.81484" lon="8.6800683"><ele>54.5</ele><time>2026-05-03T06:16:04.681Z</time></trkpt><trkpt lat="39.8147217" lon="8.680025"><ele>55.0</ele><time>2026-05-03T06:16:05.681Z</time></trkpt><trkpt lat="39.8145967" lon="8.6799767"><ele>55.0</ele><time>2026-05-03T06:16:06.682Z</time></trkpt><trkpt lat="39.81447" lon="8.6799283"><ele>55.0</ele><time>2026-05-03T06:16:07.682Z</time></trkpt><trkpt lat="39.8143417" lon="8.67988"><ele>55.0</ele><time>2026-05-03T06:16:08.681Z</time></trkpt><trkpt lat="39.8142133" lon="8.67981"><ele>55.0</ele><time>2026-05-03T06:16:09.681Z</time></trkpt><trkpt lat="39.8140783" lon="8.6797583"><ele>55.4</ele><time>2026-05-03T06:16:10.682Z</time></trkpt><trkpt lat="39.813955" lon="8.6797117"><ele>55.8</ele><time>2026-05-03T06:16:11.681Z</time></trkpt><trkpt lat="39.8138467" lon="8.6796733"><ele>56.2</ele><time>2026-05-03T06:16:12.681Z</time></trkpt><trkpt lat="39.81375" lon="8.67963"><ele>56.6</ele><time>2026-05-03T06:16:13.681Z</time></trkpt><trkpt lat="39.8136717" lon="8.6795983"><ele>57.0</ele><time>2026-05-03T06:16:14.682Z</time></trkpt><trkpt lat="39.81361" lon="8.6795733"><ele>57.0</ele><time>2026-05-03T06:16:15.682Z</time></trkpt><trkpt lat="39.8135283" lon="8.6795533"><ele>57.0</ele><time>2026-05-03T06:16:17.682Z</time></trkpt><trkpt lat="39.8134533" lon="8.679625"><ele>57.0</ele><time>2026-05-03T06:16:19.681Z</time></trkpt><trkpt lat="39.81343" lon="8.6797017"><ele>57.0</ele><time>2026-05-03T06:16:20.682Z</time></trkpt><trkpt lat="39.813415" lon="8.6798"><ele>57.0</ele><time>2026-05-03T06:16:21.681Z</time></trkpt><trkpt lat="39.8134033" lon="8.6798983"><ele>57.0</ele><time>2026-05-03T06:16:22.681Z</time></trkpt><trkpt lat="39.813385" lon="8.6799783"><ele>57.0</ele><time>2026-05-03T06:16:23.681Z</time></trkpt><trkpt lat="39.8133667" lon="8.6800583"><ele>57.0</ele><time>2026-05-03T06:16:24.681Z</time></trkpt><trkpt lat="39.81335" lon="8.6801583"><ele>57.0</ele><time>2026-05-03T06:16:26.681Z</time></trkpt><trkpt lat="39.8133933" lon="8.68025"><ele>57.0</ele><time>2026-05-03T06:16:28.681Z</time></trkpt><trkpt lat="39.8134683" lon="8.6803"><ele>57.0</ele><time>2026-05-03T06:16:29.681Z</time></trkpt><trkpt lat="39.81357" lon="8.680345"><ele>57.0</ele><time>2026-05-03T06:16:30.682Z</time></trkpt><trkpt lat="39.813705" lon="8.6803867"><ele>57.0</ele><time>2026-05-03T06:16:31.682Z</time></trkpt><trkpt lat="39.8138517" lon="8.680435"><ele>57.0</ele><time>2026-05-03T06:16:32.682Z</time></trkpt><trkpt lat="39.814005" lon="8.6804867"><ele>57.0</ele><time>2026-05-03T06:16:33.681Z</time></trkpt><trkpt lat="39.814155" lon="8.6805417"><ele>57.0</ele><time>2026-05-03T06:16:34.681Z</time></trkpt><trkpt lat="39.8142967" lon="8.6805967"><ele>57.0</ele><time>2026-05-03T06:16:35.681Z</time></trkpt><trkpt lat="39.8144183" lon="8.6806417"><ele>57.0</ele><time>2026-05-03T06:16:36.682Z</time></trkpt><trkpt lat="39.814535" lon="8.6806833"><ele>57.0</ele><time>2026-05-03T06:16:37.681Z</time></trkpt><trkpt lat="39.8146567" lon="8.6807383"><ele>56.75</ele><time>2026-05-03T06:16:38.682Z</time></trkpt><trkpt lat="39.814785" lon="8.6807983"><ele>56.5</ele><time>2026-05-03T06:16:39.681Z</time></trkpt><trkpt lat="39.8149133" lon="8.6808517"><ele>56.25</ele><time>2026-05-03T06:16:40.681Z</time></trkpt><trkpt lat="39.81505" lon="8.6809117"><ele>56.0</ele><time>2026-05-03T06:16:41.681Z</time></trkpt><trkpt lat="39.81519" lon="8.6809633"><ele>55.75</ele><time>2026-05-03T06:16:42.682Z</time></trkpt><trkpt lat="39.815335" lon="8.6810183"><ele>55.5</ele><time>2026-05-03T06:16:43.682Z</time></trkpt><trkpt lat="39.8154783" lon="8.6810667"><ele>55.25</ele><time>2026-05-03T06:16:44.681Z</time></trkpt><trkpt lat="39.8156117" lon="8.6811317"><ele>55.0</ele><time>2026-05-03T06:16:45.681Z</time></trkpt><trkpt lat="39.8157517" lon="8.681195"><ele>55.0</ele><time>2026-05-03T06:16:46.682Z</time></trkpt><trkpt lat="39.8158967" lon="8.681255"><ele>55.0</ele><time>2026-05-03T06:16:47.681Z</time></trkpt><trkpt lat="39.81604" lon="8.681315"><ele>55.0</ele><time>2026-05-03T06:16:48.681Z</time></trkpt><trkpt lat="39.8161883" lon="8.68138"><ele>54.0</ele><time>2026-05-03T06:16:49.682Z</time></trkpt><trkpt lat="39.8163433" lon="8.6814333"><ele>53.0</ele><time>2026-05-03T06:16:50.681Z</time></trkpt><trkpt lat="39.8165" lon="8.6814883"><ele>52.0</ele><time>2026-05-03T06:16:51.682Z</time></trkpt><trkpt lat="39.8166483" lon="8.6815517"><ele>52.0</ele><time>2026-05-03T06:16:52.682Z</time></trkpt><trkpt lat="39.8168033" lon="8.68161"><ele>52.0</ele><time>2026-05-03T06:16:53.682Z</time></trkpt><trkpt lat="39.816965" lon="8.6816733"><ele>52.0</ele><time>2026-05-03T06:16:54.681Z</time></trkpt><trkpt lat="39.817135" lon="8.6817417"><ele>51.33333333333333</ele><time>2026-05-03T06:16:55.681Z</time></trkpt><trkpt lat="39.8173017" lon="8.681815"><ele>50.66666666666667</ele><time>2026-05-03T06:16:56.682Z</time></trkpt><trkpt lat="39.8174733" lon="8.68188"><ele>50.0</ele><time>2026-05-03T06:16:57.682Z</time></trkpt><trkpt lat="39.8176567" lon="8.68196"><ele>49.333333333333336</ele><time>2026-05-03T06:16:58.681Z</time></trkpt><trkpt lat="39.8178467" lon="8.6820433"><ele>48.66666666666667</ele><time>2026-05-03T06:16:59.682Z</time></trkpt><trkpt lat="39.81804" lon="8.6821233"><ele>48.0</ele><time>2026-05-03T06:17:00.681Z</time></trkpt><trkpt lat="39.818235" lon="8.682205"><ele>48.0</ele><time>2026-05-03T06:17:01.681Z</time></trkpt><trkpt lat="39.8184567" lon="8.6822933"><ele>48.0</ele><time>2026-05-03T06:17:02.681Z</time></trkpt><trkpt lat="39.81868" lon="8.6823767"><ele>48.0</ele><time>2026-05-03T06:17:03.682Z</time></trkpt><trkpt lat="39.8189067" lon="8.6824767"><ele>48.0</ele><time>2026-05-03T06:17:04.681Z</time></trkpt><trkpt lat="39.8191367" lon="8.6825667"><ele>48.5</ele><time>2026-05-03T06:17:05.682Z</time></trkpt><trkpt lat="39.8193633" lon="8.6826567"><ele>49.0</ele><time>2026-05-03T06:17:06.682Z</time></trkpt><trkpt lat="39.81959" lon="8.682745"><ele>49.5</ele><time>2026-05-03T06:17:07.682Z</time></trkpt><trkpt lat="39.8198083" lon="8.6828283"><ele>50.0</ele><time>2026-05-03T06:17:08.681Z</time></trkpt><trkpt lat="39.8200217" lon="8.68292"><ele>51.0</ele><time>2026-05-03T06:17:09.681Z</time></trkpt><trkpt lat="39.8202217" lon="8.6830033"><ele>52.0</ele><time>2026-05-03T06:17:10.682Z</time></trkpt><trkpt lat="39.82042" lon="8.6830833"><ele>53.0</ele><time>2026-05-03T06:17:11.682Z</time></trkpt><trkpt lat="39.82062" lon="8.6831667"><ele>53.0</ele><time>2026-05-03T06:17:12.681Z</time></trkpt><trkpt lat="39.82081" lon="8.6832467"><ele>53.0</ele><time>2026-05-03T06:17:13.681Z</time></trkpt><trkpt lat="39.82101" lon="8.68333"><ele>53.0</ele><time>2026-05-03T06:17:14.682Z</time></trkpt><trkpt lat="39.8212067" lon="8.6834067"><ele>52.66666666666667</ele><time>2026-05-03T06:17:15.682Z</time></trkpt><trkpt lat="39.8214083" lon="8.6834833"><ele>52.33333333333333</ele><time>2026-05-03T06:17:16.681Z</time></trkpt><trkpt lat="39.8216067" lon="8.683565"><ele>52.0</ele><time>2026-05-03T06:17:17.682Z</time></trkpt><trkpt lat="39.8218067" lon="8.68365"><ele>51.666666666666664</ele><time>2026-05-03T06:17:18.682Z</time></trkpt><trkpt lat="39.8220117" lon="8.6837367"><ele>51.33333333333333</ele><time>2026-05-03T06:17:19.682Z</time></trkpt><trkpt lat="39.8222167" lon="8.6838233"><ele>51.0</ele><time>2026-05-03T06:17:20.681Z</time></trkpt><trkpt lat="39.8224217" lon="8.6839067"><ele>51.0</ele><time>2026-05-03T06:17:21.681Z</time></trkpt><trkpt lat="39.82263" lon="8.683995"><ele>51.0</ele><time>2026-05-03T06:17:22.682Z</time></trkpt><trkpt lat="39.82284" lon="8.6840867"><ele>51.0</ele><time>2026-05-03T06:17:23.681Z</time></trkpt><trkpt lat="39.8230417" lon="8.6841633"><ele>51.66666666666667</ele><time>2026-05-03T06:17:24.681Z</time></trkpt><trkpt lat="39.823255" lon="8.68424"><ele>52.333333333333336</ele><time>2026-05-03T06:17:25.681Z</time></trkpt><trkpt lat="39.823465" lon="8.6843167"><ele>53.0</ele><time>2026-05-03T06:17:26.682Z</time></trkpt><trkpt lat="39.8236767" lon="8.6844"><ele>53.0</ele><time>2026-05-03T06:17:27.681Z</time></trkpt><trkpt lat="39.823885" lon="8.6844867"><ele>53.0</ele><time>2026-05-03T06:17:28.681Z</time></trkpt><trkpt lat="39.824095" lon="8.6845733"><ele>53.0</ele><time>2026-05-03T06:17:29.681Z</time></trkpt><trkpt lat="39.8243067" lon="8.684665"><ele>53.5</ele><time>2026-05-03T06:17:30.682Z</time></trkpt><trkpt lat="39.82452" lon="8.6847583"><ele>54.0</ele><time>2026-05-03T06:17:31.681Z</time></trkpt><trkpt lat="39.82474" lon="8.68485"><ele>54.0</ele><time>2026-05-03T06:17:32.682Z</time></trkpt><trkpt lat="39.824955" lon="8.6849367"><ele>54.0</ele><time>2026-05-03T06:17:33.682Z</time></trkpt><trkpt lat="39.8251733" lon="8.6850233"><ele>55.0</ele><time>2026-05-03T06:17:34.681Z</time></trkpt><trkpt lat="39.825395" lon="8.6851033"><ele>56.0</ele><time>2026-05-03T06:17:35.681Z</time></trkpt><trkpt lat="39.8256167" lon="8.6851933"><ele>56.0</ele><time>2026-05-03T06:17:36.682Z</time></trkpt><trkpt lat="39.8258367" lon="8.6852817"><ele>56.0</ele><time>2026-05-03T06:17:37.681Z</time></trkpt><trkpt lat="39.8260567" lon="8.6853717"><ele>56.0</ele><time>2026-05-03T06:17:38.681Z</time></trkpt><trkpt lat="39.8262817" lon="8.6854667"><ele>56.0</ele><time>2026-05-03T06:17:39.681Z</time></trkpt><trkpt lat="39.8265067" lon="8.6855633"><ele>56.0</ele><time>2026-05-03T06:17:40.681Z</time></trkpt><trkpt lat="39.8267317" lon="8.68566"><ele>56.0</ele><time>2026-05-03T06:17:41.681Z</time></trkpt><trkpt lat="39.8269583" lon="8.6857483"><ele>56.0</ele><time>2026-05-03T06:17:42.682Z</time></trkpt><trkpt lat="39.8271917" lon="8.6858433"><ele>56.0</ele><time>2026-05-03T06:17:43.681Z</time></trkpt><trkpt lat="39.82743" lon="8.6859367"><ele>55.5</ele><time>2026-05-03T06:17:44.682Z</time></trkpt><trkpt lat="39.8276533" lon="8.68602"><ele>55.0</ele><time>2026-05-03T06:17:45.681Z</time></trkpt><trkpt lat="39.8278783" lon="8.6861083"><ele>57.0</ele><time>2026-05-03T06:17:46.682Z</time></trkpt><trkpt lat="39.8281017" lon="8.686195"><ele>59.0</ele><time>2026-05-03T06:17:47.681Z</time></trkpt><trkpt lat="39.82833" lon="8.6862883"><ele>58.5</ele><time>2026-05-03T06:17:48.681Z</time></trkpt><trkpt lat="39.8285567" lon="8.686375"><ele>58.0</ele><time>2026-05-03T06:17:49.682Z</time></trkpt><trkpt lat="39.8287717" lon="8.68646"><ele>58.0</ele><time>2026-05-03T06:17:50.681Z</time></trkpt><trkpt lat="39.8289833" lon="8.6865467"><ele>58.0</ele><time>2026-05-03T06:17:51.682Z</time></trkpt><trkpt lat="39.8291933" lon="8.6866317"><ele>58.0</ele><time>2026-05-03T06:17:52.681Z</time></trkpt><trkpt lat="39.8294" lon="8.6867067"><ele>58.0</ele><time>2026-05-03T06:17:53.681Z</time></trkpt><trkpt lat="39.8296067" lon="8.6867883"><ele>58.0</ele><time>2026-05-03T06:17:54.681Z</time></trkpt><trkpt lat="39.8298133" lon="8.6868733"><ele>58.0</ele><time>2026-05-03T06:17:55.681Z</time></trkpt><trkpt lat="39.8300283" lon="8.68697"><ele>59.0</ele><time>2026-05-03T06:17:56.681Z</time></trkpt><trkpt lat="39.8302433" lon="8.68706"><ele>60.0</ele><time>2026-05-03T06:17:57.681Z</time></trkpt><trkpt lat="39.8304617" lon="8.68715"><ele>60.0</ele><time>2026-05-03T06:17:58.681Z</time></trkpt><trkpt lat="39.8306833" lon="8.68723"><ele>60.0</ele><time>2026-05-03T06:17:59.681Z</time></trkpt><trkpt lat="39.830905" lon="8.6873217"><ele>60.0</ele><time>2026-05-03T06:18:00.681Z</time></trkpt><trkpt lat="39.8311333" lon="8.6874183"><ele>60.0</ele><time>2026-05-03T06:18:01.681Z</time></trkpt><trkpt lat="39.8313617" lon="8.6875167"><ele>60.0</ele><time>2026-05-03T06:18:02.682Z</time></trkpt><trkpt lat="39.8315883" lon="8.6876033"><ele>60.0</ele><time>2026-05-03T06:18:03.682Z</time></trkpt><trkpt lat="39.83182" lon="8.687695"><ele>60.0</ele><time>2026-05-03T06:18:04.681Z</time></trkpt><trkpt lat="39.832045" lon="8.6877833"><ele>60.0</ele><time>2026-05-03T06:18:05.681Z</time></trkpt><trkpt lat="39.8322633" lon="8.6878717"><ele>60.0</ele><time>2026-05-03T06:18:06.681Z</time></trkpt><trkpt lat="39.83247" lon="8.6879533"><ele>60.0</ele><time>2026-05-03T06:18:07.682Z</time></trkpt><trkpt lat="39.8326583" lon="8.6880283"><ele>60.0</ele><time>2026-05-03T06:18:08.682Z</time></trkpt><trkpt lat="39.832835" lon="8.6881067"><ele>59.66666666666667</ele><time>2026-05-03T06:18:09.682Z</time></trkpt><trkpt lat="39.833015" lon="8.68818"><ele>59.333333333333336</ele><time>2026-05-03T06:18:10.681Z</time></trkpt><trkpt lat="39.8331917" lon="8.6882417"><ele>59.0</ele><time>2026-05-03T06:18:11.681Z</time></trkpt><trkpt lat="39.8333717" lon="8.688315"><ele>59.0</ele><time>2026-05-03T06:18:12.682Z</time></trkpt><trkpt lat="39.8335483" lon="8.6883817"><ele>59.0</ele><time>2026-05-03T06:18:13.682Z</time></trkpt><trkpt lat="39.8337233" lon="8.6884583"><ele>59.0</ele><time>2026-05-03T06:18:14.681Z</time></trkpt><trkpt lat="39.8338967" lon="8.6885217"><ele>59.0</ele><time>2026-05-03T06:18:15.681Z</time></trkpt><trkpt lat="39.8340667" lon="8.688585"><ele>59.0</ele><time>2026-05-03T06:18:16.681Z</time></trkpt><trkpt lat="39.8342217" lon="8.6886433"><ele>59.0</ele><time>2026-05-03T06:18:17.681Z</time></trkpt><trkpt lat="39.834365" lon="8.6887017"><ele>59.0</ele><time>2026-05-03T06:18:18.681Z</time></trkpt><trkpt lat="39.8345033" lon="8.6887667"><ele>59.0</ele><time>2026-05-03T06:18:19.681Z</time></trkpt><trkpt lat="39.83465" lon="8.6888367"><ele>59.0</ele><time>2026-05-03T06:18:20.682Z</time></trkpt><trkpt lat="39.8348033" lon="8.6888967"><ele>59.0</ele><time>2026-05-03T06:18:21.682Z</time></trkpt><trkpt lat="39.8349617" lon="8.6889617"><ele>59.0</ele><time>2026-05-03T06:18:22.681Z</time></trkpt><trkpt lat="39.8351283" lon="8.6890283"><ele>59.0</ele><time>2026-05-03T06:18:23.681Z</time></trkpt><trkpt lat="39.83529" lon="8.6890983"><ele>58.66666666666667</ele><time>2026-05-03T06:18:24.681Z</time></trkpt><trkpt lat="39.83546" lon="8.6891667"><ele>58.33333333333333</ele><time>2026-05-03T06:18:25.682Z</time></trkpt><trkpt lat="39.8356267" lon="8.689235"><ele>58.0</ele><time>2026-05-03T06:18:26.682Z</time></trkpt><trkpt lat="39.8357833" lon="8.689295"><ele>58.0</ele><time>2026-05-03T06:18:27.681Z</time></trkpt><trkpt lat="39.835935" lon="8.6893533"><ele>58.0</ele><time>2026-05-03T06:18:28.681Z</time></trkpt><trkpt lat="39.83607" lon="8.6894017"><ele>58.0</ele><time>2026-05-03T06:18:29.682Z</time></trkpt><trkpt lat="39.8361917" lon="8.6894483"><ele>58.0</ele><time>2026-05-03T06:18:30.681Z</time></trkpt><trkpt lat="39.8363" lon="8.6894917"><ele>58.33333333333333</ele><time>2026-05-03T06:18:31.681Z</time></trkpt><trkpt lat="39.8363917" lon="8.689525"><ele>58.666666666666664</ele><time>2026-05-03T06:18:32.681Z</time></trkpt><trkpt lat="39.836465" lon="8.6895617"><ele>59.0</ele><time>2026-05-03T06:18:33.681Z</time></trkpt><trkpt lat="39.836515" lon="8.6896567"><ele>59.33333333333333</ele><time>2026-05-03T06:18:35.681Z</time></trkpt><trkpt lat="39.8364883" lon="8.6897367"><ele>59.666666666666664</ele><time>2026-05-03T06:18:36.682Z</time></trkpt><trkpt lat="39.8364417" lon="8.6898417"><ele>60.0</ele><time>2026-05-03T06:18:37.681Z</time></trkpt><trkpt lat="39.8363883" lon="8.6899683"><ele>60.0</ele><time>2026-05-03T06:18:38.681Z</time></trkpt><trkpt lat="39.8363167" lon="8.690115"><ele>60.0</ele><time>2026-05-03T06:18:39.681Z</time></trkpt><trkpt lat="39.8362517" lon="8.6902717"><ele>60.0</ele><time>2026-05-03T06:18:40.682Z</time></trkpt><trkpt lat="39.836175" lon="8.690435"><ele>60.0</ele><time>2026-05-03T06:18:41.681Z</time></trkpt><trkpt lat="39.8360917" lon="8.6906133"><ele>60.0</ele><time>2026-05-03T06:18:42.681Z</time></trkpt><trkpt lat="39.83601" lon="8.6908183"><ele>60.0</ele><time>2026-05-03T06:18:43.681Z</time></trkpt><trkpt lat="39.83593" lon="8.6910283"><ele>60.0</ele><time>2026-05-03T06:18:44.681Z</time></trkpt><trkpt lat="39.8358583" lon="8.6912383"><ele>60.66666666666667</ele><time>2026-05-03T06:18:45.682Z</time></trkpt><trkpt lat="39.8357817" lon="8.6914517"><ele>61.333333333333336</ele><time>2026-05-03T06:18:46.681Z</time></trkpt><trkpt lat="39.8357067" lon="8.6916833"><ele>62.0</ele><time>2026-05-03T06:18:47.681Z</time></trkpt><trkpt lat="39.83563" lon="8.69192"><ele>62.66666666666667</ele><time>2026-05-03T06:18:48.682Z</time></trkpt><trkpt lat="39.83554" lon="8.69215"><ele>63.33333333333333</ele><time>2026-05-03T06:18:49.682Z</time></trkpt><trkpt lat="39.8354517" lon="8.6923733"><ele>64.0</ele><time>2026-05-03T06:18:50.682Z</time></trkpt><trkpt lat="39.83536" lon="8.692595"><ele>64.33333333333333</ele><time>2026-05-03T06:18:51.681Z</time></trkpt><trkpt lat="39.83526" lon="8.6928283"><ele>64.66666666666667</ele><time>2026-05-03T06:18:52.681Z</time></trkpt><trkpt lat="39.8351667" lon="8.6930567"><ele>65.0</ele><time>2026-05-03T06:18:53.681Z</time></trkpt><trkpt lat="39.835075" lon="8.69329"><ele>65.33333333333334</ele><time>2026-05-03T06:18:54.681Z</time></trkpt><trkpt lat="39.8349783" lon="8.6935233"><ele>65.66666666666667</ele><time>2026-05-03T06:18:55.681Z</time></trkpt><trkpt lat="39.834885" lon="8.693765"><ele>66.0</ele><time>2026-05-03T06:18:56.681Z</time></trkpt><trkpt lat="39.834795" lon="8.6940117"><ele>66.66666666666667</ele><time>2026-05-03T06:18:57.681Z</time></trkpt><trkpt lat="39.8346933" lon="8.69425"><ele>67.33333333333334</ele><time>2026-05-03T06:18:58.681Z</time></trkpt><trkpt lat="39.8345967" lon="8.6945"><ele>68.0</ele><time>2026-05-03T06:18:59.681Z</time></trkpt><trkpt lat="39.8344867" lon="8.6947583"><ele>69.0</ele><time>2026-05-03T06:19:00.681Z</time></trkpt><trkpt lat="39.8343783" lon="8.6950167"><ele>70.0</ele><time>2026-05-03T06:19:01.681Z</time></trkpt><trkpt lat="39.8342767" lon="8.6952783"><ele>70.33333333333333</ele><time>2026-05-03T06:19:02.681Z</time></trkpt><trkpt lat="39.8341667" lon="8.6955367"><ele>70.66666666666667</ele><time>2026-05-03T06:19:03.682Z</time></trkpt><trkpt lat="39.8340633" lon="8.6957867"><ele>71.0</ele><time>2026-05-03T06:19:04.681Z</time></trkpt><trkpt lat="39.8339617" lon="8.6960383"><ele>72.33333333333334</ele><time>2026-05-03T06:19:05.681Z</time></trkpt><trkpt lat="39.833875" lon="8.69627"><ele>73.66666666666667</ele><time>2026-05-03T06:19:06.681Z</time></trkpt><trkpt lat="39.8337833" lon="8.6965033"><ele>75.0</ele><time>2026-05-03T06:19:07.681Z</time></trkpt><trkpt lat="39.8336883" lon="8.6967367"><ele>75.0</ele><time>2026-05-03T06:19:08.682Z</time></trkpt><trkpt lat="39.8336017" lon="8.6969583"><ele>75.0</ele><time>2026-05-03T06:19:09.681Z</time></trkpt><trkpt lat="39.833515" lon="8.6971883"><ele>75.0</ele><time>2026-05-03T06:19:10.681Z</time></trkpt><trkpt lat="39.833435" lon="8.6974133"><ele>74.66666666666667</ele><time>2026-05-03T06:19:11.682Z</time></trkpt><trkpt lat="39.8333383" lon="8.6976333"><ele>74.33333333333334</ele><time>2026-05-03T06:19:12.682Z</time></trkpt><trkpt lat="39.83325" lon="8.6978467"><ele>74.0</ele><time>2026-05-03T06:19:13.681Z</time></trkpt><trkpt lat="39.8331617" lon="8.6980567"><ele>74.66666666666667</ele><time>2026-05-03T06:19:14.681Z</time></trkpt><trkpt lat="39.8330767" lon="8.6982817"><ele>75.33333333333333</ele><time>2026-05-03T06:19:15.681Z</time></trkpt><trkpt lat="39.833005" lon="8.698515"><ele>76.0</ele><time>2026-05-03T06:19:16.682Z</time></trkpt><trkpt lat="39.8329367" lon="8.6987233"><ele>77.0</ele><time>2026-05-03T06:19:17.681Z</time></trkpt><trkpt lat="39.832865" lon="8.698895"><ele>78.0</ele><time>2026-05-03T06:19:18.682Z</time></trkpt><trkpt lat="39.8327917" lon="8.6990717"><ele>79.0</ele><time>2026-05-03T06:19:19.681Z</time></trkpt><trkpt lat="39.8327383" lon="8.69926"><ele>79.66666666666666</ele><time>2026-05-03T06:19:20.681Z</time></trkpt><trkpt lat="39.832675" lon="8.699455"><ele>80.33333333333333</ele><time>2026-05-03T06:19:21.681Z</time></trkpt><trkpt lat="39.8326" lon="8.6996517"><ele>81.0</ele><time>2026-05-03T06:19:22.681Z</time></trkpt><trkpt lat="39.8325183" lon="8.69984"><ele>81.0</ele><time>2026-05-03T06:19:23.681Z</time></trkpt><trkpt lat="39.8324533" lon="8.700015"><ele>81.0</ele><time>2026-05-03T06:19:24.682Z</time></trkpt><trkpt lat="39.8323933" lon="8.70018"><ele>81.0</ele><time>2026-05-03T06:19:25.681Z</time></trkpt><trkpt lat="39.832335" lon="8.7003367"><ele>81.0</ele><time>2026-05-03T06:19:26.681Z</time></trkpt><trkpt lat="39.8322817" lon="8.7004733"><ele>81.5</ele><time>2026-05-03T06:19:27.681Z</time></trkpt><trkpt lat="39.8322333" lon="8.7005933"><ele>82.0</ele><time>2026-05-03T06:19:28.682Z</time></trkpt><trkpt lat="39.8321967" lon="8.700705"><ele>82.5</ele><time>2026-05-03T06:19:29.682Z</time></trkpt><trkpt lat="39.8321583" lon="8.700795"><ele>83.0</ele><time>2026-05-03T06:19:30.681Z</time></trkpt><trkpt lat="39.832135" lon="8.70089"><ele>83.5</ele><time>2026-05-03T06:19:32.682Z</time></trkpt><trkpt lat="39.8322067" lon="8.7009133"><ele>84.0</ele><time>2026-05-03T06:19:34.681Z</time></trkpt><trkpt lat="39.8322833" lon="8.7008967"><ele>84.0</ele><time>2026-05-03T06:19:35.681Z</time></trkpt><trkpt lat="39.8323733" lon="8.7008583"><ele>84.0</ele><time>2026-05-03T06:19:36.681Z</time></trkpt><trkpt lat="39.83247" lon="8.7008133"><ele>84.0</ele><time>2026-05-03T06:19:37.681Z</time></trkpt><trkpt lat="39.8325517" lon="8.70075"><ele>84.0</ele><time>2026-05-03T06:19:38.681Z</time></trkpt><trkpt lat="39.8326433" lon="8.70065"><ele>84.0</ele><time>2026-05-03T06:19:39.681Z</time></trkpt><trkpt lat="39.8327517" lon="8.7005333"><ele>84.5</ele><time>2026-05-03T06:19:40.681Z</time></trkpt><trkpt lat="39.8328717" lon="8.7004267"><ele>85.0</ele><time>2026-05-03T06:19:41.682Z</time></trkpt><trkpt lat="39.83299" lon="8.7003383"><ele>85.5</ele><time>2026-05-03T06:19:42.681Z</time></trkpt><trkpt lat="39.8331017" lon="8.7002633"><ele>86.0</ele><time>2026-05-03T06:19:43.682Z</time></trkpt><trkpt lat="39.8332017" lon="8.7001883"><ele>85.4</ele><time>2026-05-03T06:19:44.681Z</time></trkpt><trkpt lat="39.833285" lon="8.7001233"><ele>84.8</ele><time>2026-05-03T06:19:45.682Z</time></trkpt><trkpt lat="39.83337" lon="8.7000483"><ele>84.2</ele><time>2026-05-03T06:19:46.681Z</time></trkpt><trkpt lat="39.83346" lon="8.699955"><ele>83.60000000000001</ele><time>2026-05-03T06:19:47.682Z</time></trkpt><trkpt lat="39.833555" lon="8.6998667"><ele>83.0</ele><time>2026-05-03T06:19:48.682Z</time></trkpt><trkpt lat="39.8336433" lon="8.6998017"><ele>83.0</ele><time>2026-05-03T06:19:49.681Z</time></trkpt><trkpt lat="39.83373" lon="8.6997567"><ele>83.0</ele><time>2026-05-03T06:19:50.682Z</time></trkpt><trkpt lat="39.8338333" lon="8.6997433"><ele>83.0</ele><time>2026-05-03T06:19:51.682Z</time></trkpt><trkpt lat="39.83395" lon="8.6997517"><ele>83.0</ele><time>2026-05-03T06:19:52.682Z</time></trkpt><trkpt lat="39.8340633" lon="8.6997517"><ele>83.0</ele><time>2026-05-03T06:19:53.681Z</time></trkpt><trkpt lat="39.83419" lon="8.6997"><ele>83.5</ele><time>2026-05-03T06:19:54.681Z</time></trkpt><trkpt lat="39.8343217" lon="8.6996367"><ele>84.0</ele><time>2026-05-03T06:19:55.682Z</time></trkpt><trkpt lat="39.8344567" lon="8.69956"><ele>84.5</ele><time>2026-05-03T06:19:56.681Z</time></trkpt><trkpt lat="39.8345933" lon="8.699485"><ele>85.0</ele><time>2026-05-03T06:19:57.681Z</time></trkpt><trkpt lat="39.83472" lon="8.6994167"><ele>84.4</ele><time>2026-05-03T06:19:58.682Z</time></trkpt><trkpt lat="39.83482" lon="8.699355"><ele>83.8</ele><time>2026-05-03T06:19:59.681Z</time></trkpt><trkpt lat="39.8348933" lon="8.6993083"><ele>83.19999999999999</ele><time>2026-05-03T06:20:00.682Z</time></trkpt><trkpt lat="39.834955" lon="8.69927"><ele>82.6</ele><time>2026-05-03T06:20:01.682Z</time></trkpt><trkpt lat="39.8350683" lon="8.6991817"><ele>82.0</ele><time>2026-05-03T06:20:03.681Z</time></trkpt><trkpt lat="39.8351433" lon="8.6991067"><ele>82.0</ele><time>2026-05-03T06:20:04.682Z</time></trkpt><trkpt lat="39.8352217" lon="8.6990267"><ele>82.0</ele><time>2026-05-03T06:20:05.682Z</time></trkpt><trkpt lat="39.8352983" lon="8.6989783"><ele>82.0</ele><time>2026-05-03T06:20:06.681Z</time></trkpt><trkpt lat="39.8353683" lon="8.6989567"><ele>82.0</ele><time>2026-05-03T06:20:07.682Z</time></trkpt><trkpt lat="39.83543" lon="8.698975"><ele>82.0</ele><time>2026-05-03T06:20:08.682Z</time></trkpt><trkpt lat="39.835475" lon="8.699045"><ele>82.0</ele><time>2026-05-03T06:20:09.682Z</time></trkpt><trkpt lat="39.83553" lon="8.6991633"><ele>82.0</ele><time>2026-05-03T06:20:10.681Z</time></trkpt><trkpt lat="39.8355933" lon="8.6993233"><ele>82.0</ele><time>2026-05-03T06:20:11.682Z</time></trkpt><trkpt lat="39.8356667" lon="8.6994983"><ele>82.0</ele><time>2026-05-03T06:20:12.682Z</time></trkpt><trkpt lat="39.83574" lon="8.69967"><ele>82.0</ele><time>2026-05-03T06:20:13.682Z</time></trkpt><trkpt lat="39.8358117" lon="8.699825"><ele>82.0</ele><time>2026-05-03T06:20:14.682Z</time></trkpt><trkpt lat="39.8358867" lon="8.6999733"><ele>82.0</ele><time>2026-05-03T06:20:15.681Z</time></trkpt><trkpt lat="39.8359683" lon="8.70011"><ele>82.0</ele><time>2026-05-03T06:20:16.681Z</time></trkpt><trkpt lat="39.83605" lon="8.7002417"><ele>82.0</ele><time>2026-05-03T06:20:17.681Z</time></trkpt><trkpt lat="39.836115" lon="8.7003517"><ele>82.0</ele><time>2026-05-03T06:20:18.682Z</time></trkpt><trkpt lat="39.83617" lon="8.70044"><ele>82.0</ele><time>2026-05-03T06:20:19.681Z</time></trkpt><trkpt lat="39.83623" lon="8.7005033"><ele>82.0</ele><time>2026-05-03T06:20:20.681Z</time></trkpt><trkpt lat="39.836295" lon="8.7005483"><ele>82.0</ele><time>2026-05-03T06:20:21.681Z</time></trkpt><trkpt lat="39.8363617" lon="8.7005683"><ele>82.0</ele><time>2026-05-03T06:20:22.682Z</time></trkpt><trkpt lat="39.83646" lon="8.700515"><ele>82.0</ele><time>2026-05-03T06:20:24.681Z</time></trkpt><trkpt lat="39.8365317" lon="8.700345"><ele>81.75</ele><time>2026-05-03T06:20:26.681Z</time></trkpt><trkpt lat="39.8365833" lon="8.7001983"><ele>81.5</ele><time>2026-05-03T06:20:27.682Z</time></trkpt><trkpt lat="39.8366517" lon="8.70002"><ele>81.25</ele><time>2026-05-03T06:20:28.681Z</time></trkpt><trkpt lat="39.8367283" lon="8.6998283"><ele>81.0</ele><time>2026-05-03T06:20:29.681Z</time></trkpt><trkpt lat="39.8367983" lon="8.69965"><ele>80.75</ele><time>2026-05-03T06:20:30.682Z</time></trkpt><trkpt lat="39.8368467" lon="8.6994917"><ele>80.5</ele><time>2026-05-03T06:20:31.681Z</time></trkpt><trkpt lat="39.83687" lon="8.6993383"><ele>80.25</ele><time>2026-05-03T06:20:32.681Z</time></trkpt><trkpt lat="39.83689" lon="8.6991417"><ele>80.0</ele><time>2026-05-03T06:20:33.681Z</time></trkpt><trkpt lat="39.8369017" lon="8.6989233"><ele>79.25</ele><time>2026-05-03T06:20:34.681Z</time></trkpt><trkpt lat="39.8369133" lon="8.698735"><ele>78.5</ele><time>2026-05-03T06:20:35.681Z</time></trkpt><trkpt lat="39.8369333" lon="8.6985867"><ele>77.75</ele><time>2026-05-03T06:20:36.681Z</time></trkpt><trkpt lat="39.8369783" lon="8.698465"><ele>77.0</ele><time>2026-05-03T06:20:37.681Z</time></trkpt><trkpt lat="39.83705" lon="8.6983267"><ele>76.75</ele><time>2026-05-03T06:20:38.681Z</time></trkpt><trkpt lat="39.8371367" lon="8.6981883"><ele>76.5</ele><time>2026-05-03T06:20:39.681Z</time></trkpt><trkpt lat="39.83721" lon="8.6980967"><ele>76.25</ele><time>2026-05-03T06:20:40.681Z</time></trkpt><trkpt lat="39.837305" lon="8.6980633"><ele>76.0</ele><time>2026-05-03T06:20:42.681Z</time></trkpt><trkpt lat="39.8374417" lon="8.6981217"><ele>76.0</ele><time>2026-05-03T06:20:44.682Z</time></trkpt><trkpt lat="39.8375433" lon="8.6982117"><ele>76.0</ele><time>2026-05-03T06:20:45.681Z</time></trkpt><trkpt lat="39.837655" lon="8.6983317"><ele>76.0</ele><time>2026-05-03T06:20:46.682Z</time></trkpt><trkpt lat="39.837775" lon="8.6984517"><ele>76.0</ele><time>2026-05-03T06:20:47.682Z</time></trkpt><trkpt lat="39.8379117" lon="8.6985517"><ele>76.5</ele><time>2026-05-03T06:20:48.681Z</time></trkpt><trkpt lat="39.83805" lon="8.6986267"><ele>77.0</ele><time>2026-05-03T06:20:49.682Z</time></trkpt><trkpt lat="39.8381667" lon="8.6986767"><ele>77.5</ele><time>2026-05-03T06:20:50.681Z</time></trkpt><trkpt lat="39.838255" lon="8.6987283"><ele>78.0</ele><time>2026-05-03T06:20:51.681Z</time></trkpt><trkpt lat="39.8383233" lon="8.6988167"><ele>78.0</ele><time>2026-05-03T06:20:52.682Z</time></trkpt><trkpt lat="39.8383733" lon="8.6989333"><ele>78.0</ele><time>2026-05-03T06:20:53.681Z</time></trkpt><trkpt lat="39.8383983" lon="8.6990567"><ele>78.0</ele><time>2026-05-03T06:20:54.682Z</time></trkpt><trkpt lat="39.8383883" lon="8.6991733"><ele>78.0</ele><time>2026-05-03T06:20:55.681Z</time></trkpt><trkpt lat="39.8383517" lon="8.6992983"><ele>78.0</ele><time>2026-05-03T06:20:56.682Z</time></trkpt><trkpt lat="39.8383033" lon="8.69944"><ele>78.2</ele><time>2026-05-03T06:20:57.681Z</time></trkpt><trkpt lat="39.8382667" lon="8.69957"><ele>78.4</ele><time>2026-05-03T06:20:58.681Z</time></trkpt><trkpt lat="39.8382633" lon="8.69969"><ele>78.60000000000001</ele><time>2026-05-03T06:20:59.681Z</time></trkpt><trkpt lat="39.8382933" lon="8.6998133"><ele>78.8</ele><time>2026-05-03T06:21:00.682Z</time></trkpt><trkpt lat="39.83835" lon="8.6999033"><ele>79.0</ele><time>2026-05-03T06:21:01.681Z</time></trkpt><trkpt lat="39.838415" lon="8.6999533"><ele>79.2</ele><time>2026-05-03T06:21:02.681Z</time></trkpt><trkpt lat="39.8384883" lon="8.7000017"><ele>79.4</ele><time>2026-05-03T06:21:03.681Z</time></trkpt><trkpt lat="39.83857" lon="8.70007"><ele>79.6</ele><time>2026-05-03T06:21:04.681Z</time></trkpt><trkpt lat="39.8386617" lon="8.7001367"><ele>79.8</ele><time>2026-05-03T06:21:05.682Z</time></trkpt><trkpt lat="39.83874" lon="8.7001983"><ele>80.0</ele><time>2026-05-03T06:21:06.681Z</time></trkpt><trkpt lat="39.8388117" lon="8.7002517"><ele>80.5</ele><time>2026-05-03T06:21:07.681Z</time></trkpt><trkpt lat="39.8388767" lon="8.700295"><ele>81.0</ele><time>2026-05-03T06:21:08.681Z</time></trkpt><trkpt lat="39.8389433" lon="8.7003333"><ele>81.5</ele><time>2026-05-03T06:21:09.681Z</time></trkpt><trkpt lat="39.83901" lon="8.7003667"><ele>82.0</ele><time>2026-05-03T06:21:10.682Z</time></trkpt><trkpt lat="39.8390783" lon="8.7004117"><ele>82.5</ele><time>2026-05-03T06:21:11.681Z</time></trkpt><trkpt lat="39.839165" lon="8.7004717"><ele>83.0</ele><time>2026-05-03T06:21:12.682Z</time></trkpt><trkpt lat="39.83926" lon="8.7005467"><ele>82.25</ele><time>2026-05-03T06:21:13.681Z</time></trkpt><trkpt lat="39.8393817" lon="8.7006217"><ele>81.5</ele><time>2026-05-03T06:21:14.681Z</time></trkpt><trkpt lat="39.8394983" lon="8.7007017"><ele>80.75</ele><time>2026-05-03T06:21:15.681Z</time></trkpt><trkpt lat="39.839605" lon="8.7007683"><ele>80.0</ele><time>2026-05-03T06:21:16.681Z</time></trkpt><trkpt lat="39.83969" lon="8.70082"><ele>80.0</ele><time>2026-05-03T06:21:17.682Z</time></trkpt><trkpt lat="39.8397617" lon="8.7008467"><ele>80.0</ele><time>2026-05-03T06:21:18.681Z</time></trkpt><trkpt lat="39.8398483" lon="8.7009283"><ele>80.0</ele><time>2026-05-03T06:21:20.682Z</time></trkpt><trkpt lat="39.8398483" lon="8.701025"><ele>80.0</ele><time>2026-05-03T06:21:22.681Z</time></trkpt><trkpt lat="39.8398233" lon="8.7011033"><ele>80.0</ele><time>2026-05-03T06:21:23.681Z</time></trkpt><trkpt lat="39.8397833" lon="8.7011983"><ele>80.0</ele><time>2026-05-03T06:21:24.681Z</time></trkpt><trkpt lat="39.8397233" lon="8.7012983"><ele>81.0</ele><time>2026-05-03T06:21:25.682Z</time></trkpt><trkpt lat="39.8396617" lon="8.7014283"><ele>82.0</ele><time>2026-05-03T06:21:26.681Z</time></trkpt><trkpt lat="39.8395967" lon="8.7015783"><ele>83.0</ele><time>2026-05-03T06:21:27.682Z</time></trkpt><trkpt lat="39.8395317" lon="8.7017233"><ele>84.0</ele><time>2026-05-03T06:21:28.682Z</time></trkpt><trkpt lat="39.8394633" lon="8.7018917"><ele>84.5</ele><time>2026-05-03T06:21:29.682Z</time></trkpt><trkpt lat="39.8393833" lon="8.7020517"><ele>85.0</ele><time>2026-05-03T06:21:30.681Z</time></trkpt><trkpt lat="39.8393067" lon="8.70222"><ele>85.5</ele><time>2026-05-03T06:21:31.682Z</time></trkpt><trkpt lat="39.83924" lon="8.702385"><ele>86.0</ele><time>2026-05-03T06:21:32.681Z</time></trkpt><trkpt lat="39.83917" lon="8.70254"><ele>86.19999999999999</ele><time>2026-05-03T06:21:33.682Z</time></trkpt><trkpt lat="39.839115" lon="8.70267"><ele>86.39999999999999</ele><time>2026-05-03T06:21:34.681Z</time></trkpt><trkpt lat="39.83907" lon="8.7027767"><ele>86.6</ele><time>2026-05-03T06:21:35.682Z</time></trkpt><trkpt lat="39.839025" lon="8.7028883"><ele>86.8</ele><time>2026-05-03T06:21:36.681Z</time></trkpt><trkpt lat="39.8389717" lon="8.7030183"><ele>87.0</ele><time>2026-05-03T06:21:37.681Z</time></trkpt><trkpt lat="39.8389117" lon="8.70316"><ele>87.5</ele><time>2026-05-03T06:21:38.681Z</time></trkpt><trkpt lat="39.8388483" lon="8.7033167"><ele>88.0</ele><time>2026-05-03T06:21:39.681Z</time></trkpt><trkpt lat="39.8387717" lon="8.7034733"><ele>88.5</ele><time>2026-05-03T06:21:40.681Z</time></trkpt><trkpt lat="39.8387017" lon="8.7036367"><ele>89.0</ele><time>2026-05-03T06:21:41.681Z</time></trkpt><trkpt lat="39.8386333" lon="8.703805"><ele>89.5</ele><time>2026-05-03T06:21:42.682Z</time></trkpt><trkpt lat="39.8385617" lon="8.70397"><ele>90.0</ele><time>2026-05-03T06:21:43.681Z</time></trkpt><trkpt lat="39.8384917" lon="8.7041267"><ele>90.5</ele><time>2026-05-03T06:21:44.681Z</time></trkpt><trkpt lat="39.8384333" lon="8.7042683"><ele>91.0</ele><time>2026-05-03T06:21:45.682Z</time></trkpt><trkpt lat="39.8383733" lon="8.7044233"><ele>91.25</ele><time>2026-05-03T06:21:46.681Z</time></trkpt><trkpt lat="39.83831" lon="8.704575"><ele>91.5</ele><time>2026-05-03T06:21:47.681Z</time></trkpt><trkpt lat="39.8382433" lon="8.7047333"><ele>91.75</ele><time>2026-05-03T06:21:48.681Z</time></trkpt><trkpt lat="39.838185" lon="8.7048817"><ele>92.0</ele><time>2026-05-03T06:21:49.681Z</time></trkpt><trkpt lat="39.83813" lon="8.705015"><ele>92.0</ele><time>2026-05-03T06:21:50.681Z</time></trkpt><trkpt lat="39.8380783" lon="8.70513"><ele>92.0</ele><time>2026-05-03T06:21:51.681Z</time></trkpt><trkpt lat="39.83802" lon="8.705255"><ele>92.0</ele><time>2026-05-03T06:21:52.681Z</time></trkpt><trkpt lat="39.8379683" lon="8.70536"><ele>92.0</ele><time>2026-05-03T06:21:53.681Z</time></trkpt><trkpt lat="39.8379183" lon="8.7054717"><ele>92.0</ele><time>2026-05-03T06:21:54.681Z</time></trkpt><trkpt lat="39.8378667" lon="8.7055867"><ele>92.25</ele><time>2026-05-03T06:21:55.681Z</time></trkpt><trkpt lat="39.8378217" lon="8.7057083"><ele>92.5</ele><time>2026-05-03T06:21:56.682Z</time></trkpt><trkpt lat="39.83777" lon="8.70584"><ele>92.75</ele><time>2026-05-03T06:21:57.681Z</time></trkpt><trkpt lat="39.8377117" lon="8.7059833"><ele>93.0</ele><time>2026-05-03T06:21:58.682Z</time></trkpt><trkpt lat="39.8376467" lon="8.7061267"><ele>94.2</ele><time>2026-05-03T06:21:59.681Z</time></trkpt><trkpt lat="39.837585" lon="8.7062533"><ele>95.4</ele><time>2026-05-03T06:22:00.681Z</time></trkpt><trkpt lat="39.8375367" lon="8.7063667"><ele>96.60000000000001</ele><time>2026-05-03T06:22:01.681Z</time></trkpt><trkpt lat="39.8374783" lon="8.7064967"><ele>97.80000000000001</ele><time>2026-05-03T06:22:02.682Z</time></trkpt><trkpt lat="39.8374233" lon="8.7066333"><ele>99.0</ele><time>2026-05-03T06:22:03.681Z</time></trkpt><trkpt lat="39.8373683" lon="8.7067767"><ele>99.5</ele><time>2026-05-03T06:22:04.682Z</time></trkpt><trkpt lat="39.83731" lon="8.7069283"><ele>100.0</ele><time>2026-05-03T06:22:05.682Z</time></trkpt><trkpt lat="39.8372533" lon="8.70707"><ele>100.5</ele><time>2026-05-03T06:22:06.681Z</time></trkpt><trkpt lat="39.83719" lon="8.7072067"><ele>101.0</ele><time>2026-05-03T06:22:07.681Z</time></trkpt><trkpt lat="39.837125" lon="8.70733"><ele>101.0</ele><time>2026-05-03T06:22:08.681Z</time></trkpt><trkpt lat="39.8370617" lon="8.7074517"><ele>101.0</ele><time>2026-05-03T06:22:09.681Z</time></trkpt><trkpt lat="39.837" lon="8.707585"><ele>101.0</ele><time>2026-05-03T06:22:10.681Z</time></trkpt><trkpt lat="39.836935" lon="8.70773"><ele>101.0</ele><time>2026-05-03T06:22:11.682Z</time></trkpt><trkpt lat="39.8368783" lon="8.7078733"><ele>101.25</ele><time>2026-05-03T06:22:12.682Z</time></trkpt><trkpt lat="39.83682" lon="8.7080217"><ele>101.5</ele><time>2026-05-03T06:22:13.681Z</time></trkpt><trkpt lat="39.83676" lon="8.7081617"><ele>101.75</ele><time>2026-05-03T06:22:14.681Z</time></trkpt><trkpt lat="39.8367" lon="8.70831"><ele>102.0</ele><time>2026-05-03T06:22:15.681Z</time></trkpt><trkpt lat="39.836625" lon="8.7084517"><ele>103.0</ele><time>2026-05-03T06:22:16.681Z</time></trkpt><trkpt lat="39.8365517" lon="8.7086"><ele>104.0</ele><time>2026-05-03T06:22:17.681Z</time></trkpt><trkpt lat="39.8364867" lon="8.7087433"><ele>105.0</ele><time>2026-05-03T06:22:18.681Z</time></trkpt><trkpt lat="39.836425" lon="8.708875"><ele>106.0</ele><time>2026-05-03T06:22:19.681Z</time></trkpt><trkpt lat="39.836375" lon="8.7090117"><ele>106.0</ele><time>2026-05-03T06:22:20.681Z</time></trkpt><trkpt lat="39.8363167" lon="8.7091383"><ele>106.0</ele><time>2026-05-03T06:22:21.682Z</time></trkpt><trkpt lat="39.836255" lon="8.709285"><ele>106.0</ele><time>2026-05-03T06:22:22.681Z</time></trkpt><trkpt lat="39.836195" lon="8.7094317"><ele>106.0</ele><time>2026-05-03T06:22:23.682Z</time></trkpt><trkpt lat="39.8361333" lon="8.7095817"><ele>106.25</ele><time>2026-05-03T06:22:24.681Z</time></trkpt><trkpt lat="39.8360767" lon="8.7097183"><ele>106.5</ele><time>2026-05-03T06:22:25.681Z</time></trkpt><trkpt lat="39.8360283" lon="8.70986"><ele>106.75</ele><time>2026-05-03T06:22:26.681Z</time></trkpt><trkpt lat="39.8359667" lon="8.71001"><ele>107.0</ele><time>2026-05-03T06:22:27.681Z</time></trkpt><trkpt lat="39.8359" lon="8.7101583"><ele>108.5</ele><time>2026-05-03T06:22:28.681Z</time></trkpt><trkpt lat="39.8358317" lon="8.7103033"><ele>110.0</ele><time>2026-05-03T06:22:29.681Z</time></trkpt><trkpt lat="39.8357633" lon="8.7104467"><ele>111.5</ele><time>2026-05-03T06:22:30.681Z</time></trkpt><trkpt lat="39.835685" lon="8.710595"><ele>113.0</ele><time>2026-05-03T06:22:31.681Z</time></trkpt><trkpt lat="39.835625" lon="8.7107483"><ele>113.0</ele><time>2026-05-03T06:22:32.682Z</time></trkpt><trkpt lat="39.8355667" lon="8.7109017"><ele>113.0</ele><time>2026-05-03T06:22:33.681Z</time></trkpt><trkpt lat="39.8355117" lon="8.711055"><ele>113.0</ele><time>2026-05-03T06:22:34.682Z</time></trkpt><trkpt lat="39.8354517" lon="8.7111983"><ele>113.0</ele><time>2026-05-03T06:22:35.682Z</time></trkpt><trkpt lat="39.8354033" lon="8.7113167"><ele>113.75</ele><time>2026-05-03T06:22:36.681Z</time></trkpt><trkpt lat="39.83535" lon="8.7114283"><ele>114.5</ele><time>2026-05-03T06:22:37.681Z</time></trkpt><trkpt lat="39.8352833" lon="8.7115517"><ele>115.25</ele><time>2026-05-03T06:22:38.682Z</time></trkpt><trkpt lat="39.8352233" lon="8.71169"><ele>116.0</ele><time>2026-05-03T06:22:39.682Z</time></trkpt><trkpt lat="39.8351633" lon="8.7118283"><ele>116.75</ele><time>2026-05-03T06:22:40.681Z</time></trkpt><trkpt lat="39.8350967" lon="8.71197"><ele>117.5</ele><time>2026-05-03T06:22:41.681Z</time></trkpt><trkpt lat="39.8350283" lon="8.7121133"><ele>118.25</ele><time>2026-05-03T06:22:42.681Z</time></trkpt><trkpt lat="39.834955" lon="8.7122617"><ele>119.0</ele><time>2026-05-03T06:22:43.682Z</time></trkpt><trkpt lat="39.8348883" lon="8.7124267"><ele>119.0</ele><time>2026-05-03T06:22:44.681Z</time></trkpt><trkpt lat="39.83482" lon="8.7125867"><ele>119.0</ele><time>2026-05-03T06:22:45.681Z</time></trkpt><trkpt lat="39.8347533" lon="8.71274"><ele>119.0</ele><time>2026-05-03T06:22:46.681Z</time></trkpt><trkpt lat="39.8346867" lon="8.7128867"><ele>119.0</ele><time>2026-05-03T06:22:47.681Z</time></trkpt><trkpt lat="39.8346167" lon="8.7130367"><ele>119.4</ele><time>2026-05-03T06:22:48.681Z</time></trkpt><trkpt lat="39.8345467" lon="8.7131733"><ele>119.80000000000001</ele><time>2026-05-03T06:22:49.681Z</time></trkpt><trkpt lat="39.8344833" lon="8.7132917"><ele>120.19999999999999</ele><time>2026-05-03T06:22:50.682Z</time></trkpt><trkpt lat="39.8344367" lon="8.713405"><ele>120.6</ele><time>2026-05-03T06:22:51.682Z</time></trkpt><trkpt lat="39.834405" lon="8.7134883"><ele>121.0</ele><time>2026-05-03T06:22:52.682Z</time></trkpt><trkpt lat="39.8343717" lon="8.7135783"><ele>121.6</ele><time>2026-05-03T06:22:53.682Z</time></trkpt><trkpt lat="39.83432" lon="8.7136717"><ele>122.19999999999999</ele><time>2026-05-03T06:22:54.682Z</time></trkpt><trkpt lat="39.8342583" lon="8.7137917"><ele>122.80000000000001</ele><time>2026-05-03T06:22:55.681Z</time></trkpt><trkpt lat="39.8342067" lon="8.7139133"><ele>123.4</ele><time>2026-05-03T06:22:56.682Z</time></trkpt><trkpt lat="39.834165" lon="8.714025"><ele>124.0</ele><time>2026-05-03T06:22:57.682Z</time></trkpt><trkpt lat="39.8341317" lon="8.71412"><ele>124.33333333333334</ele><time>2026-05-03T06:22:58.682Z</time></trkpt><trkpt lat="39.8341067" lon="8.714205"><ele>124.66666666666667</ele><time>2026-05-03T06:22:59.682Z</time></trkpt><trkpt lat="39.83409" lon="8.7142917"><ele>125.0</ele><time>2026-05-03T06:23:00.682Z</time></trkpt><trkpt lat="39.8341017" lon="8.7143867"><ele>125.33333333333334</ele><time>2026-05-03T06:23:01.682Z</time></trkpt><trkpt lat="39.8341167" lon="8.7144983"><ele>125.66666666666667</ele><time>2026-05-03T06:23:02.681Z</time></trkpt><trkpt lat="39.8341333" lon="8.7146367"><ele>126.0</ele><time>2026-05-03T06:23:03.682Z</time></trkpt><trkpt lat="39.8341333" lon="8.7147783"><ele>126.5</ele><time>2026-05-03T06:23:04.681Z</time></trkpt><trkpt lat="39.834135" lon="8.71492"><ele>127.0</ele><time>2026-05-03T06:23:05.681Z</time></trkpt><trkpt lat="39.8341383" lon="8.715065"><ele>127.5</ele><time>2026-05-03T06:23:06.681Z</time></trkpt><trkpt lat="39.8341467" lon="8.7152267"><ele>128.0</ele><time>2026-05-03T06:23:07.681Z</time></trkpt><trkpt lat="39.8341483" lon="8.71539"><ele>128.25</ele><time>2026-05-03T06:23:08.681Z</time></trkpt><trkpt lat="39.8341583" lon="8.715555"><ele>128.5</ele><time>2026-05-03T06:23:09.681Z</time></trkpt><trkpt lat="39.8341667" lon="8.7157283"><ele>128.75</ele><time>2026-05-03T06:23:10.681Z</time></trkpt><trkpt lat="39.8341717" lon="8.7158933"><ele>129.0</ele><time>2026-05-03T06:23:11.681Z</time></trkpt><trkpt lat="39.8341917" lon="8.7160333"><ele>129.4</ele><time>2026-05-03T06:23:12.681Z</time></trkpt><trkpt lat="39.8342033" lon="8.7161633"><ele>129.8</ele><time>2026-05-03T06:23:13.681Z</time></trkpt><trkpt lat="39.8342" lon="8.716305"><ele>130.2</ele><time>2026-05-03T06:23:14.681Z</time></trkpt><trkpt lat="39.8342033" lon="8.7164517"><ele>130.6</ele><time>2026-05-03T06:23:15.681Z</time></trkpt><trkpt lat="39.834215" lon="8.7166"><ele>131.0</ele><time>2026-05-03T06:23:16.681Z</time></trkpt><trkpt lat="39.8342183" lon="8.71675"><ele>131.5</ele><time>2026-05-03T06:23:17.681Z</time></trkpt><trkpt lat="39.8342283" lon="8.7169033"><ele>132.0</ele><time>2026-05-03T06:23:18.682Z</time></trkpt><trkpt lat="39.8342233" lon="8.7170667"><ele>132.5</ele><time>2026-05-03T06:23:19.681Z</time></trkpt><trkpt lat="39.8342317" lon="8.7172267"><ele>133.0</ele><time>2026-05-03T06:23:20.681Z</time></trkpt><trkpt lat="39.83423" lon="8.717385"><ele>133.0</ele><time>2026-05-03T06:23:21.681Z</time></trkpt><trkpt lat="39.8342283" lon="8.717535"><ele>133.0</ele><time>2026-05-03T06:23:22.681Z</time></trkpt><trkpt lat="39.834235" lon="8.7176783"><ele>133.0</ele><time>2026-05-03T06:23:23.682Z</time></trkpt><trkpt lat="39.8342383" lon="8.7178133"><ele>133.0</ele><time>2026-05-03T06:23:24.681Z</time></trkpt><trkpt lat="39.8342467" lon="8.7179617"><ele>133.0</ele><time>2026-05-03T06:23:25.682Z</time></trkpt><trkpt lat="39.8342533" lon="8.7181083"><ele>133.75</ele><time>2026-05-03T06:23:26.681Z</time></trkpt><trkpt lat="39.8342617" lon="8.7182667"><ele>134.5</ele><time>2026-05-03T06:23:27.681Z</time></trkpt><trkpt lat="39.834275" lon="8.71842"><ele>135.25</ele><time>2026-05-03T06:23:28.681Z</time></trkpt><trkpt lat="39.83428" lon="8.718585"><ele>136.0</ele><time>2026-05-03T06:23:29.682Z</time></trkpt><trkpt lat="39.8342833" lon="8.7187317"><ele>136.8</ele><time>2026-05-03T06:23:30.682Z</time></trkpt><trkpt lat="39.8342883" lon="8.71886"><ele>137.6</ele><time>2026-05-03T06:23:31.682Z</time></trkpt><trkpt lat="39.8342883" lon="8.71899"><ele>138.4</ele><time>2026-05-03T06:23:32.681Z</time></trkpt><trkpt lat="39.8343017" lon="8.719135"><ele>139.2</ele><time>2026-05-03T06:23:33.681Z</time></trkpt><trkpt lat="39.8343017" lon="8.7192833"><ele>140.0</ele><time>2026-05-03T06:23:34.681Z</time></trkpt><trkpt lat="39.8343117" lon="8.7194267"><ele>141.2</ele><time>2026-05-03T06:23:35.681Z</time></trkpt><trkpt lat="39.834325" lon="8.7195567"><ele>142.4</ele><time>2026-05-03T06:23:36.682Z</time></trkpt><trkpt lat="39.8343333" lon="8.7196783"><ele>143.6</ele><time>2026-05-03T06:23:37.682Z</time></trkpt><trkpt lat="39.834335" lon="8.7197883"><ele>144.8</ele><time>2026-05-03T06:23:38.682Z</time></trkpt><trkpt lat="39.8343433" lon="8.71991"><ele>146.0</ele><time>2026-05-03T06:23:39.682Z</time></trkpt><trkpt lat="39.8343483" lon="8.7200383"><ele>146.0</ele><time>2026-05-03T06:23:40.681Z</time></trkpt><trkpt lat="39.8343567" lon="8.720175"><ele>146.0</ele><time>2026-05-03T06:23:41.682Z</time></trkpt><trkpt lat="39.8343567" lon="8.72031"><ele>146.0</ele><time>2026-05-03T06:23:42.681Z</time></trkpt><trkpt lat="39.834355" lon="8.7204267"><ele>146.0</ele><time>2026-05-03T06:23:43.682Z</time></trkpt><trkpt lat="39.8343567" lon="8.7205267"><ele>146.0</ele><time>2026-05-03T06:23:44.682Z</time></trkpt><trkpt lat="39.8343567" lon="8.7206417"><ele>146.6</ele><time>2026-05-03T06:23:45.681Z</time></trkpt><trkpt lat="39.83436" lon="8.7207633"><ele>147.2</ele><time>2026-05-03T06:23:46.681Z</time></trkpt><trkpt lat="39.8343683" lon="8.7208833"><ele>147.8</ele><time>2026-05-03T06:23:47.681Z</time></trkpt><trkpt lat="39.8343783" lon="8.7210017"><ele>148.4</ele><time>2026-05-03T06:23:48.681Z</time></trkpt><trkpt lat="39.8343833" lon="8.7211133"><ele>149.0</ele><time>2026-05-03T06:23:49.682Z</time></trkpt><trkpt lat="39.83439" lon="8.7212283"><ele>150.0</ele><time>2026-05-03T06:23:50.681Z</time></trkpt><trkpt lat="39.8343967" lon="8.721345"><ele>151.0</ele><time>2026-05-03T06:23:51.681Z</time></trkpt><trkpt lat="39.8343933" lon="8.72148"><ele>152.0</ele><time>2026-05-03T06:23:52.681Z</time></trkpt><trkpt lat="39.8343867" lon="8.7216283"><ele>153.0</ele><time>2026-05-03T06:23:53.682Z</time></trkpt><trkpt lat="39.8343817" lon="8.7217733"><ele>154.0</ele><time>2026-05-03T06:23:54.682Z</time></trkpt><trkpt lat="39.8343817" lon="8.7219083"><ele>154.75</ele><time>2026-05-03T06:23:55.681Z</time></trkpt><trkpt lat="39.83439" lon="8.7220533"><ele>155.5</ele><time>2026-05-03T06:23:56.681Z</time></trkpt><trkpt lat="39.8344033" lon="8.7222017"><ele>156.25</ele><time>2026-05-03T06:23:57.681Z</time></trkpt><trkpt lat="39.8344233" lon="8.7223667"><ele>157.0</ele><time>2026-05-03T06:23:58.681Z</time></trkpt><trkpt lat="39.8344333" lon="8.7225283"><ele>157.0</ele><time>2026-05-03T06:23:59.681Z</time></trkpt><trkpt lat="39.83444" lon="8.722685"><ele>157.0</ele><time>2026-05-03T06:24:00.682Z</time></trkpt><trkpt lat="39.83444" lon="8.7228217"><ele>157.0</ele><time>2026-05-03T06:24:01.681Z</time></trkpt><trkpt lat="39.834445" lon="8.7229583"><ele>157.0</ele><time>2026-05-03T06:24:02.681Z</time></trkpt><trkpt lat="39.8344467" lon="8.7230917"><ele>157.0</ele><time>2026-05-03T06:24:03.681Z</time></trkpt><trkpt lat="39.8344467" lon="8.7231967"><ele>157.8</ele><time>2026-05-03T06:24:04.682Z</time></trkpt><trkpt lat="39.8344483" lon="8.7232967"><ele>158.6</ele><time>2026-05-03T06:24:05.681Z</time></trkpt><trkpt lat="39.8344433" lon="8.7234083"><ele>159.4</ele><time>2026-05-03T06:24:06.681Z</time></trkpt><trkpt lat="39.8344317" lon="8.723535"><ele>160.20000000000002</ele><time>2026-05-03T06:24:07.682Z</time></trkpt><trkpt lat="39.8344317" lon="8.7236767"><ele>161.0</ele><time>2026-05-03T06:24:08.681Z</time></trkpt><trkpt lat="39.8344433" lon="8.7238233"><ele>161.60000000000002</ele><time>2026-05-03T06:24:09.681Z</time></trkpt><trkpt lat="39.8344567" lon="8.72399"><ele>162.2</ele><time>2026-05-03T06:24:10.681Z</time></trkpt><trkpt lat="39.8344567" lon="8.7241367"><ele>162.8</ele><time>2026-05-03T06:24:11.681Z</time></trkpt><trkpt lat="39.8344583" lon="8.7242567"><ele>163.39999999999998</ele><time>2026-05-03T06:24:12.682Z</time></trkpt><trkpt lat="39.8344517" lon="8.72436"><ele>164.0</ele><time>2026-05-03T06:24:13.681Z</time></trkpt><trkpt lat="39.834445" lon="8.7244517"><ele>164.39999999999998</ele><time>2026-05-03T06:24:14.682Z</time></trkpt><trkpt lat="39.834405" lon="8.7245833"><ele>164.8</ele><time>2026-05-03T06:24:16.681Z</time></trkpt><trkpt lat="39.8343517" lon="8.724655"><ele>165.2</ele><time>2026-05-03T06:24:17.681Z</time></trkpt><trkpt lat="39.834285" lon="8.7247367"><ele>165.60000000000002</ele><time>2026-05-03T06:24:18.681Z</time></trkpt><trkpt lat="39.834205" lon="8.724855"><ele>166.0</ele><time>2026-05-03T06:24:19.681Z</time></trkpt><trkpt lat="39.8341167" lon="8.7249933"><ele>166.25</ele><time>2026-05-03T06:24:20.681Z</time></trkpt><trkpt lat="39.8340233" lon="8.72515"><ele>166.5</ele><time>2026-05-03T06:24:21.681Z</time></trkpt><trkpt lat="39.833935" lon="8.72529"><ele>166.75</ele><time>2026-05-03T06:24:22.681Z</time></trkpt><trkpt lat="39.8338667" lon="8.7254033"><ele>167.0</ele><time>2026-05-03T06:24:23.681Z</time></trkpt><trkpt lat="39.8338183" lon="8.7254833"><ele>167.8</ele><time>2026-05-03T06:24:24.681Z</time></trkpt><trkpt lat="39.833755" lon="8.7255717"><ele>168.6</ele><time>2026-05-03T06:24:26.682Z</time></trkpt><trkpt lat="39.8337017" lon="8.725685"><ele>169.4</ele><time>2026-05-03T06:24:31.681Z</time></trkpt><trkpt lat="39.833665" lon="8.7257683"><ele>170.20000000000002</ele><time>2026-05-03T06:24:32.681Z</time></trkpt><trkpt lat="39.8336233" lon="8.7258717"><ele>171.0</ele><time>2026-05-03T06:24:33.681Z</time></trkpt><trkpt lat="39.83358" lon="8.7260017"><ele>170.75</ele><time>2026-05-03T06:24:34.681Z</time></trkpt><trkpt lat="39.8335483" lon="8.7261433"><ele>170.5</ele><time>2026-05-03T06:24:35.681Z</time></trkpt><trkpt lat="39.8335133" lon="8.72628"><ele>170.25</ele><time>2026-05-03T06:24:36.681Z</time></trkpt><trkpt lat="39.8334833" lon="8.7264233"><ele>170.0</ele><time>2026-05-03T06:24:37.681Z</time></trkpt><trkpt lat="39.83345" lon="8.72658"><ele>170.0</ele><time>2026-05-03T06:24:38.681Z</time></trkpt><trkpt lat="39.8334333" lon="8.726745"><ele>170.0</ele><time>2026-05-03T06:24:39.681Z</time></trkpt><trkpt lat="39.8334317" lon="8.7269233"><ele>170.0</ele><time>2026-05-03T06:24:40.681Z</time></trkpt><trkpt lat="39.833435" lon="8.7271"><ele>170.0</ele><time>2026-05-03T06:24:41.682Z</time></trkpt><trkpt lat="39.83343" lon="8.72728"><ele>170.5</ele><time>2026-05-03T06:24:42.681Z</time></trkpt><trkpt lat="39.833405" lon="8.7274583"><ele>171.0</ele><time>2026-05-03T06:24:43.682Z</time></trkpt><trkpt lat="39.8333433" lon="8.72762"><ele>171.5</ele><time>2026-05-03T06:24:44.681Z</time></trkpt><trkpt lat="39.83328" lon="8.727795"><ele>172.0</ele><time>2026-05-03T06:24:45.682Z</time></trkpt><trkpt lat="39.8332067" lon="8.7279567"><ele>173.25</ele><time>2026-05-03T06:24:46.681Z</time></trkpt><trkpt lat="39.833135" lon="8.7281133"><ele>174.5</ele><time>2026-05-03T06:24:47.681Z</time></trkpt><trkpt lat="39.83307" lon="8.7282483"><ele>175.75</ele><time>2026-05-03T06:24:48.682Z</time></trkpt><trkpt lat="39.8330117" lon="8.7283617"><ele>177.0</ele><time>2026-05-03T06:24:49.681Z</time></trkpt><trkpt lat="39.832955" lon="8.7284833"><ele>178.6</ele><time>2026-05-03T06:24:50.681Z</time></trkpt><trkpt lat="39.8329" lon="8.72861"><ele>180.2</ele><time>2026-05-03T06:24:51.682Z</time></trkpt><trkpt lat="39.8328617" lon="8.7287433"><ele>181.8</ele><time>2026-05-03T06:24:52.682Z</time></trkpt><trkpt lat="39.8328583" lon="8.7288767"><ele>183.4</ele><time>2026-05-03T06:24:53.682Z</time></trkpt><trkpt lat="39.83288" lon="8.7290117"><ele>185.0</ele><time>2026-05-03T06:24:54.681Z</time></trkpt><trkpt lat="39.8329217" lon="8.72914"><ele>185.0</ele><time>2026-05-03T06:24:55.681Z</time></trkpt><trkpt lat="39.8329667" lon="8.7292583"><ele>185.0</ele><time>2026-05-03T06:24:56.681Z</time></trkpt><trkpt lat="39.8330233" lon="8.7293883"><ele>185.0</ele><time>2026-05-03T06:24:57.682Z</time></trkpt><trkpt lat="39.8330783" lon="8.7295483"><ele>185.0</ele><time>2026-05-03T06:24:58.681Z</time></trkpt><trkpt lat="39.8331117" lon="8.7297133"><ele>185.75</ele><time>2026-05-03T06:24:59.681Z</time></trkpt><trkpt lat="39.8331567" lon="8.72989"><ele>186.5</ele><time>2026-05-03T06:25:00.681Z</time></trkpt><trkpt lat="39.8332067" lon="8.7300767"><ele>187.25</ele><time>2026-05-03T06:25:01.681Z</time></trkpt><trkpt lat="39.8332583" lon="8.730255"><ele>188.0</ele><time>2026-05-03T06:25:02.682Z</time></trkpt><trkpt lat="39.8333083" lon="8.7304067"><ele>189.0</ele><time>2026-05-03T06:25:03.681Z</time></trkpt><trkpt lat="39.8333483" lon="8.7305633"><ele>190.0</ele><time>2026-05-03T06:25:04.682Z</time></trkpt><trkpt lat="39.83334" lon="8.7307267"><ele>191.0</ele><time>2026-05-03T06:25:05.681Z</time></trkpt><trkpt lat="39.8333183" lon="8.7309"><ele>192.0</ele><time>2026-05-03T06:25:06.681Z</time></trkpt><trkpt lat="39.8332883" lon="8.731075"><ele>192.33333333333331</ele><time>2026-05-03T06:25:07.681Z</time></trkpt><trkpt lat="39.83325" lon="8.73128"><ele>192.66666666666666</ele><time>2026-05-03T06:25:08.681Z</time></trkpt><trkpt lat="39.8332133" lon="8.7314967"><ele>193.0</ele><time>2026-05-03T06:25:09.681Z</time></trkpt><trkpt lat="39.8331833" lon="8.7317133"><ele>194.25</ele><time>2026-05-03T06:25:10.682Z</time></trkpt><trkpt lat="39.8331617" lon="8.731915"><ele>195.5</ele><time>2026-05-03T06:25:11.681Z</time></trkpt><trkpt lat="39.8331583" lon="8.73209"><ele>196.75</ele><time>2026-05-03T06:25:12.682Z</time></trkpt><trkpt lat="39.8331467" lon="8.732235"><ele>198.0</ele><time>2026-05-03T06:25:13.682Z</time></trkpt><trkpt lat="39.8331117" lon="8.73235"><ele>198.0</ele><time>2026-05-03T06:25:14.681Z</time></trkpt><trkpt lat="39.8330583" lon="8.7324767"><ele>198.0</ele><time>2026-05-03T06:25:15.681Z</time></trkpt><trkpt lat="39.8329817" lon="8.7326033"><ele>198.0</ele><time>2026-05-03T06:25:16.681Z</time></trkpt><trkpt lat="39.8329" lon="8.7327467"><ele>198.0</ele><time>2026-05-03T06:25:17.681Z</time></trkpt><trkpt lat="39.8328133" lon="8.73291"><ele>199.0</ele><time>2026-05-03T06:25:18.682Z</time></trkpt><trkpt lat="39.8327233" lon="8.73308"><ele>200.0</ele><time>2026-05-03T06:25:19.681Z</time></trkpt><trkpt lat="39.8326467" lon="8.733245"><ele>201.0</ele><time>2026-05-03T06:25:20.681Z</time></trkpt><trkpt lat="39.8325667" lon="8.7334117"><ele>202.0</ele><time>2026-05-03T06:25:21.681Z</time></trkpt><trkpt lat="39.832475" lon="8.7335567"><ele>203.0</ele><time>2026-05-03T06:25:22.681Z</time></trkpt><trkpt lat="39.8324017" lon="8.7337083"><ele>204.0</ele><time>2026-05-03T06:25:23.682Z</time></trkpt><trkpt lat="39.832325" lon="8.73386"><ele>205.0</ele><time>2026-05-03T06:25:24.682Z</time></trkpt><trkpt lat="39.8322517" lon="8.7340117"><ele>205.0</ele><time>2026-05-03T06:25:25.682Z</time></trkpt><trkpt lat="39.83219" lon="8.7341433"><ele>205.0</ele><time>2026-05-03T06:25:26.681Z</time></trkpt><trkpt lat="39.832135" lon="8.7342767"><ele>205.0</ele><time>2026-05-03T06:25:27.681Z</time></trkpt><trkpt lat="39.8320867" lon="8.734385"><ele>205.0</ele><time>2026-05-03T06:25:28.681Z</time></trkpt><trkpt lat="39.8320383" lon="8.7344933"><ele>205.0</ele><time>2026-05-03T06:25:29.682Z</time></trkpt><trkpt lat="39.83198" lon="8.734605"><ele>206.2</ele><time>2026-05-03T06:25:30.682Z</time></trkpt><trkpt lat="39.8319083" lon="8.7346917"><ele>207.4</ele><time>2026-05-03T06:25:31.682Z</time></trkpt><trkpt lat="39.831825" lon="8.7347667"><ele>208.60000000000002</ele><time>2026-05-03T06:25:32.681Z</time></trkpt><trkpt lat="39.8317383" lon="8.73484"><ele>209.8</ele><time>2026-05-03T06:25:33.682Z</time></trkpt><trkpt lat="39.8316533" lon="8.7349183"><ele>211.0</ele><time>2026-05-03T06:25:34.681Z</time></trkpt><trkpt lat="39.83157" lon="8.73501"><ele>211.0</ele><time>2026-05-03T06:25:35.681Z</time></trkpt><trkpt lat="39.831515" lon="8.735105"><ele>211.0</ele><time>2026-05-03T06:25:36.682Z</time></trkpt><trkpt lat="39.8314483" lon="8.7351933"><ele>211.0</ele><time>2026-05-03T06:25:37.681Z</time></trkpt><trkpt lat="39.8313783" lon="8.735285"><ele>211.0</ele><time>2026-05-03T06:25:38.681Z</time></trkpt><trkpt lat="39.8313217" lon="8.7353883"><ele>211.0</ele><time>2026-05-03T06:25:39.681Z</time></trkpt><trkpt lat="39.8312483" lon="8.7354783"><ele>212.8</ele><time>2026-05-03T06:25:40.682Z</time></trkpt><trkpt lat="39.8311733" lon="8.735555"><ele>214.60000000000002</ele><time>2026-05-03T06:25:41.682Z</time></trkpt><trkpt lat="39.831095" lon="8.735625"><ele>216.4</ele><time>2026-05-03T06:25:42.681Z</time></trkpt><trkpt lat="39.831025" lon="8.7356967"><ele>218.2</ele><time>2026-05-03T06:25:43.682Z</time></trkpt><trkpt lat="39.8309517" lon="8.735775"><ele>220.0</ele><time>2026-05-03T06:25:44.681Z</time></trkpt><trkpt lat="39.830875" lon="8.735865"><ele>220.0</ele><time>2026-05-03T06:25:45.681Z</time></trkpt><trkpt lat="39.8307967" lon="8.73597"><ele>220.0</ele><time>2026-05-03T06:25:46.681Z</time></trkpt><trkpt lat="39.8307217" lon="8.73608"><ele>220.0</ele><time>2026-05-03T06:25:47.681Z</time></trkpt><trkpt lat="39.83065" lon="8.7362"><ele>220.0</ele><time>2026-05-03T06:25:48.682Z</time></trkpt><trkpt lat="39.8305833" lon="8.73631"><ele>221.99999999999997</ele><time>2026-05-03T06:25:49.682Z</time></trkpt><trkpt lat="39.830525" lon="8.7363933"><ele>224.0</ele><time>2026-05-03T06:25:50.681Z</time></trkpt><trkpt lat="39.8304633" lon="8.7364483"><ele>226.0</ele><time>2026-05-03T06:25:51.682Z</time></trkpt><trkpt lat="39.83037" lon="8.73651"><ele>228.0</ele><time>2026-05-03T06:25:53.681Z</time></trkpt><trkpt lat="39.8303117" lon="8.7365417"><ele>229.99999999999997</ele><time>2026-05-03T06:25:55.682Z</time></trkpt><trkpt lat="39.8302467" lon="8.7365783"><ele>232.0</ele><time>2026-05-03T06:25:57.681Z</time></trkpt><trkpt lat="39.830155" lon="8.7366433"><ele>230.66666666666666</ele><time>2026-05-03T06:25:59.682Z</time></trkpt><trkpt lat="39.8300933" lon="8.7366733"><ele>229.33333333333331</ele><time>2026-05-03T06:26:00.681Z</time></trkpt><trkpt lat="39.830015" lon="8.7367033"><ele>228.0</ele><time>2026-05-03T06:26:01.681Z</time></trkpt><trkpt lat="39.829935" lon="8.7367367"><ele>226.66666666666669</ele><time>2026-05-03T06:26:02.681Z</time></trkpt><trkpt lat="39.829855" lon="8.7367733"><ele>225.33333333333334</ele><time>2026-05-03T06:26:03.681Z</time></trkpt><trkpt lat="39.82979" lon="8.7368183"><ele>224.0</ele><time>2026-05-03T06:26:04.681Z</time></trkpt><trkpt lat="39.8297267" lon="8.7368833"><ele>227.00000000000003</ele><time>2026-05-03T06:26:05.682Z</time></trkpt><trkpt lat="39.8296733" lon="8.736965"><ele>230.0</ele><time>2026-05-03T06:26:06.682Z</time></trkpt><trkpt lat="39.8296183" lon="8.7370483"><ele>233.0</ele><time>2026-05-03T06:26:07.681Z</time></trkpt><trkpt lat="39.82956" lon="8.7371267"><ele>236.0</ele><time>2026-05-03T06:26:08.681Z</time></trkpt><trkpt lat="39.8295017" lon="8.7372"><ele>239.00000000000003</ele><time>2026-05-03T06:26:09.682Z</time></trkpt><trkpt lat="39.8294367" lon="8.7372583"><ele>242.0</ele><time>2026-05-03T06:26:10.681Z</time></trkpt><trkpt lat="39.8293567" lon="8.7373117"><ele>240.33333333333334</ele><time>2026-05-03T06:26:11.681Z</time></trkpt><trkpt lat="39.8292783" lon="8.7373333"><ele>238.66666666666669</ele><time>2026-05-03T06:26:12.682Z</time></trkpt><trkpt lat="39.8292067" lon="8.737355"><ele>237.0</ele><time>2026-05-03T06:26:13.681Z</time></trkpt><trkpt lat="39.8291283" lon="8.73738"><ele>235.33333333333331</ele><time>2026-05-03T06:26:14.682Z</time></trkpt><trkpt lat="39.8290567" lon="8.7373883"><ele>233.66666666666666</ele><time>2026-05-03T06:26:15.681Z</time></trkpt><trkpt lat="39.8289817" lon="8.7373683"><ele>232.0</ele><time>2026-05-03T06:26:16.681Z</time></trkpt><trkpt lat="39.828905" lon="8.7373367"><ele>232.0</ele><time>2026-05-03T06:26:17.682Z</time></trkpt><trkpt lat="39.828825" lon="8.7372967"><ele>232.0</ele><time>2026-05-03T06:26:18.681Z</time></trkpt><trkpt lat="39.828735" lon="8.7372467"><ele>232.0</ele><time>2026-05-03T06:26:19.682Z</time></trkpt><trkpt lat="39.82864" lon="8.7371817"><ele>232.0</ele><time>2026-05-03T06:26:20.681Z</time></trkpt><trkpt lat="39.8285233" lon="8.7371017"><ele>232.0</ele><time>2026-05-03T06:26:21.682Z</time></trkpt><trkpt lat="39.828415" lon="8.73703"><ele>232.8</ele><time>2026-05-03T06:26:22.682Z</time></trkpt><trkpt lat="39.8283117" lon="8.736965"><ele>233.6</ele><time>2026-05-03T06:26:23.681Z</time></trkpt><trkpt lat="39.8282083" lon="8.7369067"><ele>234.40000000000003</ele><time>2026-05-03T06:26:24.681Z</time></trkpt><trkpt lat="39.8281117" lon="8.7368567"><ele>235.20000000000002</ele><time>2026-05-03T06:26:25.681Z</time></trkpt><trkpt lat="39.8280133" lon="8.7368333"><ele>236.0</ele><time>2026-05-03T06:26:26.681Z</time></trkpt><trkpt lat="39.8279083" lon="8.7368217"><ele>236.0</ele><time>2026-05-03T06:26:27.681Z</time></trkpt><trkpt lat="39.8278117" lon="8.73684"><ele>236.00000000000003</ele><time>2026-05-03T06:26:28.682Z</time></trkpt><trkpt lat="39.8277333" lon="8.7368967"><ele>236.00000000000003</ele><time>2026-05-03T06:26:29.681Z</time></trkpt><trkpt lat="39.8276467" lon="8.7369633"><ele>236.0</ele><time>2026-05-03T06:26:30.681Z</time></trkpt><trkpt lat="39.82754" lon="8.7370133"><ele>236.0</ele><time>2026-05-03T06:26:31.681Z</time></trkpt><trkpt lat="39.8274433" lon="8.7370867"><ele>238.20000000000002</ele><time>2026-05-03T06:26:32.682Z</time></trkpt><trkpt lat="39.82735" lon="8.7371517"><ele>240.40000000000003</ele><time>2026-05-03T06:26:33.681Z</time></trkpt><trkpt lat="39.8272517" lon="8.737225"><ele>242.6</ele><time>2026-05-03T06:26:34.681Z</time></trkpt><trkpt lat="39.8271617" lon="8.7372983"><ele>244.8</ele><time>2026-05-03T06:26:35.681Z</time></trkpt><trkpt lat="39.8270817" lon="8.737405"><ele>247.0</ele><time>2026-05-03T06:26:36.681Z</time></trkpt><trkpt lat="39.8269983" lon="8.7375167"><ele>247.0</ele><time>2026-05-03T06:26:37.681Z</time></trkpt><trkpt lat="39.8269167" lon="8.737635"><ele>247.0</ele><time>2026-05-03T06:26:38.681Z</time></trkpt><trkpt lat="39.82682" lon="8.7377267"><ele>247.0</ele><time>2026-05-03T06:26:39.681Z</time></trkpt><trkpt lat="39.8267333" lon="8.737815"><ele>247.0</ele><time>2026-05-03T06:26:40.681Z</time></trkpt><trkpt lat="39.8266383" lon="8.7378867"><ele>248.2</ele><time>2026-05-03T06:26:41.682Z</time></trkpt><trkpt lat="39.8265517" lon="8.7379533"><ele>249.39999999999998</ele><time>2026-05-03T06:26:42.681Z</time></trkpt><trkpt lat="39.8264617" lon="8.738"><ele>250.60000000000002</ele><time>2026-05-03T06:26:43.681Z</time></trkpt><trkpt lat="39.8263667" lon="8.738055"><ele>251.8</ele><time>2026-05-03T06:26:44.681Z</time></trkpt><trkpt lat="39.82627" lon="8.7380967"><ele>253.0</ele><time>2026-05-03T06:26:45.681Z</time></trkpt><trkpt lat="39.8261883" lon="8.7381433"><ele>253.0</ele><time>2026-05-03T06:26:46.681Z</time></trkpt><trkpt lat="39.8260967" lon="8.7381783"><ele>253.0</ele><time>2026-05-03T06:26:47.682Z</time></trkpt><trkpt lat="39.826005" lon="8.73821"><ele>253.0</ele><time>2026-05-03T06:26:48.682Z</time></trkpt><trkpt lat="39.8258983" lon="8.7382117"><ele>253.0</ele><time>2026-05-03T06:26:49.681Z</time></trkpt><trkpt lat="39.8257867" lon="8.7382183"><ele>253.0</ele><time>2026-05-03T06:26:50.681Z</time></trkpt><trkpt lat="39.8256783" lon="8.738225"><ele>251.8</ele><time>2026-05-03T06:26:51.682Z</time></trkpt><trkpt lat="39.8255767" lon="8.73824"><ele>250.60000000000002</ele><time>2026-05-03T06:26:52.682Z</time></trkpt><trkpt lat="39.8254817" lon="8.738255"><ele>249.39999999999998</ele><time>2026-05-03T06:26:53.681Z</time></trkpt><trkpt lat="39.825405" lon="8.7382783"><ele>248.2</ele><time>2026-05-03T06:26:54.681Z</time></trkpt><trkpt lat="39.8253533" lon="8.7383483"><ele>247.0</ele><time>2026-05-03T06:26:56.681Z</time></trkpt><trkpt lat="39.8253267" lon="8.7384767"><ele>250.6</ele><time>2026-05-03T06:26:58.681Z</time></trkpt><trkpt lat="39.8253133" lon="8.7386167"><ele>254.2</ele><time>2026-05-03T06:27:00.681Z</time></trkpt><trkpt lat="39.825315" lon="8.738765"><ele>257.8</ele><time>2026-05-03T06:27:02.681Z</time></trkpt><trkpt lat="39.8253083" lon="8.738885"><ele>261.4</ele><time>2026-05-03T06:27:04.681Z</time></trkpt><trkpt lat="39.8252433" lon="8.738975"><ele>265.0</ele><time>2026-05-03T06:27:19.681Z</time></trkpt><trkpt lat="39.825185" lon="8.739035"><ele>263.2</ele><time>2026-05-03T06:27:21.681Z</time></trkpt><trkpt lat="39.82511" lon="8.7391117"><ele>261.4</ele><time>2026-05-03T06:27:23.681Z</time></trkpt><trkpt lat="39.8250083" lon="8.7391867"><ele>259.6</ele><time>2026-05-03T06:27:25.681Z</time></trkpt><trkpt lat="39.8249017" lon="8.7392683"><ele>257.8</ele><time>2026-05-03T06:27:27.681Z</time></trkpt><trkpt lat="39.8248367" lon="8.739295"><ele>256.0</ele><time>2026-05-03T06:27:28.681Z</time></trkpt><trkpt lat="39.8247567" lon="8.7393267"><ele>256.0</ele><time>2026-05-03T06:27:29.681Z</time></trkpt><trkpt lat="39.8246717" lon="8.73936"><ele>256.0</ele><time>2026-05-03T06:27:30.681Z</time></trkpt><trkpt lat="39.8245717" lon="8.7393917"><ele>256.0</ele><time>2026-05-03T06:27:31.682Z</time></trkpt><trkpt lat="39.8244783" lon="8.7394367"><ele>256.0</ele><time>2026-05-03T06:27:32.682Z</time></trkpt><trkpt lat="39.8243817" lon="8.73947"><ele>256.0</ele><time>2026-05-03T06:27:33.681Z</time></trkpt><trkpt lat="39.8242833" lon="8.7394967"><ele>261.25</ele><time>2026-05-03T06:27:34.682Z</time></trkpt><trkpt lat="39.8241767" lon="8.7395233"><ele>266.5</ele><time>2026-05-03T06:27:35.682Z</time></trkpt><trkpt lat="39.8240683" lon="8.73956"><ele>271.75</ele><time>2026-05-03T06:27:36.681Z</time></trkpt><trkpt lat="39.8239417" lon="8.7395933"><ele>277.0</ele><time>2026-05-03T06:27:37.681Z</time></trkpt><trkpt lat="39.8238183" lon="8.739635"><ele>277.0</ele><time>2026-05-03T06:27:38.682Z</time></trkpt><trkpt lat="39.823705" lon="8.7396983"><ele>277.0</ele><time>2026-05-03T06:27:39.682Z</time></trkpt><trkpt lat="39.8235867" lon="8.7397717"><ele>277.0</ele><time>2026-05-03T06:27:40.681Z</time></trkpt><trkpt lat="39.8234833" lon="8.739855"><ele>277.0</ele><time>2026-05-03T06:27:41.681Z</time></trkpt><trkpt lat="39.8233817" lon="8.7399367"><ele>276.8</ele><time>2026-05-03T06:27:42.681Z</time></trkpt><trkpt lat="39.8232983" lon="8.7400317"><ele>276.6</ele><time>2026-05-03T06:27:43.682Z</time></trkpt><trkpt lat="39.8232333" lon="8.7401483"><ele>276.40000000000003</ele><time>2026-05-03T06:27:44.682Z</time></trkpt><trkpt lat="39.8231667" lon="8.7402633"><ele>276.2</ele><time>2026-05-03T06:27:45.682Z</time></trkpt><trkpt lat="39.8230933" lon="8.7403667"><ele>276.0</ele><time>2026-05-03T06:27:46.682Z</time></trkpt><trkpt lat="39.8229967" lon="8.7404667"><ele>281.25</ele><time>2026-05-03T06:27:47.682Z</time></trkpt><trkpt lat="39.8228883" lon="8.740555"><ele>286.5</ele><time>2026-05-03T06:27:48.681Z</time></trkpt><trkpt lat="39.82279" lon="8.7406517"><ele>291.75</ele><time>2026-05-03T06:27:49.682Z</time></trkpt><trkpt lat="39.82272" lon="8.74075"><ele>297.0</ele><time>2026-05-03T06:27:50.682Z</time></trkpt><trkpt lat="39.8226483" lon="8.7408683"><ele>295.25</ele><time>2026-05-03T06:27:51.681Z</time></trkpt><trkpt lat="39.8225717" lon="8.7409833"><ele>293.5</ele><time>2026-05-03T06:27:52.682Z</time></trkpt><trkpt lat="39.82248" lon="8.7410667"><ele>291.75</ele><time>2026-05-03T06:27:53.681Z</time></trkpt><trkpt lat="39.8223783" lon="8.741125"><ele>290.0</ele><time>2026-05-03T06:27:54.681Z</time></trkpt><trkpt lat="39.822265" lon="8.7411717"><ele>293.0</ele><time>2026-05-03T06:27:55.682Z</time></trkpt><trkpt lat="39.8221483" lon="8.7412067"><ele>296.0</ele><time>2026-05-03T06:27:56.682Z</time></trkpt><trkpt lat="39.82203" lon="8.7412467"><ele>299.0</ele><time>2026-05-03T06:27:57.682Z</time></trkpt><trkpt lat="39.821895" lon="8.7412833"><ele>302.0</ele><time>2026-05-03T06:27:58.682Z</time></trkpt><trkpt lat="39.82174" lon="8.74131"><ele>302.0</ele><time>2026-05-03T06:27:59.682Z</time></trkpt><trkpt lat="39.82159" lon="8.7413333"><ele>302.0</ele><time>2026-05-03T06:28:00.682Z</time></trkpt><trkpt lat="39.82144" lon="8.7413483"><ele>302.0</ele><time>2026-05-03T06:28:01.681Z</time></trkpt><trkpt lat="39.8212867" lon="8.7413633"><ele>302.0</ele><time>2026-05-03T06:28:02.681Z</time></trkpt><trkpt lat="39.821135" lon="8.7413667"><ele>302.0</ele><time>2026-05-03T06:28:03.681Z</time></trkpt><trkpt lat="39.8210133" lon="8.74135"><ele>302.0</ele><time>2026-05-03T06:28:04.681Z</time></trkpt><trkpt lat="39.8208917" lon="8.74131"><ele>302.0</ele><time>2026-05-03T06:28:05.681Z</time></trkpt><trkpt lat="39.8207833" lon="8.7412467"><ele>303.2</ele><time>2026-05-03T06:28:06.682Z</time></trkpt><trkpt lat="39.8206867" lon="8.741195"><ele>304.4</ele><time>2026-05-03T06:28:07.682Z</time></trkpt><trkpt lat="39.820585" lon="8.74116"><ele>305.6</ele><time>2026-05-03T06:28:08.682Z</time></trkpt><trkpt lat="39.8204817" lon="8.741175"><ele>306.8</ele><time>2026-05-03T06:28:09.681Z</time></trkpt><trkpt lat="39.8203917" lon="8.7412133"><ele>308.0</ele><time>2026-05-03T06:28:10.682Z</time></trkpt><trkpt lat="39.8203" lon="8.741255"><ele>308.0</ele><time>2026-05-03T06:28:11.682Z</time></trkpt><trkpt lat="39.8201933" lon="8.7413083"><ele>308.0</ele><time>2026-05-03T06:28:12.682Z</time></trkpt><trkpt lat="39.8200717" lon="8.741355"><ele>308.0</ele><time>2026-05-03T06:28:13.681Z</time></trkpt><trkpt lat="39.8199267" lon="8.7413867"><ele>308.0</ele><time>2026-05-03T06:28:14.681Z</time></trkpt><trkpt lat="39.8197767" lon="8.741445"><ele>309.25</ele><time>2026-05-03T06:28:15.682Z</time></trkpt><trkpt lat="39.8196367" lon="8.7415"><ele>310.5</ele><time>2026-05-03T06:28:16.681Z</time></trkpt><trkpt lat="39.819515" lon="8.74156"><ele>311.75</ele><time>2026-05-03T06:28:17.681Z</time></trkpt><trkpt lat="39.8194167" lon="8.7416383"><ele>313.0</ele><time>2026-05-03T06:28:18.681Z</time></trkpt><trkpt lat="39.8193217" lon="8.74173"><ele>315.8</ele><time>2026-05-03T06:28:19.681Z</time></trkpt><trkpt lat="39.8192217" lon="8.7418"><ele>318.6</ele><time>2026-05-03T06:28:20.681Z</time></trkpt><trkpt lat="39.8191417" lon="8.74187"><ele>321.40000000000003</ele><time>2026-05-03T06:28:21.681Z</time></trkpt><trkpt lat="39.81907" lon="8.74192"><ele>324.20000000000005</ele><time>2026-05-03T06:28:22.681Z</time></trkpt><trkpt lat="39.8189883" lon="8.74193"><ele>327.0</ele><time>2026-05-03T06:28:23.681Z</time></trkpt><trkpt lat="39.818895" lon="8.7419117"><ele>327.0</ele><time>2026-05-03T06:28:24.681Z</time></trkpt><trkpt lat="39.8187783" lon="8.7418717"><ele>327.0</ele><time>2026-05-03T06:28:25.681Z</time></trkpt><trkpt lat="39.8186483" lon="8.7418117"><ele>327.0</ele><time>2026-05-03T06:28:26.681Z</time></trkpt><trkpt lat="39.81852" lon="8.741745"><ele>327.0</ele><time>2026-05-03T06:28:27.681Z</time></trkpt><trkpt lat="39.8184083" lon="8.741665"><ele>330.25</ele><time>2026-05-03T06:28:28.682Z</time></trkpt><trkpt lat="39.8182983" lon="8.741555"><ele>333.5</ele><time>2026-05-03T06:28:29.681Z</time></trkpt><trkpt lat="39.8181867" lon="8.7414467"><ele>336.75</ele><time>2026-05-03T06:28:30.682Z</time></trkpt><trkpt lat="39.8180883" lon="8.74134"><ele>340.0</ele><time>2026-05-03T06:28:31.682Z</time></trkpt><trkpt lat="39.8179867" lon="8.7412317"><ele>340.0</ele><time>2026-05-03T06:28:32.681Z</time></trkpt><trkpt lat="39.8178833" lon="8.74113"><ele>340.0</ele><time>2026-05-03T06:28:33.681Z</time></trkpt><trkpt lat="39.81777" lon="8.741035"><ele>340.0</ele><time>2026-05-03T06:28:34.681Z</time></trkpt><trkpt lat="39.817665" lon="8.7409567"><ele>340.0</ele><time>2026-05-03T06:28:35.681Z</time></trkpt><trkpt lat="39.817565" lon="8.7409383"><ele>343.6</ele><time>2026-05-03T06:28:36.681Z</time></trkpt><trkpt lat="39.8174567" lon="8.7409433"><ele>347.2</ele><time>2026-05-03T06:28:37.681Z</time></trkpt><trkpt lat="39.8173617" lon="8.7409933"><ele>350.79999999999995</ele><time>2026-05-03T06:28:38.682Z</time></trkpt><trkpt lat="39.8172667" lon="8.7410667"><ele>354.4</ele><time>2026-05-03T06:28:39.681Z</time></trkpt><trkpt lat="39.8171583" lon="8.74114"><ele>358.0</ele><time>2026-05-03T06:28:40.682Z</time></trkpt><trkpt lat="39.8170367" lon="8.7412"><ele>358.0</ele><time>2026-05-03T06:28:41.682Z</time></trkpt><trkpt lat="39.8168967" lon="8.7412383"><ele>358.0</ele><time>2026-05-03T06:28:42.681Z</time></trkpt><trkpt lat="39.8167533" lon="8.7412583"><ele>358.0</ele><time>2026-05-03T06:28:43.681Z</time></trkpt><trkpt lat="39.8166133" lon="8.741275"><ele>358.0</ele><time>2026-05-03T06:28:44.681Z</time></trkpt><trkpt lat="39.8164983" lon="8.7412917"><ele>360.79999999999995</ele><time>2026-05-03T06:28:45.682Z</time></trkpt><trkpt lat="39.8163933" lon="8.7413133"><ele>363.6</ele><time>2026-05-03T06:28:46.682Z</time></trkpt><trkpt lat="39.8162967" lon="8.7413483"><ele>366.4</ele><time>2026-05-03T06:28:47.681Z</time></trkpt><trkpt lat="39.8161933" lon="8.7413717"><ele>369.20000000000005</ele><time>2026-05-03T06:28:48.682Z</time></trkpt><trkpt lat="39.81607" lon="8.7413933"><ele>372.0</ele><time>2026-05-03T06:28:49.682Z</time></trkpt><trkpt lat="39.8159317" lon="8.7414033"><ele>376.33333333333337</ele><time>2026-05-03T06:28:50.682Z</time></trkpt><trkpt lat="39.8157783" lon="8.7414067"><ele>380.6666666666667</ele><time>2026-05-03T06:28:51.682Z</time></trkpt><trkpt lat="39.8156233" lon="8.7414183"><ele>385.0</ele><time>2026-05-03T06:28:52.681Z</time></trkpt><trkpt lat="39.8154683" lon="8.7414117"><ele>385.0</ele><time>2026-05-03T06:28:53.681Z</time></trkpt><trkpt lat="39.8153233" lon="8.7413867"><ele>385.0</ele><time>2026-05-03T06:28:54.682Z</time></trkpt><trkpt lat="39.8151917" lon="8.741335"><ele>385.0</ele><time>2026-05-03T06:28:55.682Z</time></trkpt><trkpt lat="39.8150883" lon="8.741285"><ele>385.0</ele><time>2026-05-03T06:28:56.681Z</time></trkpt><trkpt lat="39.8149633" lon="8.7412783"><ele>387.5</ele><time>2026-05-03T06:28:57.681Z</time></trkpt><trkpt lat="39.814835" lon="8.7413067"><ele>390.0</ele><time>2026-05-03T06:28:58.681Z</time></trkpt><trkpt lat="39.8147033" lon="8.7413467"><ele>392.5</ele><time>2026-05-03T06:28:59.682Z</time></trkpt><trkpt lat="39.8145867" lon="8.7413983"><ele>395.0</ele><time>2026-05-03T06:29:00.681Z</time></trkpt><trkpt lat="39.8144883" lon="8.741445"><ele>394.99999999999994</ele><time>2026-05-03T06:29:01.681Z</time></trkpt><trkpt lat="39.8144167" lon="8.7415017"><ele>395.0</ele><time>2026-05-03T06:29:02.681Z</time></trkpt><trkpt lat="39.8143617" lon="8.741565"><ele>395.0</ele><time>2026-05-03T06:29:03.681Z</time></trkpt><trkpt lat="39.814325" lon="8.74165"><ele>395.0</ele><time>2026-05-03T06:29:04.681Z</time></trkpt><trkpt lat="39.8143233" lon="8.74177"><ele>394.99999999999994</ele><time>2026-05-03T06:29:05.682Z</time></trkpt><trkpt lat="39.8143267" lon="8.7418933"><ele>395.0</ele><time>2026-05-03T06:29:06.681Z</time></trkpt><trkpt lat="39.814315" lon="8.7420283"><ele>399.75</ele><time>2026-05-03T06:29:07.682Z</time></trkpt><trkpt lat="39.8142767" lon="8.7421583"><ele>404.5</ele><time>2026-05-03T06:29:08.681Z</time></trkpt><trkpt lat="39.8142167" lon="8.7423133"><ele>409.25</ele><time>2026-05-03T06:29:09.681Z</time></trkpt><trkpt lat="39.81412" lon="8.742475"><ele>414.0</ele><time>2026-05-03T06:29:10.681Z</time></trkpt><trkpt lat="39.81402" lon="8.74264"><ele>416.75</ele><time>2026-05-03T06:29:11.682Z</time></trkpt><trkpt lat="39.8139117" lon="8.7427833"><ele>419.5</ele><time>2026-05-03T06:29:12.681Z</time></trkpt><trkpt lat="39.8138067" lon="8.7428983"><ele>422.25</ele><time>2026-05-03T06:29:13.682Z</time></trkpt><trkpt lat="39.8137167" lon="8.7430317"><ele>425.0</ele><time>2026-05-03T06:29:14.681Z</time></trkpt><trkpt lat="39.8136517" lon="8.7431417"><ele>424.99999999999994</ele><time>2026-05-03T06:29:15.681Z</time></trkpt><trkpt lat="39.8136067" lon="8.7432317"><ele>425.0</ele><time>2026-05-03T06:29:16.681Z</time></trkpt><trkpt lat="39.81357" lon="8.7433267"><ele>425.0</ele><time>2026-05-03T06:29:17.681Z</time></trkpt><trkpt lat="39.8135367" lon="8.7434183"><ele>425.0</ele><time>2026-05-03T06:29:18.682Z</time></trkpt><trkpt lat="39.8135133" lon="8.7435217"><ele>424.99999999999994</ele><time>2026-05-03T06:29:19.681Z</time></trkpt><trkpt lat="39.8135117" lon="8.74365"><ele>425.0</ele><time>2026-05-03T06:29:20.681Z</time></trkpt><trkpt lat="39.8135383" lon="8.7438383"><ele>430.0</ele><time>2026-05-03T06:29:21.682Z</time></trkpt><trkpt lat="39.813545" lon="8.7440183"><ele>435.0</ele><time>2026-05-03T06:29:22.681Z</time></trkpt><trkpt lat="39.8135417" lon="8.7441917"><ele>440.0</ele><time>2026-05-03T06:29:23.681Z</time></trkpt><trkpt lat="39.8135283" lon="8.74437"><ele>445.0</ele><time>2026-05-03T06:29:24.681Z</time></trkpt><trkpt lat="39.813525" lon="8.74455"><ele>445.75</ele><time>2026-05-03T06:29:25.682Z</time></trkpt><trkpt lat="39.8135133" lon="8.7447133"><ele>446.5</ele><time>2026-05-03T06:29:26.682Z</time></trkpt><trkpt lat="39.8134783" lon="8.7448583"><ele>447.25</ele><time>2026-05-03T06:29:27.681Z</time></trkpt><trkpt lat="39.8134317" lon="8.74498"><ele>448.0</ele><time>2026-05-03T06:29:28.682Z</time></trkpt><trkpt lat="39.81337" lon="8.7451233"><ele>451.75</ele><time>2026-05-03T06:29:29.681Z</time></trkpt><trkpt lat="39.8132983" lon="8.7452683"><ele>455.5</ele><time>2026-05-03T06:29:30.681Z</time></trkpt><trkpt lat="39.813235" lon="8.74541"><ele>459.25</ele><time>2026-05-03T06:29:31.681Z</time></trkpt><trkpt lat="39.8131967" lon="8.7455583"><ele>463.0</ele><time>2026-05-03T06:29:32.681Z</time></trkpt><trkpt lat="39.8131617" lon="8.745675"><ele>463.00000000000006</ele><time>2026-05-03T06:29:33.681Z</time></trkpt><trkpt lat="39.8131333" lon="8.745775"><ele>463.0</ele><time>2026-05-03T06:29:34.681Z</time></trkpt><trkpt lat="39.8131067" lon="8.7458617"><ele>463.0</ele><time>2026-05-03T06:29:35.682Z</time></trkpt><trkpt lat="39.8130383" lon="8.7459483"><ele>463.0</ele><time>2026-05-03T06:29:37.681Z</time></trkpt><trkpt lat="39.8129933" lon="8.74601"><ele>463.00000000000006</ele><time>2026-05-03T06:29:39.681Z</time></trkpt><trkpt lat="39.8130233" lon="8.7460967"><ele>463.0</ele><time>2026-05-03T06:29:41.681Z</time></trkpt><trkpt lat="39.8130867" lon="8.74614"><ele>464.79999999999995</ele><time>2026-05-03T06:29:42.682Z</time></trkpt><trkpt lat="39.8131583" lon="8.7461683"><ele>466.59999999999997</ele><time>2026-05-03T06:29:43.682Z</time></trkpt><trkpt lat="39.8132267" lon="8.7461967"><ele>468.40000000000003</ele><time>2026-05-03T06:29:44.681Z</time></trkpt><trkpt lat="39.8133517" lon="8.7462683"><ele>470.20000000000005</ele><time>2026-05-03T06:29:46.681Z</time></trkpt><trkpt lat="39.81341" lon="8.7463383"><ele>472.0</ele><time>2026-05-03T06:29:47.682Z</time></trkpt><trkpt lat="39.8134317" lon="8.746455"><ele>472.0</ele><time>2026-05-03T06:29:48.682Z</time></trkpt><trkpt lat="39.813445" lon="8.7465733"><ele>472.00000000000006</ele><time>2026-05-03T06:29:49.681Z</time></trkpt><trkpt lat="39.8134717" lon="8.7467033"><ele>472.00000000000006</ele><time>2026-05-03T06:29:50.682Z</time></trkpt><trkpt lat="39.8135083" lon="8.7468333"><ele>472.0</ele><time>2026-05-03T06:29:51.682Z</time></trkpt><trkpt lat="39.81357" lon="8.7469467"><ele>472.0</ele><time>2026-05-03T06:29:52.681Z</time></trkpt><trkpt lat="39.8136383" lon="8.7470683"><ele>473.5</ele><time>2026-05-03T06:29:53.681Z</time></trkpt><trkpt lat="39.81371" lon="8.747205"><ele>475.0</ele><time>2026-05-03T06:29:54.682Z</time></trkpt><trkpt lat="39.8137767" lon="8.7473383"><ele>476.5</ele><time>2026-05-03T06:29:55.682Z</time></trkpt><trkpt lat="39.81384" lon="8.7474867"><ele>478.0</ele><time>2026-05-03T06:29:56.681Z</time></trkpt><trkpt lat="39.81389" lon="8.747635"><ele>479.2</ele><time>2026-05-03T06:29:57.682Z</time></trkpt><trkpt lat="39.8139217" lon="8.7477533"><ele>480.4</ele><time>2026-05-03T06:29:58.681Z</time></trkpt><trkpt lat="39.813925" lon="8.74788"><ele>481.59999999999997</ele><time>2026-05-03T06:29:59.682Z</time></trkpt><trkpt lat="39.8139067" lon="8.74799"><ele>482.79999999999995</ele><time>2026-05-03T06:30:00.681Z</time></trkpt><trkpt lat="39.8138767" lon="8.7481033"><ele>484.0</ele><time>2026-05-03T06:30:01.681Z</time></trkpt><trkpt lat="39.8138683" lon="8.748245"><ele>484.0</ele><time>2026-05-03T06:30:02.681Z</time></trkpt><trkpt lat="39.81387" lon="8.7483833"><ele>484.0</ele><time>2026-05-03T06:30:03.681Z</time></trkpt><trkpt lat="39.8138867" lon="8.74853"><ele>484.0</ele><time>2026-05-03T06:30:04.681Z</time></trkpt><trkpt lat="39.813885" lon="8.748665"><ele>484.0</ele><time>2026-05-03T06:30:05.681Z</time></trkpt><trkpt lat="39.81387" lon="8.7488"><ele>484.0</ele><time>2026-05-03T06:30:06.681Z</time></trkpt><trkpt lat="39.8138383" lon="8.7489333"><ele>485.83333333333337</ele><time>2026-05-03T06:30:07.681Z</time></trkpt><trkpt lat="39.8138217" lon="8.7490567"><ele>487.6666666666667</ele><time>2026-05-03T06:30:08.681Z</time></trkpt><trkpt lat="39.813825" lon="8.7491667"><ele>489.5</ele><time>2026-05-03T06:30:09.682Z</time></trkpt><trkpt lat="39.8138467" lon="8.74927"><ele>491.33333333333337</ele><time>2026-05-03T06:30:10.681Z</time></trkpt><trkpt lat="39.81385" lon="8.7493833"><ele>493.1666666666667</ele><time>2026-05-03T06:30:11.682Z</time></trkpt><trkpt lat="39.8138417" lon="8.7495083"><ele>495.0</ele><time>2026-05-03T06:30:12.681Z</time></trkpt><trkpt lat="39.8138067" lon="8.7496533"><ele>496.75</ele><time>2026-05-03T06:30:13.682Z</time></trkpt><trkpt lat="39.813745" lon="8.7497883"><ele>498.5</ele><time>2026-05-03T06:30:14.682Z</time></trkpt><trkpt lat="39.8136767" lon="8.7499033"><ele>500.25</ele><time>2026-05-03T06:30:15.682Z</time></trkpt><trkpt lat="39.8135833" lon="8.75001"><ele>502.0</ele><time>2026-05-03T06:30:16.681Z</time></trkpt><trkpt lat="39.813495" lon="8.7501133"><ele>507.0</ele><time>2026-05-03T06:30:17.681Z</time></trkpt><trkpt lat="39.813425" lon="8.7502283"><ele>512.0</ele><time>2026-05-03T06:30:18.681Z</time></trkpt><trkpt lat="39.8133433" lon="8.75034"><ele>517.0</ele><time>2026-05-03T06:30:19.682Z</time></trkpt><trkpt lat="39.81326" lon="8.7504467"><ele>522.0</ele><time>2026-05-03T06:30:20.681Z</time></trkpt><trkpt lat="39.8131867" lon="8.7505367"><ele>527.0</ele><time>2026-05-03T06:30:21.681Z</time></trkpt><trkpt lat="39.8130983" lon="8.7506467"><ele>527.0</ele><time>2026-05-03T06:30:22.682Z</time></trkpt><trkpt lat="39.8130067" lon="8.7507517"><ele>527.0</ele><time>2026-05-03T06:30:23.681Z</time></trkpt><trkpt lat="39.8129267" lon="8.75086"><ele>527.0</ele><time>2026-05-03T06:30:24.681Z</time></trkpt><trkpt lat="39.812835" lon="8.7509417"><ele>527.0</ele><time>2026-05-03T06:30:25.682Z</time></trkpt><trkpt lat="39.8127583" lon="8.75102"><ele>527.0</ele><time>2026-05-03T06:30:26.681Z</time></trkpt><trkpt lat="39.8126833" lon="8.751075"><ele>528.3333333333333</ele><time>2026-05-03T06:30:27.682Z</time></trkpt><trkpt lat="39.8126167" lon="8.7511133"><ele>529.6666666666666</ele><time>2026-05-03T06:30:28.682Z</time></trkpt><trkpt lat="39.8125533" lon="8.7511283"><ele>531.0</ele><time>2026-05-03T06:30:29.681Z</time></trkpt><trkpt lat="39.812485" lon="8.75111"><ele>532.3333333333334</ele><time>2026-05-03T06:30:30.681Z</time></trkpt><trkpt lat="39.8124083" lon="8.7510817"><ele>533.6666666666667</ele><time>2026-05-03T06:30:31.681Z</time></trkpt><trkpt lat="39.81229" lon="8.7510533"><ele>535.0</ele><time>2026-05-03T06:30:32.682Z</time></trkpt><trkpt lat="39.81217" lon="8.7510267"><ele>535.4</ele><time>2026-05-03T06:30:33.681Z</time></trkpt><trkpt lat="39.8120717" lon="8.751"><ele>535.8</ele><time>2026-05-03T06:30:34.681Z</time></trkpt><trkpt lat="39.8119817" lon="8.7509733"><ele>536.2</ele><time>2026-05-03T06:30:35.681Z</time></trkpt><trkpt lat="39.8118867" lon="8.750975"><ele>536.6</ele><time>2026-05-03T06:30:37.681Z</time></trkpt><trkpt lat="39.81182" lon="8.7509767"><ele>537.0</ele><time>2026-05-03T06:30:38.681Z</time></trkpt><trkpt lat="39.8117183" lon="8.75105"><ele>539.0</ele><time>2026-05-03T06:30:40.682Z</time></trkpt><trkpt lat="39.8116683" lon="8.7511067"><ele>541.0</ele><time>2026-05-03T06:30:41.681Z</time></trkpt><trkpt lat="39.811625" lon="8.7512083"><ele>543.0</ele><time>2026-05-03T06:30:42.682Z</time></trkpt><trkpt lat="39.81158" lon="8.75133"><ele>545.0</ele><time>2026-05-03T06:30:43.682Z</time></trkpt><trkpt lat="39.811535" lon="8.75151"><ele>547.0</ele><time>2026-05-03T06:30:44.681Z</time></trkpt><trkpt lat="39.8114783" lon="8.75168"><ele>547.0</ele><time>2026-05-03T06:30:45.681Z</time></trkpt><trkpt lat="39.8114133" lon="8.7518267"><ele>547.0</ele><time>2026-05-03T06:30:46.681Z</time></trkpt><trkpt lat="39.8113283" lon="8.7519633"><ele>547.0</ele><time>2026-05-03T06:30:47.681Z</time></trkpt><trkpt lat="39.81123" lon="8.7521067"><ele>547.0</ele><time>2026-05-03T06:30:48.682Z</time></trkpt><trkpt lat="39.811135" lon="8.752265"><ele>548.25</ele><time>2026-05-03T06:30:49.682Z</time></trkpt><trkpt lat="39.8110533" lon="8.752425"><ele>549.5</ele><time>2026-05-03T06:30:50.682Z</time></trkpt><trkpt lat="39.8109867" lon="8.7525883"><ele>550.75</ele><time>2026-05-03T06:30:51.682Z</time></trkpt><trkpt lat="39.8109417" lon="8.7527433"><ele>552.0</ele><time>2026-05-03T06:30:52.681Z</time></trkpt><trkpt lat="39.8109067" lon="8.752905"><ele>555.0</ele><time>2026-05-03T06:30:53.681Z</time></trkpt><trkpt lat="39.8108933" lon="8.7530617"><ele>558.0</ele><time>2026-05-03T06:30:54.681Z</time></trkpt><trkpt lat="39.8109083" lon="8.753215"><ele>561.0</ele><time>2026-05-03T06:30:55.681Z</time></trkpt><trkpt lat="39.8109617" lon="8.7533683"><ele>564.0</ele><time>2026-05-03T06:30:56.681Z</time></trkpt><trkpt lat="39.811015" lon="8.753515"><ele>571.0</ele><time>2026-05-03T06:30:57.681Z</time></trkpt><trkpt lat="39.811185" lon="8.7536533"><ele>578.0</ele><time>2026-05-03T06:30:58.682Z</time></trkpt><trkpt lat="39.8113133" lon="8.7537783"><ele>585.0</ele><time>2026-05-03T06:30:59.682Z</time></trkpt><trkpt lat="39.811425" lon="8.7538983"><ele>585.0</ele><time>2026-05-03T06:31:00.681Z</time></trkpt><trkpt lat="39.81152" lon="8.75401"><ele>585.0</ele><time>2026-05-03T06:31:01.681Z</time></trkpt><trkpt lat="39.8115967" lon="8.754145"><ele>585.0</ele><time>2026-05-03T06:31:02.681Z</time></trkpt><trkpt lat="39.8116667" lon="8.7542667"><ele>585.0</ele><time>2026-05-03T06:31:03.681Z</time></trkpt><trkpt lat="39.81173" lon="8.7543883"><ele>587.25</ele><time>2026-05-03T06:31:04.681Z</time></trkpt><trkpt lat="39.811805" lon="8.7545017"><ele>589.5</ele><time>2026-05-03T06:31:05.682Z</time></trkpt><trkpt lat="39.8119017" lon="8.7546167"><ele>591.75</ele><time>2026-05-03T06:31:06.681Z</time></trkpt><trkpt lat="39.8120033" lon="8.754745"><ele>594.0</ele><time>2026-05-03T06:31:07.681Z</time></trkpt><trkpt lat="39.812105" lon="8.75489"><ele>594.0</ele><time>2026-05-03T06:31:08.682Z</time></trkpt><trkpt lat="39.8122" lon="8.7550317"><ele>594.0</ele><time>2026-05-03T06:31:09.681Z</time></trkpt><trkpt lat="39.812295" lon="8.7551633"><ele>594.0</ele><time>2026-05-03T06:31:10.681Z</time></trkpt><trkpt lat="39.8123867" lon="8.75528"><ele>594.0</ele><time>2026-05-03T06:31:11.681Z</time></trkpt><trkpt lat="39.81247" lon="8.7553733"><ele>599.2</ele><time>2026-05-03T06:31:12.682Z</time></trkpt><trkpt lat="39.812545" lon="8.75546"><ele>604.4</ele><time>2026-05-03T06:31:13.681Z</time></trkpt><trkpt lat="39.8126183" lon="8.75552"><ele>609.6</ele><time>2026-05-03T06:31:14.681Z</time></trkpt><trkpt lat="39.8127083" lon="8.755555"><ele>614.8</ele><time>2026-05-03T06:31:15.681Z</time></trkpt><trkpt lat="39.8128133" lon="8.75558"><ele>620.0</ele><time>2026-05-03T06:31:16.681Z</time></trkpt><trkpt lat="39.8129217" lon="8.7556067"><ele>620.0</ele><time>2026-05-03T06:31:17.681Z</time></trkpt><trkpt lat="39.8130383" lon="8.7556283"><ele>620.0</ele><time>2026-05-03T06:31:18.682Z</time></trkpt><trkpt lat="39.8131633" lon="8.7556467"><ele>620.0</ele><time>2026-05-03T06:31:19.681Z</time></trkpt><trkpt lat="39.81329" lon="8.75565"><ele>620.0</ele><time>2026-05-03T06:31:20.681Z</time></trkpt><trkpt lat="39.8134233" lon="8.75564"><ele>621.25</ele><time>2026-05-03T06:31:21.681Z</time></trkpt><trkpt lat="39.8135567" lon="8.7556433"><ele>622.5</ele><time>2026-05-03T06:31:22.681Z</time></trkpt><trkpt lat="39.8137117" lon="8.7556583"><ele>623.75</ele><time>2026-05-03T06:31:23.681Z</time></trkpt><trkpt lat="39.813865" lon="8.7556733"><ele>625.0</ele><time>2026-05-03T06:31:24.681Z</time></trkpt><trkpt lat="39.8139867" lon="8.7556933"><ele>625.0</ele><time>2026-05-03T06:31:25.681Z</time></trkpt><trkpt lat="39.8140967" lon="8.7557183"><ele>625.0</ele><time>2026-05-03T06:31:26.681Z</time></trkpt><trkpt lat="39.8141917" lon="8.7557633"><ele>625.0</ele><time>2026-05-03T06:31:27.681Z</time></trkpt><trkpt lat="39.814275" lon="8.7558333"><ele>625.0</ele><time>2026-05-03T06:31:28.681Z</time></trkpt><trkpt lat="39.8143367" lon="8.7559267"><ele>625.0</ele><time>2026-05-03T06:31:29.681Z</time></trkpt><trkpt lat="39.8143733" lon="8.7560567"><ele>624.3333333333334</ele><time>2026-05-03T06:31:30.681Z</time></trkpt><trkpt lat="39.814375" lon="8.7561783"><ele>623.6666666666667</ele><time>2026-05-03T06:31:31.681Z</time></trkpt><trkpt lat="39.8143533" lon="8.7563117"><ele>623.0</ele><time>2026-05-03T06:31:32.682Z</time></trkpt><trkpt lat="39.81434" lon="8.75643"><ele>622.3333333333334</ele><time>2026-05-03T06:31:33.681Z</time></trkpt><trkpt lat="39.8143433" lon="8.756545"><ele>621.6666666666666</ele><time>2026-05-03T06:31:34.681Z</time></trkpt><trkpt lat="39.8143583" lon="8.75663"><ele>621.0</ele><time>2026-05-03T06:31:35.681Z</time></trkpt><trkpt lat="39.8143783" lon="8.7567167"><ele>621.0</ele><time>2026-05-03T06:31:36.681Z</time></trkpt><trkpt lat="39.814405" lon="8.756795"><ele>621.0</ele><time>2026-05-03T06:31:37.681Z</time></trkpt><trkpt lat="39.814435" lon="8.7568817"><ele>621.0</ele><time>2026-05-03T06:31:38.681Z</time></trkpt><trkpt lat="39.8144583" lon="8.7569683"><ele>621.0</ele><time>2026-05-03T06:31:39.682Z</time></trkpt><trkpt lat="39.8144817" lon="8.7571083"><ele>621.0</ele><time>2026-05-03T06:31:41.681Z</time></trkpt><trkpt lat="39.8144867" lon="8.7572083"><ele>621.0</ele><time>2026-05-03T06:31:43.681Z</time></trkpt><trkpt lat="39.8144483" lon="8.7572917"><ele>623.0</ele><time>2026-05-03T06:31:45.681Z</time></trkpt><trkpt lat="39.8143983" lon="8.75741"><ele>625.0</ele><time>2026-05-03T06:31:47.681Z</time></trkpt><trkpt lat="39.8143583" lon="8.7575317"><ele>627.0</ele><time>2026-05-03T06:31:49.682Z</time></trkpt><trkpt lat="39.8143333" lon="8.7576333"><ele>629.0</ele><time>2026-05-03T06:31:51.681Z</time></trkpt><trkpt lat="39.8143283" lon="8.7577417"><ele>631.0</ele><time>2026-05-03T06:31:54.682Z</time></trkpt><trkpt lat="39.814335" lon="8.757845"><ele>631.0</ele><time>2026-05-03T06:31:58.681Z</time></trkpt><trkpt lat="39.81441" lon="8.75783"><ele>631.0</ele><time>2026-05-03T06:32:01.681Z</time></trkpt><trkpt lat="39.814475" lon="8.757715"><ele>631.0</ele><time>2026-05-03T06:32:03.681Z</time></trkpt><trkpt lat="39.8145517" lon="8.7576233"><ele>631.0</ele><time>2026-05-03T06:32:05.681Z</time></trkpt><trkpt lat="39.8146117" lon="8.75758"><ele>631.0</ele><time>2026-05-03T06:32:07.681Z</time></trkpt><trkpt lat="39.8146867" lon="8.7575117"><ele>631.0</ele><time>2026-05-03T06:32:09.681Z</time></trkpt><trkpt lat="39.8148033" lon="8.7575083"><ele>631.0</ele><time>2026-05-03T06:32:11.682Z</time></trkpt><trkpt lat="39.814865" lon="8.75754"><ele>631.0</ele><time>2026-05-03T06:32:12.681Z</time></trkpt><trkpt lat="39.8149267" lon="8.7575917"><ele>631.0</ele><time>2026-05-03T06:32:13.681Z</time></trkpt><trkpt lat="39.8149717" lon="8.757655"><ele>631.0</ele><time>2026-05-03T06:32:14.681Z</time></trkpt><trkpt lat="39.8150117" lon="8.7577533"><ele>631.0</ele><time>2026-05-03T06:32:15.682Z</time></trkpt><trkpt lat="39.8150533" lon="8.7578583"><ele>629.75</ele><time>2026-05-03T06:32:16.681Z</time></trkpt><trkpt lat="39.8151117" lon="8.757965"><ele>628.5</ele><time>2026-05-03T06:32:17.682Z</time></trkpt><trkpt lat="39.815185" lon="8.7580717"><ele>627.25</ele><time>2026-05-03T06:32:18.682Z</time></trkpt><trkpt lat="39.8152867" lon="8.7581633"><ele>626.0</ele><time>2026-05-03T06:32:19.682Z</time></trkpt><trkpt lat="39.8154033" lon="8.7582583"><ele>626.0</ele><time>2026-05-03T06:32:20.681Z</time></trkpt><trkpt lat="39.81549" lon="8.7583083"><ele>626.0</ele><time>2026-05-03T06:32:21.682Z</time></trkpt><trkpt lat="39.81558" lon="8.75834"><ele>626.0</ele><time>2026-05-03T06:32:22.682Z</time></trkpt><trkpt lat="39.81566" lon="8.7583533"><ele>626.0</ele><time>2026-05-03T06:32:23.681Z</time></trkpt><trkpt lat="39.8157433" lon="8.758355"><ele>626.0</ele><time>2026-05-03T06:32:24.681Z</time></trkpt><trkpt lat="39.81582" lon="8.7583333"><ele>626.0</ele><time>2026-05-03T06:32:25.681Z</time></trkpt><trkpt lat="39.815925" lon="8.7582483"><ele>622.5</ele><time>2026-05-03T06:32:27.681Z</time></trkpt><trkpt lat="39.8160133" lon="8.7581683"><ele>619.0</ele><time>2026-05-03T06:32:29.682Z</time></trkpt><trkpt lat="39.816155" lon="8.7581917"><ele>615.5</ele><time>2026-05-03T06:32:31.681Z</time></trkpt><trkpt lat="39.8162783" lon="8.75825"><ele>612.0</ele><time>2026-05-03T06:32:32.681Z</time></trkpt><trkpt lat="39.8163967" lon="8.7583"><ele>612.0</ele><time>2026-05-03T06:32:33.681Z</time></trkpt><trkpt lat="39.8165117" lon="8.758335"><ele>612.0</ele><time>2026-05-03T06:32:34.681Z</time></trkpt><trkpt lat="39.8166033" lon="8.758375"><ele>612.0</ele><time>2026-05-03T06:32:35.681Z</time></trkpt><trkpt lat="39.81669" lon="8.7583833"><ele>612.0</ele><time>2026-05-03T06:32:36.681Z</time></trkpt><trkpt lat="39.8167633" lon="8.7584"><ele>612.0</ele><time>2026-05-03T06:32:37.681Z</time></trkpt><trkpt lat="39.816835" lon="8.7584033"><ele>612.0</ele><time>2026-05-03T06:32:38.682Z</time></trkpt><trkpt lat="39.8169017" lon="8.75838"><ele>609.3333333333334</ele><time>2026-05-03T06:32:39.682Z</time></trkpt><trkpt lat="39.8169833" lon="8.7583533"><ele>606.6666666666666</ele><time>2026-05-03T06:32:40.681Z</time></trkpt><trkpt lat="39.817065" lon="8.7583267"><ele>604.0</ele><time>2026-05-03T06:32:41.681Z</time></trkpt><trkpt lat="39.8171267" lon="8.758225"><ele>601.3333333333333</ele><time>2026-05-03T06:32:43.681Z</time></trkpt><trkpt lat="39.8171817" lon="8.7581183"><ele>598.6666666666666</ele><time>2026-05-03T06:32:45.682Z</time></trkpt><trkpt lat="39.8171717" lon="8.7580283"><ele>596.0</ele><time>2026-05-03T06:32:48.682Z</time></trkpt><trkpt lat="39.817165" lon="8.7579283"><ele>596.0</ele><time>2026-05-03T06:32:51.681Z</time></trkpt><trkpt lat="39.8172183" lon="8.7577833"><ele>596.0</ele><time>2026-05-03T06:32:53.682Z</time></trkpt><trkpt lat="39.8172667" lon="8.7576917"><ele>596.0</ele><time>2026-05-03T06:32:54.681Z</time></trkpt><trkpt lat="39.81733" lon="8.7575933"><ele>596.0</ele><time>2026-05-03T06:32:55.681Z</time></trkpt><trkpt lat="39.817395" lon="8.7575083"><ele>596.0</ele><time>2026-05-03T06:32:56.681Z</time></trkpt><trkpt lat="39.817455" lon="8.75743"><ele>594.5</ele><time>2026-05-03T06:32:57.682Z</time></trkpt><trkpt lat="39.8175117" lon="8.7573817"><ele>593.0</ele><time>2026-05-03T06:32:58.682Z</time></trkpt><trkpt lat="39.8175633" lon="8.7573033"><ele>591.5</ele><time>2026-05-03T06:32:59.681Z</time></trkpt><trkpt lat="39.8175917" lon="8.757215"><ele>590.0</ele><time>2026-05-03T06:33:00.681Z</time></trkpt><trkpt lat="39.8176183" lon="8.7571117"><ele>588.5</ele><time>2026-05-03T06:33:01.681Z</time></trkpt><trkpt lat="39.817655" lon="8.7569967"><ele>587.0</ele><time>2026-05-03T06:33:02.681Z</time></trkpt><trkpt lat="39.8177067" lon="8.75687"><ele>584.0</ele><time>2026-05-03T06:33:03.682Z</time></trkpt><trkpt lat="39.8177567" lon="8.75675"><ele>581.0</ele><time>2026-05-03T06:33:04.681Z</time></trkpt><trkpt lat="39.8178133" lon="8.75665"><ele>578.0</ele><time>2026-05-03T06:33:05.681Z</time></trkpt><trkpt lat="39.81787" lon="8.7565767"><ele>575.0</ele><time>2026-05-03T06:33:06.682Z</time></trkpt><trkpt lat="39.8179217" lon="8.75652"><ele>572.0</ele><time>2026-05-03T06:33:07.682Z</time></trkpt><trkpt lat="39.8179817" lon="8.756495"><ele>569.0</ele><time>2026-05-03T06:33:08.681Z</time></trkpt><trkpt lat="39.8180517" lon="8.7564917"><ele>569.0000000000001</ele><time>2026-05-03T06:33:09.682Z</time></trkpt><trkpt lat="39.818115" lon="8.7565083"><ele>569.0</ele><time>2026-05-03T06:33:10.681Z</time></trkpt><trkpt lat="39.818185" lon="8.756545"><ele>569.0</ele><time>2026-05-03T06:33:11.681Z</time></trkpt><trkpt lat="39.8182367" lon="8.756595"><ele>569.0</ele><time>2026-05-03T06:33:12.681Z</time></trkpt><trkpt lat="39.8182883" lon="8.7566683"><ele>569.0</ele><time>2026-05-03T06:33:13.681Z</time></trkpt><trkpt lat="39.8183583" lon="8.7567533"><ele>569.0000000000001</ele><time>2026-05-03T06:33:14.681Z</time></trkpt><trkpt lat="39.818395" lon="8.7568317"><ele>569.0</ele><time>2026-05-03T06:33:15.681Z</time></trkpt><trkpt lat="39.8184283" lon="8.75691"><ele>570.1666666666666</ele><time>2026-05-03T06:33:16.682Z</time></trkpt><trkpt lat="39.81845" lon="8.7570033"><ele>571.3333333333333</ele><time>2026-05-03T06:33:17.682Z</time></trkpt><trkpt lat="39.8184983" lon="8.75711"><ele>572.5</ele><time>2026-05-03T06:33:18.682Z</time></trkpt><trkpt lat="39.8185533" lon="8.757205"><ele>573.6666666666666</ele><time>2026-05-03T06:33:19.681Z</time></trkpt><trkpt lat="39.8185967" lon="8.7572817"><ele>574.8333333333334</ele><time>2026-05-03T06:33:20.681Z</time></trkpt><trkpt lat="39.8186417" lon="8.7573683"><ele>576.0</ele><time>2026-05-03T06:33:21.682Z</time></trkpt><trkpt lat="39.818675" lon="8.7574533"><ele>572.2857142857143</ele><time>2026-05-03T06:33:22.681Z</time></trkpt><trkpt lat="39.8186883" lon="8.7575567"><ele>568.5714285714286</ele><time>2026-05-03T06:33:23.681Z</time></trkpt><trkpt lat="39.818695" lon="8.75765"><ele>564.8571428571429</ele><time>2026-05-03T06:33:24.681Z</time></trkpt><trkpt lat="39.8187067" lon="8.7577433"><ele>561.1428571428571</ele><time>2026-05-03T06:33:25.682Z</time></trkpt><trkpt lat="39.81871" lon="8.75784"><ele>557.4285714285714</ele><time>2026-05-03T06:33:26.681Z</time></trkpt><trkpt lat="39.81872" lon="8.7579333"><ele>553.7142857142858</ele><time>2026-05-03T06:33:27.681Z</time></trkpt><trkpt lat="39.81873" lon="8.7580317"><ele>550.0</ele><time>2026-05-03T06:33:28.681Z</time></trkpt><trkpt lat="39.8187433" lon="8.7581283"><ele>550.0</ele><time>2026-05-03T06:33:29.681Z</time></trkpt><trkpt lat="39.8187633" lon="8.7582517"><ele>550.0</ele><time>2026-05-03T06:33:30.681Z</time></trkpt><trkpt lat="39.8187733" lon="8.7583783"><ele>550.0</ele><time>2026-05-03T06:33:31.682Z</time></trkpt><trkpt lat="39.8187617" lon="8.7584967"><ele>550.0</ele><time>2026-05-03T06:33:32.681Z</time></trkpt><trkpt lat="39.8187433" lon="8.7586033"><ele>550.0</ele><time>2026-05-03T06:33:33.682Z</time></trkpt><trkpt lat="39.8187233" lon="8.7587067"><ele>551.1666666666667</ele><time>2026-05-03T06:33:34.681Z</time></trkpt><trkpt lat="39.8186633" lon="8.758735"><ele>552.3333333333334</ele><time>2026-05-03T06:33:35.681Z</time></trkpt><trkpt lat="39.818585" lon="8.7588467"><ele>553.5</ele><time>2026-05-03T06:33:37.681Z</time></trkpt><trkpt lat="39.81853" lon="8.7589067"><ele>554.6666666666666</ele><time>2026-05-03T06:33:38.681Z</time></trkpt><trkpt lat="39.8184617" lon="8.7589667"><ele>555.8333333333333</ele><time>2026-05-03T06:33:39.681Z</time></trkpt><trkpt lat="39.8183983" lon="8.7590367"><ele>557.0</ele><time>2026-05-03T06:33:40.681Z</time></trkpt><trkpt lat="39.8183367" lon="8.7591217"><ele>559.4</ele><time>2026-05-03T06:33:41.681Z</time></trkpt><trkpt lat="39.8182967" lon="8.7592117"><ele>561.8000000000001</ele><time>2026-05-03T06:33:42.681Z</time></trkpt><trkpt lat="39.8182583" lon="8.75932"><ele>564.2</ele><time>2026-05-03T06:33:43.681Z</time></trkpt><trkpt lat="39.818225" lon="8.75943"><ele>566.6</ele><time>2026-05-03T06:33:44.682Z</time></trkpt><trkpt lat="39.8181867" lon="8.7595533"><ele>569.0</ele><time>2026-05-03T06:33:45.682Z</time></trkpt><trkpt lat="39.8181617" lon="8.759675"><ele>569.0</ele><time>2026-05-03T06:33:46.681Z</time></trkpt><trkpt lat="39.81814" lon="8.7598017"><ele>569.0</ele><time>2026-05-03T06:33:47.681Z</time></trkpt><trkpt lat="39.8181117" lon="8.7599283"><ele>569.0</ele><time>2026-05-03T06:33:48.681Z</time></trkpt><trkpt lat="39.818095" lon="8.7600533"><ele>569.0</ele><time>2026-05-03T06:33:49.681Z</time></trkpt><trkpt lat="39.81807" lon="8.76018"><ele>569.0</ele><time>2026-05-03T06:33:50.682Z</time></trkpt><trkpt lat="39.81804" lon="8.7602967"><ele>570.4</ele><time>2026-05-03T06:33:51.682Z</time></trkpt><trkpt lat="39.8180067" lon="8.7604167"><ele>571.8</ele><time>2026-05-03T06:33:52.681Z</time></trkpt><trkpt lat="39.8179767" lon="8.7605533"><ele>573.2</ele><time>2026-05-03T06:33:53.681Z</time></trkpt><trkpt lat="39.8179317" lon="8.7606633"><ele>574.6</ele><time>2026-05-03T06:33:54.682Z</time></trkpt><trkpt lat="39.81789" lon="8.7607617"><ele>576.0</ele><time>2026-05-03T06:33:55.681Z</time></trkpt><trkpt lat="39.817855" lon="8.7608683"><ele>576.0</ele><time>2026-05-03T06:33:56.681Z</time></trkpt><trkpt lat="39.8178167" lon="8.7609667"><ele>576.0</ele><time>2026-05-03T06:33:57.681Z</time></trkpt><trkpt lat="39.8177733" lon="8.7610717"><ele>576.0</ele><time>2026-05-03T06:33:58.682Z</time></trkpt><trkpt lat="39.81773" lon="8.761185"><ele>576.0</ele><time>2026-05-03T06:33:59.682Z</time></trkpt><trkpt lat="39.8176833" lon="8.7613117"><ele>576.0</ele><time>2026-05-03T06:34:00.682Z</time></trkpt><trkpt lat="39.817655" lon="8.7614483"><ele>580.1666666666666</ele><time>2026-05-03T06:34:01.681Z</time></trkpt><trkpt lat="39.8176317" lon="8.7615517"><ele>584.3333333333334</ele><time>2026-05-03T06:34:02.682Z</time></trkpt><trkpt lat="39.8176033" lon="8.7616567"><ele>588.5</ele><time>2026-05-03T06:34:03.681Z</time></trkpt><trkpt lat="39.8175767" lon="8.761765"><ele>592.6666666666667</ele><time>2026-05-03T06:34:04.682Z</time></trkpt><trkpt lat="39.8175717" lon="8.7618733"><ele>596.8333333333334</ele><time>2026-05-03T06:34:05.681Z</time></trkpt><trkpt lat="39.8175783" lon="8.7619867"><ele>601.0</ele><time>2026-05-03T06:34:06.682Z</time></trkpt><trkpt lat="39.817585" lon="8.7620733"><ele>601.8333333333334</ele><time>2026-05-03T06:34:07.682Z</time></trkpt><trkpt lat="39.81761" lon="8.7621783"><ele>602.6666666666667</ele><time>2026-05-03T06:34:08.681Z</time></trkpt><trkpt lat="39.8176183" lon="8.7622717"><ele>603.5</ele><time>2026-05-03T06:34:09.682Z</time></trkpt><trkpt lat="39.817615" lon="8.7623733"><ele>604.3333333333334</ele><time>2026-05-03T06:34:10.681Z</time></trkpt><trkpt lat="39.8176117" lon="8.762465"><ele>605.1666666666666</ele><time>2026-05-03T06:34:11.681Z</time></trkpt><trkpt lat="39.8175833" lon="8.7626067"><ele>606.0</ele><time>2026-05-03T06:34:13.681Z</time></trkpt><trkpt lat="39.817565" lon="8.76269"><ele>605.7142857142858</ele><time>2026-05-03T06:34:14.681Z</time></trkpt><trkpt lat="39.8175633" lon="8.762775"><ele>605.4285714285714</ele><time>2026-05-03T06:34:15.681Z</time></trkpt><trkpt lat="39.817555" lon="8.76286"><ele>605.1428571428571</ele><time>2026-05-03T06:34:16.681Z</time></trkpt><trkpt lat="39.8175467" lon="8.762945"><ele>604.8571428571429</ele><time>2026-05-03T06:34:17.681Z</time></trkpt><trkpt lat="39.8175317" lon="8.7630317"><ele>604.5714285714286</ele><time>2026-05-03T06:34:18.681Z</time></trkpt><trkpt lat="39.8175033" lon="8.7631267"><ele>604.2857142857143</ele><time>2026-05-03T06:34:19.681Z</time></trkpt><trkpt lat="39.8174867" lon="8.76322"><ele>604.0</ele><time>2026-05-03T06:34:20.681Z</time></trkpt><trkpt lat="39.81746" lon="8.76332"><ele>604.0</ele><time>2026-05-03T06:34:21.682Z</time></trkpt><trkpt lat="39.817425" lon="8.76342"><ele>604.0</ele><time>2026-05-03T06:34:22.681Z</time></trkpt><trkpt lat="39.8173767" lon="8.7635217"><ele>604.0</ele><time>2026-05-03T06:34:23.681Z</time></trkpt><trkpt lat="39.8173167" lon="8.763605"><ele>604.0</ele><time>2026-05-03T06:34:24.682Z</time></trkpt><trkpt lat="39.8172483" lon="8.7636917"><ele>604.0</ele><time>2026-05-03T06:34:25.681Z</time></trkpt><trkpt lat="39.8171817" lon="8.763785"><ele>603.0</ele><time>2026-05-03T06:34:26.681Z</time></trkpt><trkpt lat="39.8171" lon="8.7638767"><ele>602.0</ele><time>2026-05-03T06:34:27.682Z</time></trkpt><trkpt lat="39.81699" lon="8.7639617"><ele>601.0</ele><time>2026-05-03T06:34:28.682Z</time></trkpt><trkpt lat="39.8168983" lon="8.764065"><ele>600.0</ele><time>2026-05-03T06:34:29.681Z</time></trkpt><trkpt lat="39.8168083" lon="8.764165"><ele>603.25</ele><time>2026-05-03T06:34:30.681Z</time></trkpt><trkpt lat="39.8167267" lon="8.764275"><ele>606.5</ele><time>2026-05-03T06:34:31.681Z</time></trkpt><trkpt lat="39.8166433" lon="8.7643617"><ele>609.75</ele><time>2026-05-03T06:34:32.681Z</time></trkpt><trkpt lat="39.8165483" lon="8.7644517"><ele>613.0</ele><time>2026-05-03T06:34:33.681Z</time></trkpt><trkpt lat="39.8164533" lon="8.764525"><ele>613.0</ele><time>2026-05-03T06:34:34.682Z</time></trkpt><trkpt lat="39.8163667" lon="8.7646"><ele>613.0</ele><time>2026-05-03T06:34:35.681Z</time></trkpt><trkpt lat="39.8163067" lon="8.7646817"><ele>613.0</ele><time>2026-05-03T06:34:36.682Z</time></trkpt><trkpt lat="39.81624" lon="8.764785"><ele>613.0</ele><time>2026-05-03T06:34:37.681Z</time></trkpt><trkpt lat="39.8161733" lon="8.7648883"><ele>613.0</ele><time>2026-05-03T06:34:38.681Z</time></trkpt><trkpt lat="39.81612" lon="8.7650117"><ele>613.0</ele><time>2026-05-03T06:34:39.681Z</time></trkpt><trkpt lat="39.816055" lon="8.7651483"><ele>613.0</ele><time>2026-05-03T06:34:40.682Z</time></trkpt><trkpt lat="39.8160017" lon="8.7652817"><ele>613.0</ele><time>2026-05-03T06:34:41.681Z</time></trkpt><trkpt lat="39.815955" lon="8.7654133"><ele>613.0</ele><time>2026-05-03T06:34:42.682Z</time></trkpt><trkpt lat="39.8159083" lon="8.7655317"><ele>615.5</ele><time>2026-05-03T06:34:43.681Z</time></trkpt><trkpt lat="39.8158667" lon="8.7656667"><ele>618.0</ele><time>2026-05-03T06:34:44.682Z</time></trkpt><trkpt lat="39.8158167" lon="8.7657967"><ele>620.5</ele><time>2026-05-03T06:34:45.682Z</time></trkpt><trkpt lat="39.8157717" lon="8.7659333"><ele>623.0</ele><time>2026-05-03T06:34:46.681Z</time></trkpt><trkpt lat="39.8157167" lon="8.766065"><ele>623.0</ele><time>2026-05-03T06:34:47.682Z</time></trkpt><trkpt lat="39.8156567" lon="8.7661983"><ele>623.0</ele><time>2026-05-03T06:34:48.681Z</time></trkpt><trkpt lat="39.8156267" lon="8.7663183"><ele>623.0</ele><time>2026-05-03T06:34:49.682Z</time></trkpt><trkpt lat="39.8156367" lon="8.7664667"><ele>623.0</ele><time>2026-05-03T06:34:50.681Z</time></trkpt><trkpt lat="39.81567" lon="8.7666667"><ele>622.3333333333333</ele><time>2026-05-03T06:34:51.681Z</time></trkpt><trkpt lat="39.8157233" lon="8.7668917"><ele>621.6666666666666</ele><time>2026-05-03T06:34:52.681Z</time></trkpt><trkpt lat="39.8157767" lon="8.7671283"><ele>621.0</ele><time>2026-05-03T06:34:53.681Z</time></trkpt><trkpt lat="39.8158233" lon="8.7673533"><ele>621.0</ele><time>2026-05-03T06:34:54.681Z</time></trkpt><trkpt lat="39.8158717" lon="8.7675683"><ele>621.0</ele><time>2026-05-03T06:34:55.681Z</time></trkpt><trkpt lat="39.815925" lon="8.7677517"><ele>621.0</ele><time>2026-05-03T06:34:56.681Z</time></trkpt><trkpt lat="39.815985" lon="8.7679367"><ele>617.75</ele><time>2026-05-03T06:34:57.681Z</time></trkpt><trkpt lat="39.8160467" lon="8.7681233"><ele>614.5</ele><time>2026-05-03T06:34:58.681Z</time></trkpt><trkpt lat="39.8161117" lon="8.7682967"><ele>611.25</ele><time>2026-05-03T06:34:59.681Z</time></trkpt><trkpt lat="39.81617" lon="8.7684617"><ele>608.0</ele><time>2026-05-03T06:35:00.681Z</time></trkpt><trkpt lat="39.8162033" lon="8.7686317"><ele>607.25</ele><time>2026-05-03T06:35:01.681Z</time></trkpt><trkpt lat="39.8162217" lon="8.7688017"><ele>606.5</ele><time>2026-05-03T06:35:02.682Z</time></trkpt><trkpt lat="39.8162233" lon="8.7689667"><ele>605.75</ele><time>2026-05-03T06:35:03.682Z</time></trkpt><trkpt lat="39.8162183" lon="8.769145"><ele>605.0</ele><time>2026-05-03T06:35:04.681Z</time></trkpt><trkpt lat="39.8162083" lon="8.76935"><ele>603.6666666666666</ele><time>2026-05-03T06:35:05.681Z</time></trkpt><trkpt lat="39.81621" lon="8.7695567"><ele>602.3333333333334</ele><time>2026-05-03T06:35:06.681Z</time></trkpt><trkpt lat="39.8162033" lon="8.769765"><ele>601.0</ele><time>2026-05-03T06:35:07.681Z</time></trkpt><trkpt lat="39.8161883" lon="8.7699883"><ele>599.3333333333334</ele><time>2026-05-03T06:35:08.681Z</time></trkpt><trkpt lat="39.81618" lon="8.77021"><ele>597.6666666666666</ele><time>2026-05-03T06:35:09.681Z</time></trkpt><trkpt lat="39.816175" lon="8.7704467"><ele>596.0</ele><time>2026-05-03T06:35:10.681Z</time></trkpt><trkpt lat="39.8161717" lon="8.7706917"><ele>596.0</ele><time>2026-05-03T06:35:11.682Z</time></trkpt><trkpt lat="39.816175" lon="8.770945"><ele>596.0</ele><time>2026-05-03T06:35:12.681Z</time></trkpt><trkpt lat="39.816175" lon="8.7711767"><ele>596.0</ele><time>2026-05-03T06:35:13.681Z</time></trkpt><trkpt lat="39.81618" lon="8.7714433"><ele>594.3333333333333</ele><time>2026-05-03T06:35:14.682Z</time></trkpt><trkpt lat="39.8161783" lon="8.7716983"><ele>592.6666666666666</ele><time>2026-05-03T06:35:15.681Z</time></trkpt><trkpt lat="39.8161767" lon="8.7719417"><ele>591.0</ele><time>2026-05-03T06:35:16.681Z</time></trkpt><trkpt lat="39.8161733" lon="8.7721833"><ele>589.0</ele><time>2026-05-03T06:35:17.682Z</time></trkpt><trkpt lat="39.8161583" lon="8.7724283"><ele>587.0</ele><time>2026-05-03T06:35:18.682Z</time></trkpt><trkpt lat="39.8161433" lon="8.7726583"><ele>585.0</ele><time>2026-05-03T06:35:19.681Z</time></trkpt><trkpt lat="39.8161383" lon="8.7728833"><ele>583.3333333333334</ele><time>2026-05-03T06:35:20.681Z</time></trkpt><trkpt lat="39.8161433" lon="8.7730933"><ele>581.6666666666667</ele><time>2026-05-03T06:35:21.682Z</time></trkpt><trkpt lat="39.8161433" lon="8.7733033"><ele>580.0</ele><time>2026-05-03T06:35:22.681Z</time></trkpt><trkpt lat="39.81614" lon="8.773515"><ele>578.6666666666667</ele><time>2026-05-03T06:35:23.682Z</time></trkpt><trkpt lat="39.8161483" lon="8.7737367"><ele>577.3333333333334</ele><time>2026-05-03T06:35:24.681Z</time></trkpt><trkpt lat="39.8161533" lon="8.7739567"><ele>576.0</ele><time>2026-05-03T06:35:25.681Z</time></trkpt><trkpt lat="39.81615" lon="8.7741933"><ele>574.0</ele><time>2026-05-03T06:35:26.682Z</time></trkpt><trkpt lat="39.8161517" lon="8.77442"><ele>572.0</ele><time>2026-05-03T06:35:27.681Z</time></trkpt><trkpt lat="39.8161417" lon="8.774635"><ele>570.0</ele><time>2026-05-03T06:35:28.682Z</time></trkpt><trkpt lat="39.8161317" lon="8.774865"><ele>570.0</ele><time>2026-05-03T06:35:29.681Z</time></trkpt><trkpt lat="39.8161333" lon="8.7750817"><ele>570.0</ele><time>2026-05-03T06:35:30.681Z</time></trkpt><trkpt lat="39.816145" lon="8.7752683"><ele>570.0</ele><time>2026-05-03T06:35:31.681Z</time></trkpt><trkpt lat="39.8161617" lon="8.7754633"><ele>568.0</ele><time>2026-05-03T06:35:32.682Z</time></trkpt><trkpt lat="39.8161617" lon="8.7756617"><ele>566.0</ele><time>2026-05-03T06:35:33.681Z</time></trkpt><trkpt lat="39.816145" lon="8.7758683"><ele>564.0</ele><time>2026-05-03T06:35:34.682Z</time></trkpt><trkpt lat="39.816135" lon="8.77607"><ele>561.3333333333334</ele><time>2026-05-03T06:35:35.681Z</time></trkpt><trkpt lat="39.8161467" lon="8.7762633"><ele>558.6666666666667</ele><time>2026-05-03T06:35:36.681Z</time></trkpt><trkpt lat="39.816155" lon="8.7764633"><ele>556.0</ele><time>2026-05-03T06:35:37.681Z</time></trkpt><trkpt lat="39.8161583" lon="8.77666"><ele>553.75</ele><time>2026-05-03T06:35:38.682Z</time></trkpt><trkpt lat="39.8161517" lon="8.7768717"><ele>551.5</ele><time>2026-05-03T06:35:39.681Z</time></trkpt><trkpt lat="39.8161517" lon="8.7770633"><ele>549.25</ele><time>2026-05-03T06:35:40.681Z</time></trkpt><trkpt lat="39.81614" lon="8.77723"><ele>547.0</ele><time>2026-05-03T06:35:41.681Z</time></trkpt><trkpt lat="39.816135" lon="8.7773567"><ele>547.0</ele><time>2026-05-03T06:35:42.681Z</time></trkpt><trkpt lat="39.8161417" lon="8.77744"><ele>547.0</ele><time>2026-05-03T06:35:43.681Z</time></trkpt><trkpt lat="39.8161933" lon="8.7775217"><ele>547.0</ele><time>2026-05-03T06:35:45.682Z</time></trkpt><trkpt lat="39.8162633" lon="8.7774783"><ele>547.0</ele><time>2026-05-03T06:35:46.682Z</time></trkpt><trkpt lat="39.8163417" lon="8.7774167"><ele>547.0</ele><time>2026-05-03T06:35:47.681Z</time></trkpt><trkpt lat="39.8164267" lon="8.77734"><ele>547.0</ele><time>2026-05-03T06:35:48.681Z</time></trkpt><trkpt lat="39.81654" lon="8.777235"><ele>547.0</ele><time>2026-05-03T06:35:49.682Z</time></trkpt><trkpt lat="39.81667" lon="8.7771233"><ele>547.0</ele><time>2026-05-03T06:35:50.682Z</time></trkpt><trkpt lat="39.81681" lon="8.7770083"><ele>547.0</ele><time>2026-05-03T06:35:51.681Z</time></trkpt><trkpt lat="39.816945" lon="8.77689"><ele>548.3333333333334</ele><time>2026-05-03T06:35:52.682Z</time></trkpt><trkpt lat="39.817075" lon="8.776785"><ele>549.6666666666666</ele><time>2026-05-03T06:35:53.681Z</time></trkpt><trkpt lat="39.81721" lon="8.7767"><ele>551.0</ele><time>2026-05-03T06:35:54.682Z</time></trkpt><trkpt lat="39.8173533" lon="8.776615"><ele>551.0</ele><time>2026-05-03T06:35:55.682Z</time></trkpt><trkpt lat="39.8175" lon="8.77653"><ele>551.0</ele><time>2026-05-03T06:35:56.682Z</time></trkpt><trkpt lat="39.81764" lon="8.776435"><ele>551.0</ele><time>2026-05-03T06:35:57.682Z</time></trkpt><trkpt lat="39.8177733" lon="8.7763317"><ele>550.3333333333333</ele><time>2026-05-03T06:35:58.682Z</time></trkpt><trkpt lat="39.8179167" lon="8.7762117"><ele>549.6666666666666</ele><time>2026-05-03T06:35:59.681Z</time></trkpt><trkpt lat="39.8180683" lon="8.7760967"><ele>549.0</ele><time>2026-05-03T06:36:00.681Z</time></trkpt><trkpt lat="39.81822" lon="8.775995"><ele>550.6666666666666</ele><time>2026-05-03T06:36:01.681Z</time></trkpt><trkpt lat="39.8183733" lon="8.77588"><ele>552.3333333333333</ele><time>2026-05-03T06:36:02.682Z</time></trkpt><trkpt lat="39.818525" lon="8.7757717"><ele>554.0</ele><time>2026-05-03T06:36:03.681Z</time></trkpt><trkpt lat="39.81867" lon="8.7756783"><ele>554.0</ele><time>2026-05-03T06:36:04.682Z</time></trkpt><trkpt lat="39.8188033" lon="8.7756117"><ele>554.0</ele><time>2026-05-03T06:36:05.681Z</time></trkpt><trkpt lat="39.81893" lon="8.7755533"><ele>554.0</ele><time>2026-05-03T06:36:06.681Z</time></trkpt><trkpt lat="39.8190633" lon="8.7755233"><ele>554.0</ele><time>2026-05-03T06:36:07.682Z</time></trkpt><trkpt lat="39.8191833" lon="8.7755233"><ele>554.0</ele><time>2026-05-03T06:36:08.682Z</time></trkpt><trkpt lat="39.8193167" lon="8.7755517"><ele>554.0</ele><time>2026-05-03T06:36:09.681Z</time></trkpt><trkpt lat="39.81944" lon="8.7755583"><ele>554.0</ele><time>2026-05-03T06:36:10.681Z</time></trkpt><trkpt lat="39.8195717" lon="8.7755533"><ele>554.0</ele><time>2026-05-03T06:36:11.681Z</time></trkpt><trkpt lat="39.8197017" lon="8.7755183"><ele>552.6666666666666</ele><time>2026-05-03T06:36:12.682Z</time></trkpt><trkpt lat="39.8198333" lon="8.7754567"><ele>551.3333333333334</ele><time>2026-05-03T06:36:13.682Z</time></trkpt><trkpt lat="39.8199933" lon="8.775385"><ele>550.0</ele><time>2026-05-03T06:36:14.681Z</time></trkpt><trkpt lat="39.82015" lon="8.775295"><ele>549.0</ele><time>2026-05-03T06:36:15.681Z</time></trkpt><trkpt lat="39.8202917" lon="8.7752283"><ele>548.0</ele><time>2026-05-03T06:36:16.681Z</time></trkpt><trkpt lat="39.8204133" lon="8.77518"><ele>547.0</ele><time>2026-05-03T06:36:17.681Z</time></trkpt><trkpt lat="39.8205417" lon="8.77514"><ele>546.0</ele><time>2026-05-03T06:36:18.681Z</time></trkpt><trkpt lat="39.82066" lon="8.7750933"><ele>545.5</ele><time>2026-05-03T06:36:19.681Z</time></trkpt><trkpt lat="39.8207883" lon="8.7750317"><ele>545.0</ele><time>2026-05-03T06:36:20.682Z</time></trkpt><trkpt lat="39.820915" lon="8.77497"><ele>544.5</ele><time>2026-05-03T06:36:21.681Z</time></trkpt><trkpt lat="39.8210467" lon="8.7749133"><ele>544.0</ele><time>2026-05-03T06:36:22.681Z</time></trkpt><trkpt lat="39.821155" lon="8.7748567"><ele>542.6666666666667</ele><time>2026-05-03T06:36:23.681Z</time></trkpt><trkpt lat="39.8212517" lon="8.7748"><ele>541.3333333333334</ele><time>2026-05-03T06:36:24.681Z</time></trkpt><trkpt lat="39.821345" lon="8.7747617"><ele>540.0</ele><time>2026-05-03T06:36:25.681Z</time></trkpt><trkpt lat="39.8214333" lon="8.7747283"><ele>538.6666666666666</ele><time>2026-05-03T06:36:26.681Z</time></trkpt><trkpt lat="39.8215133" lon="8.7746983"><ele>537.3333333333333</ele><time>2026-05-03T06:36:27.681Z</time></trkpt><trkpt lat="39.821575" lon="8.7746667"><ele>536.0</ele><time>2026-05-03T06:36:28.681Z</time></trkpt><trkpt lat="39.8216217" lon="8.7746083"><ele>536.0</ele><time>2026-05-03T06:36:29.681Z</time></trkpt><trkpt lat="39.8216767" lon="8.7745333"><ele>536.0</ele><time>2026-05-03T06:36:30.681Z</time></trkpt><trkpt lat="39.8217483" lon="8.7744433"><ele>536.0</ele><time>2026-05-03T06:36:31.681Z</time></trkpt><trkpt lat="39.8218467" lon="8.7743633"><ele>536.0</ele><time>2026-05-03T06:36:32.681Z</time></trkpt><trkpt lat="39.8219433" lon="8.7742917"><ele>536.0</ele><time>2026-05-03T06:36:33.681Z</time></trkpt><trkpt lat="39.8220367" lon="8.7742233"><ele>533.25</ele><time>2026-05-03T06:36:34.681Z</time></trkpt><trkpt lat="39.8221333" lon="8.7741583"><ele>530.5</ele><time>2026-05-03T06:36:35.681Z</time></trkpt><trkpt lat="39.822245" lon="8.7741067"><ele>527.75</ele><time>2026-05-03T06:36:36.681Z</time></trkpt><trkpt lat="39.822365" lon="8.7740683"><ele>525.0</ele><time>2026-05-03T06:36:37.681Z</time></trkpt><trkpt lat="39.8224767" lon="8.774045"><ele>525.0</ele><time>2026-05-03T06:36:38.681Z</time></trkpt><trkpt lat="39.8225833" lon="8.774035"><ele>525.0</ele><time>2026-05-03T06:36:39.682Z</time></trkpt><trkpt lat="39.8226667" lon="8.7740067"><ele>525.0</ele><time>2026-05-03T06:36:40.681Z</time></trkpt><trkpt lat="39.822755" lon="8.773955"><ele>525.0</ele><time>2026-05-03T06:36:41.681Z</time></trkpt><trkpt lat="39.822845" lon="8.7738933"><ele>525.0</ele><time>2026-05-03T06:36:42.682Z</time></trkpt><trkpt lat="39.822935" lon="8.7738117"><ele>524.2</ele><time>2026-05-03T06:36:43.681Z</time></trkpt><trkpt lat="39.8230067" lon="8.773735"><ele>523.4</ele><time>2026-05-03T06:36:44.682Z</time></trkpt><trkpt lat="39.823075" lon="8.7736617"><ele>522.6</ele><time>2026-05-03T06:36:45.681Z</time></trkpt><trkpt lat="39.8231617" lon="8.7735867"><ele>521.8</ele><time>2026-05-03T06:36:46.681Z</time></trkpt><trkpt lat="39.8232617" lon="8.7735433"><ele>521.0</ele><time>2026-05-03T06:36:47.681Z</time></trkpt><trkpt lat="39.8233567" lon="8.7735017"><ele>521.0</ele><time>2026-05-03T06:36:48.682Z</time></trkpt><trkpt lat="39.8234267" lon="8.7734683"><ele>521.0</ele><time>2026-05-03T06:36:49.682Z</time></trkpt><trkpt lat="39.8234967" lon="8.7734517"><ele>521.0</ele><time>2026-05-03T06:36:50.681Z</time></trkpt><trkpt lat="39.8235667" lon="8.7734483"><ele>521.0</ele><time>2026-05-03T06:36:51.681Z</time></trkpt><trkpt lat="39.8236367" lon="8.7734483"><ele>521.0</ele><time>2026-05-03T06:36:52.681Z</time></trkpt><trkpt lat="39.823725" lon="8.7734233"><ele>521.0</ele><time>2026-05-03T06:36:53.681Z</time></trkpt><trkpt lat="39.8238267" lon="8.77339"><ele>521.0</ele><time>2026-05-03T06:36:54.681Z</time></trkpt><trkpt lat="39.823945" lon="8.7733433"><ele>521.0</ele><time>2026-05-03T06:36:55.682Z</time></trkpt><trkpt lat="39.824065" lon="8.7732833"><ele>521.0</ele><time>2026-05-03T06:36:56.681Z</time></trkpt><trkpt lat="39.8241967" lon="8.7732183"><ele>521.0</ele><time>2026-05-03T06:36:57.681Z</time></trkpt><trkpt lat="39.8243233" lon="8.773165"><ele>521.75</ele><time>2026-05-03T06:36:58.681Z</time></trkpt><trkpt lat="39.8244617" lon="8.7731133"><ele>522.5</ele><time>2026-05-03T06:36:59.681Z</time></trkpt><trkpt lat="39.824605" lon="8.77306"><ele>523.25</ele><time>2026-05-03T06:37:00.681Z</time></trkpt><trkpt lat="39.8247317" lon="8.7729967"><ele>524.0</ele><time>2026-05-03T06:37:01.681Z</time></trkpt><trkpt lat="39.8248417" lon="8.7729433"><ele>524.0</ele><time>2026-05-03T06:37:02.681Z</time></trkpt><trkpt lat="39.82494" lon="8.7728783"><ele>524.0</ele><time>2026-05-03T06:37:03.681Z</time></trkpt><trkpt lat="39.825025" lon="8.772805"><ele>524.0</ele><time>2026-05-03T06:37:04.681Z</time></trkpt><trkpt lat="39.8251083" lon="8.7727167"><ele>524.0</ele><time>2026-05-03T06:37:05.681Z</time></trkpt><trkpt lat="39.8251833" lon="8.7726233"><ele>524.0</ele><time>2026-05-03T06:37:06.682Z</time></trkpt><trkpt lat="39.8252533" lon="8.77254"><ele>523.0</ele><time>2026-05-03T06:37:07.681Z</time></trkpt><trkpt lat="39.825315" lon="8.77246"><ele>522.0</ele><time>2026-05-03T06:37:08.682Z</time></trkpt><trkpt lat="39.8253767" lon="8.7723983"><ele>521.0</ele><time>2026-05-03T06:37:09.682Z</time></trkpt><trkpt lat="39.825445" lon="8.7723633"><ele>520.0</ele><time>2026-05-03T06:37:10.682Z</time></trkpt><trkpt lat="39.8255267" lon="8.7723533"><ele>519.0</ele><time>2026-05-03T06:37:11.682Z</time></trkpt><trkpt lat="39.825635" lon="8.7723467"><ele>518.0</ele><time>2026-05-03T06:37:12.681Z</time></trkpt><trkpt lat="39.8257433" lon="8.7723433"><ele>518.0</ele><time>2026-05-03T06:37:13.682Z</time></trkpt><trkpt lat="39.8258517" lon="8.7723367"><ele>518.0</ele><time>2026-05-03T06:37:14.681Z</time></trkpt><trkpt lat="39.825955" lon="8.77233"><ele>518.0</ele><time>2026-05-03T06:37:15.681Z</time></trkpt><trkpt lat="39.82606" lon="8.7723"><ele>518.0</ele><time>2026-05-03T06:37:16.681Z</time></trkpt><trkpt lat="39.826145" lon="8.7722483"><ele>518.0</ele><time>2026-05-03T06:37:17.682Z</time></trkpt><trkpt lat="39.8262317" lon="8.772185"><ele>519.6</ele><time>2026-05-03T06:37:18.681Z</time></trkpt><trkpt lat="39.8263133" lon="8.7721383"><ele>521.1999999999999</ele><time>2026-05-03T06:37:19.681Z</time></trkpt><trkpt lat="39.8264017" lon="8.7721217"><ele>522.8</ele><time>2026-05-03T06:37:20.681Z</time></trkpt><trkpt lat="39.826495" lon="8.7721233"><ele>524.4</ele><time>2026-05-03T06:37:21.682Z</time></trkpt><trkpt lat="39.8265967" lon="8.7721267"><ele>526.0</ele><time>2026-05-03T06:37:22.682Z</time></trkpt><trkpt lat="39.8266983" lon="8.772105"><ele>526.0</ele><time>2026-05-03T06:37:23.681Z</time></trkpt><trkpt lat="39.8268" lon="8.7720767"><ele>526.0</ele><time>2026-05-03T06:37:24.681Z</time></trkpt><trkpt lat="39.8268967" lon="8.7720317"><ele>526.0</ele><time>2026-05-03T06:37:25.682Z</time></trkpt><trkpt lat="39.826985" lon="8.7719917"><ele>526.0</ele><time>2026-05-03T06:37:26.682Z</time></trkpt><trkpt lat="39.82708" lon="8.7719483"><ele>526.0</ele><time>2026-05-03T06:37:27.681Z</time></trkpt><trkpt lat="39.8271717" lon="8.7719033"><ele>528.0</ele><time>2026-05-03T06:37:28.682Z</time></trkpt><trkpt lat="39.8272367" lon="8.7718433"><ele>530.0</ele><time>2026-05-03T06:37:29.682Z</time></trkpt><trkpt lat="39.8272967" lon="8.7717633"><ele>532.0</ele><time>2026-05-03T06:37:30.682Z</time></trkpt><trkpt lat="39.8273533" lon="8.771665"><ele>534.0</ele><time>2026-05-03T06:37:31.682Z</time></trkpt><trkpt lat="39.8274183" lon="8.77157"><ele>536.0</ele><time>2026-05-03T06:37:32.682Z</time></trkpt><trkpt lat="39.8274683" lon="8.77148"><ele>538.0</ele><time>2026-05-03T06:37:33.682Z</time></trkpt><trkpt lat="39.8275133" lon="8.771395"><ele>538.0</ele><time>2026-05-03T06:37:34.681Z</time></trkpt><trkpt lat="39.827545" lon="8.771315"><ele>538.0</ele><time>2026-05-03T06:37:35.681Z</time></trkpt><trkpt lat="39.8275517" lon="8.7712267"><ele>538.0</ele><time>2026-05-03T06:37:36.682Z</time></trkpt><trkpt lat="39.8275383" lon="8.7711133"><ele>538.0</ele><time>2026-05-03T06:37:37.681Z</time></trkpt><trkpt lat="39.8275117" lon="8.77098"><ele>538.0</ele><time>2026-05-03T06:37:38.681Z</time></trkpt><trkpt lat="39.8274933" lon="8.7708333"><ele>538.0</ele><time>2026-05-03T06:37:39.682Z</time></trkpt><trkpt lat="39.827485" lon="8.7706817"><ele>539.1999999999999</ele><time>2026-05-03T06:37:40.681Z</time></trkpt><trkpt lat="39.82747" lon="8.77052"><ele>540.4</ele><time>2026-05-03T06:37:41.682Z</time></trkpt><trkpt lat="39.8274567" lon="8.7703617"><ele>541.5999999999999</ele><time>2026-05-03T06:37:42.681Z</time></trkpt><trkpt lat="39.8274417" lon="8.7702183"><ele>542.8</ele><time>2026-05-03T06:37:43.681Z</time></trkpt><trkpt lat="39.8274283" lon="8.7701117"><ele>544.0</ele><time>2026-05-03T06:37:44.681Z</time></trkpt><trkpt lat="39.8274033" lon="8.7700217"><ele>545.3333333333334</ele><time>2026-05-03T06:37:45.682Z</time></trkpt><trkpt lat="39.8273717" lon="8.7699233"><ele>546.6666666666667</ele><time>2026-05-03T06:37:46.681Z</time></trkpt><trkpt lat="39.82735" lon="8.76983"><ele>548.0</ele><time>2026-05-03T06:37:47.682Z</time></trkpt><trkpt lat="39.82733" lon="8.7697233"><ele>549.3333333333334</ele><time>2026-05-03T06:37:48.682Z</time></trkpt><trkpt lat="39.82731" lon="8.769605"><ele>550.6666666666666</ele><time>2026-05-03T06:37:49.682Z</time></trkpt><trkpt lat="39.8272883" lon="8.7694783"><ele>552.0</ele><time>2026-05-03T06:37:50.682Z</time></trkpt><trkpt lat="39.8272717" lon="8.76933"><ele>554.0</ele><time>2026-05-03T06:37:51.681Z</time></trkpt><trkpt lat="39.8272567" lon="8.7691833"><ele>556.0</ele><time>2026-05-03T06:37:52.681Z</time></trkpt><trkpt lat="39.8272417" lon="8.7690317"><ele>558.0</ele><time>2026-05-03T06:37:53.681Z</time></trkpt><trkpt lat="39.8272133" lon="8.768865"><ele>560.0</ele><time>2026-05-03T06:37:54.682Z</time></trkpt><trkpt lat="39.827195" lon="8.7687167"><ele>560.0</ele><time>2026-05-03T06:37:55.681Z</time></trkpt><trkpt lat="39.8271867" lon="8.7685683"><ele>560.0</ele><time>2026-05-03T06:37:56.682Z</time></trkpt><trkpt lat="39.8271567" lon="8.7684217"><ele>560.0</ele><time>2026-05-03T06:37:57.681Z</time></trkpt><trkpt lat="39.8271267" lon="8.76828"><ele>560.0</ele><time>2026-05-03T06:37:58.682Z</time></trkpt><trkpt lat="39.8270983" lon="8.7681267"><ele>561.6</ele><time>2026-05-03T06:37:59.682Z</time></trkpt><trkpt lat="39.827075" lon="8.76797"><ele>563.2</ele><time>2026-05-03T06:38:00.682Z</time></trkpt><trkpt lat="39.82706" lon="8.7678183"><ele>564.8</ele><time>2026-05-03T06:38:01.682Z</time></trkpt><trkpt lat="39.8270533" lon="8.767695"><ele>566.4</ele><time>2026-05-03T06:38:02.681Z</time></trkpt><trkpt lat="39.827035" lon="8.7675683"><ele>568.0</ele><time>2026-05-03T06:38:03.681Z</time></trkpt><trkpt lat="39.82701" lon="8.7674633"><ele>569.6666666666667</ele><time>2026-05-03T06:38:04.681Z</time></trkpt><trkpt lat="39.826985" lon="8.767355"><ele>571.3333333333334</ele><time>2026-05-03T06:38:05.681Z</time></trkpt><trkpt lat="39.8269733" lon="8.76724"><ele>573.0</ele><time>2026-05-03T06:38:06.681Z</time></trkpt><trkpt lat="39.8269617" lon="8.7671417"><ele>574.6666666666666</ele><time>2026-05-03T06:38:07.681Z</time></trkpt><trkpt lat="39.82694" lon="8.7670467"><ele>576.3333333333333</ele><time>2026-05-03T06:38:08.681Z</time></trkpt><trkpt lat="39.8269067" lon="8.76697"><ele>578.0</ele><time>2026-05-03T06:38:09.681Z</time></trkpt><trkpt lat="39.826885" lon="8.76689"><ele>579.5</ele><time>2026-05-03T06:38:10.681Z</time></trkpt><trkpt lat="39.8268733" lon="8.7668"><ele>581.0</ele><time>2026-05-03T06:38:11.682Z</time></trkpt><trkpt lat="39.8268683" lon="8.7666883"><ele>582.5</ele><time>2026-05-03T06:38:12.681Z</time></trkpt><trkpt lat="39.8268667" lon="8.7665683"><ele>584.0</ele><time>2026-05-03T06:38:13.681Z</time></trkpt><trkpt lat="39.826875" lon="8.76646"><ele>585.5</ele><time>2026-05-03T06:38:14.682Z</time></trkpt><trkpt lat="39.82689" lon="8.766365"><ele>587.0</ele><time>2026-05-03T06:38:15.681Z</time></trkpt><trkpt lat="39.8269133" lon="8.7662683"><ele>587.0</ele><time>2026-05-03T06:38:16.682Z</time></trkpt><trkpt lat="39.8269267" lon="8.7661867"><ele>587.0</ele><time>2026-05-03T06:38:17.681Z</time></trkpt><trkpt lat="39.8269367" lon="8.7660467"><ele>587.0</ele><time>2026-05-03T06:38:19.681Z</time></trkpt><trkpt lat="39.826955" lon="8.7659617"><ele>587.0</ele><time>2026-05-03T06:38:21.682Z</time></trkpt><trkpt lat="39.827" lon="8.7658917"><ele>587.0</ele><time>2026-05-03T06:38:23.681Z</time></trkpt><trkpt lat="39.8270167" lon="8.765795"><ele>587.0</ele><time>2026-05-03T06:38:26.681Z</time></trkpt><trkpt lat="39.826985" lon="8.7657133"><ele>588.0</ele><time>2026-05-03T06:38:28.681Z</time></trkpt><trkpt lat="39.82698" lon="8.765625"><ele>589.0</ele><time>2026-05-03T06:38:29.682Z</time></trkpt><trkpt lat="39.8269783" lon="8.7655067"><ele>590.0</ele><time>2026-05-03T06:38:30.681Z</time></trkpt><trkpt lat="39.8269717" lon="8.7653783"><ele>591.0</ele><time>2026-05-03T06:38:31.681Z</time></trkpt><trkpt lat="39.826965" lon="8.7652533"><ele>592.0</ele><time>2026-05-03T06:38:32.681Z</time></trkpt><trkpt lat="39.8269367" lon="8.7651333"><ele>592.2</ele><time>2026-05-03T06:38:33.681Z</time></trkpt><trkpt lat="39.8269217" lon="8.765015"><ele>592.4000000000001</ele><time>2026-05-03T06:38:34.682Z</time></trkpt><trkpt lat="39.826905" lon="8.7648967"><ele>592.5999999999999</ele><time>2026-05-03T06:38:35.681Z</time></trkpt><trkpt lat="39.8268883" lon="8.7647867"><ele>592.8</ele><time>2026-05-03T06:38:36.681Z</time></trkpt><trkpt lat="39.8268733" lon="8.7646683"><ele>593.0</ele><time>2026-05-03T06:38:37.682Z</time></trkpt><trkpt lat="39.8268583" lon="8.7645333"><ele>593.0</ele><time>2026-05-03T06:38:38.681Z</time></trkpt><trkpt lat="39.8268467" lon="8.7643967"><ele>593.0</ele><time>2026-05-03T06:38:39.682Z</time></trkpt><trkpt lat="39.82685" lon="8.764275"><ele>593.0</ele><time>2026-05-03T06:38:40.681Z</time></trkpt><trkpt lat="39.8268683" lon="8.7641517"><ele>593.0</ele><time>2026-05-03T06:38:41.682Z</time></trkpt><trkpt lat="39.82688" lon="8.76401"><ele>593.0</ele><time>2026-05-03T06:38:42.681Z</time></trkpt><trkpt lat="39.8268867" lon="8.7638567"><ele>592.5</ele><time>2026-05-03T06:38:43.681Z</time></trkpt><trkpt lat="39.8268917" lon="8.7637017"><ele>592.0</ele><time>2026-05-03T06:38:44.681Z</time></trkpt><trkpt lat="39.8268933" lon="8.763545"><ele>591.5</ele><time>2026-05-03T06:38:45.682Z</time></trkpt><trkpt lat="39.8269033" lon="8.7633833"><ele>591.0</ele><time>2026-05-03T06:38:46.682Z</time></trkpt><trkpt lat="39.826905" lon="8.7632317"><ele>590.1666666666666</ele><time>2026-05-03T06:38:47.681Z</time></trkpt><trkpt lat="39.8268983" lon="8.7631083"><ele>589.3333333333334</ele><time>2026-05-03T06:38:48.681Z</time></trkpt><trkpt lat="39.8268933" lon="8.763015"><ele>588.5</ele><time>2026-05-03T06:38:49.681Z</time></trkpt><trkpt lat="39.8268733" lon="8.76289"><ele>587.6666666666667</ele><time>2026-05-03T06:38:51.681Z</time></trkpt><trkpt lat="39.826775" lon="8.7628733"><ele>586.8333333333334</ele><time>2026-05-03T06:38:54.681Z</time></trkpt><trkpt lat="39.8266967" lon="8.7628833"><ele>586.0</ele><time>2026-05-03T06:38:55.681Z</time></trkpt><trkpt lat="39.826615" lon="8.7628867"><ele>586.0</ele><time>2026-05-03T06:38:56.681Z</time></trkpt><trkpt lat="39.8265267" lon="8.7628917"><ele>586.0</ele><time>2026-05-03T06:38:57.681Z</time></trkpt><trkpt lat="39.82644" lon="8.7629117"><ele>586.0</ele><time>2026-05-03T06:38:58.681Z</time></trkpt><trkpt lat="39.8263533" lon="8.7629383"><ele>586.0</ele><time>2026-05-03T06:38:59.681Z</time></trkpt><trkpt lat="39.82627" lon="8.7629667"><ele>586.0</ele><time>2026-05-03T06:39:00.681Z</time></trkpt><trkpt lat="39.826195" lon="8.7630117"><ele>586.0</ele><time>2026-05-03T06:39:01.681Z</time></trkpt><trkpt lat="39.8261283" lon="8.763075"><ele>586.0</ele><time>2026-05-03T06:39:02.681Z</time></trkpt><trkpt lat="39.8260683" lon="8.7631567"><ele>586.0</ele><time>2026-05-03T06:39:03.681Z</time></trkpt><trkpt lat="39.826015" lon="8.7632383"><ele>586.0</ele><time>2026-05-03T06:39:04.681Z</time></trkpt><trkpt lat="39.8259617" lon="8.7633267"><ele>586.0</ele><time>2026-05-03T06:39:05.681Z</time></trkpt><trkpt lat="39.8259033" lon="8.76342"><ele>586.0</ele><time>2026-05-03T06:39:06.681Z</time></trkpt><trkpt lat="39.82585" lon="8.76351"><ele>586.0</ele><time>2026-05-03T06:39:07.682Z</time></trkpt><trkpt lat="39.825795" lon="8.7635817"><ele>583.8333333333334</ele><time>2026-05-03T06:39:08.681Z</time></trkpt><trkpt lat="39.8257483" lon="8.7636433"><ele>581.6666666666667</ele><time>2026-05-03T06:39:09.681Z</time></trkpt><trkpt lat="39.8256917" lon="8.7636933"><ele>579.5</ele><time>2026-05-03T06:39:10.681Z</time></trkpt><trkpt lat="39.8256367" lon="8.763745"><ele>577.3333333333334</ele><time>2026-05-03T06:39:11.681Z</time></trkpt><trkpt lat="39.8255617" lon="8.7638033"><ele>575.1666666666666</ele><time>2026-05-03T06:39:12.681Z</time></trkpt><trkpt lat="39.8254717" lon="8.76386"><ele>573.0</ele><time>2026-05-03T06:39:13.681Z</time></trkpt><trkpt lat="39.8253833" lon="8.7639133"><ele>573.0</ele><time>2026-05-03T06:39:14.681Z</time></trkpt><trkpt lat="39.8252867" lon="8.7639667"><ele>573.0</ele><time>2026-05-03T06:39:15.681Z</time></trkpt><trkpt lat="39.8252017" lon="8.76402"><ele>573.0</ele><time>2026-05-03T06:39:16.682Z</time></trkpt><trkpt lat="39.8251167" lon="8.7640783"><ele>573.0</ele><time>2026-05-03T06:39:17.682Z</time></trkpt><trkpt lat="39.82503" lon="8.7641433"><ele>573.0</ele><time>2026-05-03T06:39:18.681Z</time></trkpt><trkpt lat="39.8249633" lon="8.7642217"><ele>569.1666666666666</ele><time>2026-05-03T06:39:19.681Z</time></trkpt><trkpt lat="39.8249" lon="8.7642967"><ele>565.3333333333334</ele><time>2026-05-03T06:39:20.681Z</time></trkpt><trkpt lat="39.8248367" lon="8.7643733"><ele>561.5</ele><time>2026-05-03T06:39:21.681Z</time></trkpt><trkpt lat="39.8247717" lon="8.764455"><ele>557.6666666666667</ele><time>2026-05-03T06:39:22.681Z</time></trkpt><trkpt lat="39.8247067" lon="8.7645283"><ele>553.8333333333334</ele><time>2026-05-03T06:39:23.682Z</time></trkpt><trkpt lat="39.8246517" lon="8.7645983"><ele>550.0</ele><time>2026-05-03T06:39:24.682Z</time></trkpt><trkpt lat="39.8245483" lon="8.7646383"><ele>550.0</ele><time>2026-05-03T06:39:26.681Z</time></trkpt><trkpt lat="39.824535" lon="8.76454"><ele>550.0</ele><time>2026-05-03T06:39:29.681Z</time></trkpt><trkpt lat="39.824585" lon="8.7643867"><ele>550.0</ele><time>2026-05-03T06:39:31.681Z</time></trkpt><trkpt lat="39.8246117" lon="8.7642733"><ele>550.0</ele><time>2026-05-03T06:39:32.682Z</time></trkpt><trkpt lat="39.8246283" lon="8.7641517"><ele>550.0</ele><time>2026-05-03T06:39:33.681Z</time></trkpt><trkpt lat="39.8246533" lon="8.764035"><ele>550.0</ele><time>2026-05-03T06:39:34.681Z</time></trkpt><trkpt lat="39.8246817" lon="8.7639083"><ele>550.0</ele><time>2026-05-03T06:39:35.681Z</time></trkpt><trkpt lat="39.824725" lon="8.7637683"><ele>550.0</ele><time>2026-05-03T06:39:36.681Z</time></trkpt><trkpt lat="39.824785" lon="8.763615"><ele>550.0</ele><time>2026-05-03T06:39:37.682Z</time></trkpt><trkpt lat="39.8248567" lon="8.7634533"><ele>550.5</ele><time>2026-05-03T06:39:38.681Z</time></trkpt><trkpt lat="39.8249233" lon="8.7632983"><ele>551.0</ele><time>2026-05-03T06:39:39.681Z</time></trkpt><trkpt lat="39.824995" lon="8.76315"><ele>551.5</ele><time>2026-05-03T06:39:40.681Z</time></trkpt><trkpt lat="39.8250617" lon="8.763005"><ele>552.0</ele><time>2026-05-03T06:39:41.682Z</time></trkpt><trkpt lat="39.8251283" lon="8.7628667"><ele>554.75</ele><time>2026-05-03T06:39:42.682Z</time></trkpt><trkpt lat="39.8251917" lon="8.7627367"><ele>557.5</ele><time>2026-05-03T06:39:43.681Z</time></trkpt><trkpt lat="39.8252533" lon="8.7626117"><ele>560.25</ele><time>2026-05-03T06:39:44.681Z</time></trkpt><trkpt lat="39.8253167" lon="8.7624617"><ele>563.0</ele><time>2026-05-03T06:39:45.681Z</time></trkpt><trkpt lat="39.82538" lon="8.76232"><ele>563.0</ele><time>2026-05-03T06:39:46.682Z</time></trkpt><trkpt lat="39.8254383" lon="8.7621717"><ele>563.0</ele><time>2026-05-03T06:39:47.681Z</time></trkpt><trkpt lat="39.825495" lon="8.7620333"><ele>563.0</ele><time>2026-05-03T06:39:48.681Z</time></trkpt><trkpt lat="39.82555" lon="8.7619067"><ele>563.0</ele><time>2026-05-03T06:39:49.681Z</time></trkpt><trkpt lat="39.8256217" lon="8.76177"><ele>562.0</ele><time>2026-05-03T06:39:50.681Z</time></trkpt><trkpt lat="39.825695" lon="8.761625"><ele>561.0</ele><time>2026-05-03T06:39:51.681Z</time></trkpt><trkpt lat="39.82576" lon="8.7614833"><ele>560.0</ele><time>2026-05-03T06:39:52.682Z</time></trkpt><trkpt lat="39.8258283" lon="8.76133"><ele>559.0</ele><time>2026-05-03T06:39:53.682Z</time></trkpt><trkpt lat="39.8258967" lon="8.7611967"><ele>559.0</ele><time>2026-05-03T06:39:54.682Z</time></trkpt><trkpt lat="39.82596" lon="8.76105"><ele>559.0</ele><time>2026-05-03T06:39:55.682Z</time></trkpt><trkpt lat="39.826005" lon="8.760915"><ele>559.0</ele><time>2026-05-03T06:39:56.681Z</time></trkpt><trkpt lat="39.8260267" lon="8.76082"><ele>559.0</ele><time>2026-05-03T06:39:57.681Z</time></trkpt><trkpt lat="39.8260233" lon="8.7606883"><ele>559.0</ele><time>2026-05-03T06:39:59.681Z</time></trkpt><trkpt lat="39.8259133" lon="8.7606167"><ele>559.25</ele><time>2026-05-03T06:40:01.682Z</time></trkpt><trkpt lat="39.82583" lon="8.76061"><ele>559.5</ele><time>2026-05-03T06:40:02.681Z</time></trkpt><trkpt lat="39.825735" lon="8.760625"><ele>559.75</ele><time>2026-05-03T06:40:03.681Z</time></trkpt><trkpt lat="39.8256033" lon="8.7606417"><ele>560.0</ele><time>2026-05-03T06:40:04.682Z</time></trkpt><trkpt lat="39.8254617" lon="8.760645"><ele>560.0</ele><time>2026-05-03T06:40:05.681Z</time></trkpt><trkpt lat="39.825325" lon="8.7606167"><ele>560.0</ele><time>2026-05-03T06:40:06.681Z</time></trkpt><trkpt lat="39.8251833" lon="8.7605633"><ele>560.0</ele><time>2026-05-03T06:40:07.681Z</time></trkpt><trkpt lat="39.8250333" lon="8.7604883"><ele>560.0</ele><time>2026-05-03T06:40:08.681Z</time></trkpt><trkpt lat="39.8248783" lon="8.7603933"><ele>559.25</ele><time>2026-05-03T06:40:09.682Z</time></trkpt><trkpt lat="39.8247367" lon="8.7602867"><ele>558.5</ele><time>2026-05-03T06:40:10.682Z</time></trkpt><trkpt lat="39.82462" lon="8.7602133"><ele>557.75</ele><time>2026-05-03T06:40:11.681Z</time></trkpt><trkpt lat="39.8245567" lon="8.7601633"><ele>557.0</ele><time>2026-05-03T06:40:12.681Z</time></trkpt><trkpt lat="39.82456" lon="8.7600533"><ele>559.6</ele><time>2026-05-03T06:40:16.682Z</time></trkpt><trkpt lat="39.8246417" lon="8.75992"><ele>562.2</ele><time>2026-05-03T06:40:18.682Z</time></trkpt><trkpt lat="39.8246783" lon="8.759825"><ele>564.8</ele><time>2026-05-03T06:40:19.681Z</time></trkpt><trkpt lat="39.8247133" lon="8.75971"><ele>567.4</ele><time>2026-05-03T06:40:20.681Z</time></trkpt><trkpt lat="39.8247567" lon="8.7595967"><ele>570.0</ele><time>2026-05-03T06:40:21.681Z</time></trkpt><trkpt lat="39.8248417" lon="8.759535"><ele>570.0</ele><time>2026-05-03T06:40:23.681Z</time></trkpt><trkpt lat="39.8249133" lon="8.7596217"><ele>570.0</ele><time>2026-05-03T06:40:25.682Z</time></trkpt><trkpt lat="39.8250167" lon="8.7597233"><ele>570.0</ele><time>2026-05-03T06:40:27.681Z</time></trkpt><trkpt lat="39.82509" lon="8.759745"><ele>570.0</ele><time>2026-05-03T06:40:28.681Z</time></trkpt><trkpt lat="39.8251683" lon="8.759745"><ele>570.0</ele><time>2026-05-03T06:40:29.681Z</time></trkpt><trkpt lat="39.825255" lon="8.7597317"><ele>570.8</ele><time>2026-05-03T06:40:30.681Z</time></trkpt><trkpt lat="39.8253583" lon="8.7597133"><ele>571.6</ele><time>2026-05-03T06:40:31.681Z</time></trkpt><trkpt lat="39.8254567" lon="8.7597067"><ele>572.4</ele><time>2026-05-03T06:40:32.681Z</time></trkpt><trkpt lat="39.8255583" lon="8.7596967"><ele>573.2</ele><time>2026-05-03T06:40:33.681Z</time></trkpt><trkpt lat="39.82567" lon="8.7596917"><ele>574.0</ele><time>2026-05-03T06:40:34.682Z</time></trkpt><trkpt lat="39.825795" lon="8.759675"><ele>574.0</ele><time>2026-05-03T06:40:35.681Z</time></trkpt><trkpt lat="39.8259133" lon="8.7596317"><ele>574.0</ele><time>2026-05-03T06:40:36.681Z</time></trkpt><trkpt lat="39.8260367" lon="8.7595733"><ele>574.0</ele><time>2026-05-03T06:40:37.682Z</time></trkpt><trkpt lat="39.8261583" lon="8.7595083"><ele>574.0</ele><time>2026-05-03T06:40:38.681Z</time></trkpt><trkpt lat="39.8262733" lon="8.75946"><ele>575.6</ele><time>2026-05-03T06:40:39.682Z</time></trkpt><trkpt lat="39.82638" lon="8.75945"><ele>577.2</ele><time>2026-05-03T06:40:40.681Z</time></trkpt><trkpt lat="39.826485" lon="8.7594617"><ele>578.8000000000001</ele><time>2026-05-03T06:40:41.682Z</time></trkpt><trkpt lat="39.8266017" lon="8.759505"><ele>580.4</ele><time>2026-05-03T06:40:42.681Z</time></trkpt><trkpt lat="39.826705" lon="8.7595467"><ele>582.0</ele><time>2026-05-03T06:40:43.681Z</time></trkpt><trkpt lat="39.8268117" lon="8.7595917"><ele>584.6</ele><time>2026-05-03T06:40:44.681Z</time></trkpt><trkpt lat="39.8269067" lon="8.75962"><ele>587.2</ele><time>2026-05-03T06:40:45.681Z</time></trkpt><trkpt lat="39.8270017" lon="8.7596367"><ele>589.8</ele><time>2026-05-03T06:40:46.681Z</time></trkpt><trkpt lat="39.8271" lon="8.7596567"><ele>592.4</ele><time>2026-05-03T06:40:47.681Z</time></trkpt><trkpt lat="39.8271783" lon="8.759675"><ele>595.0</ele><time>2026-05-03T06:40:48.682Z</time></trkpt><trkpt lat="39.82726" lon="8.75969"><ele>595.0</ele><time>2026-05-03T06:40:49.681Z</time></trkpt><trkpt lat="39.827345" lon="8.75971"><ele>595.0</ele><time>2026-05-03T06:40:50.682Z</time></trkpt><trkpt lat="39.8274167" lon="8.7597283"><ele>595.0</ele><time>2026-05-03T06:40:51.682Z</time></trkpt><trkpt lat="39.8274883" lon="8.7597517"><ele>595.0</ele><time>2026-05-03T06:40:52.681Z</time></trkpt><trkpt lat="39.8275967" lon="8.7597267"><ele>595.0</ele><time>2026-05-03T06:40:54.681Z</time></trkpt><trkpt lat="39.8276733" lon="8.759645"><ele>595.0</ele><time>2026-05-03T06:40:56.682Z</time></trkpt><trkpt lat="39.8276767" lon="8.7594783"><ele>597.6</ele><time>2026-05-03T06:40:58.682Z</time></trkpt><trkpt lat="39.8276483" lon="8.7593517"><ele>600.2</ele><time>2026-05-03T06:40:59.681Z</time></trkpt><trkpt lat="39.8276067" lon="8.7592183"><ele>602.8</ele><time>2026-05-03T06:41:00.681Z</time></trkpt><trkpt lat="39.8275633" lon="8.7590933"><ele>605.4</ele><time>2026-05-03T06:41:01.681Z</time></trkpt><trkpt lat="39.8275133" lon="8.7590083"><ele>608.0</ele><time>2026-05-03T06:41:02.681Z</time></trkpt><trkpt lat="39.8274367" lon="8.7589383"><ele>608.0</ele><time>2026-05-03T06:41:03.682Z</time></trkpt><trkpt lat="39.8273417" lon="8.7588917"><ele>608.0</ele><time>2026-05-03T06:41:04.682Z</time></trkpt><trkpt lat="39.827215" lon="8.7588483"><ele>608.0</ele><time>2026-05-03T06:41:05.682Z</time></trkpt><trkpt lat="39.8270667" lon="8.7587983"><ele>608.0</ele><time>2026-05-03T06:41:06.682Z</time></trkpt><trkpt lat="39.8269133" lon="8.7587333"><ele>606.5</ele><time>2026-05-03T06:41:07.681Z</time></trkpt><trkpt lat="39.8267717" lon="8.7586867"><ele>605.0</ele><time>2026-05-03T06:41:08.681Z</time></trkpt><trkpt lat="39.8266367" lon="8.7586433"><ele>603.5</ele><time>2026-05-03T06:41:09.681Z</time></trkpt><trkpt lat="39.8265233" lon="8.7586183"><ele>602.0</ele><time>2026-05-03T06:41:10.681Z</time></trkpt><trkpt lat="39.82643" lon="8.758595"><ele>602.0</ele><time>2026-05-03T06:41:11.682Z</time></trkpt><trkpt lat="39.8263633" lon="8.7585367"><ele>602.0</ele><time>2026-05-03T06:41:12.681Z</time></trkpt><trkpt lat="39.8263083" lon="8.75846"><ele>602.0</ele><time>2026-05-03T06:41:13.682Z</time></trkpt><trkpt lat="39.82628" lon="8.75837"><ele>602.0</ele><time>2026-05-03T06:41:14.682Z</time></trkpt><trkpt lat="39.8262567" lon="8.7582567"><ele>602.0</ele><time>2026-05-03T06:41:15.681Z</time></trkpt><trkpt lat="39.826235" lon="8.7581283"><ele>602.0</ele><time>2026-05-03T06:41:16.681Z</time></trkpt><trkpt lat="39.826215" lon="8.757975"><ele>602.75</ele><time>2026-05-03T06:41:17.682Z</time></trkpt><trkpt lat="39.8262117" lon="8.7577933"><ele>603.5</ele><time>2026-05-03T06:41:18.681Z</time></trkpt><trkpt lat="39.8262467" lon="8.7576017"><ele>604.25</ele><time>2026-05-03T06:41:19.682Z</time></trkpt><trkpt lat="39.8262717" lon="8.757405"><ele>605.0</ele><time>2026-05-03T06:41:20.681Z</time></trkpt><trkpt lat="39.8262883" lon="8.7571817"><ele>600.6666666666666</ele><time>2026-05-03T06:41:21.681Z</time></trkpt><trkpt lat="39.8263017" lon="8.7569667"><ele>596.3333333333334</ele><time>2026-05-03T06:41:22.682Z</time></trkpt><trkpt lat="39.8262933" lon="8.7567683"><ele>592.0</ele><time>2026-05-03T06:41:23.681Z</time></trkpt><trkpt lat="39.8262783" lon="8.75658"><ele>591.6</ele><time>2026-05-03T06:41:24.681Z</time></trkpt><trkpt lat="39.8262633" lon="8.7564117"><ele>591.2</ele><time>2026-05-03T06:41:25.682Z</time></trkpt><trkpt lat="39.8262533" lon="8.7562717"><ele>590.8</ele><time>2026-05-03T06:41:26.681Z</time></trkpt><trkpt lat="39.82624" lon="8.7561433"><ele>590.4</ele><time>2026-05-03T06:41:27.682Z</time></trkpt><trkpt lat="39.8262333" lon="8.756035"><ele>590.0</ele><time>2026-05-03T06:41:28.682Z</time></trkpt><trkpt lat="39.8262483" lon="8.7559467"><ele>591.6666666666666</ele><time>2026-05-03T06:41:29.681Z</time></trkpt><trkpt lat="39.8262967" lon="8.7558833"><ele>593.3333333333333</ele><time>2026-05-03T06:41:30.681Z</time></trkpt><trkpt lat="39.8263617" lon="8.7558383"><ele>595.0</ele><time>2026-05-03T06:41:31.682Z</time></trkpt><trkpt lat="39.826445" lon="8.7558183"><ele>596.6666666666666</ele><time>2026-05-03T06:41:32.682Z</time></trkpt><trkpt lat="39.8265467" lon="8.7558067"><ele>598.3333333333334</ele><time>2026-05-03T06:41:33.681Z</time></trkpt><trkpt lat="39.826665" lon="8.755805"><ele>600.0</ele><time>2026-05-03T06:41:34.682Z</time></trkpt><trkpt lat="39.8267933" lon="8.7557983"><ele>595.25</ele><time>2026-05-03T06:41:35.682Z</time></trkpt><trkpt lat="39.8269233" lon="8.7557883"><ele>590.5</ele><time>2026-05-03T06:41:36.681Z</time></trkpt><trkpt lat="39.8270517" lon="8.7557667"><ele>585.75</ele><time>2026-05-03T06:41:37.681Z</time></trkpt><trkpt lat="39.8271467" lon="8.7557283"><ele>581.0</ele><time>2026-05-03T06:41:38.682Z</time></trkpt><trkpt lat="39.8272483" lon="8.75566"><ele>581.0</ele><time>2026-05-03T06:41:39.681Z</time></trkpt><trkpt lat="39.8273467" lon="8.7555717"><ele>581.0</ele><time>2026-05-03T06:41:40.682Z</time></trkpt><trkpt lat="39.8274383" lon="8.755455"><ele>581.0</ele><time>2026-05-03T06:41:41.681Z</time></trkpt><trkpt lat="39.8275417" lon="8.7553383"><ele>581.0</ele><time>2026-05-03T06:41:42.681Z</time></trkpt><trkpt lat="39.8276333" lon="8.7552017"><ele>579.75</ele><time>2026-05-03T06:41:43.682Z</time></trkpt><trkpt lat="39.8277067" lon="8.7550733"><ele>578.5</ele><time>2026-05-03T06:41:44.682Z</time></trkpt><trkpt lat="39.827795" lon="8.7549467"><ele>577.25</ele><time>2026-05-03T06:41:45.681Z</time></trkpt><trkpt lat="39.827915" lon="8.75484"><ele>576.0</ele><time>2026-05-03T06:41:46.682Z</time></trkpt><trkpt lat="39.8280483" lon="8.7547517"><ele>576.0</ele><time>2026-05-03T06:41:47.681Z</time></trkpt><trkpt lat="39.8281917" lon="8.75467"><ele>576.0</ele><time>2026-05-03T06:41:48.681Z</time></trkpt><trkpt lat="39.8283183" lon="8.7545767"><ele>576.0</ele><time>2026-05-03T06:41:49.681Z</time></trkpt><trkpt lat="39.8284517" lon="8.7544733"><ele>573.25</ele><time>2026-05-03T06:41:50.681Z</time></trkpt><trkpt lat="39.8285767" lon="8.7543583"><ele>570.5</ele><time>2026-05-03T06:41:51.681Z</time></trkpt><trkpt lat="39.828685" lon="8.7542483"><ele>567.75</ele><time>2026-05-03T06:41:52.682Z</time></trkpt><trkpt lat="39.8287717" lon="8.7541267"><ele>565.0</ele><time>2026-05-03T06:41:53.682Z</time></trkpt><trkpt lat="39.82882" lon="8.7539967"><ele>565.0</ele><time>2026-05-03T06:41:54.682Z</time></trkpt><trkpt lat="39.8288533" lon="8.7538683"><ele>565.0</ele><time>2026-05-03T06:41:55.681Z</time></trkpt><trkpt lat="39.82887" lon="8.7537467"><ele>565.0</ele><time>2026-05-03T06:41:56.681Z</time></trkpt><trkpt lat="39.8288667" lon="8.75363"><ele>565.0</ele><time>2026-05-03T06:41:57.681Z</time></trkpt><trkpt lat="39.828845" lon="8.7535133"><ele>565.0</ele><time>2026-05-03T06:41:58.681Z</time></trkpt><trkpt lat="39.8288133" lon="8.753395"><ele>565.2</ele><time>2026-05-03T06:41:59.682Z</time></trkpt><trkpt lat="39.828765" lon="8.75328"><ele>565.4</ele><time>2026-05-03T06:42:00.681Z</time></trkpt><trkpt lat="39.8287133" lon="8.75316"><ele>565.6</ele><time>2026-05-03T06:42:01.681Z</time></trkpt><trkpt lat="39.8286483" lon="8.75304"><ele>565.8</ele><time>2026-05-03T06:42:02.682Z</time></trkpt><trkpt lat="39.8285767" lon="8.7529233"><ele>566.0</ele><time>2026-05-03T06:42:03.682Z</time></trkpt><trkpt lat="39.8285067" lon="8.7528067"><ele>566.4</ele><time>2026-05-03T06:42:04.681Z</time></trkpt><trkpt lat="39.82846" lon="8.75271"><ele>566.8</ele><time>2026-05-03T06:42:05.682Z</time></trkpt><trkpt lat="39.8284617" lon="8.752595"><ele>567.1999999999999</ele><time>2026-05-03T06:42:07.682Z</time></trkpt><trkpt lat="39.8285983" lon="8.752495"><ele>567.6</ele><time>2026-05-03T06:42:09.681Z</time></trkpt><trkpt lat="39.8287017" lon="8.7524317"><ele>568.0</ele><time>2026-05-03T06:42:10.682Z</time></trkpt><trkpt lat="39.8288133" lon="8.7523667"><ele>566.6</ele><time>2026-05-03T06:42:11.681Z</time></trkpt><trkpt lat="39.8289167" lon="8.7522967"><ele>565.1999999999999</ele><time>2026-05-03T06:42:12.682Z</time></trkpt><trkpt lat="39.82902" lon="8.7522483"><ele>563.8</ele><time>2026-05-03T06:42:13.682Z</time></trkpt><trkpt lat="39.8291167" lon="8.7522017"><ele>562.4</ele><time>2026-05-03T06:42:14.681Z</time></trkpt><trkpt lat="39.8292217" lon="8.75215"><ele>561.0</ele><time>2026-05-03T06:42:15.682Z</time></trkpt><trkpt lat="39.8293283" lon="8.7520867"><ele>556.2</ele><time>2026-05-03T06:42:16.682Z</time></trkpt><trkpt lat="39.8294233" lon="8.7520333"><ele>551.4000000000001</ele><time>2026-05-03T06:42:17.682Z</time></trkpt><trkpt lat="39.8295033" lon="8.75197"><ele>546.6</ele><time>2026-05-03T06:42:18.681Z</time></trkpt><trkpt lat="39.829585" lon="8.7519317"><ele>541.8000000000001</ele><time>2026-05-03T06:42:19.681Z</time></trkpt><trkpt lat="39.829655" lon="8.7519033"><ele>537.0</ele><time>2026-05-03T06:42:20.681Z</time></trkpt><trkpt lat="39.829755" lon="8.7518783"><ele>536.0</ele><time>2026-05-03T06:42:21.681Z</time></trkpt><trkpt lat="39.8298717" lon="8.7518283"><ele>535.0</ele><time>2026-05-03T06:42:22.681Z</time></trkpt><trkpt lat="39.8299767" lon="8.7517617"><ele>534.0</ele><time>2026-05-03T06:42:23.681Z</time></trkpt><trkpt lat="39.830065" lon="8.7517017"><ele>533.0</ele><time>2026-05-03T06:42:24.682Z</time></trkpt><trkpt lat="39.830145" lon="8.751655"><ele>532.0</ele><time>2026-05-03T06:42:25.681Z</time></trkpt><trkpt lat="39.830225" lon="8.7516283"><ele>532.0</ele><time>2026-05-03T06:42:26.682Z</time></trkpt><trkpt lat="39.8302967" lon="8.7516183"><ele>532.0</ele><time>2026-05-03T06:42:27.681Z</time></trkpt><trkpt lat="39.8303683" lon="8.7516033"><ele>532.0</ele><time>2026-05-03T06:42:28.681Z</time></trkpt><trkpt lat="39.8304433" lon="8.751565"><ele>532.0</ele><time>2026-05-03T06:42:29.681Z</time></trkpt><trkpt lat="39.8305133" lon="8.7514983"><ele>532.0</ele><time>2026-05-03T06:42:30.682Z</time></trkpt><trkpt lat="39.830575" lon="8.75142"><ele>532.0</ele><time>2026-05-03T06:42:31.681Z</time></trkpt><trkpt lat="39.83063" lon="8.7513417"><ele>532.0</ele><time>2026-05-03T06:42:32.681Z</time></trkpt><trkpt lat="39.8307083" lon="8.7512583"><ele>532.0</ele><time>2026-05-03T06:42:34.681Z</time></trkpt><trkpt lat="39.8307817" lon="8.7512767"><ele>532.0</ele><time>2026-05-03T06:42:37.681Z</time></trkpt><trkpt lat="39.8307817" lon="8.7513983"><ele>532.0</ele><time>2026-05-03T06:42:39.681Z</time></trkpt><trkpt lat="39.8307517" lon="8.751495"><ele>532.0</ele><time>2026-05-03T06:42:40.681Z</time></trkpt><trkpt lat="39.8307183" lon="8.7516083"><ele>532.0</ele><time>2026-05-03T06:42:41.682Z</time></trkpt><trkpt lat="39.8306967" lon="8.7517283"><ele>532.0</ele><time>2026-05-03T06:42:42.681Z</time></trkpt><trkpt lat="39.8306783" lon="8.75184"><ele>532.0</ele><time>2026-05-03T06:42:43.681Z</time></trkpt><trkpt lat="39.8306617" lon="8.75193"><ele>532.0</ele><time>2026-05-03T06:42:44.681Z</time></trkpt><trkpt lat="39.83064" lon="8.7520183"><ele>532.0</ele><time>2026-05-03T06:42:45.681Z</time></trkpt><trkpt lat="39.8306033" lon="8.7521133"><ele>532.0</ele><time>2026-05-03T06:42:46.681Z</time></trkpt><trkpt lat="39.8305517" lon="8.7522017"><ele>532.0</ele><time>2026-05-03T06:42:47.681Z</time></trkpt><trkpt lat="39.8304983" lon="8.7522917"><ele>533.0</ele><time>2026-05-03T06:42:48.681Z</time></trkpt><trkpt lat="39.8304433" lon="8.7523733"><ele>534.0</ele><time>2026-05-03T06:42:49.682Z</time></trkpt><trkpt lat="39.8304" lon="8.7524417"><ele>535.0</ele><time>2026-05-03T06:42:50.682Z</time></trkpt><trkpt lat="39.8303133" lon="8.7525567"><ele>536.0</ele><time>2026-05-03T06:42:52.681Z</time></trkpt><trkpt lat="39.83021" lon="8.75261"><ele>537.0</ele><time>2026-05-03T06:42:54.682Z</time></trkpt><trkpt lat="39.8301317" lon="8.7527033"><ele>536.4</ele><time>2026-05-03T06:42:56.681Z</time></trkpt><trkpt lat="39.8301117" lon="8.7528383"><ele>535.8000000000001</ele><time>2026-05-03T06:42:58.681Z</time></trkpt><trkpt lat="39.8301433" lon="8.7529217"><ele>535.2</ele><time>2026-05-03T06:42:59.682Z</time></trkpt><trkpt lat="39.8301933" lon="8.7530533"><ele>534.6</ele><time>2026-05-03T06:43:00.682Z</time></trkpt><trkpt lat="39.83025" lon="8.7532117"><ele>534.0</ele><time>2026-05-03T06:43:01.681Z</time></trkpt><trkpt lat="39.830285" lon="8.7533717"><ele>530.75</ele><time>2026-05-03T06:43:02.681Z</time></trkpt><trkpt lat="39.830295" lon="8.7535233"><ele>527.5</ele><time>2026-05-03T06:43:03.681Z</time></trkpt><trkpt lat="39.8302867" lon="8.7536867"><ele>524.25</ele><time>2026-05-03T06:43:04.681Z</time></trkpt><trkpt lat="39.8302733" lon="8.753855"><ele>521.0</ele><time>2026-05-03T06:43:05.682Z</time></trkpt><trkpt lat="39.8302517" lon="8.754015"><ele>521.0</ele><time>2026-05-03T06:43:06.681Z</time></trkpt><trkpt lat="39.83024" lon="8.7541733"><ele>521.0</ele><time>2026-05-03T06:43:07.682Z</time></trkpt><trkpt lat="39.8302467" lon="8.754325"><ele>521.0</ele><time>2026-05-03T06:43:08.681Z</time></trkpt><trkpt lat="39.8302783" lon="8.7544467"><ele>521.0</ele><time>2026-05-03T06:43:09.681Z</time></trkpt><trkpt lat="39.83031" lon="8.7545267"><ele>521.0</ele><time>2026-05-03T06:43:10.681Z</time></trkpt><trkpt lat="39.8303883" lon="8.7545483"><ele>520.8333333333333</ele><time>2026-05-03T06:43:12.681Z</time></trkpt><trkpt lat="39.8303433" lon="8.7546417"><ele>520.6666666666666</ele><time>2026-05-03T06:43:17.682Z</time></trkpt><trkpt lat="39.830275" lon="8.7546967"><ele>520.5</ele><time>2026-05-03T06:43:18.682Z</time></trkpt><trkpt lat="39.8302167" lon="8.754775"><ele>520.3333333333334</ele><time>2026-05-03T06:43:19.682Z</time></trkpt><trkpt lat="39.83017" lon="8.7548617"><ele>520.1666666666667</ele><time>2026-05-03T06:43:20.681Z</time></trkpt><trkpt lat="39.8301367" lon="8.7549417"><ele>520.0</ele><time>2026-05-03T06:43:21.681Z</time></trkpt><trkpt lat="39.8301283" lon="8.75503"><ele>520.0</ele><time>2026-05-03T06:43:22.681Z</time></trkpt><trkpt lat="39.8301533" lon="8.7551183"><ele>520.0</ele><time>2026-05-03T06:43:23.681Z</time></trkpt><trkpt lat="39.830205" lon="8.7552333"><ele>520.0</ele><time>2026-05-03T06:43:24.682Z</time></trkpt><trkpt lat="39.830265" lon="8.7552983"><ele>520.0</ele><time>2026-05-03T06:43:25.681Z</time></trkpt><trkpt lat="39.8303333" lon="8.7553583"><ele>520.0</ele><time>2026-05-03T06:43:26.681Z</time></trkpt><trkpt lat="39.8304183" lon="8.755385"><ele>520.0</ele><time>2026-05-03T06:43:27.681Z</time></trkpt><trkpt lat="39.8305217" lon="8.7554033"><ele>522.25</ele><time>2026-05-03T06:43:28.681Z</time></trkpt><trkpt lat="39.8306467" lon="8.755425"><ele>524.5</ele><time>2026-05-03T06:43:29.682Z</time></trkpt><trkpt lat="39.830765" lon="8.7554333"><ele>526.75</ele><time>2026-05-03T06:43:30.681Z</time></trkpt><trkpt lat="39.8308883" lon="8.75545"><ele>529.0</ele><time>2026-05-03T06:43:31.681Z</time></trkpt><trkpt lat="39.8310117" lon="8.7554483"><ele>529.0</ele><time>2026-05-03T06:43:32.681Z</time></trkpt><trkpt lat="39.8311417" lon="8.7554317"><ele>529.0</ele><time>2026-05-03T06:43:33.681Z</time></trkpt><trkpt lat="39.8312833" lon="8.755405"><ele>529.0</ele><time>2026-05-03T06:43:34.681Z</time></trkpt><trkpt lat="39.8314117" lon="8.7553817"><ele>529.0</ele><time>2026-05-03T06:43:35.681Z</time></trkpt><trkpt lat="39.8315183" lon="8.7553767"><ele>529.0</ele><time>2026-05-03T06:43:36.682Z</time></trkpt><trkpt lat="39.8316133" lon="8.7553567"><ele>529.0</ele><time>2026-05-03T06:43:37.681Z</time></trkpt><trkpt lat="39.8317267" lon="8.7553233"><ele>529.0</ele><time>2026-05-03T06:43:38.682Z</time></trkpt><trkpt lat="39.8318483" lon="8.7552783"><ele>529.0</ele><time>2026-05-03T06:43:39.681Z</time></trkpt><trkpt lat="39.8320083" lon="8.7552483"><ele>529.0</ele><time>2026-05-03T06:43:40.682Z</time></trkpt><trkpt lat="39.832175" lon="8.7552333"><ele>529.0</ele><time>2026-05-03T06:43:41.681Z</time></trkpt><trkpt lat="39.8323383" lon="8.7552283"><ele>529.0</ele><time>2026-05-03T06:43:42.682Z</time></trkpt><trkpt lat="39.8325183" lon="8.7552433"><ele>530.5</ele><time>2026-05-03T06:43:43.681Z</time></trkpt><trkpt lat="39.8326617" lon="8.7552483"><ele>532.0</ele><time>2026-05-03T06:43:44.681Z</time></trkpt><trkpt lat="39.8328017" lon="8.7552267"><ele>533.5</ele><time>2026-05-03T06:43:45.682Z</time></trkpt><trkpt lat="39.832915" lon="8.7551917"><ele>535.0</ele><time>2026-05-03T06:43:46.682Z</time></trkpt><trkpt lat="39.8330567" lon="8.7551467"><ele>531.3333333333334</ele><time>2026-05-03T06:43:47.681Z</time></trkpt><trkpt lat="39.8332017" lon="8.7550867"><ele>527.6666666666666</ele><time>2026-05-03T06:43:48.682Z</time></trkpt><trkpt lat="39.8333583" lon="8.755025"><ele>524.0</ele><time>2026-05-03T06:43:49.682Z</time></trkpt><trkpt lat="39.8334933" lon="8.7549483"><ele>524.0</ele><time>2026-05-03T06:43:50.682Z</time></trkpt><trkpt lat="39.8336167" lon="8.75488"><ele>524.0</ele><time>2026-05-03T06:43:51.681Z</time></trkpt><trkpt lat="39.8337283" lon="8.7548183"><ele>524.0</ele><time>2026-05-03T06:43:52.681Z</time></trkpt><trkpt lat="39.8338333" lon="8.7547583"><ele>524.0</ele><time>2026-05-03T06:43:53.681Z</time></trkpt><trkpt lat="39.8339367" lon="8.754675"><ele>524.0</ele><time>2026-05-03T06:43:54.681Z</time></trkpt><trkpt lat="39.83404" lon="8.7545867"><ele>524.0</ele><time>2026-05-03T06:43:55.681Z</time></trkpt><trkpt lat="39.8341383" lon="8.7544883"><ele>524.0</ele><time>2026-05-03T06:43:56.682Z</time></trkpt><trkpt lat="39.834245" lon="8.7543933"><ele>524.0</ele><time>2026-05-03T06:43:57.682Z</time></trkpt><trkpt lat="39.8343483" lon="8.75432"><ele>519.75</ele><time>2026-05-03T06:43:58.681Z</time></trkpt><trkpt lat="39.8344567" lon="8.7542483"><ele>515.5</ele><time>2026-05-03T06:43:59.681Z</time></trkpt><trkpt lat="39.8345683" lon="8.7541567"><ele>511.25</ele><time>2026-05-03T06:44:00.681Z</time></trkpt><trkpt lat="39.8346733" lon="8.7540667"><ele>507.0</ele><time>2026-05-03T06:44:01.682Z</time></trkpt><trkpt lat="39.8347617" lon="8.753995"><ele>507.0</ele><time>2026-05-03T06:44:02.681Z</time></trkpt><trkpt lat="39.8348383" lon="8.7539333"><ele>507.00000000000006</ele><time>2026-05-03T06:44:03.681Z</time></trkpt><trkpt lat="39.834925" lon="8.7538683"><ele>507.00000000000006</ele><time>2026-05-03T06:44:04.681Z</time></trkpt><trkpt lat="39.83501" lon="8.7538083"><ele>507.0</ele><time>2026-05-03T06:44:05.681Z</time></trkpt><trkpt lat="39.8351017" lon="8.7537667"><ele>507.0</ele><time>2026-05-03T06:44:06.682Z</time></trkpt><trkpt lat="39.8351983" lon="8.7537217"><ele>509.40000000000003</ele><time>2026-05-03T06:44:07.681Z</time></trkpt><trkpt lat="39.8352933" lon="8.7536883"><ele>511.80000000000007</ele><time>2026-05-03T06:44:08.681Z</time></trkpt><trkpt lat="39.8353933" lon="8.753655"><ele>514.2</ele><time>2026-05-03T06:44:09.681Z</time></trkpt><trkpt lat="39.8354933" lon="8.75362"><ele>516.6</ele><time>2026-05-03T06:44:10.681Z</time></trkpt><trkpt lat="39.8355883" lon="8.75357"><ele>519.0</ele><time>2026-05-03T06:44:11.681Z</time></trkpt><trkpt lat="39.8356733" lon="8.7534883"><ele>517.0</ele><time>2026-05-03T06:44:12.682Z</time></trkpt><trkpt lat="39.835775" lon="8.7533783"><ele>515.0</ele><time>2026-05-03T06:44:13.682Z</time></trkpt><trkpt lat="39.83587" lon="8.75325"><ele>513.0</ele><time>2026-05-03T06:44:14.681Z</time></trkpt><trkpt lat="39.835975" lon="8.7531267"><ele>511.0</ele><time>2026-05-03T06:44:15.681Z</time></trkpt><trkpt lat="39.83607" lon="8.7530083"><ele>511.0</ele><time>2026-05-03T06:44:16.681Z</time></trkpt><trkpt lat="39.8361517" lon="8.7529033"><ele>511.0</ele><time>2026-05-03T06:44:17.682Z</time></trkpt><trkpt lat="39.8362167" lon="8.7528083"><ele>511.0</ele><time>2026-05-03T06:44:18.681Z</time></trkpt><trkpt lat="39.8362783" lon="8.752725"><ele>511.0</ele><time>2026-05-03T06:44:19.681Z</time></trkpt><trkpt lat="39.8363283" lon="8.7526467"><ele>511.0</ele><time>2026-05-03T06:44:20.681Z</time></trkpt><trkpt lat="39.8363667" lon="8.7525567"><ele>506.20000000000005</ele><time>2026-05-03T06:44:21.681Z</time></trkpt><trkpt lat="39.8363983" lon="8.7524483"><ele>501.40000000000003</ele><time>2026-05-03T06:44:22.681Z</time></trkpt><trkpt lat="39.8364333" lon="8.7523067"><ele>496.6</ele><time>2026-05-03T06:44:23.681Z</time></trkpt><trkpt lat="39.836475" lon="8.75216"><ele>491.8</ele><time>2026-05-03T06:44:24.681Z</time></trkpt><trkpt lat="39.83653" lon="8.7520283"><ele>487.0</ele><time>2026-05-03T06:44:25.681Z</time></trkpt><trkpt lat="39.8365833" lon="8.75191"><ele>483.6666666666667</ele><time>2026-05-03T06:44:26.681Z</time></trkpt><trkpt lat="39.8366233" lon="8.7518"><ele>480.33333333333337</ele><time>2026-05-03T06:44:27.681Z</time></trkpt><trkpt lat="39.8366567" lon="8.7517033"><ele>477.0</ele><time>2026-05-03T06:44:28.682Z</time></trkpt><trkpt lat="39.8366883" lon="8.7516183"><ele>473.66666666666663</ele><time>2026-05-03T06:44:29.682Z</time></trkpt><trkpt lat="39.8367133" lon="8.7515367"><ele>470.3333333333333</ele><time>2026-05-03T06:44:30.682Z</time></trkpt><trkpt lat="39.8367517" lon="8.7514467"><ele>467.0</ele><time>2026-05-03T06:44:31.681Z</time></trkpt><trkpt lat="39.8367867" lon="8.7513717"><ele>465.8</ele><time>2026-05-03T06:44:32.681Z</time></trkpt><trkpt lat="39.8368517" lon="8.7512567"><ele>464.6</ele><time>2026-05-03T06:44:34.681Z</time></trkpt><trkpt lat="39.836895" lon="8.751185"><ele>463.40000000000003</ele><time>2026-05-03T06:44:35.682Z</time></trkpt><trkpt lat="39.836945" lon="8.7511"><ele>462.20000000000005</ele><time>2026-05-03T06:44:36.681Z</time></trkpt><trkpt lat="39.8370183" lon="8.7510017"><ele>461.0</ele><time>2026-05-03T06:44:37.681Z</time></trkpt><trkpt lat="39.83712" lon="8.7509067"><ele>461.0</ele><time>2026-05-03T06:44:38.681Z</time></trkpt><trkpt lat="39.8372367" lon="8.75081"><ele>461.0</ele><time>2026-05-03T06:44:39.681Z</time></trkpt><trkpt lat="39.8373717" lon="8.7506933"><ele>461.0</ele><time>2026-05-03T06:44:40.681Z</time></trkpt><trkpt lat="39.8375367" lon="8.7505817"><ele>459.25</ele><time>2026-05-03T06:44:41.682Z</time></trkpt><trkpt lat="39.8376833" lon="8.75049"><ele>457.5</ele><time>2026-05-03T06:44:42.681Z</time></trkpt><trkpt lat="39.8377983" lon="8.750385"><ele>455.75</ele><time>2026-05-03T06:44:43.681Z</time></trkpt><trkpt lat="39.8379017" lon="8.7502633"><ele>454.0</ele><time>2026-05-03T06:44:44.681Z</time></trkpt><trkpt lat="39.838005" lon="8.7501283"><ele>454.0</ele><time>2026-05-03T06:44:45.681Z</time></trkpt><trkpt lat="39.8381117" lon="8.7499967"><ele>454.0</ele><time>2026-05-03T06:44:46.681Z</time></trkpt><trkpt lat="39.8382" lon="8.74987"><ele>454.0</ele><time>2026-05-03T06:44:47.681Z</time></trkpt><trkpt lat="39.8382867" lon="8.7497367"><ele>454.0</ele><time>2026-05-03T06:44:48.681Z</time></trkpt><trkpt lat="39.8383733" lon="8.7496"><ele>454.0</ele><time>2026-05-03T06:44:49.681Z</time></trkpt><trkpt lat="39.8384517" lon="8.7494533"><ele>454.0</ele><time>2026-05-03T06:44:50.681Z</time></trkpt><trkpt lat="39.8385267" lon="8.74932"><ele>454.0</ele><time>2026-05-03T06:44:51.681Z</time></trkpt><trkpt lat="39.8385833" lon="8.7491967"><ele>454.0</ele><time>2026-05-03T06:44:52.682Z</time></trkpt><trkpt lat="39.838625" lon="8.7490583"><ele>452.2</ele><time>2026-05-03T06:44:53.681Z</time></trkpt><trkpt lat="39.8386817" lon="8.74893"><ele>450.4</ele><time>2026-05-03T06:44:54.681Z</time></trkpt><trkpt lat="39.8387483" lon="8.7488367"><ele>448.6</ele><time>2026-05-03T06:44:55.681Z</time></trkpt><trkpt lat="39.838815" lon="8.74875"><ele>446.8</ele><time>2026-05-03T06:44:56.681Z</time></trkpt><trkpt lat="39.838865" lon="8.74868"><ele>445.0</ele><time>2026-05-03T06:44:57.681Z</time></trkpt><trkpt lat="39.8388967" lon="8.74859"><ele>443.7142857142857</ele><time>2026-05-03T06:44:58.682Z</time></trkpt><trkpt lat="39.8389067" lon="8.7484917"><ele>442.4285714285714</ele><time>2026-05-03T06:44:59.681Z</time></trkpt><trkpt lat="39.8389267" lon="8.748395"><ele>441.1428571428571</ele><time>2026-05-03T06:45:00.681Z</time></trkpt><trkpt lat="39.8389633" lon="8.7483117"><ele>439.8571428571429</ele><time>2026-05-03T06:45:01.681Z</time></trkpt><trkpt lat="39.8390167" lon="8.7482333"><ele>438.57142857142856</ele><time>2026-05-03T06:45:02.682Z</time></trkpt><trkpt lat="39.8390767" lon="8.7481733"><ele>437.2857142857143</ele><time>2026-05-03T06:45:03.681Z</time></trkpt><trkpt lat="39.8391383" lon="8.7481467"><ele>436.0</ele><time>2026-05-03T06:45:04.681Z</time></trkpt><trkpt lat="39.83925" lon="8.7482017"><ele>435.00000000000006</ele><time>2026-05-03T06:45:06.681Z</time></trkpt><trkpt lat="39.8393133" lon="8.74823"><ele>434.0</ele><time>2026-05-03T06:45:07.681Z</time></trkpt><trkpt lat="39.8393933" lon="8.748245"><ele>433.0</ele><time>2026-05-03T06:45:08.681Z</time></trkpt><trkpt lat="39.839465" lon="8.7482533"><ele>432.0</ele><time>2026-05-03T06:45:09.681Z</time></trkpt><trkpt lat="39.8395483" lon="8.748265"><ele>431.00000000000006</ele><time>2026-05-03T06:45:10.681Z</time></trkpt><trkpt lat="39.8396467" lon="8.748285"><ele>430.0</ele><time>2026-05-03T06:45:11.682Z</time></trkpt><trkpt lat="39.8397517" lon="8.748315"><ele>430.0</ele><time>2026-05-03T06:45:12.682Z</time></trkpt><trkpt lat="39.8398367" lon="8.7483467"><ele>430.0</ele><time>2026-05-03T06:45:13.681Z</time></trkpt><trkpt lat="39.8399017" lon="8.7483767"><ele>430.0</ele><time>2026-05-03T06:45:14.682Z</time></trkpt><trkpt lat="39.8399883" lon="8.7483683"><ele>430.0</ele><time>2026-05-03T06:45:16.681Z</time></trkpt><trkpt lat="39.84008" lon="8.7482483"><ele>430.0</ele><time>2026-05-03T06:45:18.681Z</time></trkpt><trkpt lat="39.8401333" lon="8.7481617"><ele>428.2</ele><time>2026-05-03T06:45:19.682Z</time></trkpt><trkpt lat="39.84021" lon="8.7480883"><ele>426.4</ele><time>2026-05-03T06:45:20.681Z</time></trkpt><trkpt lat="39.8402933" lon="8.7480233"><ele>424.6</ele><time>2026-05-03T06:45:21.682Z</time></trkpt><trkpt lat="39.8403833" lon="8.7479583"><ele>422.8</ele><time>2026-05-03T06:45:22.682Z</time></trkpt><trkpt lat="39.84046" lon="8.7479017"><ele>421.0</ele><time>2026-05-03T06:45:23.681Z</time></trkpt><trkpt lat="39.840515" lon="8.7478333"><ele>421.00000000000006</ele><time>2026-05-03T06:45:24.681Z</time></trkpt><trkpt lat="39.8405517" lon="8.74775"><ele>421.0</ele><time>2026-05-03T06:45:25.681Z</time></trkpt><trkpt lat="39.84058" lon="8.7476617"><ele>421.0</ele><time>2026-05-03T06:45:26.682Z</time></trkpt><trkpt lat="39.8406217" lon="8.7475883"><ele>421.0</ele><time>2026-05-03T06:45:27.681Z</time></trkpt><trkpt lat="39.8406767" lon="8.7475167"><ele>421.0</ele><time>2026-05-03T06:45:28.682Z</time></trkpt><trkpt lat="39.8407367" lon="8.74747"><ele>421.00000000000006</ele><time>2026-05-03T06:45:29.682Z</time></trkpt><trkpt lat="39.840805" lon="8.747435"><ele>421.0</ele><time>2026-05-03T06:45:30.681Z</time></trkpt><trkpt lat="39.8408883" lon="8.7474167"><ele>417.25</ele><time>2026-05-03T06:45:31.681Z</time></trkpt><trkpt lat="39.8409983" lon="8.7473967"><ele>413.5</ele><time>2026-05-03T06:45:32.681Z</time></trkpt><trkpt lat="39.84112" lon="8.7473733"><ele>409.75</ele><time>2026-05-03T06:45:33.681Z</time></trkpt><trkpt lat="39.8412317" lon="8.7473517"><ele>406.0</ele><time>2026-05-03T06:45:34.681Z</time></trkpt><trkpt lat="39.8413533" lon="8.74733"><ele>406.0</ele><time>2026-05-03T06:45:35.681Z</time></trkpt><trkpt lat="39.84147" lon="8.747325"><ele>406.0</ele><time>2026-05-03T06:45:36.682Z</time></trkpt><trkpt lat="39.84158" lon="8.7473017"><ele>406.0</ele><time>2026-05-03T06:45:37.681Z</time></trkpt><trkpt lat="39.8417067" lon="8.7472717"><ele>406.0</ele><time>2026-05-03T06:45:38.681Z</time></trkpt><trkpt lat="39.8418383" lon="8.7472417"><ele>404.20000000000005</ele><time>2026-05-03T06:45:39.681Z</time></trkpt><trkpt lat="39.8419417" lon="8.7472133"><ele>402.40000000000003</ele><time>2026-05-03T06:45:40.681Z</time></trkpt><trkpt lat="39.8420383" lon="8.7471733"><ele>400.6</ele><time>2026-05-03T06:45:41.681Z</time></trkpt><trkpt lat="39.8421417" lon="8.7471283"><ele>398.8</ele><time>2026-05-03T06:45:42.681Z</time></trkpt><trkpt lat="39.8422433" lon="8.7470867"><ele>397.0</ele><time>2026-05-03T06:45:43.682Z</time></trkpt><trkpt lat="39.8423467" lon="8.7470467"><ele>397.0</ele><time>2026-05-03T06:45:44.682Z</time></trkpt><trkpt lat="39.8424417" lon="8.74701"><ele>397.0</ele><time>2026-05-03T06:45:45.681Z</time></trkpt><trkpt lat="39.842525" lon="8.7469733"><ele>397.0</ele><time>2026-05-03T06:45:46.681Z</time></trkpt><trkpt lat="39.8426117" lon="8.74694"><ele>397.0</ele><time>2026-05-03T06:45:47.682Z</time></trkpt><trkpt lat="39.8427" lon="8.7469133"><ele>397.0</ele><time>2026-05-03T06:45:48.681Z</time></trkpt><trkpt lat="39.8427883" lon="8.7468833"><ele>394.40000000000003</ele><time>2026-05-03T06:45:49.681Z</time></trkpt><trkpt lat="39.8428817" lon="8.7468533"><ele>391.8</ele><time>2026-05-03T06:45:50.682Z</time></trkpt><trkpt lat="39.8429783" lon="8.7468067"><ele>389.2</ele><time>2026-05-03T06:45:51.681Z</time></trkpt><trkpt lat="39.8430817" lon="8.7467583"><ele>386.6</ele><time>2026-05-03T06:45:52.681Z</time></trkpt><trkpt lat="39.8431867" lon="8.7467167"><ele>384.0</ele><time>2026-05-03T06:45:53.681Z</time></trkpt><trkpt lat="39.8432933" lon="8.7466767"><ele>384.0</ele><time>2026-05-03T06:45:54.681Z</time></trkpt><trkpt lat="39.8434033" lon="8.7466267"><ele>384.0</ele><time>2026-05-03T06:45:55.682Z</time></trkpt><trkpt lat="39.8435217" lon="8.7465717"><ele>384.0</ele><time>2026-05-03T06:45:56.681Z</time></trkpt><trkpt lat="39.84362" lon="8.7465183"><ele>384.0</ele><time>2026-05-03T06:45:57.681Z</time></trkpt><trkpt lat="39.8437083" lon="8.7464633"><ele>384.0</ele><time>2026-05-03T06:45:58.682Z</time></trkpt><trkpt lat="39.8437933" lon="8.7464183"><ele>382.2</ele><time>2026-05-03T06:45:59.682Z</time></trkpt><trkpt lat="39.8438867" lon="8.74637"><ele>380.4</ele><time>2026-05-03T06:46:00.681Z</time></trkpt><trkpt lat="39.8439867" lon="8.74633"><ele>378.6</ele><time>2026-05-03T06:46:01.681Z</time></trkpt><trkpt lat="39.844095" lon="8.7462933"><ele>376.8</ele><time>2026-05-03T06:46:02.682Z</time></trkpt><trkpt lat="39.84421" lon="8.74625"><ele>375.0</ele><time>2026-05-03T06:46:03.681Z</time></trkpt><trkpt lat="39.8443283" lon="8.7462133"><ele>373.0</ele><time>2026-05-03T06:46:04.681Z</time></trkpt><trkpt lat="39.8444567" lon="8.7461833"><ele>371.0</ele><time>2026-05-03T06:46:05.682Z</time></trkpt><trkpt lat="39.8445933" lon="8.7461633"><ele>369.0</ele><time>2026-05-03T06:46:06.682Z</time></trkpt><trkpt lat="39.8447217" lon="8.746145"><ele>367.0</ele><time>2026-05-03T06:46:07.682Z</time></trkpt><trkpt lat="39.84483" lon="8.7461233"><ele>367.0</ele><time>2026-05-03T06:46:08.682Z</time></trkpt><trkpt lat="39.8449283" lon="8.7460917"><ele>367.0</ele><time>2026-05-03T06:46:09.681Z</time></trkpt><trkpt lat="39.84502" lon="8.7460583"><ele>367.0</ele><time>2026-05-03T06:46:10.681Z</time></trkpt><trkpt lat="39.8451333" lon="8.74604"><ele>367.0</ele><time>2026-05-03T06:46:11.681Z</time></trkpt><trkpt lat="39.8452367" lon="8.74604"><ele>367.0</ele><time>2026-05-03T06:46:12.682Z</time></trkpt><trkpt lat="39.8453383" lon="8.7460383"><ele>363.8</ele><time>2026-05-03T06:46:13.681Z</time></trkpt><trkpt lat="39.8454317" lon="8.7460133"><ele>360.6</ele><time>2026-05-03T06:46:14.681Z</time></trkpt><trkpt lat="39.8455233" lon="8.74597"><ele>357.40000000000003</ele><time>2026-05-03T06:46:15.681Z</time></trkpt><trkpt lat="39.84564" lon="8.7459183"><ele>354.20000000000005</ele><time>2026-05-03T06:46:16.681Z</time></trkpt><trkpt lat="39.845755" lon="8.7458817"><ele>351.0</ele><time>2026-05-03T06:46:17.681Z</time></trkpt><trkpt lat="39.8458633" lon="8.74585"><ele>349.5</ele><time>2026-05-03T06:46:18.681Z</time></trkpt><trkpt lat="39.84597" lon="8.74582"><ele>348.0</ele><time>2026-05-03T06:46:19.681Z</time></trkpt><trkpt lat="39.8460983" lon="8.7458017"><ele>346.5</ele><time>2026-05-03T06:46:20.681Z</time></trkpt><trkpt lat="39.8462667" lon="8.74577"><ele>345.0</ele><time>2026-05-03T06:46:21.681Z</time></trkpt><trkpt lat="39.8464467" lon="8.74573"><ele>345.0</ele><time>2026-05-03T06:46:22.681Z</time></trkpt><trkpt lat="39.846615" lon="8.7456817"><ele>345.0</ele><time>2026-05-03T06:46:23.681Z</time></trkpt><trkpt lat="39.8467817" lon="8.7456417"><ele>345.0</ele><time>2026-05-03T06:46:24.682Z</time></trkpt><trkpt lat="39.8469317" lon="8.7456067"><ele>342.75</ele><time>2026-05-03T06:46:25.681Z</time></trkpt><trkpt lat="39.8470733" lon="8.7455583"><ele>340.5</ele><time>2026-05-03T06:46:26.681Z</time></trkpt><trkpt lat="39.8472083" lon="8.7455083"><ele>338.25</ele><time>2026-05-03T06:46:27.682Z</time></trkpt><trkpt lat="39.84734" lon="8.7454517"><ele>336.0</ele><time>2026-05-03T06:46:28.681Z</time></trkpt><trkpt lat="39.8474767" lon="8.7454"><ele>336.0</ele><time>2026-05-03T06:46:29.681Z</time></trkpt><trkpt lat="39.8476083" lon="8.745355"><ele>336.0</ele><time>2026-05-03T06:46:30.681Z</time></trkpt><trkpt lat="39.8477433" lon="8.7453217"><ele>336.0</ele><time>2026-05-03T06:46:31.681Z</time></trkpt><trkpt lat="39.8478717" lon="8.745295"><ele>336.0</ele><time>2026-05-03T06:46:32.681Z</time></trkpt><trkpt lat="39.8479817" lon="8.745265"><ele>333.4</ele><time>2026-05-03T06:46:33.681Z</time></trkpt><trkpt lat="39.8480933" lon="8.74523"><ele>330.8</ele><time>2026-05-03T06:46:34.682Z</time></trkpt><trkpt lat="39.8482" lon="8.745215"><ele>328.2</ele><time>2026-05-03T06:46:35.682Z</time></trkpt><trkpt lat="39.8483033" lon="8.7452067"><ele>325.59999999999997</ele><time>2026-05-03T06:46:36.681Z</time></trkpt><trkpt lat="39.84842" lon="8.74522"><ele>323.0</ele><time>2026-05-03T06:46:37.682Z</time></trkpt><trkpt lat="39.848525" lon="8.7452283"><ele>321.0</ele><time>2026-05-03T06:46:38.681Z</time></trkpt><trkpt lat="39.848605" lon="8.745225"><ele>319.0</ele><time>2026-05-03T06:46:39.681Z</time></trkpt><trkpt lat="39.84868" lon="8.745195"><ele>317.0</ele><time>2026-05-03T06:46:40.681Z</time></trkpt><trkpt lat="39.8487533" lon="8.74514"><ele>315.0</ele><time>2026-05-03T06:46:41.681Z</time></trkpt><trkpt lat="39.8488217" lon="8.7450633"><ele>313.0</ele><time>2026-05-03T06:46:42.682Z</time></trkpt><trkpt lat="39.8488933" lon="8.7449967"><ele>311.0</ele><time>2026-05-03T06:46:43.681Z</time></trkpt><trkpt lat="39.8489667" lon="8.7449517"><ele>310.0</ele><time>2026-05-03T06:46:44.682Z</time></trkpt><trkpt lat="39.8490517" lon="8.7449417"><ele>309.0</ele><time>2026-05-03T06:46:45.682Z</time></trkpt><trkpt lat="39.849155" lon="8.7449717"><ele>308.0</ele><time>2026-05-03T06:46:46.681Z</time></trkpt><trkpt lat="39.849265" lon="8.7450217"><ele>307.0</ele><time>2026-05-03T06:46:47.681Z</time></trkpt><trkpt lat="39.8493667" lon="8.745095"><ele>306.0</ele><time>2026-05-03T06:46:48.681Z</time></trkpt><trkpt lat="39.8494467" lon="8.7451883"><ele>303.75</ele><time>2026-05-03T06:46:49.682Z</time></trkpt><trkpt lat="39.84953" lon="8.7452833"><ele>301.5</ele><time>2026-05-03T06:46:50.681Z</time></trkpt><trkpt lat="39.849615" lon="8.745385"><ele>299.25</ele><time>2026-05-03T06:46:51.681Z</time></trkpt><trkpt lat="39.8497083" lon="8.7454683"><ele>297.0</ele><time>2026-05-03T06:46:52.681Z</time></trkpt><trkpt lat="39.8497967" lon="8.7455617"><ele>297.0</ele><time>2026-05-03T06:46:53.682Z</time></trkpt><trkpt lat="39.84989" lon="8.7456583"><ele>297.0</ele><time>2026-05-03T06:46:54.681Z</time></trkpt><trkpt lat="39.8499783" lon="8.7457567"><ele>297.0</ele><time>2026-05-03T06:46:55.682Z</time></trkpt><trkpt lat="39.85007" lon="8.74584"><ele>297.0</ele><time>2026-05-03T06:46:56.681Z</time></trkpt><trkpt lat="39.85017" lon="8.7459233"><ele>294.8</ele><time>2026-05-03T06:46:57.681Z</time></trkpt><trkpt lat="39.8502733" lon="8.74601"><ele>292.6</ele><time>2026-05-03T06:46:58.681Z</time></trkpt><trkpt lat="39.850365" lon="8.7460983"><ele>290.40000000000003</ele><time>2026-05-03T06:46:59.682Z</time></trkpt><trkpt lat="39.8504383" lon="8.7461883"><ele>288.2</ele><time>2026-05-03T06:47:00.682Z</time></trkpt><trkpt lat="39.8504983" lon="8.74627"><ele>286.0</ele><time>2026-05-03T06:47:01.682Z</time></trkpt><trkpt lat="39.8505567" lon="8.7463167"><ele>286.0</ele><time>2026-05-03T06:47:02.681Z</time></trkpt><trkpt lat="39.8506683" lon="8.7462867"><ele>286.0</ele><time>2026-05-03T06:47:04.681Z</time></trkpt><trkpt lat="39.8507667" lon="8.7461683"><ele>286.0</ele><time>2026-05-03T06:47:06.681Z</time></trkpt><trkpt lat="39.850845" lon="8.74609"><ele>286.0</ele><time>2026-05-03T06:47:07.682Z</time></trkpt><trkpt lat="39.8509433" lon="8.7460133"><ele>283.0</ele><time>2026-05-03T06:47:08.682Z</time></trkpt><trkpt lat="39.851045" lon="8.7459433"><ele>280.0</ele><time>2026-05-03T06:47:09.681Z</time></trkpt><trkpt lat="39.8511617" lon="8.7458817"><ele>277.0</ele><time>2026-05-03T06:47:10.681Z</time></trkpt><trkpt lat="39.85127" lon="8.74581"><ele>274.0</ele><time>2026-05-03T06:47:11.681Z</time></trkpt><trkpt lat="39.8513667" lon="8.745745"><ele>274.0</ele><time>2026-05-03T06:47:12.681Z</time></trkpt><trkpt lat="39.85148" lon="8.7457"><ele>274.0</ele><time>2026-05-03T06:47:13.681Z</time></trkpt><trkpt lat="39.8515983" lon="8.7456767"><ele>274.0</ele><time>2026-05-03T06:47:14.681Z</time></trkpt><trkpt lat="39.8517133" lon="8.74566"><ele>274.0</ele><time>2026-05-03T06:47:15.682Z</time></trkpt><trkpt lat="39.8518217" lon="8.7456633"><ele>271.59999999999997</ele><time>2026-05-03T06:47:16.681Z</time></trkpt><trkpt lat="39.8519167" lon="8.7456783"><ele>269.2</ele><time>2026-05-03T06:47:17.681Z</time></trkpt><trkpt lat="39.852005" lon="8.745685"><ele>266.79999999999995</ele><time>2026-05-03T06:47:18.681Z</time></trkpt><trkpt lat="39.8521" lon="8.74567"><ele>264.4</ele><time>2026-05-03T06:47:19.681Z</time></trkpt><trkpt lat="39.852205" lon="8.7456033"><ele>262.0</ele><time>2026-05-03T06:47:20.682Z</time></trkpt><trkpt lat="39.852315" lon="8.7455267"><ele>262.0</ele><time>2026-05-03T06:47:21.681Z</time></trkpt><trkpt lat="39.8524167" lon="8.7454533"><ele>262.0</ele><time>2026-05-03T06:47:22.681Z</time></trkpt><trkpt lat="39.8525183" lon="8.745385"><ele>262.0</ele><time>2026-05-03T06:47:23.681Z</time></trkpt><trkpt lat="39.8526317" lon="8.7453367"><ele>262.0</ele><time>2026-05-03T06:47:24.681Z</time></trkpt><trkpt lat="39.8527417" lon="8.7453033"><ele>260.6</ele><time>2026-05-03T06:47:25.681Z</time></trkpt><trkpt lat="39.8528617" lon="8.74529"><ele>259.2</ele><time>2026-05-03T06:47:26.681Z</time></trkpt><trkpt lat="39.8529617" lon="8.7453067"><ele>257.8</ele><time>2026-05-03T06:47:27.682Z</time></trkpt><trkpt lat="39.8530533" lon="8.74534"><ele>256.4</ele><time>2026-05-03T06:47:28.682Z</time></trkpt><trkpt lat="39.8531367" lon="8.7453733"><ele>255.0</ele><time>2026-05-03T06:47:29.682Z</time></trkpt><trkpt lat="39.853235" lon="8.7453983"><ele>255.0</ele><time>2026-05-03T06:47:30.681Z</time></trkpt><trkpt lat="39.8533283" lon="8.7454"><ele>255.0</ele><time>2026-05-03T06:47:31.681Z</time></trkpt><trkpt lat="39.8534083" lon="8.7453967"><ele>255.0</ele><time>2026-05-03T06:47:32.681Z</time></trkpt><trkpt lat="39.85348" lon="8.74541"><ele>255.0</ele><time>2026-05-03T06:47:33.682Z</time></trkpt><trkpt lat="39.8535433" lon="8.7454517"><ele>255.0</ele><time>2026-05-03T06:47:34.682Z</time></trkpt><trkpt lat="39.8536133" lon="8.7455283"><ele>255.0</ele><time>2026-05-03T06:47:35.681Z</time></trkpt><trkpt lat="39.8537017" lon="8.7456"><ele>252.5</ele><time>2026-05-03T06:47:36.681Z</time></trkpt><trkpt lat="39.8538117" lon="8.7456583"><ele>250.0</ele><time>2026-05-03T06:47:37.681Z</time></trkpt><trkpt lat="39.8539333" lon="8.7457067"><ele>247.5</ele><time>2026-05-03T06:47:38.681Z</time></trkpt><trkpt lat="39.85406" lon="8.7457533"><ele>245.0</ele><time>2026-05-03T06:47:39.681Z</time></trkpt><trkpt lat="39.85419" lon="8.7458083"><ele>243.75</ele><time>2026-05-03T06:47:40.681Z</time></trkpt><trkpt lat="39.8543117" lon="8.7458567"><ele>242.5</ele><time>2026-05-03T06:47:41.682Z</time></trkpt><trkpt lat="39.8544217" lon="8.7458933"><ele>241.25</ele><time>2026-05-03T06:47:42.681Z</time></trkpt><trkpt lat="39.8545267" lon="8.7459117"><ele>240.0</ele><time>2026-05-03T06:47:43.682Z</time></trkpt><trkpt lat="39.8546567" lon="8.7459183"><ele>240.0</ele><time>2026-05-03T06:47:44.681Z</time></trkpt><trkpt lat="39.854795" lon="8.7459167"><ele>240.0</ele><time>2026-05-03T06:47:45.681Z</time></trkpt><trkpt lat="39.85494" lon="8.7459167"><ele>240.0</ele><time>2026-05-03T06:47:46.681Z</time></trkpt><trkpt lat="39.8550833" lon="8.7459283"><ele>240.0</ele><time>2026-05-03T06:47:47.681Z</time></trkpt><trkpt lat="39.855205" lon="8.7459417"><ele>238.8</ele><time>2026-05-03T06:47:48.682Z</time></trkpt><trkpt lat="39.85531" lon="8.7459617"><ele>237.6</ele><time>2026-05-03T06:47:49.681Z</time></trkpt><trkpt lat="39.8554017" lon="8.7459767"><ele>236.39999999999998</ele><time>2026-05-03T06:47:50.681Z</time></trkpt><trkpt lat="39.8555017" lon="8.74596"><ele>235.2</ele><time>2026-05-03T06:47:51.682Z</time></trkpt><trkpt lat="39.8556" lon="8.7459117"><ele>234.0</ele><time>2026-05-03T06:47:52.681Z</time></trkpt><trkpt lat="39.8557133" lon="8.7458433"><ele>234.0</ele><time>2026-05-03T06:47:53.682Z</time></trkpt><trkpt lat="39.85582" lon="8.745775"><ele>233.99999999999997</ele><time>2026-05-03T06:47:54.681Z</time></trkpt><trkpt lat="39.8559183" lon="8.7457167"><ele>233.99999999999997</ele><time>2026-05-03T06:47:55.682Z</time></trkpt><trkpt lat="39.856015" lon="8.7456617"><ele>234.0</ele><time>2026-05-03T06:47:56.681Z</time></trkpt><trkpt lat="39.8561167" lon="8.7456333"><ele>234.0</ele><time>2026-05-03T06:47:57.681Z</time></trkpt><trkpt lat="39.8562167" lon="8.7456217"><ele>232.66666666666666</ele><time>2026-05-03T06:47:58.681Z</time></trkpt><trkpt lat="39.8563117" lon="8.745585"><ele>231.33333333333331</ele><time>2026-05-03T06:47:59.681Z</time></trkpt><trkpt lat="39.856395" lon="8.7455133"><ele>230.0</ele><time>2026-05-03T06:48:00.681Z</time></trkpt><trkpt lat="39.8564567" lon="8.7454283"><ele>228.66666666666666</ele><time>2026-05-03T06:48:01.682Z</time></trkpt><trkpt lat="39.8565083" lon="8.7453533"><ele>227.33333333333331</ele><time>2026-05-03T06:48:02.681Z</time></trkpt><trkpt lat="39.85654" lon="8.7452817"><ele>226.0</ele><time>2026-05-03T06:48:03.681Z</time></trkpt><trkpt lat="39.856545" lon="8.7451517"><ele>223.0</ele><time>2026-05-03T06:48:05.681Z</time></trkpt><trkpt lat="39.8564667" lon="8.7450333"><ele>220.00000000000003</ele><time>2026-05-03T06:48:07.681Z</time></trkpt><trkpt lat="39.8564017" lon="8.7449783"><ele>217.0</ele><time>2026-05-03T06:48:08.681Z</time></trkpt><trkpt lat="39.8563283" lon="8.7449283"><ele>214.0</ele><time>2026-05-03T06:48:09.682Z</time></trkpt><trkpt lat="39.8562383" lon="8.7448867"><ele>211.0</ele><time>2026-05-03T06:48:10.682Z</time></trkpt><trkpt lat="39.8561317" lon="8.744845"><ele>211.0</ele><time>2026-05-03T06:48:11.682Z</time></trkpt><trkpt lat="39.8560283" lon="8.7448"><ele>211.0</ele><time>2026-05-03T06:48:12.682Z</time></trkpt><trkpt lat="39.855935" lon="8.7447467"><ele>211.0</ele><time>2026-05-03T06:48:13.682Z</time></trkpt><trkpt lat="39.855845" lon="8.7446817"><ele>211.0</ele><time>2026-05-03T06:48:14.682Z</time></trkpt><trkpt lat="39.8557617" lon="8.7446117"><ele>211.0</ele><time>2026-05-03T06:48:15.681Z</time></trkpt><trkpt lat="39.855675" lon="8.7445633"><ele>212.14285714285714</ele><time>2026-05-03T06:48:16.681Z</time></trkpt><trkpt lat="39.8555967" lon="8.74453"><ele>213.28571428571428</ele><time>2026-05-03T06:48:17.681Z</time></trkpt><trkpt lat="39.8555267" lon="8.744505"><ele>214.42857142857144</ele><time>2026-05-03T06:48:18.681Z</time></trkpt><trkpt lat="39.8554683" lon="8.7444633"><ele>215.57142857142856</ele><time>2026-05-03T06:48:19.682Z</time></trkpt><trkpt lat="39.8554133" lon="8.7444033"><ele>216.7142857142857</ele><time>2026-05-03T06:48:20.681Z</time></trkpt><trkpt lat="39.8553717" lon="8.7443217"><ele>217.85714285714286</ele><time>2026-05-03T06:48:21.681Z</time></trkpt><trkpt lat="39.8553233" lon="8.74424"><ele>219.0</ele><time>2026-05-03T06:48:22.681Z</time></trkpt><trkpt lat="39.855275" lon="8.7441617"><ele>216.0</ele><time>2026-05-03T06:48:23.681Z</time></trkpt><trkpt lat="39.8552367" lon="8.74407"><ele>213.0</ele><time>2026-05-03T06:48:24.682Z</time></trkpt><trkpt lat="39.8552317" lon="8.7439767"><ele>210.0</ele><time>2026-05-03T06:48:25.681Z</time></trkpt><trkpt lat="39.8552767" lon="8.7438533"><ele>207.0</ele><time>2026-05-03T06:48:27.681Z</time></trkpt><trkpt lat="39.855375" lon="8.74383"><ele>204.0</ele><time>2026-05-03T06:48:28.681Z</time></trkpt><trkpt lat="39.8554633" lon="8.7438133"><ele>201.0</ele><time>2026-05-03T06:48:29.681Z</time></trkpt><trkpt lat="39.8555667" lon="8.7438083"><ele>201.0</ele><time>2026-05-03T06:48:30.682Z</time></trkpt><trkpt lat="39.855675" lon="8.7438317"><ele>201.0</ele><time>2026-05-03T06:48:31.681Z</time></trkpt><trkpt lat="39.8557917" lon="8.743905"><ele>201.0</ele><time>2026-05-03T06:48:32.681Z</time></trkpt><trkpt lat="39.8558917" lon="8.743965"><ele>201.0</ele><time>2026-05-03T06:48:33.681Z</time></trkpt><trkpt lat="39.8559767" lon="8.74401"><ele>201.0</ele><time>2026-05-03T06:48:34.681Z</time></trkpt><trkpt lat="39.8560617" lon="8.74401"><ele>199.66666666666666</ele><time>2026-05-03T06:48:35.681Z</time></trkpt><trkpt lat="39.856135" lon="8.7439933"><ele>198.33333333333331</ele><time>2026-05-03T06:48:36.682Z</time></trkpt><trkpt lat="39.856205" lon="8.74396"><ele>197.0</ele><time>2026-05-03T06:48:37.682Z</time></trkpt><trkpt lat="39.856285" lon="8.7439367"><ele>195.66666666666666</ele><time>2026-05-03T06:48:38.681Z</time></trkpt><trkpt lat="39.85637" lon="8.7439333"><ele>194.33333333333331</ele><time>2026-05-03T06:48:39.681Z</time></trkpt><trkpt lat="39.8564533" lon="8.74395"><ele>193.0</ele><time>2026-05-03T06:48:40.681Z</time></trkpt><trkpt lat="39.8565383" lon="8.7439933"><ele>193.0</ele><time>2026-05-03T06:48:41.682Z</time></trkpt><trkpt lat="39.8566233" lon="8.7440617"><ele>193.0</ele><time>2026-05-03T06:48:42.681Z</time></trkpt><trkpt lat="39.8567017" lon="8.7441567"><ele>193.0</ele><time>2026-05-03T06:48:43.681Z</time></trkpt><trkpt lat="39.8567883" lon="8.7442383"><ele>193.0</ele><time>2026-05-03T06:48:44.681Z</time></trkpt><trkpt lat="39.8568967" lon="8.7442817"><ele>193.0</ele><time>2026-05-03T06:48:45.682Z</time></trkpt><trkpt lat="39.85701" lon="8.74431"><ele>192.25</ele><time>2026-05-03T06:48:46.682Z</time></trkpt><trkpt lat="39.8571267" lon="8.74434"><ele>191.5</ele><time>2026-05-03T06:48:47.681Z</time></trkpt><trkpt lat="39.8572417" lon="8.7443817"><ele>190.75</ele><time>2026-05-03T06:48:48.681Z</time></trkpt><trkpt lat="39.8573467" lon="8.7444283"><ele>190.0</ele><time>2026-05-03T06:48:49.681Z</time></trkpt><trkpt lat="39.8574633" lon="8.74452"><ele>190.0</ele><time>2026-05-03T06:48:50.681Z</time></trkpt><trkpt lat="39.85758" lon="8.7446133"><ele>190.0</ele><time>2026-05-03T06:48:51.682Z</time></trkpt><trkpt lat="39.8576617" lon="8.7447083"><ele>190.0</ele><time>2026-05-03T06:48:52.681Z</time></trkpt><trkpt lat="39.8577683" lon="8.7447867"><ele>190.0</ele><time>2026-05-03T06:48:53.681Z</time></trkpt><trkpt lat="39.8578767" lon="8.7448667"><ele>187.0</ele><time>2026-05-03T06:48:54.681Z</time></trkpt><trkpt lat="39.8579817" lon="8.744905"><ele>184.0</ele><time>2026-05-03T06:48:55.682Z</time></trkpt><trkpt lat="39.8580833" lon="8.7449183"><ele>181.0</ele><time>2026-05-03T06:48:56.682Z</time></trkpt><trkpt lat="39.858195" lon="8.744905"><ele>178.0</ele><time>2026-05-03T06:48:57.682Z</time></trkpt><trkpt lat="39.8583083" lon="8.7449017"><ele>175.0</ele><time>2026-05-03T06:48:58.681Z</time></trkpt><trkpt lat="39.85843" lon="8.7449217"><ele>173.25</ele><time>2026-05-03T06:48:59.681Z</time></trkpt><trkpt lat="39.85853" lon="8.7449533"><ele>171.5</ele><time>2026-05-03T06:49:00.681Z</time></trkpt><trkpt lat="39.8586433" lon="8.7450033"><ele>169.75</ele><time>2026-05-03T06:49:01.681Z</time></trkpt><trkpt lat="39.85876" lon="8.7450717"><ele>168.0</ele><time>2026-05-03T06:49:02.681Z</time></trkpt><trkpt lat="39.8588683" lon="8.74516"><ele>167.0</ele><time>2026-05-03T06:49:03.681Z</time></trkpt><trkpt lat="39.8589767" lon="8.7452533"><ele>166.0</ele><time>2026-05-03T06:49:04.681Z</time></trkpt><trkpt lat="39.8590917" lon="8.74535"><ele>165.0</ele><time>2026-05-03T06:49:05.682Z</time></trkpt><trkpt lat="39.8592167" lon="8.7454517"><ele>164.0</ele><time>2026-05-03T06:49:06.681Z</time></trkpt><trkpt lat="39.8593433" lon="8.7455417"><ele>161.79999999999998</ele><time>2026-05-03T06:49:07.682Z</time></trkpt><trkpt lat="39.8594533" lon="8.7456033"><ele>159.6</ele><time>2026-05-03T06:49:08.682Z</time></trkpt><trkpt lat="39.8595367" lon="8.7456733"><ele>157.4</ele><time>2026-05-03T06:49:09.681Z</time></trkpt><trkpt lat="39.8596017" lon="8.7457733"><ele>155.2</ele><time>2026-05-03T06:49:10.681Z</time></trkpt><trkpt lat="39.8596617" lon="8.7458817"><ele>153.0</ele><time>2026-05-03T06:49:11.681Z</time></trkpt><trkpt lat="39.8597067" lon="8.7459883"><ele>152.33333333333334</ele><time>2026-05-03T06:49:12.681Z</time></trkpt><trkpt lat="39.8597767" lon="8.7461117"><ele>151.66666666666666</ele><time>2026-05-03T06:49:13.681Z</time></trkpt><trkpt lat="39.8598367" lon="8.7462033"><ele>151.0</ele><time>2026-05-03T06:49:14.681Z</time></trkpt><trkpt lat="39.8598667" lon="8.746295"><ele>150.33333333333331</ele><time>2026-05-03T06:49:15.681Z</time></trkpt><trkpt lat="39.8598633" lon="8.74638"><ele>149.66666666666666</ele><time>2026-05-03T06:49:16.682Z</time></trkpt><trkpt lat="39.8598267" lon="8.7464617"><ele>149.0</ele><time>2026-05-03T06:49:17.681Z</time></trkpt><trkpt lat="39.85974" lon="8.7465383"><ele>149.0</ele><time>2026-05-03T06:49:18.682Z</time></trkpt><trkpt lat="39.8596733" lon="8.746635"><ele>149.0</ele><time>2026-05-03T06:49:19.681Z</time></trkpt><trkpt lat="39.8596233" lon="8.74675"><ele>149.0</ele><time>2026-05-03T06:49:20.681Z</time></trkpt><trkpt lat="39.859615" lon="8.74686"><ele>149.0</ele><time>2026-05-03T06:49:21.681Z</time></trkpt><trkpt lat="39.8596483" lon="8.7469417"><ele>149.0</ele><time>2026-05-03T06:49:22.682Z</time></trkpt><trkpt lat="39.8597217" lon="8.7469917"><ele>149.0</ele><time>2026-05-03T06:49:23.681Z</time></trkpt><trkpt lat="39.8598117" lon="8.7470317"><ele>147.0</ele><time>2026-05-03T06:49:24.681Z</time></trkpt><trkpt lat="39.8599233" lon="8.7470767"><ele>145.0</ele><time>2026-05-03T06:49:25.682Z</time></trkpt><trkpt lat="39.860055" lon="8.7471517"><ele>143.0</ele><time>2026-05-03T06:49:26.682Z</time></trkpt><trkpt lat="39.8602017" lon="8.7472517"><ele>141.0</ele><time>2026-05-03T06:49:27.681Z</time></trkpt><trkpt lat="39.8603567" lon="8.7473617"><ele>141.0</ele><time>2026-05-03T06:49:28.682Z</time></trkpt><trkpt lat="39.8605" lon="8.7474833"><ele>141.0</ele><time>2026-05-03T06:49:29.681Z</time></trkpt><trkpt lat="39.860635" lon="8.7475917"><ele>141.0</ele><time>2026-05-03T06:49:30.681Z</time></trkpt><trkpt lat="39.86076" lon="8.7477017"><ele>141.5</ele><time>2026-05-03T06:49:31.682Z</time></trkpt><trkpt lat="39.86087" lon="8.7478333"><ele>142.0</ele><time>2026-05-03T06:49:32.682Z</time></trkpt><trkpt lat="39.8609733" lon="8.7479717"><ele>142.5</ele><time>2026-05-03T06:49:33.681Z</time></trkpt><trkpt lat="39.8610717" lon="8.748095"><ele>143.0</ele><time>2026-05-03T06:49:34.681Z</time></trkpt><trkpt lat="39.8611933" lon="8.7482233"><ele>143.0</ele><time>2026-05-03T06:49:35.681Z</time></trkpt><trkpt lat="39.8613283" lon="8.7483333"><ele>143.0</ele><time>2026-05-03T06:49:36.682Z</time></trkpt><trkpt lat="39.8614683" lon="8.7484383"><ele>143.0</ele><time>2026-05-03T06:49:37.681Z</time></trkpt><trkpt lat="39.861605" lon="8.7485433"><ele>142.0</ele><time>2026-05-03T06:49:38.681Z</time></trkpt><trkpt lat="39.8617383" lon="8.748645"><ele>141.0</ele><time>2026-05-03T06:49:39.682Z</time></trkpt><trkpt lat="39.8618783" lon="8.748755"><ele>140.0</ele><time>2026-05-03T06:49:40.682Z</time></trkpt><trkpt lat="39.8620317" lon="8.748875"><ele>140.0</ele><time>2026-05-03T06:49:41.681Z</time></trkpt><trkpt lat="39.8621917" lon="8.749"><ele>140.0</ele><time>2026-05-03T06:49:42.682Z</time></trkpt><trkpt lat="39.86236" lon="8.7491183"><ele>140.0</ele><time>2026-05-03T06:49:43.681Z</time></trkpt><trkpt lat="39.86254" lon="8.749255"><ele>137.0</ele><time>2026-05-03T06:49:44.681Z</time></trkpt><trkpt lat="39.8627317" lon="8.7493933"><ele>134.0</ele><time>2026-05-03T06:49:45.681Z</time></trkpt><trkpt lat="39.86293" lon="8.7495383"><ele>131.0</ele><time>2026-05-03T06:49:46.681Z</time></trkpt><trkpt lat="39.8631317" lon="8.7496783"><ele>131.0</ele><time>2026-05-03T06:49:47.681Z</time></trkpt><trkpt lat="39.8633367" lon="8.7498217"><ele>131.0</ele><time>2026-05-03T06:49:48.681Z</time></trkpt><trkpt lat="39.8635417" lon="8.74996"><ele>129.66666666666666</ele><time>2026-05-03T06:49:49.681Z</time></trkpt><trkpt lat="39.863735" lon="8.7500817"><ele>128.33333333333334</ele><time>2026-05-03T06:49:50.682Z</time></trkpt><trkpt lat="39.86395" lon="8.75019"><ele>127.0</ele><time>2026-05-03T06:49:51.681Z</time></trkpt><trkpt lat="39.8641583" lon="8.7502933"><ele>128.0</ele><time>2026-05-03T06:49:52.681Z</time></trkpt><trkpt lat="39.86437" lon="8.75039"><ele>129.0</ele><time>2026-05-03T06:49:53.682Z</time></trkpt><trkpt lat="39.86459" lon="8.7504933"><ele>129.0</ele><time>2026-05-03T06:49:54.681Z</time></trkpt><trkpt lat="39.864795" lon="8.7505867"><ele>129.0</ele><time>2026-05-03T06:49:55.682Z</time></trkpt><trkpt lat="39.864985" lon="8.7506817"><ele>129.0</ele><time>2026-05-03T06:49:56.681Z</time></trkpt><trkpt lat="39.8651767" lon="8.7507783"><ele>128.66666666666666</ele><time>2026-05-03T06:49:57.681Z</time></trkpt><trkpt lat="39.8653717" lon="8.7508817"><ele>128.33333333333331</ele><time>2026-05-03T06:49:58.681Z</time></trkpt><trkpt lat="39.865555" lon="8.75097"><ele>128.0</ele><time>2026-05-03T06:49:59.681Z</time></trkpt><trkpt lat="39.8657367" lon="8.7510583"><ele>128.33333333333331</ele><time>2026-05-03T06:50:00.681Z</time></trkpt><trkpt lat="39.8659117" lon="8.7511383"><ele>128.66666666666666</ele><time>2026-05-03T06:50:01.682Z</time></trkpt><trkpt lat="39.8660633" lon="8.7512133"><ele>129.0</ele><time>2026-05-03T06:50:02.682Z</time></trkpt><trkpt lat="39.86621" lon="8.75128"><ele>129.0</ele><time>2026-05-03T06:50:03.682Z</time></trkpt><trkpt lat="39.866325" lon="8.7513317"><ele>129.0</ele><time>2026-05-03T06:50:04.681Z</time></trkpt><trkpt lat="39.8663983" lon="8.751365"><ele>129.0</ele><time>2026-05-03T06:50:05.681Z</time></trkpt><trkpt lat="39.866485" lon="8.7513967"><ele>129.0</ele><time>2026-05-03T06:50:07.682Z</time></trkpt><trkpt lat="39.8665383" lon="8.7514567"><ele>129.0</ele><time>2026-05-03T06:50:32.682Z</time></trkpt><trkpt lat="39.8666033" lon="8.75153"><ele>129.0</ele><time>2026-05-03T06:50:33.681Z</time></trkpt><trkpt lat="39.8666883" lon="8.7516417"><ele>129.0</ele><time>2026-05-03T06:50:34.682Z</time></trkpt><trkpt lat="39.8667767" lon="8.7517883"><ele>129.0</ele><time>2026-05-03T06:50:35.681Z</time></trkpt><trkpt lat="39.8668733" lon="8.75195"><ele>129.0</ele><time>2026-05-03T06:50:36.681Z</time></trkpt><trkpt lat="39.86696" lon="8.7521033"><ele>129.0</ele><time>2026-05-03T06:50:37.682Z</time></trkpt><trkpt lat="39.8670467" lon="8.75225"><ele>131.0</ele><time>2026-05-03T06:50:38.682Z</time></trkpt><trkpt lat="39.867135" lon="8.7523833"><ele>133.0</ele><time>2026-05-03T06:50:39.682Z</time></trkpt><trkpt lat="39.8672283" lon="8.7525183"><ele>135.0</ele><time>2026-05-03T06:50:40.681Z</time></trkpt><trkpt lat="39.86733" lon="8.7526483"><ele>137.0</ele><time>2026-05-03T06:50:41.681Z</time></trkpt><trkpt lat="39.86744" lon="8.7527717"><ele>137.0</ele><time>2026-05-03T06:50:42.681Z</time></trkpt><trkpt lat="39.86756" lon="8.7528933"><ele>137.0</ele><time>2026-05-03T06:50:43.681Z</time></trkpt><trkpt lat="39.86768" lon="8.7529967"><ele>137.0</ele><time>2026-05-03T06:50:44.682Z</time></trkpt><trkpt lat="39.8677983" lon="8.7530933"><ele>137.0</ele><time>2026-05-03T06:50:45.681Z</time></trkpt><trkpt lat="39.8679233" lon="8.7531967"><ele>138.5</ele><time>2026-05-03T06:50:46.682Z</time></trkpt><trkpt lat="39.8680483" lon="8.7533033"><ele>140.0</ele><time>2026-05-03T06:50:47.681Z</time></trkpt><trkpt lat="39.868165" lon="8.7534"><ele>141.5</ele><time>2026-05-03T06:50:48.682Z</time></trkpt><trkpt lat="39.86828" lon="8.7534817"><ele>143.0</ele><time>2026-05-03T06:50:49.682Z</time></trkpt><trkpt lat="39.868375" lon="8.75356"><ele>144.6</ele><time>2026-05-03T06:50:50.682Z</time></trkpt><trkpt lat="39.8684633" lon="8.7536383"><ele>146.20000000000002</ele><time>2026-05-03T06:50:51.681Z</time></trkpt><trkpt lat="39.8685217" lon="8.7537267"><ele>147.8</ele><time>2026-05-03T06:50:52.681Z</time></trkpt><trkpt lat="39.8685583" lon="8.7538267"><ele>149.4</ele><time>2026-05-03T06:50:53.682Z</time></trkpt><trkpt lat="39.8685583" lon="8.75395"><ele>151.0</ele><time>2026-05-03T06:50:54.681Z</time></trkpt><trkpt lat="39.8685233" lon="8.7540733"><ele>151.0</ele><time>2026-05-03T06:50:55.682Z</time></trkpt><trkpt lat="39.86847" lon="8.7542117"><ele>151.0</ele><time>2026-05-03T06:50:56.682Z</time></trkpt><trkpt lat="39.8684" lon="8.7543733"><ele>151.0</ele><time>2026-05-03T06:50:57.681Z</time></trkpt><trkpt lat="39.8683283" lon="8.7545383"><ele>151.0</ele><time>2026-05-03T06:50:58.681Z</time></trkpt><trkpt lat="39.8682633" lon="8.7547"><ele>151.4</ele><time>2026-05-03T06:50:59.682Z</time></trkpt><trkpt lat="39.868215" lon="8.75485"><ele>151.8</ele><time>2026-05-03T06:51:00.681Z</time></trkpt><trkpt lat="39.8681833" lon="8.7549767"><ele>152.20000000000002</ele><time>2026-05-03T06:51:01.682Z</time></trkpt><trkpt lat="39.868155" lon="8.7550717"><ele>152.6</ele><time>2026-05-03T06:51:02.681Z</time></trkpt><trkpt lat="39.8681533" lon="8.75516"><ele>153.0</ele><time>2026-05-03T06:51:03.681Z</time></trkpt><trkpt lat="39.8681767" lon="8.7552567"><ele>156.0</ele><time>2026-05-03T06:51:04.681Z</time></trkpt><trkpt lat="39.86822" lon="8.7553433"><ele>159.0</ele><time>2026-05-03T06:51:05.681Z</time></trkpt><trkpt lat="39.868295" lon="8.755395"><ele>162.0</ele><time>2026-05-03T06:51:06.681Z</time></trkpt><trkpt lat="39.8683833" lon="8.75541"><ele>165.0</ele><time>2026-05-03T06:51:07.682Z</time></trkpt><trkpt lat="39.8684817" lon="8.75539"><ele>168.0</ele><time>2026-05-03T06:51:08.681Z</time></trkpt><trkpt lat="39.8685933" lon="8.7553483"><ele>171.75</ele><time>2026-05-03T06:51:09.681Z</time></trkpt><trkpt lat="39.86871" lon="8.7552983"><ele>175.5</ele><time>2026-05-03T06:51:10.682Z</time></trkpt><trkpt lat="39.86884" lon="8.75526"><ele>179.25</ele><time>2026-05-03T06:51:11.682Z</time></trkpt><trkpt lat="39.86898" lon="8.7552367"><ele>183.0</ele><time>2026-05-03T06:51:12.682Z</time></trkpt><trkpt lat="39.8691317" lon="8.7552317"><ele>185.0</ele><time>2026-05-03T06:51:13.682Z</time></trkpt><trkpt lat="39.86928" lon="8.75524"><ele>187.0</ele><time>2026-05-03T06:51:14.681Z</time></trkpt><trkpt lat="39.86943" lon="8.7552483"><ele>189.0</ele><time>2026-05-03T06:51:15.681Z</time></trkpt><trkpt lat="39.8695783" lon="8.755245"><ele>191.0</ele><time>2026-05-03T06:51:16.681Z</time></trkpt><trkpt lat="39.869735" lon="8.7552383"><ele>191.0</ele><time>2026-05-03T06:51:17.681Z</time></trkpt><trkpt lat="39.86989" lon="8.7552333"><ele>191.0</ele><time>2026-05-03T06:51:18.681Z</time></trkpt><trkpt lat="39.870055" lon="8.75524"><ele>191.0</ele><time>2026-05-03T06:51:19.681Z</time></trkpt><trkpt lat="39.87021" lon="8.7552383"><ele>191.33333333333331</ele><time>2026-05-03T06:51:20.681Z</time></trkpt><trkpt lat="39.8703683" lon="8.7552433"><ele>191.66666666666666</ele><time>2026-05-03T06:51:21.682Z</time></trkpt><trkpt lat="39.8705383" lon="8.755265"><ele>192.0</ele><time>2026-05-03T06:51:22.682Z</time></trkpt><trkpt lat="39.870705" lon="8.7552983"><ele>192.0</ele><time>2026-05-03T06:51:23.682Z</time></trkpt><trkpt lat="39.8708683" lon="8.755325"><ele>192.0</ele><time>2026-05-03T06:51:24.682Z</time></trkpt><trkpt lat="39.8710283" lon="8.7553533"><ele>192.0</ele><time>2026-05-03T06:51:25.681Z</time></trkpt><trkpt lat="39.8711833" lon="8.7553833"><ele>193.0</ele><time>2026-05-03T06:51:26.682Z</time></trkpt><trkpt lat="39.8713367" lon="8.7554017"><ele>194.0</ele><time>2026-05-03T06:51:27.682Z</time></trkpt><trkpt lat="39.8714767" lon="8.75542"><ele>195.0</ele><time>2026-05-03T06:51:28.681Z</time></trkpt><trkpt lat="39.8716117" lon="8.75544"><ele>196.0</ele><time>2026-05-03T06:51:29.682Z</time></trkpt><trkpt lat="39.8717517" lon="8.7554583"><ele>196.25</ele><time>2026-05-03T06:51:30.682Z</time></trkpt><trkpt lat="39.8719" lon="8.7554817"><ele>196.5</ele><time>2026-05-03T06:51:31.681Z</time></trkpt><trkpt lat="39.872045" lon="8.7555"><ele>196.75</ele><time>2026-05-03T06:51:32.681Z</time></trkpt><trkpt lat="39.8721917" lon="8.7555083"><ele>197.0</ele><time>2026-05-03T06:51:33.682Z</time></trkpt><trkpt lat="39.872335" lon="8.7555283"><ele>197.0</ele><time>2026-05-03T06:51:34.681Z</time></trkpt><trkpt lat="39.8724667" lon="8.75555"><ele>197.0</ele><time>2026-05-03T06:51:35.681Z</time></trkpt><trkpt lat="39.8725933" lon="8.7555683"><ele>197.0</ele><time>2026-05-03T06:51:36.681Z</time></trkpt><trkpt lat="39.872715" lon="8.755605"><ele>197.0</ele><time>2026-05-03T06:51:37.681Z</time></trkpt><trkpt lat="39.8728233" lon="8.7556583"><ele>199.75</ele><time>2026-05-03T06:51:38.681Z</time></trkpt><trkpt lat="39.8729367" lon="8.7557367"><ele>202.5</ele><time>2026-05-03T06:51:39.681Z</time></trkpt><trkpt lat="39.8730433" lon="8.755835"><ele>205.25</ele><time>2026-05-03T06:51:40.681Z</time></trkpt><trkpt lat="39.873155" lon="8.7559467"><ele>208.0</ele><time>2026-05-03T06:51:41.682Z</time></trkpt><trkpt lat="39.87328" lon="8.7560467"><ele>207.75</ele><time>2026-05-03T06:51:42.682Z</time></trkpt><trkpt lat="39.8734117" lon="8.7561333"><ele>207.5</ele><time>2026-05-03T06:51:43.682Z</time></trkpt><trkpt lat="39.8735383" lon="8.7562033"><ele>207.25</ele><time>2026-05-03T06:51:44.681Z</time></trkpt><trkpt lat="39.8736483" lon="8.7562767"><ele>207.0</ele><time>2026-05-03T06:51:45.681Z</time></trkpt><trkpt lat="39.87374" lon="8.7563567"><ele>207.0</ele><time>2026-05-03T06:51:46.682Z</time></trkpt><trkpt lat="39.8738317" lon="8.756425"><ele>207.0</ele><time>2026-05-03T06:51:47.681Z</time></trkpt><trkpt lat="39.873945" lon="8.7564783"><ele>207.0</ele><time>2026-05-03T06:51:48.681Z</time></trkpt><trkpt lat="39.87407" lon="8.75649"><ele>207.0</ele><time>2026-05-03T06:51:49.682Z</time></trkpt><trkpt lat="39.874215" lon="8.7564767"><ele>202.0</ele><time>2026-05-03T06:51:50.681Z</time></trkpt><trkpt lat="39.8743683" lon="8.7564517"><ele>197.0</ele><time>2026-05-03T06:51:51.681Z</time></trkpt><trkpt lat="39.8745267" lon="8.7564167"><ele>192.0</ele><time>2026-05-03T06:51:52.682Z</time></trkpt><trkpt lat="39.8746867" lon="8.75639"><ele>192.0</ele><time>2026-05-03T06:51:53.681Z</time></trkpt><trkpt lat="39.8748483" lon="8.7563633"><ele>192.0</ele><time>2026-05-03T06:51:54.681Z</time></trkpt><trkpt lat="39.8750017" lon="8.756345"><ele>192.0</ele><time>2026-05-03T06:51:55.681Z</time></trkpt><trkpt lat="39.8751567" lon="8.7563483"><ele>190.25</ele><time>2026-05-03T06:51:56.682Z</time></trkpt><trkpt lat="39.87531" lon="8.7563683"><ele>188.5</ele><time>2026-05-03T06:51:57.682Z</time></trkpt><trkpt lat="39.8754617" lon="8.7564133"><ele>186.75</ele><time>2026-05-03T06:51:58.682Z</time></trkpt><trkpt lat="39.8755917" lon="8.7564683"><ele>185.0</ele><time>2026-05-03T06:51:59.681Z</time></trkpt><trkpt lat="39.8757133" lon="8.756515"><ele>185.0</ele><time>2026-05-03T06:52:00.682Z</time></trkpt><trkpt lat="39.8758383" lon="8.7565283"><ele>185.0</ele><time>2026-05-03T06:52:01.682Z</time></trkpt><trkpt lat="39.8759567" lon="8.75651"><ele>185.0</ele><time>2026-05-03T06:52:02.681Z</time></trkpt><trkpt lat="39.876075" lon="8.7564517"><ele>185.0</ele><time>2026-05-03T06:52:03.681Z</time></trkpt><trkpt lat="39.8761867" lon="8.7563567"><ele>186.25</ele><time>2026-05-03T06:52:04.681Z</time></trkpt><trkpt lat="39.876285" lon="8.7562267"><ele>187.5</ele><time>2026-05-03T06:52:05.681Z</time></trkpt><trkpt lat="39.8763767" lon="8.7560817"><ele>188.75</ele><time>2026-05-03T06:52:06.681Z</time></trkpt><trkpt lat="39.8764783" lon="8.755935"><ele>190.0</ele><time>2026-05-03T06:52:07.682Z</time></trkpt><trkpt lat="39.8765767" lon="8.7557883"><ele>190.0</ele><time>2026-05-03T06:52:08.681Z</time></trkpt><trkpt lat="39.876675" lon="8.7556617"><ele>190.0</ele><time>2026-05-03T06:52:09.682Z</time></trkpt><trkpt lat="39.8767683" lon="8.7555617"><ele>190.0</ele><time>2026-05-03T06:52:10.681Z</time></trkpt><trkpt lat="39.8768617" lon="8.7554833"><ele>190.0</ele><time>2026-05-03T06:52:11.681Z</time></trkpt><trkpt lat="39.8769683" lon="8.7554267"><ele>190.0</ele><time>2026-05-03T06:52:12.681Z</time></trkpt><trkpt lat="39.877085" lon="8.7553633"><ele>190.0</ele><time>2026-05-03T06:52:13.682Z</time></trkpt><trkpt lat="39.8772333" lon="8.7553033"><ele>190.0</ele><time>2026-05-03T06:52:14.682Z</time></trkpt><trkpt lat="39.8774" lon="8.7552267"><ele>186.33333333333334</ele><time>2026-05-03T06:52:15.682Z</time></trkpt><trkpt lat="39.8775783" lon="8.75515"><ele>182.66666666666666</ele><time>2026-05-03T06:52:16.682Z</time></trkpt><trkpt lat="39.8777483" lon="8.7550617"><ele>179.0</ele><time>2026-05-03T06:52:17.681Z</time></trkpt><trkpt lat="39.8779067" lon="8.7549933"><ele>179.0</ele><time>2026-05-03T06:52:18.681Z</time></trkpt><trkpt lat="39.8780617" lon="8.7549367"><ele>179.0</ele><time>2026-05-03T06:52:19.681Z</time></trkpt><trkpt lat="39.8782133" lon="8.7548967"><ele>179.0</ele><time>2026-05-03T06:52:20.681Z</time></trkpt><trkpt lat="39.87837" lon="8.75487"><ele>177.0</ele><time>2026-05-03T06:52:21.682Z</time></trkpt><trkpt lat="39.878515" lon="8.75486"><ele>175.0</ele><time>2026-05-03T06:52:22.682Z</time></trkpt><trkpt lat="39.878665" lon="8.7548733"><ele>173.0</ele><time>2026-05-03T06:52:23.681Z</time></trkpt><trkpt lat="39.8788117" lon="8.7549067"><ele>171.0</ele><time>2026-05-03T06:52:24.681Z</time></trkpt><trkpt lat="39.8789683" lon="8.7549417"><ele>171.0</ele><time>2026-05-03T06:52:25.681Z</time></trkpt><trkpt lat="39.8791183" lon="8.7549917"><ele>171.0</ele><time>2026-05-03T06:52:26.681Z</time></trkpt><trkpt lat="39.8792667" lon="8.7550467"><ele>171.0</ele><time>2026-05-03T06:52:27.681Z</time></trkpt><trkpt lat="39.87942" lon="8.7551067"><ele>169.33333333333334</ele><time>2026-05-03T06:52:28.682Z</time></trkpt><trkpt lat="39.87957" lon="8.755165"><ele>167.66666666666669</ele><time>2026-05-03T06:52:29.681Z</time></trkpt><trkpt lat="39.87972" lon="8.7552233"><ele>166.0</ele><time>2026-05-03T06:52:30.681Z</time></trkpt><trkpt lat="39.8798783" lon="8.7552683"><ele>166.0</ele><time>2026-05-03T06:52:31.681Z</time></trkpt><trkpt lat="39.8800367" lon="8.755305"><ele>166.0</ele><time>2026-05-03T06:52:32.682Z</time></trkpt><trkpt lat="39.8801783" lon="8.7553233"><ele>166.0</ele><time>2026-05-03T06:52:33.681Z</time></trkpt><trkpt lat="39.8803033" lon="8.7553533"><ele>166.0</ele><time>2026-05-03T06:52:34.682Z</time></trkpt><trkpt lat="39.8804117" lon="8.7554133"><ele>163.25</ele><time>2026-05-03T06:52:35.681Z</time></trkpt><trkpt lat="39.88049" lon="8.75551"><ele>160.5</ele><time>2026-05-03T06:52:36.682Z</time></trkpt><trkpt lat="39.88055" lon="8.755645"><ele>157.75</ele><time>2026-05-03T06:52:37.681Z</time></trkpt><trkpt lat="39.8806083" lon="8.7558083"><ele>155.0</ele><time>2026-05-03T06:52:38.681Z</time></trkpt><trkpt lat="39.88067" lon="8.7559817"><ele>156.33333333333331</ele><time>2026-05-03T06:52:39.682Z</time></trkpt><trkpt lat="39.8807467" lon="8.7561767"><ele>157.66666666666666</ele><time>2026-05-03T06:52:40.681Z</time></trkpt><trkpt lat="39.880815" lon="8.7563683"><ele>159.0</ele><time>2026-05-03T06:52:41.681Z</time></trkpt><trkpt lat="39.8808817" lon="8.7565717"><ele>157.0</ele><time>2026-05-03T06:52:42.681Z</time></trkpt><trkpt lat="39.8809517" lon="8.756775"><ele>155.0</ele><time>2026-05-03T06:52:43.682Z</time></trkpt><trkpt lat="39.8810217" lon="8.7569617"><ele>153.0</ele><time>2026-05-03T06:52:44.681Z</time></trkpt><trkpt lat="39.88109" lon="8.757135"><ele>153.0</ele><time>2026-05-03T06:52:45.682Z</time></trkpt><trkpt lat="39.881155" lon="8.7572783"><ele>153.0</ele><time>2026-05-03T06:52:46.681Z</time></trkpt><trkpt lat="39.8812217" lon="8.757395"><ele>153.0</ele><time>2026-05-03T06:52:47.681Z</time></trkpt><trkpt lat="39.881305" lon="8.7574633"><ele>153.0</ele><time>2026-05-03T06:52:48.681Z</time></trkpt><trkpt lat="39.881405" lon="8.7574817"><ele>153.0</ele><time>2026-05-03T06:52:49.682Z</time></trkpt><trkpt lat="39.88152" lon="8.7574817"><ele>153.0</ele><time>2026-05-03T06:52:50.682Z</time></trkpt><trkpt lat="39.8816417" lon="8.7574683"><ele>153.0</ele><time>2026-05-03T06:52:51.681Z</time></trkpt><trkpt lat="39.8817633" lon="8.757455"><ele>153.0</ele><time>2026-05-03T06:52:52.681Z</time></trkpt><trkpt lat="39.881875" lon="8.7574433"><ele>153.0</ele><time>2026-05-03T06:52:53.682Z</time></trkpt><trkpt lat="39.8819983" lon="8.75747"><ele>149.5</ele><time>2026-05-03T06:52:54.682Z</time></trkpt><trkpt lat="39.8821283" lon="8.7575067"><ele>146.0</ele><time>2026-05-03T06:52:55.681Z</time></trkpt><trkpt lat="39.882265" lon="8.7575583"><ele>142.5</ele><time>2026-05-03T06:52:56.682Z</time></trkpt><trkpt lat="39.882385" lon="8.757625"><ele>139.0</ele><time>2026-05-03T06:52:57.681Z</time></trkpt><trkpt lat="39.88251" lon="8.7577117"><ele>136.75</ele><time>2026-05-03T06:52:58.681Z</time></trkpt><trkpt lat="39.88262" lon="8.757825"><ele>134.5</ele><time>2026-05-03T06:52:59.681Z</time></trkpt><trkpt lat="39.8827183" lon="8.757955"><ele>132.25</ele><time>2026-05-03T06:53:00.681Z</time></trkpt><trkpt lat="39.882815" lon="8.758075"><ele>130.0</ele><time>2026-05-03T06:53:01.681Z</time></trkpt><trkpt lat="39.8829283" lon="8.75819"><ele>130.0</ele><time>2026-05-03T06:53:02.681Z</time></trkpt><trkpt lat="39.883065" lon="8.758285"><ele>130.0</ele><time>2026-05-03T06:53:03.681Z</time></trkpt><trkpt lat="39.8832217" lon="8.75836"><ele>130.0</ele><time>2026-05-03T06:53:04.681Z</time></trkpt><trkpt lat="39.88339" lon="8.7584217"><ele>129.33333333333334</ele><time>2026-05-03T06:53:05.681Z</time></trkpt><trkpt lat="39.88356" lon="8.7584867"><ele>128.66666666666666</ele><time>2026-05-03T06:53:06.681Z</time></trkpt><trkpt lat="39.88371" lon="8.75854"><ele>128.0</ele><time>2026-05-03T06:53:07.681Z</time></trkpt><trkpt lat="39.8838383" lon="8.7586067"><ele>128.0</ele><time>2026-05-03T06:53:08.682Z</time></trkpt><trkpt lat="39.8839567" lon="8.7586717"><ele>128.0</ele><time>2026-05-03T06:53:09.681Z</time></trkpt><trkpt lat="39.8840683" lon="8.758755"><ele>128.0</ele><time>2026-05-03T06:53:10.681Z</time></trkpt><trkpt lat="39.8841617" lon="8.7588583"><ele>128.0</ele><time>2026-05-03T06:53:11.682Z</time></trkpt><trkpt lat="39.8842383" lon="8.7589783"><ele>128.20000000000002</ele><time>2026-05-03T06:53:12.681Z</time></trkpt><trkpt lat="39.8842983" lon="8.7590917"><ele>128.4</ele><time>2026-05-03T06:53:13.681Z</time></trkpt><trkpt lat="39.8843433" lon="8.7591817"><ele>128.60000000000002</ele><time>2026-05-03T06:53:14.681Z</time></trkpt><trkpt lat="39.884395" lon="8.759285"><ele>128.8</ele><time>2026-05-03T06:53:16.681Z</time></trkpt><trkpt lat="39.884425" lon="8.7594783"><ele>129.0</ele><time>2026-05-03T06:53:18.681Z</time></trkpt><trkpt lat="39.8844383" lon="8.759625"><ele>128.25</ele><time>2026-05-03T06:53:19.681Z</time></trkpt><trkpt lat="39.884445" lon="8.7597967"><ele>127.5</ele><time>2026-05-03T06:53:20.681Z</time></trkpt><trkpt lat="39.8844467" lon="8.7599683"><ele>126.75</ele><time>2026-05-03T06:53:21.681Z</time></trkpt><trkpt lat="39.88445" lon="8.7601517"><ele>126.0</ele><time>2026-05-03T06:53:22.681Z</time></trkpt><trkpt lat="39.88446" lon="8.7603433"><ele>125.0</ele><time>2026-05-03T06:53:23.681Z</time></trkpt><trkpt lat="39.8844683" lon="8.7605467"><ele>124.0</ele><time>2026-05-03T06:53:24.681Z</time></trkpt><trkpt lat="39.8844783" lon="8.7607533"><ele>123.0</ele><time>2026-05-03T06:53:25.681Z</time></trkpt><trkpt lat="39.884495" lon="8.7609533"><ele>122.5</ele><time>2026-05-03T06:53:26.682Z</time></trkpt><trkpt lat="39.8845233" lon="8.7611467"><ele>122.0</ele><time>2026-05-03T06:53:27.682Z</time></trkpt><trkpt lat="39.884575" lon="8.7613217"><ele>121.5</ele><time>2026-05-03T06:53:28.681Z</time></trkpt><trkpt lat="39.884645" lon="8.761485"><ele>121.0</ele><time>2026-05-03T06:53:29.681Z</time></trkpt><trkpt lat="39.88473" lon="8.76166"><ele>121.0</ele><time>2026-05-03T06:53:30.681Z</time></trkpt><trkpt lat="39.8848217" lon="8.7618233"><ele>121.0</ele><time>2026-05-03T06:53:31.681Z</time></trkpt><trkpt lat="39.8849117" lon="8.7619717"><ele>121.0</ele><time>2026-05-03T06:53:32.681Z</time></trkpt><trkpt lat="39.8850033" lon="8.7621167"><ele>121.0</ele><time>2026-05-03T06:53:33.681Z</time></trkpt><trkpt lat="39.8850983" lon="8.7622683"><ele>121.5</ele><time>2026-05-03T06:53:34.681Z</time></trkpt><trkpt lat="39.8852" lon="8.76241"><ele>122.0</ele><time>2026-05-03T06:53:35.682Z</time></trkpt><trkpt lat="39.8853" lon="8.762545"><ele>122.5</ele><time>2026-05-03T06:53:36.682Z</time></trkpt><trkpt lat="39.8853883" lon="8.76267"><ele>123.0</ele><time>2026-05-03T06:53:37.682Z</time></trkpt><trkpt lat="39.8854517" lon="8.7628033"><ele>121.75</ele><time>2026-05-03T06:53:38.681Z</time></trkpt><trkpt lat="39.8854983" lon="8.7629617"><ele>120.5</ele><time>2026-05-03T06:53:39.681Z</time></trkpt><trkpt lat="39.8855217" lon="8.7631567"><ele>119.25</ele><time>2026-05-03T06:53:40.681Z</time></trkpt><trkpt lat="39.88554" lon="8.76336"><ele>118.0</ele><time>2026-05-03T06:53:41.681Z</time></trkpt><trkpt lat="39.8855533" lon="8.7635783"><ele>117.33333333333334</ele><time>2026-05-03T06:53:42.681Z</time></trkpt><trkpt lat="39.88557" lon="8.7638083"><ele>116.66666666666666</ele><time>2026-05-03T06:53:43.681Z</time></trkpt><trkpt lat="39.8855933" lon="8.764055"><ele>116.0</ele><time>2026-05-03T06:53:44.682Z</time></trkpt><trkpt lat="39.8856133" lon="8.7642983"><ele>115.33333333333333</ele><time>2026-05-03T06:53:45.682Z</time></trkpt><trkpt lat="39.8856233" lon="8.76455"><ele>114.66666666666666</ele><time>2026-05-03T06:53:46.682Z</time></trkpt><trkpt lat="39.88564" lon="8.7647767"><ele>114.0</ele><time>2026-05-03T06:53:47.681Z</time></trkpt><trkpt lat="39.8856483" lon="8.7650067"><ele>112.66666666666666</ele><time>2026-05-03T06:53:48.682Z</time></trkpt><trkpt lat="39.88566" lon="8.76523"><ele>111.33333333333333</ele><time>2026-05-03T06:53:49.681Z</time></trkpt><trkpt lat="39.88567" lon="8.7654533"><ele>110.0</ele><time>2026-05-03T06:53:50.681Z</time></trkpt><trkpt lat="39.885675" lon="8.76566"><ele>110.0</ele><time>2026-05-03T06:53:51.681Z</time></trkpt><trkpt lat="39.885665" lon="8.76586"><ele>110.0</ele><time>2026-05-03T06:53:52.681Z</time></trkpt><trkpt lat="39.8856583" lon="8.766055"><ele>110.0</ele><time>2026-05-03T06:53:53.682Z</time></trkpt><trkpt lat="39.8856433" lon="8.7662633"><ele>110.33333333333333</ele><time>2026-05-03T06:53:54.681Z</time></trkpt><trkpt lat="39.8856217" lon="8.7664633"><ele>110.66666666666666</ele><time>2026-05-03T06:53:55.681Z</time></trkpt><trkpt lat="39.885605" lon="8.7666767"><ele>111.0</ele><time>2026-05-03T06:53:56.681Z</time></trkpt><trkpt lat="39.8855767" lon="8.7668817"><ele>110.33333333333334</ele><time>2026-05-03T06:53:57.681Z</time></trkpt><trkpt lat="39.88556" lon="8.7670967"><ele>109.66666666666667</ele><time>2026-05-03T06:53:58.681Z</time></trkpt><trkpt lat="39.8855533" lon="8.7672917"><ele>109.0</ele><time>2026-05-03T06:53:59.681Z</time></trkpt><trkpt lat="39.8855567" lon="8.767485"><ele>109.0</ele><time>2026-05-03T06:54:00.681Z</time></trkpt><trkpt lat="39.8855617" lon="8.7676783"><ele>109.0</ele><time>2026-05-03T06:54:01.681Z</time></trkpt><trkpt lat="39.8855767" lon="8.7678733"><ele>109.0</ele><time>2026-05-03T06:54:02.682Z</time></trkpt><trkpt lat="39.8855933" lon="8.7680683"><ele>109.0</ele><time>2026-05-03T06:54:03.681Z</time></trkpt><trkpt lat="39.8856133" lon="8.76825"><ele>107.0</ele><time>2026-05-03T06:54:04.682Z</time></trkpt><trkpt lat="39.88564" lon="8.7684233"><ele>105.0</ele><time>2026-05-03T06:54:05.682Z</time></trkpt><trkpt lat="39.8856767" lon="8.7685783"><ele>103.0</ele><time>2026-05-03T06:54:06.681Z</time></trkpt><trkpt lat="39.8857333" lon="8.7687533"><ele>101.0</ele><time>2026-05-03T06:54:07.681Z</time></trkpt><trkpt lat="39.8858" lon="8.768905"><ele>100.0</ele><time>2026-05-03T06:54:08.682Z</time></trkpt><trkpt lat="39.8858583" lon="8.7690733"><ele>99.0</ele><time>2026-05-03T06:54:09.681Z</time></trkpt><trkpt lat="39.8858983" lon="8.7692267"><ele>98.0</ele><time>2026-05-03T06:54:10.681Z</time></trkpt><trkpt lat="39.8859067" lon="8.76939"><ele>97.0</ele><time>2026-05-03T06:54:11.682Z</time></trkpt><trkpt lat="39.8858917" lon="8.7695467"><ele>97.25</ele><time>2026-05-03T06:54:12.682Z</time></trkpt><trkpt lat="39.8858867" lon="8.7696817"><ele>97.5</ele><time>2026-05-03T06:54:13.682Z</time></trkpt><trkpt lat="39.885905" lon="8.76982"><ele>97.75</ele><time>2026-05-03T06:54:14.682Z</time></trkpt><trkpt lat="39.885935" lon="8.7699733"><ele>98.0</ele><time>2026-05-03T06:54:15.682Z</time></trkpt><trkpt lat="39.885975" lon="8.7701267"><ele>96.25</ele><time>2026-05-03T06:54:16.681Z</time></trkpt><trkpt lat="39.885995" lon="8.770285"><ele>94.5</ele><time>2026-05-03T06:54:17.681Z</time></trkpt><trkpt lat="39.8859983" lon="8.7704333"><ele>92.75</ele><time>2026-05-03T06:54:18.681Z</time></trkpt><trkpt lat="39.8859933" lon="8.77058"><ele>91.0</ele><time>2026-05-03T06:54:19.681Z</time></trkpt><trkpt lat="39.8859967" lon="8.7707267"><ele>91.0</ele><time>2026-05-03T06:54:20.681Z</time></trkpt><trkpt lat="39.8859967" lon="8.7708483"><ele>91.0</ele><time>2026-05-03T06:54:21.681Z</time></trkpt><trkpt lat="39.886025" lon="8.770985"><ele>91.0</ele><time>2026-05-03T06:54:22.681Z</time></trkpt><trkpt lat="39.8860617" lon="8.7711183"><ele>91.0</ele><time>2026-05-03T06:54:23.682Z</time></trkpt><trkpt lat="39.8860983" lon="8.7712583"><ele>91.0</ele><time>2026-05-03T06:54:24.681Z</time></trkpt><trkpt lat="39.886135" lon="8.7713867"><ele>89.0</ele><time>2026-05-03T06:54:25.682Z</time></trkpt><trkpt lat="39.886185" lon="8.7715033"><ele>87.0</ele><time>2026-05-03T06:54:26.682Z</time></trkpt><trkpt lat="39.88626" lon="8.7716217"><ele>85.0</ele><time>2026-05-03T06:54:27.682Z</time></trkpt><trkpt lat="39.8863417" lon="8.771735"><ele>83.0</ele><time>2026-05-03T06:54:28.682Z</time></trkpt><trkpt lat="39.8864383" lon="8.77183"><ele>82.75</ele><time>2026-05-03T06:54:29.681Z</time></trkpt><trkpt lat="39.8865367" lon="8.7719217"><ele>82.5</ele><time>2026-05-03T06:54:30.681Z</time></trkpt><trkpt lat="39.88664" lon="8.7719967"><ele>82.25</ele><time>2026-05-03T06:54:31.681Z</time></trkpt><trkpt lat="39.88674" lon="8.7720667"><ele>82.0</ele><time>2026-05-03T06:54:32.682Z</time></trkpt><trkpt lat="39.88684" lon="8.772155"><ele>82.0</ele><time>2026-05-03T06:54:33.682Z</time></trkpt><trkpt lat="39.8869317" lon="8.772235"><ele>82.0</ele><time>2026-05-03T06:54:34.681Z</time></trkpt><trkpt lat="39.8870133" lon="8.77234"><ele>82.0</ele><time>2026-05-03T06:54:35.682Z</time></trkpt><trkpt lat="39.8870917" lon="8.772475"><ele>82.0</ele><time>2026-05-03T06:54:36.681Z</time></trkpt><trkpt lat="39.8871517" lon="8.77261"><ele>80.75</ele><time>2026-05-03T06:54:37.681Z</time></trkpt><trkpt lat="39.8872033" lon="8.77275"><ele>79.5</ele><time>2026-05-03T06:54:38.682Z</time></trkpt><trkpt lat="39.8872617" lon="8.7729017"><ele>78.25</ele><time>2026-05-03T06:54:39.681Z</time></trkpt><trkpt lat="39.8873267" lon="8.7730433"><ele>77.0</ele><time>2026-05-03T06:54:40.681Z</time></trkpt><trkpt lat="39.88739" lon="8.7731817"><ele>77.0</ele><time>2026-05-03T06:54:41.681Z</time></trkpt><trkpt lat="39.8874633" lon="8.7733117"><ele>77.0</ele><time>2026-05-03T06:54:42.682Z</time></trkpt><trkpt lat="39.8875467" lon="8.7734483"><ele>77.0</ele><time>2026-05-03T06:54:43.681Z</time></trkpt><trkpt lat="39.8876333" lon="8.7735667"><ele>77.0</ele><time>2026-05-03T06:54:44.681Z</time></trkpt><trkpt lat="39.887725" lon="8.7736883"><ele>76.75</ele><time>2026-05-03T06:54:45.681Z</time></trkpt><trkpt lat="39.88782" lon="8.7738083"><ele>76.5</ele><time>2026-05-03T06:54:46.681Z</time></trkpt><trkpt lat="39.8879133" lon="8.7739333"><ele>76.25</ele><time>2026-05-03T06:54:47.681Z</time></trkpt><trkpt lat="39.8880017" lon="8.7740583"><ele>76.0</ele><time>2026-05-03T06:54:48.682Z</time></trkpt><trkpt lat="39.8880783" lon="8.7741783"><ele>76.0</ele><time>2026-05-03T06:54:49.681Z</time></trkpt><trkpt lat="39.8881533" lon="8.7743133"><ele>76.0</ele><time>2026-05-03T06:54:50.682Z</time></trkpt><trkpt lat="39.8882167" lon="8.7744367"><ele>76.0</ele><time>2026-05-03T06:54:51.682Z</time></trkpt><trkpt lat="39.8882817" lon="8.7745667"><ele>76.0</ele><time>2026-05-03T06:54:52.682Z</time></trkpt><trkpt lat="39.888345" lon="8.7747017"><ele>75.25</ele><time>2026-05-03T06:54:53.682Z</time></trkpt><trkpt lat="39.8884067" lon="8.7748433"><ele>74.5</ele><time>2026-05-03T06:54:54.681Z</time></trkpt><trkpt lat="39.8884633" lon="8.7750017"><ele>73.75</ele><time>2026-05-03T06:54:55.681Z</time></trkpt><trkpt lat="39.888495" lon="8.7751533"><ele>73.0</ele><time>2026-05-03T06:54:56.681Z</time></trkpt><trkpt lat="39.888505" lon="8.7753117"><ele>72.0</ele><time>2026-05-03T06:54:57.681Z</time></trkpt><trkpt lat="39.8885067" lon="8.77547"><ele>71.0</ele><time>2026-05-03T06:54:58.682Z</time></trkpt><trkpt lat="39.8885083" lon="8.7756183"><ele>70.0</ele><time>2026-05-03T06:54:59.681Z</time></trkpt><trkpt lat="39.88851" lon="8.77576"><ele>69.0</ele><time>2026-05-03T06:55:00.681Z</time></trkpt><trkpt lat="39.8885083" lon="8.775885"><ele>68.0</ele><time>2026-05-03T06:55:01.681Z</time></trkpt><trkpt lat="39.8885133" lon="8.7759967"><ele>67.83333333333334</ele><time>2026-05-03T06:55:02.682Z</time></trkpt><trkpt lat="39.8885383" lon="8.776075"><ele>67.66666666666667</ele><time>2026-05-03T06:55:03.681Z</time></trkpt><trkpt lat="39.888585" lon="8.77615"><ele>67.5</ele><time>2026-05-03T06:55:04.682Z</time></trkpt><trkpt lat="39.888635" lon="8.77622"><ele>67.33333333333333</ele><time>2026-05-03T06:55:05.681Z</time></trkpt><trkpt lat="39.88867" lon="8.7763083"><ele>67.16666666666666</ele><time>2026-05-03T06:55:06.681Z</time></trkpt><trkpt lat="39.8886867" lon="8.776415"><ele>67.0</ele><time>2026-05-03T06:55:07.682Z</time></trkpt><trkpt lat="39.8886833" lon="8.7765267"><ele>67.0</ele><time>2026-05-03T06:55:08.681Z</time></trkpt><trkpt lat="39.888675" lon="8.776645"><ele>67.0</ele><time>2026-05-03T06:55:09.681Z</time></trkpt><trkpt lat="39.8886667" lon="8.776765"><ele>67.0</ele><time>2026-05-03T06:55:10.681Z</time></trkpt><trkpt lat="39.8886567" lon="8.7768683"><ele>67.0</ele><time>2026-05-03T06:55:11.681Z</time></trkpt><trkpt lat="39.8886417" lon="8.7770183"><ele>67.0</ele><time>2026-05-03T06:55:13.681Z</time></trkpt><trkpt lat="39.8886017" lon="8.7770867"><ele>67.0</ele><time>2026-05-03T06:55:14.682Z</time></trkpt><trkpt lat="39.8885267" lon="8.7771317"><ele>67.2</ele><time>2026-05-03T06:55:15.681Z</time></trkpt><trkpt lat="39.8884367" lon="8.777185"><ele>67.4</ele><time>2026-05-03T06:55:16.681Z</time></trkpt><trkpt lat="39.8883583" lon="8.7772567"><ele>67.6</ele><time>2026-05-03T06:55:17.681Z</time></trkpt><trkpt lat="39.8882967" lon="8.7773383"><ele>67.8</ele><time>2026-05-03T06:55:18.681Z</time></trkpt><trkpt lat="39.8882467" lon="8.7774167"><ele>68.0</ele><time>2026-05-03T06:55:19.682Z</time></trkpt><trkpt lat="39.8882017" lon="8.777535"><ele>68.4</ele><time>2026-05-03T06:55:21.682Z</time></trkpt><trkpt lat="39.8882317" lon="8.7776367"><ele>68.8</ele><time>2026-05-03T06:55:23.681Z</time></trkpt><trkpt lat="39.888275" lon="8.77775"><ele>69.2</ele><time>2026-05-03T06:55:25.682Z</time></trkpt><trkpt lat="39.88825" lon="8.7778283"><ele>69.6</ele><time>2026-05-03T06:55:29.682Z</time></trkpt><trkpt lat="39.8880867" lon="8.777895"><ele>70.0</ele><time>2026-05-03T07:04:09.681Z</time></trkpt><trkpt lat="39.8880933" lon="8.777985"><ele>70.0</ele><time>2026-05-03T07:04:11.681Z</time></trkpt><trkpt lat="39.88802" lon="8.7780017"><ele>70.0</ele><time>2026-05-03T07:04:18.68Z</time></trkpt><trkpt lat="39.8879167" lon="8.7780583"><ele>70.0</ele><time>2026-05-03T07:04:22.681Z</time></trkpt><trkpt lat="39.8878283" lon="8.778185"><ele>70.0</ele><time>2026-05-03T07:04:24.68Z</time></trkpt><trkpt lat="39.8877783" lon="8.7782833"><ele>70.0</ele><time>2026-05-03T07:04:25.68Z</time></trkpt><trkpt lat="39.8877283" lon="8.778385"><ele>70.0</ele><time>2026-05-03T07:04:26.68Z</time></trkpt><trkpt lat="39.88768" lon="8.77848"><ele>70.0</ele><time>2026-05-03T07:04:27.68Z</time></trkpt><trkpt lat="39.887635" lon="8.7785567"><ele>70.0</ele><time>2026-05-03T07:04:28.681Z</time></trkpt><trkpt lat="39.8875767" lon="8.778615"><ele>70.0</ele><time>2026-05-03T07:04:29.68Z</time></trkpt><trkpt lat="39.8875117" lon="8.778655"><ele>70.0</ele><time>2026-05-03T07:04:30.68Z</time></trkpt><trkpt lat="39.88744" lon="8.7786733"><ele>70.0</ele><time>2026-05-03T07:04:31.681Z</time></trkpt><trkpt lat="39.88737" lon="8.7786833"><ele>71.0</ele><time>2026-05-03T07:04:32.681Z</time></trkpt><trkpt lat="39.887285" lon="8.778675"><ele>72.0</ele><time>2026-05-03T07:04:33.681Z</time></trkpt><trkpt lat="39.8872033" lon="8.7786683"><ele>73.0</ele><time>2026-05-03T07:04:34.68Z</time></trkpt><trkpt lat="39.887115" lon="8.7786567"><ele>74.0</ele><time>2026-05-03T07:04:35.681Z</time></trkpt><trkpt lat="39.887035" lon="8.7786467"><ele>75.0</ele><time>2026-05-03T07:04:36.68Z</time></trkpt><trkpt lat="39.8869533" lon="8.7786483"><ele>76.0</ele><time>2026-05-03T07:04:37.68Z</time></trkpt><trkpt lat="39.886875" lon="8.7786317"><ele>76.0</ele><time>2026-05-03T07:04:38.681Z</time></trkpt><trkpt lat="39.8867917" lon="8.7786283"><ele>76.0</ele><time>2026-05-03T07:04:39.68Z</time></trkpt><trkpt lat="39.8867133" lon="8.7786367"><ele>76.0</ele><time>2026-05-03T07:04:40.681Z</time></trkpt><trkpt lat="39.8866283" lon="8.77864"><ele>76.0</ele><time>2026-05-03T07:04:41.68Z</time></trkpt><trkpt lat="39.8865433" lon="8.7786467"><ele>76.0</ele><time>2026-05-03T07:04:42.68Z</time></trkpt><trkpt lat="39.8864767" lon="8.7786517"><ele>76.0</ele><time>2026-05-03T07:04:43.681Z</time></trkpt><trkpt lat="39.8863667" lon="8.7786417"><ele>77.19999999999999</ele><time>2026-05-03T07:04:45.681Z</time></trkpt><trkpt lat="39.8862733" lon="8.7786317"><ele>78.39999999999999</ele><time>2026-05-03T07:04:47.681Z</time></trkpt><trkpt lat="39.8862" lon="8.77863"><ele>79.6</ele><time>2026-05-03T07:04:48.68Z</time></trkpt><trkpt lat="39.886105" lon="8.7786367"><ele>80.8</ele><time>2026-05-03T07:04:49.68Z</time></trkpt><trkpt lat="39.8859983" lon="8.7786483"><ele>82.0</ele><time>2026-05-03T07:04:50.68Z</time></trkpt><trkpt lat="39.8858833" lon="8.7786617"><ele>82.39999999999999</ele><time>2026-05-03T07:04:51.681Z</time></trkpt><trkpt lat="39.885765" lon="8.778695"><ele>82.8</ele><time>2026-05-03T07:04:52.68Z</time></trkpt><trkpt lat="39.885655" lon="8.77872"><ele>83.2</ele><time>2026-05-03T07:04:53.68Z</time></trkpt><trkpt lat="39.8855617" lon="8.77877"><ele>83.6</ele><time>2026-05-03T07:04:54.681Z</time></trkpt><trkpt lat="39.8854733" lon="8.7788517"><ele>84.0</ele><time>2026-05-03T07:04:55.68Z</time></trkpt><trkpt lat="39.885385" lon="8.7789267"><ele>84.0</ele><time>2026-05-03T07:04:56.681Z</time></trkpt><trkpt lat="39.8853083" lon="8.7789883"><ele>84.0</ele><time>2026-05-03T07:04:57.68Z</time></trkpt><trkpt lat="39.8852417" lon="8.779055"><ele>84.0</ele><time>2026-05-03T07:04:58.68Z</time></trkpt><trkpt lat="39.88518" lon="8.779105"><ele>84.0</ele><time>2026-05-03T07:04:59.68Z</time></trkpt><trkpt lat="39.8851117" lon="8.7791567"><ele>84.0</ele><time>2026-05-03T07:05:00.681Z</time></trkpt><trkpt lat="39.8850317" lon="8.7792083"><ele>84.0</ele><time>2026-05-03T07:05:01.68Z</time></trkpt><trkpt lat="39.8849567" lon="8.77928"><ele>84.4</ele><time>2026-05-03T07:05:02.681Z</time></trkpt><trkpt lat="39.884875" lon="8.779355"><ele>84.80000000000001</ele><time>2026-05-03T07:05:03.68Z</time></trkpt><trkpt lat="39.884805" lon="8.77945"><ele>85.19999999999999</ele><time>2026-05-03T07:05:04.68Z</time></trkpt><trkpt lat="39.8847383" lon="8.77955"><ele>85.6</ele><time>2026-05-03T07:05:05.681Z</time></trkpt><trkpt lat="39.884685" lon="8.77966"><ele>86.0</ele><time>2026-05-03T07:05:06.68Z</time></trkpt><trkpt lat="39.8846333" lon="8.7797733"><ele>86.0</ele><time>2026-05-03T07:05:07.68Z</time></trkpt><trkpt lat="39.884585" lon="8.7798833"><ele>86.0</ele><time>2026-05-03T07:05:08.68Z</time></trkpt><trkpt lat="39.8845267" lon="8.779985"><ele>86.0</ele><time>2026-05-03T07:05:09.68Z</time></trkpt><trkpt lat="39.884485" lon="8.7800983"><ele>86.0</ele><time>2026-05-03T07:05:10.681Z</time></trkpt><trkpt lat="39.8844483" lon="8.780225"><ele>86.0</ele><time>2026-05-03T07:05:11.68Z</time></trkpt><trkpt lat="39.8844233" lon="8.7803583"><ele>85.8</ele><time>2026-05-03T07:05:12.68Z</time></trkpt><trkpt lat="39.8844217" lon="8.7804833"><ele>85.6</ele><time>2026-05-03T07:05:13.68Z</time></trkpt><trkpt lat="39.8844233" lon="8.7806267"><ele>85.4</ele><time>2026-05-03T07:05:14.681Z</time></trkpt><trkpt lat="39.8844083" lon="8.7807333"><ele>85.2</ele><time>2026-05-03T07:05:15.681Z</time></trkpt><trkpt lat="39.8843883" lon="8.7808417"><ele>85.0</ele><time>2026-05-03T07:05:16.681Z</time></trkpt><trkpt lat="39.8843517" lon="8.78104"><ele>85.0</ele><time>2026-05-03T07:05:18.681Z</time></trkpt><trkpt lat="39.8843317" lon="8.7811733"><ele>85.0</ele><time>2026-05-03T07:05:19.681Z</time></trkpt><trkpt lat="39.88431" lon="8.781295"><ele>85.0</ele><time>2026-05-03T07:05:20.68Z</time></trkpt><trkpt lat="39.8842833" lon="8.7814217"><ele>85.0</ele><time>2026-05-03T07:05:21.68Z</time></trkpt><trkpt lat="39.8842467" lon="8.7815367"><ele>85.0</ele><time>2026-05-03T07:05:22.681Z</time></trkpt><trkpt lat="39.8842" lon="8.7816467"><ele>85.4</ele><time>2026-05-03T07:05:23.68Z</time></trkpt><trkpt lat="39.8841433" lon="8.7817567"><ele>85.8</ele><time>2026-05-03T07:05:24.68Z</time></trkpt><trkpt lat="39.8840783" lon="8.7818617"><ele>86.19999999999999</ele><time>2026-05-03T07:05:25.681Z</time></trkpt><trkpt lat="39.8840017" lon="8.78197"><ele>86.6</ele><time>2026-05-03T07:05:26.68Z</time></trkpt><trkpt lat="39.8839217" lon="8.7820233"><ele>87.0</ele><time>2026-05-03T07:05:27.68Z</time></trkpt><trkpt lat="39.8838317" lon="8.782125"><ele>87.0</ele><time>2026-05-03T07:05:28.68Z</time></trkpt><trkpt lat="39.883745" lon="8.7822183"><ele>87.0</ele><time>2026-05-03T07:05:29.68Z</time></trkpt><trkpt lat="39.88367" lon="8.7823217"><ele>87.0</ele><time>2026-05-03T07:05:30.68Z</time></trkpt><trkpt lat="39.883605" lon="8.7824133"><ele>87.0</ele><time>2026-05-03T07:05:31.68Z</time></trkpt><trkpt lat="39.883565" lon="8.7825083"><ele>87.0</ele><time>2026-05-03T07:05:32.681Z</time></trkpt><trkpt lat="39.8835267" lon="8.7826067"><ele>86.33333333333333</ele><time>2026-05-03T07:05:33.681Z</time></trkpt><trkpt lat="39.88351" lon="8.782715"><ele>85.66666666666667</ele><time>2026-05-03T07:05:34.68Z</time></trkpt><trkpt lat="39.883505" lon="8.7828233"><ele>85.0</ele><time>2026-05-03T07:05:35.68Z</time></trkpt><trkpt lat="39.883505" lon="8.7829367"><ele>84.33333333333334</ele><time>2026-05-03T07:05:36.681Z</time></trkpt><trkpt lat="39.8834983" lon="8.7830383"><ele>83.66666666666667</ele><time>2026-05-03T07:05:37.681Z</time></trkpt><trkpt lat="39.8834767" lon="8.783135"><ele>83.0</ele><time>2026-05-03T07:05:38.68Z</time></trkpt><trkpt lat="39.88345" lon="8.7832333"><ele>83.60000000000001</ele><time>2026-05-03T07:05:39.68Z</time></trkpt><trkpt lat="39.8834133" lon="8.7833483"><ele>84.2</ele><time>2026-05-03T07:05:40.68Z</time></trkpt><trkpt lat="39.8833733" lon="8.78346"><ele>84.8</ele><time>2026-05-03T07:05:41.68Z</time></trkpt><trkpt lat="39.8833283" lon="8.7835683"><ele>85.4</ele><time>2026-05-03T07:05:42.68Z</time></trkpt><trkpt lat="39.8832917" lon="8.7836717"><ele>86.0</ele><time>2026-05-03T07:05:43.68Z</time></trkpt><trkpt lat="39.8832667" lon="8.7837783"><ele>86.0</ele><time>2026-05-03T07:05:44.68Z</time></trkpt><trkpt lat="39.88324" lon="8.7838867"><ele>86.0</ele><time>2026-05-03T07:05:45.68Z</time></trkpt><trkpt lat="39.8832133" lon="8.78399"><ele>86.0</ele><time>2026-05-03T07:05:46.68Z</time></trkpt><trkpt lat="39.8831883" lon="8.784075"><ele>86.0</ele><time>2026-05-03T07:05:47.681Z</time></trkpt><trkpt lat="39.8831667" lon="8.784195"><ele>86.0</ele><time>2026-05-03T07:05:48.68Z</time></trkpt><trkpt lat="39.88314" lon="8.7843133"><ele>86.0</ele><time>2026-05-03T07:05:49.68Z</time></trkpt><trkpt lat="39.88312" lon="8.7844167"><ele>85.8</ele><time>2026-05-03T07:05:50.681Z</time></trkpt><trkpt lat="39.8830883" lon="8.784555"><ele>85.6</ele><time>2026-05-03T07:05:51.68Z</time></trkpt><trkpt lat="39.883055" lon="8.784685"><ele>85.4</ele><time>2026-05-03T07:05:52.68Z</time></trkpt><trkpt lat="39.88304" lon="8.7848133"><ele>85.2</ele><time>2026-05-03T07:05:53.68Z</time></trkpt><trkpt lat="39.8830183" lon="8.7849483"><ele>85.0</ele><time>2026-05-03T07:05:54.681Z</time></trkpt><trkpt lat="39.883" lon="8.7850717"><ele>84.2</ele><time>2026-05-03T07:05:55.68Z</time></trkpt><trkpt lat="39.882975" lon="8.7851933"><ele>83.4</ele><time>2026-05-03T07:05:56.68Z</time></trkpt><trkpt lat="39.8829367" lon="8.78531"><ele>82.6</ele><time>2026-05-03T07:05:57.681Z</time></trkpt><trkpt lat="39.882895" lon="8.7854167"><ele>81.8</ele><time>2026-05-03T07:05:58.681Z</time></trkpt><trkpt lat="39.88285" lon="8.78551"><ele>81.0</ele><time>2026-05-03T07:05:59.681Z</time></trkpt><trkpt lat="39.8828083" lon="8.7856033"><ele>81.0</ele><time>2026-05-03T07:06:00.681Z</time></trkpt><trkpt lat="39.8827567" lon="8.7856967"><ele>81.0</ele><time>2026-05-03T07:06:01.68Z</time></trkpt><trkpt lat="39.8827083" lon="8.7857867"><ele>81.0</ele><time>2026-05-03T07:06:02.68Z</time></trkpt><trkpt lat="39.88267" lon="8.785895"><ele>81.0</ele><time>2026-05-03T07:06:03.681Z</time></trkpt><trkpt lat="39.8826217" lon="8.7860033"><ele>81.0</ele><time>2026-05-03T07:06:04.68Z</time></trkpt><trkpt lat="39.8825717" lon="8.78611"><ele>81.4</ele><time>2026-05-03T07:06:05.681Z</time></trkpt><trkpt lat="39.8825333" lon="8.7862283"><ele>81.8</ele><time>2026-05-03T07:06:06.68Z</time></trkpt><trkpt lat="39.8824883" lon="8.7863317"><ele>82.2</ele><time>2026-05-03T07:06:07.68Z</time></trkpt><trkpt lat="39.8824533" lon="8.7864517"><ele>82.60000000000001</ele><time>2026-05-03T07:06:08.68Z</time></trkpt><trkpt lat="39.8824217" lon="8.7865583"><ele>83.0</ele><time>2026-05-03T07:06:09.68Z</time></trkpt><trkpt lat="39.8823867" lon="8.7866517"><ele>83.0</ele><time>2026-05-03T07:06:10.681Z</time></trkpt><trkpt lat="39.8823567" lon="8.7867583"><ele>83.0</ele><time>2026-05-03T07:06:11.681Z</time></trkpt><trkpt lat="39.88233" lon="8.7868683"><ele>83.0</ele><time>2026-05-03T07:06:12.681Z</time></trkpt><trkpt lat="39.8822983" lon="8.7869833"><ele>83.0</ele><time>2026-05-03T07:06:13.68Z</time></trkpt><trkpt lat="39.882275" lon="8.7870967"><ele>83.0</ele><time>2026-05-03T07:06:14.68Z</time></trkpt><trkpt lat="39.88225" lon="8.7872217"><ele>83.0</ele><time>2026-05-03T07:06:15.68Z</time></trkpt><trkpt lat="39.8822217" lon="8.7873367"><ele>83.0</ele><time>2026-05-03T07:06:16.68Z</time></trkpt><trkpt lat="39.8821917" lon="8.7874417"><ele>83.0</ele><time>2026-05-03T07:06:17.68Z</time></trkpt><trkpt lat="39.8821583" lon="8.78754"><ele>83.0</ele><time>2026-05-03T07:06:18.681Z</time></trkpt><trkpt lat="39.8821233" lon="8.7876333"><ele>83.0</ele><time>2026-05-03T07:06:19.68Z</time></trkpt><trkpt lat="39.8820867" lon="8.78773"><ele>83.0</ele><time>2026-05-03T07:06:20.681Z</time></trkpt><trkpt lat="39.8820517" lon="8.787835"><ele>82.60000000000001</ele><time>2026-05-03T07:06:21.68Z</time></trkpt><trkpt lat="39.8820083" lon="8.78794"><ele>82.2</ele><time>2026-05-03T07:06:22.681Z</time></trkpt><trkpt lat="39.8819517" lon="8.7880483"><ele>81.8</ele><time>2026-05-03T07:06:23.681Z</time></trkpt><trkpt lat="39.8818933" lon="8.7881583"><ele>81.4</ele><time>2026-05-03T07:06:24.681Z</time></trkpt><trkpt lat="39.8818333" lon="8.788265"><ele>81.0</ele><time>2026-05-03T07:06:25.68Z</time></trkpt><trkpt lat="39.881775" lon="8.7883633"><ele>81.19999999999999</ele><time>2026-05-03T07:06:26.681Z</time></trkpt><trkpt lat="39.8817117" lon="8.7884717"><ele>81.39999999999999</ele><time>2026-05-03T07:06:27.68Z</time></trkpt><trkpt lat="39.88165" lon="8.7885783"><ele>81.6</ele><time>2026-05-03T07:06:28.681Z</time></trkpt><trkpt lat="39.88159" lon="8.7886833"><ele>81.8</ele><time>2026-05-03T07:06:29.681Z</time></trkpt><trkpt lat="39.8815283" lon="8.7887833"><ele>82.0</ele><time>2026-05-03T07:06:30.68Z</time></trkpt><trkpt lat="39.881465" lon="8.788875"><ele>82.0</ele><time>2026-05-03T07:06:31.68Z</time></trkpt><trkpt lat="39.881405" lon="8.78893"><ele>82.0</ele><time>2026-05-03T07:06:32.68Z</time></trkpt><trkpt lat="39.881335" lon="8.7889817"><ele>82.0</ele><time>2026-05-03T07:06:33.68Z</time></trkpt><trkpt lat="39.88127" lon="8.7890433"><ele>82.0</ele><time>2026-05-03T07:06:34.68Z</time></trkpt><trkpt lat="39.8812067" lon="8.7891"><ele>82.0</ele><time>2026-05-03T07:06:35.681Z</time></trkpt><trkpt lat="39.8811417" lon="8.7891567"><ele>82.0</ele><time>2026-05-03T07:06:36.68Z</time></trkpt><trkpt lat="39.88107" lon="8.7892283"><ele>82.0</ele><time>2026-05-03T07:06:37.68Z</time></trkpt><trkpt lat="39.8809933" lon="8.7893017"><ele>82.0</ele><time>2026-05-03T07:06:38.681Z</time></trkpt><trkpt lat="39.8809233" lon="8.7893783"><ele>82.0</ele><time>2026-05-03T07:06:39.68Z</time></trkpt><trkpt lat="39.880865" lon="8.7894633"><ele>82.0</ele><time>2026-05-03T07:06:40.681Z</time></trkpt><trkpt lat="39.880815" lon="8.78955"><ele>82.0</ele><time>2026-05-03T07:06:41.681Z</time></trkpt><trkpt lat="39.8807783" lon="8.7896433"><ele>82.0</ele><time>2026-05-03T07:06:42.68Z</time></trkpt><trkpt lat="39.8807433" lon="8.7897367"><ele>82.0</ele><time>2026-05-03T07:06:43.68Z</time></trkpt><trkpt lat="39.8807067" lon="8.78984"><ele>82.0</ele><time>2026-05-03T07:06:44.68Z</time></trkpt><trkpt lat="39.8806583" lon="8.7899483"><ele>82.0</ele><time>2026-05-03T07:06:45.68Z</time></trkpt><trkpt lat="39.8806167" lon="8.790055"><ele>82.0</ele><time>2026-05-03T07:06:46.68Z</time></trkpt><trkpt lat="39.880575" lon="8.790175"><ele>82.0</ele><time>2026-05-03T07:06:47.681Z</time></trkpt><trkpt lat="39.8805433" lon="8.7902867"><ele>82.0</ele><time>2026-05-03T07:06:48.68Z</time></trkpt><trkpt lat="39.880505" lon="8.7903967"><ele>82.0</ele><time>2026-05-03T07:06:49.68Z</time></trkpt><trkpt lat="39.8804683" lon="8.7904967"><ele>82.0</ele><time>2026-05-03T07:06:50.681Z</time></trkpt><trkpt lat="39.8804283" lon="8.7905917"><ele>82.0</ele><time>2026-05-03T07:06:51.68Z</time></trkpt><trkpt lat="39.880385" lon="8.7906817"><ele>82.0</ele><time>2026-05-03T07:06:52.68Z</time></trkpt><trkpt lat="39.88034" lon="8.7907767"><ele>82.0</ele><time>2026-05-03T07:06:53.68Z</time></trkpt><trkpt lat="39.8802467" lon="8.7908983"><ele>82.0</ele><time>2026-05-03T07:06:55.681Z</time></trkpt><trkpt lat="39.8801833" lon="8.7909717"><ele>82.0</ele><time>2026-05-03T07:06:56.681Z</time></trkpt><trkpt lat="39.8801033" lon="8.791045"><ele>82.0</ele><time>2026-05-03T07:06:57.681Z</time></trkpt><trkpt lat="39.8800167" lon="8.7911233"><ele>82.0</ele><time>2026-05-03T07:06:58.68Z</time></trkpt><trkpt lat="39.8799267" lon="8.7912117"><ele>82.0</ele><time>2026-05-03T07:06:59.681Z</time></trkpt><trkpt lat="39.879825" lon="8.791285"><ele>82.0</ele><time>2026-05-03T07:07:00.68Z</time></trkpt><trkpt lat="39.87971" lon="8.791365"><ele>82.0</ele><time>2026-05-03T07:07:01.68Z</time></trkpt><trkpt lat="39.8795967" lon="8.791445"><ele>82.0</ele><time>2026-05-03T07:07:02.681Z</time></trkpt><trkpt lat="39.8794833" lon="8.7915283"><ele>82.0</ele><time>2026-05-03T07:07:03.68Z</time></trkpt><trkpt lat="39.879365" lon="8.7916167"><ele>82.25</ele><time>2026-05-03T07:07:04.681Z</time></trkpt><trkpt lat="39.8792567" lon="8.7917267"><ele>82.5</ele><time>2026-05-03T07:07:05.681Z</time></trkpt><trkpt lat="39.879145" lon="8.79187"><ele>82.75</ele><time>2026-05-03T07:07:06.68Z</time></trkpt><trkpt lat="39.8790417" lon="8.792005"><ele>83.0</ele><time>2026-05-03T07:07:07.68Z</time></trkpt><trkpt lat="39.8789333" lon="8.792145"><ele>83.0</ele><time>2026-05-03T07:07:08.68Z</time></trkpt><trkpt lat="39.8788233" lon="8.792265"><ele>83.0</ele><time>2026-05-03T07:07:09.68Z</time></trkpt><trkpt lat="39.8787283" lon="8.7923867"><ele>83.0</ele><time>2026-05-03T07:07:10.681Z</time></trkpt><trkpt lat="39.8786433" lon="8.7924933"><ele>83.0</ele><time>2026-05-03T07:07:11.68Z</time></trkpt><trkpt lat="39.8785583" lon="8.7926033"><ele>83.0</ele><time>2026-05-03T07:07:12.68Z</time></trkpt><trkpt lat="39.8784717" lon="8.79271"><ele>83.0</ele><time>2026-05-03T07:07:13.68Z</time></trkpt><trkpt lat="39.8783817" lon="8.7927983"><ele>83.0</ele><time>2026-05-03T07:07:14.681Z</time></trkpt><trkpt lat="39.878305" lon="8.79288"><ele>83.0</ele><time>2026-05-03T07:07:15.68Z</time></trkpt><trkpt lat="39.8782433" lon="8.792935"><ele>83.0</ele><time>2026-05-03T07:07:16.68Z</time></trkpt><trkpt lat="39.8781833" lon="8.7929767"><ele>83.0</ele><time>2026-05-03T07:07:17.68Z</time></trkpt><trkpt lat="39.87811" lon="8.7930117"><ele>83.0</ele><time>2026-05-03T07:07:18.681Z</time></trkpt><trkpt lat="39.87801" lon="8.7930467"><ele>83.0</ele><time>2026-05-03T07:07:19.681Z</time></trkpt><trkpt lat="39.8778983" lon="8.79309"><ele>83.0</ele><time>2026-05-03T07:07:20.68Z</time></trkpt><trkpt lat="39.877785" lon="8.79314"><ele>83.0</ele><time>2026-05-03T07:07:21.68Z</time></trkpt><trkpt lat="39.8776717" lon="8.7931867"><ele>83.2</ele><time>2026-05-03T07:07:22.68Z</time></trkpt><trkpt lat="39.8775717" lon="8.7932333"><ele>83.4</ele><time>2026-05-03T07:07:23.68Z</time></trkpt><trkpt lat="39.87749" lon="8.7932867"><ele>83.60000000000001</ele><time>2026-05-03T07:07:24.68Z</time></trkpt><trkpt lat="39.8774217" lon="8.7933267"><ele>83.80000000000001</ele><time>2026-05-03T07:07:25.68Z</time></trkpt><trkpt lat="39.87734" lon="8.7934183"><ele>84.0</ele><time>2026-05-03T07:07:27.681Z</time></trkpt><trkpt lat="39.8773167" lon="8.79355"><ele>84.0</ele><time>2026-05-03T07:07:29.68Z</time></trkpt><trkpt lat="39.8773067" lon="8.7936317"><ele>84.0</ele><time>2026-05-03T07:07:30.681Z</time></trkpt><trkpt lat="39.87728" lon="8.79373"><ele>84.0</ele><time>2026-05-03T07:07:31.68Z</time></trkpt><trkpt lat="39.8772383" lon="8.7938333"><ele>84.0</ele><time>2026-05-03T07:07:32.681Z</time></trkpt><trkpt lat="39.8771917" lon="8.7939467"><ele>84.0</ele><time>2026-05-03T07:07:33.68Z</time></trkpt><trkpt lat="39.8771367" lon="8.7940517"><ele>84.0</ele><time>2026-05-03T07:07:34.681Z</time></trkpt><trkpt lat="39.877085" lon="8.79414"><ele>84.0</ele><time>2026-05-03T07:07:35.68Z</time></trkpt><trkpt lat="39.8770683" lon="8.79422"><ele>84.0</ele><time>2026-05-03T07:07:36.68Z</time></trkpt><trkpt lat="39.877085" lon="8.7943867"><ele>84.0</ele><time>2026-05-03T07:07:38.681Z</time></trkpt><trkpt lat="39.8771333" lon="8.7944717"><ele>84.0</ele><time>2026-05-03T07:07:39.68Z</time></trkpt><trkpt lat="39.8771967" lon="8.794565"><ele>84.0</ele><time>2026-05-03T07:07:40.68Z</time></trkpt><trkpt lat="39.8772533" lon="8.7946683"><ele>84.5</ele><time>2026-05-03T07:07:41.68Z</time></trkpt><trkpt lat="39.87729" lon="8.7947917"><ele>85.0</ele><time>2026-05-03T07:07:42.68Z</time></trkpt><trkpt lat="39.877295" lon="8.7949433"><ele>85.5</ele><time>2026-05-03T07:07:43.68Z</time></trkpt><trkpt lat="39.8772767" lon="8.795125"><ele>86.0</ele><time>2026-05-03T07:07:44.681Z</time></trkpt><trkpt lat="39.8772583" lon="8.7953233"><ele>86.25</ele><time>2026-05-03T07:07:45.681Z</time></trkpt><trkpt lat="39.877235" lon="8.7955217"><ele>86.5</ele><time>2026-05-03T07:07:46.68Z</time></trkpt><trkpt lat="39.8772217" lon="8.7957117"><ele>86.75</ele><time>2026-05-03T07:07:47.681Z</time></trkpt><trkpt lat="39.877205" lon="8.79589"><ele>87.0</ele><time>2026-05-03T07:07:48.68Z</time></trkpt><trkpt lat="39.8771867" lon="8.79608"><ele>87.25</ele><time>2026-05-03T07:07:49.681Z</time></trkpt><trkpt lat="39.877175" lon="8.7962733"><ele>87.5</ele><time>2026-05-03T07:07:50.68Z</time></trkpt><trkpt lat="39.8771583" lon="8.7964383"><ele>87.75</ele><time>2026-05-03T07:07:51.681Z</time></trkpt><trkpt lat="39.877145" lon="8.7965783"><ele>88.0</ele><time>2026-05-03T07:07:52.68Z</time></trkpt><trkpt lat="39.8771267" lon="8.79667"><ele>88.0</ele><time>2026-05-03T07:07:53.681Z</time></trkpt><trkpt lat="39.87705" lon="8.7968017"><ele>88.0</ele><time>2026-05-03T07:07:55.681Z</time></trkpt><trkpt lat="39.8769833" lon="8.79685"><ele>88.0</ele><time>2026-05-03T07:07:56.68Z</time></trkpt><trkpt lat="39.8769267" lon="8.79689"><ele>88.0</ele><time>2026-05-03T07:07:57.681Z</time></trkpt><trkpt lat="39.87688" lon="8.79698"><ele>88.0</ele><time>2026-05-03T07:07:59.681Z</time></trkpt><trkpt lat="39.87689" lon="8.7970667"><ele>88.0</ele><time>2026-05-03T07:08:01.68Z</time></trkpt><trkpt lat="39.8769133" lon="8.7971867"><ele>88.0</ele><time>2026-05-03T07:08:03.68Z</time></trkpt><trkpt lat="39.87694" lon="8.79735"><ele>88.0</ele><time>2026-05-03T07:08:05.68Z</time></trkpt><trkpt lat="39.87695" lon="8.797435"><ele>88.0</ele><time>2026-05-03T07:08:06.68Z</time></trkpt><trkpt lat="39.8769383" lon="8.7975283"><ele>88.0</ele><time>2026-05-03T07:08:07.681Z</time></trkpt><trkpt lat="39.8769217" lon="8.79761"><ele>88.0</ele><time>2026-05-03T07:08:08.681Z</time></trkpt><trkpt lat="39.8769" lon="8.7977017"><ele>88.0</ele><time>2026-05-03T07:08:09.681Z</time></trkpt><trkpt lat="39.87688" lon="8.79779"><ele>88.25</ele><time>2026-05-03T07:08:10.68Z</time></trkpt><trkpt lat="39.8768767" lon="8.7979533"><ele>88.5</ele><time>2026-05-03T07:08:12.68Z</time></trkpt><trkpt lat="39.8769483" lon="8.7980583"><ele>88.75</ele><time>2026-05-03T07:08:14.681Z</time></trkpt><trkpt lat="39.877095" lon="8.79807"><ele>89.0</ele><time>2026-05-03T07:08:16.681Z</time></trkpt><trkpt lat="39.8772" lon="8.7980567"><ele>89.0</ele><time>2026-05-03T07:08:17.681Z</time></trkpt><trkpt lat="39.87731" lon="8.7980533"><ele>89.0</ele><time>2026-05-03T07:08:18.68Z</time></trkpt><trkpt lat="39.8774233" lon="8.798065"><ele>89.0</ele><time>2026-05-03T07:08:19.68Z</time></trkpt><trkpt lat="39.8775417" lon="8.7980767"><ele>89.0</ele><time>2026-05-03T07:08:20.68Z</time></trkpt><trkpt lat="39.8776533" lon="8.7980917"><ele>90.0</ele><time>2026-05-03T07:08:21.681Z</time></trkpt><trkpt lat="39.8777533" lon="8.7981017"><ele>91.0</ele><time>2026-05-03T07:08:22.68Z</time></trkpt><trkpt lat="39.87785" lon="8.7981117"><ele>92.0</ele><time>2026-05-03T07:08:23.681Z</time></trkpt><trkpt lat="39.8779383" lon="8.7981167"><ele>93.0</ele><time>2026-05-03T07:08:24.681Z</time></trkpt><trkpt lat="39.87801" lon="8.798115"><ele>94.0</ele><time>2026-05-03T07:08:25.68Z</time></trkpt><trkpt lat="39.87808" lon="8.7980917"><ele>95.0</ele><time>2026-05-03T07:08:26.681Z</time></trkpt><trkpt lat="39.87815" lon="8.7980367"><ele>95.0</ele><time>2026-05-03T07:08:27.68Z</time></trkpt><trkpt lat="39.87823" lon="8.7979533"><ele>95.0</ele><time>2026-05-03T07:08:28.68Z</time></trkpt><trkpt lat="39.8783267" lon="8.7978583"><ele>95.0</ele><time>2026-05-03T07:08:29.681Z</time></trkpt><trkpt lat="39.878425" lon="8.7977467"><ele>95.0</ele><time>2026-05-03T07:08:30.68Z</time></trkpt><trkpt lat="39.8785083" lon="8.79763"><ele>96.0</ele><time>2026-05-03T07:08:31.68Z</time></trkpt><trkpt lat="39.8785767" lon="8.7975233"><ele>97.0</ele><time>2026-05-03T07:08:32.681Z</time></trkpt><trkpt lat="39.8786333" lon="8.7974383"><ele>98.0</ele><time>2026-05-03T07:08:33.681Z</time></trkpt><trkpt lat="39.8786817" lon="8.7973783"><ele>99.0</ele><time>2026-05-03T07:08:34.68Z</time></trkpt><trkpt lat="39.8787617" lon="8.79735"><ele>99.99999999999999</ele><time>2026-05-03T07:08:36.681Z</time></trkpt><trkpt lat="39.8787733" lon="8.7974867"><ele>101.0</ele><time>2026-05-03T07:08:38.68Z</time></trkpt><trkpt lat="39.8787483" lon="8.7976017"><ele>101.33333333333333</ele><time>2026-05-03T07:08:39.68Z</time></trkpt><trkpt lat="39.8787067" lon="8.7977517"><ele>101.66666666666666</ele><time>2026-05-03T07:08:40.68Z</time></trkpt><trkpt lat="39.8786533" lon="8.7979567"><ele>102.0</ele><time>2026-05-03T07:08:41.68Z</time></trkpt><trkpt lat="39.8786" lon="8.79818"><ele>102.0</ele><time>2026-05-03T07:08:42.68Z</time></trkpt><trkpt lat="39.878555" lon="8.7984117"><ele>102.0</ele><time>2026-05-03T07:08:43.681Z</time></trkpt><trkpt lat="39.8785167" lon="8.79863"><ele>102.0</ele><time>2026-05-03T07:08:44.681Z</time></trkpt><trkpt lat="39.8784767" lon="8.7988383"><ele>102.33333333333334</ele><time>2026-05-03T07:08:45.68Z</time></trkpt><trkpt lat="39.87844" lon="8.79904"><ele>102.66666666666667</ele><time>2026-05-03T07:08:46.681Z</time></trkpt><trkpt lat="39.87841" lon="8.79924"><ele>103.0</ele><time>2026-05-03T07:08:47.68Z</time></trkpt><trkpt lat="39.8783733" lon="8.7994383"><ele>101.33333333333334</ele><time>2026-05-03T07:08:48.68Z</time></trkpt><trkpt lat="39.8783383" lon="8.79963"><ele>99.66666666666666</ele><time>2026-05-03T07:08:49.681Z</time></trkpt><trkpt lat="39.8782933" lon="8.799835"><ele>98.0</ele><time>2026-05-03T07:08:50.68Z</time></trkpt><trkpt lat="39.8782517" lon="8.8000333"><ele>98.66666666666666</ele><time>2026-05-03T07:08:51.681Z</time></trkpt><trkpt lat="39.878215" lon="8.80023"><ele>99.33333333333334</ele><time>2026-05-03T07:08:52.681Z</time></trkpt><trkpt lat="39.8781767" lon="8.8004233"><ele>100.0</ele><time>2026-05-03T07:08:53.681Z</time></trkpt><trkpt lat="39.878135" lon="8.8006083"><ele>100.0</ele><time>2026-05-03T07:08:54.681Z</time></trkpt><trkpt lat="39.8780967" lon="8.80081"><ele>100.0</ele><time>2026-05-03T07:08:55.681Z</time></trkpt><trkpt lat="39.8780567" lon="8.8010217"><ele>100.0</ele><time>2026-05-03T07:08:56.681Z</time></trkpt><trkpt lat="39.8780133" lon="8.8012283"><ele>101.66666666666667</ele><time>2026-05-03T07:08:57.68Z</time></trkpt><trkpt lat="39.8779767" lon="8.8014233"><ele>103.33333333333334</ele><time>2026-05-03T07:08:58.681Z</time></trkpt><trkpt lat="39.8779283" lon="8.80162"><ele>105.0</ele><time>2026-05-03T07:08:59.68Z</time></trkpt><trkpt lat="39.877865" lon="8.8018333"><ele>107.5</ele><time>2026-05-03T07:09:00.681Z</time></trkpt><trkpt lat="39.877805" lon="8.8020217"><ele>110.0</ele><time>2026-05-03T07:09:01.68Z</time></trkpt><trkpt lat="39.8777517" lon="8.8021983"><ele>112.5</ele><time>2026-05-03T07:09:02.68Z</time></trkpt><trkpt lat="39.8776967" lon="8.8023567"><ele>115.0</ele><time>2026-05-03T07:09:03.681Z</time></trkpt><trkpt lat="39.8776367" lon="8.80252"><ele>112.33333333333334</ele><time>2026-05-03T07:09:04.681Z</time></trkpt><trkpt lat="39.8775633" lon="8.8026933"><ele>109.66666666666666</ele><time>2026-05-03T07:09:05.68Z</time></trkpt><trkpt lat="39.8774933" lon="8.8028667"><ele>107.0</ele><time>2026-05-03T07:09:06.68Z</time></trkpt><trkpt lat="39.87744" lon="8.80305"><ele>107.0</ele><time>2026-05-03T07:09:07.68Z</time></trkpt><trkpt lat="39.8773983" lon="8.8032433"><ele>107.0</ele><time>2026-05-03T07:09:08.68Z</time></trkpt><trkpt lat="39.8773733" lon="8.8034433"><ele>107.0</ele><time>2026-05-03T07:09:09.68Z</time></trkpt><trkpt lat="39.8773567" lon="8.8036633"><ele>108.0</ele><time>2026-05-03T07:09:10.68Z</time></trkpt><trkpt lat="39.87734" lon="8.8038883"><ele>109.0</ele><time>2026-05-03T07:09:11.681Z</time></trkpt><trkpt lat="39.8773283" lon="8.80411"><ele>110.0</ele><time>2026-05-03T07:09:12.68Z</time></trkpt><trkpt lat="39.87732" lon="8.8043383"><ele>110.33333333333333</ele><time>2026-05-03T07:09:13.68Z</time></trkpt><trkpt lat="39.877315" lon="8.80456"><ele>110.66666666666666</ele><time>2026-05-03T07:09:14.68Z</time></trkpt><trkpt lat="39.8773333" lon="8.804785"><ele>111.0</ele><time>2026-05-03T07:09:15.68Z</time></trkpt><trkpt lat="39.8773483" lon="8.8050083"><ele>110.66666666666666</ele><time>2026-05-03T07:09:16.68Z</time></trkpt><trkpt lat="39.87737" lon="8.8052217"><ele>110.33333333333333</ele><time>2026-05-03T07:09:17.68Z</time></trkpt><trkpt lat="39.8774033" lon="8.8054417"><ele>110.0</ele><time>2026-05-03T07:09:18.68Z</time></trkpt><trkpt lat="39.8774283" lon="8.8056683"><ele>110.0</ele><time>2026-05-03T07:09:19.681Z</time></trkpt><trkpt lat="39.8774567" lon="8.805875"><ele>110.0</ele><time>2026-05-03T07:09:20.681Z</time></trkpt><trkpt lat="39.8774833" lon="8.8060833"><ele>110.0</ele><time>2026-05-03T07:09:21.681Z</time></trkpt><trkpt lat="39.8775117" lon="8.8062933"><ele>110.0</ele><time>2026-05-03T07:09:22.68Z</time></trkpt><trkpt lat="39.8775367" lon="8.8065067"><ele>110.0</ele><time>2026-05-03T07:09:23.681Z</time></trkpt><trkpt lat="39.8775667" lon="8.8067167"><ele>110.0</ele><time>2026-05-03T07:09:24.681Z</time></trkpt><trkpt lat="39.87761" lon="8.806925"><ele>111.66666666666666</ele><time>2026-05-03T07:09:25.681Z</time></trkpt><trkpt lat="39.87766" lon="8.8071367"><ele>113.33333333333334</ele><time>2026-05-03T07:09:26.68Z</time></trkpt><trkpt lat="39.87771" lon="8.807345"><ele>115.0</ele><time>2026-05-03T07:09:27.68Z</time></trkpt><trkpt lat="39.8777683" lon="8.8075467"><ele>115.33333333333334</ele><time>2026-05-03T07:09:28.68Z</time></trkpt><trkpt lat="39.877825" lon="8.8077567"><ele>115.66666666666666</ele><time>2026-05-03T07:09:29.681Z</time></trkpt><trkpt lat="39.8778767" lon="8.80796"><ele>116.0</ele><time>2026-05-03T07:09:30.68Z</time></trkpt><trkpt lat="39.87793" lon="8.8081533"><ele>116.0</ele><time>2026-05-03T07:09:31.68Z</time></trkpt><trkpt lat="39.8779867" lon="8.808335"><ele>116.0</ele><time>2026-05-03T07:09:32.68Z</time></trkpt><trkpt lat="39.8780333" lon="8.8085233"><ele>116.0</ele><time>2026-05-03T07:09:33.681Z</time></trkpt><trkpt lat="39.8780683" lon="8.80871"><ele>116.25</ele><time>2026-05-03T07:09:34.68Z</time></trkpt><trkpt lat="39.8780933" lon="8.8089017"><ele>116.5</ele><time>2026-05-03T07:09:35.68Z</time></trkpt><trkpt lat="39.87811" lon="8.8090967"><ele>116.75</ele><time>2026-05-03T07:09:36.68Z</time></trkpt><trkpt lat="39.8780967" lon="8.8092767"><ele>117.0</ele><time>2026-05-03T07:09:37.68Z</time></trkpt><trkpt lat="39.87807" lon="8.8094683"><ele>117.0</ele><time>2026-05-03T07:09:38.68Z</time></trkpt><trkpt lat="39.8780317" lon="8.8096667"><ele>117.0</ele><time>2026-05-03T07:09:39.68Z</time></trkpt><trkpt lat="39.87798" lon="8.8098967"><ele>117.0</ele><time>2026-05-03T07:09:40.68Z</time></trkpt><trkpt lat="39.8779317" lon="8.8101167"><ele>118.0</ele><time>2026-05-03T07:09:41.68Z</time></trkpt><trkpt lat="39.87789" lon="8.8103367"><ele>119.0</ele><time>2026-05-03T07:09:42.681Z</time></trkpt><trkpt lat="39.8778383" lon="8.8105683"><ele>120.0</ele><time>2026-05-03T07:09:43.68Z</time></trkpt><trkpt lat="39.877785" lon="8.8108083"><ele>122.33333333333334</ele><time>2026-05-03T07:09:44.68Z</time></trkpt><trkpt lat="39.87773" lon="8.811045"><ele>124.66666666666667</ele><time>2026-05-03T07:09:45.681Z</time></trkpt><trkpt lat="39.8776717" lon="8.8112883"><ele>127.0</ele><time>2026-05-03T07:09:46.681Z</time></trkpt><trkpt lat="39.8776167" lon="8.8115367"><ele>123.0</ele><time>2026-05-03T07:09:47.681Z</time></trkpt><trkpt lat="39.87757" lon="8.8117783"><ele>119.0</ele><time>2026-05-03T07:09:48.68Z</time></trkpt><trkpt lat="39.877525" lon="8.811995"><ele>115.0</ele><time>2026-05-03T07:09:49.681Z</time></trkpt><trkpt lat="39.877485" lon="8.81218"><ele>115.0</ele><time>2026-05-03T07:09:50.68Z</time></trkpt><trkpt lat="39.8774133" lon="8.8123333"><ele>115.0</ele><time>2026-05-03T07:09:51.681Z</time></trkpt><trkpt lat="39.87731" lon="8.8124667"><ele>115.0</ele><time>2026-05-03T07:09:52.68Z</time></trkpt><trkpt lat="39.8771917" lon="8.8125867"><ele>115.0</ele><time>2026-05-03T07:09:53.681Z</time></trkpt><trkpt lat="39.87707" lon="8.8126967"><ele>115.0</ele><time>2026-05-03T07:09:54.68Z</time></trkpt><trkpt lat="39.8769683" lon="8.8127867"><ele>115.0</ele><time>2026-05-03T07:09:55.68Z</time></trkpt><trkpt lat="39.876875" lon="8.81288"><ele>115.0</ele><time>2026-05-03T07:09:56.68Z</time></trkpt><trkpt lat="39.8767917" lon="8.8130067"><ele>115.0</ele><time>2026-05-03T07:09:57.681Z</time></trkpt><trkpt lat="39.876715" lon="8.81316"><ele>115.0</ele><time>2026-05-03T07:09:58.681Z</time></trkpt><trkpt lat="39.8766433" lon="8.81335"><ele>115.0</ele><time>2026-05-03T07:09:59.681Z</time></trkpt><trkpt lat="39.87658" lon="8.8135583"><ele>115.0</ele><time>2026-05-03T07:10:00.68Z</time></trkpt><trkpt lat="39.8765233" lon="8.813785"><ele>116.0</ele><time>2026-05-03T07:10:01.68Z</time></trkpt><trkpt lat="39.87648" lon="8.813985"><ele>117.0</ele><time>2026-05-03T07:10:02.681Z</time></trkpt><trkpt lat="39.87643" lon="8.8141667"><ele>118.0</ele><time>2026-05-03T07:10:03.68Z</time></trkpt><trkpt lat="39.8763833" lon="8.8143233"><ele>119.0</ele><time>2026-05-03T07:10:04.681Z</time></trkpt><trkpt lat="39.87635" lon="8.8144817"><ele>119.66666666666666</ele><time>2026-05-03T07:10:05.68Z</time></trkpt><trkpt lat="39.8763417" lon="8.8146783"><ele>120.33333333333334</ele><time>2026-05-03T07:10:06.68Z</time></trkpt><trkpt lat="39.876375" lon="8.814885"><ele>121.0</ele><time>2026-05-03T07:10:07.68Z</time></trkpt><trkpt lat="39.8764083" lon="8.81511"><ele>121.66666666666667</ele><time>2026-05-03T07:10:08.68Z</time></trkpt><trkpt lat="39.8764317" lon="8.81534"><ele>122.33333333333334</ele><time>2026-05-03T07:10:09.68Z</time></trkpt><trkpt lat="39.8764367" lon="8.8155533"><ele>123.0</ele><time>2026-05-03T07:10:10.68Z</time></trkpt><trkpt lat="39.8764133" lon="8.815755"><ele>123.0</ele><time>2026-05-03T07:10:11.68Z</time></trkpt><trkpt lat="39.8763567" lon="8.8159717"><ele>123.0</ele><time>2026-05-03T07:10:12.68Z</time></trkpt><trkpt lat="39.8763033" lon="8.81618"><ele>123.0</ele><time>2026-05-03T07:10:13.68Z</time></trkpt><trkpt lat="39.87626" lon="8.8163867"><ele>123.0</ele><time>2026-05-03T07:10:14.68Z</time></trkpt><trkpt lat="39.87625" lon="8.816575"><ele>123.0</ele><time>2026-05-03T07:10:15.68Z</time></trkpt><trkpt lat="39.876265" lon="8.8167517"><ele>123.0</ele><time>2026-05-03T07:10:16.68Z</time></trkpt><trkpt lat="39.8763233" lon="8.816925"><ele>123.0</ele><time>2026-05-03T07:10:17.68Z</time></trkpt><trkpt lat="39.87642" lon="8.817095"><ele>123.33333333333334</ele><time>2026-05-03T07:10:18.68Z</time></trkpt><trkpt lat="39.8765167" lon="8.8172633"><ele>123.66666666666667</ele><time>2026-05-03T07:10:19.681Z</time></trkpt><trkpt lat="39.876625" lon="8.8174317"><ele>124.0</ele><time>2026-05-03T07:10:20.68Z</time></trkpt><trkpt lat="39.87672" lon="8.8175967"><ele>130.75</ele><time>2026-05-03T07:10:21.681Z</time></trkpt><trkpt lat="39.8767967" lon="8.8177617"><ele>137.5</ele><time>2026-05-03T07:10:22.68Z</time></trkpt><trkpt lat="39.87684" lon="8.8179167"><ele>144.25</ele><time>2026-05-03T07:10:23.68Z</time></trkpt><trkpt lat="39.8768417" lon="8.818045"><ele>151.0</ele><time>2026-05-03T07:10:24.68Z</time></trkpt><trkpt lat="39.876805" lon="8.81818"><ele>145.0</ele><time>2026-05-03T07:10:25.681Z</time></trkpt><trkpt lat="39.8767283" lon="8.818305"><ele>139.0</ele><time>2026-05-03T07:10:26.681Z</time></trkpt><trkpt lat="39.876615" lon="8.8184467"><ele>133.0</ele><time>2026-05-03T07:10:27.68Z</time></trkpt><trkpt lat="39.87648" lon="8.8186"><ele>133.0</ele><time>2026-05-03T07:10:28.68Z</time></trkpt><trkpt lat="39.8763433" lon="8.818755"><ele>133.0</ele><time>2026-05-03T07:10:29.68Z</time></trkpt><trkpt lat="39.8762033" lon="8.818915"><ele>133.0</ele><time>2026-05-03T07:10:30.681Z</time></trkpt><trkpt lat="39.87606" lon="8.8190933"><ele>134.33333333333334</ele><time>2026-05-03T07:10:31.68Z</time></trkpt><trkpt lat="39.8759167" lon="8.8192717"><ele>135.66666666666666</ele><time>2026-05-03T07:10:32.681Z</time></trkpt><trkpt lat="39.8757817" lon="8.819445"><ele>137.0</ele><time>2026-05-03T07:10:33.68Z</time></trkpt><trkpt lat="39.8756433" lon="8.8196017"><ele>137.0</ele><time>2026-05-03T07:10:34.68Z</time></trkpt><trkpt lat="39.8754983" lon="8.8197467"><ele>137.0</ele><time>2026-05-03T07:10:35.681Z</time></trkpt><trkpt lat="39.87537" lon="8.81991"><ele>137.0</ele><time>2026-05-03T07:10:36.681Z</time></trkpt><trkpt lat="39.8752567" lon="8.820065"><ele>136.25</ele><time>2026-05-03T07:10:37.68Z</time></trkpt><trkpt lat="39.8751667" lon="8.8202133"><ele>135.5</ele><time>2026-05-03T07:10:38.681Z</time></trkpt><trkpt lat="39.87508" lon="8.8203767"><ele>134.75</ele><time>2026-05-03T07:10:39.681Z</time></trkpt><trkpt lat="39.875015" lon="8.820555"><ele>134.0</ele><time>2026-05-03T07:10:40.68Z</time></trkpt><trkpt lat="39.8749683" lon="8.820725"><ele>134.0</ele><time>2026-05-03T07:10:41.68Z</time></trkpt><trkpt lat="39.8749583" lon="8.8209117"><ele>134.0</ele><time>2026-05-03T07:10:42.681Z</time></trkpt><trkpt lat="39.8749717" lon="8.8210833"><ele>134.0</ele><time>2026-05-03T07:10:43.68Z</time></trkpt><trkpt lat="39.8749933" lon="8.8212283"><ele>134.0</ele><time>2026-05-03T07:10:44.68Z</time></trkpt><trkpt lat="39.8750317" lon="8.8213433"><ele>134.16666666666666</ele><time>2026-05-03T07:10:45.681Z</time></trkpt><trkpt lat="39.87508" lon="8.8214433"><ele>134.33333333333331</ele><time>2026-05-03T07:10:46.68Z</time></trkpt><trkpt lat="39.875135" lon="8.821535"><ele>134.5</ele><time>2026-05-03T07:10:47.68Z</time></trkpt><trkpt lat="39.8751967" lon="8.8216267"><ele>134.66666666666666</ele><time>2026-05-03T07:10:48.68Z</time></trkpt><trkpt lat="39.8752617" lon="8.821705"><ele>134.83333333333334</ele><time>2026-05-03T07:10:49.681Z</time></trkpt><trkpt lat="39.8753167" lon="8.8217767"><ele>135.0</ele><time>2026-05-03T07:10:50.681Z</time></trkpt><trkpt lat="39.875355" lon="8.8218467"><ele>135.0</ele><time>2026-05-03T07:10:51.681Z</time></trkpt><trkpt lat="39.8754017" lon="8.8219867"><ele>135.0</ele><time>2026-05-03T07:10:53.681Z</time></trkpt><trkpt lat="39.875435" lon="8.8220583"><ele>135.0</ele><time>2026-05-03T07:10:54.68Z</time></trkpt><trkpt lat="39.8754867" lon="8.822185"><ele>135.0</ele><time>2026-05-03T07:10:56.68Z</time></trkpt><trkpt lat="39.8755017" lon="8.8222767"><ele>135.0</ele><time>2026-05-03T07:10:58.68Z</time></trkpt><trkpt lat="39.875565" lon="8.822345"><ele>135.0</ele><time>2026-05-03T07:11:01.681Z</time></trkpt><trkpt lat="39.875645" lon="8.82241"><ele>135.0</ele><time>2026-05-03T07:11:04.681Z</time></trkpt><trkpt lat="39.8756883" lon="8.8224817"><ele>135.0</ele><time>2026-05-03T07:11:06.68Z</time></trkpt><trkpt lat="39.87568" lon="8.8225917"><ele>135.0</ele><time>2026-05-03T07:11:08.68Z</time></trkpt><trkpt lat="39.8756533" lon="8.8226683"><ele>135.0</ele><time>2026-05-03T07:11:09.68Z</time></trkpt><trkpt lat="39.8756233" lon="8.82275"><ele>135.0</ele><time>2026-05-03T07:11:10.68Z</time></trkpt><trkpt lat="39.8755883" lon="8.8228383"><ele>135.0</ele><time>2026-05-03T07:11:11.681Z</time></trkpt><trkpt lat="39.87556" lon="8.82292"><ele>135.0</ele><time>2026-05-03T07:11:12.681Z</time></trkpt><trkpt lat="39.87553" lon="8.8230667"><ele>135.8</ele><time>2026-05-03T07:11:14.681Z</time></trkpt><trkpt lat="39.875515" lon="8.8231833"><ele>136.6</ele><time>2026-05-03T07:11:16.68Z</time></trkpt><trkpt lat="39.8754717" lon="8.823285"><ele>137.4</ele><time>2026-05-03T07:11:18.681Z</time></trkpt><trkpt lat="39.8754433" lon="8.8234083"><ele>138.2</ele><time>2026-05-03T07:11:20.68Z</time></trkpt><trkpt lat="39.8754883" lon="8.8234983"><ele>139.0</ele><time>2026-05-03T07:11:22.68Z</time></trkpt><trkpt lat="39.8755917" lon="8.8234667"><ele>139.0</ele><time>2026-05-03T07:11:24.68Z</time></trkpt><trkpt lat="39.8756467" lon="8.8234233"><ele>139.0</ele><time>2026-05-03T07:11:25.681Z</time></trkpt><trkpt lat="39.8757483" lon="8.823445"><ele>139.0</ele><time>2026-05-03T07:11:27.68Z</time></trkpt><trkpt lat="39.8757767" lon="8.8235933"><ele>139.0</ele><time>2026-05-03T07:11:29.681Z</time></trkpt><trkpt lat="39.875775" lon="8.8236967"><ele>139.0</ele><time>2026-05-03T07:11:30.68Z</time></trkpt><trkpt lat="39.8757833" lon="8.82381"><ele>140.33333333333334</ele><time>2026-05-03T07:11:31.68Z</time></trkpt><trkpt lat="39.8758133" lon="8.8239233"><ele>141.66666666666669</ele><time>2026-05-03T07:11:32.681Z</time></trkpt><trkpt lat="39.8758433" lon="8.82403"><ele>143.0</ele><time>2026-05-03T07:11:33.68Z</time></trkpt><trkpt lat="39.8758617" lon="8.8241317"><ele>144.33333333333334</ele><time>2026-05-03T07:11:34.68Z</time></trkpt><trkpt lat="39.8758783" lon="8.824225"><ele>145.66666666666666</ele><time>2026-05-03T07:11:35.68Z</time></trkpt><trkpt lat="39.8759017" lon="8.82432"><ele>147.0</ele><time>2026-05-03T07:11:36.68Z</time></trkpt><trkpt lat="39.875925" lon="8.8243967"><ele>147.2</ele><time>2026-05-03T07:11:37.68Z</time></trkpt><trkpt lat="39.87596" lon="8.8244983"><ele>147.39999999999998</ele><time>2026-05-03T07:11:39.68Z</time></trkpt><trkpt lat="39.876015" lon="8.8246183"><ele>147.60000000000002</ele><time>2026-05-03T07:11:42.68Z</time></trkpt><trkpt lat="39.8760733" lon="8.8247067"><ele>147.8</ele><time>2026-05-03T07:11:44.68Z</time></trkpt><trkpt lat="39.8760967" lon="8.8247917"><ele>148.0</ele><time>2026-05-03T07:11:46.681Z</time></trkpt><trkpt lat="39.87611" lon="8.8249333"><ele>148.0</ele><time>2026-05-03T07:11:48.68Z</time></trkpt><trkpt lat="39.87611" lon="8.8250233"><ele>148.0</ele><time>2026-05-03T07:11:49.68Z</time></trkpt><trkpt lat="39.8761117" lon="8.825115"><ele>148.0</ele><time>2026-05-03T07:11:50.68Z</time></trkpt><trkpt lat="39.8761167" lon="8.8252"><ele>148.0</ele><time>2026-05-03T07:11:51.681Z</time></trkpt><trkpt lat="39.876125" lon="8.82531"><ele>148.0</ele><time>2026-05-03T07:11:52.68Z</time></trkpt><trkpt lat="39.8761383" lon="8.825425"><ele>148.0</ele><time>2026-05-03T07:11:53.681Z</time></trkpt><trkpt lat="39.8761533" lon="8.8255467"><ele>150.16666666666669</ele><time>2026-05-03T07:11:54.681Z</time></trkpt><trkpt lat="39.8761617" lon="8.825655"><ele>152.33333333333334</ele><time>2026-05-03T07:11:55.68Z</time></trkpt><trkpt lat="39.8761667" lon="8.82576"><ele>154.5</ele><time>2026-05-03T07:11:56.68Z</time></trkpt><trkpt lat="39.8761667" lon="8.8258617"><ele>156.66666666666666</ele><time>2026-05-03T07:11:57.68Z</time></trkpt><trkpt lat="39.8761633" lon="8.8259717"><ele>158.83333333333331</ele><time>2026-05-03T07:11:58.68Z</time></trkpt><trkpt lat="39.8761567" lon="8.8260733"><ele>161.0</ele><time>2026-05-03T07:11:59.681Z</time></trkpt><trkpt lat="39.876155" lon="8.8261733"><ele>162.16666666666666</ele><time>2026-05-03T07:12:00.68Z</time></trkpt><trkpt lat="39.8761567" lon="8.8262567"><ele>163.33333333333331</ele><time>2026-05-03T07:12:01.681Z</time></trkpt><trkpt lat="39.876155" lon="8.826365"><ele>164.5</ele><time>2026-05-03T07:12:03.68Z</time></trkpt><trkpt lat="39.8760867" lon="8.8264917"><ele>165.66666666666666</ele><time>2026-05-03T07:12:06.68Z</time></trkpt><trkpt lat="39.8760433" lon="8.8265583"><ele>166.83333333333334</ele><time>2026-05-03T07:12:07.68Z</time></trkpt><trkpt lat="39.8759967" lon="8.8266383"><ele>168.0</ele><time>2026-05-03T07:12:08.68Z</time></trkpt><trkpt lat="39.8759567" lon="8.82672"><ele>169.66666666666666</ele><time>2026-05-03T07:12:09.68Z</time></trkpt><trkpt lat="39.875915" lon="8.826815"><ele>171.33333333333334</ele><time>2026-05-03T07:12:10.681Z</time></trkpt><trkpt lat="39.87588" lon="8.826925"><ele>173.0</ele><time>2026-05-03T07:12:11.68Z</time></trkpt><trkpt lat="39.87585" lon="8.82703"><ele>174.66666666666669</ele><time>2026-05-03T07:12:12.681Z</time></trkpt><trkpt lat="39.8758267" lon="8.8271283"><ele>176.33333333333334</ele><time>2026-05-03T07:12:13.68Z</time></trkpt><trkpt lat="39.8757967" lon="8.8272183"><ele>178.0</ele><time>2026-05-03T07:12:14.68Z</time></trkpt><trkpt lat="39.8757667" lon="8.827295"><ele>178.0</ele><time>2026-05-03T07:12:15.68Z</time></trkpt><trkpt lat="39.8757283" lon="8.8273783"><ele>178.0</ele><time>2026-05-03T07:12:16.681Z</time></trkpt><trkpt lat="39.8756867" lon="8.8274633"><ele>178.0</ele><time>2026-05-03T07:12:17.68Z</time></trkpt><trkpt lat="39.8756417" lon="8.8275383"><ele>178.0</ele><time>2026-05-03T07:12:18.68Z</time></trkpt><trkpt lat="39.87559" lon="8.8276033"><ele>178.0</ele><time>2026-05-03T07:12:19.681Z</time></trkpt><trkpt lat="39.8755483" lon="8.827665"><ele>178.0</ele><time>2026-05-03T07:12:20.681Z</time></trkpt><trkpt lat="39.8754583" lon="8.8277667"><ele>178.66666666666669</ele><time>2026-05-03T07:12:22.68Z</time></trkpt><trkpt lat="39.8753717" lon="8.8278517"><ele>179.33333333333334</ele><time>2026-05-03T07:12:24.68Z</time></trkpt><trkpt lat="39.8752967" lon="8.827905"><ele>180.0</ele><time>2026-05-03T07:12:26.68Z</time></trkpt><trkpt lat="39.8752267" lon="8.8279217"><ele>180.66666666666666</ele><time>2026-05-03T07:12:28.68Z</time></trkpt><trkpt lat="39.8751483" lon="8.8279317"><ele>181.33333333333331</ele><time>2026-05-03T07:12:30.68Z</time></trkpt><trkpt lat="39.8750733" lon="8.827985"><ele>182.0</ele><time>2026-05-03T07:12:52.681Z</time></trkpt><trkpt lat="39.8750067" lon="8.8280117"><ele>183.8</ele><time>2026-05-03T07:12:53.68Z</time></trkpt><trkpt lat="39.8749133" lon="8.828055"><ele>185.6</ele><time>2026-05-03T07:12:55.681Z</time></trkpt><trkpt lat="39.87483" lon="8.8281117"><ele>187.4</ele><time>2026-05-03T07:12:58.68Z</time></trkpt><trkpt lat="39.8747433" lon="8.82818"><ele>189.20000000000002</ele><time>2026-05-03T07:13:00.68Z</time></trkpt><trkpt lat="39.8746667" lon="8.828245"><ele>191.0</ele><time>2026-05-03T07:13:02.68Z</time></trkpt><trkpt lat="39.87461" lon="8.8282967"><ele>191.0</ele><time>2026-05-03T07:13:04.681Z</time></trkpt><trkpt lat="39.87453" lon="8.8282683"><ele>191.0</ele><time>2026-05-03T07:13:07.68Z</time></trkpt><trkpt lat="39.874505" lon="8.828175"><ele>191.0</ele><time>2026-05-03T07:13:09.68Z</time></trkpt><trkpt lat="39.8744833" lon="8.8280783"><ele>191.0</ele><time>2026-05-03T07:13:11.68Z</time></trkpt><trkpt lat="39.8744217" lon="8.8279817"><ele>191.0</ele><time>2026-05-03T07:13:13.68Z</time></trkpt><trkpt lat="39.8743317" lon="8.827905"><ele>191.0</ele><time>2026-05-03T07:13:15.68Z</time></trkpt><trkpt lat="39.87424" lon="8.8278233"><ele>193.33333333333331</ele><time>2026-05-03T07:13:17.681Z</time></trkpt><trkpt lat="39.8741933" lon="8.8277667"><ele>195.66666666666666</ele><time>2026-05-03T07:13:19.681Z</time></trkpt><trkpt lat="39.8741167" lon="8.8277183"><ele>198.0</ele><time>2026-05-03T07:13:30.68Z</time></trkpt><trkpt lat="39.8740283" lon="8.827665"><ele>200.33333333333331</ele><time>2026-05-03T07:13:32.68Z</time></trkpt><trkpt lat="39.8739383" lon="8.8276133"><ele>202.66666666666666</ele><time>2026-05-03T07:13:34.68Z</time></trkpt><trkpt lat="39.87387" lon="8.827575"><ele>205.0</ele><time>2026-05-03T07:13:36.68Z</time></trkpt><trkpt lat="39.87384" lon="8.8274967"><ele>205.99999999999997</ele><time>2026-05-03T07:14:01.68Z</time></trkpt><trkpt lat="39.8738417" lon="8.827385"><ele>207.0</ele><time>2026-05-03T07:14:03.68Z</time></trkpt><trkpt lat="39.8737817" lon="8.827325"><ele>208.0</ele><time>2026-05-03T07:14:05.681Z</time></trkpt><trkpt lat="39.8737133" lon="8.827325"><ele>209.0</ele><time>2026-05-03T07:14:06.68Z</time></trkpt><trkpt lat="39.8736333" lon="8.8273317"><ele>209.99999999999997</ele><time>2026-05-03T07:14:07.68Z</time></trkpt><trkpt lat="39.8735567" lon="8.8273333"><ele>211.0</ele><time>2026-05-03T07:14:08.68Z</time></trkpt><trkpt lat="39.87348" lon="8.8273233"><ele>212.49999999999997</ele><time>2026-05-03T07:14:09.68Z</time></trkpt><trkpt lat="39.8734017" lon="8.8273117"><ele>214.0</ele><time>2026-05-03T07:14:10.681Z</time></trkpt><trkpt lat="39.8733183" lon="8.8273033"><ele>215.5</ele><time>2026-05-03T07:14:11.681Z</time></trkpt><trkpt lat="39.873235" lon="8.8273033"><ele>217.0</ele><time>2026-05-03T07:14:12.681Z</time></trkpt><trkpt lat="39.8731683" lon="8.8273033"><ele>218.49999999999997</ele><time>2026-05-03T07:14:13.68Z</time></trkpt><trkpt lat="39.8730583" lon="8.8273217"><ele>220.0</ele><time>2026-05-03T07:14:15.681Z</time></trkpt><trkpt lat="39.8729783" lon="8.827335"><ele>219.99999999999997</ele><time>2026-05-03T07:14:17.68Z</time></trkpt><trkpt lat="39.8728817" lon="8.827325"><ele>220.0</ele><time>2026-05-03T07:15:44.68Z</time></trkpt><trkpt lat="39.8728033" lon="8.8273283"><ele>220.0</ele><time>2026-05-03T07:15:45.681Z</time></trkpt><trkpt lat="39.8727283" lon="8.82733"><ele>220.0</ele><time>2026-05-03T07:15:46.681Z</time></trkpt><trkpt lat="39.872665" lon="8.827335"><ele>220.0</ele><time>2026-05-03T07:15:47.681Z</time></trkpt><trkpt lat="39.8726" lon="8.8273433"><ele>219.99999999999997</ele><time>2026-05-03T07:15:48.68Z</time></trkpt><trkpt lat="39.8725367" lon="8.8273517"><ele>220.0</ele><time>2026-05-03T07:15:49.68Z</time></trkpt><trkpt lat="39.87243" lon="8.82736"><ele>219.8</ele><time>2026-05-03T07:15:51.681Z</time></trkpt><trkpt lat="39.872335" lon="8.8273717"><ele>219.6</ele><time>2026-05-03T07:15:53.681Z</time></trkpt><trkpt lat="39.8722367" lon="8.827385"><ele>219.39999999999998</ele><time>2026-05-03T07:15:55.68Z</time></trkpt><trkpt lat="39.8721733" lon="8.827415"><ele>219.2</ele><time>2026-05-03T07:15:57.68Z</time></trkpt><trkpt lat="39.872085" lon="8.82745"><ele>219.0</ele><time>2026-05-03T07:15:59.68Z</time></trkpt><trkpt lat="39.8719683" lon="8.8274517"><ele>219.0</ele><time>2026-05-03T07:16:01.68Z</time></trkpt><trkpt lat="39.87189" lon="8.8274417"><ele>219.0</ele><time>2026-05-03T07:16:02.68Z</time></trkpt><trkpt lat="39.871805" lon="8.8274133"><ele>219.0</ele><time>2026-05-03T07:16:03.68Z</time></trkpt><trkpt lat="39.8717267" lon="8.8273767"><ele>219.0</ele><time>2026-05-03T07:16:04.681Z</time></trkpt><trkpt lat="39.87165" lon="8.8273283"><ele>219.0</ele><time>2026-05-03T07:16:05.68Z</time></trkpt><trkpt lat="39.8715767" lon="8.82729"><ele>219.0</ele><time>2026-05-03T07:16:06.68Z</time></trkpt><trkpt lat="39.8715067" lon="8.827255"><ele>218.57142857142858</ele><time>2026-05-03T07:16:07.68Z</time></trkpt><trkpt lat="39.8714367" lon="8.8272267"><ele>218.14285714285714</ele><time>2026-05-03T07:16:08.68Z</time></trkpt><trkpt lat="39.8713733" lon="8.82719"><ele>217.71428571428572</ele><time>2026-05-03T07:16:09.681Z</time></trkpt><trkpt lat="39.8713033" lon="8.82715"><ele>217.28571428571428</ele><time>2026-05-03T07:16:10.681Z</time></trkpt><trkpt lat="39.8712367" lon="8.8271217"><ele>216.85714285714283</ele><time>2026-05-03T07:16:11.681Z</time></trkpt><trkpt lat="39.8711733" lon="8.8270967"><ele>216.42857142857142</ele><time>2026-05-03T07:16:12.68Z</time></trkpt><trkpt lat="39.8710883" lon="8.8270633"><ele>216.0</ele><time>2026-05-03T07:16:13.681Z</time></trkpt><trkpt lat="39.870995" lon="8.8270183"><ele>216.5</ele><time>2026-05-03T07:16:14.681Z</time></trkpt><trkpt lat="39.8708983" lon="8.826965"><ele>217.0</ele><time>2026-05-03T07:16:15.68Z</time></trkpt><trkpt lat="39.8708067" lon="8.8269167"><ele>217.5</ele><time>2026-05-03T07:16:16.681Z</time></trkpt><trkpt lat="39.8707217" lon="8.8268833"><ele>218.0</ele><time>2026-05-03T07:16:17.681Z</time></trkpt><trkpt lat="39.87065" lon="8.82685"><ele>218.5</ele><time>2026-05-03T07:16:18.68Z</time></trkpt><trkpt lat="39.87058" lon="8.826805"><ele>219.0</ele><time>2026-05-03T07:16:19.681Z</time></trkpt><trkpt lat="39.8705183" lon="8.82675"><ele>219.0</ele><time>2026-05-03T07:16:20.68Z</time></trkpt><trkpt lat="39.8704633" lon="8.8266933"><ele>219.0</ele><time>2026-05-03T07:16:21.68Z</time></trkpt><trkpt lat="39.8704033" lon="8.826625"><ele>219.0</ele><time>2026-05-03T07:16:22.68Z</time></trkpt><trkpt lat="39.87035" lon="8.8265617"><ele>219.0</ele><time>2026-05-03T07:16:23.68Z</time></trkpt><trkpt lat="39.8702933" lon="8.8265133"><ele>219.0</ele><time>2026-05-03T07:16:24.681Z</time></trkpt><trkpt lat="39.8701967" lon="8.8264567"><ele>219.0</ele><time>2026-05-03T07:16:26.68Z</time></trkpt><trkpt lat="39.8701117" lon="8.8264233"><ele>219.16666666666666</ele><time>2026-05-03T07:16:28.68Z</time></trkpt><trkpt lat="39.87007" lon="8.8265117"><ele>219.33333333333331</ele><time>2026-05-03T07:16:31.679Z</time></trkpt><trkpt lat="39.870045" lon="8.8266783"><ele>219.5</ele><time>2026-05-03T07:16:33.679Z</time></trkpt><trkpt lat="39.870035" lon="8.82678"><ele>219.66666666666666</ele><time>2026-05-03T07:16:34.679Z</time></trkpt><trkpt lat="39.870015" lon="8.8268783"><ele>219.83333333333331</ele><time>2026-05-03T07:16:35.68Z</time></trkpt><trkpt lat="39.87" lon="8.82697"><ele>220.0</ele><time>2026-05-03T07:16:36.679Z</time></trkpt><trkpt lat="39.86998" lon="8.82705"><ele>220.49999999999997</ele><time>2026-05-03T07:16:37.68Z</time></trkpt><trkpt lat="39.8699567" lon="8.8271383"><ele>221.0</ele><time>2026-05-03T07:16:38.679Z</time></trkpt><trkpt lat="39.8699133" lon="8.827225"><ele>221.5</ele><time>2026-05-03T07:16:39.679Z</time></trkpt><trkpt lat="39.8698633" lon="8.8273233"><ele>222.0</ele><time>2026-05-03T07:16:40.679Z</time></trkpt><trkpt lat="39.86981" lon="8.82742"><ele>222.49999999999997</ele><time>2026-05-03T07:16:41.679Z</time></trkpt><trkpt lat="39.8697617" lon="8.827515"><ele>223.0</ele><time>2026-05-03T07:16:42.68Z</time></trkpt><trkpt lat="39.8697217" lon="8.8276183"><ele>223.2</ele><time>2026-05-03T07:16:43.68Z</time></trkpt><trkpt lat="39.8696867" lon="8.8277467"><ele>223.4</ele><time>2026-05-03T07:16:44.68Z</time></trkpt><trkpt lat="39.8696483" lon="8.827875"><ele>223.59999999999997</ele><time>2026-05-03T07:16:45.679Z</time></trkpt><trkpt lat="39.8696067" lon="8.8279867"><ele>223.79999999999998</ele><time>2026-05-03T07:16:46.68Z</time></trkpt><trkpt lat="39.8695633" lon="8.8280917"><ele>224.0</ele><time>2026-05-03T07:16:47.68Z</time></trkpt><trkpt lat="39.8695267" lon="8.8281833"><ele>224.00000000000003</ele><time>2026-05-03T07:16:48.679Z</time></trkpt><trkpt lat="39.8695033" lon="8.8282617"><ele>224.0</ele><time>2026-05-03T07:16:49.68Z</time></trkpt><trkpt lat="39.8694883" lon="8.8283467"><ele>224.0</ele><time>2026-05-03T07:16:50.679Z</time></trkpt><trkpt lat="39.8694867" lon="8.8284433"><ele>224.0</ele><time>2026-05-03T07:16:51.679Z</time></trkpt><trkpt lat="39.86948" lon="8.8285567"><ele>224.00000000000003</ele><time>2026-05-03T07:16:52.68Z</time></trkpt><trkpt lat="39.8694517" lon="8.82866"><ele>224.0</ele><time>2026-05-03T07:16:53.679Z</time></trkpt><trkpt lat="39.8694067" lon="8.8287617"><ele>223.79999999999998</ele><time>2026-05-03T07:16:54.679Z</time></trkpt><trkpt lat="39.8693617" lon="8.8288633"><ele>223.59999999999997</ele><time>2026-05-03T07:16:55.679Z</time></trkpt><trkpt lat="39.8693167" lon="8.82897"><ele>223.4</ele><time>2026-05-03T07:16:56.679Z</time></trkpt><trkpt lat="39.8692817" lon="8.8290633"><ele>223.2</ele><time>2026-05-03T07:16:57.68Z</time></trkpt><trkpt lat="39.8692533" lon="8.82915"><ele>223.0</ele><time>2026-05-03T07:16:58.68Z</time></trkpt><trkpt lat="39.869195" lon="8.8292783"><ele>223.33333333333331</ele><time>2026-05-03T07:17:00.679Z</time></trkpt><trkpt lat="39.8691333" lon="8.82944"><ele>223.66666666666666</ele><time>2026-05-03T07:17:02.679Z</time></trkpt><trkpt lat="39.8691083" lon="8.82953"><ele>224.0</ele><time>2026-05-03T07:17:03.68Z</time></trkpt><trkpt lat="39.86908" lon="8.8296233"><ele>224.33333333333331</ele><time>2026-05-03T07:17:04.679Z</time></trkpt><trkpt lat="39.8690483" lon="8.829705"><ele>224.66666666666666</ele><time>2026-05-03T07:17:05.68Z</time></trkpt><trkpt lat="39.8690233" lon="8.8297917"><ele>225.0</ele><time>2026-05-03T07:17:06.679Z</time></trkpt><trkpt lat="39.868995" lon="8.8298883"><ele>225.0</ele><time>2026-05-03T07:17:07.679Z</time></trkpt><trkpt lat="39.8689583" lon="8.82998"><ele>225.0</ele><time>2026-05-03T07:17:08.679Z</time></trkpt><trkpt lat="39.8689233" lon="8.83006"><ele>225.0</ele><time>2026-05-03T07:17:09.679Z</time></trkpt><trkpt lat="39.8688917" lon="8.83015"><ele>225.0</ele><time>2026-05-03T07:17:10.679Z</time></trkpt><trkpt lat="39.868865" lon="8.8302333"><ele>225.0</ele><time>2026-05-03T07:17:11.68Z</time></trkpt><trkpt lat="39.86883" lon="8.830335"><ele>225.0</ele><time>2026-05-03T07:17:12.68Z</time></trkpt><trkpt lat="39.868785" lon="8.8304533"><ele>225.6</ele><time>2026-05-03T07:17:13.679Z</time></trkpt><trkpt lat="39.8687417" lon="8.83057"><ele>226.2</ele><time>2026-05-03T07:17:14.68Z</time></trkpt><trkpt lat="39.8687017" lon="8.830685"><ele>226.8</ele><time>2026-05-03T07:17:15.679Z</time></trkpt><trkpt lat="39.8686633" lon="8.8308017"><ele>227.4</ele><time>2026-05-03T07:17:16.68Z</time></trkpt><trkpt lat="39.8686217" lon="8.8309217"><ele>228.0</ele><time>2026-05-03T07:17:17.679Z</time></trkpt><trkpt lat="39.868575" lon="8.8310467"><ele>228.60000000000002</ele><time>2026-05-03T07:17:18.68Z</time></trkpt><trkpt lat="39.8685383" lon="8.8311683"><ele>229.20000000000002</ele><time>2026-05-03T07:17:19.679Z</time></trkpt><trkpt lat="39.8685117" lon="8.8312883"><ele>229.8</ele><time>2026-05-03T07:17:20.68Z</time></trkpt><trkpt lat="39.8684867" lon="8.8314117"><ele>230.4</ele><time>2026-05-03T07:17:21.68Z</time></trkpt><trkpt lat="39.8684433" lon="8.83153"><ele>231.0</ele><time>2026-05-03T07:17:22.68Z</time></trkpt><trkpt lat="39.8684017" lon="8.83165"><ele>231.0</ele><time>2026-05-03T07:17:23.679Z</time></trkpt><trkpt lat="39.8683683" lon="8.831755"><ele>231.0</ele><time>2026-05-03T07:17:24.679Z</time></trkpt><trkpt lat="39.868335" lon="8.8318633"><ele>231.0</ele><time>2026-05-03T07:17:25.68Z</time></trkpt><trkpt lat="39.8683117" lon="8.831965"><ele>231.0</ele><time>2026-05-03T07:17:26.679Z</time></trkpt><trkpt lat="39.8682917" lon="8.8320467"><ele>231.0</ele><time>2026-05-03T07:17:27.68Z</time></trkpt><trkpt lat="39.8682517" lon="8.8321183"><ele>231.0</ele><time>2026-05-03T07:17:29.679Z</time></trkpt><trkpt lat="39.8681583" lon="8.83207"><ele>231.0</ele><time>2026-05-03T07:18:56.679Z</time></trkpt><trkpt lat="39.8680617" lon="8.831985"><ele>231.00000000000003</ele><time>2026-05-03T07:18:58.679Z</time></trkpt><trkpt lat="39.8680033" lon="8.831935"><ele>231.00000000000003</ele><time>2026-05-03T07:18:59.679Z</time></trkpt><trkpt lat="39.8679283" lon="8.8318817"><ele>231.0</ele><time>2026-05-03T07:19:00.679Z</time></trkpt><trkpt lat="39.8678433" lon="8.8318217"><ele>231.0</ele><time>2026-05-03T07:19:01.679Z</time></trkpt><trkpt lat="39.867745" lon="8.83176"><ele>231.0</ele><time>2026-05-03T07:19:02.68Z</time></trkpt><trkpt lat="39.8676383" lon="8.8316817"><ele>231.0</ele><time>2026-05-03T07:19:03.68Z</time></trkpt><trkpt lat="39.8675283" lon="8.8316017"><ele>231.0</ele><time>2026-05-03T07:19:04.679Z</time></trkpt><trkpt lat="39.8674133" lon="8.8315167"><ele>231.0</ele><time>2026-05-03T07:19:05.68Z</time></trkpt><trkpt lat="39.8672983" lon="8.83143"><ele>230.25</ele><time>2026-05-03T07:19:06.679Z</time></trkpt><trkpt lat="39.867185" lon="8.831345"><ele>229.5</ele><time>2026-05-03T07:19:07.679Z</time></trkpt><trkpt lat="39.8670567" lon="8.83124"><ele>228.75</ele><time>2026-05-03T07:19:08.679Z</time></trkpt><trkpt lat="39.866935" lon="8.831155"><ele>228.0</ele><time>2026-05-03T07:19:09.679Z</time></trkpt><trkpt lat="39.86683" lon="8.8310833"><ele>227.2</ele><time>2026-05-03T07:19:10.68Z</time></trkpt><trkpt lat="39.8667317" lon="8.8310133"><ele>226.4</ele><time>2026-05-03T07:19:11.679Z</time></trkpt><trkpt lat="39.8666333" lon="8.8309467"><ele>225.59999999999997</ele><time>2026-05-03T07:19:12.679Z</time></trkpt><trkpt lat="39.8665467" lon="8.8308817"><ele>224.79999999999998</ele><time>2026-05-03T07:19:13.679Z</time></trkpt><trkpt lat="39.8664817" lon="8.8308233"><ele>224.0</ele><time>2026-05-03T07:19:14.679Z</time></trkpt><trkpt lat="39.8664533" lon="8.8307383"><ele>224.0</ele><time>2026-05-03T07:19:16.679Z</time></trkpt><trkpt lat="39.866455" lon="8.83064"><ele>223.99999999999997</ele><time>2026-05-03T07:19:17.679Z</time></trkpt><trkpt lat="39.8664817" lon="8.8305233"><ele>223.99999999999997</ele><time>2026-05-03T07:19:18.679Z</time></trkpt><trkpt lat="39.866535" lon="8.8303967"><ele>224.0</ele><time>2026-05-03T07:19:19.68Z</time></trkpt><trkpt lat="39.866585" lon="8.830275"><ele>224.0</ele><time>2026-05-03T07:19:20.68Z</time></trkpt><trkpt lat="39.8666233" lon="8.8301567"><ele>223.6</ele><time>2026-05-03T07:19:21.679Z</time></trkpt><trkpt lat="39.866655" lon="8.83003"><ele>223.2</ele><time>2026-05-03T07:19:22.679Z</time></trkpt><trkpt lat="39.86669" lon="8.8298983"><ele>222.79999999999998</ele><time>2026-05-03T07:19:23.68Z</time></trkpt><trkpt lat="39.8667317" lon="8.8297717"><ele>222.39999999999998</ele><time>2026-05-03T07:19:24.679Z</time></trkpt><trkpt lat="39.8667883" lon="8.82964"><ele>222.0</ele><time>2026-05-03T07:19:25.68Z</time></trkpt><trkpt lat="39.86686" lon="8.8294917"><ele>222.0</ele><time>2026-05-03T07:19:26.679Z</time></trkpt><trkpt lat="39.86694" lon="8.8293483"><ele>222.0</ele><time>2026-05-03T07:19:27.68Z</time></trkpt><trkpt lat="39.8670183" lon="8.82921"><ele>222.0</ele><time>2026-05-03T07:19:28.68Z</time></trkpt><trkpt lat="39.8670933" lon="8.8290783"><ele>222.0</ele><time>2026-05-03T07:19:29.679Z</time></trkpt><trkpt lat="39.8671467" lon="8.8289133"><ele>220.5</ele><time>2026-05-03T07:19:30.68Z</time></trkpt><trkpt lat="39.867175" lon="8.82873"><ele>219.0</ele><time>2026-05-03T07:19:31.68Z</time></trkpt><trkpt lat="39.8671983" lon="8.828565"><ele>217.5</ele><time>2026-05-03T07:19:32.679Z</time></trkpt><trkpt lat="39.8672267" lon="8.8284"><ele>216.0</ele><time>2026-05-03T07:19:33.679Z</time></trkpt><trkpt lat="39.8672567" lon="8.828245"><ele>215.0</ele><time>2026-05-03T07:19:34.679Z</time></trkpt><trkpt lat="39.8672833" lon="8.8281183"><ele>214.00000000000003</ele><time>2026-05-03T07:19:35.68Z</time></trkpt><trkpt lat="39.86732" lon="8.827995"><ele>213.0</ele><time>2026-05-03T07:19:36.679Z</time></trkpt><trkpt lat="39.8673633" lon="8.82788"><ele>212.0</ele><time>2026-05-03T07:19:37.679Z</time></trkpt><trkpt lat="39.8674033" lon="8.8277717"><ele>211.0</ele><time>2026-05-03T07:19:38.679Z</time></trkpt><trkpt lat="39.8674517" lon="8.82766"><ele>211.49999999999997</ele><time>2026-05-03T07:19:39.679Z</time></trkpt><trkpt lat="39.86751" lon="8.82755"><ele>212.0</ele><time>2026-05-03T07:19:40.679Z</time></trkpt><trkpt lat="39.86757" lon="8.82744"><ele>212.5</ele><time>2026-05-03T07:19:41.679Z</time></trkpt><trkpt lat="39.867615" lon="8.8273483"><ele>213.0</ele><time>2026-05-03T07:19:42.68Z</time></trkpt><trkpt lat="39.867655" lon="8.8272617"><ele>213.49999999999997</ele><time>2026-05-03T07:19:43.679Z</time></trkpt><trkpt lat="39.8676883" lon="8.8271817"><ele>214.0</ele><time>2026-05-03T07:19:44.679Z</time></trkpt><trkpt lat="39.8677267" lon="8.8271017"><ele>214.0</ele><time>2026-05-03T07:19:46.679Z</time></trkpt><trkpt lat="39.8677717" lon="8.827015"><ele>213.99999999999997</ele><time>2026-05-03T07:19:48.679Z</time></trkpt><trkpt lat="39.8678033" lon="8.8269083"><ele>213.99999999999997</ele><time>2026-05-03T07:19:50.679Z</time></trkpt><trkpt lat="39.867835" lon="8.8267483"><ele>214.0</ele><time>2026-05-03T07:19:52.68Z</time></trkpt><trkpt lat="39.8678417" lon="8.826635"><ele>214.0</ele><time>2026-05-03T07:19:53.679Z</time></trkpt><trkpt lat="39.8678567" lon="8.82651"><ele>213.39999999999998</ele><time>2026-05-03T07:19:54.679Z</time></trkpt><trkpt lat="39.8678733" lon="8.8263733"><ele>212.79999999999998</ele><time>2026-05-03T07:19:55.679Z</time></trkpt><trkpt lat="39.8678867" lon="8.826225"><ele>212.2</ele><time>2026-05-03T07:19:56.679Z</time></trkpt><trkpt lat="39.8678983" lon="8.8260783"><ele>211.60000000000002</ele><time>2026-05-03T07:19:57.679Z</time></trkpt><trkpt lat="39.8679067" lon="8.8259583"><ele>211.0</ele><time>2026-05-03T07:19:58.679Z</time></trkpt><trkpt lat="39.867915" lon="8.8258367"><ele>210.4</ele><time>2026-05-03T07:19:59.679Z</time></trkpt><trkpt lat="39.8679133" lon="8.8257067"><ele>209.8</ele><time>2026-05-03T07:20:00.679Z</time></trkpt><trkpt lat="39.8678967" lon="8.82558"><ele>209.20000000000002</ele><time>2026-05-03T07:20:01.679Z</time></trkpt><trkpt lat="39.86788" lon="8.8254517"><ele>208.60000000000002</ele><time>2026-05-03T07:20:02.679Z</time></trkpt><trkpt lat="39.8678683" lon="8.82534"><ele>208.0</ele><time>2026-05-03T07:20:03.679Z</time></trkpt><trkpt lat="39.8678583" lon="8.8252333"><ele>207.60000000000002</ele><time>2026-05-03T07:20:04.679Z</time></trkpt><trkpt lat="39.8678417" lon="8.8251217"><ele>207.20000000000002</ele><time>2026-05-03T07:20:05.68Z</time></trkpt><trkpt lat="39.8678167" lon="8.8250017"><ele>206.8</ele><time>2026-05-03T07:20:06.679Z</time></trkpt><trkpt lat="39.8677833" lon="8.8248867"><ele>206.4</ele><time>2026-05-03T07:20:07.68Z</time></trkpt><trkpt lat="39.8677433" lon="8.8247733"><ele>206.0</ele><time>2026-05-03T07:20:08.679Z</time></trkpt><trkpt lat="39.8676983" lon="8.8246617"><ele>206.00000000000003</ele><time>2026-05-03T07:20:09.679Z</time></trkpt><trkpt lat="39.8676667" lon="8.8245517"><ele>206.0</ele><time>2026-05-03T07:20:10.679Z</time></trkpt><trkpt lat="39.8676367" lon="8.8244683"><ele>206.0</ele><time>2026-05-03T07:20:11.679Z</time></trkpt><trkpt lat="39.8676317" lon="8.8243783"><ele>206.0</ele><time>2026-05-03T07:20:12.68Z</time></trkpt><trkpt lat="39.8676667" lon="8.824285"><ele>206.00000000000003</ele><time>2026-05-03T07:20:14.679Z</time></trkpt><trkpt lat="39.867735" lon="8.8241617"><ele>206.0</ele><time>2026-05-03T07:20:16.68Z</time></trkpt><trkpt lat="39.8677967" lon="8.8240817"><ele>205.60000000000002</ele><time>2026-05-03T07:20:17.679Z</time></trkpt><trkpt lat="39.8678683" lon="8.8240033"><ele>205.2</ele><time>2026-05-03T07:20:18.68Z</time></trkpt><trkpt lat="39.8679533" lon="8.823925"><ele>204.8</ele><time>2026-05-03T07:20:19.68Z</time></trkpt><trkpt lat="39.86803" lon="8.8238417"><ele>204.39999999999998</ele><time>2026-05-03T07:20:20.679Z</time></trkpt><trkpt lat="39.868105" lon="8.823745"><ele>204.0</ele><time>2026-05-03T07:20:21.679Z</time></trkpt><trkpt lat="39.8681833" lon="8.8236417"><ele>204.0</ele><time>2026-05-03T07:20:22.68Z</time></trkpt><trkpt lat="39.8682533" lon="8.8235317"><ele>204.0</ele><time>2026-05-03T07:20:23.68Z</time></trkpt><trkpt lat="39.8683217" lon="8.8234233"><ele>204.0</ele><time>2026-05-03T07:20:24.679Z</time></trkpt><trkpt lat="39.8683867" lon="8.8233"><ele>204.0</ele><time>2026-05-03T07:20:25.679Z</time></trkpt><trkpt lat="39.8684483" lon="8.8231883"><ele>204.0</ele><time>2026-05-03T07:20:26.68Z</time></trkpt><trkpt lat="39.86851" lon="8.823075"><ele>204.16666666666666</ele><time>2026-05-03T07:20:27.68Z</time></trkpt><trkpt lat="39.86858" lon="8.8229683"><ele>204.33333333333331</ele><time>2026-05-03T07:20:28.679Z</time></trkpt><trkpt lat="39.8686417" lon="8.8228767"><ele>204.5</ele><time>2026-05-03T07:20:29.68Z</time></trkpt><trkpt lat="39.868695" lon="8.822785"><ele>204.66666666666666</ele><time>2026-05-03T07:20:30.679Z</time></trkpt><trkpt lat="39.868735" lon="8.822715"><ele>204.83333333333331</ele><time>2026-05-03T07:20:31.68Z</time></trkpt><trkpt lat="39.8687917" lon="8.8226267"><ele>205.0</ele><time>2026-05-03T07:20:33.68Z</time></trkpt><trkpt lat="39.86886" lon="8.8225633"><ele>203.6</ele><time>2026-05-03T07:20:36.679Z</time></trkpt><trkpt lat="39.8689433" lon="8.8225667"><ele>202.2</ele><time>2026-05-03T07:20:38.679Z</time></trkpt><trkpt lat="39.8690517" lon="8.8225983"><ele>200.8</ele><time>2026-05-03T07:20:40.679Z</time></trkpt><trkpt lat="39.869145" lon="8.822565"><ele>199.4</ele><time>2026-05-03T07:20:42.68Z</time></trkpt><trkpt lat="39.8692033" lon="8.822465"><ele>198.0</ele><time>2026-05-03T07:20:44.68Z</time></trkpt><trkpt lat="39.8692667" lon="8.822345"><ele>198.0</ele><time>2026-05-03T07:20:46.679Z</time></trkpt><trkpt lat="39.8692833" lon="8.8222017"><ele>198.0</ele><time>2026-05-03T07:20:48.679Z</time></trkpt><trkpt lat="39.8692617" lon="8.8220667"><ele>198.0</ele><time>2026-05-03T07:20:50.679Z</time></trkpt><trkpt lat="39.8692217" lon="8.821955"><ele>198.0</ele><time>2026-05-03T07:20:52.68Z</time></trkpt><trkpt lat="39.8691833" lon="8.8218317"><ele>198.0</ele><time>2026-05-03T07:20:54.679Z</time></trkpt><trkpt lat="39.86917" lon="8.8217483"><ele>195.85714285714286</ele><time>2026-05-03T07:20:55.679Z</time></trkpt><trkpt lat="39.8691533" lon="8.8216533"><ele>193.7142857142857</ele><time>2026-05-03T07:20:56.68Z</time></trkpt><trkpt lat="39.8691367" lon="8.8215667"><ele>191.57142857142856</ele><time>2026-05-03T07:20:57.679Z</time></trkpt><trkpt lat="39.8691117" lon="8.8214883"><ele>189.42857142857144</ele><time>2026-05-03T07:20:58.679Z</time></trkpt><trkpt lat="39.8690783" lon="8.8214033"><ele>187.28571428571428</ele><time>2026-05-03T07:20:59.679Z</time></trkpt><trkpt lat="39.8690333" lon="8.8213217"><ele>185.14285714285714</ele><time>2026-05-03T07:21:00.679Z</time></trkpt><trkpt lat="39.8689917" lon="8.821255"><ele>183.0</ele><time>2026-05-03T07:21:01.679Z</time></trkpt><trkpt lat="39.86894" lon="8.8211917"><ele>183.0</ele><time>2026-05-03T07:21:02.679Z</time></trkpt><trkpt lat="39.8688867" lon="8.82113"><ele>183.0</ele><time>2026-05-03T07:21:03.679Z</time></trkpt><trkpt lat="39.86884" lon="8.8210683"><ele>183.0</ele><time>2026-05-03T07:21:04.679Z</time></trkpt><trkpt lat="39.8687983" lon="8.8209917"><ele>183.0</ele><time>2026-05-03T07:21:05.679Z</time></trkpt><trkpt lat="39.868765" lon="8.8209067"><ele>183.0</ele><time>2026-05-03T07:21:06.68Z</time></trkpt><trkpt lat="39.8687467" lon="8.8208017"><ele>183.0</ele><time>2026-05-03T07:21:07.679Z</time></trkpt><trkpt lat="39.86876" lon="8.8207017"><ele>183.0</ele><time>2026-05-03T07:21:08.679Z</time></trkpt><trkpt lat="39.8687867" lon="8.82061"><ele>180.66666666666666</ele><time>2026-05-03T07:21:09.679Z</time></trkpt><trkpt lat="39.8688283" lon="8.8205333"><ele>178.33333333333334</ele><time>2026-05-03T07:21:10.679Z</time></trkpt><trkpt lat="39.86887" lon="8.82044"><ele>176.0</ele><time>2026-05-03T07:21:11.679Z</time></trkpt><trkpt lat="39.8689083" lon="8.820345"><ele>173.66666666666669</ele><time>2026-05-03T07:21:12.679Z</time></trkpt><trkpt lat="39.86894" lon="8.8202533"><ele>171.33333333333334</ele><time>2026-05-03T07:21:13.679Z</time></trkpt><trkpt lat="39.8689667" lon="8.8201667"><ele>169.0</ele><time>2026-05-03T07:21:14.679Z</time></trkpt><trkpt lat="39.868995" lon="8.8200917"><ele>167.0</ele><time>2026-05-03T07:21:15.679Z</time></trkpt><trkpt lat="39.8690333" lon="8.819935"><ele>165.0</ele><time>2026-05-03T07:21:17.68Z</time></trkpt><trkpt lat="39.869065" lon="8.8198583"><ele>163.0</ele><time>2026-05-03T07:21:18.679Z</time></trkpt><trkpt lat="39.869105" lon="8.8197783"><ele>161.0</ele><time>2026-05-03T07:21:19.68Z</time></trkpt><trkpt lat="39.8691483" lon="8.819695"><ele>159.0</ele><time>2026-05-03T07:21:20.679Z</time></trkpt><trkpt lat="39.8691967" lon="8.81961"><ele>157.0</ele><time>2026-05-03T07:21:21.68Z</time></trkpt><trkpt lat="39.869245" lon="8.8195383"><ele>157.85714285714283</ele><time>2026-05-03T07:21:22.679Z</time></trkpt><trkpt lat="39.8692917" lon="8.8194767"><ele>158.71428571428572</ele><time>2026-05-03T07:21:23.68Z</time></trkpt><trkpt lat="39.8693233" lon="8.8193633"><ele>159.57142857142856</ele><time>2026-05-03T07:21:25.679Z</time></trkpt><trkpt lat="39.86936" lon="8.81929"><ele>160.42857142857142</ele><time>2026-05-03T07:21:48.679Z</time></trkpt><trkpt lat="39.8694" lon="8.8191967"><ele>161.28571428571428</ele><time>2026-05-03T07:21:50.68Z</time></trkpt><trkpt lat="39.8693967" lon="8.8191117"><ele>162.14285714285714</ele><time>2026-05-03T07:21:52.68Z</time></trkpt><trkpt lat="39.8693683" lon="8.8190333"><ele>163.0</ele><time>2026-05-03T07:21:54.68Z</time></trkpt><trkpt lat="39.8693717" lon="8.818905"><ele>163.0</ele><time>2026-05-03T07:21:57.679Z</time></trkpt><trkpt lat="39.8694017" lon="8.8187967"><ele>163.0</ele><time>2026-05-03T07:21:59.68Z</time></trkpt><trkpt lat="39.8694233" lon="8.8186533"><ele>163.0</ele><time>2026-05-03T07:22:01.68Z</time></trkpt><trkpt lat="39.8694333" lon="8.8185667"><ele>163.0</ele><time>2026-05-03T07:22:02.679Z</time></trkpt><trkpt lat="39.8694367" lon="8.8184617"><ele>163.0</ele><time>2026-05-03T07:22:03.68Z</time></trkpt><trkpt lat="39.8694417" lon="8.8183717"><ele>163.0</ele><time>2026-05-03T07:22:04.679Z</time></trkpt><trkpt lat="39.8694517" lon="8.8182783"><ele>160.4</ele><time>2026-05-03T07:22:05.679Z</time></trkpt><trkpt lat="39.8694533" lon="8.818195"><ele>157.8</ele><time>2026-05-03T07:22:06.68Z</time></trkpt><trkpt lat="39.8694183" lon="8.818085"><ele>155.2</ele><time>2026-05-03T07:22:08.679Z</time></trkpt><trkpt lat="39.8693233" lon="8.8179933"><ele>152.6</ele><time>2026-05-03T07:22:10.68Z</time></trkpt><trkpt lat="39.8692267" lon="8.8178917"><ele>150.0</ele><time>2026-05-03T07:22:12.679Z</time></trkpt><trkpt lat="39.8691817" lon="8.8178233"><ele>150.0</ele><time>2026-05-03T07:22:13.679Z</time></trkpt><trkpt lat="39.8691467" lon="8.8177483"><ele>150.0</ele><time>2026-05-03T07:22:14.679Z</time></trkpt><trkpt lat="39.8691067" lon="8.8176667"><ele>150.0</ele><time>2026-05-03T07:22:15.679Z</time></trkpt><trkpt lat="39.8690783" lon="8.8175767"><ele>150.0</ele><time>2026-05-03T07:22:16.679Z</time></trkpt><trkpt lat="39.8690683" lon="8.8174283"><ele>150.0</ele><time>2026-05-03T07:22:18.679Z</time></trkpt><trkpt lat="39.8690867" lon="8.8173367"><ele>150.0</ele><time>2026-05-03T07:22:19.679Z</time></trkpt><trkpt lat="39.8691117" lon="8.8172467"><ele>150.0</ele><time>2026-05-03T07:22:20.68Z</time></trkpt><trkpt lat="39.86914" lon="8.81714"><ele>150.0</ele><time>2026-05-03T07:22:21.679Z</time></trkpt><trkpt lat="39.8691517" lon="8.8170367"><ele>150.0</ele><time>2026-05-03T07:22:22.679Z</time></trkpt><trkpt lat="39.8691483" lon="8.8169383"><ele>150.0</ele><time>2026-05-03T07:22:23.679Z</time></trkpt><trkpt lat="39.8691283" lon="8.81681"><ele>150.0</ele><time>2026-05-03T07:22:25.679Z</time></trkpt><trkpt lat="39.8690883" lon="8.8167117"><ele>150.0</ele><time>2026-05-03T07:22:28.679Z</time></trkpt><trkpt lat="39.8690217" lon="8.81662"><ele>151.6</ele><time>2026-05-03T07:22:30.68Z</time></trkpt><trkpt lat="39.8689183" lon="8.816515"><ele>153.2</ele><time>2026-05-03T07:22:32.679Z</time></trkpt><trkpt lat="39.8688583" lon="8.8164683"><ele>154.8</ele><time>2026-05-03T07:22:33.679Z</time></trkpt><trkpt lat="39.868785" lon="8.816415"><ele>156.4</ele><time>2026-05-03T07:22:34.679Z</time></trkpt><trkpt lat="39.8686967" lon="8.81637"><ele>158.0</ele><time>2026-05-03T07:22:35.679Z</time></trkpt><trkpt lat="39.8686033" lon="8.8163233"><ele>158.0</ele><time>2026-05-03T07:22:36.679Z</time></trkpt><trkpt lat="39.8685267" lon="8.8162633"><ele>158.0</ele><time>2026-05-03T07:22:37.679Z</time></trkpt><trkpt lat="39.868465" lon="8.8162"><ele>158.0</ele><time>2026-05-03T07:22:38.679Z</time></trkpt><trkpt lat="39.8683683" lon="8.81611"><ele>158.0</ele><time>2026-05-03T07:22:40.68Z</time></trkpt><trkpt lat="39.8682583" lon="8.816055"><ele>158.0</ele><time>2026-05-03T07:22:42.679Z</time></trkpt><trkpt lat="39.8681867" lon="8.8160533"><ele>162.5</ele><time>2026-05-03T07:22:43.679Z</time></trkpt><trkpt lat="39.8681133" lon="8.81604"><ele>167.0</ele><time>2026-05-03T07:22:44.679Z</time></trkpt><trkpt lat="39.868025" lon="8.816015"><ele>171.5</ele><time>2026-05-03T07:22:45.679Z</time></trkpt><trkpt lat="39.8679367" lon="8.8159717"><ele>176.0</ele><time>2026-05-03T07:22:46.679Z</time></trkpt><trkpt lat="39.8678633" lon="8.815935"><ele>180.5</ele><time>2026-05-03T07:22:47.679Z</time></trkpt><trkpt lat="39.8677783" lon="8.8158767"><ele>185.0</ele><time>2026-05-03T07:22:49.679Z</time></trkpt><trkpt lat="39.867795" lon="8.8157867"><ele>186.2</ele><time>2026-05-03T07:22:51.68Z</time></trkpt><trkpt lat="39.86785" lon="8.8156667"><ele>187.4</ele><time>2026-05-03T07:22:53.68Z</time></trkpt><trkpt lat="39.86781" lon="8.815565"><ele>188.60000000000002</ele><time>2026-05-03T07:22:56.68Z</time></trkpt><trkpt lat="39.8676967" lon="8.8155583"><ele>189.8</ele><time>2026-05-03T07:22:58.679Z</time></trkpt><trkpt lat="39.8676217" lon="8.8155433"><ele>191.0</ele><time>2026-05-03T07:22:59.679Z</time></trkpt><trkpt lat="39.867535" lon="8.8155233"><ele>194.25</ele><time>2026-05-03T07:23:00.679Z</time></trkpt><trkpt lat="39.86743" lon="8.8154967"><ele>197.5</ele><time>2026-05-03T07:23:01.679Z</time></trkpt><trkpt lat="39.867315" lon="8.8154767"><ele>200.75</ele><time>2026-05-03T07:23:02.679Z</time></trkpt><trkpt lat="39.8671983" lon="8.8154633"><ele>204.0</ele><time>2026-05-03T07:23:03.679Z</time></trkpt><trkpt lat="39.8670883" lon="8.8154583"><ele>204.0</ele><time>2026-05-03T07:23:04.679Z</time></trkpt><trkpt lat="39.866995" lon="8.8154483"><ele>204.0</ele><time>2026-05-03T07:23:05.68Z</time></trkpt><trkpt lat="39.8669067" lon="8.8154133"><ele>204.0</ele><time>2026-05-03T07:23:06.679Z</time></trkpt><trkpt lat="39.8668133" lon="8.8153767"><ele>204.0</ele><time>2026-05-03T07:23:07.679Z</time></trkpt><trkpt lat="39.866725" lon="8.815355"><ele>204.0</ele><time>2026-05-03T07:23:08.68Z</time></trkpt><trkpt lat="39.8666617" lon="8.8153383"><ele>204.0</ele><time>2026-05-03T07:23:09.68Z</time></trkpt><trkpt lat="39.866595" lon="8.815435"><ele>205.5</ele><time>2026-05-03T07:23:11.679Z</time></trkpt><trkpt lat="39.86658" lon="8.8155433"><ele>207.0</ele><time>2026-05-03T07:23:12.679Z</time></trkpt><trkpt lat="39.8665667" lon="8.8157083"><ele>208.5</ele><time>2026-05-03T07:23:13.679Z</time></trkpt><trkpt lat="39.866545" lon="8.8159183"><ele>210.0</ele><time>2026-05-03T07:23:14.68Z</time></trkpt><trkpt lat="39.86651" lon="8.8161533"><ele>210.0</ele><time>2026-05-03T07:23:15.68Z</time></trkpt><trkpt lat="39.8664733" lon="8.81639"><ele>210.0</ele><time>2026-05-03T07:23:16.678Z</time></trkpt><trkpt lat="39.86643" lon="8.816595"><ele>210.0</ele><time>2026-05-03T07:23:17.68Z</time></trkpt><trkpt lat="39.8663933" lon="8.8167817"><ele>209.0</ele><time>2026-05-03T07:23:18.679Z</time></trkpt><trkpt lat="39.86636" lon="8.8169833"><ele>208.0</ele><time>2026-05-03T07:23:19.679Z</time></trkpt><trkpt lat="39.8663333" lon="8.81719"><ele>207.0</ele><time>2026-05-03T07:23:20.679Z</time></trkpt><trkpt lat="39.86631" lon="8.8174033"><ele>207.0</ele><time>2026-05-03T07:23:21.679Z</time></trkpt><trkpt lat="39.866285" lon="8.8176117"><ele>207.0</ele><time>2026-05-03T07:23:22.679Z</time></trkpt><trkpt lat="39.8662617" lon="8.81779"><ele>207.0</ele><time>2026-05-03T07:23:23.679Z</time></trkpt><trkpt lat="39.86625" lon="8.8179317"><ele>207.0</ele><time>2026-05-03T07:23:24.679Z</time></trkpt><trkpt lat="39.8662383" lon="8.8180233"><ele>204.75</ele><time>2026-05-03T07:23:25.679Z</time></trkpt><trkpt lat="39.8661833" lon="8.8181233"><ele>202.5</ele><time>2026-05-03T07:23:27.679Z</time></trkpt><trkpt lat="39.8661167" lon="8.818145"><ele>200.25</ele><time>2026-05-03T07:23:28.68Z</time></trkpt><trkpt lat="39.8659817" lon="8.8181117"><ele>198.0</ele><time>2026-05-03T07:23:29.68Z</time></trkpt><trkpt lat="39.86583" lon="8.8180833"><ele>198.0</ele><time>2026-05-03T07:23:30.68Z</time></trkpt><trkpt lat="39.865695" lon="8.81806"><ele>198.0</ele><time>2026-05-03T07:23:31.679Z</time></trkpt><trkpt lat="39.8655617" lon="8.8180667"><ele>198.0</ele><time>2026-05-03T07:23:32.68Z</time></trkpt><trkpt lat="39.86544" lon="8.81806"><ele>198.0</ele><time>2026-05-03T07:23:33.68Z</time></trkpt><trkpt lat="39.8653217" lon="8.81807"><ele>198.0</ele><time>2026-05-03T07:23:34.679Z</time></trkpt><trkpt lat="39.86519" lon="8.8180867"><ele>198.0</ele><time>2026-05-03T07:23:35.679Z</time></trkpt><trkpt lat="39.8650617" lon="8.818105"><ele>198.0</ele><time>2026-05-03T07:23:36.679Z</time></trkpt><trkpt lat="39.8649283" lon="8.8181317"><ele>198.0</ele><time>2026-05-03T07:23:37.679Z</time></trkpt><trkpt lat="39.86479" lon="8.818155"><ele>198.75</ele><time>2026-05-03T07:23:38.679Z</time></trkpt><trkpt lat="39.8646567" lon="8.8181717"><ele>199.5</ele><time>2026-05-03T07:23:39.68Z</time></trkpt><trkpt lat="39.864525" lon="8.8181833"><ele>200.25</ele><time>2026-05-03T07:23:40.679Z</time></trkpt><trkpt lat="39.8644083" lon="8.8182"><ele>201.0</ele><time>2026-05-03T07:23:41.679Z</time></trkpt><trkpt lat="39.8643017" lon="8.81821"><ele>201.0</ele><time>2026-05-03T07:23:42.679Z</time></trkpt><trkpt lat="39.8642217" lon="8.81823"><ele>201.0</ele><time>2026-05-03T07:23:43.68Z</time></trkpt><trkpt lat="39.8641533" lon="8.8182783"><ele>201.0</ele><time>2026-05-03T07:23:44.68Z</time></trkpt><trkpt lat="39.8641" lon="8.8183567"><ele>201.0</ele><time>2026-05-03T07:23:45.679Z</time></trkpt><trkpt lat="39.8640733" lon="8.8184583"><ele>201.0</ele><time>2026-05-03T07:23:46.68Z</time></trkpt><trkpt lat="39.864055" lon="8.8185783"><ele>201.0</ele><time>2026-05-03T07:23:47.679Z</time></trkpt><trkpt lat="39.8640333" lon="8.8187133"><ele>201.0</ele><time>2026-05-03T07:23:48.679Z</time></trkpt><trkpt lat="39.8640267" lon="8.8188583"><ele>201.0</ele><time>2026-05-03T07:23:49.68Z</time></trkpt><trkpt lat="39.8640133" lon="8.81901"><ele>201.0</ele><time>2026-05-03T07:23:50.68Z</time></trkpt><trkpt lat="39.863995" lon="8.8191717"><ele>201.0</ele><time>2026-05-03T07:23:51.68Z</time></trkpt><trkpt lat="39.8639783" lon="8.8193433"><ele>201.25</ele><time>2026-05-03T07:23:52.68Z</time></trkpt><trkpt lat="39.8639617" lon="8.8195033"><ele>201.5</ele><time>2026-05-03T07:23:53.679Z</time></trkpt><trkpt lat="39.863945" lon="8.8196717"><ele>201.75</ele><time>2026-05-03T07:23:54.68Z</time></trkpt><trkpt lat="39.863935" lon="8.8198283"><ele>202.0</ele><time>2026-05-03T07:23:55.68Z</time></trkpt><trkpt lat="39.863935" lon="8.8199883"><ele>202.0</ele><time>2026-05-03T07:23:56.679Z</time></trkpt><trkpt lat="39.8639483" lon="8.82011"><ele>202.0</ele><time>2026-05-03T07:23:57.679Z</time></trkpt><trkpt lat="39.8639717" lon="8.8201967"><ele>202.0</ele><time>2026-05-03T07:23:58.68Z</time></trkpt><trkpt lat="39.8640783" lon="8.82026"><ele>202.0</ele><time>2026-05-03T07:24:00.679Z</time></trkpt><trkpt lat="39.86417" lon="8.8202667"><ele>202.0</ele><time>2026-05-03T07:24:01.679Z</time></trkpt><trkpt lat="39.8642617" lon="8.8202733"><ele>202.49999999999997</ele><time>2026-05-03T07:24:02.679Z</time></trkpt><trkpt lat="39.8643467" lon="8.820295"><ele>203.0</ele><time>2026-05-03T07:24:03.679Z</time></trkpt><trkpt lat="39.864435" lon="8.820315"><ele>203.5</ele><time>2026-05-03T07:24:04.68Z</time></trkpt><trkpt lat="39.8645167" lon="8.820335"><ele>204.0</ele><time>2026-05-03T07:24:05.68Z</time></trkpt><trkpt lat="39.864605" lon="8.8203617"><ele>204.49999999999997</ele><time>2026-05-03T07:24:06.679Z</time></trkpt><trkpt lat="39.864695" lon="8.820385"><ele>205.0</ele><time>2026-05-03T07:24:07.679Z</time></trkpt><trkpt lat="39.86477" lon="8.8204083"><ele>205.0</ele><time>2026-05-03T07:24:08.679Z</time></trkpt><trkpt lat="39.864845" lon="8.8205183"><ele>205.0</ele><time>2026-05-03T07:24:10.68Z</time></trkpt><trkpt lat="39.8648417" lon="8.8206317"><ele>205.0</ele><time>2026-05-03T07:24:11.679Z</time></trkpt><trkpt lat="39.8648217" lon="8.8207483"><ele>205.0</ele><time>2026-05-03T07:24:12.68Z</time></trkpt><trkpt lat="39.8648067" lon="8.820865"><ele>205.0</ele><time>2026-05-03T07:24:13.68Z</time></trkpt><trkpt lat="39.8647817" lon="8.820975"><ele>205.4</ele><time>2026-05-03T07:24:14.679Z</time></trkpt><trkpt lat="39.8647467" lon="8.82109"><ele>205.8</ele><time>2026-05-03T07:24:15.679Z</time></trkpt><trkpt lat="39.8647067" lon="8.8212083"><ele>206.2</ele><time>2026-05-03T07:24:16.679Z</time></trkpt><trkpt lat="39.8646733" lon="8.8213417"><ele>206.6</ele><time>2026-05-03T07:24:17.679Z</time></trkpt><trkpt lat="39.86465" lon="8.8214667"><ele>207.0</ele><time>2026-05-03T07:24:18.68Z</time></trkpt><trkpt lat="39.8646183" lon="8.8215983"><ele>207.0</ele><time>2026-05-03T07:24:19.679Z</time></trkpt><trkpt lat="39.8645883" lon="8.8217283"><ele>207.0</ele><time>2026-05-03T07:24:20.679Z</time></trkpt><trkpt lat="39.8645583" lon="8.8218683"><ele>207.0</ele><time>2026-05-03T07:24:21.679Z</time></trkpt><trkpt lat="39.864525" lon="8.8220367"><ele>207.0</ele><time>2026-05-03T07:24:22.68Z</time></trkpt><trkpt lat="39.8644867" lon="8.82221"><ele>207.0</ele><time>2026-05-03T07:24:23.679Z</time></trkpt><trkpt lat="39.8644517" lon="8.822375"><ele>207.0</ele><time>2026-05-03T07:24:24.679Z</time></trkpt><trkpt lat="39.8644133" lon="8.822535"><ele>207.0</ele><time>2026-05-03T07:24:25.68Z</time></trkpt><trkpt lat="39.86437" lon="8.8227167"><ele>207.0</ele><time>2026-05-03T07:24:26.679Z</time></trkpt><trkpt lat="39.864325" lon="8.8229167"><ele>207.66666666666669</ele><time>2026-05-03T07:24:27.679Z</time></trkpt><trkpt lat="39.8642667" lon="8.823125"><ele>208.33333333333334</ele><time>2026-05-03T07:24:28.679Z</time></trkpt><trkpt lat="39.8642083" lon="8.823355"><ele>209.0</ele><time>2026-05-03T07:24:29.679Z</time></trkpt><trkpt lat="39.8641483" lon="8.8235967"><ele>209.0</ele><time>2026-05-03T07:24:30.679Z</time></trkpt><trkpt lat="39.8640867" lon="8.8238333"><ele>209.0</ele><time>2026-05-03T07:24:31.679Z</time></trkpt><trkpt lat="39.8640317" lon="8.8240383"><ele>209.0</ele><time>2026-05-03T07:24:32.679Z</time></trkpt><trkpt lat="39.86398" lon="8.8242183"><ele>208.0</ele><time>2026-05-03T07:24:33.679Z</time></trkpt><trkpt lat="39.8639433" lon="8.8243667"><ele>207.0</ele><time>2026-05-03T07:24:34.68Z</time></trkpt><trkpt lat="39.863915" lon="8.8244883"><ele>206.0</ele><time>2026-05-03T07:24:35.679Z</time></trkpt><trkpt lat="39.8638867" lon="8.82459"><ele>205.0</ele><time>2026-05-03T07:24:36.679Z</time></trkpt><trkpt lat="39.8638583" lon="8.8246683"><ele>204.0</ele><time>2026-05-03T07:24:37.679Z</time></trkpt><trkpt lat="39.8638017" lon="8.8247717"><ele>204.0</ele><time>2026-05-03T07:24:39.679Z</time></trkpt><trkpt lat="39.863775" lon="8.8248467"><ele>204.0</ele><time>2026-05-03T07:24:41.68Z</time></trkpt><trkpt lat="39.8638067" lon="8.8249317"><ele>204.0</ele><time>2026-05-03T07:24:43.68Z</time></trkpt><trkpt lat="39.8638933" lon="8.82501"><ele>204.0</ele><time>2026-05-03T07:24:45.679Z</time></trkpt><trkpt lat="39.8639767" lon="8.82511"><ele>204.0</ele><time>2026-05-03T07:24:47.679Z</time></trkpt><trkpt lat="39.8640183" lon="8.8251867"><ele>204.0</ele><time>2026-05-03T07:24:48.679Z</time></trkpt><trkpt lat="39.8640517" lon="8.8252767"><ele>203.5</ele><time>2026-05-03T07:24:49.68Z</time></trkpt><trkpt lat="39.8640967" lon="8.82537"><ele>203.0</ele><time>2026-05-03T07:24:50.68Z</time></trkpt><trkpt lat="39.864135" lon="8.82546"><ele>202.5</ele><time>2026-05-03T07:24:51.679Z</time></trkpt><trkpt lat="39.86416" lon="8.8255583"><ele>202.0</ele><time>2026-05-03T07:24:52.679Z</time></trkpt><trkpt lat="39.86418" lon="8.8256733"><ele>201.5</ele><time>2026-05-03T07:24:53.679Z</time></trkpt><trkpt lat="39.8642033" lon="8.8257667"><ele>201.0</ele><time>2026-05-03T07:24:54.68Z</time></trkpt><trkpt lat="39.864245" lon="8.82584"><ele>201.0</ele><time>2026-05-03T07:24:55.679Z</time></trkpt><trkpt lat="39.8642983" lon="8.8258967"><ele>201.0</ele><time>2026-05-03T07:24:56.68Z</time></trkpt><trkpt lat="39.8643817" lon="8.8259517"><ele>201.0</ele><time>2026-05-03T07:24:57.679Z</time></trkpt><trkpt lat="39.86448" lon="8.8259933"><ele>201.0</ele><time>2026-05-03T07:24:58.68Z</time></trkpt><trkpt lat="39.8645783" lon="8.826035"><ele>201.0</ele><time>2026-05-03T07:24:59.68Z</time></trkpt><trkpt lat="39.864665" lon="8.8260517"><ele>201.0</ele><time>2026-05-03T07:25:00.679Z</time></trkpt><trkpt lat="39.86475" lon="8.8260467"><ele>201.0</ele><time>2026-05-03T07:25:01.68Z</time></trkpt><trkpt lat="39.86484" lon="8.826005"><ele>201.0</ele><time>2026-05-03T07:25:02.679Z</time></trkpt><trkpt lat="39.8649267" lon="8.825925"><ele>201.0</ele><time>2026-05-03T07:25:03.68Z</time></trkpt><trkpt lat="39.86501" lon="8.8258233"><ele>201.0</ele><time>2026-05-03T07:25:04.679Z</time></trkpt><trkpt lat="39.865075" lon="8.8257567"><ele>201.0</ele><time>2026-05-03T07:25:05.68Z</time></trkpt><trkpt lat="39.8651533" lon="8.8257317"><ele>201.0</ele><time>2026-05-03T07:25:06.68Z</time></trkpt><trkpt lat="39.8652417" lon="8.8257233"><ele>201.0</ele><time>2026-05-03T07:25:07.679Z</time></trkpt><trkpt lat="39.8653417" lon="8.8257217"><ele>201.0</ele><time>2026-05-03T07:25:08.679Z</time></trkpt><trkpt lat="39.865445" lon="8.8256917"><ele>201.0</ele><time>2026-05-03T07:25:09.679Z</time></trkpt><trkpt lat="39.865545" lon="8.8256317"><ele>201.0</ele><time>2026-05-03T07:25:10.68Z</time></trkpt><trkpt lat="39.86566" lon="8.8255333"><ele>201.0</ele><time>2026-05-03T07:25:11.679Z</time></trkpt><trkpt lat="39.865775" lon="8.82543"><ele>201.0</ele><time>2026-05-03T07:25:12.679Z</time></trkpt><trkpt lat="39.8658867" lon="8.8253367"><ele>201.0</ele><time>2026-05-03T07:25:13.679Z</time></trkpt><trkpt lat="39.8659917" lon="8.8252667"><ele>198.8</ele><time>2026-05-03T07:25:14.679Z</time></trkpt><trkpt lat="39.8660883" lon="8.8252133"><ele>196.60000000000002</ele><time>2026-05-03T07:25:15.679Z</time></trkpt><trkpt lat="39.8661767" lon="8.82517"><ele>194.4</ele><time>2026-05-03T07:25:16.68Z</time></trkpt><trkpt lat="39.8662467" lon="8.8251517"><ele>192.2</ele><time>2026-05-03T07:25:17.679Z</time></trkpt><trkpt lat="39.8663083" lon="8.8252517"><ele>190.0</ele><time>2026-05-03T07:25:19.679Z</time></trkpt><trkpt lat="39.86631" lon="8.8253633"><ele>190.0</ele><time>2026-05-03T07:25:20.679Z</time></trkpt><trkpt lat="39.86628" lon="8.8254933"><ele>190.0</ele><time>2026-05-03T07:25:21.679Z</time></trkpt><trkpt lat="39.8662367" lon="8.82566"><ele>190.0</ele><time>2026-05-03T07:25:22.68Z</time></trkpt><trkpt lat="39.86618" lon="8.8258267"><ele>190.0</ele><time>2026-05-03T07:25:23.679Z</time></trkpt><trkpt lat="39.866125" lon="8.8260133"><ele>189.33333333333334</ele><time>2026-05-03T07:25:24.679Z</time></trkpt><trkpt lat="39.86608" lon="8.82621"><ele>188.66666666666666</ele><time>2026-05-03T07:25:25.68Z</time></trkpt><trkpt lat="39.866045" lon="8.826415"><ele>188.0</ele><time>2026-05-03T07:25:26.68Z</time></trkpt><trkpt lat="39.8660017" lon="8.82661"><ele>188.0</ele><time>2026-05-03T07:25:27.679Z</time></trkpt><trkpt lat="39.8659733" lon="8.8268067"><ele>188.0</ele><time>2026-05-03T07:25:28.679Z</time></trkpt><trkpt lat="39.865935" lon="8.8269717"><ele>188.0</ele><time>2026-05-03T07:25:29.68Z</time></trkpt><trkpt lat="39.8659017" lon="8.8271133"><ele>188.0</ele><time>2026-05-03T07:25:30.679Z</time></trkpt><trkpt lat="39.86587" lon="8.8272267"><ele>190.0</ele><time>2026-05-03T07:25:31.679Z</time></trkpt><trkpt lat="39.8658117" lon="8.8273333"><ele>192.0</ele><time>2026-05-03T07:25:32.679Z</time></trkpt><trkpt lat="39.8657283" lon="8.82746"><ele>194.0</ele><time>2026-05-03T07:25:33.679Z</time></trkpt><trkpt lat="39.8656417" lon="8.8276117"><ele>196.0</ele><time>2026-05-03T07:25:34.68Z</time></trkpt><trkpt lat="39.8655633" lon="8.8277767"><ele>196.0</ele><time>2026-05-03T07:25:35.679Z</time></trkpt><trkpt lat="39.8654833" lon="8.8279317"><ele>196.0</ele><time>2026-05-03T07:25:36.68Z</time></trkpt><trkpt lat="39.865405" lon="8.828055"><ele>196.0</ele><time>2026-05-03T07:25:37.679Z</time></trkpt><trkpt lat="39.86531" lon="8.8281483"><ele>196.0</ele><time>2026-05-03T07:25:38.679Z</time></trkpt><trkpt lat="39.8651917" lon="8.82825"><ele>196.75</ele><time>2026-05-03T07:25:39.68Z</time></trkpt><trkpt lat="39.8650667" lon="8.82834"><ele>197.5</ele><time>2026-05-03T07:25:40.679Z</time></trkpt><trkpt lat="39.864925" lon="8.8284317"><ele>198.25</ele><time>2026-05-03T07:25:41.679Z</time></trkpt><trkpt lat="39.8647983" lon="8.828505"><ele>199.0</ele><time>2026-05-03T07:25:42.679Z</time></trkpt><trkpt lat="39.8646767" lon="8.8285867"><ele>199.0</ele><time>2026-05-03T07:25:43.679Z</time></trkpt><trkpt lat="39.8645667" lon="8.82868"><ele>199.0</ele><time>2026-05-03T07:25:44.679Z</time></trkpt><trkpt lat="39.86446" lon="8.8287717"><ele>199.0</ele><time>2026-05-03T07:25:45.679Z</time></trkpt><trkpt lat="39.86437" lon="8.8288533"><ele>199.0</ele><time>2026-05-03T07:25:46.679Z</time></trkpt><trkpt lat="39.86429" lon="8.8289217"><ele>200.66666666666666</ele><time>2026-05-03T07:25:47.679Z</time></trkpt><trkpt lat="39.86422" lon="8.828955"><ele>202.33333333333331</ele><time>2026-05-03T07:25:48.679Z</time></trkpt><trkpt lat="39.86415" lon="8.8289667"><ele>204.0</ele><time>2026-05-03T07:25:49.68Z</time></trkpt><trkpt lat="39.8640767" lon="8.8289483"><ele>205.66666666666669</ele><time>2026-05-03T07:25:50.679Z</time></trkpt><trkpt lat="39.863985" lon="8.8288983"><ele>207.33333333333334</ele><time>2026-05-03T07:25:51.679Z</time></trkpt><trkpt lat="39.8638733" lon="8.8288217"><ele>209.0</ele><time>2026-05-03T07:25:52.68Z</time></trkpt><trkpt lat="39.86375" lon="8.82874"><ele>209.0</ele><time>2026-05-03T07:25:53.679Z</time></trkpt><trkpt lat="39.8636217" lon="8.8286633"><ele>209.0</ele><time>2026-05-03T07:25:54.679Z</time></trkpt><trkpt lat="39.8634917" lon="8.828585"><ele>209.0</ele><time>2026-05-03T07:25:55.679Z</time></trkpt><trkpt lat="39.863375" lon="8.828505"><ele>209.0</ele><time>2026-05-03T07:25:56.679Z</time></trkpt><trkpt lat="39.8632633" lon="8.828425"><ele>208.75</ele><time>2026-05-03T07:25:57.68Z</time></trkpt><trkpt lat="39.8631617" lon="8.8283383"><ele>208.5</ele><time>2026-05-03T07:25:58.68Z</time></trkpt><trkpt lat="39.8630583" lon="8.82825"><ele>208.25</ele><time>2026-05-03T07:25:59.679Z</time></trkpt><trkpt lat="39.8629583" lon="8.8281517"><ele>208.0</ele><time>2026-05-03T07:26:00.68Z</time></trkpt><trkpt lat="39.8628667" lon="8.8280567"><ele>207.99999999999997</ele><time>2026-05-03T07:26:01.68Z</time></trkpt><trkpt lat="39.86279" lon="8.8279883"><ele>208.0</ele><time>2026-05-03T07:26:02.679Z</time></trkpt><trkpt lat="39.8627267" lon="8.8279533"><ele>208.0</ele><time>2026-05-03T07:26:03.679Z</time></trkpt><trkpt lat="39.8626067" lon="8.8278783"><ele>208.0</ele><time>2026-05-03T07:26:05.679Z</time></trkpt><trkpt lat="39.8625433" lon="8.827835"><ele>207.99999999999997</ele><time>2026-05-03T07:26:06.679Z</time></trkpt><trkpt lat="39.8624767" lon="8.8278017"><ele>208.0</ele><time>2026-05-03T07:26:07.679Z</time></trkpt><trkpt lat="39.862405" lon="8.827795"><ele>207.60000000000002</ele><time>2026-05-03T07:26:08.679Z</time></trkpt><trkpt lat="39.8623333" lon="8.8278233"><ele>207.20000000000002</ele><time>2026-05-03T07:26:09.68Z</time></trkpt><trkpt lat="39.8622667" lon="8.82788"><ele>206.8</ele><time>2026-05-03T07:26:10.679Z</time></trkpt><trkpt lat="39.8622017" lon="8.8279667"><ele>206.4</ele><time>2026-05-03T07:26:11.68Z</time></trkpt><trkpt lat="39.8621317" lon="8.8280867"><ele>206.0</ele><time>2026-05-03T07:26:12.68Z</time></trkpt><trkpt lat="39.8620717" lon="8.828225"><ele>206.00000000000003</ele><time>2026-05-03T07:26:13.679Z</time></trkpt><trkpt lat="39.862015" lon="8.8283433"><ele>206.0</ele><time>2026-05-03T07:26:14.679Z</time></trkpt><trkpt lat="39.8619583" lon="8.8284333"><ele>206.0</ele><time>2026-05-03T07:26:15.68Z</time></trkpt><trkpt lat="39.8618767" lon="8.82851"><ele>206.0</ele><time>2026-05-03T07:26:17.679Z</time></trkpt><trkpt lat="39.8618133" lon="8.8284783"><ele>206.00000000000003</ele><time>2026-05-03T07:26:19.68Z</time></trkpt><trkpt lat="39.8617833" lon="8.8284017"><ele>206.0</ele><time>2026-05-03T07:26:20.68Z</time></trkpt><trkpt lat="39.8617483" lon="8.8282967"><ele>207.33333333333334</ele><time>2026-05-03T07:26:21.679Z</time></trkpt><trkpt lat="39.861715" lon="8.8281867"><ele>208.66666666666669</ele><time>2026-05-03T07:26:22.679Z</time></trkpt><trkpt lat="39.8616833" lon="8.828105"><ele>210.0</ele><time>2026-05-03T07:26:23.679Z</time></trkpt><trkpt lat="39.86162" lon="8.8280267"><ele>211.33333333333331</ele><time>2026-05-03T07:26:25.68Z</time></trkpt><trkpt lat="39.86155" lon="8.828025"><ele>212.66666666666666</ele><time>2026-05-03T07:26:27.679Z</time></trkpt><trkpt lat="39.861485" lon="8.828025"><ele>214.0</ele><time>2026-05-03T07:26:28.68Z</time></trkpt><trkpt lat="39.8614033" lon="8.8280333"><ele>214.0</ele><time>2026-05-03T07:26:29.679Z</time></trkpt><trkpt lat="39.8613067" lon="8.8280667"><ele>214.0</ele><time>2026-05-03T07:26:30.68Z</time></trkpt><trkpt lat="39.8612167" lon="8.8281267"><ele>214.0</ele><time>2026-05-03T07:26:31.679Z</time></trkpt><trkpt lat="39.8611217" lon="8.82823"><ele>214.0</ele><time>2026-05-03T07:26:32.679Z</time></trkpt><trkpt lat="39.8610233" lon="8.8283483"><ele>215.2</ele><time>2026-05-03T07:26:33.679Z</time></trkpt><trkpt lat="39.860935" lon="8.8284467"><ele>216.39999999999998</ele><time>2026-05-03T07:26:34.679Z</time></trkpt><trkpt lat="39.8608483" lon="8.8285167"><ele>217.6</ele><time>2026-05-03T07:26:35.679Z</time></trkpt><trkpt lat="39.8607567" lon="8.828595"><ele>218.8</ele><time>2026-05-03T07:26:36.679Z</time></trkpt><trkpt lat="39.8606767" lon="8.82867"><ele>220.0</ele><time>2026-05-03T07:26:37.679Z</time></trkpt><trkpt lat="39.8605983" lon="8.8287617"><ele>220.0</ele><time>2026-05-03T07:26:38.68Z</time></trkpt><trkpt lat="39.860535" lon="8.8288717"><ele>220.0</ele><time>2026-05-03T07:26:39.679Z</time></trkpt><trkpt lat="39.860495" lon="8.8289883"><ele>220.0</ele><time>2026-05-03T07:26:40.679Z</time></trkpt><trkpt lat="39.8604767" lon="8.8291183"><ele>220.0</ele><time>2026-05-03T07:26:41.68Z</time></trkpt><trkpt lat="39.8604783" lon="8.8292433"><ele>220.0</ele><time>2026-05-03T07:26:42.679Z</time></trkpt><trkpt lat="39.8605183" lon="8.82936"><ele>220.0</ele><time>2026-05-03T07:26:43.68Z</time></trkpt><trkpt lat="39.8605783" lon="8.8295033"><ele>220.0</ele><time>2026-05-03T07:26:44.68Z</time></trkpt><trkpt lat="39.8606617" lon="8.8296583"><ele>220.0</ele><time>2026-05-03T07:26:45.68Z</time></trkpt><trkpt lat="39.8607383" lon="8.82981"><ele>220.0</ele><time>2026-05-03T07:26:46.679Z</time></trkpt><trkpt lat="39.86081" lon="8.8299517"><ele>220.0</ele><time>2026-05-03T07:26:47.679Z</time></trkpt><trkpt lat="39.8608733" lon="8.8300733"><ele>220.0</ele><time>2026-05-03T07:26:48.679Z</time></trkpt><trkpt lat="39.8609267" lon="8.8301817"><ele>220.0</ele><time>2026-05-03T07:26:49.679Z</time></trkpt><trkpt lat="39.8609867" lon="8.8302817"><ele>220.0</ele><time>2026-05-03T07:26:50.68Z</time></trkpt><trkpt lat="39.8610717" lon="8.8303717"><ele>220.0</ele><time>2026-05-03T07:26:51.679Z</time></trkpt><trkpt lat="39.8611767" lon="8.83046"><ele>219.2</ele><time>2026-05-03T07:26:52.679Z</time></trkpt><trkpt lat="39.86128" lon="8.830535"><ele>218.4</ele><time>2026-05-03T07:26:53.679Z</time></trkpt><trkpt lat="39.8613733" lon="8.83059"><ele>217.60000000000002</ele><time>2026-05-03T07:26:54.679Z</time></trkpt><trkpt lat="39.8614533" lon="8.8306567"><ele>216.8</ele><time>2026-05-03T07:26:55.68Z</time></trkpt><trkpt lat="39.8615267" lon="8.830725"><ele>216.0</ele><time>2026-05-03T07:26:56.679Z</time></trkpt><trkpt lat="39.86161" lon="8.8308117"><ele>216.0</ele><time>2026-05-03T07:26:57.68Z</time></trkpt><trkpt lat="39.86171" lon="8.83092"><ele>216.0</ele><time>2026-05-03T07:26:58.679Z</time></trkpt><trkpt lat="39.861825" lon="8.8310283"><ele>216.0</ele><time>2026-05-03T07:26:59.679Z</time></trkpt><trkpt lat="39.8619467" lon="8.8311433"><ele>216.0</ele><time>2026-05-03T07:27:00.679Z</time></trkpt><trkpt lat="39.8620517" lon="8.83125"><ele>214.5</ele><time>2026-05-03T07:27:01.679Z</time></trkpt><trkpt lat="39.862155" lon="8.8313633"><ele>213.0</ele><time>2026-05-03T07:27:02.679Z</time></trkpt><trkpt lat="39.86225" lon="8.8314717"><ele>211.5</ele><time>2026-05-03T07:27:03.679Z</time></trkpt><trkpt lat="39.8623333" lon="8.83156"><ele>210.0</ele><time>2026-05-03T07:27:04.68Z</time></trkpt><trkpt lat="39.8624017" lon="8.83165"><ele>210.0</ele><time>2026-05-03T07:27:05.68Z</time></trkpt><trkpt lat="39.862465" lon="8.831745"><ele>210.0</ele><time>2026-05-03T07:27:06.679Z</time></trkpt><trkpt lat="39.862515" lon="8.8318617"><ele>210.0</ele><time>2026-05-03T07:27:07.679Z</time></trkpt><trkpt lat="39.86254" lon="8.8319817"><ele>210.0</ele><time>2026-05-03T07:27:08.68Z</time></trkpt><trkpt lat="39.862545" lon="8.83209"><ele>210.0</ele><time>2026-05-03T07:27:09.679Z</time></trkpt><trkpt lat="39.862515" lon="8.832185"><ele>210.6</ele><time>2026-05-03T07:27:10.679Z</time></trkpt><trkpt lat="39.8624667" lon="8.8322867"><ele>211.2</ele><time>2026-05-03T07:27:11.679Z</time></trkpt><trkpt lat="39.862385" lon="8.8323717"><ele>211.8</ele><time>2026-05-03T07:27:12.679Z</time></trkpt><trkpt lat="39.8623" lon="8.83246"><ele>212.4</ele><time>2026-05-03T07:27:13.679Z</time></trkpt><trkpt lat="39.8622233" lon="8.8325317"><ele>213.0</ele><time>2026-05-03T07:27:14.679Z</time></trkpt><trkpt lat="39.8621517" lon="8.8326"><ele>213.7142857142857</ele><time>2026-05-03T07:27:15.679Z</time></trkpt><trkpt lat="39.8620783" lon="8.832645"><ele>214.42857142857142</ele><time>2026-05-03T07:27:16.679Z</time></trkpt><trkpt lat="39.8620067" lon="8.8326617"><ele>215.14285714285714</ele><time>2026-05-03T07:27:17.679Z</time></trkpt><trkpt lat="39.861945" lon="8.8326833"><ele>215.85714285714283</ele><time>2026-05-03T07:27:18.68Z</time></trkpt><trkpt lat="39.861895" lon="8.8327433"><ele>216.57142857142858</ele><time>2026-05-03T07:27:19.679Z</time></trkpt><trkpt lat="39.861845" lon="8.8328133"><ele>217.28571428571428</ele><time>2026-05-03T07:27:20.679Z</time></trkpt><trkpt lat="39.8617967" lon="8.8328983"><ele>218.0</ele><time>2026-05-03T07:27:21.68Z</time></trkpt><trkpt lat="39.861745" lon="8.832995"><ele>220.8</ele><time>2026-05-03T07:27:22.68Z</time></trkpt><trkpt lat="39.86167" lon="8.8330617"><ele>223.60000000000002</ele><time>2026-05-03T07:27:23.68Z</time></trkpt><trkpt lat="39.86159" lon="8.83313"><ele>226.39999999999998</ele><time>2026-05-03T07:27:24.68Z</time></trkpt><trkpt lat="39.8615267" lon="8.833195"><ele>229.2</ele><time>2026-05-03T07:27:25.68Z</time></trkpt><trkpt lat="39.8614883" lon="8.8333033"><ele>232.0</ele><time>2026-05-03T07:27:27.679Z</time></trkpt><trkpt lat="39.8616033" lon="8.8333917"><ele>231.99999999999997</ele><time>2026-05-03T07:27:29.68Z</time></trkpt><trkpt lat="39.8616633" lon="8.8334567"><ele>232.0</ele><time>2026-05-03T07:27:30.679Z</time></trkpt><trkpt lat="39.8617283" lon="8.8335417"><ele>232.0</ele><time>2026-05-03T07:27:31.679Z</time></trkpt><trkpt lat="39.8617767" lon="8.8336383"><ele>232.0</ele><time>2026-05-03T07:27:32.679Z</time></trkpt><trkpt lat="39.8617967" lon="8.83373"><ele>231.99999999999997</ele><time>2026-05-03T07:27:33.679Z</time></trkpt><trkpt lat="39.8618017" lon="8.8338133"><ele>232.0</ele><time>2026-05-03T07:27:34.679Z</time></trkpt><trkpt lat="39.86179" lon="8.8339133"><ele>234.2</ele><time>2026-05-03T07:27:35.679Z</time></trkpt><trkpt lat="39.8617783" lon="8.834035"><ele>236.39999999999998</ele><time>2026-05-03T07:27:36.68Z</time></trkpt><trkpt lat="39.861745" lon="8.83417"><ele>238.60000000000002</ele><time>2026-05-03T07:27:37.679Z</time></trkpt><trkpt lat="39.8617167" lon="8.834315"><ele>240.8</ele><time>2026-05-03T07:27:38.679Z</time></trkpt><trkpt lat="39.861695" lon="8.83447"><ele>243.0</ele><time>2026-05-03T07:27:39.679Z</time></trkpt><trkpt lat="39.86168" lon="8.8346233"><ele>242.8</ele><time>2026-05-03T07:27:40.679Z</time></trkpt><trkpt lat="39.8616683" lon="8.8347733"><ele>242.60000000000002</ele><time>2026-05-03T07:27:41.679Z</time></trkpt><trkpt lat="39.8616567" lon="8.8349017"><ele>242.39999999999998</ele><time>2026-05-03T07:27:42.679Z</time></trkpt><trkpt lat="39.86165" lon="8.8350017"><ele>242.2</ele><time>2026-05-03T07:27:43.679Z</time></trkpt><trkpt lat="39.8615983" lon="8.8350983"><ele>242.0</ele><time>2026-05-03T07:27:45.68Z</time></trkpt><trkpt lat="39.8615133" lon="8.8351383"><ele>243.39999999999998</ele><time>2026-05-03T07:27:48.68Z</time></trkpt><trkpt lat="39.8614233" lon="8.83512"><ele>244.79999999999998</ele><time>2026-05-03T07:27:50.679Z</time></trkpt><trkpt lat="39.8613383" lon="8.8351033"><ele>246.2</ele><time>2026-05-03T07:27:52.679Z</time></trkpt><trkpt lat="39.8612267" lon="8.8350617"><ele>247.6</ele><time>2026-05-03T07:27:54.68Z</time></trkpt><trkpt lat="39.861105" lon="8.835015"><ele>249.0</ele><time>2026-05-03T07:27:56.68Z</time></trkpt><trkpt lat="39.8610417" lon="8.83499"><ele>254.39999999999998</ele><time>2026-05-03T07:27:57.68Z</time></trkpt><trkpt lat="39.8609317" lon="8.8349317"><ele>259.79999999999995</ele><time>2026-05-03T07:27:59.679Z</time></trkpt><trkpt lat="39.86083" lon="8.834905"><ele>265.20000000000005</ele><time>2026-05-03T07:28:01.679Z</time></trkpt><trkpt lat="39.86076" lon="8.8348967"><ele>270.6</ele><time>2026-05-03T07:28:02.68Z</time></trkpt><trkpt lat="39.8606767" lon="8.834885"><ele>276.0</ele><time>2026-05-03T07:28:03.679Z</time></trkpt><trkpt lat="39.8605617" lon="8.834865"><ele>276.0</ele><time>2026-05-03T07:28:04.679Z</time></trkpt><trkpt lat="39.8604267" lon="8.83482"><ele>276.0</ele><time>2026-05-03T07:28:05.679Z</time></trkpt><trkpt lat="39.8602883" lon="8.834765"><ele>276.0</ele><time>2026-05-03T07:28:06.68Z</time></trkpt><trkpt lat="39.8601483" lon="8.8347183"><ele>276.0</ele><time>2026-05-03T07:28:07.68Z</time></trkpt><trkpt lat="39.8600233" lon="8.8346633"><ele>278.0</ele><time>2026-05-03T07:28:08.679Z</time></trkpt><trkpt lat="39.859915" lon="8.83462"><ele>280.0</ele><time>2026-05-03T07:28:09.68Z</time></trkpt><trkpt lat="39.85982" lon="8.8345883"><ele>282.0</ele><time>2026-05-03T07:28:10.679Z</time></trkpt><trkpt lat="39.859735" lon="8.834555"><ele>284.0</ele><time>2026-05-03T07:28:11.68Z</time></trkpt><trkpt lat="39.8596317" lon="8.83452"><ele>286.0</ele><time>2026-05-03T07:28:12.679Z</time></trkpt><trkpt lat="39.859515" lon="8.8344683"><ele>286.0</ele><time>2026-05-03T07:28:13.679Z</time></trkpt><trkpt lat="39.859405" lon="8.834425"><ele>286.0</ele><time>2026-05-03T07:28:14.68Z</time></trkpt><trkpt lat="39.8593067" lon="8.834375"><ele>286.0</ele><time>2026-05-03T07:28:15.679Z</time></trkpt><trkpt lat="39.85922" lon="8.834335"><ele>286.0</ele><time>2026-05-03T07:28:16.68Z</time></trkpt><trkpt lat="39.859125" lon="8.8343"><ele>286.0</ele><time>2026-05-03T07:28:17.68Z</time></trkpt><trkpt lat="39.8590167" lon="8.834255"><ele>288.66666666666663</ele><time>2026-05-03T07:28:18.679Z</time></trkpt><trkpt lat="39.8589217" lon="8.834195"><ele>291.3333333333333</ele><time>2026-05-03T07:28:19.68Z</time></trkpt><trkpt lat="39.8588467" lon="8.8341383"><ele>294.0</ele><time>2026-05-03T07:28:20.68Z</time></trkpt><trkpt lat="39.858785" lon="8.834075"><ele>296.6666666666667</ele><time>2026-05-03T07:28:22.68Z</time></trkpt><trkpt lat="39.8587383" lon="8.833995"><ele>299.33333333333337</ele><time>2026-05-03T07:28:26.679Z</time></trkpt><trkpt lat="39.8586883" lon="8.8339233"><ele>302.0</ele><time>2026-05-03T07:28:29.68Z</time></trkpt><trkpt lat="39.858645" lon="8.83384"><ele>302.0</ele><time>2026-05-03T07:28:33.679Z</time></trkpt><trkpt lat="39.8586283" lon="8.8337517"><ele>302.0</ele><time>2026-05-03T07:28:35.679Z</time></trkpt><trkpt lat="39.8586" lon="8.8336017"><ele>302.0</ele><time>2026-05-03T07:28:37.679Z</time></trkpt><trkpt lat="39.8585717" lon="8.833505"><ele>302.0</ele><time>2026-05-03T07:28:38.679Z</time></trkpt><trkpt lat="39.8585483" lon="8.8333983"><ele>302.0</ele><time>2026-05-03T07:28:39.679Z</time></trkpt><trkpt lat="39.8585217" lon="8.8332767"><ele>301.6</ele><time>2026-05-03T07:28:40.68Z</time></trkpt><trkpt lat="39.8584933" lon="8.8331583"><ele>301.2</ele><time>2026-05-03T07:28:41.68Z</time></trkpt><trkpt lat="39.858465" lon="8.8330267"><ele>300.8</ele><time>2026-05-03T07:28:42.679Z</time></trkpt><trkpt lat="39.858435" lon="8.83289"><ele>300.4</ele><time>2026-05-03T07:28:43.68Z</time></trkpt><trkpt lat="39.8584033" lon="8.83275"><ele>300.0</ele><time>2026-05-03T07:28:44.68Z</time></trkpt><trkpt lat="39.8583733" lon="8.8326"><ele>301.25</ele><time>2026-05-03T07:28:45.68Z</time></trkpt><trkpt lat="39.85833" lon="8.8324417"><ele>302.5</ele><time>2026-05-03T07:28:46.68Z</time></trkpt><trkpt lat="39.8582917" lon="8.8322683"><ele>303.75</ele><time>2026-05-03T07:28:47.679Z</time></trkpt><trkpt lat="39.858255" lon="8.8321133"><ele>305.0</ele><time>2026-05-03T07:28:48.679Z</time></trkpt><trkpt lat="39.858225" lon="8.83198"><ele>305.0</ele><time>2026-05-03T07:28:49.679Z</time></trkpt><trkpt lat="39.8582017" lon="8.8318367"><ele>305.0</ele><time>2026-05-03T07:28:50.679Z</time></trkpt><trkpt lat="39.858165" lon="8.8316867"><ele>305.0</ele><time>2026-05-03T07:28:51.68Z</time></trkpt><trkpt lat="39.858135" lon="8.8315367"><ele>305.0</ele><time>2026-05-03T07:28:52.68Z</time></trkpt><trkpt lat="39.8580967" lon="8.8313783"><ele>304.0</ele><time>2026-05-03T07:28:53.679Z</time></trkpt><trkpt lat="39.8580617" lon="8.831205"><ele>303.0</ele><time>2026-05-03T07:28:54.679Z</time></trkpt><trkpt lat="39.858015" lon="8.8310383"><ele>302.0</ele><time>2026-05-03T07:28:55.679Z</time></trkpt><trkpt lat="39.8579783" lon="8.8308917"><ele>301.0</ele><time>2026-05-03T07:28:56.679Z</time></trkpt><trkpt lat="39.8579433" lon="8.8307517"><ele>299.5</ele><time>2026-05-03T07:28:57.68Z</time></trkpt><trkpt lat="39.857915" lon="8.8306033"><ele>298.0</ele><time>2026-05-03T07:28:58.679Z</time></trkpt><trkpt lat="39.8578833" lon="8.8304533"><ele>296.5</ele><time>2026-05-03T07:28:59.679Z</time></trkpt><trkpt lat="39.857845" lon="8.830315"><ele>295.0</ele><time>2026-05-03T07:29:00.679Z</time></trkpt><trkpt lat="39.85781" lon="8.83017"><ele>293.75</ele><time>2026-05-03T07:29:01.679Z</time></trkpt><trkpt lat="39.857775" lon="8.8300317"><ele>292.5</ele><time>2026-05-03T07:29:02.68Z</time></trkpt><trkpt lat="39.8577433" lon="8.8298917"><ele>291.25</ele><time>2026-05-03T07:29:03.679Z</time></trkpt><trkpt lat="39.8577133" lon="8.8297483"><ele>290.0</ele><time>2026-05-03T07:29:04.68Z</time></trkpt><trkpt lat="39.8576733" lon="8.8295983"><ele>290.0</ele><time>2026-05-03T07:29:05.679Z</time></trkpt><trkpt lat="39.8576367" lon="8.829435"><ele>290.0</ele><time>2026-05-03T07:29:06.679Z</time></trkpt><trkpt lat="39.8576067" lon="8.8292617"><ele>290.0</ele><time>2026-05-03T07:29:07.68Z</time></trkpt><trkpt lat="39.8575717" lon="8.82911"><ele>290.0</ele><time>2026-05-03T07:29:08.679Z</time></trkpt><trkpt lat="39.8575417" lon="8.82896"><ele>290.25</ele><time>2026-05-03T07:29:09.679Z</time></trkpt><trkpt lat="39.8575117" lon="8.8288"><ele>290.5</ele><time>2026-05-03T07:29:10.68Z</time></trkpt><trkpt lat="39.8574767" lon="8.8286383"><ele>290.75</ele><time>2026-05-03T07:29:11.679Z</time></trkpt><trkpt lat="39.85744" lon="8.82847"><ele>291.0</ele><time>2026-05-03T07:29:12.679Z</time></trkpt><trkpt lat="39.85739" lon="8.8283033"><ele>291.0</ele><time>2026-05-03T07:29:13.68Z</time></trkpt><trkpt lat="39.857355" lon="8.8281433"><ele>291.0</ele><time>2026-05-03T07:29:14.679Z</time></trkpt><trkpt lat="39.8573217" lon="8.8279933"><ele>291.0</ele><time>2026-05-03T07:29:15.68Z</time></trkpt><trkpt lat="39.857295" lon="8.82784"><ele>291.0</ele><time>2026-05-03T07:29:16.679Z</time></trkpt><trkpt lat="39.8572583" lon="8.8276817"><ele>289.75</ele><time>2026-05-03T07:29:17.679Z</time></trkpt><trkpt lat="39.8572133" lon="8.8275267"><ele>288.5</ele><time>2026-05-03T07:29:18.679Z</time></trkpt><trkpt lat="39.8571767" lon="8.8273767"><ele>287.25</ele><time>2026-05-03T07:29:19.679Z</time></trkpt><trkpt lat="39.8571383" lon="8.827215"><ele>286.0</ele><time>2026-05-03T07:29:20.68Z</time></trkpt><trkpt lat="39.857105" lon="8.827055"><ele>286.0</ele><time>2026-05-03T07:29:21.68Z</time></trkpt><trkpt lat="39.8570683" lon="8.8269017"><ele>286.0</ele><time>2026-05-03T07:29:22.679Z</time></trkpt><trkpt lat="39.8570233" lon="8.826735"><ele>286.0</ele><time>2026-05-03T07:29:23.68Z</time></trkpt><trkpt lat="39.8569867" lon="8.8265633"><ele>286.0</ele><time>2026-05-03T07:29:24.679Z</time></trkpt><trkpt lat="39.8569467" lon="8.8263867"><ele>285.0</ele><time>2026-05-03T07:29:25.679Z</time></trkpt><trkpt lat="39.8569017" lon="8.826215"><ele>284.0</ele><time>2026-05-03T07:29:26.68Z</time></trkpt><trkpt lat="39.8568617" lon="8.8260567"><ele>283.0</ele><time>2026-05-03T07:29:27.679Z</time></trkpt><trkpt lat="39.8568283" lon="8.8259067"><ele>282.0</ele><time>2026-05-03T07:29:28.679Z</time></trkpt><trkpt lat="39.8568033" lon="8.825785"><ele>282.25</ele><time>2026-05-03T07:29:29.679Z</time></trkpt><trkpt lat="39.85677" lon="8.8256517"><ele>282.5</ele><time>2026-05-03T07:29:30.679Z</time></trkpt><trkpt lat="39.8567433" lon="8.8255083"><ele>282.75</ele><time>2026-05-03T07:29:31.679Z</time></trkpt><trkpt lat="39.8566967" lon="8.8253567"><ele>283.0</ele><time>2026-05-03T07:29:32.68Z</time></trkpt><trkpt lat="39.8566583" lon="8.825195"><ele>282.0</ele><time>2026-05-03T07:29:33.68Z</time></trkpt><trkpt lat="39.8566017" lon="8.8250133"><ele>281.0</ele><time>2026-05-03T07:29:34.679Z</time></trkpt><trkpt lat="39.8565567" lon="8.8248417"><ele>280.0</ele><time>2026-05-03T07:29:35.679Z</time></trkpt><trkpt lat="39.85651" lon="8.824675"><ele>279.0</ele><time>2026-05-03T07:29:36.679Z</time></trkpt><trkpt lat="39.8564717" lon="8.824515"><ele>279.0</ele><time>2026-05-03T07:29:37.679Z</time></trkpt><trkpt lat="39.8564383" lon="8.824355"><ele>279.0</ele><time>2026-05-03T07:29:38.679Z</time></trkpt><trkpt lat="39.8564167" lon="8.8242267"><ele>279.0</ele><time>2026-05-03T07:29:39.679Z</time></trkpt><trkpt lat="39.8563917" lon="8.824105"><ele>279.0</ele><time>2026-05-03T07:29:40.679Z</time></trkpt><trkpt lat="39.856365" lon="8.8239833"><ele>279.0</ele><time>2026-05-03T07:29:41.679Z</time></trkpt><trkpt lat="39.8563333" lon="8.82386"><ele>277.59999999999997</ele><time>2026-05-03T07:29:42.679Z</time></trkpt><trkpt lat="39.856305" lon="8.8237267"><ele>276.2</ele><time>2026-05-03T07:29:43.679Z</time></trkpt><trkpt lat="39.856275" lon="8.8235917"><ele>274.79999999999995</ele><time>2026-05-03T07:29:44.68Z</time></trkpt><trkpt lat="39.85624" lon="8.8234483"><ele>273.4</ele><time>2026-05-03T07:29:45.68Z</time></trkpt><trkpt lat="39.85621" lon="8.82331"><ele>272.0</ele><time>2026-05-03T07:29:46.68Z</time></trkpt><trkpt lat="39.8561733" lon="8.82318"><ele>269.0</ele><time>2026-05-03T07:29:47.679Z</time></trkpt><trkpt lat="39.8561317" lon="8.8230333"><ele>266.0</ele><time>2026-05-03T07:29:48.679Z</time></trkpt><trkpt lat="39.8561" lon="8.82288"><ele>263.0</ele><time>2026-05-03T07:29:49.679Z</time></trkpt><trkpt lat="39.8560767" lon="8.8227383"><ele>260.0</ele><time>2026-05-03T07:29:50.679Z</time></trkpt><trkpt lat="39.8560467" lon="8.8226"><ele>258.8</ele><time>2026-05-03T07:29:51.679Z</time></trkpt><trkpt lat="39.8560133" lon="8.82248"><ele>257.6</ele><time>2026-05-03T07:29:52.679Z</time></trkpt><trkpt lat="39.8559817" lon="8.822355"><ele>256.4</ele><time>2026-05-03T07:29:53.68Z</time></trkpt><trkpt lat="39.8559583" lon="8.8222233"><ele>255.2</ele><time>2026-05-03T07:29:54.679Z</time></trkpt><trkpt lat="39.8559367" lon="8.8220883"><ele>254.0</ele><time>2026-05-03T07:29:55.679Z</time></trkpt><trkpt lat="39.855905" lon="8.8219417"><ele>260.75</ele><time>2026-05-03T07:29:56.679Z</time></trkpt><trkpt lat="39.8558667" lon="8.8217817"><ele>267.5</ele><time>2026-05-03T07:29:57.679Z</time></trkpt><trkpt lat="39.8558267" lon="8.8216217"><ele>274.25</ele><time>2026-05-03T07:29:58.68Z</time></trkpt><trkpt lat="39.8557883" lon="8.8214667"><ele>281.0</ele><time>2026-05-03T07:29:59.679Z</time></trkpt><trkpt lat="39.8557467" lon="8.8213233"><ele>281.0</ele><time>2026-05-03T07:30:00.68Z</time></trkpt><trkpt lat="39.8557183" lon="8.8211867"><ele>281.0</ele><time>2026-05-03T07:30:01.679Z</time></trkpt><trkpt lat="39.855685" lon="8.821055"><ele>281.0</ele><time>2026-05-03T07:30:02.68Z</time></trkpt><trkpt lat="39.855655" lon="8.820925"><ele>281.0</ele><time>2026-05-03T07:30:03.679Z</time></trkpt><trkpt lat="39.855625" lon="8.8207867"><ele>281.0</ele><time>2026-05-03T07:30:04.68Z</time></trkpt><trkpt lat="39.8555867" lon="8.8206367"><ele>279.25</ele><time>2026-05-03T07:30:05.679Z</time></trkpt><trkpt lat="39.85555" lon="8.8204883"><ele>277.5</ele><time>2026-05-03T07:30:06.679Z</time></trkpt><trkpt lat="39.8555133" lon="8.8203283"><ele>275.75</ele><time>2026-05-03T07:30:07.679Z</time></trkpt><trkpt lat="39.8554717" lon="8.82018"><ele>274.0</ele><time>2026-05-03T07:30:08.679Z</time></trkpt><trkpt lat="39.85544" lon="8.82003"><ele>270.8</ele><time>2026-05-03T07:30:09.679Z</time></trkpt><trkpt lat="39.8554067" lon="8.81989"><ele>267.59999999999997</ele><time>2026-05-03T07:30:10.679Z</time></trkpt><trkpt lat="39.8553733" lon="8.81976"><ele>264.4</ele><time>2026-05-03T07:30:11.679Z</time></trkpt><trkpt lat="39.8553583" lon="8.8196317"><ele>261.2</ele><time>2026-05-03T07:30:12.68Z</time></trkpt><trkpt lat="39.8553383" lon="8.8195233"><ele>258.0</ele><time>2026-05-03T07:30:13.679Z</time></trkpt><trkpt lat="39.8553183" lon="8.8193967"><ele>256.5</ele><time>2026-05-03T07:30:15.679Z</time></trkpt><trkpt lat="39.8553283" lon="8.8192767"><ele>255.0</ele><time>2026-05-03T07:30:18.679Z</time></trkpt><trkpt lat="39.8553467" lon="8.81916"><ele>253.5</ele><time>2026-05-03T07:30:20.679Z</time></trkpt><trkpt lat="39.8553567" lon="8.81905"><ele>252.0</ele><time>2026-05-03T07:30:22.679Z</time></trkpt><trkpt lat="39.855345" lon="8.818955"><ele>250.5</ele><time>2026-05-03T07:30:25.68Z</time></trkpt><trkpt lat="39.8553017" lon="8.8188867"><ele>249.0</ele><time>2026-05-03T07:30:27.68Z</time></trkpt><trkpt lat="39.8552383" lon="8.8187783"><ele>249.0</ele><time>2026-05-03T07:30:29.679Z</time></trkpt><trkpt lat="39.8551917" lon="8.8187183"><ele>248.99999999999997</ele><time>2026-05-03T07:30:30.679Z</time></trkpt><trkpt lat="39.8551433" lon="8.8186533"><ele>249.0</ele><time>2026-05-03T07:30:31.68Z</time></trkpt><trkpt lat="39.8551033" lon="8.8185833"><ele>249.0</ele><time>2026-05-03T07:30:32.68Z</time></trkpt><trkpt lat="39.8550633" lon="8.8185"><ele>248.99999999999997</ele><time>2026-05-03T07:30:33.679Z</time></trkpt><trkpt lat="39.8550283" lon="8.81841"><ele>249.0</ele><time>2026-05-03T07:30:34.68Z</time></trkpt><trkpt lat="39.8549983" lon="8.818315"><ele>249.0</ele><time>2026-05-03T07:30:35.68Z</time></trkpt><trkpt lat="39.8549667" lon="8.8182133"><ele>246.16666666666666</ele><time>2026-05-03T07:30:36.68Z</time></trkpt><trkpt lat="39.8549333" lon="8.8181083"><ele>243.33333333333331</ele><time>2026-05-03T07:30:37.679Z</time></trkpt><trkpt lat="39.8549083" lon="8.818005"><ele>240.5</ele><time>2026-05-03T07:30:38.679Z</time></trkpt><trkpt lat="39.8548833" lon="8.817915"><ele>237.66666666666666</ele><time>2026-05-03T07:30:39.679Z</time></trkpt><trkpt lat="39.854875" lon="8.8178317"><ele>234.83333333333331</ele><time>2026-05-03T07:30:40.679Z</time></trkpt><trkpt lat="39.85491" lon="8.8176583"><ele>232.0</ele><time>2026-05-03T07:30:42.68Z</time></trkpt><trkpt lat="39.8549467" lon="8.8175783"><ele>229.49999999999997</ele><time>2026-05-03T07:30:43.68Z</time></trkpt><trkpt lat="39.8549933" lon="8.8175167"><ele>227.0</ele><time>2026-05-03T07:30:44.679Z</time></trkpt><trkpt lat="39.8550517" lon="8.8174567"><ele>224.5</ele><time>2026-05-03T07:30:45.679Z</time></trkpt><trkpt lat="39.8551217" lon="8.8174233"><ele>222.0</ele><time>2026-05-03T07:30:46.679Z</time></trkpt><trkpt lat="39.8551983" lon="8.817415"><ele>219.49999999999997</ele><time>2026-05-03T07:30:47.679Z</time></trkpt><trkpt lat="39.855285" lon="8.8174217"><ele>217.0</ele><time>2026-05-03T07:30:48.679Z</time></trkpt><trkpt lat="39.85538" lon="8.8174417"><ele>216.33333333333331</ele><time>2026-05-03T07:30:49.679Z</time></trkpt><trkpt lat="39.8554667" lon="8.8174633"><ele>215.66666666666666</ele><time>2026-05-03T07:30:50.68Z</time></trkpt><trkpt lat="39.8555383" lon="8.8174733"><ele>215.0</ele><time>2026-05-03T07:30:51.679Z</time></trkpt><trkpt lat="39.8556017" lon="8.8174517"><ele>214.33333333333331</ele><time>2026-05-03T07:30:53.679Z</time></trkpt><trkpt lat="39.8555617" lon="8.817375"><ele>213.66666666666666</ele><time>2026-05-03T07:30:56.68Z</time></trkpt><trkpt lat="39.8554467" lon="8.8173417"><ele>213.0</ele><time>2026-05-03T07:30:58.679Z</time></trkpt><trkpt lat="39.8553333" lon="8.817255"><ele>213.0</ele><time>2026-05-03T07:31:00.68Z</time></trkpt><trkpt lat="39.8552733" lon="8.8171933"><ele>213.0</ele><time>2026-05-03T07:31:01.68Z</time></trkpt><trkpt lat="39.8552183" lon="8.8171333"><ele>213.0</ele><time>2026-05-03T07:31:02.679Z</time></trkpt><trkpt lat="39.8551267" lon="8.81704"><ele>213.0</ele><time>2026-05-03T07:31:04.679Z</time></trkpt><trkpt lat="39.85504" lon="8.816955"><ele>213.0</ele><time>2026-05-03T07:31:06.679Z</time></trkpt><trkpt lat="39.855" lon="8.8168583"><ele>213.0</ele><time>2026-05-03T07:31:08.679Z</time></trkpt><trkpt lat="39.8550667" lon="8.8167933"><ele>213.0</ele><time>2026-05-03T07:31:10.68Z</time></trkpt><trkpt lat="39.8551917" lon="8.81681"><ele>213.0</ele><time>2026-05-03T07:31:12.678Z</time></trkpt><trkpt lat="39.8552567" lon="8.81683"><ele>213.0</ele><time>2026-05-03T07:31:13.679Z</time></trkpt><trkpt lat="39.85533" lon="8.8168483"><ele>213.0</ele><time>2026-05-03T07:31:14.679Z</time></trkpt><trkpt lat="39.855405" lon="8.8168783"><ele>213.0</ele><time>2026-05-03T07:31:15.678Z</time></trkpt><trkpt lat="39.85548" lon="8.8169033"><ele>213.0</ele><time>2026-05-03T07:31:16.679Z</time></trkpt><trkpt lat="39.8555733" lon="8.8169433"><ele>213.0</ele><time>2026-05-03T07:31:17.679Z</time></trkpt><trkpt lat="39.855665" lon="8.81699"><ele>213.0</ele><time>2026-05-03T07:31:18.679Z</time></trkpt><trkpt lat="39.8557633" lon="8.8170283"><ele>213.0</ele><time>2026-05-03T07:31:19.678Z</time></trkpt><trkpt lat="39.8558567" lon="8.8170617"><ele>213.0</ele><time>2026-05-03T07:31:20.678Z</time></trkpt><trkpt lat="39.8559433" lon="8.817095"><ele>209.83333333333334</ele><time>2026-05-03T07:31:21.678Z</time></trkpt><trkpt lat="39.8560233" lon="8.8171267"><ele>206.66666666666669</ele><time>2026-05-03T07:31:22.679Z</time></trkpt><trkpt lat="39.8561033" lon="8.8171633"><ele>203.5</ele><time>2026-05-03T07:31:23.678Z</time></trkpt><trkpt lat="39.856175" lon="8.8171967"><ele>200.33333333333334</ele><time>2026-05-03T07:31:24.678Z</time></trkpt><trkpt lat="39.8562467" lon="8.817245"><ele>197.16666666666669</ele><time>2026-05-03T07:31:25.678Z</time></trkpt><trkpt lat="39.85631" lon="8.81731"><ele>194.0</ele><time>2026-05-03T07:31:26.679Z</time></trkpt><trkpt lat="39.85638" lon="8.817385"><ele>194.0</ele><time>2026-05-03T07:31:27.678Z</time></trkpt><trkpt lat="39.8564517" lon="8.817465"><ele>194.0</ele><time>2026-05-03T07:31:28.678Z</time></trkpt><trkpt lat="39.85653" lon="8.8175533"><ele>194.0</ele><time>2026-05-03T07:31:29.678Z</time></trkpt><trkpt lat="39.8566083" lon="8.8176333"><ele>194.0</ele><time>2026-05-03T07:31:30.679Z</time></trkpt><trkpt lat="39.8566883" lon="8.8177033"><ele>194.0</ele><time>2026-05-03T07:31:31.678Z</time></trkpt><trkpt lat="39.856775" lon="8.8177583"><ele>192.6</ele><time>2026-05-03T07:31:32.679Z</time></trkpt><trkpt lat="39.8568583" lon="8.81781"><ele>191.2</ele><time>2026-05-03T07:31:33.678Z</time></trkpt><trkpt lat="39.8569267" lon="8.8178283"><ele>189.79999999999998</ele><time>2026-05-03T07:31:34.678Z</time></trkpt><trkpt lat="39.85703" lon="8.8177883"><ele>188.39999999999998</ele><time>2026-05-03T07:31:36.678Z</time></trkpt><trkpt lat="39.8570833" lon="8.8176867"><ele>187.0</ele><time>2026-05-03T07:31:38.678Z</time></trkpt><trkpt lat="39.8570217" lon="8.8175467"><ele>185.83333333333334</ele><time>2026-05-03T07:31:40.678Z</time></trkpt><trkpt lat="39.8569517" lon="8.81747"><ele>184.66666666666669</ele><time>2026-05-03T07:31:41.678Z</time></trkpt><trkpt lat="39.856875" lon="8.8173783"><ele>183.5</ele><time>2026-05-03T07:31:42.678Z</time></trkpt><trkpt lat="39.8568267" lon="8.8172983"><ele>182.33333333333334</ele><time>2026-05-03T07:31:43.679Z</time></trkpt><trkpt lat="39.85681" lon="8.8172083"><ele>181.16666666666666</ele><time>2026-05-03T07:31:44.679Z</time></trkpt><trkpt lat="39.8568183" lon="8.8171267"><ele>180.0</ele><time>2026-05-03T07:31:45.678Z</time></trkpt><trkpt lat="39.85693" lon="8.8170133"><ele>180.0</ele><time>2026-05-03T07:31:47.679Z</time></trkpt><trkpt lat="39.8569883" lon="8.8169283"><ele>180.0</ele><time>2026-05-03T07:31:48.678Z</time></trkpt><trkpt lat="39.8570333" lon="8.8168317"><ele>180.0</ele><time>2026-05-03T07:31:49.678Z</time></trkpt><trkpt lat="39.8570817" lon="8.8167467"><ele>180.0</ele><time>2026-05-03T07:31:50.679Z</time></trkpt><trkpt lat="39.8571267" lon="8.8166567"><ele>180.0</ele><time>2026-05-03T07:31:51.678Z</time></trkpt><trkpt lat="39.857165" lon="8.816565"><ele>180.0</ele><time>2026-05-03T07:31:52.678Z</time></trkpt><trkpt lat="39.8572183" lon="8.81648"><ele>178.66666666666666</ele><time>2026-05-03T07:31:53.679Z</time></trkpt><trkpt lat="39.8572733" lon="8.8163917"><ele>177.33333333333334</ele><time>2026-05-03T07:31:54.679Z</time></trkpt><trkpt lat="39.857325" lon="8.8163"><ele>176.0</ele><time>2026-05-03T07:31:55.678Z</time></trkpt><trkpt lat="39.8573683" lon="8.8162233"><ele>174.66666666666669</ele><time>2026-05-03T07:31:56.678Z</time></trkpt><trkpt lat="39.8574133" lon="8.8161433"><ele>173.33333333333334</ele><time>2026-05-03T07:31:57.678Z</time></trkpt><trkpt lat="39.8574467" lon="8.816025"><ele>172.0</ele><time>2026-05-03T07:31:59.679Z</time></trkpt><trkpt lat="39.8574083" lon="8.815895"><ele>170.8</ele><time>2026-05-03T07:32:01.679Z</time></trkpt><trkpt lat="39.8573767" lon="8.8157767"><ele>169.6</ele><time>2026-05-03T07:32:03.678Z</time></trkpt><trkpt lat="39.8573583" lon="8.8156933"><ele>168.4</ele><time>2026-05-03T07:32:09.679Z</time></trkpt><trkpt lat="39.8572433" lon="8.8156483"><ele>167.20000000000002</ele><time>2026-05-03T07:32:11.679Z</time></trkpt><trkpt lat="39.8571583" lon="8.8156117"><ele>166.0</ele><time>2026-05-03T07:32:12.679Z</time></trkpt><trkpt lat="39.8570633" lon="8.8155717"><ele>166.0</ele><time>2026-05-03T07:32:13.678Z</time></trkpt><trkpt lat="39.8569733" lon="8.8155233"><ele>166.0</ele><time>2026-05-03T07:32:14.678Z</time></trkpt><trkpt lat="39.85689" lon="8.81548"><ele>166.0</ele><time>2026-05-03T07:32:15.678Z</time></trkpt><trkpt lat="39.8568017" lon="8.8154233"><ele>166.0</ele><time>2026-05-03T07:32:16.679Z</time></trkpt><trkpt lat="39.8567167" lon="8.8153617"><ele>166.0</ele><time>2026-05-03T07:32:17.679Z</time></trkpt><trkpt lat="39.8566317" lon="8.8153033"><ele>165.8</ele><time>2026-05-03T07:32:18.678Z</time></trkpt><trkpt lat="39.8565517" lon="8.8152633"><ele>165.60000000000002</ele><time>2026-05-03T07:32:19.678Z</time></trkpt><trkpt lat="39.8564817" lon="8.815225"><ele>165.4</ele><time>2026-05-03T07:32:20.678Z</time></trkpt><trkpt lat="39.8564117" lon="8.815095"><ele>165.2</ele><time>2026-05-03T07:32:22.678Z</time></trkpt><trkpt lat="39.8563983" lon="8.8149983"><ele>165.0</ele><time>2026-05-03T07:32:23.678Z</time></trkpt><trkpt lat="39.8563767" lon="8.8148833"><ele>163.16666666666666</ele><time>2026-05-03T07:32:24.679Z</time></trkpt><trkpt lat="39.8563517" lon="8.81477"><ele>161.33333333333334</ele><time>2026-05-03T07:32:25.678Z</time></trkpt><trkpt lat="39.8563333" lon="8.8146533"><ele>159.5</ele><time>2026-05-03T07:32:26.679Z</time></trkpt><trkpt lat="39.85633" lon="8.81455"><ele>157.66666666666669</ele><time>2026-05-03T07:32:27.678Z</time></trkpt><trkpt lat="39.856325" lon="8.81445"><ele>155.83333333333334</ele><time>2026-05-03T07:32:28.678Z</time></trkpt><trkpt lat="39.8563317" lon="8.8143667"><ele>154.0</ele><time>2026-05-03T07:32:29.678Z</time></trkpt><trkpt lat="39.85633" lon="8.8142717"><ele>154.0</ele><time>2026-05-03T07:32:31.679Z</time></trkpt><trkpt lat="39.8563167" lon="8.8141833"><ele>154.0</ele><time>2026-05-03T07:33:17.678Z</time></trkpt><trkpt lat="39.8562267" lon="8.81418"><ele>154.0</ele><time>2026-05-03T07:33:19.678Z</time></trkpt><trkpt lat="39.8561283" lon="8.8142933"><ele>154.0</ele><time>2026-05-03T07:33:21.678Z</time></trkpt><trkpt lat="39.8560767" lon="8.814385"><ele>154.0</ele><time>2026-05-03T07:33:22.678Z</time></trkpt><trkpt lat="39.8560133" lon="8.8145033"><ele>152.33333333333334</ele><time>2026-05-03T07:33:23.679Z</time></trkpt><trkpt lat="39.85592" lon="8.814665"><ele>150.66666666666666</ele><time>2026-05-03T07:33:24.678Z</time></trkpt><trkpt lat="39.8557883" lon="8.814835"><ele>149.0</ele><time>2026-05-03T07:33:25.678Z</time></trkpt><trkpt lat="39.8556433" lon="8.81499"><ele>149.0</ele><time>2026-05-03T07:33:26.678Z</time></trkpt><trkpt lat="39.8554767" lon="8.8151017"><ele>149.0</ele><time>2026-05-03T07:33:27.679Z</time></trkpt><trkpt lat="39.8552933" lon="8.815155"><ele>149.0</ele><time>2026-05-03T07:33:28.678Z</time></trkpt><trkpt lat="39.8551017" lon="8.815165"><ele>154.25</ele><time>2026-05-03T07:33:29.679Z</time></trkpt><trkpt lat="39.8549317" lon="8.8151633"><ele>159.5</ele><time>2026-05-03T07:33:30.678Z</time></trkpt><trkpt lat="39.85479" lon="8.8151933"><ele>164.75</ele><time>2026-05-03T07:33:31.678Z</time></trkpt><trkpt lat="39.8546683" lon="8.81526"><ele>170.0</ele><time>2026-05-03T07:33:32.679Z</time></trkpt><trkpt lat="39.8545667" lon="8.81535"><ele>170.0</ele><time>2026-05-03T07:33:33.678Z</time></trkpt><trkpt lat="39.85449" lon="8.81547"><ele>170.0</ele><time>2026-05-03T07:33:34.678Z</time></trkpt><trkpt lat="39.8544133" lon="8.8156083"><ele>170.0</ele><time>2026-05-03T07:33:35.678Z</time></trkpt><trkpt lat="39.8543267" lon="8.8157567"><ele>170.0</ele><time>2026-05-03T07:33:36.678Z</time></trkpt><trkpt lat="39.854235" lon="8.8159133"><ele>170.66666666666666</ele><time>2026-05-03T07:33:37.679Z</time></trkpt><trkpt lat="39.8541333" lon="8.8160717"><ele>171.33333333333334</ele><time>2026-05-03T07:33:38.679Z</time></trkpt><trkpt lat="39.8540317" lon="8.81623"><ele>172.0</ele><time>2026-05-03T07:33:39.678Z</time></trkpt><trkpt lat="39.8539167" lon="8.8163683"><ele>172.0</ele><time>2026-05-03T07:33:40.679Z</time></trkpt><trkpt lat="39.8537967" lon="8.816495"><ele>172.0</ele><time>2026-05-03T07:33:41.678Z</time></trkpt><trkpt lat="39.8536983" lon="8.8166433"><ele>172.0</ele><time>2026-05-03T07:33:42.679Z</time></trkpt><trkpt lat="39.85364" lon="8.8168217"><ele>176.0</ele><time>2026-05-03T07:33:43.678Z</time></trkpt><trkpt lat="39.8536133" lon="8.8170117"><ele>180.0</ele><time>2026-05-03T07:33:44.678Z</time></trkpt><trkpt lat="39.8536033" lon="8.8172033"><ele>184.0</ele><time>2026-05-03T07:33:45.678Z</time></trkpt><trkpt lat="39.8535933" lon="8.817395"><ele>188.0</ele><time>2026-05-03T07:33:46.678Z</time></trkpt><trkpt lat="39.8535733" lon="8.8175783"><ele>190.5</ele><time>2026-05-03T07:33:47.678Z</time></trkpt><trkpt lat="39.8535383" lon="8.8177467"><ele>193.0</ele><time>2026-05-03T07:33:48.678Z</time></trkpt><trkpt lat="39.8534833" lon="8.81791"><ele>195.5</ele><time>2026-05-03T07:33:49.678Z</time></trkpt><trkpt lat="39.8533983" lon="8.8180417"><ele>198.0</ele><time>2026-05-03T07:33:50.678Z</time></trkpt><trkpt lat="39.853295" lon="8.8181533"><ele>196.75</ele><time>2026-05-03T07:33:51.678Z</time></trkpt><trkpt lat="39.85319" lon="8.8182483"><ele>195.5</ele><time>2026-05-03T07:33:52.679Z</time></trkpt><trkpt lat="39.8530883" lon="8.8183583"><ele>194.25</ele><time>2026-05-03T07:33:53.679Z</time></trkpt><trkpt lat="39.8529917" lon="8.8184667"><ele>193.0</ele><time>2026-05-03T07:33:54.679Z</time></trkpt><trkpt lat="39.8529083" lon="8.8185817"><ele>193.0</ele><time>2026-05-03T07:33:55.678Z</time></trkpt><trkpt lat="39.852815" lon="8.8187167"><ele>193.0</ele><time>2026-05-03T07:33:56.679Z</time></trkpt><trkpt lat="39.8527433" lon="8.8188783"><ele>193.0</ele><time>2026-05-03T07:33:57.679Z</time></trkpt><trkpt lat="39.852685" lon="8.8190383"><ele>193.0</ele><time>2026-05-03T07:33:58.679Z</time></trkpt><trkpt lat="39.8526267" lon="8.81919"><ele>189.5</ele><time>2026-05-03T07:33:59.678Z</time></trkpt><trkpt lat="39.8525683" lon="8.81935"><ele>186.0</ele><time>2026-05-03T07:34:00.678Z</time></trkpt><trkpt lat="39.8525017" lon="8.819505"><ele>182.5</ele><time>2026-05-03T07:34:01.678Z</time></trkpt><trkpt lat="39.85243" lon="8.8196667"><ele>179.0</ele><time>2026-05-03T07:34:02.679Z</time></trkpt><trkpt lat="39.85236" lon="8.8198517"><ele>179.0</ele><time>2026-05-03T07:34:03.679Z</time></trkpt><trkpt lat="39.85228" lon="8.8200417"><ele>179.0</ele><time>2026-05-03T07:34:04.678Z</time></trkpt><trkpt lat="39.8522033" lon="8.8202317"><ele>179.0</ele><time>2026-05-03T07:34:05.679Z</time></trkpt><trkpt lat="39.8521283" lon="8.8204167"><ele>183.0</ele><time>2026-05-03T07:34:06.679Z</time></trkpt><trkpt lat="39.8520483" lon="8.8206183"><ele>187.0</ele><time>2026-05-03T07:34:07.678Z</time></trkpt><trkpt lat="39.8519817" lon="8.8208117"><ele>191.0</ele><time>2026-05-03T07:34:08.678Z</time></trkpt><trkpt lat="39.85191" lon="8.821005"><ele>187.66666666666666</ele><time>2026-05-03T07:34:09.678Z</time></trkpt><trkpt lat="39.8518317" lon="8.8211967"><ele>184.33333333333334</ele><time>2026-05-03T07:34:10.678Z</time></trkpt><trkpt lat="39.851735" lon="8.8213717"><ele>181.0</ele><time>2026-05-03T07:34:11.678Z</time></trkpt><trkpt lat="39.8516233" lon="8.8215367"><ele>181.0</ele><time>2026-05-03T07:34:12.678Z</time></trkpt><trkpt lat="39.851515" lon="8.8216783"><ele>181.0</ele><time>2026-05-03T07:34:13.679Z</time></trkpt><trkpt lat="39.85145" lon="8.8218233"><ele>181.0</ele><time>2026-05-03T07:34:14.678Z</time></trkpt><trkpt lat="39.8514117" lon="8.82196"><ele>181.0</ele><time>2026-05-03T07:34:15.678Z</time></trkpt><trkpt lat="39.8513983" lon="8.822105"><ele>182.0</ele><time>2026-05-03T07:34:16.678Z</time></trkpt><trkpt lat="39.8514233" lon="8.8222833"><ele>183.0</ele><time>2026-05-03T07:34:17.679Z</time></trkpt><trkpt lat="39.8514767" lon="8.8224683"><ele>184.0</ele><time>2026-05-03T07:34:18.679Z</time></trkpt><trkpt lat="39.8515317" lon="8.8226433"><ele>185.0</ele><time>2026-05-03T07:34:19.678Z</time></trkpt><trkpt lat="39.8515717" lon="8.8228083"><ele>185.0</ele><time>2026-05-03T07:34:20.678Z</time></trkpt><trkpt lat="39.8516067" lon="8.8229717"><ele>185.0</ele><time>2026-05-03T07:34:21.678Z</time></trkpt><trkpt lat="39.851625" lon="8.8231567"><ele>185.0</ele><time>2026-05-03T07:34:22.678Z</time></trkpt><trkpt lat="39.8516367" lon="8.823335"><ele>185.0</ele><time>2026-05-03T07:34:23.678Z</time></trkpt><trkpt lat="39.8516367" lon="8.823485"><ele>183.25</ele><time>2026-05-03T07:34:24.678Z</time></trkpt><trkpt lat="39.85165" lon="8.8236367"><ele>181.5</ele><time>2026-05-03T07:34:25.678Z</time></trkpt><trkpt lat="39.8516933" lon="8.8237733"><ele>179.75</ele><time>2026-05-03T07:34:26.678Z</time></trkpt><trkpt lat="39.8517783" lon="8.8238917"><ele>178.0</ele><time>2026-05-03T07:34:27.679Z</time></trkpt><trkpt lat="39.8518833" lon="8.8240067"><ele>178.75</ele><time>2026-05-03T07:34:28.678Z</time></trkpt><trkpt lat="39.852005" lon="8.8240967"><ele>179.5</ele><time>2026-05-03T07:34:29.678Z</time></trkpt><trkpt lat="39.8521333" lon="8.8241833"><ele>180.25</ele><time>2026-05-03T07:34:30.679Z</time></trkpt><trkpt lat="39.852275" lon="8.82428"><ele>181.0</ele><time>2026-05-03T07:34:31.678Z</time></trkpt><trkpt lat="39.852415" lon="8.8243917"><ele>181.0</ele><time>2026-05-03T07:34:32.679Z</time></trkpt><trkpt lat="39.8525567" lon="8.8245283"><ele>181.0</ele><time>2026-05-03T07:34:33.678Z</time></trkpt><trkpt lat="39.8526933" lon="8.8246933"><ele>181.0</ele><time>2026-05-03T07:34:34.678Z</time></trkpt><trkpt lat="39.852815" lon="8.82487"><ele>181.66666666666669</ele><time>2026-05-03T07:34:35.679Z</time></trkpt><trkpt lat="39.8529133" lon="8.8250567"><ele>182.33333333333334</ele><time>2026-05-03T07:34:36.678Z</time></trkpt><trkpt lat="39.853025" lon="8.8252267"><ele>183.0</ele><time>2026-05-03T07:34:37.678Z</time></trkpt><trkpt lat="39.8531467" lon="8.8253817"><ele>183.0</ele><time>2026-05-03T07:34:38.678Z</time></trkpt><trkpt lat="39.853275" lon="8.8254933"><ele>183.0</ele><time>2026-05-03T07:34:39.679Z</time></trkpt><trkpt lat="39.8534067" lon="8.8255733"><ele>183.0</ele><time>2026-05-03T07:34:40.678Z</time></trkpt><trkpt lat="39.853545" lon="8.8256133"><ele>183.0</ele><time>2026-05-03T07:34:41.679Z</time></trkpt><trkpt lat="39.8536867" lon="8.82564"><ele>185.60000000000002</ele><time>2026-05-03T07:34:42.679Z</time></trkpt><trkpt lat="39.8538217" lon="8.8256667"><ele>188.20000000000002</ele><time>2026-05-03T07:34:43.678Z</time></trkpt><trkpt lat="39.85394" lon="8.8257017"><ele>190.8</ele><time>2026-05-03T07:34:44.679Z</time></trkpt><trkpt lat="39.8540333" lon="8.8257333"><ele>193.4</ele><time>2026-05-03T07:34:45.679Z</time></trkpt><trkpt lat="39.85412" lon="8.8257717"><ele>196.0</ele><time>2026-05-03T07:34:46.678Z</time></trkpt><trkpt lat="39.854195" lon="8.825835"><ele>195.99999999999997</ele><time>2026-05-03T07:34:47.678Z</time></trkpt><trkpt lat="39.854255" lon="8.825915"><ele>196.0</ele><time>2026-05-03T07:34:48.678Z</time></trkpt><trkpt lat="39.854305" lon="8.826"><ele>196.0</ele><time>2026-05-03T07:34:49.679Z</time></trkpt><trkpt lat="39.8543383" lon="8.8261067"><ele>196.0</ele><time>2026-05-03T07:34:50.678Z</time></trkpt><trkpt lat="39.8543733" lon="8.826215"><ele>195.99999999999997</ele><time>2026-05-03T07:34:51.678Z</time></trkpt><trkpt lat="39.854405" lon="8.826325"><ele>196.0</ele><time>2026-05-03T07:34:52.679Z</time></trkpt><trkpt lat="39.8544417" lon="8.826435"><ele>197.33333333333331</ele><time>2026-05-03T07:34:53.678Z</time></trkpt><trkpt lat="39.8544667" lon="8.8265417"><ele>198.66666666666666</ele><time>2026-05-03T07:34:54.678Z</time></trkpt><trkpt lat="39.85448" lon="8.826655"><ele>200.0</ele><time>2026-05-03T07:34:55.678Z</time></trkpt><trkpt lat="39.85449" lon="8.8267567"><ele>201.33333333333331</ele><time>2026-05-03T07:34:56.679Z</time></trkpt><trkpt lat="39.8544883" lon="8.8268517"><ele>202.66666666666666</ele><time>2026-05-03T07:34:57.679Z</time></trkpt><trkpt lat="39.854465" lon="8.82694"><ele>204.0</ele><time>2026-05-03T07:34:58.678Z</time></trkpt><trkpt lat="39.854425" lon="8.827025"><ele>204.0</ele><time>2026-05-03T07:34:59.678Z</time></trkpt><trkpt lat="39.85437" lon="8.8271"><ele>204.0</ele><time>2026-05-03T07:35:00.679Z</time></trkpt><trkpt lat="39.854305" lon="8.82718"><ele>204.0</ele><time>2026-05-03T07:35:01.679Z</time></trkpt><trkpt lat="39.854235" lon="8.8272633"><ele>204.0</ele><time>2026-05-03T07:35:02.679Z</time></trkpt><trkpt lat="39.8541783" lon="8.8273533"><ele>204.0</ele><time>2026-05-03T07:35:03.678Z</time></trkpt><trkpt lat="39.8541417" lon="8.8274317"><ele>204.0</ele><time>2026-05-03T07:35:04.678Z</time></trkpt><trkpt lat="39.8540567" lon="8.827535"><ele>200.39999999999998</ele><time>2026-05-03T07:35:06.678Z</time></trkpt><trkpt lat="39.8539767" lon="8.827505"><ele>196.8</ele><time>2026-05-03T07:35:08.679Z</time></trkpt><trkpt lat="39.8539217" lon="8.827385"><ele>193.2</ele><time>2026-05-03T07:35:10.678Z</time></trkpt><trkpt lat="39.8539183" lon="8.8272833"><ele>189.60000000000002</ele><time>2026-05-03T07:35:11.679Z</time></trkpt><trkpt lat="39.8539667" lon="8.82715"><ele>186.0</ele><time>2026-05-03T07:35:12.679Z</time></trkpt><trkpt lat="39.85399" lon="8.8270183"><ele>186.0</ele><time>2026-05-03T07:35:13.678Z</time></trkpt><trkpt lat="39.8539967" lon="8.82686"><ele>186.0</ele><time>2026-05-03T07:35:14.678Z</time></trkpt><trkpt lat="39.853975" lon="8.8267033"><ele>186.0</ele><time>2026-05-03T07:35:15.678Z</time></trkpt><trkpt lat="39.8539333" lon="8.8265383"><ele>186.0</ele><time>2026-05-03T07:35:16.678Z</time></trkpt><trkpt lat="39.8538617" lon="8.8263933"><ele>185.5</ele><time>2026-05-03T07:35:17.678Z</time></trkpt><trkpt lat="39.853765" lon="8.8262583"><ele>185.0</ele><time>2026-05-03T07:35:18.678Z</time></trkpt><trkpt lat="39.8536567" lon="8.8261383"><ele>184.5</ele><time>2026-05-03T07:35:19.679Z</time></trkpt><trkpt lat="39.8535317" lon="8.8260383"><ele>184.0</ele><time>2026-05-03T07:35:20.678Z</time></trkpt><trkpt lat="39.8534017" lon="8.8259667"><ele>183.75</ele><time>2026-05-03T07:35:21.679Z</time></trkpt><trkpt lat="39.8532583" lon="8.825905"><ele>183.5</ele><time>2026-05-03T07:35:22.678Z</time></trkpt><trkpt lat="39.853115" lon="8.825875"><ele>183.25</ele><time>2026-05-03T07:35:23.679Z</time></trkpt><trkpt lat="39.85297" lon="8.8258583"><ele>183.0</ele><time>2026-05-03T07:35:24.678Z</time></trkpt><trkpt lat="39.85285" lon="8.8258183"><ele>183.0</ele><time>2026-05-03T07:35:25.678Z</time></trkpt><trkpt lat="39.8527417" lon="8.8257633"><ele>183.0</ele><time>2026-05-03T07:35:26.678Z</time></trkpt><trkpt lat="39.8526467" lon="8.82569"><ele>183.0</ele><time>2026-05-03T07:35:27.678Z</time></trkpt><trkpt lat="39.8525733" lon="8.825575"><ele>183.0</ele><time>2026-05-03T07:35:28.679Z</time></trkpt><trkpt lat="39.8525167" lon="8.8254083"><ele>183.25</ele><time>2026-05-03T07:35:29.678Z</time></trkpt><trkpt lat="39.8524833" lon="8.8252383"><ele>183.5</ele><time>2026-05-03T07:35:30.679Z</time></trkpt><trkpt lat="39.8524633" lon="8.8250867"><ele>183.75</ele><time>2026-05-03T07:35:31.679Z</time></trkpt><trkpt lat="39.8524217" lon="8.824955"><ele>184.0</ele><time>2026-05-03T07:35:32.678Z</time></trkpt><trkpt lat="39.85237" lon="8.8248233"><ele>183.25</ele><time>2026-05-03T07:35:33.679Z</time></trkpt><trkpt lat="39.852295" lon="8.82471"><ele>182.5</ele><time>2026-05-03T07:35:34.678Z</time></trkpt><trkpt lat="39.8521817" lon="8.8246183"><ele>181.75</ele><time>2026-05-03T07:35:35.678Z</time></trkpt><trkpt lat="39.8520483" lon="8.8245533"><ele>181.0</ele><time>2026-05-03T07:35:36.679Z</time></trkpt><trkpt lat="39.8519017" lon="8.8245267"><ele>180.4</ele><time>2026-05-03T07:35:37.679Z</time></trkpt><trkpt lat="39.85177" lon="8.8245117"><ele>179.8</ele><time>2026-05-03T07:35:38.679Z</time></trkpt><trkpt lat="39.85166" lon="8.8244933"><ele>179.20000000000002</ele><time>2026-05-03T07:35:39.678Z</time></trkpt><trkpt lat="39.8515733" lon="8.8244583"><ele>178.60000000000002</ele><time>2026-05-03T07:35:40.679Z</time></trkpt><trkpt lat="39.8514767" lon="8.8243817"><ele>178.0</ele><time>2026-05-03T07:35:41.679Z</time></trkpt><trkpt lat="39.85139" lon="8.8242517"><ele>178.0</ele><time>2026-05-03T07:35:42.678Z</time></trkpt><trkpt lat="39.8513233" lon="8.8240883"><ele>178.0</ele><time>2026-05-03T07:35:43.679Z</time></trkpt><trkpt lat="39.8512517" lon="8.8239217"><ele>178.0</ele><time>2026-05-03T07:35:44.679Z</time></trkpt><trkpt lat="39.8512067" lon="8.8237367"><ele>178.0</ele><time>2026-05-03T07:35:45.678Z</time></trkpt><trkpt lat="39.851185" lon="8.8235583"><ele>179.75</ele><time>2026-05-03T07:35:46.678Z</time></trkpt><trkpt lat="39.8511917" lon="8.8233933"><ele>181.5</ele><time>2026-05-03T07:35:47.678Z</time></trkpt><trkpt lat="39.851205" lon="8.8232117"><ele>183.25</ele><time>2026-05-03T07:35:48.678Z</time></trkpt><trkpt lat="39.851205" lon="8.8230533"><ele>185.0</ele><time>2026-05-03T07:35:49.679Z</time></trkpt><trkpt lat="39.8511933" lon="8.8229117"><ele>185.0</ele><time>2026-05-03T07:35:50.678Z</time></trkpt><trkpt lat="39.8511633" lon="8.8227617"><ele>185.0</ele><time>2026-05-03T07:35:51.678Z</time></trkpt><trkpt lat="39.8511067" lon="8.8226283"><ele>185.0</ele><time>2026-05-03T07:35:52.678Z</time></trkpt><trkpt lat="39.8510383" lon="8.8225067"><ele>185.0</ele><time>2026-05-03T07:35:53.679Z</time></trkpt><trkpt lat="39.850975" lon="8.8223783"><ele>181.6</ele><time>2026-05-03T07:35:54.679Z</time></trkpt><trkpt lat="39.8509267" lon="8.8222417"><ele>178.2</ele><time>2026-05-03T07:35:55.679Z</time></trkpt><trkpt lat="39.85089" lon="8.8220933"><ele>174.8</ele><time>2026-05-03T07:35:56.678Z</time></trkpt><trkpt lat="39.8508767" lon="8.8219633"><ele>171.4</ele><time>2026-05-03T07:35:57.678Z</time></trkpt><trkpt lat="39.8508767" lon="8.8218417"><ele>168.0</ele><time>2026-05-03T07:35:58.678Z</time></trkpt><trkpt lat="39.85087" lon="8.8217133"><ele>167.33333333333334</ele><time>2026-05-03T07:35:59.678Z</time></trkpt><trkpt lat="39.8508583" lon="8.8216067"><ele>166.66666666666666</ele><time>2026-05-03T07:36:00.678Z</time></trkpt><trkpt lat="39.8508267" lon="8.8215217"><ele>166.0</ele><time>2026-05-03T07:36:01.678Z</time></trkpt><trkpt lat="39.8507333" lon="8.8214467"><ele>165.33333333333331</ele><time>2026-05-03T07:36:03.678Z</time></trkpt><trkpt lat="39.8506517" lon="8.821475"><ele>164.66666666666666</ele><time>2026-05-03T07:36:05.679Z</time></trkpt><trkpt lat="39.8506117" lon="8.821555"><ele>164.0</ele><time>2026-05-03T07:36:06.679Z</time></trkpt><trkpt lat="39.8505717" lon="8.82165"><ele>164.0</ele><time>2026-05-03T07:36:07.678Z</time></trkpt><trkpt lat="39.8505467" lon="8.82176"><ele>164.0</ele><time>2026-05-03T07:36:08.678Z</time></trkpt><trkpt lat="39.8505317" lon="8.8218567"><ele>164.0</ele><time>2026-05-03T07:36:09.678Z</time></trkpt><trkpt lat="39.8505183" lon="8.82196"><ele>164.0</ele><time>2026-05-03T07:36:10.679Z</time></trkpt><trkpt lat="39.8504967" lon="8.8220567"><ele>164.0</ele><time>2026-05-03T07:36:11.678Z</time></trkpt><trkpt lat="39.85049" lon="8.8221433"><ele>164.0</ele><time>2026-05-03T07:36:12.678Z</time></trkpt><trkpt lat="39.8504967" lon="8.822305"><ele>164.79999999999998</ele><time>2026-05-03T07:36:14.678Z</time></trkpt><trkpt lat="39.8505083" lon="8.82241"><ele>165.6</ele><time>2026-05-03T07:36:15.678Z</time></trkpt><trkpt lat="39.8505117" lon="8.82253"><ele>166.4</ele><time>2026-05-03T07:36:16.678Z</time></trkpt><trkpt lat="39.8505033" lon="8.822655"><ele>167.2</ele><time>2026-05-03T07:36:17.679Z</time></trkpt><trkpt lat="39.8504783" lon="8.8227683"><ele>168.0</ele><time>2026-05-03T07:36:18.678Z</time></trkpt><trkpt lat="39.85044" lon="8.822875"><ele>169.0</ele><time>2026-05-03T07:36:19.678Z</time></trkpt><trkpt lat="39.8503883" lon="8.8229633"><ele>170.0</ele><time>2026-05-03T07:36:20.678Z</time></trkpt><trkpt lat="39.8503317" lon="8.823045"><ele>171.0</ele><time>2026-05-03T07:36:21.679Z</time></trkpt><trkpt lat="39.8502733" lon="8.8231333"><ele>172.0</ele><time>2026-05-03T07:36:22.679Z</time></trkpt><trkpt lat="39.8502033" lon="8.823235"><ele>173.0</ele><time>2026-05-03T07:36:23.679Z</time></trkpt><trkpt lat="39.8501317" lon="8.82334"><ele>177.25</ele><time>2026-05-03T07:36:24.678Z</time></trkpt><trkpt lat="39.85007" lon="8.82346"><ele>181.5</ele><time>2026-05-03T07:36:25.679Z</time></trkpt><trkpt lat="39.8500033" lon="8.8235933"><ele>185.75</ele><time>2026-05-03T07:36:26.678Z</time></trkpt><trkpt lat="39.8499317" lon="8.8237333"><ele>190.0</ele><time>2026-05-03T07:36:27.678Z</time></trkpt><trkpt lat="39.8498683" lon="8.8238683"><ele>193.0</ele><time>2026-05-03T07:36:28.678Z</time></trkpt><trkpt lat="39.84981" lon="8.8239933"><ele>196.0</ele><time>2026-05-03T07:36:29.678Z</time></trkpt><trkpt lat="39.8497667" lon="8.8241133"><ele>199.0</ele><time>2026-05-03T07:36:30.678Z</time></trkpt><trkpt lat="39.8497367" lon="8.8242267"><ele>202.0</ele><time>2026-05-03T07:36:31.678Z</time></trkpt><trkpt lat="39.84972" lon="8.824335"><ele>205.0</ele><time>2026-05-03T07:36:32.678Z</time></trkpt><trkpt lat="39.8497383" lon="8.82446"><ele>207.5</ele><time>2026-05-03T07:36:33.678Z</time></trkpt><trkpt lat="39.849775" lon="8.8245767"><ele>210.0</ele><time>2026-05-03T07:36:34.678Z</time></trkpt><trkpt lat="39.8498117" lon="8.8247133"><ele>212.5</ele><time>2026-05-03T07:36:35.678Z</time></trkpt><trkpt lat="39.8498433" lon="8.8248783"><ele>215.0</ele><time>2026-05-03T07:36:36.679Z</time></trkpt><trkpt lat="39.849865" lon="8.825055"><ele>219.66666666666669</ele><time>2026-05-03T07:36:37.678Z</time></trkpt><trkpt lat="39.84989" lon="8.8252617"><ele>224.33333333333331</ele><time>2026-05-03T07:36:38.678Z</time></trkpt><trkpt lat="39.8499167" lon="8.8254583"><ele>229.0</ele><time>2026-05-03T07:36:39.678Z</time></trkpt><trkpt lat="39.8499517" lon="8.8256517"><ele>229.0</ele><time>2026-05-03T07:36:40.679Z</time></trkpt><trkpt lat="39.849995" lon="8.8258283"><ele>229.0</ele><time>2026-05-03T07:36:41.678Z</time></trkpt><trkpt lat="39.85004" lon="8.826"><ele>229.0</ele><time>2026-05-03T07:36:42.678Z</time></trkpt><trkpt lat="39.8500867" lon="8.82616"><ele>229.0</ele><time>2026-05-03T07:36:43.678Z</time></trkpt><trkpt lat="39.8501417" lon="8.8262933"><ele>233.2</ele><time>2026-05-03T07:36:44.678Z</time></trkpt><trkpt lat="39.8502" lon="8.826415"><ele>237.39999999999998</ele><time>2026-05-03T07:36:45.679Z</time></trkpt><trkpt lat="39.8502683" lon="8.82653"><ele>241.6</ele><time>2026-05-03T07:36:46.678Z</time></trkpt><trkpt lat="39.8503283" lon="8.8266333"><ele>245.8</ele><time>2026-05-03T07:36:47.679Z</time></trkpt><trkpt lat="39.8503867" lon="8.8267217"><ele>250.0</ele><time>2026-05-03T07:36:48.679Z</time></trkpt><trkpt lat="39.850435" lon="8.82678"><ele>253.49999999999997</ele><time>2026-05-03T07:36:49.679Z</time></trkpt><trkpt lat="39.850485" lon="8.8268433"><ele>257.0</ele><time>2026-05-03T07:36:50.678Z</time></trkpt><trkpt lat="39.8505383" lon="8.8268983"><ele>260.5</ele><time>2026-05-03T07:36:51.678Z</time></trkpt><trkpt lat="39.8506" lon="8.8269683"><ele>264.0</ele><time>2026-05-03T07:36:52.678Z</time></trkpt><trkpt lat="39.850665" lon="8.8270417"><ele>267.5</ele><time>2026-05-03T07:36:53.679Z</time></trkpt><trkpt lat="39.8507267" lon="8.8271183"><ele>271.0</ele><time>2026-05-03T07:36:54.678Z</time></trkpt><trkpt lat="39.8507717" lon="8.82719"><ele>271.0</ele><time>2026-05-03T07:36:55.678Z</time></trkpt><trkpt lat="39.850815" lon="8.8272883"><ele>271.0</ele><time>2026-05-03T07:36:56.678Z</time></trkpt><trkpt lat="39.8508667" lon="8.8274133"><ele>271.0</ele><time>2026-05-03T07:36:57.678Z</time></trkpt><trkpt lat="39.850935" lon="8.82754"><ele>271.0</ele><time>2026-05-03T07:36:58.679Z</time></trkpt><trkpt lat="39.8510033" lon="8.827675"><ele>271.0</ele><time>2026-05-03T07:36:59.678Z</time></trkpt><trkpt lat="39.8510683" lon="8.827795"><ele>272.2</ele><time>2026-05-03T07:37:00.678Z</time></trkpt><trkpt lat="39.8511233" lon="8.8278967"><ele>273.40000000000003</ele><time>2026-05-03T07:37:01.678Z</time></trkpt><trkpt lat="39.8511717" lon="8.8279867"><ele>274.6</ele><time>2026-05-03T07:37:02.678Z</time></trkpt><trkpt lat="39.8512183" lon="8.8280833"><ele>275.8</ele><time>2026-05-03T07:37:03.679Z</time></trkpt><trkpt lat="39.851275" lon="8.82818"><ele>277.0</ele><time>2026-05-03T07:37:04.678Z</time></trkpt><trkpt lat="39.85133" lon="8.8282833"><ele>277.0</ele><time>2026-05-03T07:37:05.678Z</time></trkpt><trkpt lat="39.8513817" lon="8.82838"><ele>277.0</ele><time>2026-05-03T07:37:06.678Z</time></trkpt><trkpt lat="39.8514067" lon="8.8284733"><ele>277.0</ele><time>2026-05-03T07:37:07.678Z</time></trkpt><trkpt lat="39.85141" lon="8.8285667"><ele>277.0</ele><time>2026-05-03T07:37:08.678Z</time></trkpt><trkpt lat="39.851395" lon="8.8286667"><ele>277.0</ele><time>2026-05-03T07:37:09.678Z</time></trkpt><trkpt lat="39.8513583" lon="8.82879"><ele>277.0</ele><time>2026-05-03T07:37:10.679Z</time></trkpt><trkpt lat="39.8513083" lon="8.8289483"><ele>277.0</ele><time>2026-05-03T07:37:11.678Z</time></trkpt><trkpt lat="39.851255" lon="8.8291167"><ele>277.0</ele><time>2026-05-03T07:37:12.679Z</time></trkpt><trkpt lat="39.851215" lon="8.8292933"><ele>277.0</ele><time>2026-05-03T07:37:13.678Z</time></trkpt><trkpt lat="39.8511883" lon="8.8294717"><ele>277.0</ele><time>2026-05-03T07:37:14.678Z</time></trkpt><trkpt lat="39.8511867" lon="8.8296617"><ele>278.3333333333333</ele><time>2026-05-03T07:37:15.679Z</time></trkpt><trkpt lat="39.85121" lon="8.8298433"><ele>279.6666666666667</ele><time>2026-05-03T07:37:16.679Z</time></trkpt><trkpt lat="39.8512517" lon="8.83005"><ele>281.0</ele><time>2026-05-03T07:37:17.678Z</time></trkpt><trkpt lat="39.8512867" lon="8.830255"><ele>286.33333333333337</ele><time>2026-05-03T07:37:18.679Z</time></trkpt><trkpt lat="39.8513283" lon="8.8304633"><ele>291.6666666666667</ele><time>2026-05-03T07:37:19.678Z</time></trkpt><trkpt lat="39.8513733" lon="8.8306467"><ele>297.0</ele><time>2026-05-03T07:37:20.679Z</time></trkpt><trkpt lat="39.851425" lon="8.8308317"><ele>298.0</ele><time>2026-05-03T07:37:21.678Z</time></trkpt><trkpt lat="39.85147" lon="8.8309917"><ele>299.0</ele><time>2026-05-03T07:37:22.678Z</time></trkpt><trkpt lat="39.8515183" lon="8.8311283"><ele>300.0</ele><time>2026-05-03T07:37:23.679Z</time></trkpt><trkpt lat="39.851555" lon="8.8312517"><ele>301.0</ele><time>2026-05-03T07:37:24.679Z</time></trkpt><trkpt lat="39.8516" lon="8.8313583"><ele>302.0</ele><time>2026-05-03T07:37:25.678Z</time></trkpt><trkpt lat="39.85165" lon="8.8314467"><ele>302.0</ele><time>2026-05-03T07:37:26.679Z</time></trkpt><trkpt lat="39.8516983" lon="8.831535"><ele>302.0</ele><time>2026-05-03T07:37:27.679Z</time></trkpt><trkpt lat="39.8517367" lon="8.8316033"><ele>302.0</ele><time>2026-05-03T07:37:28.678Z</time></trkpt><trkpt lat="39.851795" lon="8.831715"><ele>302.0</ele><time>2026-05-03T07:37:30.678Z</time></trkpt><trkpt lat="39.8517933" lon="8.8318"><ele>302.0</ele><time>2026-05-03T07:37:32.678Z</time></trkpt><trkpt lat="39.851765" lon="8.83188"><ele>302.0</ele><time>2026-05-03T07:37:34.678Z</time></trkpt><trkpt lat="39.8517" lon="8.8319033"><ele>302.0</ele><time>2026-05-03T07:37:36.679Z</time></trkpt><trkpt lat="39.8516383" lon="8.831875"><ele>302.0</ele><time>2026-05-03T07:37:37.679Z</time></trkpt><trkpt lat="39.8515533" lon="8.8318133"><ele>302.0</ele><time>2026-05-03T07:37:38.678Z</time></trkpt><trkpt lat="39.8514483" lon="8.83175"><ele>302.0</ele><time>2026-05-03T07:37:39.679Z</time></trkpt><trkpt lat="39.85135" lon="8.8316883"><ele>302.0</ele><time>2026-05-03T07:37:40.678Z</time></trkpt><trkpt lat="39.8512517" lon="8.8316333"><ele>302.0</ele><time>2026-05-03T07:37:41.679Z</time></trkpt><trkpt lat="39.8511583" lon="8.831585"><ele>302.0</ele><time>2026-05-03T07:37:42.678Z</time></trkpt><trkpt lat="39.8510583" lon="8.831545"><ele>302.0</ele><time>2026-05-03T07:37:43.678Z</time></trkpt><trkpt lat="39.8509417" lon="8.83149"><ele>302.0</ele><time>2026-05-03T07:37:44.679Z</time></trkpt><trkpt lat="39.8508167" lon="8.8314333"><ele>300.75</ele><time>2026-05-03T07:37:45.678Z</time></trkpt><trkpt lat="39.8506983" lon="8.8313867"><ele>299.5</ele><time>2026-05-03T07:37:46.678Z</time></trkpt><trkpt lat="39.8505833" lon="8.83135"><ele>298.25</ele><time>2026-05-03T07:37:47.678Z</time></trkpt><trkpt lat="39.850465" lon="8.831315"><ele>297.0</ele><time>2026-05-03T07:37:48.678Z</time></trkpt><trkpt lat="39.850355" lon="8.8312783"><ele>297.0</ele><time>2026-05-03T07:37:49.678Z</time></trkpt><trkpt lat="39.850245" lon="8.8312217"><ele>297.0</ele><time>2026-05-03T07:37:50.678Z</time></trkpt><trkpt lat="39.85014" lon="8.8311817"><ele>297.0</ele><time>2026-05-03T07:37:51.678Z</time></trkpt><trkpt lat="39.8500433" lon="8.8311233"><ele>297.0</ele><time>2026-05-03T07:37:52.678Z</time></trkpt><trkpt lat="39.8499517" lon="8.8310633"><ele>297.0</ele><time>2026-05-03T07:37:53.679Z</time></trkpt><trkpt lat="39.8498567" lon="8.83099"><ele>296.8</ele><time>2026-05-03T07:37:54.679Z</time></trkpt><trkpt lat="39.84977" lon="8.8309217"><ele>296.6</ele><time>2026-05-03T07:37:55.678Z</time></trkpt><trkpt lat="39.849705" lon="8.8308483"><ele>296.40000000000003</ele><time>2026-05-03T07:37:56.678Z</time></trkpt><trkpt lat="39.8496467" lon="8.8307467"><ele>296.2</ele><time>2026-05-03T07:37:57.679Z</time></trkpt><trkpt lat="39.849595" lon="8.8306383"><ele>296.0</ele><time>2026-05-03T07:37:58.679Z</time></trkpt><trkpt lat="39.8495483" lon="8.8305217"><ele>296.0</ele><time>2026-05-03T07:37:59.678Z</time></trkpt><trkpt lat="39.8495" lon="8.8304067"><ele>296.0</ele><time>2026-05-03T07:38:00.678Z</time></trkpt><trkpt lat="39.8494367" lon="8.8303033"><ele>296.0</ele><time>2026-05-03T07:38:01.679Z</time></trkpt><trkpt lat="39.8493717" lon="8.830245"><ele>296.0</ele><time>2026-05-03T07:38:02.678Z</time></trkpt><trkpt lat="39.849245" lon="8.8302317"><ele>296.0</ele><time>2026-05-03T07:38:04.679Z</time></trkpt><trkpt lat="39.849185" lon="8.830275"><ele>294.2</ele><time>2026-05-03T07:38:05.679Z</time></trkpt><trkpt lat="39.8491167" lon="8.8303417"><ele>292.40000000000003</ele><time>2026-05-03T07:38:06.678Z</time></trkpt><trkpt lat="39.8490567" lon="8.830425"><ele>290.6</ele><time>2026-05-03T07:38:07.678Z</time></trkpt><trkpt lat="39.8490133" lon="8.8305317"><ele>288.8</ele><time>2026-05-03T07:38:08.678Z</time></trkpt><trkpt lat="39.84897" lon="8.830645"><ele>287.0</ele><time>2026-05-03T07:38:09.678Z</time></trkpt><trkpt lat="39.8489167" lon="8.8307767"><ele>287.0</ele><time>2026-05-03T07:38:10.678Z</time></trkpt><trkpt lat="39.8488617" lon="8.8309333"><ele>287.0</ele><time>2026-05-03T07:38:11.679Z</time></trkpt><trkpt lat="39.8488083" lon="8.8310967"><ele>287.0</ele><time>2026-05-03T07:38:12.678Z</time></trkpt><trkpt lat="39.84876" lon="8.8312667"><ele>287.0</ele><time>2026-05-03T07:38:13.678Z</time></trkpt><trkpt lat="39.8487083" lon="8.8314233"><ele>285.5</ele><time>2026-05-03T07:38:14.678Z</time></trkpt><trkpt lat="39.8486467" lon="8.8315733"><ele>284.0</ele><time>2026-05-03T07:38:15.678Z</time></trkpt><trkpt lat="39.8485817" lon="8.8317133"><ele>282.5</ele><time>2026-05-03T07:38:16.678Z</time></trkpt><trkpt lat="39.8485183" lon="8.83183"><ele>281.0</ele><time>2026-05-03T07:38:17.678Z</time></trkpt><trkpt lat="39.84845" lon="8.8319267"><ele>276.75</ele><time>2026-05-03T07:38:18.679Z</time></trkpt><trkpt lat="39.848365" lon="8.8320267"><ele>272.5</ele><time>2026-05-03T07:38:19.679Z</time></trkpt><trkpt lat="39.848265" lon="8.8321117"><ele>268.25</ele><time>2026-05-03T07:38:20.678Z</time></trkpt><trkpt lat="39.848155" lon="8.8321783"><ele>264.0</ele><time>2026-05-03T07:38:21.678Z</time></trkpt><trkpt lat="39.8480233" lon="8.8322067"><ele>264.0</ele><time>2026-05-03T07:38:22.678Z</time></trkpt><trkpt lat="39.84789" lon="8.8322233"><ele>264.0</ele><time>2026-05-03T07:38:23.679Z</time></trkpt><trkpt lat="39.8477533" lon="8.8322667"><ele>264.0</ele><time>2026-05-03T07:38:24.678Z</time></trkpt><trkpt lat="39.8476117" lon="8.8323183"><ele>264.0</ele><time>2026-05-03T07:38:25.678Z</time></trkpt><trkpt lat="39.8474783" lon="8.8323867"><ele>263.25</ele><time>2026-05-03T07:38:26.678Z</time></trkpt><trkpt lat="39.8473467" lon="8.8324583"><ele>262.5</ele><time>2026-05-03T07:38:27.678Z</time></trkpt><trkpt lat="39.8472417" lon="8.83253"><ele>261.75</ele><time>2026-05-03T07:38:28.678Z</time></trkpt><trkpt lat="39.8471533" lon="8.8325917"><ele>261.0</ele><time>2026-05-03T07:38:29.678Z</time></trkpt><trkpt lat="39.8470683" lon="8.8326917"><ele>261.0</ele><time>2026-05-03T07:38:30.678Z</time></trkpt><trkpt lat="39.847" lon="8.83282"><ele>261.0</ele><time>2026-05-03T07:38:31.679Z</time></trkpt><trkpt lat="39.84694" lon="8.832975"><ele>261.0</ele><time>2026-05-03T07:38:32.679Z</time></trkpt><trkpt lat="39.8468683" lon="8.833105"><ele>261.0</ele><time>2026-05-03T07:38:33.678Z</time></trkpt><trkpt lat="39.8467967" lon="8.8332167"><ele>262.0</ele><time>2026-05-03T07:38:34.678Z</time></trkpt><trkpt lat="39.8467017" lon="8.8333033"><ele>263.0</ele><time>2026-05-03T07:38:35.679Z</time></trkpt><trkpt lat="39.846605" lon="8.8333767"><ele>264.0</ele><time>2026-05-03T07:38:36.678Z</time></trkpt><trkpt lat="39.8464983" lon="8.8334383"><ele>265.0</ele><time>2026-05-03T07:38:37.678Z</time></trkpt><trkpt lat="39.84639" lon="8.83345"><ele>265.0</ele><time>2026-05-03T07:38:38.678Z</time></trkpt><trkpt lat="39.846265" lon="8.833435"><ele>265.0</ele><time>2026-05-03T07:38:39.678Z</time></trkpt><trkpt lat="39.8461233" lon="8.8333933"><ele>265.0</ele><time>2026-05-03T07:38:40.679Z</time></trkpt><trkpt lat="39.8459817" lon="8.8333417"><ele>265.0</ele><time>2026-05-03T07:38:41.679Z</time></trkpt><trkpt lat="39.8458317" lon="8.8332917"><ele>265.0</ele><time>2026-05-03T07:38:42.678Z</time></trkpt><trkpt lat="39.8456867" lon="8.8332233"><ele>265.0</ele><time>2026-05-03T07:38:43.678Z</time></trkpt><trkpt lat="39.8455517" lon="8.83313"><ele>265.0</ele><time>2026-05-03T07:38:44.679Z</time></trkpt><trkpt lat="39.84543" lon="8.8330283"><ele>265.0</ele><time>2026-05-03T07:38:45.679Z</time></trkpt><trkpt lat="39.8453117" lon="8.8329317"><ele>265.0</ele><time>2026-05-03T07:38:46.679Z</time></trkpt><trkpt lat="39.84519" lon="8.83287"><ele>265.0</ele><time>2026-05-03T07:38:47.678Z</time></trkpt><trkpt lat="39.8450567" lon="8.83284"><ele>265.0</ele><time>2026-05-03T07:38:48.678Z</time></trkpt><trkpt lat="39.8449233" lon="8.8328233"><ele>264.8333333333333</ele><time>2026-05-03T07:38:49.679Z</time></trkpt><trkpt lat="39.8448233" lon="8.8328017"><ele>264.66666666666663</ele><time>2026-05-03T07:38:50.678Z</time></trkpt><trkpt lat="39.8447633" lon="8.832765"><ele>264.5</ele><time>2026-05-03T07:38:51.679Z</time></trkpt><trkpt lat="39.8447433" lon="8.8326617"><ele>264.3333333333333</ele><time>2026-05-03T07:38:53.679Z</time></trkpt><trkpt lat="39.8447917" lon="8.8325833"><ele>264.1666666666667</ele><time>2026-05-03T07:38:54.678Z</time></trkpt><trkpt lat="39.844855" lon="8.8325117"><ele>264.0</ele><time>2026-05-03T07:38:55.678Z</time></trkpt><trkpt lat="39.844945" lon="8.8324483"><ele>264.0</ele><time>2026-05-03T07:38:56.678Z</time></trkpt><trkpt lat="39.8450467" lon="8.8323817"><ele>264.0</ele><time>2026-05-03T07:38:57.679Z</time></trkpt><trkpt lat="39.845115" lon="8.8322783"><ele>264.0</ele><time>2026-05-03T07:38:58.678Z</time></trkpt><trkpt lat="39.8451533" lon="8.8321467"><ele>264.0</ele><time>2026-05-03T07:38:59.678Z</time></trkpt><trkpt lat="39.845175" lon="8.831995"><ele>264.0</ele><time>2026-05-03T07:39:00.678Z</time></trkpt><trkpt lat="39.8451917" lon="8.831815"><ele>259.0</ele><time>2026-05-03T07:39:01.679Z</time></trkpt><trkpt lat="39.84521" lon="8.831605"><ele>254.0</ele><time>2026-05-03T07:39:02.678Z</time></trkpt><trkpt lat="39.84522" lon="8.83139"><ele>249.0</ele><time>2026-05-03T07:39:03.678Z</time></trkpt><trkpt lat="39.8452167" lon="8.8311933"><ele>249.0</ele><time>2026-05-03T07:39:04.678Z</time></trkpt><trkpt lat="39.8451983" lon="8.831025"><ele>249.0</ele><time>2026-05-03T07:39:05.678Z</time></trkpt><trkpt lat="39.8451667" lon="8.83086"><ele>249.0</ele><time>2026-05-03T07:39:06.678Z</time></trkpt><trkpt lat="39.845105" lon="8.8306983"><ele>249.0</ele><time>2026-05-03T07:39:07.678Z</time></trkpt><trkpt lat="39.845035" lon="8.830545"><ele>250.2</ele><time>2026-05-03T07:39:08.679Z</time></trkpt><trkpt lat="39.84497" lon="8.8303917"><ele>251.39999999999998</ele><time>2026-05-03T07:39:09.678Z</time></trkpt><trkpt lat="39.8449083" lon="8.8302717"><ele>252.6</ele><time>2026-05-03T07:39:10.678Z</time></trkpt><trkpt lat="39.8448467" lon="8.8302017"><ele>253.8</ele><time>2026-05-03T07:39:11.679Z</time></trkpt><trkpt lat="39.844775" lon="8.83016"><ele>255.0</ele><time>2026-05-03T07:39:12.678Z</time></trkpt><trkpt lat="39.8446883" lon="8.8301317"><ele>255.0</ele><time>2026-05-03T07:39:13.679Z</time></trkpt><trkpt lat="39.8445983" lon="8.8301067"><ele>255.0</ele><time>2026-05-03T07:39:14.678Z</time></trkpt><trkpt lat="39.844515" lon="8.8300533"><ele>255.0</ele><time>2026-05-03T07:39:15.679Z</time></trkpt><trkpt lat="39.844455" lon="8.8299717"><ele>255.0</ele><time>2026-05-03T07:39:16.678Z</time></trkpt><trkpt lat="39.8443833" lon="8.8298783"><ele>255.0</ele><time>2026-05-03T07:39:17.679Z</time></trkpt><trkpt lat="39.8442817" lon="8.829795"><ele>257.25</ele><time>2026-05-03T07:39:18.679Z</time></trkpt><trkpt lat="39.8441633" lon="8.82971"><ele>259.5</ele><time>2026-05-03T07:39:19.678Z</time></trkpt><trkpt lat="39.84404" lon="8.8296383"><ele>261.75</ele><time>2026-05-03T07:39:20.678Z</time></trkpt><trkpt lat="39.84394" lon="8.8295983"><ele>264.0</ele><time>2026-05-03T07:39:21.678Z</time></trkpt><trkpt lat="39.8438383" lon="8.8295667"><ele>264.0</ele><time>2026-05-03T07:39:22.679Z</time></trkpt><trkpt lat="39.8437333" lon="8.8295483"><ele>264.0</ele><time>2026-05-03T07:39:23.678Z</time></trkpt><trkpt lat="39.84362" lon="8.82954"><ele>264.0</ele><time>2026-05-03T07:39:24.678Z</time></trkpt><trkpt lat="39.84352" lon="8.8295283"><ele>264.0</ele><time>2026-05-03T07:39:25.679Z</time></trkpt><trkpt lat="39.8434267" lon="8.829495"><ele>264.0</ele><time>2026-05-03T07:39:26.679Z</time></trkpt><trkpt lat="39.84334" lon="8.829435"><ele>263.1666666666667</ele><time>2026-05-03T07:39:27.678Z</time></trkpt><trkpt lat="39.843275" lon="8.8293717"><ele>262.3333333333333</ele><time>2026-05-03T07:39:28.678Z</time></trkpt><trkpt lat="39.843225" lon="8.829295"><ele>261.5</ele><time>2026-05-03T07:39:29.679Z</time></trkpt><trkpt lat="39.8431983" lon="8.8291967"><ele>260.66666666666663</ele><time>2026-05-03T07:39:30.679Z</time></trkpt><trkpt lat="39.843205" lon="8.8290917"><ele>259.8333333333333</ele><time>2026-05-03T07:39:31.679Z</time></trkpt><trkpt lat="39.8432483" lon="8.8289833"><ele>259.0</ele><time>2026-05-03T07:39:32.679Z</time></trkpt><trkpt lat="39.8432717" lon="8.82888"><ele>259.0</ele><time>2026-05-03T07:39:33.678Z</time></trkpt><trkpt lat="39.8432683" lon="8.8287917"><ele>259.0</ele><time>2026-05-03T07:39:34.679Z</time></trkpt><trkpt lat="39.8432283" lon="8.8287183"><ele>259.0</ele><time>2026-05-03T07:39:35.678Z</time></trkpt><trkpt lat="39.8431717" lon="8.8286467"><ele>259.0</ele><time>2026-05-03T07:39:36.678Z</time></trkpt><trkpt lat="39.843095" lon="8.8285883"><ele>259.0</ele><time>2026-05-03T07:39:37.678Z</time></trkpt><trkpt lat="39.8430033" lon="8.828535"><ele>259.0</ele><time>2026-05-03T07:39:38.678Z</time></trkpt><trkpt lat="39.84292" lon="8.8284683"><ele>257.4</ele><time>2026-05-03T07:39:39.678Z</time></trkpt><trkpt lat="39.84285" lon="8.828385"><ele>255.79999999999998</ele><time>2026-05-03T07:39:40.679Z</time></trkpt><trkpt lat="39.8428067" lon="8.8283017"><ele>254.20000000000002</ele><time>2026-05-03T07:39:41.678Z</time></trkpt><trkpt lat="39.8427967" lon="8.828195"><ele>252.60000000000002</ele><time>2026-05-03T07:39:42.679Z</time></trkpt><trkpt lat="39.8428433" lon="8.8280533"><ele>251.0</ele><time>2026-05-03T07:39:43.678Z</time></trkpt><trkpt lat="39.842905" lon="8.827925"><ele>251.0</ele><time>2026-05-03T07:39:44.678Z</time></trkpt><trkpt lat="39.84301" lon="8.8278217"><ele>251.0</ele><time>2026-05-03T07:39:45.678Z</time></trkpt><trkpt lat="39.8431283" lon="8.82776"><ele>251.0</ele><time>2026-05-03T07:39:46.678Z</time></trkpt><trkpt lat="39.84324" lon="8.8277417"><ele>251.0</ele><time>2026-05-03T07:39:47.679Z</time></trkpt><trkpt lat="39.8433567" lon="8.8277567"><ele>249.20000000000002</ele><time>2026-05-03T07:39:48.678Z</time></trkpt><trkpt lat="39.8434667" lon="8.8278017"><ele>247.40000000000003</ele><time>2026-05-03T07:39:49.678Z</time></trkpt><trkpt lat="39.8435567" lon="8.8278467"><ele>245.6</ele><time>2026-05-03T07:39:50.678Z</time></trkpt><trkpt lat="39.843645" lon="8.8278467"><ele>243.8</ele><time>2026-05-03T07:39:51.679Z</time></trkpt><trkpt lat="39.8437283" lon="8.8277983"><ele>242.0</ele><time>2026-05-03T07:39:52.679Z</time></trkpt><trkpt lat="39.8438067" lon="8.8277183"><ele>242.0</ele><time>2026-05-03T07:39:53.678Z</time></trkpt><trkpt lat="39.8438917" lon="8.8276383"><ele>242.0</ele><time>2026-05-03T07:39:54.678Z</time></trkpt><trkpt lat="39.8439833" lon="8.82759"><ele>242.0</ele><time>2026-05-03T07:39:55.678Z</time></trkpt><trkpt lat="39.8440783" lon="8.827595"><ele>242.0</ele><time>2026-05-03T07:39:56.678Z</time></trkpt><trkpt lat="39.8441817" lon="8.8276333"><ele>242.0</ele><time>2026-05-03T07:39:57.679Z</time></trkpt><trkpt lat="39.8442917" lon="8.8276583"><ele>240.75</ele><time>2026-05-03T07:39:58.679Z</time></trkpt><trkpt lat="39.8444283" lon="8.8276483"><ele>239.5</ele><time>2026-05-03T07:39:59.678Z</time></trkpt><trkpt lat="39.8445767" lon="8.827615"><ele>238.25</ele><time>2026-05-03T07:40:00.678Z</time></trkpt><trkpt lat="39.8447167" lon="8.8275517"><ele>237.0</ele><time>2026-05-03T07:40:01.678Z</time></trkpt><trkpt lat="39.8448417" lon="8.8275083"><ele>241.0</ele><time>2026-05-03T07:40:02.678Z</time></trkpt><trkpt lat="39.844955" lon="8.8274917"><ele>245.0</ele><time>2026-05-03T07:40:03.679Z</time></trkpt><trkpt lat="39.8450783" lon="8.827505"><ele>249.0</ele><time>2026-05-03T07:40:04.679Z</time></trkpt><trkpt lat="39.8452167" lon="8.82756"><ele>253.0</ele><time>2026-05-03T07:40:05.678Z</time></trkpt><trkpt lat="39.8453633" lon="8.8276117"><ele>248.75</ele><time>2026-05-03T07:40:06.679Z</time></trkpt><trkpt lat="39.845505" lon="8.8276583"><ele>244.5</ele><time>2026-05-03T07:40:07.678Z</time></trkpt><trkpt lat="39.8456417" lon="8.8276933"><ele>240.25</ele><time>2026-05-03T07:40:08.679Z</time></trkpt><trkpt lat="39.8457517" lon="8.827725"><ele>236.0</ele><time>2026-05-03T07:40:09.679Z</time></trkpt><trkpt lat="39.845845" lon="8.8277017"><ele>236.00000000000003</ele><time>2026-05-03T07:40:10.678Z</time></trkpt><trkpt lat="39.8459117" lon="8.827645"><ele>236.0</ele><time>2026-05-03T07:40:11.679Z</time></trkpt><trkpt lat="39.8459533" lon="8.8275567"><ele>236.0</ele><time>2026-05-03T07:40:12.679Z</time></trkpt><trkpt lat="39.8459667" lon="8.8274333"><ele>236.0</ele><time>2026-05-03T07:40:13.678Z</time></trkpt><trkpt lat="39.8459567" lon="8.8273167"><ele>236.00000000000003</ele><time>2026-05-03T07:40:14.678Z</time></trkpt><trkpt lat="39.84592" lon="8.82721"><ele>236.0</ele><time>2026-05-03T07:40:15.678Z</time></trkpt><trkpt lat="39.8458483" lon="8.8271033"><ele>240.25</ele><time>2026-05-03T07:40:16.678Z</time></trkpt><trkpt lat="39.845755" lon="8.8269967"><ele>244.5</ele><time>2026-05-03T07:40:17.678Z</time></trkpt><trkpt lat="39.8456783" lon="8.8268883"><ele>248.75</ele><time>2026-05-03T07:40:18.679Z</time></trkpt><trkpt lat="39.8456267" lon="8.8267717"><ele>253.0</ele><time>2026-05-03T07:40:19.678Z</time></trkpt><trkpt lat="39.8456" lon="8.8266267"><ele>253.5</ele><time>2026-05-03T07:40:20.678Z</time></trkpt><trkpt lat="39.845605" lon="8.82645"><ele>254.0</ele><time>2026-05-03T07:40:21.678Z</time></trkpt><trkpt lat="39.8456467" lon="8.8262683"><ele>254.5</ele><time>2026-05-03T07:40:22.678Z</time></trkpt><trkpt lat="39.845715" lon="8.82611"><ele>255.0</ele><time>2026-05-03T07:40:23.678Z</time></trkpt><trkpt lat="39.8458017" lon="8.8259933"><ele>257.0</ele><time>2026-05-03T07:40:24.678Z</time></trkpt><trkpt lat="39.845895" lon="8.8259"><ele>259.0</ele><time>2026-05-03T07:40:25.678Z</time></trkpt><trkpt lat="39.8460117" lon="8.82584"><ele>261.0</ele><time>2026-05-03T07:40:26.678Z</time></trkpt><trkpt lat="39.846125" lon="8.8257833"><ele>263.0</ele><time>2026-05-03T07:40:27.678Z</time></trkpt><trkpt lat="39.846215" lon="8.8257217"><ele>258.4</ele><time>2026-05-03T07:40:28.678Z</time></trkpt><trkpt lat="39.8462717" lon="8.8256533"><ele>253.8</ele><time>2026-05-03T07:40:29.678Z</time></trkpt><trkpt lat="39.846275" lon="8.8255617"><ele>249.2</ele><time>2026-05-03T07:40:30.678Z</time></trkpt><trkpt lat="39.8462483" lon="8.8254533"><ele>244.6</ele><time>2026-05-03T07:40:31.678Z</time></trkpt><trkpt lat="39.8461667" lon="8.825345"><ele>240.0</ele><time>2026-05-03T07:40:32.678Z</time></trkpt><trkpt lat="39.8460583" lon="8.82522"><ele>244.0</ele><time>2026-05-03T07:40:33.678Z</time></trkpt><trkpt lat="39.8459617" lon="8.8251083"><ele>248.0</ele><time>2026-05-03T07:40:34.678Z</time></trkpt><trkpt lat="39.8458583" lon="8.8250217"><ele>252.0</ele><time>2026-05-03T07:40:35.678Z</time></trkpt><trkpt lat="39.8457433" lon="8.824975"><ele>256.0</ele><time>2026-05-03T07:40:36.678Z</time></trkpt><trkpt lat="39.845615" lon="8.82495"><ele>256.0</ele><time>2026-05-03T07:40:37.678Z</time></trkpt><trkpt lat="39.8454733" lon="8.8249483"><ele>256.0</ele><time>2026-05-03T07:40:38.678Z</time></trkpt><trkpt lat="39.8453233" lon="8.8249517"><ele>256.0</ele><time>2026-05-03T07:40:39.678Z</time></trkpt><trkpt lat="39.8451667" lon="8.8249683"><ele>256.0</ele><time>2026-05-03T07:40:40.678Z</time></trkpt><trkpt lat="39.8450067" lon="8.8249917"><ele>258.75</ele><time>2026-05-03T07:40:41.679Z</time></trkpt><trkpt lat="39.8448533" lon="8.82501"><ele>261.5</ele><time>2026-05-03T07:40:42.678Z</time></trkpt><trkpt lat="39.8447133" lon="8.825015"><ele>264.25</ele><time>2026-05-03T07:40:43.678Z</time></trkpt><trkpt lat="39.8445717" lon="8.8249933"><ele>267.0</ele><time>2026-05-03T07:40:44.679Z</time></trkpt><trkpt lat="39.84443" lon="8.8249517"><ele>268.75</ele><time>2026-05-03T07:40:45.679Z</time></trkpt><trkpt lat="39.844285" lon="8.8249133"><ele>270.5</ele><time>2026-05-03T07:40:46.678Z</time></trkpt><trkpt lat="39.8441333" lon="8.824875"><ele>272.25</ele><time>2026-05-03T07:40:47.678Z</time></trkpt><trkpt lat="39.843995" lon="8.8248567"><ele>274.0</ele><time>2026-05-03T07:40:48.679Z</time></trkpt><trkpt lat="39.8439017" lon="8.82483"><ele>274.0</ele><time>2026-05-03T07:40:49.678Z</time></trkpt><trkpt lat="39.84383" lon="8.8247867"><ele>274.0</ele><time>2026-05-03T07:40:50.678Z</time></trkpt><trkpt lat="39.84378" lon="8.8247217"><ele>274.0</ele><time>2026-05-03T07:40:51.678Z</time></trkpt><trkpt lat="39.843815" lon="8.8245417"><ele>274.0</ele><time>2026-05-03T07:40:53.678Z</time></trkpt><trkpt lat="39.8438983" lon="8.824415"><ele>274.0</ele><time>2026-05-03T07:40:54.679Z</time></trkpt><trkpt lat="39.8440017" lon="8.82428"><ele>273.0</ele><time>2026-05-03T07:40:55.678Z</time></trkpt><trkpt lat="39.8440933" lon="8.8241417"><ele>272.0</ele><time>2026-05-03T07:40:56.678Z</time></trkpt><trkpt lat="39.8441617" lon="8.824015"><ele>271.0</ele><time>2026-05-03T07:40:57.678Z</time></trkpt><trkpt lat="39.8441717" lon="8.8238783"><ele>270.0</ele><time>2026-05-03T07:40:58.678Z</time></trkpt><trkpt lat="39.8441633" lon="8.82373"><ele>270.0</ele><time>2026-05-03T07:40:59.678Z</time></trkpt><trkpt lat="39.8441333" lon="8.82355"><ele>270.0</ele><time>2026-05-03T07:41:00.679Z</time></trkpt><trkpt lat="39.8441067" lon="8.823355"><ele>270.0</ele><time>2026-05-03T07:41:01.678Z</time></trkpt><trkpt lat="39.8440733" lon="8.82315"><ele>270.5</ele><time>2026-05-03T07:41:02.679Z</time></trkpt><trkpt lat="39.84404" lon="8.8229533"><ele>271.0</ele><time>2026-05-03T07:41:03.678Z</time></trkpt><trkpt lat="39.844005" lon="8.82278"><ele>271.5</ele><time>2026-05-03T07:41:04.679Z</time></trkpt><trkpt lat="39.8440067" lon="8.82261"><ele>272.0</ele><time>2026-05-03T07:41:05.679Z</time></trkpt><trkpt lat="39.8440283" lon="8.82245"><ele>271.0</ele><time>2026-05-03T07:41:06.678Z</time></trkpt><trkpt lat="39.84403" lon="8.8223033"><ele>270.0</ele><time>2026-05-03T07:41:07.679Z</time></trkpt><trkpt lat="39.8440017" lon="8.82218"><ele>269.0</ele><time>2026-05-03T07:41:08.679Z</time></trkpt><trkpt lat="39.84395" lon="8.822075"><ele>268.0</ele><time>2026-05-03T07:41:09.679Z</time></trkpt><trkpt lat="39.843895" lon="8.8219733"><ele>267.0</ele><time>2026-05-03T07:41:10.679Z</time></trkpt><trkpt lat="39.8438683" lon="8.8218617"><ele>265.75</ele><time>2026-05-03T07:41:11.678Z</time></trkpt><trkpt lat="39.8438817" lon="8.8217217"><ele>264.5</ele><time>2026-05-03T07:41:12.678Z</time></trkpt><trkpt lat="39.8439133" lon="8.8215633"><ele>263.25</ele><time>2026-05-03T07:41:13.678Z</time></trkpt><trkpt lat="39.8439567" lon="8.82141"><ele>262.0</ele><time>2026-05-03T07:41:14.679Z</time></trkpt><trkpt lat="39.844" lon="8.8212767"><ele>262.0</ele><time>2026-05-03T07:41:15.678Z</time></trkpt><trkpt lat="39.8440833" lon="8.8211817"><ele>262.0</ele><time>2026-05-03T07:41:16.678Z</time></trkpt><trkpt lat="39.844215" lon="8.8210917"><ele>262.0</ele><time>2026-05-03T07:41:17.678Z</time></trkpt><trkpt lat="39.8443783" lon="8.821015"><ele>262.0</ele><time>2026-05-03T07:41:18.678Z</time></trkpt><trkpt lat="39.84454" lon="8.8209417"><ele>259.4</ele><time>2026-05-03T07:41:19.679Z</time></trkpt><trkpt lat="39.84467" lon="8.82086"><ele>256.79999999999995</ele><time>2026-05-03T07:41:20.678Z</time></trkpt><trkpt lat="39.84476" lon="8.8207717"><ele>254.2</ele><time>2026-05-03T07:41:21.679Z</time></trkpt><trkpt lat="39.8448167" lon="8.8207033"><ele>251.6</ele><time>2026-05-03T07:41:22.679Z</time></trkpt><trkpt lat="39.8448733" lon="8.82062"><ele>249.0</ele><time>2026-05-03T07:41:24.678Z</time></trkpt><trkpt lat="39.8447633" lon="8.82057"><ele>249.0</ele><time>2026-05-03T07:41:27.678Z</time></trkpt><trkpt lat="39.844695" lon="8.8205483"><ele>249.0</ele><time>2026-05-03T07:41:28.679Z</time></trkpt><trkpt lat="39.8446367" lon="8.820505"><ele>249.0</ele><time>2026-05-03T07:41:29.678Z</time></trkpt><trkpt lat="39.8446067" lon="8.82043"><ele>249.0</ele><time>2026-05-03T07:41:30.679Z</time></trkpt><trkpt lat="39.84461" lon="8.8203467"><ele>249.0</ele><time>2026-05-03T07:41:31.679Z</time></trkpt><trkpt lat="39.8446283" lon="8.8202383"><ele>249.0</ele><time>2026-05-03T07:41:32.678Z</time></trkpt><trkpt lat="39.8446533" lon="8.8201117"><ele>249.39999999999998</ele><time>2026-05-03T07:41:33.678Z</time></trkpt><trkpt lat="39.8446833" lon="8.8199883"><ele>249.79999999999998</ele><time>2026-05-03T07:41:34.679Z</time></trkpt><trkpt lat="39.844715" lon="8.8198583"><ele>250.20000000000002</ele><time>2026-05-03T07:41:35.679Z</time></trkpt><trkpt lat="39.844745" lon="8.8197117"><ele>250.60000000000002</ele><time>2026-05-03T07:41:36.678Z</time></trkpt><trkpt lat="39.844775" lon="8.81957"><ele>251.0</ele><time>2026-05-03T07:41:37.679Z</time></trkpt><trkpt lat="39.8447983" lon="8.8194617"><ele>251.00000000000003</ele><time>2026-05-03T07:41:38.679Z</time></trkpt><trkpt lat="39.84483" lon="8.8193567"><ele>251.0</ele><time>2026-05-03T07:41:39.678Z</time></trkpt><trkpt lat="39.8448667" lon="8.8192683"><ele>251.0</ele><time>2026-05-03T07:41:40.678Z</time></trkpt><trkpt lat="39.8449" lon="8.8191883"><ele>251.0</ele><time>2026-05-03T07:41:41.679Z</time></trkpt><trkpt lat="39.84494" lon="8.8191217"><ele>251.00000000000003</ele><time>2026-05-03T07:41:42.679Z</time></trkpt><trkpt lat="39.8450117" lon="8.8189767"><ele>251.0</ele><time>2026-05-03T07:41:44.678Z</time></trkpt><trkpt lat="39.8450517" lon="8.818895"><ele>251.16666666666669</ele><time>2026-05-03T07:41:45.678Z</time></trkpt><trkpt lat="39.8450967" lon="8.8188167"><ele>251.33333333333334</ele><time>2026-05-03T07:41:46.678Z</time></trkpt><trkpt lat="39.8451433" lon="8.81873"><ele>251.5</ele><time>2026-05-03T07:41:47.678Z</time></trkpt><trkpt lat="39.84519" lon="8.81865"><ele>251.66666666666669</ele><time>2026-05-03T07:41:48.678Z</time></trkpt><trkpt lat="39.8452283" lon="8.8185683"><ele>251.83333333333334</ele><time>2026-05-03T07:41:49.679Z</time></trkpt><trkpt lat="39.8452667" lon="8.8184883"><ele>252.0</ele><time>2026-05-03T07:41:50.679Z</time></trkpt><trkpt lat="39.8453133" lon="8.818405"><ele>252.0</ele><time>2026-05-03T07:41:51.678Z</time></trkpt><trkpt lat="39.845365" lon="8.8183317"><ele>252.0</ele><time>2026-05-03T07:41:52.678Z</time></trkpt><trkpt lat="39.8454433" lon="8.818255"><ele>252.0</ele><time>2026-05-03T07:41:53.678Z</time></trkpt><trkpt lat="39.8455217" lon="8.8181817"><ele>252.0</ele><time>2026-05-03T07:41:54.678Z</time></trkpt><trkpt lat="39.8455817" lon="8.818115"><ele>252.0</ele><time>2026-05-03T07:41:55.679Z</time></trkpt><trkpt lat="39.8456317" lon="8.818065"><ele>252.0</ele><time>2026-05-03T07:41:56.678Z</time></trkpt><trkpt lat="39.845685" lon="8.8179933"><ele>252.0</ele><time>2026-05-03T07:41:58.678Z</time></trkpt><trkpt lat="39.84572" lon="8.8179067"><ele>252.0</ele><time>2026-05-03T07:42:01.678Z</time></trkpt><trkpt lat="39.8457667" lon="8.81783"><ele>252.0</ele><time>2026-05-03T07:42:03.678Z</time></trkpt><trkpt lat="39.84583" lon="8.817735"><ele>252.0</ele><time>2026-05-03T07:42:05.678Z</time></trkpt><trkpt lat="39.8459067" lon="8.8176367"><ele>252.0</ele><time>2026-05-03T07:42:07.679Z</time></trkpt><trkpt lat="39.84599" lon="8.81755"><ele>251.2</ele><time>2026-05-03T07:42:09.678Z</time></trkpt><trkpt lat="39.846075" lon="8.8174633"><ele>250.39999999999998</ele><time>2026-05-03T07:42:11.679Z</time></trkpt><trkpt lat="39.8461533" lon="8.8173283"><ele>249.60000000000002</ele><time>2026-05-03T07:42:13.679Z</time></trkpt><trkpt lat="39.8461633" lon="8.817245"><ele>248.8</ele><time>2026-05-03T07:42:14.679Z</time></trkpt><trkpt lat="39.84616" lon="8.81716"><ele>248.0</ele><time>2026-05-03T07:42:15.679Z</time></trkpt><trkpt lat="39.8461617" lon="8.81703"><ele>248.00000000000003</ele><time>2026-05-03T07:42:17.679Z</time></trkpt><trkpt lat="39.8461617" lon="8.8169433"><ele>248.0</ele><time>2026-05-03T07:42:19.678Z</time></trkpt><trkpt lat="39.8460817" lon="8.81687"><ele>248.0</ele><time>2026-05-03T07:42:30.678Z</time></trkpt><trkpt lat="39.84601" lon="8.8169117"><ele>248.0</ele><time>2026-05-03T07:42:32.679Z</time></trkpt><trkpt lat="39.8459383" lon="8.8169983"><ele>248.00000000000003</ele><time>2026-05-03T07:42:34.678Z</time></trkpt><trkpt lat="39.845885" lon="8.817055"><ele>248.0</ele><time>2026-05-03T07:42:35.679Z</time></trkpt><trkpt lat="39.845825" lon="8.8171333"><ele>248.8</ele><time>2026-05-03T07:42:36.678Z</time></trkpt><trkpt lat="39.84575" lon="8.8172267"><ele>249.60000000000002</ele><time>2026-05-03T07:42:37.678Z</time></trkpt><trkpt lat="39.8456833" lon="8.8173267"><ele>250.39999999999998</ele><time>2026-05-03T07:42:38.679Z</time></trkpt><trkpt lat="39.8456267" lon="8.8174333"><ele>251.2</ele><time>2026-05-03T07:42:39.678Z</time></trkpt><trkpt lat="39.8455783" lon="8.8175517"><ele>252.0</ele><time>2026-05-03T07:42:40.678Z</time></trkpt><trkpt lat="39.8455467" lon="8.8176833"><ele>252.0</ele><time>2026-05-03T07:42:41.679Z</time></trkpt><trkpt lat="39.8455117" lon="8.81783"><ele>252.0</ele><time>2026-05-03T07:42:42.678Z</time></trkpt><trkpt lat="39.845475" lon="8.8179867"><ele>252.0</ele><time>2026-05-03T07:42:43.678Z</time></trkpt><trkpt lat="39.8454283" lon="8.8181367"><ele>252.0</ele><time>2026-05-03T07:42:44.679Z</time></trkpt><trkpt lat="39.8453733" lon="8.8182683"><ele>252.0</ele><time>2026-05-03T07:42:45.678Z</time></trkpt><trkpt lat="39.8453133" lon="8.8183883"><ele>252.0</ele><time>2026-05-03T07:42:46.679Z</time></trkpt><trkpt lat="39.84525" lon="8.818515"><ele>252.0</ele><time>2026-05-03T07:42:47.679Z</time></trkpt><trkpt lat="39.84518" lon="8.8186467"><ele>252.0</ele><time>2026-05-03T07:42:48.679Z</time></trkpt><trkpt lat="39.8451033" lon="8.8187967"><ele>252.25</ele><time>2026-05-03T07:42:49.678Z</time></trkpt><trkpt lat="39.8450283" lon="8.8189683"><ele>252.5</ele><time>2026-05-03T07:42:50.678Z</time></trkpt><trkpt lat="39.8449383" lon="8.8191233"><ele>252.75</ele><time>2026-05-03T07:42:51.678Z</time></trkpt><trkpt lat="39.844875" lon="8.8192733"><ele>253.0</ele><time>2026-05-03T07:42:52.678Z</time></trkpt><trkpt lat="39.8448167" lon="8.819425"><ele>252.5</ele><time>2026-05-03T07:42:53.679Z</time></trkpt><trkpt lat="39.844775" lon="8.8195883"><ele>252.0</ele><time>2026-05-03T07:42:54.678Z</time></trkpt><trkpt lat="39.844745" lon="8.8197567"><ele>251.5</ele><time>2026-05-03T07:42:55.678Z</time></trkpt><trkpt lat="39.8447083" lon="8.8199333"><ele>251.0</ele><time>2026-05-03T07:42:56.678Z</time></trkpt><trkpt lat="39.8446767" lon="8.82011"><ele>250.60000000000002</ele><time>2026-05-03T07:42:57.678Z</time></trkpt><trkpt lat="39.8446517" lon="8.8202633"><ele>250.20000000000002</ele><time>2026-05-03T07:42:58.679Z</time></trkpt><trkpt lat="39.8446333" lon="8.82038"><ele>249.79999999999998</ele><time>2026-05-03T07:42:59.678Z</time></trkpt><trkpt lat="39.8445867" lon="8.8204983"><ele>249.39999999999998</ele><time>2026-05-03T07:43:01.678Z</time></trkpt><trkpt lat="39.8445117" lon="8.8205183"><ele>249.0</ele><time>2026-05-03T07:43:03.679Z</time></trkpt><trkpt lat="39.844385" lon="8.8204917"><ele>249.0</ele><time>2026-05-03T07:43:05.678Z</time></trkpt><trkpt lat="39.8443067" lon="8.8204767"><ele>249.0</ele><time>2026-05-03T07:43:06.679Z</time></trkpt><trkpt lat="39.84422" lon="8.8204767"><ele>249.0</ele><time>2026-05-03T07:43:07.679Z</time></trkpt><trkpt lat="39.8441517" lon="8.8204817"><ele>249.0</ele><time>2026-05-03T07:43:08.678Z</time></trkpt><trkpt lat="39.8440867" lon="8.82048"><ele>249.0</ele><time>2026-05-03T07:43:09.678Z</time></trkpt><trkpt lat="39.843975" lon="8.8205217"><ele>249.0</ele><time>2026-05-03T07:43:11.679Z</time></trkpt><trkpt lat="39.8439083" lon="8.8205467"><ele>251.6</ele><time>2026-05-03T07:43:12.678Z</time></trkpt><trkpt lat="39.8438417" lon="8.82059"><ele>254.2</ele><time>2026-05-03T07:43:13.678Z</time></trkpt><trkpt lat="39.8437767" lon="8.8206533"><ele>256.79999999999995</ele><time>2026-05-03T07:43:14.678Z</time></trkpt><trkpt lat="39.8437033" lon="8.8207367"><ele>259.4</ele><time>2026-05-03T07:43:15.679Z</time></trkpt><trkpt lat="39.84364" lon="8.8208667"><ele>262.0</ele><time>2026-05-03T07:43:16.678Z</time></trkpt><trkpt lat="39.8436033" lon="8.8210183"><ele>262.0</ele><time>2026-05-03T07:43:17.678Z</time></trkpt><trkpt lat="39.8435617" lon="8.8211883"><ele>262.0</ele><time>2026-05-03T07:43:18.679Z</time></trkpt><trkpt lat="39.84352" lon="8.8213417"><ele>262.0</ele><time>2026-05-03T07:43:19.678Z</time></trkpt><trkpt lat="39.8434483" lon="8.8214833"><ele>262.0</ele><time>2026-05-03T07:43:20.678Z</time></trkpt><trkpt lat="39.8433633" lon="8.8216083"><ele>264.0</ele><time>2026-05-03T07:43:21.678Z</time></trkpt><trkpt lat="39.84325" lon="8.8217517"><ele>266.0</ele><time>2026-05-03T07:43:22.679Z</time></trkpt><trkpt lat="39.8431233" lon="8.8219183"><ele>268.0</ele><time>2026-05-03T07:43:23.679Z</time></trkpt><trkpt lat="39.8429883" lon="8.8220967"><ele>270.66666666666663</ele><time>2026-05-03T07:43:24.678Z</time></trkpt><trkpt lat="39.8428467" lon="8.8222667"><ele>273.3333333333333</ele><time>2026-05-03T07:43:25.679Z</time></trkpt><trkpt lat="39.8427167" lon="8.822435"><ele>276.0</ele><time>2026-05-03T07:43:26.678Z</time></trkpt><trkpt lat="39.8425867" lon="8.8225967"><ele>280.0</ele><time>2026-05-03T07:43:27.679Z</time></trkpt><trkpt lat="39.84246" lon="8.8227583"><ele>284.0</ele><time>2026-05-03T07:43:28.678Z</time></trkpt><trkpt lat="39.8423483" lon="8.8229217"><ele>288.0</ele><time>2026-05-03T07:43:29.679Z</time></trkpt><trkpt lat="39.8422283" lon="8.823065"><ele>288.0</ele><time>2026-05-03T07:43:30.678Z</time></trkpt><trkpt lat="39.842125" lon="8.8231933"><ele>288.0</ele><time>2026-05-03T07:43:31.679Z</time></trkpt><trkpt lat="39.8420267" lon="8.8232833"><ele>288.0</ele><time>2026-05-03T07:43:32.678Z</time></trkpt><trkpt lat="39.8419317" lon="8.8233317"><ele>288.0</ele><time>2026-05-03T07:43:33.678Z</time></trkpt><trkpt lat="39.8418333" lon="8.8233283"><ele>287.0</ele><time>2026-05-03T07:43:34.678Z</time></trkpt><trkpt lat="39.84174" lon="8.8232883"><ele>286.0</ele><time>2026-05-03T07:43:35.678Z</time></trkpt><trkpt lat="39.8416617" lon="8.8232183"><ele>285.0</ele><time>2026-05-03T07:43:36.679Z</time></trkpt><trkpt lat="39.8415883" lon="8.8231067"><ele>284.0</ele><time>2026-05-03T07:43:37.678Z</time></trkpt><trkpt lat="39.8415517" lon="8.8229833"><ele>283.0</ele><time>2026-05-03T07:43:38.679Z</time></trkpt><trkpt lat="39.84153" lon="8.8228383"><ele>283.0</ele><time>2026-05-03T07:43:39.678Z</time></trkpt><trkpt lat="39.8415317" lon="8.8226883"><ele>283.0</ele><time>2026-05-03T07:43:40.678Z</time></trkpt><trkpt lat="39.8415233" lon="8.82256"><ele>283.0</ele><time>2026-05-03T07:43:41.678Z</time></trkpt><trkpt lat="39.8414967" lon="8.8224417"><ele>283.0</ele><time>2026-05-03T07:43:42.678Z</time></trkpt><trkpt lat="39.8414583" lon="8.8223267"><ele>283.0</ele><time>2026-05-03T07:43:43.678Z</time></trkpt><trkpt lat="39.8414033" lon="8.8222033"><ele>281.6</ele><time>2026-05-03T07:43:44.678Z</time></trkpt><trkpt lat="39.841345" lon="8.822075"><ele>280.20000000000005</ele><time>2026-05-03T07:43:45.678Z</time></trkpt><trkpt lat="39.841305" lon="8.8219517"><ele>278.8</ele><time>2026-05-03T07:43:46.679Z</time></trkpt><trkpt lat="39.8412933" lon="8.8218117"><ele>277.40000000000003</ele><time>2026-05-03T07:43:47.679Z</time></trkpt><trkpt lat="39.8413067" lon="8.8216583"><ele>276.0</ele><time>2026-05-03T07:43:48.678Z</time></trkpt><trkpt lat="39.8413133" lon="8.82151"><ele>276.0</ele><time>2026-05-03T07:43:49.679Z</time></trkpt><trkpt lat="39.8412933" lon="8.8213833"><ele>276.0</ele><time>2026-05-03T07:43:50.679Z</time></trkpt><trkpt lat="39.8412417" lon="8.82125"><ele>276.0</ele><time>2026-05-03T07:43:51.678Z</time></trkpt><trkpt lat="39.8411567" lon="8.8211017"><ele>276.0</ele><time>2026-05-03T07:43:52.678Z</time></trkpt><trkpt lat="39.8410567" lon="8.82096"><ele>279.6666666666667</ele><time>2026-05-03T07:43:53.678Z</time></trkpt><trkpt lat="39.8409333" lon="8.820825"><ele>283.33333333333337</ele><time>2026-05-03T07:43:54.678Z</time></trkpt><trkpt lat="39.8407883" lon="8.8207033"><ele>287.0</ele><time>2026-05-03T07:43:55.679Z</time></trkpt><trkpt lat="39.84065" lon="8.8206067"><ele>287.0</ele><time>2026-05-03T07:43:56.679Z</time></trkpt><trkpt lat="39.8404967" lon="8.8205283"><ele>287.0</ele><time>2026-05-03T07:43:57.678Z</time></trkpt><trkpt lat="39.840355" lon="8.8204783"><ele>287.0</ele><time>2026-05-03T07:43:58.678Z</time></trkpt><trkpt lat="39.840205" lon="8.8204383"><ele>287.4</ele><time>2026-05-03T07:43:59.678Z</time></trkpt><trkpt lat="39.84007" lon="8.8204283"><ele>287.79999999999995</ele><time>2026-05-03T07:44:00.679Z</time></trkpt><trkpt lat="39.8399617" lon="8.820415"><ele>288.2</ele><time>2026-05-03T07:44:01.678Z</time></trkpt><trkpt lat="39.8398833" lon="8.8204"><ele>288.59999999999997</ele><time>2026-05-03T07:44:02.678Z</time></trkpt><trkpt lat="39.839795" lon="8.82033"><ele>289.0</ele><time>2026-05-03T07:44:04.679Z</time></trkpt><trkpt lat="39.8398183" lon="8.8201317"><ele>289.0</ele><time>2026-05-03T07:44:06.678Z</time></trkpt><trkpt lat="39.8398517" lon="8.8199867"><ele>289.0</ele><time>2026-05-03T07:44:07.679Z</time></trkpt><trkpt lat="39.8398917" lon="8.81982"><ele>289.0</ele><time>2026-05-03T07:44:08.678Z</time></trkpt><trkpt lat="39.839935" lon="8.819645"><ele>289.0</ele><time>2026-05-03T07:44:09.678Z</time></trkpt><trkpt lat="39.83998" lon="8.8194533"><ele>290.0</ele><time>2026-05-03T07:44:10.678Z</time></trkpt><trkpt lat="39.84003" lon="8.8192683"><ele>291.0</ele><time>2026-05-03T07:44:11.679Z</time></trkpt><trkpt lat="39.84008" lon="8.8191033"><ele>292.0</ele><time>2026-05-03T07:44:12.679Z</time></trkpt><trkpt lat="39.84011" lon="8.8189617"><ele>293.0</ele><time>2026-05-03T07:44:13.679Z</time></trkpt><trkpt lat="39.84012" lon="8.8188017"><ele>293.0</ele><time>2026-05-03T07:44:14.678Z</time></trkpt><trkpt lat="39.8401167" lon="8.8186333"><ele>293.0</ele><time>2026-05-03T07:44:15.678Z</time></trkpt><trkpt lat="39.8400933" lon="8.81846"><ele>293.0</ele><time>2026-05-03T07:44:16.678Z</time></trkpt><trkpt lat="39.8400417" lon="8.8182717"><ele>293.0</ele><time>2026-05-03T07:44:17.679Z</time></trkpt><trkpt lat="39.839975" lon="8.818075"><ele>293.0</ele><time>2026-05-03T07:44:18.679Z</time></trkpt><trkpt lat="39.8399183" lon="8.81787"><ele>293.0</ele><time>2026-05-03T07:44:19.678Z</time></trkpt><trkpt lat="39.8398717" lon="8.8176617"><ele>293.0</ele><time>2026-05-03T07:44:20.678Z</time></trkpt><trkpt lat="39.839835" lon="8.817475"><ele>292.6</ele><time>2026-05-03T07:44:21.678Z</time></trkpt><trkpt lat="39.8398233" lon="8.8173067"><ele>292.20000000000005</ele><time>2026-05-03T07:44:22.678Z</time></trkpt><trkpt lat="39.8398433" lon="8.8171733"><ele>291.8</ele><time>2026-05-03T07:44:23.679Z</time></trkpt><trkpt lat="39.8398783" lon="8.81708"><ele>291.40000000000003</ele><time>2026-05-03T07:44:24.678Z</time></trkpt><trkpt lat="39.8399117" lon="8.8169483"><ele>291.0</ele><time>2026-05-03T07:44:26.678Z</time></trkpt><trkpt lat="39.83984" lon="8.816835"><ele>289.5</ele><time>2026-05-03T07:44:28.678Z</time></trkpt><trkpt lat="39.8397533" lon="8.8167983"><ele>288.0</ele><time>2026-05-03T07:44:29.678Z</time></trkpt><trkpt lat="39.8396367" lon="8.8167817"><ele>286.5</ele><time>2026-05-03T07:44:30.678Z</time></trkpt><trkpt lat="39.8394867" lon="8.816785"><ele>285.0</ele><time>2026-05-03T07:44:31.678Z</time></trkpt><trkpt lat="39.839325" lon="8.8168"><ele>286.75</ele><time>2026-05-03T07:44:32.678Z</time></trkpt><trkpt lat="39.8391583" lon="8.8168117"><ele>288.5</ele><time>2026-05-03T07:44:33.678Z</time></trkpt><trkpt lat="39.8390067" lon="8.816825"><ele>290.25</ele><time>2026-05-03T07:44:34.679Z</time></trkpt><trkpt lat="39.8388833" lon="8.81684"><ele>292.0</ele><time>2026-05-03T07:44:35.678Z</time></trkpt><trkpt lat="39.838795" lon="8.816825"><ele>292.0</ele><time>2026-05-03T07:44:36.679Z</time></trkpt><trkpt lat="39.838715" lon="8.816775"><ele>292.0</ele><time>2026-05-03T07:44:37.678Z</time></trkpt><trkpt lat="39.8386317" lon="8.8166967"><ele>292.0</ele><time>2026-05-03T07:44:38.678Z</time></trkpt><trkpt lat="39.838535" lon="8.8166033"><ele>292.0</ele><time>2026-05-03T07:44:39.679Z</time></trkpt><trkpt lat="39.83841" lon="8.8164783"><ele>298.3333333333333</ele><time>2026-05-03T07:44:40.679Z</time></trkpt><trkpt lat="39.8382883" lon="8.816355"><ele>304.6666666666667</ele><time>2026-05-03T07:44:41.678Z</time></trkpt><trkpt lat="39.8381617" lon="8.8162233"><ele>311.0</ele><time>2026-05-03T07:44:42.679Z</time></trkpt><trkpt lat="39.8380467" lon="8.81612"><ele>311.0</ele><time>2026-05-03T07:44:43.678Z</time></trkpt><trkpt lat="39.8379383" lon="8.816025"><ele>311.0</ele><time>2026-05-03T07:44:44.678Z</time></trkpt><trkpt lat="39.8378217" lon="8.8159133"><ele>311.0</ele><time>2026-05-03T07:44:45.679Z</time></trkpt><trkpt lat="39.8377067" lon="8.8158017"><ele>311.0</ele><time>2026-05-03T07:44:46.678Z</time></trkpt><trkpt lat="39.8375983" lon="8.81571"><ele>311.6666666666667</ele><time>2026-05-03T07:44:47.678Z</time></trkpt><trkpt lat="39.8375" lon="8.815625"><ele>312.33333333333337</ele><time>2026-05-03T07:44:48.678Z</time></trkpt><trkpt lat="39.83742" lon="8.815565"><ele>313.0</ele><time>2026-05-03T07:44:49.678Z</time></trkpt><trkpt lat="39.837335" lon="8.8154833"><ele>313.6666666666667</ele><time>2026-05-03T07:44:51.678Z</time></trkpt><trkpt lat="39.8372717" lon="8.8154517"><ele>314.3333333333333</ele><time>2026-05-03T07:48:29.677Z</time></trkpt><trkpt lat="39.8372083" lon="8.8154517"><ele>315.0</ele><time>2026-05-03T07:48:30.677Z</time></trkpt><trkpt lat="39.83714" lon="8.81546"><ele>315.0</ele><time>2026-05-03T07:48:31.677Z</time></trkpt><trkpt lat="39.8370683" lon="8.81546"><ele>315.0</ele><time>2026-05-03T07:48:32.677Z</time></trkpt><trkpt lat="39.8369983" lon="8.8154567"><ele>315.0</ele><time>2026-05-03T07:48:33.678Z</time></trkpt><trkpt lat="39.83691" lon="8.8155033"><ele>315.0</ele><time>2026-05-03T07:48:35.678Z</time></trkpt><trkpt lat="39.83689" lon="8.815615"><ele>315.0</ele><time>2026-05-03T07:48:37.678Z</time></trkpt><trkpt lat="39.8369467" lon="8.81572"><ele>315.0</ele><time>2026-05-03T07:48:38.678Z</time></trkpt><trkpt lat="39.8370133" lon="8.81583"><ele>315.0</ele><time>2026-05-03T07:48:39.678Z</time></trkpt><trkpt lat="39.8370967" lon="8.81594"><ele>315.0</ele><time>2026-05-03T07:48:40.677Z</time></trkpt><trkpt lat="39.8371817" lon="8.8160467"><ele>315.0</ele><time>2026-05-03T07:48:41.677Z</time></trkpt><trkpt lat="39.8372633" lon="8.8161517"><ele>315.0</ele><time>2026-05-03T07:48:42.678Z</time></trkpt><trkpt lat="39.8373267" lon="8.81626"><ele>318.4</ele><time>2026-05-03T07:48:43.678Z</time></trkpt><trkpt lat="39.8373633" lon="8.816365"><ele>321.8</ele><time>2026-05-03T07:48:44.678Z</time></trkpt><trkpt lat="39.8373883" lon="8.8164817"><ele>325.20000000000005</ele><time>2026-05-03T07:48:45.677Z</time></trkpt><trkpt lat="39.8374167" lon="8.8166033"><ele>328.6</ele><time>2026-05-03T07:48:46.677Z</time></trkpt><trkpt lat="39.837475" lon="8.8167183"><ele>332.0</ele><time>2026-05-03T07:48:47.678Z</time></trkpt><trkpt lat="39.8375517" lon="8.8168183"><ele>331.40000000000003</ele><time>2026-05-03T07:48:48.677Z</time></trkpt><trkpt lat="39.83762" lon="8.8168883"><ele>330.8</ele><time>2026-05-03T07:48:49.677Z</time></trkpt><trkpt lat="39.8377067" lon="8.8169767"><ele>330.2</ele><time>2026-05-03T07:48:51.677Z</time></trkpt><trkpt lat="39.8377817" lon="8.8170617"><ele>329.6</ele><time>2026-05-03T07:48:53.677Z</time></trkpt><trkpt lat="39.837835" lon="8.817145"><ele>329.0</ele><time>2026-05-03T07:48:55.677Z</time></trkpt><trkpt lat="39.8379117" lon="8.8172333"><ele>329.0</ele><time>2026-05-03T07:48:57.677Z</time></trkpt><trkpt lat="39.8379567" lon="8.817305"><ele>329.0</ele><time>2026-05-03T07:48:59.677Z</time></trkpt><trkpt lat="39.837855" lon="8.817215"><ele>329.0</ele><time>2026-05-03T07:49:15.677Z</time></trkpt><trkpt lat="39.8377883" lon="8.81713"><ele>329.0</ele><time>2026-05-03T07:49:16.677Z</time></trkpt><trkpt lat="39.8377167" lon="8.8170367"><ele>329.0</ele><time>2026-05-03T07:49:17.677Z</time></trkpt><trkpt lat="39.8376467" lon="8.8169417"><ele>329.5</ele><time>2026-05-03T07:49:18.678Z</time></trkpt><trkpt lat="39.83759" lon="8.8168633"><ele>330.0</ele><time>2026-05-03T07:49:19.677Z</time></trkpt><trkpt lat="39.83751" lon="8.8167567"><ele>330.5</ele><time>2026-05-03T07:49:21.678Z</time></trkpt><trkpt lat="39.837465" lon="8.8166833"><ele>331.0</ele><time>2026-05-03T07:49:22.678Z</time></trkpt><trkpt lat="39.8374267" lon="8.8165933"><ele>331.5</ele><time>2026-05-03T07:49:23.677Z</time></trkpt><trkpt lat="39.8373967" lon="8.8165133"><ele>332.0</ele><time>2026-05-03T07:49:24.677Z</time></trkpt><trkpt lat="39.8373367" lon="8.8164217"><ele>332.0</ele><time>2026-05-03T07:49:26.677Z</time></trkpt><trkpt lat="39.8372633" lon="8.8163583"><ele>332.0</ele><time>2026-05-03T07:49:28.677Z</time></trkpt><trkpt lat="39.8372017" lon="8.8163817"><ele>332.0</ele><time>2026-05-03T07:49:30.678Z</time></trkpt><trkpt lat="39.8371283" lon="8.8164767"><ele>332.0</ele><time>2026-05-03T07:49:32.677Z</time></trkpt><trkpt lat="39.8370817" lon="8.8165333"><ele>332.0</ele><time>2026-05-03T07:49:33.677Z</time></trkpt><trkpt lat="39.8370367" lon="8.816605"><ele>332.0</ele><time>2026-05-03T07:49:34.677Z</time></trkpt><trkpt lat="39.8369883" lon="8.8166733"><ele>332.0</ele><time>2026-05-03T07:49:35.678Z</time></trkpt><trkpt lat="39.836945" lon="8.816745"><ele>332.0</ele><time>2026-05-03T07:49:36.677Z</time></trkpt><trkpt lat="39.8368583" lon="8.81681"><ele>332.0</ele><time>2026-05-03T07:49:38.677Z</time></trkpt><trkpt lat="39.8367417" lon="8.8167883"><ele>332.0</ele><time>2026-05-03T07:49:40.678Z</time></trkpt><trkpt lat="39.8366817" lon="8.8167617"><ele>332.0</ele><time>2026-05-03T07:49:41.678Z</time></trkpt><trkpt lat="39.83661" lon="8.8167367"><ele>332.0</ele><time>2026-05-03T07:49:42.677Z</time></trkpt><trkpt lat="39.8365183" lon="8.8167183"><ele>334.5</ele><time>2026-05-03T07:49:43.678Z</time></trkpt><trkpt lat="39.8364283" lon="8.816705"><ele>337.0</ele><time>2026-05-03T07:49:44.677Z</time></trkpt><trkpt lat="39.8363317" lon="8.8167017"><ele>339.5</ele><time>2026-05-03T07:49:45.677Z</time></trkpt><trkpt lat="39.8362517" lon="8.8166833"><ele>342.0</ele><time>2026-05-03T07:49:46.677Z</time></trkpt><trkpt lat="39.836175" lon="8.8166483"><ele>344.5</ele><time>2026-05-03T07:49:47.678Z</time></trkpt><trkpt lat="39.83611" lon="8.816585"><ele>347.0</ele><time>2026-05-03T07:49:48.677Z</time></trkpt><trkpt lat="39.8360583" lon="8.8165083"><ele>347.0</ele><time>2026-05-03T07:49:49.678Z</time></trkpt><trkpt lat="39.8360217" lon="8.8164217"><ele>347.0</ele><time>2026-05-03T07:49:50.677Z</time></trkpt><trkpt lat="39.8360233" lon="8.8163167"><ele>347.0</ele><time>2026-05-03T07:49:51.677Z</time></trkpt><trkpt lat="39.8360133" lon="8.8162217"><ele>347.0</ele><time>2026-05-03T07:49:52.677Z</time></trkpt><trkpt lat="39.836005" lon="8.8161167"><ele>347.0</ele><time>2026-05-03T07:49:54.678Z</time></trkpt><trkpt lat="39.835995" lon="8.81601"><ele>347.0</ele><time>2026-05-03T07:50:09.678Z</time></trkpt><trkpt lat="39.8359883" lon="8.815905"><ele>344.8</ele><time>2026-05-03T07:50:11.677Z</time></trkpt><trkpt lat="39.8359667" lon="8.8157767"><ele>342.6</ele><time>2026-05-03T07:50:13.677Z</time></trkpt><trkpt lat="39.8359467" lon="8.8155983"><ele>340.40000000000003</ele><time>2026-05-03T07:50:15.677Z</time></trkpt><trkpt lat="39.8359567" lon="8.8154867"><ele>338.20000000000005</ele><time>2026-05-03T07:50:16.677Z</time></trkpt><trkpt lat="39.8359883" lon="8.8153483"><ele>336.0</ele><time>2026-05-03T07:50:17.677Z</time></trkpt><trkpt lat="39.8360267" lon="8.8152067"><ele>336.8333333333333</ele><time>2026-05-03T07:50:18.677Z</time></trkpt><trkpt lat="39.8360683" lon="8.8150783"><ele>337.6666666666667</ele><time>2026-05-03T07:50:19.677Z</time></trkpt><trkpt lat="39.8361133" lon="8.8149717"><ele>338.5</ele><time>2026-05-03T07:50:20.677Z</time></trkpt><trkpt lat="39.83617" lon="8.814875"><ele>339.33333333333337</ele><time>2026-05-03T07:50:21.677Z</time></trkpt><trkpt lat="39.8362333" lon="8.8148117"><ele>340.1666666666667</ele><time>2026-05-03T07:50:22.678Z</time></trkpt><trkpt lat="39.8362783" lon="8.8147533"><ele>341.0</ele><time>2026-05-03T07:50:23.677Z</time></trkpt><trkpt lat="39.8364167" lon="8.81469"><ele>341.0</ele><time>2026-05-03T07:50:25.678Z</time></trkpt><trkpt lat="39.8365033" lon="8.81465"><ele>341.0</ele><time>2026-05-03T07:50:26.677Z</time></trkpt><trkpt lat="39.8365833" lon="8.8146117"><ele>341.0</ele><time>2026-05-03T07:50:27.677Z</time></trkpt><trkpt lat="39.8366517" lon="8.8145767"><ele>341.0</ele><time>2026-05-03T07:50:28.678Z</time></trkpt><trkpt lat="39.8367167" lon="8.81452"><ele>341.0</ele><time>2026-05-03T07:50:29.678Z</time></trkpt><trkpt lat="39.8367867" lon="8.8144067"><ele>341.0</ele><time>2026-05-03T07:50:31.677Z</time></trkpt><trkpt lat="39.836805" lon="8.8143267"><ele>339.33333333333337</ele><time>2026-05-03T07:50:32.677Z</time></trkpt><trkpt lat="39.8368033" lon="8.8142283"><ele>337.6666666666667</ele><time>2026-05-03T07:50:33.678Z</time></trkpt><trkpt lat="39.8367967" lon="8.8141233"><ele>336.0</ele><time>2026-05-03T07:50:34.677Z</time></trkpt><trkpt lat="39.8367967" lon="8.8140183"><ele>334.3333333333333</ele><time>2026-05-03T07:50:35.678Z</time></trkpt><trkpt lat="39.8367933" lon="8.8139217"><ele>332.66666666666663</ele><time>2026-05-03T07:50:36.677Z</time></trkpt><trkpt lat="39.8367783" lon="8.8138217"><ele>331.0</ele><time>2026-05-03T07:50:37.677Z</time></trkpt><trkpt lat="39.8367567" lon="8.8137283"><ele>336.6</ele><time>2026-05-03T07:50:38.677Z</time></trkpt><trkpt lat="39.8367083" lon="8.8136267"><ele>342.20000000000005</ele><time>2026-05-03T07:50:39.678Z</time></trkpt><trkpt lat="39.8366633" lon="8.8135183"><ele>347.79999999999995</ele><time>2026-05-03T07:50:40.677Z</time></trkpt><trkpt lat="39.8366117" lon="8.8133983"><ele>353.4</ele><time>2026-05-03T07:50:41.677Z</time></trkpt><trkpt lat="39.8365367" lon="8.8132833"><ele>359.0</ele><time>2026-05-03T07:50:42.677Z</time></trkpt><trkpt lat="39.8364683" lon="8.813165"><ele>359.2</ele><time>2026-05-03T07:50:43.677Z</time></trkpt><trkpt lat="39.8363983" lon="8.8130483"><ele>359.4</ele><time>2026-05-03T07:50:44.678Z</time></trkpt><trkpt lat="39.8363317" lon="8.8129483"><ele>359.6</ele><time>2026-05-03T07:50:45.677Z</time></trkpt><trkpt lat="39.83626" lon="8.8128583"><ele>359.8</ele><time>2026-05-03T07:50:46.678Z</time></trkpt><trkpt lat="39.8361817" lon="8.8127733"><ele>360.0</ele><time>2026-05-03T07:50:47.677Z</time></trkpt><trkpt lat="39.83609" lon="8.812715"><ele>361.75</ele><time>2026-05-03T07:50:48.678Z</time></trkpt><trkpt lat="39.8359833" lon="8.8126433"><ele>363.5</ele><time>2026-05-03T07:50:49.677Z</time></trkpt><trkpt lat="39.8358683" lon="8.8125783"><ele>365.25</ele><time>2026-05-03T07:50:50.677Z</time></trkpt><trkpt lat="39.8357417" lon="8.81249"><ele>367.0</ele><time>2026-05-03T07:50:51.678Z</time></trkpt><trkpt lat="39.835625" lon="8.81241"><ele>367.0</ele><time>2026-05-03T07:50:52.677Z</time></trkpt><trkpt lat="39.83549" lon="8.8123367"><ele>367.0</ele><time>2026-05-03T07:50:53.677Z</time></trkpt><trkpt lat="39.83537" lon="8.8122767"><ele>367.0</ele><time>2026-05-03T07:50:54.677Z</time></trkpt><trkpt lat="39.8352433" lon="8.8122467"><ele>367.0</ele><time>2026-05-03T07:50:55.677Z</time></trkpt><trkpt lat="39.8351217" lon="8.8122083"><ele>371.75</ele><time>2026-05-03T07:50:56.678Z</time></trkpt><trkpt lat="39.83501" lon="8.81214"><ele>376.5</ele><time>2026-05-03T07:50:57.678Z</time></trkpt><trkpt lat="39.8348967" lon="8.8120583"><ele>381.25</ele><time>2026-05-03T07:50:58.677Z</time></trkpt><trkpt lat="39.8347917" lon="8.8119917"><ele>386.0</ele><time>2026-05-03T07:50:59.677Z</time></trkpt><trkpt lat="39.8346867" lon="8.8119333"><ele>386.0</ele><time>2026-05-03T07:51:00.677Z</time></trkpt><trkpt lat="39.834565" lon="8.8118883"><ele>386.0</ele><time>2026-05-03T07:51:01.678Z</time></trkpt><trkpt lat="39.834445" lon="8.8118583"><ele>386.0</ele><time>2026-05-03T07:51:02.677Z</time></trkpt><trkpt lat="39.834335" lon="8.8118367"><ele>386.0</ele><time>2026-05-03T07:51:03.677Z</time></trkpt><trkpt lat="39.8342467" lon="8.8118183"><ele>386.0</ele><time>2026-05-03T07:51:04.677Z</time></trkpt><trkpt lat="39.8341733" lon="8.811785"><ele>385.66666666666663</ele><time>2026-05-03T07:51:05.678Z</time></trkpt><trkpt lat="39.8341" lon="8.8117667"><ele>385.3333333333333</ele><time>2026-05-03T07:51:06.677Z</time></trkpt><trkpt lat="39.8340317" lon="8.8117383"><ele>385.0</ele><time>2026-05-03T07:51:07.677Z</time></trkpt><trkpt lat="39.83396" lon="8.8117017"><ele>384.66666666666663</ele><time>2026-05-03T07:51:08.678Z</time></trkpt><trkpt lat="39.833885" lon="8.811675"><ele>384.3333333333333</ele><time>2026-05-03T07:51:09.678Z</time></trkpt><trkpt lat="39.8338217" lon="8.8116417"><ele>384.0</ele><time>2026-05-03T07:51:10.678Z</time></trkpt><trkpt lat="39.8337283" lon="8.8115633"><ele>384.0</ele><time>2026-05-03T07:51:12.677Z</time></trkpt><trkpt lat="39.83366" lon="8.8114267"><ele>384.0</ele><time>2026-05-03T07:51:14.678Z</time></trkpt><trkpt lat="39.833605" lon="8.8113183"><ele>384.0</ele><time>2026-05-03T07:51:15.677Z</time></trkpt><trkpt lat="39.8335383" lon="8.811215"><ele>384.0</ele><time>2026-05-03T07:51:16.677Z</time></trkpt><trkpt lat="39.8334817" lon="8.8111317"><ele>384.0</ele><time>2026-05-03T07:51:17.677Z</time></trkpt><trkpt lat="39.8334183" lon="8.8110583"><ele>385.79999999999995</ele><time>2026-05-03T07:51:18.677Z</time></trkpt><trkpt lat="39.8333533" lon="8.810975"><ele>387.59999999999997</ele><time>2026-05-03T07:51:19.677Z</time></trkpt><trkpt lat="39.8332933" lon="8.81091"><ele>389.4</ele><time>2026-05-03T07:51:20.677Z</time></trkpt><trkpt lat="39.8332183" lon="8.8108317"><ele>391.2</ele><time>2026-05-03T07:51:21.678Z</time></trkpt><trkpt lat="39.8331583" lon="8.8107583"><ele>393.0</ele><time>2026-05-03T07:51:22.677Z</time></trkpt><trkpt lat="39.8330717" lon="8.8106467"><ele>393.0</ele><time>2026-05-03T07:51:24.677Z</time></trkpt><trkpt lat="39.8330117" lon="8.8106083"><ele>393.0</ele><time>2026-05-03T07:51:25.677Z</time></trkpt><trkpt lat="39.8329417" lon="8.810565"><ele>393.0</ele><time>2026-05-03T07:51:26.677Z</time></trkpt><trkpt lat="39.8328733" lon="8.8105183"><ele>393.0</ele><time>2026-05-03T07:51:27.678Z</time></trkpt><trkpt lat="39.8328117" lon="8.8104317"><ele>393.0</ele><time>2026-05-03T07:51:28.678Z</time></trkpt><trkpt lat="39.8327217" lon="8.8103317"><ele>393.0</ele><time>2026-05-03T07:51:30.678Z</time></trkpt><trkpt lat="39.8326617" lon="8.81029"><ele>397.79999999999995</ele><time>2026-05-03T07:51:31.677Z</time></trkpt><trkpt lat="39.8325883" lon="8.810225"><ele>402.6</ele><time>2026-05-03T07:51:33.677Z</time></trkpt><trkpt lat="39.8325033" lon="8.8102167"><ele>407.4</ele><time>2026-05-03T07:51:36.678Z</time></trkpt><trkpt lat="39.8324633" lon="8.81034"><ele>412.20000000000005</ele><time>2026-05-03T07:51:39.677Z</time></trkpt><trkpt lat="39.8324683" lon="8.8104783"><ele>417.0</ele><time>2026-05-03T07:51:41.677Z</time></trkpt><trkpt lat="39.83249" lon="8.8105783"><ele>417.0</ele><time>2026-05-03T07:51:42.677Z</time></trkpt><trkpt lat="39.83253" lon="8.8107133"><ele>417.0</ele><time>2026-05-03T07:51:43.677Z</time></trkpt><trkpt lat="39.8325683" lon="8.8108433"><ele>417.0</ele><time>2026-05-03T07:51:44.678Z</time></trkpt><trkpt lat="39.83261" lon="8.8109733"><ele>417.0</ele><time>2026-05-03T07:51:45.677Z</time></trkpt><trkpt lat="39.8326617" lon="8.8111083"><ele>417.0</ele><time>2026-05-03T07:51:46.678Z</time></trkpt><trkpt lat="39.83272" lon="8.8112317"><ele>414.25</ele><time>2026-05-03T07:51:47.677Z</time></trkpt><trkpt lat="39.83279" lon="8.8113517"><ele>411.5</ele><time>2026-05-03T07:51:48.678Z</time></trkpt><trkpt lat="39.8328617" lon="8.81148"><ele>408.75</ele><time>2026-05-03T07:51:49.677Z</time></trkpt><trkpt lat="39.83293" lon="8.81161"><ele>406.0</ele><time>2026-05-03T07:51:50.678Z</time></trkpt><trkpt lat="39.83301" lon="8.8117117"><ele>406.0</ele><time>2026-05-03T07:51:51.677Z</time></trkpt><trkpt lat="39.8330917" lon="8.8118217"><ele>406.0</ele><time>2026-05-03T07:51:52.677Z</time></trkpt><trkpt lat="39.83317" lon="8.8119333"><ele>406.0</ele><time>2026-05-03T07:51:53.678Z</time></trkpt><trkpt lat="39.8332467" lon="8.812045"><ele>406.0</ele><time>2026-05-03T07:51:54.677Z</time></trkpt><trkpt lat="39.8333183" lon="8.8121467"><ele>406.20000000000005</ele><time>2026-05-03T07:51:55.677Z</time></trkpt><trkpt lat="39.8333733" lon="8.81222"><ele>406.40000000000003</ele><time>2026-05-03T07:51:56.678Z</time></trkpt><trkpt lat="39.8334183" lon="8.81229"><ele>406.6</ele><time>2026-05-03T07:51:57.677Z</time></trkpt><trkpt lat="39.8334833" lon="8.8124117"><ele>406.8</ele><time>2026-05-03T07:51:59.677Z</time></trkpt><trkpt lat="39.8333917" lon="8.8124983"><ele>407.0</ele><time>2026-05-03T07:52:02.677Z</time></trkpt><trkpt lat="39.8333117" lon="8.812505"><ele>409.3333333333333</ele><time>2026-05-03T07:52:03.677Z</time></trkpt><trkpt lat="39.8332183" lon="8.8125"><ele>411.66666666666663</ele><time>2026-05-03T07:52:04.678Z</time></trkpt><trkpt lat="39.8331333" lon="8.81252"><ele>414.0</ele><time>2026-05-03T07:52:05.678Z</time></trkpt><trkpt lat="39.83306" lon="8.812525"><ele>416.33333333333337</ele><time>2026-05-03T07:52:06.677Z</time></trkpt><trkpt lat="39.83299" lon="8.812545"><ele>418.6666666666667</ele><time>2026-05-03T07:52:07.677Z</time></trkpt><trkpt lat="39.8328967" lon="8.812605"><ele>421.0</ele><time>2026-05-03T07:52:09.677Z</time></trkpt><trkpt lat="39.8328417" lon="8.8126667"><ele>422.20000000000005</ele><time>2026-05-03T07:52:10.677Z</time></trkpt><trkpt lat="39.8327817" lon="8.8127567"><ele>423.40000000000003</ele><time>2026-05-03T07:52:11.678Z</time></trkpt><trkpt lat="39.8327" lon="8.8128433"><ele>424.6</ele><time>2026-05-03T07:52:12.677Z</time></trkpt><trkpt lat="39.8326033" lon="8.81293"><ele>425.8</ele><time>2026-05-03T07:52:13.678Z</time></trkpt><trkpt lat="39.8325083" lon="8.8130067"><ele>427.0</ele><time>2026-05-03T07:52:14.678Z</time></trkpt><trkpt lat="39.8324217" lon="8.8130767"><ele>427.0</ele><time>2026-05-03T07:52:15.677Z</time></trkpt><trkpt lat="39.83233" lon="8.8131617"><ele>427.0</ele><time>2026-05-03T07:52:16.678Z</time></trkpt><trkpt lat="39.832235" lon="8.8132433"><ele>427.0</ele><time>2026-05-03T07:52:17.677Z</time></trkpt><trkpt lat="39.8321267" lon="8.8133483"><ele>427.0</ele><time>2026-05-03T07:52:18.677Z</time></trkpt><trkpt lat="39.8320117" lon="8.81345"><ele>427.25</ele><time>2026-05-03T07:52:19.678Z</time></trkpt><trkpt lat="39.831885" lon="8.8135433"><ele>427.5</ele><time>2026-05-03T07:52:20.677Z</time></trkpt><trkpt lat="39.831765" lon="8.8136467"><ele>427.75</ele><time>2026-05-03T07:52:21.677Z</time></trkpt><trkpt lat="39.8316417" lon="8.8137583"><ele>428.0</ele><time>2026-05-03T07:52:22.677Z</time></trkpt><trkpt lat="39.8315067" lon="8.81387"><ele>428.3333333333333</ele><time>2026-05-03T07:52:23.677Z</time></trkpt><trkpt lat="39.8313633" lon="8.8139933"><ele>428.66666666666663</ele><time>2026-05-03T07:52:24.677Z</time></trkpt><trkpt lat="39.8312233" lon="8.8141183"><ele>429.0</ele><time>2026-05-03T07:52:25.677Z</time></trkpt><trkpt lat="39.83108" lon="8.81423"><ele>430.0</ele><time>2026-05-03T07:52:26.678Z</time></trkpt><trkpt lat="39.8309283" lon="8.8143383"><ele>431.0</ele><time>2026-05-03T07:52:27.678Z</time></trkpt><trkpt lat="39.8307817" lon="8.8144717"><ele>432.0</ele><time>2026-05-03T07:52:28.677Z</time></trkpt><trkpt lat="39.830625" lon="8.8146033"><ele>432.0</ele><time>2026-05-03T07:52:29.678Z</time></trkpt><trkpt lat="39.8304767" lon="8.8147267"><ele>432.0</ele><time>2026-05-03T07:52:30.678Z</time></trkpt><trkpt lat="39.8303267" lon="8.8148483"><ele>432.0</ele><time>2026-05-03T07:52:31.678Z</time></trkpt><trkpt lat="39.8301767" lon="8.814965"><ele>432.0</ele><time>2026-05-03T07:52:32.677Z</time></trkpt><trkpt lat="39.8300367" lon="8.8150933"><ele>432.0</ele><time>2026-05-03T07:52:33.678Z</time></trkpt><trkpt lat="39.8298883" lon="8.8152133"><ele>432.0</ele><time>2026-05-03T07:52:34.677Z</time></trkpt><trkpt lat="39.8297567" lon="8.8153433"><ele>431.66666666666663</ele><time>2026-05-03T07:52:35.677Z</time></trkpt><trkpt lat="39.82962" lon="8.8154617"><ele>431.3333333333333</ele><time>2026-05-03T07:52:36.677Z</time></trkpt><trkpt lat="39.8294783" lon="8.8155917"><ele>431.0</ele><time>2026-05-03T07:52:37.677Z</time></trkpt><trkpt lat="39.8293333" lon="8.8157167"><ele>431.0</ele><time>2026-05-03T07:52:38.678Z</time></trkpt><trkpt lat="39.8291783" lon="8.8158433"><ele>431.0</ele><time>2026-05-03T07:52:39.678Z</time></trkpt><trkpt lat="39.8290267" lon="8.8159767"><ele>431.0</ele><time>2026-05-03T07:52:40.677Z</time></trkpt><trkpt lat="39.8288667" lon="8.8160983"><ele>431.0</ele><time>2026-05-03T07:52:41.678Z</time></trkpt><trkpt lat="39.8287067" lon="8.8162367"><ele>431.0</ele><time>2026-05-03T07:52:42.678Z</time></trkpt><trkpt lat="39.8285467" lon="8.8163583"><ele>431.0</ele><time>2026-05-03T07:52:43.677Z</time></trkpt><trkpt lat="39.8284" lon="8.8164917"><ele>431.3333333333333</ele><time>2026-05-03T07:52:44.677Z</time></trkpt><trkpt lat="39.8282517" lon="8.8166183"><ele>431.66666666666663</ele><time>2026-05-03T07:52:45.677Z</time></trkpt><trkpt lat="39.8281133" lon="8.816745"><ele>432.0</ele><time>2026-05-03T07:52:46.677Z</time></trkpt><trkpt lat="39.8279733" lon="8.816855"><ele>431.25</ele><time>2026-05-03T07:52:47.677Z</time></trkpt><trkpt lat="39.8278483" lon="8.8169667"><ele>430.5</ele><time>2026-05-03T07:52:48.677Z</time></trkpt><trkpt lat="39.8277267" lon="8.8170617"><ele>429.75</ele><time>2026-05-03T07:52:49.677Z</time></trkpt><trkpt lat="39.8276117" lon="8.817145"><ele>429.0</ele><time>2026-05-03T07:52:50.678Z</time></trkpt><trkpt lat="39.8274933" lon="8.8172483"><ele>428.75</ele><time>2026-05-03T07:52:51.677Z</time></trkpt><trkpt lat="39.8273733" lon="8.817355"><ele>428.5</ele><time>2026-05-03T07:52:52.677Z</time></trkpt><trkpt lat="39.8272667" lon="8.817465"><ele>428.25</ele><time>2026-05-03T07:52:53.678Z</time></trkpt><trkpt lat="39.8271767" lon="8.8175633"><ele>428.0</ele><time>2026-05-03T07:52:54.677Z</time></trkpt><trkpt lat="39.8271117" lon="8.817665"><ele>426.8333333333333</ele><time>2026-05-03T07:52:55.677Z</time></trkpt><trkpt lat="39.82707" lon="8.8177833"><ele>425.66666666666663</ele><time>2026-05-03T07:52:56.677Z</time></trkpt><trkpt lat="39.8270567" lon="8.8178917"><ele>424.5</ele><time>2026-05-03T07:52:57.677Z</time></trkpt><trkpt lat="39.82706" lon="8.8179783"><ele>423.33333333333337</ele><time>2026-05-03T07:52:58.678Z</time></trkpt><trkpt lat="39.8270533" lon="8.818075"><ele>422.1666666666667</ele><time>2026-05-03T07:53:00.677Z</time></trkpt><trkpt lat="39.8269867" lon="8.8181067"><ele>421.0</ele><time>2026-05-03T07:53:02.678Z</time></trkpt><trkpt lat="39.8269067" lon="8.8181717"><ele>421.00000000000006</ele><time>2026-05-03T07:53:04.678Z</time></trkpt><trkpt lat="39.82682" lon="8.8182783"><ele>421.0</ele><time>2026-05-03T07:53:06.678Z</time></trkpt><trkpt lat="39.8267683" lon="8.8183283"><ele>421.0</ele><time>2026-05-03T07:53:07.677Z</time></trkpt><trkpt lat="39.8267067" lon="8.8183817"><ele>421.0</ele><time>2026-05-03T07:53:08.678Z</time></trkpt><trkpt lat="39.82665" lon="8.8184333"><ele>421.00000000000006</ele><time>2026-05-03T07:53:09.677Z</time></trkpt><trkpt lat="39.826635" lon="8.8185783"><ele>421.0</ele><time>2026-05-03T07:53:11.678Z</time></trkpt><trkpt lat="39.8266733" lon="8.8186483"><ele>420.6</ele><time>2026-05-03T07:53:12.677Z</time></trkpt><trkpt lat="39.8267417" lon="8.81873"><ele>420.20000000000005</ele><time>2026-05-03T07:53:13.677Z</time></trkpt><trkpt lat="39.8268317" lon="8.8188317"><ele>419.79999999999995</ele><time>2026-05-03T07:53:14.677Z</time></trkpt><trkpt lat="39.826915" lon="8.8189517"><ele>419.4</ele><time>2026-05-03T07:53:15.678Z</time></trkpt><trkpt lat="39.8269917" lon="8.8190583"><ele>419.0</ele><time>2026-05-03T07:53:16.677Z</time></trkpt><trkpt lat="39.82705" lon="8.8191483"><ele>419.0</ele><time>2026-05-03T07:53:17.678Z</time></trkpt><trkpt lat="39.8271017" lon="8.819235"><ele>419.0</ele><time>2026-05-03T07:53:18.677Z</time></trkpt><trkpt lat="39.8271317" lon="8.8193233"><ele>419.0</ele><time>2026-05-03T07:53:19.678Z</time></trkpt><trkpt lat="39.8271483" lon="8.81946"><ele>419.0</ele><time>2026-05-03T07:53:21.677Z</time></trkpt><trkpt lat="39.82705" lon="8.8196033"><ele>419.0</ele><time>2026-05-03T07:53:23.678Z</time></trkpt><trkpt lat="39.82696" lon="8.8196767"><ele>420.75</ele><time>2026-05-03T07:53:24.678Z</time></trkpt><trkpt lat="39.8268633" lon="8.8197583"><ele>422.5</ele><time>2026-05-03T07:53:25.677Z</time></trkpt><trkpt lat="39.8267583" lon="8.81985"><ele>424.25</ele><time>2026-05-03T07:53:26.678Z</time></trkpt><trkpt lat="39.8266633" lon="8.81996"><ele>426.0</ele><time>2026-05-03T07:53:27.677Z</time></trkpt><trkpt lat="39.8265667" lon="8.8200633"><ele>424.0</ele><time>2026-05-03T07:53:28.677Z</time></trkpt><trkpt lat="39.8264917" lon="8.8201583"><ele>422.0</ele><time>2026-05-03T07:53:29.677Z</time></trkpt><trkpt lat="39.8264183" lon="8.8202483"><ele>420.0</ele><time>2026-05-03T07:53:30.677Z</time></trkpt><trkpt lat="39.8263517" lon="8.820335"><ele>418.0</ele><time>2026-05-03T07:53:31.677Z</time></trkpt><trkpt lat="39.8262717" lon="8.8204267"><ele>416.0</ele><time>2026-05-03T07:53:32.678Z</time></trkpt><trkpt lat="39.8261817" lon="8.8205383"><ele>416.0</ele><time>2026-05-03T07:53:33.677Z</time></trkpt><trkpt lat="39.8260933" lon="8.8206417"><ele>416.0</ele><time>2026-05-03T07:53:34.677Z</time></trkpt><trkpt lat="39.8260083" lon="8.8207633"><ele>416.0</ele><time>2026-05-03T07:53:35.677Z</time></trkpt><trkpt lat="39.82594" lon="8.82089"><ele>416.0</ele><time>2026-05-03T07:53:36.677Z</time></trkpt><trkpt lat="39.825895" lon="8.82104"><ele>418.0</ele><time>2026-05-03T07:53:37.678Z</time></trkpt><trkpt lat="39.8258417" lon="8.8212"><ele>420.0</ele><time>2026-05-03T07:53:38.678Z</time></trkpt><trkpt lat="39.8257917" lon="8.821345"><ele>422.0</ele><time>2026-05-03T07:53:39.678Z</time></trkpt><trkpt lat="39.82573" lon="8.8214717"><ele>424.0</ele><time>2026-05-03T07:53:40.677Z</time></trkpt><trkpt lat="39.8256533" lon="8.82158"><ele>424.0</ele><time>2026-05-03T07:53:41.678Z</time></trkpt><trkpt lat="39.825555" lon="8.8216967"><ele>424.0</ele><time>2026-05-03T07:53:42.678Z</time></trkpt><trkpt lat="39.8254567" lon="8.8218067"><ele>424.0</ele><time>2026-05-03T07:53:43.678Z</time></trkpt><trkpt lat="39.8253633" lon="8.8219117"><ele>424.0</ele><time>2026-05-03T07:53:44.677Z</time></trkpt><trkpt lat="39.8252817" lon="8.8219883"><ele>422.79999999999995</ele><time>2026-05-03T07:53:45.677Z</time></trkpt><trkpt lat="39.8251967" lon="8.8220417"><ele>421.59999999999997</ele><time>2026-05-03T07:53:46.677Z</time></trkpt><trkpt lat="39.8251017" lon="8.8220583"><ele>420.4</ele><time>2026-05-03T07:53:47.677Z</time></trkpt><trkpt lat="39.8249817" lon="8.8220567"><ele>419.2</ele><time>2026-05-03T07:53:48.677Z</time></trkpt><trkpt lat="39.824855" lon="8.822035"><ele>418.0</ele><time>2026-05-03T07:53:49.678Z</time></trkpt><trkpt lat="39.8247433" lon="8.8219883"><ele>418.0</ele><time>2026-05-03T07:53:50.678Z</time></trkpt><trkpt lat="39.824635" lon="8.8219033"><ele>418.0</ele><time>2026-05-03T07:53:51.677Z</time></trkpt><trkpt lat="39.8245333" lon="8.82181"><ele>418.0</ele><time>2026-05-03T07:53:52.678Z</time></trkpt><trkpt lat="39.8244217" lon="8.8216983"><ele>418.0</ele><time>2026-05-03T07:53:53.678Z</time></trkpt><trkpt lat="39.8243217" lon="8.8216283"><ele>421.0</ele><time>2026-05-03T07:53:54.677Z</time></trkpt><trkpt lat="39.82419" lon="8.82157"><ele>424.0</ele><time>2026-05-03T07:53:55.677Z</time></trkpt><trkpt lat="39.824055" lon="8.821515"><ele>427.0</ele><time>2026-05-03T07:53:56.677Z</time></trkpt><trkpt lat="39.8239217" lon="8.821485"><ele>430.0</ele><time>2026-05-03T07:53:57.678Z</time></trkpt><trkpt lat="39.8238" lon="8.82147"><ele>430.0</ele><time>2026-05-03T07:53:58.677Z</time></trkpt><trkpt lat="39.8236883" lon="8.8214717"><ele>430.0</ele><time>2026-05-03T07:53:59.678Z</time></trkpt><trkpt lat="39.8235833" lon="8.8214917"><ele>430.0</ele><time>2026-05-03T07:54:00.677Z</time></trkpt><trkpt lat="39.823475" lon="8.8215517"><ele>430.0</ele><time>2026-05-03T07:54:01.678Z</time></trkpt><trkpt lat="39.8233483" lon="8.821615"><ele>430.25</ele><time>2026-05-03T07:54:02.677Z</time></trkpt><trkpt lat="39.8232283" lon="8.82168"><ele>430.5</ele><time>2026-05-03T07:54:03.677Z</time></trkpt><trkpt lat="39.8231183" lon="8.821715"><ele>430.75</ele><time>2026-05-03T07:54:04.677Z</time></trkpt><trkpt lat="39.8230033" lon="8.8217283"><ele>431.0</ele><time>2026-05-03T07:54:05.677Z</time></trkpt><trkpt lat="39.8228883" lon="8.8217233"><ele>431.0</ele><time>2026-05-03T07:54:06.677Z</time></trkpt><trkpt lat="39.8227583" lon="8.8217167"><ele>431.0</ele><time>2026-05-03T07:54:07.677Z</time></trkpt><trkpt lat="39.822635" lon="8.8216883"><ele>431.0</ele><time>2026-05-03T07:54:08.677Z</time></trkpt><trkpt lat="39.8225167" lon="8.82164"><ele>431.0</ele><time>2026-05-03T07:54:09.678Z</time></trkpt><trkpt lat="39.82239" lon="8.8215867"><ele>430.75</ele><time>2026-05-03T07:54:10.677Z</time></trkpt><trkpt lat="39.8222617" lon="8.8215467"><ele>430.5</ele><time>2026-05-03T07:54:11.677Z</time></trkpt><trkpt lat="39.8221283" lon="8.8215533"><ele>430.25</ele><time>2026-05-03T07:54:12.678Z</time></trkpt><trkpt lat="39.822" lon="8.8215783"><ele>430.0</ele><time>2026-05-03T07:54:13.677Z</time></trkpt><trkpt lat="39.82186" lon="8.8216217"><ele>430.75</ele><time>2026-05-03T07:54:14.677Z</time></trkpt><trkpt lat="39.82174" lon="8.8216733"><ele>431.5</ele><time>2026-05-03T07:54:15.677Z</time></trkpt><trkpt lat="39.8216283" lon="8.8217433"><ele>432.25</ele><time>2026-05-03T07:54:16.678Z</time></trkpt><trkpt lat="39.821525" lon="8.8218083"><ele>433.0</ele><time>2026-05-03T07:54:17.677Z</time></trkpt><trkpt lat="39.8214133" lon="8.82188"><ele>432.0</ele><time>2026-05-03T07:54:18.677Z</time></trkpt><trkpt lat="39.8213067" lon="8.821965"><ele>431.0</ele><time>2026-05-03T07:54:19.678Z</time></trkpt><trkpt lat="39.8211983" lon="8.822045"><ele>430.0</ele><time>2026-05-03T07:54:20.678Z</time></trkpt><trkpt lat="39.821075" lon="8.8221"><ele>429.0</ele><time>2026-05-03T07:54:21.677Z</time></trkpt><trkpt lat="39.8209483" lon="8.822145"><ele>429.0</ele><time>2026-05-03T07:54:22.677Z</time></trkpt><trkpt lat="39.8208167" lon="8.8221883"><ele>429.0</ele><time>2026-05-03T07:54:23.677Z</time></trkpt><trkpt lat="39.8206933" lon="8.82222"><ele>429.0</ele><time>2026-05-03T07:54:24.677Z</time></trkpt><trkpt lat="39.8205767" lon="8.8222633"><ele>429.0</ele><time>2026-05-03T07:54:25.678Z</time></trkpt><trkpt lat="39.820485" lon="8.8223167"><ele>429.0</ele><time>2026-05-03T07:54:26.677Z</time></trkpt><trkpt lat="39.8204" lon="8.8224083"><ele>429.0</ele><time>2026-05-03T07:54:27.677Z</time></trkpt><trkpt lat="39.8203167" lon="8.822525"><ele>429.0</ele><time>2026-05-03T07:54:28.677Z</time></trkpt><trkpt lat="39.820245" lon="8.822645"><ele>429.0</ele><time>2026-05-03T07:54:29.678Z</time></trkpt><trkpt lat="39.82018" lon="8.8227833"><ele>429.2</ele><time>2026-05-03T07:54:30.677Z</time></trkpt><trkpt lat="39.820135" lon="8.8229133"><ele>429.4</ele><time>2026-05-03T07:54:31.677Z</time></trkpt><trkpt lat="39.8200767" lon="8.8230517"><ele>429.6</ele><time>2026-05-03T07:54:32.678Z</time></trkpt><trkpt lat="39.820025" lon="8.8231617"><ele>429.8</ele><time>2026-05-03T07:54:33.678Z</time></trkpt><trkpt lat="39.8199483" lon="8.82324"><ele>430.0</ele><time>2026-05-03T07:54:34.677Z</time></trkpt><trkpt lat="39.8198583" lon="8.8233"><ele>430.00000000000006</ele><time>2026-05-03T07:54:35.677Z</time></trkpt><trkpt lat="39.8197733" lon="8.8233283"><ele>430.0</ele><time>2026-05-03T07:54:36.677Z</time></trkpt><trkpt lat="39.8196967" lon="8.8233433"><ele>430.0</ele><time>2026-05-03T07:54:37.678Z</time></trkpt><trkpt lat="39.819605" lon="8.8233517"><ele>430.0</ele><time>2026-05-03T07:54:38.678Z</time></trkpt><trkpt lat="39.819505" lon="8.8233483"><ele>430.00000000000006</ele><time>2026-05-03T07:54:39.677Z</time></trkpt><trkpt lat="39.8194217" lon="8.8233383"><ele>430.0</ele><time>2026-05-03T07:54:40.678Z</time></trkpt><trkpt lat="39.81935" lon="8.823325"><ele>430.1666666666667</ele><time>2026-05-03T07:54:41.678Z</time></trkpt><trkpt lat="39.8192583" lon="8.8233117"><ele>430.33333333333337</ele><time>2026-05-03T07:54:43.678Z</time></trkpt><trkpt lat="39.8191983" lon="8.8233417"><ele>430.5</ele><time>2026-05-03T07:54:45.677Z</time></trkpt><trkpt lat="39.8191383" lon="8.8233017"><ele>430.66666666666663</ele><time>2026-05-03T07:54:48.677Z</time></trkpt><trkpt lat="39.819035" lon="8.82321"><ele>430.8333333333333</ele><time>2026-05-03T07:54:50.677Z</time></trkpt><trkpt lat="39.8189517" lon="8.8231567"><ele>431.0</ele><time>2026-05-03T07:54:51.677Z</time></trkpt><trkpt lat="39.8188583" lon="8.82311"><ele>431.0</ele><time>2026-05-03T07:54:52.677Z</time></trkpt><trkpt lat="39.81876" lon="8.8230683"><ele>431.0</ele><time>2026-05-03T07:54:53.677Z</time></trkpt><trkpt lat="39.81865" lon="8.8230333"><ele>431.0</ele><time>2026-05-03T07:54:54.677Z</time></trkpt><trkpt lat="39.8185467" lon="8.8229917"><ele>431.0</ele><time>2026-05-03T07:54:55.678Z</time></trkpt><trkpt lat="39.8184433" lon="8.8229417"><ele>431.0</ele><time>2026-05-03T07:54:56.677Z</time></trkpt><trkpt lat="39.8183333" lon="8.8228867"><ele>431.75</ele><time>2026-05-03T07:54:57.678Z</time></trkpt><trkpt lat="39.8182183" lon="8.8228217"><ele>432.5</ele><time>2026-05-03T07:54:58.677Z</time></trkpt><trkpt lat="39.8181033" lon="8.8227717"><ele>433.25</ele><time>2026-05-03T07:54:59.677Z</time></trkpt><trkpt lat="39.818" lon="8.8227033"><ele>434.0</ele><time>2026-05-03T07:55:00.677Z</time></trkpt><trkpt lat="39.8179083" lon="8.82264"><ele>434.0</ele><time>2026-05-03T07:55:01.677Z</time></trkpt><trkpt lat="39.8178267" lon="8.822565"><ele>434.0</ele><time>2026-05-03T07:55:02.678Z</time></trkpt><trkpt lat="39.817765" lon="8.822485"><ele>434.0</ele><time>2026-05-03T07:55:03.677Z</time></trkpt><trkpt lat="39.817685" lon="8.822395"><ele>434.0</ele><time>2026-05-03T07:55:04.677Z</time></trkpt><trkpt lat="39.8175917" lon="8.8222967"><ele>434.0</ele><time>2026-05-03T07:55:05.677Z</time></trkpt><trkpt lat="39.8175017" lon="8.8222"><ele>433.75</ele><time>2026-05-03T07:55:06.677Z</time></trkpt><trkpt lat="39.8174217" lon="8.8220833"><ele>433.5</ele><time>2026-05-03T07:55:07.678Z</time></trkpt><trkpt lat="39.817355" lon="8.8219533"><ele>433.25</ele><time>2026-05-03T07:55:08.677Z</time></trkpt><trkpt lat="39.817295" lon="8.8217967"><ele>433.0</ele><time>2026-05-03T07:55:09.677Z</time></trkpt><trkpt lat="39.817245" lon="8.82162"><ele>433.0</ele><time>2026-05-03T07:55:10.677Z</time></trkpt><trkpt lat="39.8172017" lon="8.8214333"><ele>433.0</ele><time>2026-05-03T07:55:11.677Z</time></trkpt><trkpt lat="39.817155" lon="8.8212333"><ele>433.0</ele><time>2026-05-03T07:55:12.677Z</time></trkpt><trkpt lat="39.8171083" lon="8.8210367"><ele>433.0</ele><time>2026-05-03T07:55:13.677Z</time></trkpt><trkpt lat="39.81707" lon="8.8208583"><ele>433.0</ele><time>2026-05-03T07:55:14.678Z</time></trkpt><trkpt lat="39.8170217" lon="8.820695"><ele>433.0</ele><time>2026-05-03T07:55:15.677Z</time></trkpt><trkpt lat="39.81699" lon="8.8205467"><ele>433.0</ele><time>2026-05-03T07:55:16.677Z</time></trkpt><trkpt lat="39.81696" lon="8.8203967"><ele>433.0</ele><time>2026-05-03T07:55:17.678Z</time></trkpt><trkpt lat="39.816925" lon="8.820255"><ele>432.99999999999994</ele><time>2026-05-03T07:55:18.677Z</time></trkpt><trkpt lat="39.8168883" lon="8.8201267"><ele>432.99999999999994</ele><time>2026-05-03T07:55:19.677Z</time></trkpt><trkpt lat="39.81686" lon="8.82"><ele>433.0</ele><time>2026-05-03T07:55:20.677Z</time></trkpt><trkpt lat="39.8168267" lon="8.819855"><ele>433.0</ele><time>2026-05-03T07:55:21.677Z</time></trkpt><trkpt lat="39.8167917" lon="8.8197183"><ele>432.5</ele><time>2026-05-03T07:55:22.677Z</time></trkpt><trkpt lat="39.8167583" lon="8.819585"><ele>432.0</ele><time>2026-05-03T07:55:23.677Z</time></trkpt><trkpt lat="39.8167367" lon="8.8194433"><ele>431.5</ele><time>2026-05-03T07:55:24.677Z</time></trkpt><trkpt lat="39.816715" lon="8.8193067"><ele>431.0</ele><time>2026-05-03T07:55:25.677Z</time></trkpt><trkpt lat="39.8166933" lon="8.8191433"><ele>430.6</ele><time>2026-05-03T07:55:26.677Z</time></trkpt><trkpt lat="39.8166767" lon="8.818995"><ele>430.20000000000005</ele><time>2026-05-03T07:55:27.678Z</time></trkpt><trkpt lat="39.81666" lon="8.8188767"><ele>429.79999999999995</ele><time>2026-05-03T07:55:28.677Z</time></trkpt><trkpt lat="39.8166517" lon="8.8187533"><ele>429.4</ele><time>2026-05-03T07:55:29.677Z</time></trkpt><trkpt lat="39.8166517" lon="8.8186317"><ele>429.0</ele><time>2026-05-03T07:55:30.677Z</time></trkpt><trkpt lat="39.816675" lon="8.8185217"><ele>428.2</ele><time>2026-05-03T07:55:31.677Z</time></trkpt><trkpt lat="39.8167233" lon="8.8184067"><ele>427.4</ele><time>2026-05-03T07:55:32.677Z</time></trkpt><trkpt lat="39.8167983" lon="8.8182967"><ele>426.6</ele><time>2026-05-03T07:55:33.678Z</time></trkpt><trkpt lat="39.8168717" lon="8.818185"><ele>425.8</ele><time>2026-05-03T07:55:34.677Z</time></trkpt><trkpt lat="39.81692" lon="8.81806"><ele>425.0</ele><time>2026-05-03T07:55:35.677Z</time></trkpt><trkpt lat="39.8169367" lon="8.8179267"><ele>426.6</ele><time>2026-05-03T07:55:36.678Z</time></trkpt><trkpt lat="39.81695" lon="8.8178033"><ele>428.2</ele><time>2026-05-03T07:55:37.677Z</time></trkpt><trkpt lat="39.816965" lon="8.8176717"><ele>429.79999999999995</ele><time>2026-05-03T07:55:38.677Z</time></trkpt><trkpt lat="39.8169717" lon="8.81753"><ele>431.4</ele><time>2026-05-03T07:55:39.678Z</time></trkpt><trkpt lat="39.81697" lon="8.8173883"><ele>433.0</ele><time>2026-05-03T07:55:40.677Z</time></trkpt><trkpt lat="39.8169817" lon="8.8172517"><ele>433.0</ele><time>2026-05-03T07:55:41.677Z</time></trkpt><trkpt lat="39.8169967" lon="8.8171067"><ele>433.0</ele><time>2026-05-03T07:55:42.677Z</time></trkpt><trkpt lat="39.817025" lon="8.8169467"><ele>433.0</ele><time>2026-05-03T07:55:43.678Z</time></trkpt><trkpt lat="39.8170483" lon="8.8167867"><ele>433.0</ele><time>2026-05-03T07:55:44.677Z</time></trkpt><trkpt lat="39.8170767" lon="8.8166233"><ele>432.75</ele><time>2026-05-03T07:55:45.677Z</time></trkpt><trkpt lat="39.8170933" lon="8.816455"><ele>432.5</ele><time>2026-05-03T07:55:46.677Z</time></trkpt><trkpt lat="39.8171117" lon="8.8162917"><ele>432.25</ele><time>2026-05-03T07:55:47.678Z</time></trkpt><trkpt lat="39.8171267" lon="8.8161233"><ele>432.0</ele><time>2026-05-03T07:55:48.678Z</time></trkpt><trkpt lat="39.8171367" lon="8.8159517"><ele>432.0</ele><time>2026-05-03T07:55:49.677Z</time></trkpt><trkpt lat="39.81713" lon="8.81579"><ele>432.0</ele><time>2026-05-03T07:55:50.678Z</time></trkpt><trkpt lat="39.8171183" lon="8.8156133"><ele>432.0</ele><time>2026-05-03T07:55:51.677Z</time></trkpt><trkpt lat="39.8171133" lon="8.8154467"><ele>432.0</ele><time>2026-05-03T07:55:52.677Z</time></trkpt><trkpt lat="39.8171083" lon="8.815285"><ele>432.0</ele><time>2026-05-03T07:55:53.677Z</time></trkpt><trkpt lat="39.8171133" lon="8.81511"><ele>432.0</ele><time>2026-05-03T07:55:54.678Z</time></trkpt><trkpt lat="39.8171167" lon="8.8149467"><ele>432.0</ele><time>2026-05-03T07:55:55.678Z</time></trkpt><trkpt lat="39.8171317" lon="8.8147733"><ele>432.0</ele><time>2026-05-03T07:55:56.677Z</time></trkpt><trkpt lat="39.8171533" lon="8.8145933"><ele>432.0</ele><time>2026-05-03T07:55:57.678Z</time></trkpt><trkpt lat="39.8171633" lon="8.8144067"><ele>432.0</ele><time>2026-05-03T07:55:58.678Z</time></trkpt><trkpt lat="39.8171817" lon="8.8142117"><ele>432.0</ele><time>2026-05-03T07:55:59.677Z</time></trkpt><trkpt lat="39.817195" lon="8.8140117"><ele>432.0</ele><time>2026-05-03T07:56:00.678Z</time></trkpt><trkpt lat="39.8172033" lon="8.8138117"><ele>431.5</ele><time>2026-05-03T07:56:01.677Z</time></trkpt><trkpt lat="39.8172083" lon="8.8136183"><ele>431.0</ele><time>2026-05-03T07:56:02.677Z</time></trkpt><trkpt lat="39.8172133" lon="8.8134333"><ele>430.5</ele><time>2026-05-03T07:56:03.677Z</time></trkpt><trkpt lat="39.81723" lon="8.8132483"><ele>430.0</ele><time>2026-05-03T07:56:04.678Z</time></trkpt><trkpt lat="39.817235" lon="8.81306"><ele>430.0</ele><time>2026-05-03T07:56:05.677Z</time></trkpt><trkpt lat="39.8172417" lon="8.8128617"><ele>430.0</ele><time>2026-05-03T07:56:06.678Z</time></trkpt><trkpt lat="39.8172417" lon="8.8126717"><ele>430.0</ele><time>2026-05-03T07:56:07.678Z</time></trkpt><trkpt lat="39.81724" lon="8.8124767"><ele>430.0</ele><time>2026-05-03T07:56:08.677Z</time></trkpt><trkpt lat="39.817245" lon="8.8122833"><ele>430.0</ele><time>2026-05-03T07:56:09.678Z</time></trkpt><trkpt lat="39.8172533" lon="8.8120883"><ele>430.0</ele><time>2026-05-03T07:56:10.678Z</time></trkpt><trkpt lat="39.8172583" lon="8.8119"><ele>430.0</ele><time>2026-05-03T07:56:11.677Z</time></trkpt><trkpt lat="39.817265" lon="8.81171"><ele>430.0</ele><time>2026-05-03T07:56:12.678Z</time></trkpt><trkpt lat="39.8172717" lon="8.8115233"><ele>430.0</ele><time>2026-05-03T07:56:13.678Z</time></trkpt><trkpt lat="39.8172767" lon="8.8113317"><ele>430.0</ele><time>2026-05-03T07:56:14.677Z</time></trkpt><trkpt lat="39.817295" lon="8.81115"><ele>430.0</ele><time>2026-05-03T07:56:15.677Z</time></trkpt><trkpt lat="39.817315" lon="8.81097"><ele>430.0</ele><time>2026-05-03T07:56:16.677Z</time></trkpt><trkpt lat="39.8173367" lon="8.8107783"><ele>430.5</ele><time>2026-05-03T07:56:17.678Z</time></trkpt><trkpt lat="39.8173417" lon="8.8106033"><ele>431.0</ele><time>2026-05-03T07:56:18.677Z</time></trkpt><trkpt lat="39.8173633" lon="8.8104183"><ele>431.5</ele><time>2026-05-03T07:56:19.677Z</time></trkpt><trkpt lat="39.8173933" lon="8.8102667"><ele>432.0</ele><time>2026-05-03T07:56:20.678Z</time></trkpt><trkpt lat="39.8174267" lon="8.8101283"><ele>432.20000000000005</ele><time>2026-05-03T07:56:21.678Z</time></trkpt><trkpt lat="39.8174683" lon="8.8099917"><ele>432.40000000000003</ele><time>2026-05-03T07:56:22.677Z</time></trkpt><trkpt lat="39.8174917" lon="8.8098317"><ele>432.59999999999997</ele><time>2026-05-03T07:56:23.677Z</time></trkpt><trkpt lat="39.8175133" lon="8.8096917"><ele>432.79999999999995</ele><time>2026-05-03T07:56:24.677Z</time></trkpt><trkpt lat="39.8175167" lon="8.8095817"><ele>433.0</ele><time>2026-05-03T07:56:25.677Z</time></trkpt><trkpt lat="39.8175117" lon="8.80948"><ele>433.0</ele><time>2026-05-03T07:56:26.678Z</time></trkpt><trkpt lat="39.8174783" lon="8.8093867"><ele>432.99999999999994</ele><time>2026-05-03T07:56:27.677Z</time></trkpt><trkpt lat="39.8174133" lon="8.809305"><ele>432.99999999999994</ele><time>2026-05-03T07:56:28.677Z</time></trkpt><trkpt lat="39.8173333" lon="8.8092167"><ele>433.0</ele><time>2026-05-03T07:56:29.677Z</time></trkpt><trkpt lat="39.8172633" lon="8.8091283"><ele>433.0</ele><time>2026-05-03T07:56:30.678Z</time></trkpt><trkpt lat="39.8172217" lon="8.8090333"><ele>433.0</ele><time>2026-05-03T07:56:31.678Z</time></trkpt><trkpt lat="39.8171817" lon="8.80891"><ele>433.0</ele><time>2026-05-03T07:56:32.677Z</time></trkpt><trkpt lat="39.81717" lon="8.8087783"><ele>433.0</ele><time>2026-05-03T07:56:33.677Z</time></trkpt><trkpt lat="39.8171817" lon="8.808615"><ele>433.0</ele><time>2026-05-03T07:56:34.678Z</time></trkpt><trkpt lat="39.8171933" lon="8.8084533"><ele>433.0</ele><time>2026-05-03T07:56:35.677Z</time></trkpt><trkpt lat="39.8172117" lon="8.8082833"><ele>433.0</ele><time>2026-05-03T07:56:36.677Z</time></trkpt><trkpt lat="39.817235" lon="8.8081083"><ele>433.0</ele><time>2026-05-03T07:56:37.677Z</time></trkpt><trkpt lat="39.817255" lon="8.8079217"><ele>433.0</ele><time>2026-05-03T07:56:38.677Z</time></trkpt><trkpt lat="39.8172733" lon="8.8077317"><ele>434.0</ele><time>2026-05-03T07:56:39.677Z</time></trkpt><trkpt lat="39.8172883" lon="8.8075267"><ele>435.0</ele><time>2026-05-03T07:56:40.678Z</time></trkpt><trkpt lat="39.8173117" lon="8.8073167"><ele>436.0</ele><time>2026-05-03T07:56:41.678Z</time></trkpt><trkpt lat="39.817325" lon="8.8071283"><ele>436.0</ele><time>2026-05-03T07:56:42.678Z</time></trkpt><trkpt lat="39.8173333" lon="8.80694"><ele>436.0</ele><time>2026-05-03T07:56:43.677Z</time></trkpt><trkpt lat="39.8173367" lon="8.8067717"><ele>436.0</ele><time>2026-05-03T07:56:44.677Z</time></trkpt><trkpt lat="39.817325" lon="8.80661"><ele>436.0</ele><time>2026-05-03T07:56:45.677Z</time></trkpt><trkpt lat="39.8172967" lon="8.8064467"><ele>438.0</ele><time>2026-05-03T07:56:46.677Z</time></trkpt><trkpt lat="39.8172533" lon="8.8062917"><ele>440.0</ele><time>2026-05-03T07:56:47.678Z</time></trkpt><trkpt lat="39.8172133" lon="8.8061333"><ele>442.0</ele><time>2026-05-03T07:56:48.678Z</time></trkpt><trkpt lat="39.8171717" lon="8.805985"><ele>444.0</ele><time>2026-05-03T07:56:49.678Z</time></trkpt><trkpt lat="39.8171433" lon="8.8058083"><ele>447.0</ele><time>2026-05-03T07:56:50.677Z</time></trkpt><trkpt lat="39.8171333" lon="8.8056217"><ele>450.0</ele><time>2026-05-03T07:56:51.678Z</time></trkpt><trkpt lat="39.8171317" lon="8.80542"><ele>453.0</ele><time>2026-05-03T07:56:52.677Z</time></trkpt><trkpt lat="39.8171433" lon="8.80522"><ele>454.25</ele><time>2026-05-03T07:56:53.678Z</time></trkpt><trkpt lat="39.8171548" lon="8.8050478"><ele>455.5</ele><time>2026-05-03T07:56:54.677Z</time></trkpt><trkpt lat="39.8171671" lon="8.804883"><ele>456.75</ele><time>2026-05-03T07:56:55.678Z</time></trkpt><trkpt lat="39.817188" lon="8.8047137"><ele>458.0</ele><time>2026-05-03T07:56:56.678Z</time></trkpt><trkpt lat="39.8172196" lon="8.8045465"><ele>458.0</ele><time>2026-05-03T07:56:57.677Z</time></trkpt><trkpt lat="39.817254" lon="8.8043766"><ele>458.0</ele><time>2026-05-03T07:56:58.677Z</time></trkpt><trkpt lat="39.8172943" lon="8.8042184"><ele>458.0</ele><time>2026-05-03T07:56:59.677Z</time></trkpt><trkpt lat="39.8173314" lon="8.8040626"><ele>458.0</ele><time>2026-05-03T07:57:00.677Z</time></trkpt><trkpt lat="39.8173726" lon="8.803906"><ele>458.5</ele><time>2026-05-03T07:57:01.677Z</time></trkpt><trkpt lat="39.8174144" lon="8.803748"><ele>459.0</ele><time>2026-05-03T07:57:02.677Z</time></trkpt><trkpt lat="39.8174657" lon="8.8035792"><ele>459.5</ele><time>2026-05-03T07:57:03.677Z</time></trkpt><trkpt lat="39.8175239" lon="8.8034038"><ele>460.0</ele><time>2026-05-03T07:57:04.677Z</time></trkpt><trkpt lat="39.81758" lon="8.8032438"><ele>460.2</ele><time>2026-05-03T07:57:05.678Z</time></trkpt><trkpt lat="39.8176194" lon="8.8031016"><ele>460.4</ele><time>2026-05-03T07:57:06.677Z</time></trkpt><trkpt lat="39.8176395" lon="8.8029789"><ele>460.6</ele><time>2026-05-03T07:57:07.677Z</time></trkpt><trkpt lat="39.8176376" lon="8.8028537"><ele>460.8</ele><time>2026-05-03T07:57:08.678Z</time></trkpt><trkpt lat="39.8176239" lon="8.8027174"><ele>461.0</ele><time>2026-05-03T07:57:09.677Z</time></trkpt><trkpt lat="39.8176176" lon="8.8025661"><ele>461.0</ele><time>2026-05-03T07:57:10.677Z</time></trkpt><trkpt lat="39.8176222" lon="8.802405"><ele>461.0</ele><time>2026-05-03T07:57:11.678Z</time></trkpt><trkpt lat="39.8176373" lon="8.8022448"><ele>461.0</ele><time>2026-05-03T07:57:12.677Z</time></trkpt><trkpt lat="39.817661" lon="8.8020877"><ele>461.0</ele><time>2026-05-03T07:57:13.677Z</time></trkpt><trkpt lat="39.817692" lon="8.8019295"><ele>463.0</ele><time>2026-05-03T07:57:14.677Z</time></trkpt><trkpt lat="39.8177175" lon="8.8017654"><ele>465.0</ele><time>2026-05-03T07:57:15.677Z</time></trkpt><trkpt lat="39.8177305" lon="8.8015935"><ele>467.0</ele><time>2026-05-03T07:57:16.677Z</time></trkpt><trkpt lat="39.8177378" lon="8.8014131"><ele>469.0</ele><time>2026-05-03T07:57:17.677Z</time></trkpt><trkpt lat="39.8177508" lon="8.8012284"><ele>469.0</ele><time>2026-05-03T07:57:18.678Z</time></trkpt><trkpt lat="39.8177621" lon="8.8010525"><ele>469.0</ele><time>2026-05-03T07:57:19.677Z</time></trkpt><trkpt lat="39.8177531" lon="8.8009019"><ele>469.0</ele><time>2026-05-03T07:57:20.678Z</time></trkpt><trkpt lat="39.8177252" lon="8.8007536"><ele>469.0</ele><time>2026-05-03T07:57:21.677Z</time></trkpt><trkpt lat="39.8176892" lon="8.8006049"><ele>469.25</ele><time>2026-05-03T07:57:22.677Z</time></trkpt><trkpt lat="39.8176551" lon="8.8004534"><ele>469.5</ele><time>2026-05-03T07:57:23.678Z</time></trkpt><trkpt lat="39.8176358" lon="8.8002895"><ele>469.75</ele><time>2026-05-03T07:57:24.677Z</time></trkpt><trkpt lat="39.8176347" lon="8.8001186"><ele>470.0</ele><time>2026-05-03T07:57:25.678Z</time></trkpt><trkpt lat="39.8176458" lon="8.799948"><ele>470.75</ele><time>2026-05-03T07:57:26.677Z</time></trkpt><trkpt lat="39.817665" lon="8.7997617"><ele>471.5</ele><time>2026-05-03T07:57:27.677Z</time></trkpt><trkpt lat="39.817665" lon="8.799605"><ele>472.25</ele><time>2026-05-03T07:57:28.678Z</time></trkpt><trkpt lat="39.81766" lon="8.7994467"><ele>473.0</ele><time>2026-05-03T07:57:29.678Z</time></trkpt><trkpt lat="39.8176517" lon="8.7992917"><ele>469.75</ele><time>2026-05-03T07:57:30.677Z</time></trkpt><trkpt lat="39.8176517" lon="8.7991383"><ele>466.5</ele><time>2026-05-03T07:57:31.677Z</time></trkpt><trkpt lat="39.8176483" lon="8.7989917"><ele>463.25</ele><time>2026-05-03T07:57:32.677Z</time></trkpt><trkpt lat="39.8176333" lon="8.798835"><ele>460.0</ele><time>2026-05-03T07:57:33.678Z</time></trkpt><trkpt lat="39.8176" lon="8.798695"><ele>460.0</ele><time>2026-05-03T07:57:34.678Z</time></trkpt><trkpt lat="39.817555" lon="8.7985483"><ele>460.0</ele><time>2026-05-03T07:57:35.677Z</time></trkpt><trkpt lat="39.8174983" lon="8.7984017"><ele>460.0</ele><time>2026-05-03T07:57:36.677Z</time></trkpt><trkpt lat="39.81743" lon="8.7982583"><ele>460.0</ele><time>2026-05-03T07:57:37.677Z</time></trkpt><trkpt lat="39.8173633" lon="8.79812"><ele>462.75</ele><time>2026-05-03T07:57:38.677Z</time></trkpt><trkpt lat="39.817305" lon="8.7979833"><ele>465.5</ele><time>2026-05-03T07:57:39.677Z</time></trkpt><trkpt lat="39.8172383" lon="8.79786"><ele>468.25</ele><time>2026-05-03T07:57:40.677Z</time></trkpt><trkpt lat="39.8171783" lon="8.7977217"><ele>471.0</ele><time>2026-05-03T07:57:41.678Z</time></trkpt><trkpt lat="39.81713" lon="8.7975633"><ele>472.5</ele><time>2026-05-03T07:57:42.677Z</time></trkpt><trkpt lat="39.8170883" lon="8.7974017"><ele>474.0</ele><time>2026-05-03T07:57:43.678Z</time></trkpt><trkpt lat="39.8170617" lon="8.7972367"><ele>475.5</ele><time>2026-05-03T07:57:44.677Z</time></trkpt><trkpt lat="39.8170367" lon="8.7970783"><ele>477.0</ele><time>2026-05-03T07:57:45.677Z</time></trkpt><trkpt lat="39.8170117" lon="8.796925"><ele>477.75</ele><time>2026-05-03T07:57:46.677Z</time></trkpt><trkpt lat="39.8169933" lon="8.7967617"><ele>478.5</ele><time>2026-05-03T07:57:47.678Z</time></trkpt><trkpt lat="39.81699" lon="8.7965933"><ele>479.25</ele><time>2026-05-03T07:57:48.678Z</time></trkpt><trkpt lat="39.8169883" lon="8.7964317"><ele>480.0</ele><time>2026-05-03T07:57:49.678Z</time></trkpt><trkpt lat="39.816985" lon="8.7962667"><ele>480.0</ele><time>2026-05-03T07:57:50.678Z</time></trkpt><trkpt lat="39.8169833" lon="8.7960933"><ele>480.0</ele><time>2026-05-03T07:57:51.678Z</time></trkpt><trkpt lat="39.816975" lon="8.7959483"><ele>480.0</ele><time>2026-05-03T07:57:52.677Z</time></trkpt><trkpt lat="39.8169533" lon="8.7958067"><ele>480.0</ele><time>2026-05-03T07:57:53.677Z</time></trkpt><trkpt lat="39.8169133" lon="8.7956933"><ele>480.6</ele><time>2026-05-03T07:57:54.678Z</time></trkpt><trkpt lat="39.8168667" lon="8.7956083"><ele>481.2</ele><time>2026-05-03T07:57:55.677Z</time></trkpt><trkpt lat="39.8168283" lon="8.79548"><ele>481.79999999999995</ele><time>2026-05-03T07:57:57.677Z</time></trkpt><trkpt lat="39.8168783" lon="8.7954017"><ele>482.4</ele><time>2026-05-03T07:57:59.677Z</time></trkpt><trkpt lat="39.817005" lon="8.7953933"><ele>483.0</ele><time>2026-05-03T07:58:01.678Z</time></trkpt><trkpt lat="39.8171017" lon="8.7953867"><ele>483.0</ele><time>2026-05-03T07:58:02.678Z</time></trkpt><trkpt lat="39.81721" lon="8.79538"><ele>482.99999999999994</ele><time>2026-05-03T07:58:03.677Z</time></trkpt><trkpt lat="39.8173167" lon="8.7953667"><ele>482.99999999999994</ele><time>2026-05-03T07:58:04.677Z</time></trkpt><trkpt lat="39.81742" lon="8.79535"><ele>483.0</ele><time>2026-05-03T07:58:05.678Z</time></trkpt><trkpt lat="39.81752" lon="8.7953383"><ele>483.0</ele><time>2026-05-03T07:58:06.677Z</time></trkpt><trkpt lat="39.81762" lon="8.7953133"><ele>483.79999999999995</ele><time>2026-05-03T07:58:07.677Z</time></trkpt><trkpt lat="39.8177217" lon="8.7953"><ele>484.59999999999997</ele><time>2026-05-03T07:58:08.677Z</time></trkpt><trkpt lat="39.817825" lon="8.795285"><ele>485.40000000000003</ele><time>2026-05-03T07:58:09.677Z</time></trkpt><trkpt lat="39.817925" lon="8.7952667"><ele>486.20000000000005</ele><time>2026-05-03T07:58:10.678Z</time></trkpt><trkpt lat="39.8180317" lon="8.7952517"><ele>487.0</ele><time>2026-05-03T07:58:11.677Z</time></trkpt><trkpt lat="39.81814" lon="8.7952433"><ele>487.0</ele><time>2026-05-03T07:58:12.677Z</time></trkpt><trkpt lat="39.8182467" lon="8.79523"><ele>487.00000000000006</ele><time>2026-05-03T07:58:13.677Z</time></trkpt><trkpt lat="39.818345" lon="8.7952133"><ele>487.00000000000006</ele><time>2026-05-03T07:58:14.677Z</time></trkpt><trkpt lat="39.818435" lon="8.795205"><ele>487.0</ele><time>2026-05-03T07:58:15.677Z</time></trkpt><trkpt lat="39.8185183" lon="8.7951933"><ele>487.0</ele><time>2026-05-03T07:58:16.677Z</time></trkpt><trkpt lat="39.8185967" lon="8.795185"><ele>488.0</ele><time>2026-05-03T07:58:17.678Z</time></trkpt><trkpt lat="39.818685" lon="8.7951667"><ele>489.00000000000006</ele><time>2026-05-03T07:58:18.678Z</time></trkpt><trkpt lat="39.818785" lon="8.7951483"><ele>490.00000000000006</ele><time>2026-05-03T07:58:19.677Z</time></trkpt><trkpt lat="39.818895" lon="8.7951383"><ele>491.0</ele><time>2026-05-03T07:58:20.677Z</time></trkpt><trkpt lat="39.8190183" lon="8.7951167"><ele>492.0</ele><time>2026-05-03T07:58:21.677Z</time></trkpt><trkpt lat="39.8191333" lon="8.7951067"><ele>492.0</ele><time>2026-05-03T07:58:22.677Z</time></trkpt><trkpt lat="39.8192417" lon="8.7950917"><ele>492.00000000000006</ele><time>2026-05-03T07:58:23.677Z</time></trkpt><trkpt lat="39.819345" lon="8.79508"><ele>492.00000000000006</ele><time>2026-05-03T07:58:24.678Z</time></trkpt><trkpt lat="39.81945" lon="8.7950617"><ele>492.0</ele><time>2026-05-03T07:58:25.677Z</time></trkpt><trkpt lat="39.8195633" lon="8.7950417"><ele>492.0</ele><time>2026-05-03T07:58:26.677Z</time></trkpt><trkpt lat="39.81969" lon="8.79502"><ele>492.25</ele><time>2026-05-03T07:58:27.678Z</time></trkpt><trkpt lat="39.8198233" lon="8.7949967"><ele>492.5</ele><time>2026-05-03T07:58:28.678Z</time></trkpt><trkpt lat="39.8199467" lon="8.79498"><ele>492.75</ele><time>2026-05-03T07:58:29.678Z</time></trkpt><trkpt lat="39.8200717" lon="8.7949583"><ele>493.0</ele><time>2026-05-03T07:58:30.677Z</time></trkpt><trkpt lat="39.8202" lon="8.7949383"><ele>493.0</ele><time>2026-05-03T07:58:31.678Z</time></trkpt><trkpt lat="39.820325" lon="8.7949233"><ele>493.0</ele><time>2026-05-03T07:58:32.678Z</time></trkpt><trkpt lat="39.8204467" lon="8.7949117"><ele>493.0</ele><time>2026-05-03T07:58:33.678Z</time></trkpt><trkpt lat="39.8205667" lon="8.794905"><ele>493.0</ele><time>2026-05-03T07:58:34.677Z</time></trkpt><trkpt lat="39.82069" lon="8.7948917"><ele>493.0</ele><time>2026-05-03T07:58:35.678Z</time></trkpt><trkpt lat="39.8208117" lon="8.7948767"><ele>493.0</ele><time>2026-05-03T07:58:36.677Z</time></trkpt><trkpt lat="39.8209333" lon="8.7948683"><ele>493.0</ele><time>2026-05-03T07:58:37.677Z</time></trkpt><trkpt lat="39.82106" lon="8.7948633"><ele>493.0</ele><time>2026-05-03T07:58:38.678Z</time></trkpt><trkpt lat="39.821205" lon="8.7948517"><ele>491.75</ele><time>2026-05-03T07:58:39.677Z</time></trkpt><trkpt lat="39.8213483" lon="8.7948383"><ele>490.5</ele><time>2026-05-03T07:58:40.678Z</time></trkpt><trkpt lat="39.8214783" lon="8.7948167"><ele>489.25</ele><time>2026-05-03T07:58:41.677Z</time></trkpt><trkpt lat="39.821605" lon="8.79481"><ele>488.0</ele><time>2026-05-03T07:58:42.677Z</time></trkpt><trkpt lat="39.8217117" lon="8.794805"><ele>486.5</ele><time>2026-05-03T07:58:43.678Z</time></trkpt><trkpt lat="39.82182" lon="8.7947933"><ele>485.0</ele><time>2026-05-03T07:58:44.677Z</time></trkpt><trkpt lat="39.8219333" lon="8.794775"><ele>483.5</ele><time>2026-05-03T07:58:45.677Z</time></trkpt><trkpt lat="39.8220633" lon="8.7947617"><ele>482.0</ele><time>2026-05-03T07:58:46.677Z</time></trkpt><trkpt lat="39.8222" lon="8.7947517"><ele>482.0</ele><time>2026-05-03T07:58:47.678Z</time></trkpt><trkpt lat="39.8223383" lon="8.794745"><ele>482.0</ele><time>2026-05-03T07:58:48.678Z</time></trkpt><trkpt lat="39.82247" lon="8.7947333"><ele>482.0</ele><time>2026-05-03T07:58:49.677Z</time></trkpt><trkpt lat="39.8226017" lon="8.79472"><ele>482.0</ele><time>2026-05-03T07:58:50.678Z</time></trkpt><trkpt lat="39.8227367" lon="8.7947067"><ele>480.5</ele><time>2026-05-03T07:58:51.678Z</time></trkpt><trkpt lat="39.8228617" lon="8.79469"><ele>479.0</ele><time>2026-05-03T07:58:52.677Z</time></trkpt><trkpt lat="39.82298" lon="8.7946633"><ele>477.5</ele><time>2026-05-03T07:58:53.678Z</time></trkpt><trkpt lat="39.823095" lon="8.794645"><ele>476.0</ele><time>2026-05-03T07:58:54.677Z</time></trkpt><trkpt lat="39.8232083" lon="8.7946267"><ele>476.0</ele><time>2026-05-03T07:58:55.677Z</time></trkpt><trkpt lat="39.8233183" lon="8.7946117"><ele>476.0</ele><time>2026-05-03T07:58:56.678Z</time></trkpt><trkpt lat="39.823415" lon="8.7945933"><ele>476.0</ele><time>2026-05-03T07:58:57.678Z</time></trkpt><trkpt lat="39.82351" lon="8.79458"><ele>476.0</ele><time>2026-05-03T07:58:58.677Z</time></trkpt><trkpt lat="39.8236083" lon="8.7945583"><ele>476.0</ele><time>2026-05-03T07:58:59.677Z</time></trkpt><trkpt lat="39.823715" lon="8.7945367"><ele>474.6</ele><time>2026-05-03T07:59:00.678Z</time></trkpt><trkpt lat="39.8238217" lon="8.79452"><ele>473.20000000000005</ele><time>2026-05-03T07:59:01.677Z</time></trkpt><trkpt lat="39.8239233" lon="8.7944983"><ele>471.79999999999995</ele><time>2026-05-03T07:59:02.677Z</time></trkpt><trkpt lat="39.82402" lon="8.7944767"><ele>470.4</ele><time>2026-05-03T07:59:03.677Z</time></trkpt><trkpt lat="39.8241233" lon="8.7944617"><ele>469.0</ele><time>2026-05-03T07:59:04.678Z</time></trkpt><trkpt lat="39.824225" lon="8.794455"><ele>467.79999999999995</ele><time>2026-05-03T07:59:05.677Z</time></trkpt><trkpt lat="39.824325" lon="8.7944383"><ele>466.59999999999997</ele><time>2026-05-03T07:59:06.678Z</time></trkpt><trkpt lat="39.8244217" lon="8.7944217"><ele>465.4</ele><time>2026-05-03T07:59:07.677Z</time></trkpt><trkpt lat="39.8245067" lon="8.7944167"><ele>464.2</ele><time>2026-05-03T07:59:08.677Z</time></trkpt><trkpt lat="39.8245933" lon="8.794405"><ele>463.0</ele><time>2026-05-03T07:59:09.677Z</time></trkpt><trkpt lat="39.824685" lon="8.7943967"><ele>463.00000000000006</ele><time>2026-05-03T07:59:10.677Z</time></trkpt><trkpt lat="39.8247733" lon="8.794395"><ele>463.0</ele><time>2026-05-03T07:59:11.678Z</time></trkpt><trkpt lat="39.82485" lon="8.7943867"><ele>463.0</ele><time>2026-05-03T07:59:12.677Z</time></trkpt><trkpt lat="39.824925" lon="8.7943767"><ele>463.0</ele><time>2026-05-03T07:59:13.677Z</time></trkpt><trkpt lat="39.825005" lon="8.7943633"><ele>463.00000000000006</ele><time>2026-05-03T07:59:14.677Z</time></trkpt><trkpt lat="39.8250867" lon="8.7943567"><ele>463.0</ele><time>2026-05-03T07:59:15.677Z</time></trkpt><trkpt lat="39.8251683" lon="8.7943483"><ele>462.79999999999995</ele><time>2026-05-03T07:59:16.677Z</time></trkpt><trkpt lat="39.8252333" lon="8.7943317"><ele>462.59999999999997</ele><time>2026-05-03T07:59:17.677Z</time></trkpt><trkpt lat="39.82534" lon="8.7942717"><ele>462.40000000000003</ele><time>2026-05-03T07:59:19.677Z</time></trkpt><trkpt lat="39.8253767" lon="8.7941467"><ele>462.20000000000005</ele><time>2026-05-03T07:59:21.677Z</time></trkpt><trkpt lat="39.8253483" lon="8.79406"><ele>462.0</ele><time>2026-05-03T07:59:22.677Z</time></trkpt><trkpt lat="39.8252967" lon="8.7939567"><ele>462.0</ele><time>2026-05-03T07:59:23.677Z</time></trkpt><trkpt lat="39.8252517" lon="8.7938367"><ele>462.00000000000006</ele><time>2026-05-03T07:59:24.678Z</time></trkpt><trkpt lat="39.82521" lon="8.7937033"><ele>462.00000000000006</ele><time>2026-05-03T07:59:25.677Z</time></trkpt><trkpt lat="39.8251767" lon="8.7935667"><ele>462.0</ele><time>2026-05-03T07:59:26.677Z</time></trkpt><trkpt lat="39.8251283" lon="8.7934183"><ele>462.0</ele><time>2026-05-03T07:59:27.677Z</time></trkpt><trkpt lat="39.8250733" lon="8.7932767"><ele>463.25</ele><time>2026-05-03T07:59:28.677Z</time></trkpt><trkpt lat="39.825025" lon="8.7931283"><ele>464.5</ele><time>2026-05-03T07:59:29.678Z</time></trkpt><trkpt lat="39.824985" lon="8.79298"><ele>465.75</ele><time>2026-05-03T07:59:30.678Z</time></trkpt><trkpt lat="39.82494" lon="8.7928367"><ele>467.0</ele><time>2026-05-03T07:59:31.677Z</time></trkpt><trkpt lat="39.8249017" lon="8.7926983"><ele>467.20000000000005</ele><time>2026-05-03T07:59:32.678Z</time></trkpt><trkpt lat="39.8248633" lon="8.79257"><ele>467.40000000000003</ele><time>2026-05-03T07:59:33.677Z</time></trkpt><trkpt lat="39.824825" lon="8.7924317"><ele>467.59999999999997</ele><time>2026-05-03T07:59:34.678Z</time></trkpt><trkpt lat="39.8247833" lon="8.7922833"><ele>467.79999999999995</ele><time>2026-05-03T07:59:35.677Z</time></trkpt><trkpt lat="39.8247517" lon="8.7921633"><ele>468.0</ele><time>2026-05-03T07:59:36.678Z</time></trkpt><trkpt lat="39.824715" lon="8.7920517"><ele>468.0</ele><time>2026-05-03T07:59:37.677Z</time></trkpt><trkpt lat="39.8246833" lon="8.7919417"><ele>467.99999999999994</ele><time>2026-05-03T07:59:38.678Z</time></trkpt><trkpt lat="39.824655" lon="8.7918217"><ele>467.99999999999994</ele><time>2026-05-03T07:59:39.677Z</time></trkpt><trkpt lat="39.8246283" lon="8.7917033"><ele>468.0</ele><time>2026-05-03T07:59:40.677Z</time></trkpt><trkpt lat="39.8245967" lon="8.7915783"><ele>468.0</ele><time>2026-05-03T07:59:41.678Z</time></trkpt><trkpt lat="39.8245683" lon="8.7914617"><ele>468.4</ele><time>2026-05-03T07:59:42.678Z</time></trkpt><trkpt lat="39.82453" lon="8.7913333"><ele>468.79999999999995</ele><time>2026-05-03T07:59:43.677Z</time></trkpt><trkpt lat="39.8244917" lon="8.791205"><ele>469.2</ele><time>2026-05-03T07:59:44.678Z</time></trkpt><trkpt lat="39.8244517" lon="8.7910733"><ele>469.6</ele><time>2026-05-03T07:59:45.677Z</time></trkpt><trkpt lat="39.8243967" lon="8.7909433"><ele>470.0</ele><time>2026-05-03T07:59:46.677Z</time></trkpt><trkpt lat="39.8243483" lon="8.7908283"><ele>470.8</ele><time>2026-05-03T07:59:47.677Z</time></trkpt><trkpt lat="39.8243117" lon="8.7906967"><ele>471.6</ele><time>2026-05-03T07:59:48.677Z</time></trkpt><trkpt lat="39.82428" lon="8.7905667"><ele>472.4</ele><time>2026-05-03T07:59:49.677Z</time></trkpt><trkpt lat="39.8242433" lon="8.7904417"><ele>473.2</ele><time>2026-05-03T07:59:50.677Z</time></trkpt><trkpt lat="39.82421" lon="8.7903233"><ele>474.0</ele><time>2026-05-03T07:59:51.678Z</time></trkpt><trkpt lat="39.824175" lon="8.7902067"><ele>474.4</ele><time>2026-05-03T07:59:52.678Z</time></trkpt><trkpt lat="39.824145" lon="8.790085"><ele>474.79999999999995</ele><time>2026-05-03T07:59:53.678Z</time></trkpt><trkpt lat="39.8241233" lon="8.789955"><ele>475.20000000000005</ele><time>2026-05-03T07:59:54.677Z</time></trkpt><trkpt lat="39.8241183" lon="8.7898317"><ele>475.6</ele><time>2026-05-03T07:59:55.677Z</time></trkpt><trkpt lat="39.8241317" lon="8.7897133"><ele>476.0</ele><time>2026-05-03T07:59:56.677Z</time></trkpt><trkpt lat="39.82414" lon="8.7896033"><ele>476.0</ele><time>2026-05-03T07:59:57.678Z</time></trkpt><trkpt lat="39.82415" lon="8.789495"><ele>476.0</ele><time>2026-05-03T07:59:58.678Z</time></trkpt><trkpt lat="39.8241533" lon="8.78938"><ele>476.0</ele><time>2026-05-03T07:59:59.677Z</time></trkpt><trkpt lat="39.824155" lon="8.7892483"><ele>476.0</ele><time>2026-05-03T08:00:00.677Z</time></trkpt><trkpt lat="39.82415" lon="8.7891133"><ele>476.0</ele><time>2026-05-03T08:00:01.677Z</time></trkpt><trkpt lat="39.8241467" lon="8.788975"><ele>476.25</ele><time>2026-05-03T08:00:02.677Z</time></trkpt><trkpt lat="39.8241483" lon="8.7888217"><ele>476.5</ele><time>2026-05-03T08:00:03.677Z</time></trkpt><trkpt lat="39.82415" lon="8.78867"><ele>476.75</ele><time>2026-05-03T08:00:04.677Z</time></trkpt><trkpt lat="39.8241483" lon="8.7885183"><ele>477.0</ele><time>2026-05-03T08:00:05.677Z</time></trkpt><trkpt lat="39.8241567" lon="8.7883667"><ele>477.40000000000003</ele><time>2026-05-03T08:00:06.678Z</time></trkpt><trkpt lat="39.8241617" lon="8.7882233"><ele>477.80000000000007</ele><time>2026-05-03T08:00:07.678Z</time></trkpt><trkpt lat="39.8241633" lon="8.7880833"><ele>478.2</ele><time>2026-05-03T08:00:08.678Z</time></trkpt><trkpt lat="39.8241667" lon="8.7879483"><ele>478.6</ele><time>2026-05-03T08:00:09.678Z</time></trkpt><trkpt lat="39.8241667" lon="8.787835"><ele>479.0</ele><time>2026-05-03T08:00:10.677Z</time></trkpt><trkpt lat="39.8241683" lon="8.7877133"><ele>478.75</ele><time>2026-05-03T08:00:11.677Z</time></trkpt><trkpt lat="39.82417" lon="8.78758"><ele>478.5</ele><time>2026-05-03T08:00:12.678Z</time></trkpt><trkpt lat="39.8241683" lon="8.7874283"><ele>478.25</ele><time>2026-05-03T08:00:13.678Z</time></trkpt><trkpt lat="39.8241533" lon="8.7872583"><ele>478.0</ele><time>2026-05-03T08:00:14.677Z</time></trkpt><trkpt lat="39.8241367" lon="8.787095"><ele>478.0</ele><time>2026-05-03T08:00:15.677Z</time></trkpt><trkpt lat="39.8241333" lon="8.786945"><ele>478.0</ele><time>2026-05-03T08:00:16.677Z</time></trkpt><trkpt lat="39.82413" lon="8.7867917"><ele>478.0</ele><time>2026-05-03T08:00:17.677Z</time></trkpt><trkpt lat="39.824115" lon="8.7866433"><ele>478.0</ele><time>2026-05-03T08:00:18.677Z</time></trkpt><trkpt lat="39.8241017" lon="8.7864833"><ele>477.50000000000006</ele><time>2026-05-03T08:00:19.677Z</time></trkpt><trkpt lat="39.8240867" lon="8.78633"><ele>477.0</ele><time>2026-05-03T08:00:20.677Z</time></trkpt><trkpt lat="39.82409" lon="8.7861983"><ele>476.5</ele><time>2026-05-03T08:00:21.677Z</time></trkpt><trkpt lat="39.8240933" lon="8.78609"><ele>476.0</ele><time>2026-05-03T08:00:22.677Z</time></trkpt><trkpt lat="39.8240867" lon="8.785995"><ele>475.50000000000006</ele><time>2026-05-03T08:00:23.677Z</time></trkpt><trkpt lat="39.8240767" lon="8.7859017"><ele>475.0</ele><time>2026-05-03T08:00:24.677Z</time></trkpt><trkpt lat="39.824075" lon="8.7858167"><ele>475.0</ele><time>2026-05-03T08:00:25.677Z</time></trkpt><trkpt lat="39.8240617" lon="8.7857133"><ele>475.0</ele><time>2026-05-03T08:00:26.677Z</time></trkpt><trkpt lat="39.824055" lon="8.7855867"><ele>475.0</ele><time>2026-05-03T08:00:27.677Z</time></trkpt><trkpt lat="39.8240467" lon="8.785425"><ele>475.0</ele><time>2026-05-03T08:00:28.677Z</time></trkpt><trkpt lat="39.8240333" lon="8.7852733"><ele>475.0</ele><time>2026-05-03T08:00:29.678Z</time></trkpt><trkpt lat="39.82403" lon="8.7851267"><ele>475.25</ele><time>2026-05-03T08:00:30.677Z</time></trkpt><trkpt lat="39.8240267" lon="8.7849783"><ele>475.5</ele><time>2026-05-03T08:00:31.677Z</time></trkpt><trkpt lat="39.8240233" lon="8.7848333"><ele>475.75</ele><time>2026-05-03T08:00:32.677Z</time></trkpt><trkpt lat="39.824025" lon="8.78468"><ele>476.0</ele><time>2026-05-03T08:00:33.677Z</time></trkpt><trkpt lat="39.82402" lon="8.7845117"><ele>476.25</ele><time>2026-05-03T08:00:34.677Z</time></trkpt><trkpt lat="39.8240167" lon="8.78433"><ele>476.5</ele><time>2026-05-03T08:00:35.678Z</time></trkpt><trkpt lat="39.8240083" lon="8.7841533"><ele>476.75</ele><time>2026-05-03T08:00:36.677Z</time></trkpt><trkpt lat="39.8239917" lon="8.7839733"><ele>477.0</ele><time>2026-05-03T08:00:37.677Z</time></trkpt><trkpt lat="39.8239733" lon="8.7838167"><ele>477.0</ele><time>2026-05-03T08:00:38.677Z</time></trkpt><trkpt lat="39.8239633" lon="8.783695"><ele>477.0</ele><time>2026-05-03T08:00:39.678Z</time></trkpt><trkpt lat="39.8239517" lon="8.78361"><ele>477.0</ele><time>2026-05-03T08:00:40.677Z</time></trkpt><trkpt lat="39.823925" lon="8.7835317"><ele>477.0</ele><time>2026-05-03T08:00:41.678Z</time></trkpt><trkpt lat="39.8238733" lon="8.7834333"><ele>477.0</ele><time>2026-05-03T08:00:42.678Z</time></trkpt><trkpt lat="39.8237967" lon="8.7833117"><ele>477.0</ele><time>2026-05-03T08:00:43.677Z</time></trkpt><trkpt lat="39.823705" lon="8.7831833"><ele>477.75</ele><time>2026-05-03T08:00:44.677Z</time></trkpt><trkpt lat="39.823615" lon="8.78307"><ele>478.5</ele><time>2026-05-03T08:00:45.677Z</time></trkpt><trkpt lat="39.8234967" lon="8.7829583"><ele>479.25</ele><time>2026-05-03T08:00:46.677Z</time></trkpt><trkpt lat="39.8233683" lon="8.7828633"><ele>480.0</ele><time>2026-05-03T08:00:47.677Z</time></trkpt><trkpt lat="39.8232317" lon="8.7827933"><ele>480.33333333333337</ele><time>2026-05-03T08:00:48.677Z</time></trkpt><trkpt lat="39.8230733" lon="8.7827467"><ele>480.6666666666667</ele><time>2026-05-03T08:00:49.677Z</time></trkpt><trkpt lat="39.8228967" lon="8.78271"><ele>481.0</ele><time>2026-05-03T08:00:50.678Z</time></trkpt><trkpt lat="39.8227333" lon="8.7826883"><ele>481.6</ele><time>2026-05-03T08:00:51.677Z</time></trkpt><trkpt lat="39.8226133" lon="8.7826717"><ele>482.20000000000005</ele><time>2026-05-03T08:00:52.677Z</time></trkpt><trkpt lat="39.8225217" lon="8.7826467"><ele>482.79999999999995</ele><time>2026-05-03T08:00:53.678Z</time></trkpt><trkpt lat="39.822455" lon="8.7826067"><ele>483.4</ele><time>2026-05-03T08:00:54.677Z</time></trkpt><trkpt lat="39.82235" lon="8.7825933"><ele>484.0</ele><time>2026-05-03T08:00:56.678Z</time></trkpt><trkpt lat="39.822255" lon="8.7826833"><ele>484.0</ele><time>2026-05-03T08:00:58.677Z</time></trkpt><trkpt lat="39.8221983" lon="8.7827783"><ele>484.0</ele><time>2026-05-03T08:00:59.677Z</time></trkpt><trkpt lat="39.8221217" lon="8.7829017"><ele>484.0</ele><time>2026-05-03T08:01:00.678Z</time></trkpt><trkpt lat="39.8220383" lon="8.7830233"><ele>484.0</ele><time>2026-05-03T08:01:01.677Z</time></trkpt><trkpt lat="39.8219667" lon="8.7831417"><ele>484.0</ele><time>2026-05-03T08:01:02.677Z</time></trkpt><trkpt lat="39.821895" lon="8.7832433"><ele>484.0</ele><time>2026-05-03T08:01:03.678Z</time></trkpt><trkpt lat="39.821825" lon="8.783365"><ele>484.0</ele><time>2026-05-03T08:01:04.677Z</time></trkpt><trkpt lat="39.8217483" lon="8.7834867"><ele>484.0</ele><time>2026-05-03T08:01:05.678Z</time></trkpt><trkpt lat="39.8216867" lon="8.7835817"><ele>484.0</ele><time>2026-05-03T08:01:06.677Z</time></trkpt><trkpt lat="39.8216283" lon="8.78369"><ele>484.79999999999995</ele><time>2026-05-03T08:01:07.677Z</time></trkpt><trkpt lat="39.8215817" lon="8.7838"><ele>485.59999999999997</ele><time>2026-05-03T08:01:08.678Z</time></trkpt><trkpt lat="39.8215283" lon="8.7839167"><ele>486.4</ele><time>2026-05-03T08:01:09.678Z</time></trkpt><trkpt lat="39.8214733" lon="8.7840083"><ele>487.2</ele><time>2026-05-03T08:01:10.677Z</time></trkpt><trkpt lat="39.8214133" lon="8.7841033"><ele>488.0</ele><time>2026-05-03T08:01:11.678Z</time></trkpt><trkpt lat="39.821355" lon="8.78418"><ele>488.0</ele><time>2026-05-03T08:01:12.677Z</time></trkpt><trkpt lat="39.821295" lon="8.7842683"><ele>487.99999999999994</ele><time>2026-05-03T08:01:13.677Z</time></trkpt><trkpt lat="39.8212333" lon="8.7843717"><ele>487.99999999999994</ele><time>2026-05-03T08:01:14.677Z</time></trkpt><trkpt lat="39.8211733" lon="8.7844717"><ele>488.0</ele><time>2026-05-03T08:01:15.677Z</time></trkpt><trkpt lat="39.8211117" lon="8.7845583"><ele>488.0</ele><time>2026-05-03T08:01:16.678Z</time></trkpt><trkpt lat="39.8210367" lon="8.7846483"><ele>488.5</ele><time>2026-05-03T08:01:17.677Z</time></trkpt><trkpt lat="39.8209517" lon="8.78476"><ele>489.0</ele><time>2026-05-03T08:01:18.677Z</time></trkpt><trkpt lat="39.8208633" lon="8.7848933"><ele>489.5</ele><time>2026-05-03T08:01:19.677Z</time></trkpt><trkpt lat="39.82078" lon="8.7850067"><ele>490.0</ele><time>2026-05-03T08:01:20.677Z</time></trkpt><trkpt lat="39.8207117" lon="8.7850833"><ele>490.00000000000006</ele><time>2026-05-03T08:01:21.678Z</time></trkpt><trkpt lat="39.82066" lon="8.7851467"><ele>490.0</ele><time>2026-05-03T08:01:22.677Z</time></trkpt><trkpt lat="39.82061" lon="8.7852067"><ele>490.0</ele><time>2026-05-03T08:01:23.677Z</time></trkpt><trkpt lat="39.8205467" lon="8.7852867"><ele>490.0</ele><time>2026-05-03T08:01:25.677Z</time></trkpt><trkpt lat="39.8204717" lon="8.7852933"><ele>490.00000000000006</ele><time>2026-05-03T08:01:28.677Z</time></trkpt><trkpt lat="39.8204167" lon="8.7851317"><ele>490.0</ele><time>2026-05-03T08:01:30.677Z</time></trkpt><trkpt lat="39.8203983" lon="8.785"><ele>490.0</ele><time>2026-05-03T08:01:31.677Z</time></trkpt><trkpt lat="39.8204" lon="8.7848583"><ele>490.0</ele><time>2026-05-03T08:01:32.677Z</time></trkpt><trkpt lat="39.820415" lon="8.7847033"><ele>490.0</ele><time>2026-05-03T08:01:33.677Z</time></trkpt><trkpt lat="39.82043" lon="8.7845367"><ele>490.0</ele><time>2026-05-03T08:01:34.677Z</time></trkpt><trkpt lat="39.8204467" lon="8.78436"><ele>490.33333333333337</ele><time>2026-05-03T08:01:35.678Z</time></trkpt><trkpt lat="39.82046" lon="8.7841617"><ele>490.66666666666663</ele><time>2026-05-03T08:01:36.677Z</time></trkpt><trkpt lat="39.8204633" lon="8.7839533"><ele>491.0</ele><time>2026-05-03T08:01:37.678Z</time></trkpt><trkpt lat="39.8204667" lon="8.7837717"><ele>491.0</ele><time>2026-05-03T08:01:38.677Z</time></trkpt><trkpt lat="39.820465" lon="8.7836033"><ele>491.0</ele><time>2026-05-03T08:01:39.678Z</time></trkpt><trkpt lat="39.8204517" lon="8.7834533"><ele>491.0</ele><time>2026-05-03T08:01:40.677Z</time></trkpt><trkpt lat="39.82043" lon="8.78332"><ele>491.0</ele><time>2026-05-03T08:01:41.678Z</time></trkpt><trkpt lat="39.8204017" lon="8.783195"><ele>491.20000000000005</ele><time>2026-05-03T08:01:42.677Z</time></trkpt><trkpt lat="39.82034" lon="8.7830783"><ele>491.40000000000003</ele><time>2026-05-03T08:01:43.677Z</time></trkpt><trkpt lat="39.8202617" lon="8.7829733"><ele>491.6</ele><time>2026-05-03T08:01:44.678Z</time></trkpt><trkpt lat="39.82019" lon="8.7828867"><ele>491.8</ele><time>2026-05-03T08:01:45.677Z</time></trkpt><trkpt lat="39.8201117" lon="8.7828117"><ele>492.0</ele><time>2026-05-03T08:01:46.677Z</time></trkpt><trkpt lat="39.8200333" lon="8.7827483"><ele>493.75</ele><time>2026-05-03T08:01:47.677Z</time></trkpt><trkpt lat="39.8199517" lon="8.78266"><ele>495.5</ele><time>2026-05-03T08:01:48.677Z</time></trkpt><trkpt lat="39.81988" lon="8.7825617"><ele>497.25</ele><time>2026-05-03T08:01:49.677Z</time></trkpt><trkpt lat="39.8198083" lon="8.7824383"><ele>499.0</ele><time>2026-05-03T08:01:50.677Z</time></trkpt><trkpt lat="39.819735" lon="8.78231"><ele>499.0</ele><time>2026-05-03T08:01:51.677Z</time></trkpt><trkpt lat="39.8196683" lon="8.7822033"><ele>499.0</ele><time>2026-05-03T08:01:52.677Z</time></trkpt><trkpt lat="39.819595" lon="8.7821117"><ele>499.0</ele><time>2026-05-03T08:01:53.677Z</time></trkpt><trkpt lat="39.8195167" lon="8.7820283"><ele>499.0</ele><time>2026-05-03T08:01:54.677Z</time></trkpt><trkpt lat="39.8194233" lon="8.78192"><ele>499.0</ele><time>2026-05-03T08:01:55.678Z</time></trkpt><trkpt lat="39.81933" lon="8.78181"><ele>501.5</ele><time>2026-05-03T08:01:56.677Z</time></trkpt><trkpt lat="39.8192267" lon="8.7817033"><ele>504.0</ele><time>2026-05-03T08:01:57.677Z</time></trkpt><trkpt lat="39.8191267" lon="8.7816033"><ele>506.5</ele><time>2026-05-03T08:01:58.677Z</time></trkpt><trkpt lat="39.8190367" lon="8.7815017"><ele>509.0</ele><time>2026-05-03T08:01:59.678Z</time></trkpt><trkpt lat="39.81895" lon="8.7814267"><ele>509.0</ele><time>2026-05-03T08:02:00.677Z</time></trkpt><trkpt lat="39.8188583" lon="8.78136"><ele>509.0</ele><time>2026-05-03T08:02:01.677Z</time></trkpt><trkpt lat="39.8187517" lon="8.781325"><ele>509.0</ele><time>2026-05-03T08:02:02.677Z</time></trkpt><trkpt lat="39.818655" lon="8.7813083"><ele>509.0</ele><time>2026-05-03T08:02:03.678Z</time></trkpt><trkpt lat="39.8185483" lon="8.7812683"><ele>509.0</ele><time>2026-05-03T08:02:04.677Z</time></trkpt><trkpt lat="39.8184433" lon="8.7812083"><ele>510.5</ele><time>2026-05-03T08:02:05.678Z</time></trkpt><trkpt lat="39.8183367" lon="8.78114"><ele>512.0</ele><time>2026-05-03T08:02:06.677Z</time></trkpt><trkpt lat="39.81822" lon="8.7810767"><ele>513.5</ele><time>2026-05-03T08:02:07.677Z</time></trkpt><trkpt lat="39.8181083" lon="8.7809967"><ele>515.0</ele><time>2026-05-03T08:02:08.678Z</time></trkpt><trkpt lat="39.8179933" lon="8.780925"><ele>515.75</ele><time>2026-05-03T08:02:09.678Z</time></trkpt><trkpt lat="39.8178517" lon="8.780875"><ele>516.5</ele><time>2026-05-03T08:02:10.677Z</time></trkpt><trkpt lat="39.8177067" lon="8.7808533"><ele>517.25</ele><time>2026-05-03T08:02:11.677Z</time></trkpt><trkpt lat="39.817575" lon="8.780845"><ele>518.0</ele><time>2026-05-03T08:02:12.678Z</time></trkpt><trkpt lat="39.81746" lon="8.7808433"><ele>518.75</ele><time>2026-05-03T08:02:13.677Z</time></trkpt><trkpt lat="39.8173383" lon="8.78083"><ele>519.5</ele><time>2026-05-03T08:02:14.678Z</time></trkpt><trkpt lat="39.8172133" lon="8.7808033"><ele>520.25</ele><time>2026-05-03T08:02:15.677Z</time></trkpt><trkpt lat="39.8170883" lon="8.7807583"><ele>521.0</ele><time>2026-05-03T08:02:16.677Z</time></trkpt><trkpt lat="39.81696" lon="8.7807117"><ele>521.0</ele><time>2026-05-03T08:02:17.678Z</time></trkpt><trkpt lat="39.81683" lon="8.7806583"><ele>521.0</ele><time>2026-05-03T08:02:18.678Z</time></trkpt><trkpt lat="39.8167217" lon="8.7806"><ele>521.0</ele><time>2026-05-03T08:02:19.677Z</time></trkpt><trkpt lat="39.8166217" lon="8.780525"><ele>521.0</ele><time>2026-05-03T08:02:20.678Z</time></trkpt><trkpt lat="39.81654" lon="8.78043"><ele>521.5</ele><time>2026-05-03T08:02:21.677Z</time></trkpt><trkpt lat="39.8164683" lon="8.7803217"><ele>522.0</ele><time>2026-05-03T08:02:22.678Z</time></trkpt><trkpt lat="39.8164083" lon="8.7801783"><ele>522.5</ele><time>2026-05-03T08:02:23.678Z</time></trkpt><trkpt lat="39.8163783" lon="8.7800333"><ele>523.0</ele><time>2026-05-03T08:02:24.677Z</time></trkpt><trkpt lat="39.8163617" lon="8.779865"><ele>524.25</ele><time>2026-05-03T08:02:25.677Z</time></trkpt><trkpt lat="39.81635" lon="8.7796817"><ele>525.5</ele><time>2026-05-03T08:02:26.677Z</time></trkpt><trkpt lat="39.8163283" lon="8.7794983"><ele>526.75</ele><time>2026-05-03T08:02:27.678Z</time></trkpt><trkpt lat="39.8163117" lon="8.7793183"><ele>528.0</ele><time>2026-05-03T08:02:28.678Z</time></trkpt><trkpt lat="39.8162767" lon="8.7791517"><ele>529.75</ele><time>2026-05-03T08:02:29.677Z</time></trkpt><trkpt lat="39.8162417" lon="8.7789767"><ele>531.5</ele><time>2026-05-03T08:02:30.677Z</time></trkpt><trkpt lat="39.8162217" lon="8.778805"><ele>533.25</ele><time>2026-05-03T08:02:31.677Z</time></trkpt><trkpt lat="39.8161967" lon="8.77864"><ele>535.0</ele><time>2026-05-03T08:02:32.677Z</time></trkpt><trkpt lat="39.8161733" lon="8.7784767"><ele>536.5</ele><time>2026-05-03T08:02:33.678Z</time></trkpt><trkpt lat="39.8161467" lon="8.7783083"><ele>538.0</ele><time>2026-05-03T08:02:34.677Z</time></trkpt><trkpt lat="39.8161333" lon="8.77814"><ele>539.5</ele><time>2026-05-03T08:02:35.678Z</time></trkpt><trkpt lat="39.8161117" lon="8.7779617"><ele>541.0</ele><time>2026-05-03T08:02:36.678Z</time></trkpt><trkpt lat="39.816095" lon="8.7777783"><ele>542.5</ele><time>2026-05-03T08:02:37.677Z</time></trkpt><trkpt lat="39.8160817" lon="8.7775983"><ele>544.0</ele><time>2026-05-03T08:02:38.677Z</time></trkpt><trkpt lat="39.816065" lon="8.7774233"><ele>545.5</ele><time>2026-05-03T08:02:39.677Z</time></trkpt><trkpt lat="39.8160567" lon="8.7772433"><ele>547.0</ele><time>2026-05-03T08:02:40.677Z</time></trkpt><trkpt lat="39.8160533" lon="8.77705"><ele>547.0</ele><time>2026-05-03T08:02:41.677Z</time></trkpt><trkpt lat="39.8160617" lon="8.7768533"><ele>547.0</ele><time>2026-05-03T08:02:42.677Z</time></trkpt><trkpt lat="39.8160667" lon="8.77667"><ele>547.0</ele><time>2026-05-03T08:02:43.678Z</time></trkpt><trkpt lat="39.81607" lon="8.7764817"><ele>547.0</ele><time>2026-05-03T08:02:44.677Z</time></trkpt><trkpt lat="39.8160667" lon="8.7762783"><ele>550.0</ele><time>2026-05-03T08:02:45.677Z</time></trkpt><trkpt lat="39.81606" lon="8.7760833"><ele>553.0</ele><time>2026-05-03T08:02:46.677Z</time></trkpt><trkpt lat="39.8160467" lon="8.7758683"><ele>556.0</ele><time>2026-05-03T08:02:47.677Z</time></trkpt><trkpt lat="39.8160467" lon="8.7756483"><ele>558.6666666666667</ele><time>2026-05-03T08:02:48.678Z</time></trkpt><trkpt lat="39.8160483" lon="8.775425"><ele>561.3333333333334</ele><time>2026-05-03T08:02:49.678Z</time></trkpt><trkpt lat="39.8160567" lon="8.7752"><ele>564.0</ele><time>2026-05-03T08:02:50.677Z</time></trkpt><trkpt lat="39.816055" lon="8.77497"><ele>566.0</ele><time>2026-05-03T08:02:51.677Z</time></trkpt><trkpt lat="39.81606" lon="8.7747333"><ele>568.0</ele><time>2026-05-03T08:02:52.677Z</time></trkpt><trkpt lat="39.81606" lon="8.7744883"><ele>570.0</ele><time>2026-05-03T08:02:53.677Z</time></trkpt><trkpt lat="39.816055" lon="8.774255"><ele>572.0</ele><time>2026-05-03T08:02:54.678Z</time></trkpt><trkpt lat="39.81606" lon="8.774025"><ele>574.0</ele><time>2026-05-03T08:02:55.677Z</time></trkpt><trkpt lat="39.8160667" lon="8.7737917"><ele>576.0</ele><time>2026-05-03T08:02:56.678Z</time></trkpt><trkpt lat="39.8160683" lon="8.7735833"><ele>577.0</ele><time>2026-05-03T08:02:57.678Z</time></trkpt><trkpt lat="39.8160817" lon="8.7733883"><ele>578.0</ele><time>2026-05-03T08:02:58.678Z</time></trkpt><trkpt lat="39.8160767" lon="8.7732067"><ele>579.0</ele><time>2026-05-03T08:02:59.677Z</time></trkpt><trkpt lat="39.816075" lon="8.7730233"><ele>580.0</ele><time>2026-05-03T08:03:00.678Z</time></trkpt><trkpt lat="39.8160733" lon="8.7728367"><ele>581.25</ele><time>2026-05-03T08:03:01.677Z</time></trkpt><trkpt lat="39.816085" lon="8.7726517"><ele>582.5</ele><time>2026-05-03T08:03:02.678Z</time></trkpt><trkpt lat="39.8160883" lon="8.7724583"><ele>583.75</ele><time>2026-05-03T08:03:03.678Z</time></trkpt><trkpt lat="39.816095" lon="8.772255"><ele>585.0</ele><time>2026-05-03T08:03:04.677Z</time></trkpt><trkpt lat="39.8161067" lon="8.77205"><ele>587.0</ele><time>2026-05-03T08:03:05.677Z</time></trkpt><trkpt lat="39.8160983" lon="8.7718367"><ele>589.0</ele><time>2026-05-03T08:03:06.677Z</time></trkpt><trkpt lat="39.8161017" lon="8.771605"><ele>591.0</ele><time>2026-05-03T08:03:07.677Z</time></trkpt><trkpt lat="39.8161117" lon="8.7713833"><ele>591.0</ele><time>2026-05-03T08:03:08.677Z</time></trkpt><trkpt lat="39.81611" lon="8.7711567"><ele>591.0</ele><time>2026-05-03T08:03:09.677Z</time></trkpt><trkpt lat="39.8161117" lon="8.7709217"><ele>591.0</ele><time>2026-05-03T08:03:10.678Z</time></trkpt><trkpt lat="39.8161067" lon="8.7707017"><ele>592.6666666666666</ele><time>2026-05-03T08:03:11.678Z</time></trkpt><trkpt lat="39.8161033" lon="8.7704783"><ele>594.3333333333333</ele><time>2026-05-03T08:03:12.677Z</time></trkpt><trkpt lat="39.816105" lon="8.7702583"><ele>596.0</ele><time>2026-05-03T08:03:13.677Z</time></trkpt><trkpt lat="39.8161117" lon="8.7700417"><ele>597.6666666666666</ele><time>2026-05-03T08:03:14.677Z</time></trkpt><trkpt lat="39.816125" lon="8.76983"><ele>599.3333333333334</ele><time>2026-05-03T08:03:15.677Z</time></trkpt><trkpt lat="39.8161317" lon="8.769625"><ele>601.0</ele><time>2026-05-03T08:03:16.677Z</time></trkpt><trkpt lat="39.8161317" lon="8.76942"><ele>602.3333333333334</ele><time>2026-05-03T08:03:17.677Z</time></trkpt><trkpt lat="39.8161383" lon="8.76922"><ele>603.6666666666666</ele><time>2026-05-03T08:03:18.677Z</time></trkpt><trkpt lat="39.8161517" lon="8.76901"><ele>605.0</ele><time>2026-05-03T08:03:19.678Z</time></trkpt><trkpt lat="39.816155" lon="8.7688167"><ele>605.0</ele><time>2026-05-03T08:03:20.678Z</time></trkpt><trkpt lat="39.8161583" lon="8.768635"><ele>605.0</ele><time>2026-05-03T08:03:21.677Z</time></trkpt><trkpt lat="39.8161583" lon="8.768475"><ele>605.0</ele><time>2026-05-03T08:03:22.678Z</time></trkpt><trkpt lat="39.8161483" lon="8.7683367"><ele>605.0</ele><time>2026-05-03T08:03:23.677Z</time></trkpt><trkpt lat="39.8161083" lon="8.7682167"><ele>605.75</ele><time>2026-05-03T08:03:24.677Z</time></trkpt><trkpt lat="39.816055" lon="8.7680933"><ele>606.5</ele><time>2026-05-03T08:03:25.677Z</time></trkpt><trkpt lat="39.8159867" lon="8.76797"><ele>607.25</ele><time>2026-05-03T08:03:26.678Z</time></trkpt><trkpt lat="39.8159267" lon="8.7678283"><ele>608.0</ele><time>2026-05-03T08:03:27.677Z</time></trkpt><trkpt lat="39.8158667" lon="8.7676733"><ele>611.25</ele><time>2026-05-03T08:03:28.678Z</time></trkpt><trkpt lat="39.8158067" lon="8.7675017"><ele>614.5</ele><time>2026-05-03T08:03:29.677Z</time></trkpt><trkpt lat="39.8157633" lon="8.7673317"><ele>617.75</ele><time>2026-05-03T08:03:30.678Z</time></trkpt><trkpt lat="39.8157167" lon="8.7671633"><ele>621.0</ele><time>2026-05-03T08:03:31.678Z</time></trkpt><trkpt lat="39.8156783" lon="8.76701"><ele>621.4</ele><time>2026-05-03T08:03:32.678Z</time></trkpt><trkpt lat="39.81564" lon="8.7668533"><ele>621.8</ele><time>2026-05-03T08:03:33.677Z</time></trkpt><trkpt lat="39.8156133" lon="8.7667183"><ele>622.1999999999999</ele><time>2026-05-03T08:03:34.677Z</time></trkpt><trkpt lat="39.81557" lon="8.7665983"><ele>622.6</ele><time>2026-05-03T08:03:35.677Z</time></trkpt><trkpt lat="39.815525" lon="8.7664983"><ele>623.0</ele><time>2026-05-03T08:03:36.677Z</time></trkpt><trkpt lat="39.8154783" lon="8.7664333"><ele>623.0</ele><time>2026-05-03T08:03:37.677Z</time></trkpt><trkpt lat="39.81538" lon="8.766365"><ele>623.0</ele><time>2026-05-03T08:03:39.677Z</time></trkpt><trkpt lat="39.8153167" lon="8.76637"><ele>623.0</ele><time>2026-05-03T08:03:40.677Z</time></trkpt><trkpt lat="39.8152367" lon="8.7663783"><ele>623.0</ele><time>2026-05-03T08:03:41.678Z</time></trkpt><trkpt lat="39.8151667" lon="8.7663783"><ele>623.0</ele><time>2026-05-03T08:03:42.677Z</time></trkpt><trkpt lat="39.8151017" lon="8.7663717"><ele>623.0</ele><time>2026-05-03T08:03:43.678Z</time></trkpt><trkpt lat="39.8150383" lon="8.76637"><ele>622.7142857142857</ele><time>2026-05-03T08:03:44.677Z</time></trkpt><trkpt lat="39.8149683" lon="8.76637"><ele>622.4285714285714</ele><time>2026-05-03T08:03:45.677Z</time></trkpt><trkpt lat="39.8149033" lon="8.7663717"><ele>622.1428571428571</ele><time>2026-05-03T08:03:46.678Z</time></trkpt><trkpt lat="39.8148333" lon="8.7663767"><ele>621.8571428571429</ele><time>2026-05-03T08:03:47.677Z</time></trkpt><trkpt lat="39.814755" lon="8.7663917"><ele>621.5714285714286</ele><time>2026-05-03T08:03:48.677Z</time></trkpt><trkpt lat="39.8146783" lon="8.7664217"><ele>621.2857142857142</ele><time>2026-05-03T08:03:49.677Z</time></trkpt><trkpt lat="39.8146117" lon="8.76647"><ele>621.0</ele><time>2026-05-03T08:03:50.677Z</time></trkpt><trkpt lat="39.8145433" lon="8.76651"><ele>621.0</ele><time>2026-05-03T08:03:51.677Z</time></trkpt><trkpt lat="39.814465" lon="8.7665467"><ele>621.0</ele><time>2026-05-03T08:03:52.677Z</time></trkpt><trkpt lat="39.8143917" lon="8.7665683"><ele>621.0</ele><time>2026-05-03T08:03:53.677Z</time></trkpt><trkpt lat="39.814265" lon="8.7665667"><ele>621.0</ele><time>2026-05-03T08:03:55.677Z</time></trkpt><trkpt lat="39.814205" lon="8.7665417"><ele>621.0</ele><time>2026-05-03T08:03:56.677Z</time></trkpt><trkpt lat="39.8141" lon="8.7665083"><ele>620.8</ele><time>2026-05-03T08:03:58.678Z</time></trkpt><trkpt lat="39.8139733" lon="8.766505"><ele>620.6</ele><time>2026-05-03T08:04:00.678Z</time></trkpt><trkpt lat="39.813895" lon="8.766505"><ele>620.4</ele><time>2026-05-03T08:04:01.677Z</time></trkpt><trkpt lat="39.813815" lon="8.7664883"><ele>620.2</ele><time>2026-05-03T08:04:02.677Z</time></trkpt><trkpt lat="39.8137333" lon="8.7664667"><ele>620.0</ele><time>2026-05-03T08:04:03.677Z</time></trkpt><trkpt lat="39.8136533" lon="8.766445"><ele>620.0</ele><time>2026-05-03T08:04:04.678Z</time></trkpt><trkpt lat="39.81358" lon="8.7664333"><ele>620.0</ele><time>2026-05-03T08:04:05.677Z</time></trkpt><trkpt lat="39.8135133" lon="8.766435"><ele>620.0</ele><time>2026-05-03T08:04:06.678Z</time></trkpt><trkpt lat="39.8134467" lon="8.7664317"><ele>620.0</ele><time>2026-05-03T08:04:07.677Z</time></trkpt><trkpt lat="39.8133283" lon="8.766375"><ele>620.0</ele><time>2026-05-03T08:04:09.677Z</time></trkpt><trkpt lat="39.8132733" lon="8.7663083"><ele>620.0</ele><time>2026-05-03T08:04:10.677Z</time></trkpt><trkpt lat="39.8132233" lon="8.7662167"><ele>620.2</ele><time>2026-05-03T08:04:11.677Z</time></trkpt><trkpt lat="39.8131667" lon="8.7661017"><ele>620.4</ele><time>2026-05-03T08:04:12.677Z</time></trkpt><trkpt lat="39.8130933" lon="8.7660017"><ele>620.6</ele><time>2026-05-03T08:04:13.677Z</time></trkpt><trkpt lat="39.8129983" lon="8.765935"><ele>620.8</ele><time>2026-05-03T08:04:14.678Z</time></trkpt><trkpt lat="39.8129" lon="8.7658883"><ele>621.0</ele><time>2026-05-03T08:04:15.677Z</time></trkpt><trkpt lat="39.8128" lon="8.7658567"><ele>621.0</ele><time>2026-05-03T08:04:16.678Z</time></trkpt><trkpt lat="39.812725" lon="8.7658433"><ele>621.0</ele><time>2026-05-03T08:04:17.678Z</time></trkpt><trkpt lat="39.81266" lon="8.7658267"><ele>621.0</ele><time>2026-05-03T08:04:18.678Z</time></trkpt><trkpt lat="39.8125983" lon="8.765845"><ele>621.0</ele><time>2026-05-03T08:04:19.677Z</time></trkpt><trkpt lat="39.8125667" lon="8.76601"><ele>621.0</ele><time>2026-05-03T08:04:21.678Z</time></trkpt><trkpt lat="39.8125933" lon="8.7661383"><ele>621.0</ele><time>2026-05-03T08:04:22.678Z</time></trkpt><trkpt lat="39.8126367" lon="8.7662783"><ele>619.25</ele><time>2026-05-03T08:04:23.678Z</time></trkpt><trkpt lat="39.8126967" lon="8.76641"><ele>617.5</ele><time>2026-05-03T08:04:24.677Z</time></trkpt><trkpt lat="39.8127733" lon="8.7665367"><ele>615.75</ele><time>2026-05-03T08:04:25.677Z</time></trkpt><trkpt lat="39.8128533" lon="8.7666467"><ele>614.0</ele><time>2026-05-03T08:04:26.677Z</time></trkpt><trkpt lat="39.8129217" lon="8.76675"><ele>614.0</ele><time>2026-05-03T08:04:27.677Z</time></trkpt><trkpt lat="39.8129683" lon="8.766845"><ele>614.0</ele><time>2026-05-03T08:04:28.677Z</time></trkpt><trkpt lat="39.8130033" lon="8.7669333"><ele>614.0</ele><time>2026-05-03T08:04:29.677Z</time></trkpt><trkpt lat="39.81302" lon="8.767025"><ele>614.0</ele><time>2026-05-03T08:04:30.678Z</time></trkpt><trkpt lat="39.813" lon="8.7671267"><ele>614.0</ele><time>2026-05-03T08:04:31.677Z</time></trkpt><trkpt lat="39.8129483" lon="8.7672333"><ele>614.0</ele><time>2026-05-03T08:04:32.677Z</time></trkpt><trkpt lat="39.8128867" lon="8.7673467"><ele>612.25</ele><time>2026-05-03T08:04:33.677Z</time></trkpt><trkpt lat="39.8128017" lon="8.7674717"><ele>610.5</ele><time>2026-05-03T08:04:34.677Z</time></trkpt><trkpt lat="39.81272" lon="8.7675817"><ele>608.75</ele><time>2026-05-03T08:04:35.677Z</time></trkpt><trkpt lat="39.81261" lon="8.7676483"><ele>607.0</ele><time>2026-05-03T08:04:36.678Z</time></trkpt><trkpt lat="39.8124967" lon="8.7676783"><ele>603.75</ele><time>2026-05-03T08:04:37.678Z</time></trkpt><trkpt lat="39.8124033" lon="8.7676567"><ele>600.5</ele><time>2026-05-03T08:04:38.677Z</time></trkpt><trkpt lat="39.8122967" lon="8.767645"><ele>597.25</ele><time>2026-05-03T08:04:39.677Z</time></trkpt><trkpt lat="39.81216" lon="8.7676967"><ele>594.0</ele><time>2026-05-03T08:04:40.677Z</time></trkpt><trkpt lat="39.8120283" lon="8.7677417"><ele>592.4</ele><time>2026-05-03T08:04:41.677Z</time></trkpt><trkpt lat="39.8119183" lon="8.76778"><ele>590.8</ele><time>2026-05-03T08:04:42.678Z</time></trkpt><trkpt lat="39.8118233" lon="8.7678233"><ele>589.2</ele><time>2026-05-03T08:04:43.677Z</time></trkpt><trkpt lat="39.81173" lon="8.7678883"><ele>587.6</ele><time>2026-05-03T08:04:44.677Z</time></trkpt><trkpt lat="39.8116383" lon="8.7679467"><ele>586.0</ele><time>2026-05-03T08:04:45.677Z</time></trkpt><trkpt lat="39.81156" lon="8.7679917"><ele>585.5</ele><time>2026-05-03T08:04:46.678Z</time></trkpt><trkpt lat="39.8114867" lon="8.7680167"><ele>585.0</ele><time>2026-05-03T08:04:47.677Z</time></trkpt><trkpt lat="39.81142" lon="8.7680233"><ele>584.5</ele><time>2026-05-03T08:04:48.677Z</time></trkpt><trkpt lat="39.8113533" lon="8.7680083"><ele>584.0</ele><time>2026-05-03T08:04:49.677Z</time></trkpt><trkpt lat="39.8112883" lon="8.7679517"><ele>583.5</ele><time>2026-05-03T08:04:50.677Z</time></trkpt><trkpt lat="39.8112317" lon="8.7678817"><ele>583.0</ele><time>2026-05-03T08:04:51.677Z</time></trkpt><trkpt lat="39.8111533" lon="8.7678117"><ele>583.0</ele><time>2026-05-03T08:04:52.678Z</time></trkpt><trkpt lat="39.81105" lon="8.7677717"><ele>583.0</ele><time>2026-05-03T08:04:53.677Z</time></trkpt><trkpt lat="39.810935" lon="8.767755"><ele>583.0</ele><time>2026-05-03T08:04:54.677Z</time></trkpt><trkpt lat="39.8108233" lon="8.76775"><ele>583.0</ele><time>2026-05-03T08:04:55.677Z</time></trkpt><trkpt lat="39.8107217" lon="8.7677283"><ele>583.0</ele><time>2026-05-03T08:04:56.677Z</time></trkpt><trkpt lat="39.8106383" lon="8.7676783"><ele>585.0</ele><time>2026-05-03T08:04:57.678Z</time></trkpt><trkpt lat="39.810555" lon="8.7676083"><ele>587.0</ele><time>2026-05-03T08:04:58.678Z</time></trkpt><trkpt lat="39.81046" lon="8.76752"><ele>589.0</ele><time>2026-05-03T08:04:59.677Z</time></trkpt><trkpt lat="39.8103783" lon="8.7674167"><ele>591.0</ele><time>2026-05-03T08:05:00.677Z</time></trkpt><trkpt lat="39.81031" lon="8.7672883"><ele>591.0</ele><time>2026-05-03T08:05:01.678Z</time></trkpt><trkpt lat="39.810235" lon="8.7671417"><ele>591.0</ele><time>2026-05-03T08:05:02.677Z</time></trkpt><trkpt lat="39.81017" lon="8.7669817"><ele>591.0</ele><time>2026-05-03T08:05:03.677Z</time></trkpt><trkpt lat="39.8101133" lon="8.766805"><ele>591.0</ele><time>2026-05-03T08:05:04.678Z</time></trkpt><trkpt lat="39.8100683" lon="8.7666217"><ele>592.25</ele><time>2026-05-03T08:05:05.677Z</time></trkpt><trkpt lat="39.8100133" lon="8.7664367"><ele>593.5</ele><time>2026-05-03T08:05:06.677Z</time></trkpt><trkpt lat="39.8099917" lon="8.76625"><ele>594.75</ele><time>2026-05-03T08:05:07.677Z</time></trkpt><trkpt lat="39.8099783" lon="8.76608"><ele>596.0</ele><time>2026-05-03T08:05:08.677Z</time></trkpt><trkpt lat="39.8099817" lon="8.765915"><ele>597.4</ele><time>2026-05-03T08:05:09.677Z</time></trkpt><trkpt lat="39.8099983" lon="8.7657817"><ele>598.8</ele><time>2026-05-03T08:05:10.677Z</time></trkpt><trkpt lat="39.8099933" lon="8.7656567"><ele>600.1999999999999</ele><time>2026-05-03T08:05:11.677Z</time></trkpt><trkpt lat="39.809975" lon="8.7655233"><ele>601.6</ele><time>2026-05-03T08:05:12.677Z</time></trkpt><trkpt lat="39.8099667" lon="8.76536"><ele>603.0</ele><time>2026-05-03T08:05:13.678Z</time></trkpt><trkpt lat="39.8099483" lon="8.76519"><ele>605.25</ele><time>2026-05-03T08:05:14.678Z</time></trkpt><trkpt lat="39.8099367" lon="8.76502"><ele>607.5</ele><time>2026-05-03T08:05:15.677Z</time></trkpt><trkpt lat="39.8099217" lon="8.7648717"><ele>609.75</ele><time>2026-05-03T08:05:16.678Z</time></trkpt><trkpt lat="39.8099" lon="8.7647367"><ele>612.0</ele><time>2026-05-03T08:05:17.677Z</time></trkpt><trkpt lat="39.809855" lon="8.764615"><ele>612.0</ele><time>2026-05-03T08:05:18.678Z</time></trkpt><trkpt lat="39.8097983" lon="8.7644833"><ele>612.0</ele><time>2026-05-03T08:05:19.677Z</time></trkpt><trkpt lat="39.8097283" lon="8.7643617"><ele>612.0</ele><time>2026-05-03T08:05:20.677Z</time></trkpt><trkpt lat="39.80966" lon="8.764235"><ele>612.0</ele><time>2026-05-03T08:05:21.678Z</time></trkpt><trkpt lat="39.8096167" lon="8.764085"><ele>615.25</ele><time>2026-05-03T08:05:22.677Z</time></trkpt><trkpt lat="39.80958" lon="8.763925"><ele>618.5</ele><time>2026-05-03T08:05:23.677Z</time></trkpt><trkpt lat="39.8095367" lon="8.763775"><ele>621.75</ele><time>2026-05-03T08:05:24.677Z</time></trkpt><trkpt lat="39.8094733" lon="8.7636467"><ele>625.0</ele><time>2026-05-03T08:05:25.678Z</time></trkpt><trkpt lat="39.8093867" lon="8.763545"><ele>624.5</ele><time>2026-05-03T08:05:26.677Z</time></trkpt><trkpt lat="39.8092833" lon="8.76344"><ele>624.0</ele><time>2026-05-03T08:05:27.677Z</time></trkpt><trkpt lat="39.809175" lon="8.7633167"><ele>623.5</ele><time>2026-05-03T08:05:28.676Z</time></trkpt><trkpt lat="39.8091033" lon="8.7631683"><ele>623.0</ele><time>2026-05-03T08:05:29.676Z</time></trkpt><trkpt lat="39.8090117" lon="8.7629917"><ele>623.0</ele><time>2026-05-03T08:05:30.676Z</time></trkpt><trkpt lat="39.8089367" lon="8.7627833"><ele>623.0</ele><time>2026-05-03T08:05:31.677Z</time></trkpt><trkpt lat="39.80889" lon="8.762595"><ele>623.0</ele><time>2026-05-03T08:05:32.676Z</time></trkpt><trkpt lat="39.80886" lon="8.762405"><ele>628.0</ele><time>2026-05-03T08:05:33.676Z</time></trkpt><trkpt lat="39.8088317" lon="8.7622217"><ele>633.0</ele><time>2026-05-03T08:05:34.676Z</time></trkpt><trkpt lat="39.8087933" lon="8.762045"><ele>638.0</ele><time>2026-05-03T08:05:35.676Z</time></trkpt><trkpt lat="39.8087417" lon="8.7618883"><ele>643.0</ele><time>2026-05-03T08:05:36.676Z</time></trkpt><trkpt lat="39.808665" lon="8.76172"><ele>640.6666666666667</ele><time>2026-05-03T08:05:37.676Z</time></trkpt><trkpt lat="39.8085717" lon="8.76157"><ele>638.3333333333334</ele><time>2026-05-03T08:05:38.676Z</time></trkpt><trkpt lat="39.8084683" lon="8.7614233"><ele>636.0</ele><time>2026-05-03T08:05:39.677Z</time></trkpt><trkpt lat="39.8083633" lon="8.76128"><ele>636.0</ele><time>2026-05-03T08:05:40.677Z</time></trkpt><trkpt lat="39.80827" lon="8.7611533"><ele>636.0</ele><time>2026-05-03T08:05:41.676Z</time></trkpt><trkpt lat="39.8082067" lon="8.7609983"><ele>636.0</ele><time>2026-05-03T08:05:42.676Z</time></trkpt><trkpt lat="39.8081317" lon="8.760845"><ele>636.0</ele><time>2026-05-03T08:05:43.676Z</time></trkpt><trkpt lat="39.8080533" lon="8.7606917"><ele>640.25</ele><time>2026-05-03T08:05:44.677Z</time></trkpt><trkpt lat="39.8079567" lon="8.7605483"><ele>644.5</ele><time>2026-05-03T08:05:45.676Z</time></trkpt><trkpt lat="39.80788" lon="8.7604333"><ele>648.75</ele><time>2026-05-03T08:05:46.677Z</time></trkpt><trkpt lat="39.8078233" lon="8.7603217"><ele>653.0</ele><time>2026-05-03T08:05:47.676Z</time></trkpt><trkpt lat="39.80777" lon="8.7601767"><ele>652.25</ele><time>2026-05-03T08:05:48.676Z</time></trkpt><trkpt lat="39.8077517" lon="8.759995"><ele>651.5</ele><time>2026-05-03T08:05:49.677Z</time></trkpt><trkpt lat="39.8077183" lon="8.75981"><ele>650.75</ele><time>2026-05-03T08:05:50.676Z</time></trkpt><trkpt lat="39.8076817" lon="8.7596633"><ele>650.0</ele><time>2026-05-03T08:05:51.677Z</time></trkpt><trkpt lat="39.8076483" lon="8.7595417"><ele>650.0</ele><time>2026-05-03T08:05:52.676Z</time></trkpt><trkpt lat="39.8076133" lon="8.75943"><ele>650.0</ele><time>2026-05-03T08:05:53.677Z</time></trkpt><trkpt lat="39.8075783" lon="8.7593283"><ele>650.0</ele><time>2026-05-03T08:05:54.676Z</time></trkpt><trkpt lat="39.8075517" lon="8.75923"><ele>650.0</ele><time>2026-05-03T08:05:55.676Z</time></trkpt><trkpt lat="39.8075267" lon="8.75911"><ele>650.0</ele><time>2026-05-03T08:05:56.676Z</time></trkpt><trkpt lat="39.807485" lon="8.7589967"><ele>652.0</ele><time>2026-05-03T08:05:57.677Z</time></trkpt><trkpt lat="39.8074517" lon="8.7588767"><ele>654.0</ele><time>2026-05-03T08:05:58.676Z</time></trkpt><trkpt lat="39.807405" lon="8.7587417"><ele>656.0</ele><time>2026-05-03T08:05:59.677Z</time></trkpt><trkpt lat="39.8073767" lon="8.7585883"><ele>658.0</ele><time>2026-05-03T08:06:00.676Z</time></trkpt><trkpt lat="39.8073283" lon="8.7584183"><ele>660.6666666666667</ele><time>2026-05-03T08:06:01.676Z</time></trkpt><trkpt lat="39.807285" lon="8.7582183"><ele>663.3333333333334</ele><time>2026-05-03T08:06:02.677Z</time></trkpt><trkpt lat="39.8072367" lon="8.758025"><ele>666.0</ele><time>2026-05-03T08:06:03.676Z</time></trkpt><trkpt lat="39.8071883" lon="8.7578367"><ele>669.6666666666666</ele><time>2026-05-03T08:06:04.677Z</time></trkpt><trkpt lat="39.8071433" lon="8.7576433"><ele>673.3333333333333</ele><time>2026-05-03T08:06:05.676Z</time></trkpt><trkpt lat="39.8070967" lon="8.7574533"><ele>677.0</ele><time>2026-05-03T08:06:06.676Z</time></trkpt><trkpt lat="39.8070417" lon="8.7572633"><ele>677.0</ele><time>2026-05-03T08:06:07.677Z</time></trkpt><trkpt lat="39.8069933" lon="8.7570667"><ele>677.0</ele><time>2026-05-03T08:06:08.677Z</time></trkpt><trkpt lat="39.8069383" lon="8.7568517"><ele>677.0</ele><time>2026-05-03T08:06:09.676Z</time></trkpt><trkpt lat="39.8068883" lon="8.7566417"><ele>679.3333333333333</ele><time>2026-05-03T08:06:10.676Z</time></trkpt><trkpt lat="39.80685" lon="8.75644"><ele>681.6666666666666</ele><time>2026-05-03T08:06:11.676Z</time></trkpt><trkpt lat="39.8068067" lon="8.756255"><ele>684.0</ele><time>2026-05-03T08:06:12.676Z</time></trkpt><trkpt lat="39.806755" lon="8.7560767"><ele>686.0</ele><time>2026-05-03T08:06:13.676Z</time></trkpt><trkpt lat="39.8066917" lon="8.7558983"><ele>688.0</ele><time>2026-05-03T08:06:14.676Z</time></trkpt><trkpt lat="39.8066167" lon="8.7557033"><ele>690.0</ele><time>2026-05-03T08:06:15.677Z</time></trkpt><trkpt lat="39.806545" lon="8.7554933"><ele>690.0</ele><time>2026-05-03T08:06:16.676Z</time></trkpt><trkpt lat="39.8064633" lon="8.7552817"><ele>690.0</ele><time>2026-05-03T08:06:17.677Z</time></trkpt><trkpt lat="39.806385" lon="8.7550683"><ele>690.0</ele><time>2026-05-03T08:06:18.676Z</time></trkpt><trkpt lat="39.806305" lon="8.75486"><ele>692.6666666666666</ele><time>2026-05-03T08:06:19.677Z</time></trkpt><trkpt lat="39.8062417" lon="8.754655"><ele>695.3333333333333</ele><time>2026-05-03T08:06:20.677Z</time></trkpt><trkpt lat="39.80617" lon="8.7544533"><ele>698.0</ele><time>2026-05-03T08:06:21.677Z</time></trkpt><trkpt lat="39.8061017" lon="8.7542583"><ele>698.3333333333333</ele><time>2026-05-03T08:06:22.677Z</time></trkpt><trkpt lat="39.8060383" lon="8.7540583"><ele>698.6666666666666</ele><time>2026-05-03T08:06:23.676Z</time></trkpt><trkpt lat="39.805975" lon="8.753875"><ele>699.0</ele><time>2026-05-03T08:06:24.676Z</time></trkpt><trkpt lat="39.805915" lon="8.7537033"><ele>699.75</ele><time>2026-05-03T08:06:25.676Z</time></trkpt><trkpt lat="39.805855" lon="8.7535333"><ele>700.5</ele><time>2026-05-03T08:06:26.676Z</time></trkpt><trkpt lat="39.8057967" lon="8.7533617"><ele>701.25</ele><time>2026-05-03T08:06:27.677Z</time></trkpt><trkpt lat="39.805725" lon="8.7531833"><ele>702.0</ele><time>2026-05-03T08:06:28.676Z</time></trkpt><trkpt lat="39.8056433" lon="8.7529983"><ele>702.0</ele><time>2026-05-03T08:06:29.676Z</time></trkpt><trkpt lat="39.8055567" lon="8.7527983"><ele>702.0</ele><time>2026-05-03T08:06:30.676Z</time></trkpt><trkpt lat="39.8054833" lon="8.7525883"><ele>702.0</ele><time>2026-05-03T08:06:31.676Z</time></trkpt><trkpt lat="39.805405" lon="8.7523683"><ele>702.6666666666666</ele><time>2026-05-03T08:06:32.676Z</time></trkpt><trkpt lat="39.8053283" lon="8.7521567"><ele>703.3333333333333</ele><time>2026-05-03T08:06:33.677Z</time></trkpt><trkpt lat="39.8052617" lon="8.7519567"><ele>704.0</ele><time>2026-05-03T08:06:34.677Z</time></trkpt><trkpt lat="39.8052033" lon="8.75179"><ele>707.0</ele><time>2026-05-03T08:06:35.677Z</time></trkpt><trkpt lat="39.80514" lon="8.7516367"><ele>710.0</ele><time>2026-05-03T08:06:36.676Z</time></trkpt><trkpt lat="39.805085" lon="8.75151"><ele>713.0</ele><time>2026-05-03T08:06:37.676Z</time></trkpt><trkpt lat="39.80502" lon="8.75137"><ele>716.0</ele><time>2026-05-03T08:06:38.677Z</time></trkpt><trkpt lat="39.8049283" lon="8.7512333"><ele>716.0</ele><time>2026-05-03T08:06:39.677Z</time></trkpt><trkpt lat="39.8048267" lon="8.7511183"><ele>716.0</ele><time>2026-05-03T08:06:40.676Z</time></trkpt><trkpt lat="39.8047083" lon="8.7509717"><ele>716.0</ele><time>2026-05-03T08:06:41.676Z</time></trkpt><trkpt lat="39.8046217" lon="8.750855"><ele>716.0</ele><time>2026-05-03T08:06:42.676Z</time></trkpt><trkpt lat="39.8045367" lon="8.75073"><ele>717.5</ele><time>2026-05-03T08:06:43.676Z</time></trkpt><trkpt lat="39.8044733" lon="8.7506183"><ele>719.0</ele><time>2026-05-03T08:06:44.676Z</time></trkpt><trkpt lat="39.8044133" lon="8.7504867"><ele>720.5</ele><time>2026-05-03T08:06:45.676Z</time></trkpt><trkpt lat="39.8043567" lon="8.7503467"><ele>722.0</ele><time>2026-05-03T08:06:46.676Z</time></trkpt><trkpt lat="39.8043167" lon="8.7502"><ele>723.4000000000001</ele><time>2026-05-03T08:06:47.677Z</time></trkpt><trkpt lat="39.80428" lon="8.75005"><ele>724.8000000000001</ele><time>2026-05-03T08:06:48.677Z</time></trkpt><trkpt lat="39.804255" lon="8.7499033"><ele>726.2</ele><time>2026-05-03T08:06:49.676Z</time></trkpt><trkpt lat="39.80425" lon="8.74977"><ele>727.6</ele><time>2026-05-03T08:06:50.677Z</time></trkpt><trkpt lat="39.8042367" lon="8.7496433"><ele>729.0</ele><time>2026-05-03T08:06:51.676Z</time></trkpt><trkpt lat="39.8042317" lon="8.7495167"><ele>729.0</ele><time>2026-05-03T08:06:52.677Z</time></trkpt><trkpt lat="39.80422" lon="8.7494017"><ele>729.0</ele><time>2026-05-03T08:06:53.676Z</time></trkpt><trkpt lat="39.8042117" lon="8.7492967"><ele>729.0</ele><time>2026-05-03T08:06:54.677Z</time></trkpt><trkpt lat="39.8042" lon="8.7492"><ele>729.0</ele><time>2026-05-03T08:06:55.676Z</time></trkpt><trkpt lat="39.8041917" lon="8.7490917"><ele>729.0</ele><time>2026-05-03T08:06:56.676Z</time></trkpt><trkpt lat="39.8041817" lon="8.748985"><ele>729.0</ele><time>2026-05-03T08:06:57.676Z</time></trkpt><trkpt lat="39.8041633" lon="8.74888"><ele>729.1666666666666</ele><time>2026-05-03T08:06:58.676Z</time></trkpt><trkpt lat="39.8041367" lon="8.7487883"><ele>729.3333333333334</ele><time>2026-05-03T08:06:59.676Z</time></trkpt><trkpt lat="39.804105" lon="8.74866"><ele>729.5</ele><time>2026-05-03T08:07:01.676Z</time></trkpt><trkpt lat="39.8040533" lon="8.7485983"><ele>729.6666666666667</ele><time>2026-05-03T08:07:04.677Z</time></trkpt><trkpt lat="39.8039733" lon="8.7485983"><ele>729.8333333333334</ele><time>2026-05-03T08:07:08.676Z</time></trkpt><trkpt lat="39.8039117" lon="8.7486217"><ele>730.0</ele><time>2026-05-03T08:07:10.676Z</time></trkpt><trkpt lat="39.803855" lon="8.74866"><ele>730.0</ele><time>2026-05-03T08:07:12.676Z</time></trkpt><trkpt lat="39.8037917" lon="8.7487417"><ele>730.0</ele><time>2026-05-03T08:07:14.676Z</time></trkpt><trkpt lat="39.8036983" lon="8.7488467"><ele>730.0</ele><time>2026-05-03T08:07:16.676Z</time></trkpt><trkpt lat="39.8036383" lon="8.7488933"><ele>730.0</ele><time>2026-05-03T08:07:17.676Z</time></trkpt><trkpt lat="39.803565" lon="8.748965"><ele>730.0</ele><time>2026-05-03T08:07:18.677Z</time></trkpt><trkpt lat="39.8035133" lon="8.7490183"><ele>730.0</ele><time>2026-05-03T08:07:19.677Z</time></trkpt><trkpt lat="39.8034667" lon="8.7490783"><ele>731.3333333333334</ele><time>2026-05-03T08:07:20.676Z</time></trkpt><trkpt lat="39.8034" lon="8.749225"><ele>732.6666666666667</ele><time>2026-05-03T08:07:22.676Z</time></trkpt><trkpt lat="39.8033767" lon="8.749315"><ele>734.0</ele><time>2026-05-03T08:07:23.676Z</time></trkpt><trkpt lat="39.803335" lon="8.7494167"><ele>735.3333333333334</ele><time>2026-05-03T08:07:24.677Z</time></trkpt><trkpt lat="39.8033" lon="8.7494983"><ele>736.6666666666666</ele><time>2026-05-03T08:07:25.676Z</time></trkpt><trkpt lat="39.80325" lon="8.7495533"><ele>738.0</ele><time>2026-05-03T08:07:26.676Z</time></trkpt><trkpt lat="39.8031867" lon="8.7495967"><ele>738.4</ele><time>2026-05-03T08:07:27.677Z</time></trkpt><trkpt lat="39.8031133" lon="8.7496"><ele>738.8</ele><time>2026-05-03T08:07:28.676Z</time></trkpt><trkpt lat="39.8030333" lon="8.74959"><ele>739.2</ele><time>2026-05-03T08:07:29.676Z</time></trkpt><trkpt lat="39.8029383" lon="8.7495833"><ele>739.6</ele><time>2026-05-03T08:07:30.676Z</time></trkpt><trkpt lat="39.8028333" lon="8.7495883"><ele>740.0</ele><time>2026-05-03T08:07:31.676Z</time></trkpt><trkpt lat="39.8027233" lon="8.7496017"><ele>740.25</ele><time>2026-05-03T08:07:32.677Z</time></trkpt><trkpt lat="39.802605" lon="8.74964"><ele>740.5</ele><time>2026-05-03T08:07:33.676Z</time></trkpt><trkpt lat="39.8024967" lon="8.7497033"><ele>740.75</ele><time>2026-05-03T08:07:34.676Z</time></trkpt><trkpt lat="39.8023967" lon="8.7497633"><ele>741.0</ele><time>2026-05-03T08:07:35.676Z</time></trkpt><trkpt lat="39.80231" lon="8.7498483"><ele>741.0</ele><time>2026-05-03T08:07:36.677Z</time></trkpt><trkpt lat="39.8022267" lon="8.7499117"><ele>741.0</ele><time>2026-05-03T08:07:37.676Z</time></trkpt><trkpt lat="39.802155" lon="8.749955"><ele>741.0</ele><time>2026-05-03T08:07:38.676Z</time></trkpt><trkpt lat="39.8020367" lon="8.7499933"><ele>741.0</ele><time>2026-05-03T08:07:40.676Z</time></trkpt><trkpt lat="39.8019817" lon="8.750045"><ele>741.0</ele><time>2026-05-03T08:07:41.677Z</time></trkpt><trkpt lat="39.8019333" lon="8.7501133"><ele>741.0</ele><time>2026-05-03T08:07:42.676Z</time></trkpt><trkpt lat="39.80189" lon="8.7502033"><ele>741.4</ele><time>2026-05-03T08:07:43.676Z</time></trkpt><trkpt lat="39.8018517" lon="8.7503133"><ele>741.8</ele><time>2026-05-03T08:07:44.676Z</time></trkpt><trkpt lat="39.8018183" lon="8.75043"><ele>742.1999999999999</ele><time>2026-05-03T08:07:45.676Z</time></trkpt><trkpt lat="39.80178" lon="8.7505533"><ele>742.5999999999999</ele><time>2026-05-03T08:07:46.676Z</time></trkpt><trkpt lat="39.8017433" lon="8.7506833"><ele>743.0</ele><time>2026-05-03T08:07:47.676Z</time></trkpt><trkpt lat="39.8016967" lon="8.750815"><ele>743.0</ele><time>2026-05-03T08:07:48.677Z</time></trkpt><trkpt lat="39.8016533" lon="8.75094"><ele>743.0</ele><time>2026-05-03T08:07:49.676Z</time></trkpt><trkpt lat="39.801595" lon="8.7510533"><ele>743.0</ele><time>2026-05-03T08:07:50.676Z</time></trkpt><trkpt lat="39.8015233" lon="8.751175"><ele>743.0</ele><time>2026-05-03T08:07:51.676Z</time></trkpt><trkpt lat="39.8014417" lon="8.7512917"><ele>743.0</ele><time>2026-05-03T08:07:52.676Z</time></trkpt><trkpt lat="39.8013467" lon="8.7514083"><ele>743.0</ele><time>2026-05-03T08:07:53.677Z</time></trkpt><trkpt lat="39.80124" lon="8.751525"><ele>743.0</ele><time>2026-05-03T08:07:54.677Z</time></trkpt><trkpt lat="39.801115" lon="8.7516383"><ele>743.0</ele><time>2026-05-03T08:07:55.677Z</time></trkpt><trkpt lat="39.8009933" lon="8.75173"><ele>743.0</ele><time>2026-05-03T08:07:56.676Z</time></trkpt><trkpt lat="39.80087" lon="8.75182"><ele>742.5</ele><time>2026-05-03T08:07:57.676Z</time></trkpt><trkpt lat="39.8007433" lon="8.7518967"><ele>742.0</ele><time>2026-05-03T08:07:58.676Z</time></trkpt><trkpt lat="39.8006167" lon="8.7519567"><ele>741.5</ele><time>2026-05-03T08:07:59.676Z</time></trkpt><trkpt lat="39.800505" lon="8.752005"><ele>741.0</ele><time>2026-05-03T08:08:00.677Z</time></trkpt><trkpt lat="39.8004033" lon="8.7520567"><ele>741.0</ele><time>2026-05-03T08:08:01.676Z</time></trkpt><trkpt lat="39.800285" lon="8.7521233"><ele>741.0</ele><time>2026-05-03T08:08:02.676Z</time></trkpt><trkpt lat="39.8001683" lon="8.7521933"><ele>741.0</ele><time>2026-05-03T08:08:03.677Z</time></trkpt><trkpt lat="39.8000433" lon="8.7522417"><ele>741.0</ele><time>2026-05-03T08:08:04.677Z</time></trkpt><trkpt lat="39.7999333" lon="8.7522933"><ele>741.5</ele><time>2026-05-03T08:08:05.676Z</time></trkpt><trkpt lat="39.7998233" lon="8.7523517"><ele>742.0</ele><time>2026-05-03T08:08:06.676Z</time></trkpt><trkpt lat="39.7997117" lon="8.75241"><ele>742.5</ele><time>2026-05-03T08:08:07.676Z</time></trkpt><trkpt lat="39.799605" lon="8.7524667"><ele>743.0</ele><time>2026-05-03T08:08:08.676Z</time></trkpt><trkpt lat="39.799495" lon="8.752505"><ele>743.0</ele><time>2026-05-03T08:08:09.676Z</time></trkpt><trkpt lat="39.799385" lon="8.7525683"><ele>743.0</ele><time>2026-05-03T08:08:10.677Z</time></trkpt><trkpt lat="39.79929" lon="8.7526233"><ele>743.0</ele><time>2026-05-03T08:08:11.676Z</time></trkpt><trkpt lat="39.7991983" lon="8.7526667"><ele>743.0</ele><time>2026-05-03T08:08:12.676Z</time></trkpt><trkpt lat="39.7991017" lon="8.75271"><ele>743.0</ele><time>2026-05-03T08:08:13.677Z</time></trkpt><trkpt lat="39.799" lon="8.752745"><ele>744.0</ele><time>2026-05-03T08:08:14.676Z</time></trkpt><trkpt lat="39.7988867" lon="8.7527783"><ele>745.0</ele><time>2026-05-03T08:08:15.677Z</time></trkpt><trkpt lat="39.7987667" lon="8.75281"><ele>746.0</ele><time>2026-05-03T08:08:16.677Z</time></trkpt><trkpt lat="39.79864" lon="8.7528417"><ele>747.0</ele><time>2026-05-03T08:08:17.676Z</time></trkpt><trkpt lat="39.798515" lon="8.752875"><ele>747.25</ele><time>2026-05-03T08:08:18.677Z</time></trkpt><trkpt lat="39.7983883" lon="8.752915"><ele>747.5</ele><time>2026-05-03T08:08:19.677Z</time></trkpt><trkpt lat="39.798255" lon="8.7529667"><ele>747.75</ele><time>2026-05-03T08:08:20.677Z</time></trkpt><trkpt lat="39.7981217" lon="8.7530133"><ele>748.0</ele><time>2026-05-03T08:08:21.676Z</time></trkpt><trkpt lat="39.7979933" lon="8.7530433"><ele>748.0</ele><time>2026-05-03T08:08:22.676Z</time></trkpt><trkpt lat="39.7978717" lon="8.7530883"><ele>748.0</ele><time>2026-05-03T08:08:23.676Z</time></trkpt><trkpt lat="39.7977483" lon="8.7531317"><ele>748.0</ele><time>2026-05-03T08:08:24.676Z</time></trkpt><trkpt lat="39.797615" lon="8.7531683"><ele>748.0</ele><time>2026-05-03T08:08:25.676Z</time></trkpt><trkpt lat="39.7974983" lon="8.7532133"><ele>747.75</ele><time>2026-05-03T08:08:26.677Z</time></trkpt><trkpt lat="39.797395" lon="8.7532867"><ele>747.5</ele><time>2026-05-03T08:08:27.676Z</time></trkpt><trkpt lat="39.7973" lon="8.7533733"><ele>747.25</ele><time>2026-05-03T08:08:28.677Z</time></trkpt><trkpt lat="39.7971933" lon="8.753465"><ele>747.0</ele><time>2026-05-03T08:08:29.676Z</time></trkpt><trkpt lat="39.7970933" lon="8.7535133"><ele>747.2</ele><time>2026-05-03T08:08:30.677Z</time></trkpt><trkpt lat="39.7969917" lon="8.7535583"><ele>747.4000000000001</ele><time>2026-05-03T08:08:31.676Z</time></trkpt><trkpt lat="39.7968933" lon="8.7535967"><ele>747.5999999999999</ele><time>2026-05-03T08:08:32.676Z</time></trkpt><trkpt lat="39.796785" lon="8.7536367"><ele>747.8</ele><time>2026-05-03T08:08:33.676Z</time></trkpt><trkpt lat="39.79667" lon="8.7536633"><ele>748.0</ele><time>2026-05-03T08:08:34.676Z</time></trkpt><trkpt lat="39.796565" lon="8.7536883"><ele>747.1666666666667</ele><time>2026-05-03T08:08:35.676Z</time></trkpt><trkpt lat="39.7964917" lon="8.7537"><ele>746.3333333333334</ele><time>2026-05-03T08:08:36.677Z</time></trkpt><trkpt lat="39.7964017" lon="8.7537067"><ele>745.5</ele><time>2026-05-03T08:08:38.676Z</time></trkpt><trkpt lat="39.7963633" lon="8.7536217"><ele>744.6666666666666</ele><time>2026-05-03T08:08:40.677Z</time></trkpt><trkpt lat="39.7963567" lon="8.7535183"><ele>743.8333333333333</ele><time>2026-05-03T08:08:41.676Z</time></trkpt><trkpt lat="39.7963517" lon="8.7533817"><ele>743.0</ele><time>2026-05-03T08:08:42.677Z</time></trkpt><trkpt lat="39.7963533" lon="8.753195"><ele>742.6666666666666</ele><time>2026-05-03T08:08:43.676Z</time></trkpt><trkpt lat="39.7963417" lon="8.7529833"><ele>742.3333333333334</ele><time>2026-05-03T08:08:44.676Z</time></trkpt><trkpt lat="39.79632" lon="8.7527467"><ele>742.0</ele><time>2026-05-03T08:08:45.676Z</time></trkpt><trkpt lat="39.7963017" lon="8.7524683"><ele>743.0</ele><time>2026-05-03T08:08:46.676Z</time></trkpt><trkpt lat="39.796275" lon="8.752185"><ele>744.0</ele><time>2026-05-03T08:08:47.676Z</time></trkpt><trkpt lat="39.7962583" lon="8.751885"><ele>745.0</ele><time>2026-05-03T08:08:48.676Z</time></trkpt><trkpt lat="39.7962333" lon="8.751565"><ele>746.0</ele><time>2026-05-03T08:08:49.677Z</time></trkpt><trkpt lat="39.796205" lon="8.7512517"><ele>746.5</ele><time>2026-05-03T08:08:50.676Z</time></trkpt><trkpt lat="39.7961883" lon="8.7509467"><ele>747.0</ele><time>2026-05-03T08:08:51.676Z</time></trkpt><trkpt lat="39.7961683" lon="8.750625"><ele>747.0</ele><time>2026-05-03T08:08:52.676Z</time></trkpt><trkpt lat="39.7961467" lon="8.750345"><ele>747.0</ele><time>2026-05-03T08:08:53.676Z</time></trkpt><trkpt lat="39.7960983" lon="8.7501383"><ele>747.0</ele><time>2026-05-03T08:08:54.676Z</time></trkpt><trkpt lat="39.79608" lon="8.7499517"><ele>747.25</ele><time>2026-05-03T08:08:55.676Z</time></trkpt><trkpt lat="39.7960783" lon="8.74978"><ele>747.5</ele><time>2026-05-03T08:08:56.677Z</time></trkpt><trkpt lat="39.7960683" lon="8.7496"><ele>747.75</ele><time>2026-05-03T08:08:57.676Z</time></trkpt><trkpt lat="39.796065" lon="8.7494117"><ele>748.0</ele><time>2026-05-03T08:08:58.677Z</time></trkpt><trkpt lat="39.796055" lon="8.7491933"><ele>749.0</ele><time>2026-05-03T08:08:59.676Z</time></trkpt><trkpt lat="39.796045" lon="8.7489583"><ele>750.0</ele><time>2026-05-03T08:09:00.676Z</time></trkpt><trkpt lat="39.796015" lon="8.7487133"><ele>751.0</ele><time>2026-05-03T08:09:01.677Z</time></trkpt><trkpt lat="39.7959867" lon="8.7484933"><ele>752.0</ele><time>2026-05-03T08:09:02.676Z</time></trkpt><trkpt lat="39.7959583" lon="8.74829"><ele>753.0</ele><time>2026-05-03T08:09:03.676Z</time></trkpt><trkpt lat="39.7959017" lon="8.7481267"><ele>754.0</ele><time>2026-05-03T08:09:04.676Z</time></trkpt><trkpt lat="39.79582" lon="8.7479833"><ele>755.0</ele><time>2026-05-03T08:09:05.677Z</time></trkpt><trkpt lat="39.795725" lon="8.7478683"><ele>755.0</ele><time>2026-05-03T08:09:06.676Z</time></trkpt><trkpt lat="39.795605" lon="8.7477767"><ele>755.0</ele><time>2026-05-03T08:09:07.676Z</time></trkpt><trkpt lat="39.79548" lon="8.7477117"><ele>755.0</ele><time>2026-05-03T08:09:08.676Z</time></trkpt><trkpt lat="39.7953317" lon="8.747645"><ele>755.0</ele><time>2026-05-03T08:09:09.676Z</time></trkpt><trkpt lat="39.7951767" lon="8.7475733"><ele>756.6666666666666</ele><time>2026-05-03T08:09:10.677Z</time></trkpt><trkpt lat="39.7950267" lon="8.7474917"><ele>758.3333333333334</ele><time>2026-05-03T08:09:11.676Z</time></trkpt><trkpt lat="39.7948767" lon="8.7474267"><ele>760.0</ele><time>2026-05-03T08:09:12.677Z</time></trkpt><trkpt lat="39.7947367" lon="8.7473633"><ele>760.0</ele><time>2026-05-03T08:09:13.677Z</time></trkpt><trkpt lat="39.7945967" lon="8.7472717"><ele>760.0</ele><time>2026-05-03T08:09:14.676Z</time></trkpt><trkpt lat="39.7944583" lon="8.7471917"><ele>760.0</ele><time>2026-05-03T08:09:15.676Z</time></trkpt><trkpt lat="39.79432" lon="8.74712"><ele>760.5</ele><time>2026-05-03T08:09:16.676Z</time></trkpt><trkpt lat="39.7941817" lon="8.74705"><ele>761.0</ele><time>2026-05-03T08:09:17.676Z</time></trkpt><trkpt lat="39.7940533" lon="8.7469783"><ele>761.5</ele><time>2026-05-03T08:09:18.676Z</time></trkpt><trkpt lat="39.793925" lon="8.7469067"><ele>762.0</ele><time>2026-05-03T08:09:19.676Z</time></trkpt><trkpt lat="39.7937917" lon="8.746835"><ele>762.0</ele><time>2026-05-03T08:09:20.676Z</time></trkpt><trkpt lat="39.7936467" lon="8.7467567"><ele>762.0</ele><time>2026-05-03T08:09:21.676Z</time></trkpt><trkpt lat="39.793495" lon="8.74667"><ele>762.0</ele><time>2026-05-03T08:09:22.676Z</time></trkpt><trkpt lat="39.7933333" lon="8.7465833"><ele>760.6666666666666</ele><time>2026-05-03T08:09:23.677Z</time></trkpt><trkpt lat="39.793165" lon="8.7465067"><ele>759.3333333333333</ele><time>2026-05-03T08:09:24.676Z</time></trkpt><trkpt lat="39.792995" lon="8.74643"><ele>758.0</ele><time>2026-05-03T08:09:25.677Z</time></trkpt><trkpt lat="39.7928233" lon="8.7463417"><ele>756.6666666666666</ele><time>2026-05-03T08:09:26.676Z</time></trkpt><trkpt lat="39.792645" lon="8.7462567"><ele>755.3333333333334</ele><time>2026-05-03T08:09:27.677Z</time></trkpt><trkpt lat="39.7924567" lon="8.7461633"><ele>754.0</ele><time>2026-05-03T08:09:28.676Z</time></trkpt><trkpt lat="39.792265" lon="8.7460783"><ele>755.0</ele><time>2026-05-03T08:09:29.676Z</time></trkpt><trkpt lat="39.79208" lon="8.7459883"><ele>756.0</ele><time>2026-05-03T08:09:30.677Z</time></trkpt><trkpt lat="39.7919" lon="8.7459067"><ele>757.0</ele><time>2026-05-03T08:09:31.677Z</time></trkpt><trkpt lat="39.7917233" lon="8.745845"><ele>757.0</ele><time>2026-05-03T08:09:32.676Z</time></trkpt><trkpt lat="39.7915467" lon="8.7457883"><ele>757.0</ele><time>2026-05-03T08:09:33.676Z</time></trkpt><trkpt lat="39.79137" lon="8.7457317"><ele>757.0</ele><time>2026-05-03T08:09:34.676Z</time></trkpt><trkpt lat="39.7911917" lon="8.7456983"><ele>757.0</ele><time>2026-05-03T08:09:35.676Z</time></trkpt><trkpt lat="39.7910233" lon="8.7456533"><ele>757.0</ele><time>2026-05-03T08:09:36.677Z</time></trkpt><trkpt lat="39.7908417" lon="8.7456017"><ele>757.0</ele><time>2026-05-03T08:09:37.676Z</time></trkpt><trkpt lat="39.7906567" lon="8.7455583"><ele>757.6666666666667</ele><time>2026-05-03T08:09:38.676Z</time></trkpt><trkpt lat="39.7904717" lon="8.7455233"><ele>758.3333333333334</ele><time>2026-05-03T08:09:39.676Z</time></trkpt><trkpt lat="39.7902917" lon="8.745495"><ele>759.0</ele><time>2026-05-03T08:09:40.676Z</time></trkpt><trkpt lat="39.7901083" lon="8.7454683"><ele>759.0</ele><time>2026-05-03T08:09:41.676Z</time></trkpt><trkpt lat="39.7899083" lon="8.7454317"><ele>759.0</ele><time>2026-05-03T08:09:42.677Z</time></trkpt><trkpt lat="39.78971" lon="8.7453917"><ele>759.0</ele><time>2026-05-03T08:09:43.676Z</time></trkpt><trkpt lat="39.7895167" lon="8.7453517"><ele>759.0</ele><time>2026-05-03T08:09:44.677Z</time></trkpt><trkpt lat="39.7893367" lon="8.74533"><ele>759.0</ele><time>2026-05-03T08:09:45.676Z</time></trkpt><trkpt lat="39.7891617" lon="8.745295"><ele>759.0</ele><time>2026-05-03T08:09:46.676Z</time></trkpt><trkpt lat="39.7890167" lon="8.74526"><ele>759.0</ele><time>2026-05-03T08:09:47.676Z</time></trkpt><trkpt lat="39.7888717" lon="8.745225"><ele>759.0</ele><time>2026-05-03T08:09:48.676Z</time></trkpt><trkpt lat="39.78873" lon="8.74518"><ele>759.0</ele><time>2026-05-03T08:09:49.677Z</time></trkpt><trkpt lat="39.788575" lon="8.74513"><ele>761.0</ele><time>2026-05-03T08:09:50.676Z</time></trkpt><trkpt lat="39.78843" lon="8.7450583"><ele>763.0</ele><time>2026-05-03T08:09:51.677Z</time></trkpt><trkpt lat="39.7882767" lon="8.7449533"><ele>765.0</ele><time>2026-05-03T08:09:52.676Z</time></trkpt><trkpt lat="39.7881267" lon="8.74482"><ele>765.0</ele><time>2026-05-03T08:09:53.677Z</time></trkpt><trkpt lat="39.78798" lon="8.7446883"><ele>765.0</ele><time>2026-05-03T08:09:54.677Z</time></trkpt><trkpt lat="39.7878483" lon="8.7445567"><ele>765.0</ele><time>2026-05-03T08:09:55.676Z</time></trkpt><trkpt lat="39.7877133" lon="8.7444217"><ele>766.6666666666667</ele><time>2026-05-03T08:09:56.676Z</time></trkpt><trkpt lat="39.7875817" lon="8.744305"><ele>768.3333333333334</ele><time>2026-05-03T08:09:57.677Z</time></trkpt><trkpt lat="39.787435" lon="8.74418"><ele>770.0</ele><time>2026-05-03T08:09:58.677Z</time></trkpt><trkpt lat="39.7872967" lon="8.7440617"><ele>770.0</ele><time>2026-05-03T08:09:59.676Z</time></trkpt><trkpt lat="39.7871633" lon="8.7439533"><ele>770.0</ele><time>2026-05-03T08:10:00.677Z</time></trkpt><trkpt lat="39.7870433" lon="8.7438383"><ele>770.0</ele><time>2026-05-03T08:10:01.677Z</time></trkpt><trkpt lat="39.7869117" lon="8.74371"><ele>769.6666666666667</ele><time>2026-05-03T08:10:02.676Z</time></trkpt><trkpt lat="39.7867933" lon="8.7435733"><ele>769.3333333333333</ele><time>2026-05-03T08:10:03.676Z</time></trkpt><trkpt lat="39.78668" lon="8.7434417"><ele>769.0</ele><time>2026-05-03T08:10:04.676Z</time></trkpt><trkpt lat="39.786565" lon="8.7433083"><ele>770.5</ele><time>2026-05-03T08:10:05.677Z</time></trkpt><trkpt lat="39.7864583" lon="8.7431833"><ele>772.0</ele><time>2026-05-03T08:10:06.676Z</time></trkpt><trkpt lat="39.78636" lon="8.7430783"><ele>773.5</ele><time>2026-05-03T08:10:07.677Z</time></trkpt><trkpt lat="39.7862567" lon="8.7429883"><ele>775.0</ele><time>2026-05-03T08:10:08.677Z</time></trkpt><trkpt lat="39.7861383" lon="8.742915"><ele>775.25</ele><time>2026-05-03T08:10:09.677Z</time></trkpt><trkpt lat="39.7860067" lon="8.7428683"><ele>775.5</ele><time>2026-05-03T08:10:10.676Z</time></trkpt><trkpt lat="39.785865" lon="8.7428217"><ele>775.75</ele><time>2026-05-03T08:10:11.676Z</time></trkpt><trkpt lat="39.7857233" lon="8.74275"><ele>776.0</ele><time>2026-05-03T08:10:12.676Z</time></trkpt><trkpt lat="39.7855767" lon="8.7426517"><ele>778.0</ele><time>2026-05-03T08:10:13.677Z</time></trkpt><trkpt lat="39.78543" lon="8.7425583"><ele>780.0</ele><time>2026-05-03T08:10:14.677Z</time></trkpt><trkpt lat="39.7852667" lon="8.7424717"><ele>782.0</ele><time>2026-05-03T08:10:15.676Z</time></trkpt><trkpt lat="39.785105" lon="8.742405"><ele>782.0</ele><time>2026-05-03T08:10:16.676Z</time></trkpt><trkpt lat="39.7849217" lon="8.74233"><ele>782.0</ele><time>2026-05-03T08:10:17.677Z</time></trkpt><trkpt lat="39.7847483" lon="8.7422717"><ele>782.0</ele><time>2026-05-03T08:10:18.677Z</time></trkpt><trkpt lat="39.78457" lon="8.742225"><ele>782.0</ele><time>2026-05-03T08:10:19.676Z</time></trkpt><trkpt lat="39.7844133" lon="8.7422033"><ele>782.0</ele><time>2026-05-03T08:10:20.676Z</time></trkpt><trkpt lat="39.7842517" lon="8.7421833"><ele>782.0</ele><time>2026-05-03T08:10:21.677Z</time></trkpt><trkpt lat="39.7840867" lon="8.7421817"><ele>781.6666666666667</ele><time>2026-05-03T08:10:22.676Z</time></trkpt><trkpt lat="39.7839117" lon="8.7421983"><ele>781.3333333333333</ele><time>2026-05-03T08:10:23.676Z</time></trkpt><trkpt lat="39.7837383" lon="8.7422067"><ele>781.0</ele><time>2026-05-03T08:10:24.676Z</time></trkpt><trkpt lat="39.7835583" lon="8.7422083"><ele>780.3333333333333</ele><time>2026-05-03T08:10:25.676Z</time></trkpt><trkpt lat="39.7833817" lon="8.7422183"><ele>779.6666666666667</ele><time>2026-05-03T08:10:26.676Z</time></trkpt><trkpt lat="39.7832017" lon="8.742235"><ele>779.0</ele><time>2026-05-03T08:10:27.676Z</time></trkpt><trkpt lat="39.78303" lon="8.742255"><ele>779.0</ele><time>2026-05-03T08:10:28.677Z</time></trkpt><trkpt lat="39.7828567" lon="8.7422933"><ele>779.0</ele><time>2026-05-03T08:10:29.676Z</time></trkpt><trkpt lat="39.782685" lon="8.742325"><ele>779.0</ele><time>2026-05-03T08:10:30.676Z</time></trkpt><trkpt lat="39.7825367" lon="8.7423383"><ele>779.25</ele><time>2026-05-03T08:10:31.676Z</time></trkpt><trkpt lat="39.782415" lon="8.7423817"><ele>779.5</ele><time>2026-05-03T08:10:32.676Z</time></trkpt><trkpt lat="39.7823133" lon="8.74245"><ele>779.75</ele><time>2026-05-03T08:10:33.676Z</time></trkpt><trkpt lat="39.7822183" lon="8.74253"><ele>780.0</ele><time>2026-05-03T08:10:34.676Z</time></trkpt><trkpt lat="39.7821417" lon="8.74264"><ele>779.3333333333333</ele><time>2026-05-03T08:10:35.676Z</time></trkpt><trkpt lat="39.78204" lon="8.7427767"><ele>778.6666666666666</ele><time>2026-05-03T08:10:36.676Z</time></trkpt><trkpt lat="39.7819367" lon="8.7429317"><ele>778.0</ele><time>2026-05-03T08:10:37.676Z</time></trkpt><trkpt lat="39.78182" lon="8.7430683"><ele>779.3333333333333</ele><time>2026-05-03T08:10:38.676Z</time></trkpt><trkpt lat="39.78171" lon="8.7432383"><ele>780.6666666666667</ele><time>2026-05-03T08:10:39.676Z</time></trkpt><trkpt lat="39.78159" lon="8.7434117"><ele>782.0</ele><time>2026-05-03T08:10:40.677Z</time></trkpt><trkpt lat="39.7814733" lon="8.7435817"><ele>782.0</ele><time>2026-05-03T08:10:41.676Z</time></trkpt><trkpt lat="39.7813417" lon="8.74377"><ele>782.0</ele><time>2026-05-03T08:10:42.677Z</time></trkpt><trkpt lat="39.7812267" lon="8.7439417"><ele>782.0</ele><time>2026-05-03T08:10:43.676Z</time></trkpt><trkpt lat="39.781115" lon="8.744105"><ele>784.3333333333334</ele><time>2026-05-03T08:10:44.677Z</time></trkpt><trkpt lat="39.781" lon="8.7442767"><ele>786.6666666666667</ele><time>2026-05-03T08:10:45.677Z</time></trkpt><trkpt lat="39.780885" lon="8.7444367"><ele>789.0</ele><time>2026-05-03T08:10:46.676Z</time></trkpt><trkpt lat="39.7807933" lon="8.7445867"><ele>790.0</ele><time>2026-05-03T08:10:47.676Z</time></trkpt><trkpt lat="39.7807017" lon="8.7447533"><ele>791.0</ele><time>2026-05-03T08:10:48.676Z</time></trkpt><trkpt lat="39.780605" lon="8.744895"><ele>792.0</ele><time>2026-05-03T08:10:49.677Z</time></trkpt><trkpt lat="39.7805067" lon="8.745025"><ele>793.0</ele><time>2026-05-03T08:10:50.676Z</time></trkpt><trkpt lat="39.7804083" lon="8.745145"><ele>793.25</ele><time>2026-05-03T08:10:51.677Z</time></trkpt><trkpt lat="39.7803133" lon="8.7452717"><ele>793.5</ele><time>2026-05-03T08:10:52.676Z</time></trkpt><trkpt lat="39.7802067" lon="8.7454133"><ele>793.75</ele><time>2026-05-03T08:10:53.676Z</time></trkpt><trkpt lat="39.7800983" lon="8.7455683"><ele>794.0</ele><time>2026-05-03T08:10:54.677Z</time></trkpt><trkpt lat="39.7799933" lon="8.745715"><ele>795.25</ele><time>2026-05-03T08:10:55.677Z</time></trkpt><trkpt lat="39.7799017" lon="8.7458583"><ele>796.5</ele><time>2026-05-03T08:10:56.676Z</time></trkpt><trkpt lat="39.7798083" lon="8.7459733"><ele>797.75</ele><time>2026-05-03T08:10:57.676Z</time></trkpt><trkpt lat="39.77972" lon="8.7460667"><ele>799.0</ele><time>2026-05-03T08:10:58.676Z</time></trkpt><trkpt lat="39.7796533" lon="8.74614"><ele>799.1666666666666</ele><time>2026-05-03T08:10:59.676Z</time></trkpt><trkpt lat="39.7795883" lon="8.7461833"><ele>799.3333333333333</ele><time>2026-05-03T08:11:00.677Z</time></trkpt><trkpt lat="39.7795217" lon="8.7462017"><ele>799.5</ele><time>2026-05-03T08:11:01.677Z</time></trkpt><trkpt lat="39.7794317" lon="8.74622"><ele>799.6666666666667</ele><time>2026-05-03T08:11:02.676Z</time></trkpt><trkpt lat="39.7793367" lon="8.7462233"><ele>799.8333333333334</ele><time>2026-05-03T08:11:03.676Z</time></trkpt><trkpt lat="39.779235" lon="8.7462117"><ele>800.0</ele><time>2026-05-03T08:11:04.676Z</time></trkpt><trkpt lat="39.77914" lon="8.7461833"><ele>800.0000000000001</ele><time>2026-05-03T08:11:05.676Z</time></trkpt><trkpt lat="39.7790583" lon="8.746135"><ele>800.0</ele><time>2026-05-03T08:11:06.676Z</time></trkpt><trkpt lat="39.7789983" lon="8.7460683"><ele>800.0</ele><time>2026-05-03T08:11:07.677Z</time></trkpt><trkpt lat="39.7789333" lon="8.745995"><ele>800.0</ele><time>2026-05-03T08:11:08.677Z</time></trkpt><trkpt lat="39.778865" lon="8.7459267"><ele>800.0000000000001</ele><time>2026-05-03T08:11:09.676Z</time></trkpt><trkpt lat="39.7787867" lon="8.7458717"><ele>800.0</ele><time>2026-05-03T08:11:10.677Z</time></trkpt><trkpt lat="39.7787233" lon="8.745835"><ele>799.2</ele><time>2026-05-03T08:11:11.676Z</time></trkpt><trkpt lat="39.7786267" lon="8.7457833"><ele>798.4</ele><time>2026-05-03T08:11:13.676Z</time></trkpt><trkpt lat="39.778535" lon="8.7457333"><ele>797.5999999999999</ele><time>2026-05-03T08:11:15.676Z</time></trkpt><trkpt lat="39.7784683" lon="8.7457167"><ele>796.8</ele><time>2026-05-03T08:11:17.677Z</time></trkpt><trkpt lat="39.7784183" lon="8.7457967"><ele>796.0</ele><time>2026-05-03T08:11:20.676Z</time></trkpt><trkpt lat="39.7783333" lon="8.7459067"><ele>794.8333333333333</ele><time>2026-05-03T08:12:29.676Z</time></trkpt><trkpt lat="39.77828" lon="8.7459617"><ele>793.6666666666666</ele><time>2026-05-03T08:12:30.676Z</time></trkpt><trkpt lat="39.7782267" lon="8.746035"><ele>792.5</ele><time>2026-05-03T08:12:31.676Z</time></trkpt><trkpt lat="39.77816" lon="8.7461167"><ele>791.3333333333333</ele><time>2026-05-03T08:12:32.676Z</time></trkpt><trkpt lat="39.77809" lon="8.7462"><ele>790.1666666666666</ele><time>2026-05-03T08:12:33.677Z</time></trkpt><trkpt lat="39.7780117" lon="8.74627"><ele>789.0</ele><time>2026-05-03T08:12:34.676Z</time></trkpt><trkpt lat="39.7779383" lon="8.7463317"><ele>789.0</ele><time>2026-05-03T08:12:35.676Z</time></trkpt><trkpt lat="39.7778617" lon="8.7463867"><ele>789.0</ele><time>2026-05-03T08:12:36.677Z</time></trkpt><trkpt lat="39.7777833" lon="8.7464483"><ele>789.0</ele><time>2026-05-03T08:12:37.677Z</time></trkpt><trkpt lat="39.7777" lon="8.7465083"><ele>789.0</ele><time>2026-05-03T08:12:38.676Z</time></trkpt><trkpt lat="39.7776083" lon="8.7465533"><ele>789.0</ele><time>2026-05-03T08:12:39.676Z</time></trkpt><trkpt lat="39.7775" lon="8.7465933"><ele>787.0</ele><time>2026-05-03T08:12:40.676Z</time></trkpt><trkpt lat="39.7773783" lon="8.7466483"><ele>785.0</ele><time>2026-05-03T08:12:41.676Z</time></trkpt><trkpt lat="39.77726" lon="8.7467233"><ele>783.0</ele><time>2026-05-03T08:12:42.677Z</time></trkpt><trkpt lat="39.77715" lon="8.7468167"><ele>781.0</ele><time>2026-05-03T08:12:43.676Z</time></trkpt><trkpt lat="39.7770533" lon="8.7469333"><ele>779.25</ele><time>2026-05-03T08:12:44.677Z</time></trkpt><trkpt lat="39.77696" lon="8.7470733"><ele>777.5</ele><time>2026-05-03T08:12:45.677Z</time></trkpt><trkpt lat="39.7768683" lon="8.7471983"><ele>775.75</ele><time>2026-05-03T08:12:46.677Z</time></trkpt><trkpt lat="39.7767933" lon="8.7472917"><ele>774.0</ele><time>2026-05-03T08:12:47.676Z</time></trkpt><trkpt lat="39.7767167" lon="8.7473733"><ele>774.0</ele><time>2026-05-03T08:12:48.676Z</time></trkpt><trkpt lat="39.7766317" lon="8.7474383"><ele>774.0</ele><time>2026-05-03T08:12:49.676Z</time></trkpt><trkpt lat="39.77653" lon="8.7474817"><ele>774.0</ele><time>2026-05-03T08:12:50.676Z</time></trkpt><trkpt lat="39.776425" lon="8.7475183"><ele>774.0</ele><time>2026-05-03T08:12:51.676Z</time></trkpt><trkpt lat="39.7763217" lon="8.7475417"><ele>774.0</ele><time>2026-05-03T08:12:52.677Z</time></trkpt><trkpt lat="39.7762217" lon="8.7475617"><ele>774.0</ele><time>2026-05-03T08:12:53.677Z</time></trkpt><trkpt lat="39.7761317" lon="8.7475683"><ele>774.0</ele><time>2026-05-03T08:12:54.677Z</time></trkpt><trkpt lat="39.7760483" lon="8.7476"><ele>774.0</ele><time>2026-05-03T08:12:55.676Z</time></trkpt><trkpt lat="39.77597" lon="8.7476383"><ele>774.0</ele><time>2026-05-03T08:12:56.676Z</time></trkpt><trkpt lat="39.7758967" lon="8.7476633"><ele>774.0</ele><time>2026-05-03T08:12:57.676Z</time></trkpt><trkpt lat="39.7758217" lon="8.7476617"><ele>774.0</ele><time>2026-05-03T08:12:58.676Z</time></trkpt><trkpt lat="39.7757433" lon="8.747635"><ele>772.6</ele><time>2026-05-03T08:12:59.677Z</time></trkpt><trkpt lat="39.7756583" lon="8.747575"><ele>771.2</ele><time>2026-05-03T08:13:00.676Z</time></trkpt><trkpt lat="39.775565" lon="8.7475133"><ele>769.8000000000001</ele><time>2026-05-03T08:13:01.676Z</time></trkpt><trkpt lat="39.7754767" lon="8.74745"><ele>768.4000000000001</ele><time>2026-05-03T08:13:02.676Z</time></trkpt><trkpt lat="39.77539" lon="8.7474033"><ele>767.0</ele><time>2026-05-03T08:13:03.677Z</time></trkpt><trkpt lat="39.7753133" lon="8.7473733"><ele>767.0</ele><time>2026-05-03T08:13:04.676Z</time></trkpt><trkpt lat="39.77524" lon="8.747385"><ele>767.0</ele><time>2026-05-03T08:13:05.676Z</time></trkpt><trkpt lat="39.7751667" lon="8.7474383"><ele>767.0</ele><time>2026-05-03T08:13:06.677Z</time></trkpt><trkpt lat="39.7750783" lon="8.7475133"><ele>767.0</ele><time>2026-05-03T08:13:07.676Z</time></trkpt><trkpt lat="39.7749683" lon="8.7475833"><ele>767.0</ele><time>2026-05-03T08:13:08.676Z</time></trkpt><trkpt lat="39.774855" lon="8.7476483"><ele>764.75</ele><time>2026-05-03T08:13:09.677Z</time></trkpt><trkpt lat="39.7747383" lon="8.7477083"><ele>762.5</ele><time>2026-05-03T08:13:10.677Z</time></trkpt><trkpt lat="39.77463" lon="8.747785"><ele>760.25</ele><time>2026-05-03T08:13:11.676Z</time></trkpt><trkpt lat="39.7745267" lon="8.7478683"><ele>758.0</ele><time>2026-05-03T08:13:12.677Z</time></trkpt><trkpt lat="39.7744333" lon="8.7479417"><ele>754.25</ele><time>2026-05-03T08:13:13.676Z</time></trkpt><trkpt lat="39.7743383" lon="8.7479967"><ele>750.5</ele><time>2026-05-03T08:13:14.676Z</time></trkpt><trkpt lat="39.774225" lon="8.7480333"><ele>746.75</ele><time>2026-05-03T08:13:15.676Z</time></trkpt><trkpt lat="39.7741033" lon="8.7480533"><ele>743.0</ele><time>2026-05-03T08:13:16.676Z</time></trkpt><trkpt lat="39.7739733" lon="8.7480567"><ele>743.0</ele><time>2026-05-03T08:13:17.676Z</time></trkpt><trkpt lat="39.77383" lon="8.7480567"><ele>743.0</ele><time>2026-05-03T08:13:18.676Z</time></trkpt><trkpt lat="39.7736933" lon="8.748085"><ele>743.0</ele><time>2026-05-03T08:13:19.676Z</time></trkpt><trkpt lat="39.7735583" lon="8.748115"><ele>743.0</ele><time>2026-05-03T08:13:20.676Z</time></trkpt><trkpt lat="39.7734167" lon="8.74815"><ele>744.3333333333333</ele><time>2026-05-03T08:13:21.676Z</time></trkpt><trkpt lat="39.773255" lon="8.7481967"><ele>745.6666666666666</ele><time>2026-05-03T08:13:22.676Z</time></trkpt><trkpt lat="39.7730883" lon="8.7482483"><ele>747.0</ele><time>2026-05-03T08:13:23.676Z</time></trkpt><trkpt lat="39.7729183" lon="8.74827"><ele>747.0</ele><time>2026-05-03T08:13:24.676Z</time></trkpt><trkpt lat="39.772745" lon="8.7482767"><ele>747.0</ele><time>2026-05-03T08:13:25.676Z</time></trkpt><trkpt lat="39.772575" lon="8.7482867"><ele>747.0</ele><time>2026-05-03T08:13:26.676Z</time></trkpt><trkpt lat="39.77242" lon="8.74831"><ele>747.6666666666666</ele><time>2026-05-03T08:13:27.677Z</time></trkpt><trkpt lat="39.772275" lon="8.7483767"><ele>748.3333333333333</ele><time>2026-05-03T08:13:28.676Z</time></trkpt><trkpt lat="39.7721417" lon="8.7484317"><ele>749.0</ele><time>2026-05-03T08:13:29.676Z</time></trkpt><trkpt lat="39.7719817" lon="8.7484917"><ele>748.6666666666666</ele><time>2026-05-03T08:13:30.676Z</time></trkpt><trkpt lat="39.7718183" lon="8.7485283"><ele>748.3333333333334</ele><time>2026-05-03T08:13:31.676Z</time></trkpt><trkpt lat="39.7716617" lon="8.7485567"><ele>748.0</ele><time>2026-05-03T08:13:32.676Z</time></trkpt><trkpt lat="39.7715067" lon="8.7486183"><ele>744.0</ele><time>2026-05-03T08:13:33.676Z</time></trkpt><trkpt lat="39.7713517" lon="8.7487083"><ele>740.0</ele><time>2026-05-03T08:13:34.676Z</time></trkpt><trkpt lat="39.7711983" lon="8.748815"><ele>736.0</ele><time>2026-05-03T08:13:35.677Z</time></trkpt><trkpt lat="39.7710517" lon="8.7489383"><ele>737.0</ele><time>2026-05-03T08:13:36.676Z</time></trkpt><trkpt lat="39.770915" lon="8.7490383"><ele>738.0</ele><time>2026-05-03T08:13:37.677Z</time></trkpt><trkpt lat="39.77078" lon="8.7491483"><ele>739.0</ele><time>2026-05-03T08:13:38.677Z</time></trkpt><trkpt lat="39.77065" lon="8.7492383"><ele>739.0</ele><time>2026-05-03T08:13:39.676Z</time></trkpt><trkpt lat="39.7705167" lon="8.7493283"><ele>739.0</ele><time>2026-05-03T08:13:40.676Z</time></trkpt><trkpt lat="39.770385" lon="8.7494217"><ele>739.0</ele><time>2026-05-03T08:13:41.676Z</time></trkpt><trkpt lat="39.7702567" lon="8.7494817"><ele>739.0</ele><time>2026-05-03T08:13:42.676Z</time></trkpt><trkpt lat="39.77016" lon="8.7495417"><ele>737.0</ele><time>2026-05-03T08:13:43.676Z</time></trkpt><trkpt lat="39.770065" lon="8.7496483"><ele>735.0</ele><time>2026-05-03T08:13:44.676Z</time></trkpt><trkpt lat="39.7699983" lon="8.7498"><ele>733.0</ele><time>2026-05-03T08:13:45.676Z</time></trkpt><trkpt lat="39.7699417" lon="8.749985"><ele>731.0</ele><time>2026-05-03T08:13:46.676Z</time></trkpt><trkpt lat="39.769885" lon="8.7501983"><ele>727.6666666666666</ele><time>2026-05-03T08:13:47.677Z</time></trkpt><trkpt lat="39.769825" lon="8.75042"><ele>724.3333333333334</ele><time>2026-05-03T08:13:48.677Z</time></trkpt><trkpt lat="39.76977" lon="8.750645"><ele>721.0</ele><time>2026-05-03T08:13:49.677Z</time></trkpt><trkpt lat="39.769715" lon="8.750855"><ele>719.5</ele><time>2026-05-03T08:13:50.676Z</time></trkpt><trkpt lat="39.7696667" lon="8.751045"><ele>718.0</ele><time>2026-05-03T08:13:51.676Z</time></trkpt><trkpt lat="39.7696217" lon="8.7512283"><ele>716.5</ele><time>2026-05-03T08:13:52.676Z</time></trkpt><trkpt lat="39.769575" lon="8.751395"><ele>715.0</ele><time>2026-05-03T08:13:53.676Z</time></trkpt><trkpt lat="39.76951" lon="8.75155"><ele>715.0</ele><time>2026-05-03T08:13:54.676Z</time></trkpt><trkpt lat="39.7694117" lon="8.7517133"><ele>715.0</ele><time>2026-05-03T08:13:55.676Z</time></trkpt><trkpt lat="39.7692967" lon="8.7518783"><ele>715.0</ele><time>2026-05-03T08:13:56.676Z</time></trkpt><trkpt lat="39.7691783" lon="8.7520433"><ele>715.0</ele><time>2026-05-03T08:13:57.676Z</time></trkpt><trkpt lat="39.76908" lon="8.7522217"><ele>715.0</ele><time>2026-05-03T08:13:58.676Z</time></trkpt><trkpt lat="39.769005" lon="8.7524317"><ele>715.0</ele><time>2026-05-03T08:13:59.676Z</time></trkpt><trkpt lat="39.768955" lon="8.752655"><ele>712.6666666666667</ele><time>2026-05-03T08:14:00.676Z</time></trkpt><trkpt lat="39.7689117" lon="8.75287"><ele>710.3333333333334</ele><time>2026-05-03T08:14:01.676Z</time></trkpt><trkpt lat="39.768875" lon="8.75307"><ele>708.0</ele><time>2026-05-03T08:14:02.677Z</time></trkpt><trkpt lat="39.7688183" lon="8.7532617"><ele>708.0</ele><time>2026-05-03T08:14:03.676Z</time></trkpt><trkpt lat="39.7687717" lon="8.75343"><ele>708.0</ele><time>2026-05-03T08:14:04.676Z</time></trkpt><trkpt lat="39.7687433" lon="8.7535917"><ele>708.0</ele><time>2026-05-03T08:14:05.676Z</time></trkpt><trkpt lat="39.76875" lon="8.7537433"><ele>708.0</ele><time>2026-05-03T08:14:06.676Z</time></trkpt><trkpt lat="39.768775" lon="8.7538867"><ele>706.5999999999999</ele><time>2026-05-03T08:14:07.676Z</time></trkpt><trkpt lat="39.7688117" lon="8.75402"><ele>705.1999999999999</ele><time>2026-05-03T08:14:08.677Z</time></trkpt><trkpt lat="39.7688533" lon="8.75415"><ele>703.8</ele><time>2026-05-03T08:14:09.677Z</time></trkpt><trkpt lat="39.768885" lon="8.7542733"><ele>702.4</ele><time>2026-05-03T08:14:10.676Z</time></trkpt><trkpt lat="39.7689233" lon="8.7543883"><ele>701.0</ele><time>2026-05-03T08:14:11.676Z</time></trkpt><trkpt lat="39.7689667" lon="8.7544833"><ele>699.5999999999999</ele><time>2026-05-03T08:14:12.677Z</time></trkpt><trkpt lat="39.7690267" lon="8.7545783"><ele>698.2</ele><time>2026-05-03T08:14:13.677Z</time></trkpt><trkpt lat="39.7691" lon="8.7546633"><ele>696.8</ele><time>2026-05-03T08:14:14.677Z</time></trkpt><trkpt lat="39.7691667" lon="8.754745"><ele>695.4000000000001</ele><time>2026-05-03T08:14:15.676Z</time></trkpt><trkpt lat="39.76921" lon="8.754835"><ele>694.0</ele><time>2026-05-03T08:14:16.676Z</time></trkpt><trkpt lat="39.7692483" lon="8.7549383"><ele>694.0</ele><time>2026-05-03T08:14:17.677Z</time></trkpt><trkpt lat="39.769275" lon="8.75505"><ele>694.0</ele><time>2026-05-03T08:14:18.676Z</time></trkpt><trkpt lat="39.7693033" lon="8.7551617"><ele>694.0</ele><time>2026-05-03T08:14:19.676Z</time></trkpt><trkpt lat="39.76933" lon="8.7552667"><ele>694.0</ele><time>2026-05-03T08:14:20.676Z</time></trkpt><trkpt lat="39.7693667" lon="8.75537"><ele>694.0</ele><time>2026-05-03T08:14:21.676Z</time></trkpt><trkpt lat="39.76941" lon="8.755465"><ele>694.0</ele><time>2026-05-03T08:14:22.676Z</time></trkpt><trkpt lat="39.76946" lon="8.7555633"><ele>692.1666666666667</ele><time>2026-05-03T08:14:23.676Z</time></trkpt><trkpt lat="39.7695367" lon="8.7556483"><ele>690.3333333333334</ele><time>2026-05-03T08:14:24.677Z</time></trkpt><trkpt lat="39.7696183" lon="8.7557067"><ele>688.5</ele><time>2026-05-03T08:14:25.676Z</time></trkpt><trkpt lat="39.7697017" lon="8.7557433"><ele>686.6666666666666</ele><time>2026-05-03T08:14:26.676Z</time></trkpt><trkpt lat="39.7697817" lon="8.7557817"><ele>684.8333333333333</ele><time>2026-05-03T08:14:27.676Z</time></trkpt><trkpt lat="39.7698467" lon="8.7558367"><ele>683.0</ele><time>2026-05-03T08:14:28.677Z</time></trkpt><trkpt lat="39.7698933" lon="8.7559217"><ele>683.0</ele><time>2026-05-03T08:14:29.676Z</time></trkpt><trkpt lat="39.769925" lon="8.75602"><ele>683.0</ele><time>2026-05-03T08:14:30.676Z</time></trkpt><trkpt lat="39.7699333" lon="8.75613"><ele>683.0</ele><time>2026-05-03T08:14:31.676Z</time></trkpt><trkpt lat="39.7699167" lon="8.756245"><ele>683.0</ele><time>2026-05-03T08:14:32.676Z</time></trkpt><trkpt lat="39.7698733" lon="8.756355"><ele>683.0</ele><time>2026-05-03T08:14:33.676Z</time></trkpt><trkpt lat="39.7698117" lon="8.7564683"><ele>681.2</ele><time>2026-05-03T08:14:34.676Z</time></trkpt><trkpt lat="39.769735" lon="8.7565683"><ele>679.4</ele><time>2026-05-03T08:14:35.677Z</time></trkpt><trkpt lat="39.76966" lon="8.7566567"><ele>677.6</ele><time>2026-05-03T08:14:36.677Z</time></trkpt><trkpt lat="39.7695917" lon="8.7567483"><ele>675.8000000000001</ele><time>2026-05-03T08:14:37.677Z</time></trkpt><trkpt lat="39.7695317" lon="8.7568533"><ele>674.0</ele><time>2026-05-03T08:14:38.676Z</time></trkpt><trkpt lat="39.7694817" lon="8.7569683"><ele>673.0</ele><time>2026-05-03T08:14:39.676Z</time></trkpt><trkpt lat="39.7694283" lon="8.7571067"><ele>672.0</ele><time>2026-05-03T08:14:40.676Z</time></trkpt><trkpt lat="39.7693783" lon="8.75724"><ele>671.0</ele><time>2026-05-03T08:14:41.676Z</time></trkpt><trkpt lat="39.76934" lon="8.7573667"><ele>670.0</ele><time>2026-05-03T08:14:42.676Z</time></trkpt><trkpt lat="39.7693033" lon="8.7574917"><ele>669.0</ele><time>2026-05-03T08:14:43.677Z</time></trkpt><trkpt lat="39.7692683" lon="8.7576183"><ele>666.4000000000001</ele><time>2026-05-03T08:14:44.676Z</time></trkpt><trkpt lat="39.7692283" lon="8.7577467"><ele>663.8</ele><time>2026-05-03T08:14:45.676Z</time></trkpt><trkpt lat="39.769185" lon="8.7578817"><ele>661.2</ele><time>2026-05-03T08:14:46.677Z</time></trkpt><trkpt lat="39.76914" lon="8.7580117"><ele>658.5999999999999</ele><time>2026-05-03T08:14:47.676Z</time></trkpt><trkpt lat="39.769095" lon="8.7581367"><ele>656.0</ele><time>2026-05-03T08:14:48.676Z</time></trkpt><trkpt lat="39.76904" lon="8.75826"><ele>656.0</ele><time>2026-05-03T08:14:49.676Z</time></trkpt><trkpt lat="39.7689917" lon="8.7583933"><ele>656.0</ele><time>2026-05-03T08:14:50.676Z</time></trkpt><trkpt lat="39.7689167" lon="8.7585433"><ele>656.0</ele><time>2026-05-03T08:14:51.676Z</time></trkpt><trkpt lat="39.768825" lon="8.7586717"><ele>656.0</ele><time>2026-05-03T08:14:52.677Z</time></trkpt><trkpt lat="39.7687417" lon="8.7587967"><ele>655.75</ele><time>2026-05-03T08:14:53.676Z</time></trkpt><trkpt lat="39.7686533" lon="8.7589183"><ele>655.5</ele><time>2026-05-03T08:14:54.677Z</time></trkpt><trkpt lat="39.76857" lon="8.7590417"><ele>655.25</ele><time>2026-05-03T08:14:55.677Z</time></trkpt><trkpt lat="39.76848" lon="8.7591717"><ele>655.0</ele><time>2026-05-03T08:14:56.676Z</time></trkpt><trkpt lat="39.7683817" lon="8.7592933"><ele>653.0</ele><time>2026-05-03T08:14:57.676Z</time></trkpt><trkpt lat="39.768285" lon="8.7594033"><ele>651.0</ele><time>2026-05-03T08:14:58.676Z</time></trkpt><trkpt lat="39.7681983" lon="8.7595167"><ele>649.0</ele><time>2026-05-03T08:14:59.676Z</time></trkpt><trkpt lat="39.7681083" lon="8.75964"><ele>647.0</ele><time>2026-05-03T08:15:00.676Z</time></trkpt><trkpt lat="39.768015" lon="8.7597767"><ele>647.0</ele><time>2026-05-03T08:15:01.676Z</time></trkpt><trkpt lat="39.7679283" lon="8.759935"><ele>647.0</ele><time>2026-05-03T08:15:02.676Z</time></trkpt><trkpt lat="39.76785" lon="8.7601067"><ele>647.0</ele><time>2026-05-03T08:15:03.677Z</time></trkpt><trkpt lat="39.76778" lon="8.7603067"><ele>646.3333333333333</ele><time>2026-05-03T08:15:04.676Z</time></trkpt><trkpt lat="39.7677033" lon="8.76049"><ele>645.6666666666666</ele><time>2026-05-03T08:15:05.676Z</time></trkpt><trkpt lat="39.7676317" lon="8.7606733"><ele>645.0</ele><time>2026-05-03T08:15:06.676Z</time></trkpt><trkpt lat="39.7675567" lon="8.7608533"><ele>643.0</ele><time>2026-05-03T08:15:07.677Z</time></trkpt><trkpt lat="39.7674983" lon="8.7610333"><ele>641.0</ele><time>2026-05-03T08:15:08.677Z</time></trkpt><trkpt lat="39.7674383" lon="8.7612067"><ele>639.0</ele><time>2026-05-03T08:15:09.676Z</time></trkpt><trkpt lat="39.7673883" lon="8.7613717"><ele>637.0</ele><time>2026-05-03T08:15:10.676Z</time></trkpt><trkpt lat="39.7673533" lon="8.7615183"><ele>637.0</ele><time>2026-05-03T08:15:11.676Z</time></trkpt><trkpt lat="39.76733" lon="8.76166"><ele>637.0</ele><time>2026-05-03T08:15:12.677Z</time></trkpt><trkpt lat="39.76733" lon="8.7618167"><ele>637.0</ele><time>2026-05-03T08:15:13.676Z</time></trkpt><trkpt lat="39.7673667" lon="8.761965"><ele>637.0</ele><time>2026-05-03T08:15:14.676Z</time></trkpt><trkpt lat="39.767405" lon="8.7620933"><ele>637.0</ele><time>2026-05-03T08:15:15.676Z</time></trkpt><trkpt lat="39.76744" lon="8.762215"><ele>637.0</ele><time>2026-05-03T08:15:16.677Z</time></trkpt><trkpt lat="39.7674417" lon="8.76232"><ele>637.0</ele><time>2026-05-03T08:15:17.676Z</time></trkpt><trkpt lat="39.7674183" lon="8.7624133"><ele>637.0</ele><time>2026-05-03T08:15:18.677Z</time></trkpt><trkpt lat="39.76737" lon="8.7624883"><ele>637.0</ele><time>2026-05-03T08:15:19.677Z</time></trkpt><trkpt lat="39.767285" lon="8.7625517"><ele>637.0</ele><time>2026-05-03T08:15:20.677Z</time></trkpt><trkpt lat="39.76718" lon="8.7626"><ele>637.0</ele><time>2026-05-03T08:15:21.676Z</time></trkpt><trkpt lat="39.7670617" lon="8.7626367"><ele>637.0</ele><time>2026-05-03T08:15:22.676Z</time></trkpt><trkpt lat="39.7669317" lon="8.7626767"><ele>637.0</ele><time>2026-05-03T08:15:23.676Z</time></trkpt><trkpt lat="39.7667867" lon="8.76273"><ele>637.0</ele><time>2026-05-03T08:15:24.676Z</time></trkpt><trkpt lat="39.7666533" lon="8.7627967"><ele>635.0</ele><time>2026-05-03T08:15:25.677Z</time></trkpt><trkpt lat="39.7665233" lon="8.762865"><ele>633.0</ele><time>2026-05-03T08:15:26.676Z</time></trkpt><trkpt lat="39.7664067" lon="8.7629233"><ele>631.0</ele><time>2026-05-03T08:15:27.676Z</time></trkpt><trkpt lat="39.7662983" lon="8.7629683"><ele>629.0</ele><time>2026-05-03T08:15:28.676Z</time></trkpt><trkpt lat="39.7661933" lon="8.7630017"><ele>629.0</ele><time>2026-05-03T08:15:29.676Z</time></trkpt><trkpt lat="39.766085" lon="8.7630117"><ele>629.0</ele><time>2026-05-03T08:15:30.676Z</time></trkpt><trkpt lat="39.7659833" lon="8.7629983"><ele>629.0</ele><time>2026-05-03T08:15:31.677Z</time></trkpt><trkpt lat="39.7658683" lon="8.76295"><ele>629.0</ele><time>2026-05-03T08:15:32.676Z</time></trkpt><trkpt lat="39.7657383" lon="8.7628683"><ele>627.6666666666666</ele><time>2026-05-03T08:15:33.676Z</time></trkpt><trkpt lat="39.7655883" lon="8.7627933"><ele>626.3333333333334</ele><time>2026-05-03T08:15:34.677Z</time></trkpt><trkpt lat="39.7654417" lon="8.7627217"><ele>625.0</ele><time>2026-05-03T08:15:35.676Z</time></trkpt><trkpt lat="39.7652783" lon="8.7626783"><ele>622.3333333333334</ele><time>2026-05-03T08:15:36.676Z</time></trkpt><trkpt lat="39.7651233" lon="8.762635"><ele>619.6666666666666</ele><time>2026-05-03T08:15:37.676Z</time></trkpt><trkpt lat="39.7649717" lon="8.7625933"><ele>617.0</ele><time>2026-05-03T08:15:38.677Z</time></trkpt><trkpt lat="39.7648367" lon="8.762545"><ele>617.0</ele><time>2026-05-03T08:15:39.676Z</time></trkpt><trkpt lat="39.764695" lon="8.7625167"><ele>617.0</ele><time>2026-05-03T08:15:40.676Z</time></trkpt><trkpt lat="39.764545" lon="8.762515"><ele>617.0</ele><time>2026-05-03T08:15:41.676Z</time></trkpt><trkpt lat="39.764405" lon="8.76254"><ele>617.0</ele><time>2026-05-03T08:15:42.677Z</time></trkpt><trkpt lat="39.7642583" lon="8.7625717"><ele>615.75</ele><time>2026-05-03T08:15:43.676Z</time></trkpt><trkpt lat="39.7641167" lon="8.7625833"><ele>614.5</ele><time>2026-05-03T08:15:44.676Z</time></trkpt><trkpt lat="39.76399" lon="8.7625583"><ele>613.25</ele><time>2026-05-03T08:15:45.676Z</time></trkpt><trkpt lat="39.7638667" lon="8.7624883"><ele>612.0</ele><time>2026-05-03T08:15:46.677Z</time></trkpt><trkpt lat="39.763745" lon="8.7623967"><ele>612.0</ele><time>2026-05-03T08:15:47.676Z</time></trkpt><trkpt lat="39.763635" lon="8.7622883"><ele>612.0</ele><time>2026-05-03T08:15:48.677Z</time></trkpt><trkpt lat="39.7635133" lon="8.7622067"><ele>612.0</ele><time>2026-05-03T08:15:49.677Z</time></trkpt><trkpt lat="39.7633767" lon="8.762145"><ele>612.0</ele><time>2026-05-03T08:15:50.676Z</time></trkpt><trkpt lat="39.7632383" lon="8.7620783"><ele>609.3333333333334</ele><time>2026-05-03T08:15:51.676Z</time></trkpt><trkpt lat="39.7630817" lon="8.762035"><ele>606.6666666666667</ele><time>2026-05-03T08:15:52.677Z</time></trkpt><trkpt lat="39.7629317" lon="8.7619967"><ele>604.0</ele><time>2026-05-03T08:15:53.676Z</time></trkpt><trkpt lat="39.76278" lon="8.7619483"><ele>602.0</ele><time>2026-05-03T08:15:54.677Z</time></trkpt><trkpt lat="39.762635" lon="8.7619033"><ele>600.0</ele><time>2026-05-03T08:15:55.676Z</time></trkpt><trkpt lat="39.762485" lon="8.76185"><ele>598.0</ele><time>2026-05-03T08:15:56.676Z</time></trkpt><trkpt lat="39.7623417" lon="8.76179"><ele>597.3333333333334</ele><time>2026-05-03T08:15:57.676Z</time></trkpt><trkpt lat="39.762195" lon="8.7617483"><ele>596.6666666666666</ele><time>2026-05-03T08:15:58.676Z</time></trkpt><trkpt lat="39.76204" lon="8.7616983"><ele>596.0</ele><time>2026-05-03T08:15:59.677Z</time></trkpt><trkpt lat="39.761885" lon="8.7616433"><ele>594.6666666666666</ele><time>2026-05-03T08:16:00.676Z</time></trkpt><trkpt lat="39.7617333" lon="8.7615817"><ele>593.3333333333334</ele><time>2026-05-03T08:16:01.676Z</time></trkpt><trkpt lat="39.7615867" lon="8.7615183"><ele>592.0</ele><time>2026-05-03T08:16:02.677Z</time></trkpt><trkpt lat="39.76143" lon="8.7614667"><ele>592.0</ele><time>2026-05-03T08:16:03.677Z</time></trkpt><trkpt lat="39.761285" lon="8.7614167"><ele>592.0</ele><time>2026-05-03T08:16:04.676Z</time></trkpt><trkpt lat="39.7611517" lon="8.761355"><ele>592.0</ele><time>2026-05-03T08:16:05.676Z</time></trkpt><trkpt lat="39.7610183" lon="8.7612633"><ele>592.0</ele><time>2026-05-03T08:16:06.676Z</time></trkpt><trkpt lat="39.7609033" lon="8.7611433"><ele>590.25</ele><time>2026-05-03T08:16:07.676Z</time></trkpt><trkpt lat="39.7608033" lon="8.761015"><ele>588.5</ele><time>2026-05-03T08:16:08.676Z</time></trkpt><trkpt lat="39.7607167" lon="8.7608917"><ele>586.75</ele><time>2026-05-03T08:16:09.676Z</time></trkpt><trkpt lat="39.7606383" lon="8.76078"><ele>585.0</ele><time>2026-05-03T08:16:10.676Z</time></trkpt><trkpt lat="39.7605783" lon="8.7606933"><ele>585.0</ele><time>2026-05-03T08:16:11.677Z</time></trkpt><trkpt lat="39.7605417" lon="8.7606217"><ele>585.0</ele><time>2026-05-03T08:16:12.676Z</time></trkpt><trkpt lat="39.76051" lon="8.7605017"><ele>585.0</ele><time>2026-05-03T08:16:14.677Z</time></trkpt><trkpt lat="39.7605583" lon="8.760435"><ele>585.0</ele><time>2026-05-03T08:16:16.676Z</time></trkpt><trkpt lat="39.7606517" lon="8.760415"><ele>585.0</ele><time>2026-05-03T08:16:17.677Z</time></trkpt><trkpt lat="39.76078" lon="8.76038"><ele>585.0</ele><time>2026-05-03T08:16:18.677Z</time></trkpt><trkpt lat="39.7609367" lon="8.76033"><ele>585.0</ele><time>2026-05-03T08:16:19.677Z</time></trkpt><trkpt lat="39.7611083" lon="8.7602783"><ele>585.0</ele><time>2026-05-03T08:16:20.676Z</time></trkpt><trkpt lat="39.7612967" lon="8.7602033"><ele>581.6666666666666</ele><time>2026-05-03T08:16:21.676Z</time></trkpt><trkpt lat="39.76147" lon="8.7601333"><ele>578.3333333333333</ele><time>2026-05-03T08:16:22.676Z</time></trkpt><trkpt lat="39.76162" lon="8.76007"><ele>575.0</ele><time>2026-05-03T08:16:23.676Z</time></trkpt><trkpt lat="39.7617333" lon="8.7600167"><ele>575.0</ele><time>2026-05-03T08:16:24.677Z</time></trkpt><trkpt lat="39.761815" lon="8.7599783"><ele>575.0</ele><time>2026-05-03T08:16:25.676Z</time></trkpt><trkpt lat="39.7618683" lon="8.759915"><ele>575.0</ele><time>2026-05-03T08:16:26.676Z</time></trkpt><trkpt lat="39.7619133" lon="8.7598217"><ele>575.0</ele><time>2026-05-03T08:16:27.676Z</time></trkpt><trkpt lat="39.7619233" lon="8.759705"><ele>575.0</ele><time>2026-05-03T08:16:28.676Z</time></trkpt><trkpt lat="39.7619067" lon="8.759565"><ele>575.0</ele><time>2026-05-03T08:16:29.677Z</time></trkpt><trkpt lat="39.7618617" lon="8.7593767"><ele>574.3333333333333</ele><time>2026-05-03T08:16:30.677Z</time></trkpt><trkpt lat="39.7618033" lon="8.7591733"><ele>573.6666666666666</ele><time>2026-05-03T08:16:31.676Z</time></trkpt><trkpt lat="39.7617467" lon="8.7589633"><ele>573.0</ele><time>2026-05-03T08:16:32.676Z</time></trkpt><trkpt lat="39.76168" lon="8.75875"><ele>573.0</ele><time>2026-05-03T08:16:33.677Z</time></trkpt><trkpt lat="39.7616217" lon="8.7585267"><ele>573.0</ele><time>2026-05-03T08:16:34.676Z</time></trkpt><trkpt lat="39.7615833" lon="8.7583317"><ele>573.0</ele><time>2026-05-03T08:16:35.676Z</time></trkpt><trkpt lat="39.761545" lon="8.7581767"><ele>573.0</ele><time>2026-05-03T08:16:36.676Z</time></trkpt><trkpt lat="39.761505" lon="8.7580517"><ele>573.0</ele><time>2026-05-03T08:16:37.676Z</time></trkpt><trkpt lat="39.7614383" lon="8.7579667"><ele>573.0</ele><time>2026-05-03T08:16:38.676Z</time></trkpt><trkpt lat="39.7613383" lon="8.7578883"><ele>573.0</ele><time>2026-05-03T08:16:39.677Z</time></trkpt><trkpt lat="39.7612167" lon="8.7578233"><ele>573.0</ele><time>2026-05-03T08:16:40.676Z</time></trkpt><trkpt lat="39.7610967" lon="8.757765"><ele>573.0</ele><time>2026-05-03T08:16:41.676Z</time></trkpt><trkpt lat="39.7609817" lon="8.757725"><ele>573.0</ele><time>2026-05-03T08:16:42.676Z</time></trkpt><trkpt lat="39.76087" lon="8.7576817"><ele>573.0</ele><time>2026-05-03T08:16:43.676Z</time></trkpt><trkpt lat="39.7607583" lon="8.7576117"><ele>573.0</ele><time>2026-05-03T08:16:44.677Z</time></trkpt><trkpt lat="39.7606517" lon="8.7574967"><ele>573.0</ele><time>2026-05-03T08:16:45.677Z</time></trkpt><trkpt lat="39.7605367" lon="8.7573683"><ele>573.0</ele><time>2026-05-03T08:16:46.676Z</time></trkpt><trkpt lat="39.7604017" lon="8.7572333"><ele>573.0</ele><time>2026-05-03T08:16:47.676Z</time></trkpt><trkpt lat="39.760275" lon="8.75711"><ele>572.5</ele><time>2026-05-03T08:16:48.676Z</time></trkpt><trkpt lat="39.760165" lon="8.7569983"><ele>572.0</ele><time>2026-05-03T08:16:49.677Z</time></trkpt><trkpt lat="39.76008" lon="8.7568767"><ele>571.5</ele><time>2026-05-03T08:16:50.676Z</time></trkpt><trkpt lat="39.7599983" lon="8.7567233"><ele>571.0</ele><time>2026-05-03T08:16:51.676Z</time></trkpt><trkpt lat="39.759905" lon="8.7565583"><ele>571.0</ele><time>2026-05-03T08:16:52.676Z</time></trkpt><trkpt lat="39.7598117" lon="8.7564"><ele>571.0</ele><time>2026-05-03T08:16:53.676Z</time></trkpt><trkpt lat="39.7597217" lon="8.7562367"><ele>571.0</ele><time>2026-05-03T08:16:54.676Z</time></trkpt><trkpt lat="39.7596433" lon="8.75609"><ele>571.0</ele><time>2026-05-03T08:16:55.677Z</time></trkpt><trkpt lat="39.7595767" lon="8.75599"><ele>571.2</ele><time>2026-05-03T08:16:56.676Z</time></trkpt><trkpt lat="39.7594917" lon="8.7559183"><ele>571.4000000000001</ele><time>2026-05-03T08:16:57.676Z</time></trkpt><trkpt lat="39.75939" lon="8.7558717"><ele>571.6</ele><time>2026-05-03T08:16:58.677Z</time></trkpt><trkpt lat="39.759285" lon="8.755855"><ele>571.8000000000001</ele><time>2026-05-03T08:16:59.676Z</time></trkpt><trkpt lat="39.7592" lon="8.7558717"><ele>572.0</ele><time>2026-05-03T08:17:00.676Z</time></trkpt><trkpt lat="39.7591217" lon="8.75592"><ele>571.0</ele><time>2026-05-03T08:17:01.676Z</time></trkpt><trkpt lat="39.7590467" lon="8.7560133"><ele>570.0</ele><time>2026-05-03T08:17:02.676Z</time></trkpt><trkpt lat="39.7589683" lon="8.756135"><ele>569.0</ele><time>2026-05-03T08:17:03.676Z</time></trkpt><trkpt lat="39.7588667" lon="8.75622"><ele>568.0</ele><time>2026-05-03T08:17:04.677Z</time></trkpt><trkpt lat="39.758735" lon="8.7562767"><ele>567.3333333333334</ele><time>2026-05-03T08:17:05.677Z</time></trkpt><trkpt lat="39.758585" lon="8.756315"><ele>566.6666666666666</ele><time>2026-05-03T08:17:06.677Z</time></trkpt><trkpt lat="39.7584183" lon="8.7563417"><ele>566.0</ele><time>2026-05-03T08:17:07.676Z</time></trkpt><trkpt lat="39.7582233" lon="8.756385"><ele>566.0</ele><time>2026-05-03T08:17:08.676Z</time></trkpt><trkpt lat="39.7580317" lon="8.756425"><ele>566.0</ele><time>2026-05-03T08:17:09.676Z</time></trkpt><trkpt lat="39.7578683" lon="8.756455"><ele>566.0</ele><time>2026-05-03T08:17:10.676Z</time></trkpt><trkpt lat="39.757745" lon="8.7564767"><ele>566.4</ele><time>2026-05-03T08:17:11.676Z</time></trkpt><trkpt lat="39.757665" lon="8.7564633"><ele>566.8</ele><time>2026-05-03T08:17:12.676Z</time></trkpt><trkpt lat="39.7575883" lon="8.75642"><ele>567.1999999999999</ele><time>2026-05-03T08:17:13.677Z</time></trkpt><trkpt lat="39.7574983" lon="8.756345"><ele>567.6</ele><time>2026-05-03T08:17:14.676Z</time></trkpt><trkpt lat="39.757415" lon="8.7562817"><ele>568.0</ele><time>2026-05-03T08:17:15.676Z</time></trkpt><trkpt lat="39.75732" lon="8.7562383"><ele>568.0</ele><time>2026-05-03T08:17:16.676Z</time></trkpt><trkpt lat="39.7572133" lon="8.7562217"><ele>568.0</ele><time>2026-05-03T08:17:17.676Z</time></trkpt><trkpt lat="39.7570917" lon="8.7562167"><ele>568.0</ele><time>2026-05-03T08:17:18.677Z</time></trkpt><trkpt lat="39.7569767" lon="8.7562167"><ele>568.0</ele><time>2026-05-03T08:17:19.677Z</time></trkpt><trkpt lat="39.7568733" lon="8.7562233"><ele>568.0</ele><time>2026-05-03T08:17:20.676Z</time></trkpt><trkpt lat="39.756775" lon="8.7562233"><ele>567.8333333333334</ele><time>2026-05-03T08:17:21.677Z</time></trkpt><trkpt lat="39.7566883" lon="8.756215"><ele>567.6666666666667</ele><time>2026-05-03T08:17:22.676Z</time></trkpt><trkpt lat="39.7566017" lon="8.7561783"><ele>567.5</ele><time>2026-05-03T08:17:23.676Z</time></trkpt><trkpt lat="39.7565317" lon="8.7561083"><ele>567.3333333333334</ele><time>2026-05-03T08:17:24.676Z</time></trkpt><trkpt lat="39.7564917" lon="8.75602"><ele>567.1666666666666</ele><time>2026-05-03T08:17:25.676Z</time></trkpt><trkpt lat="39.75649" lon="8.7559"><ele>567.0</ele><time>2026-05-03T08:17:26.676Z</time></trkpt><trkpt lat="39.7565033" lon="8.75577"><ele>567.0</ele><time>2026-05-03T08:17:27.676Z</time></trkpt><trkpt lat="39.756585" lon="8.7556"><ele>567.0</ele><time>2026-05-03T08:17:28.677Z</time></trkpt><trkpt lat="39.7566433" lon="8.755425"><ele>567.0</ele><time>2026-05-03T08:17:29.677Z</time></trkpt><trkpt lat="39.75666" lon="8.755255"><ele>567.0</ele><time>2026-05-03T08:17:30.676Z</time></trkpt><trkpt lat="39.7566317" lon="8.755095"><ele>566.0</ele><time>2026-05-03T08:17:31.677Z</time></trkpt><trkpt lat="39.75656" lon="8.7549517"><ele>565.0</ele><time>2026-05-03T08:17:32.677Z</time></trkpt><trkpt lat="39.7564617" lon="8.7548333"><ele>564.0</ele><time>2026-05-03T08:17:33.676Z</time></trkpt><trkpt lat="39.75633" lon="8.7547233"><ele>563.0</ele><time>2026-05-03T08:17:34.676Z</time></trkpt><trkpt lat="39.7562" lon="8.75461"><ele>563.0</ele><time>2026-05-03T08:17:35.676Z</time></trkpt><trkpt lat="39.756085" lon="8.754515"><ele>563.0</ele><time>2026-05-03T08:17:36.676Z</time></trkpt><trkpt lat="39.7559833" lon="8.7544333"><ele>563.0</ele><time>2026-05-03T08:17:37.676Z</time></trkpt><trkpt lat="39.7558833" lon="8.7543717"><ele>563.0</ele><time>2026-05-03T08:17:38.677Z</time></trkpt><trkpt lat="39.755785" lon="8.7543317"><ele>563.8</ele><time>2026-05-03T08:17:39.677Z</time></trkpt><trkpt lat="39.755685" lon="8.754315"><ele>564.5999999999999</ele><time>2026-05-03T08:17:40.677Z</time></trkpt><trkpt lat="39.7555783" lon="8.7543333"><ele>565.4000000000001</ele><time>2026-05-03T08:17:41.677Z</time></trkpt><trkpt lat="39.75547" lon="8.754355"><ele>566.2</ele><time>2026-05-03T08:17:42.677Z</time></trkpt><trkpt lat="39.75534" lon="8.7543683"><ele>567.0</ele><time>2026-05-03T08:17:43.676Z</time></trkpt><trkpt lat="39.755215" lon="8.7543483"><ele>568.0</ele><time>2026-05-03T08:17:44.676Z</time></trkpt><trkpt lat="39.755105" lon="8.7542717"><ele>569.0</ele><time>2026-05-03T08:17:45.676Z</time></trkpt><trkpt lat="39.7550017" lon="8.7541433"><ele>570.0</ele><time>2026-05-03T08:17:46.676Z</time></trkpt><trkpt lat="39.754895" lon="8.7539967"><ele>571.0</ele><time>2026-05-03T08:17:47.676Z</time></trkpt><trkpt lat="39.7547933" lon="8.753855"><ele>571.0</ele><time>2026-05-03T08:17:48.676Z</time></trkpt><trkpt lat="39.7546767" lon="8.7537417"><ele>571.0</ele><time>2026-05-03T08:17:49.676Z</time></trkpt><trkpt lat="39.754555" lon="8.7536717"><ele>571.0</ele><time>2026-05-03T08:17:50.676Z</time></trkpt><trkpt lat="39.754425" lon="8.753635"><ele>571.0</ele><time>2026-05-03T08:17:51.677Z</time></trkpt><trkpt lat="39.754285" lon="8.75363"><ele>574.6666666666667</ele><time>2026-05-03T08:17:52.676Z</time></trkpt><trkpt lat="39.7541367" lon="8.75367"><ele>578.3333333333334</ele><time>2026-05-03T08:17:53.677Z</time></trkpt><trkpt lat="39.7539833" lon="8.7537167"><ele>582.0</ele><time>2026-05-03T08:17:54.677Z</time></trkpt><trkpt lat="39.7538367" lon="8.753735"><ele>582.0</ele><time>2026-05-03T08:17:55.677Z</time></trkpt><trkpt lat="39.7537267" lon="8.753735"><ele>582.0</ele><time>2026-05-03T08:17:56.677Z</time></trkpt><trkpt lat="39.75364" lon="8.7537"><ele>582.0</ele><time>2026-05-03T08:17:57.677Z</time></trkpt><trkpt lat="39.75357" lon="8.7536183"><ele>582.0</ele><time>2026-05-03T08:17:58.677Z</time></trkpt><trkpt lat="39.75354" lon="8.753505"><ele>582.0</ele><time>2026-05-03T08:17:59.677Z</time></trkpt><trkpt lat="39.7535433" lon="8.753355"><ele>584.0</ele><time>2026-05-03T08:18:00.676Z</time></trkpt><trkpt lat="39.7535917" lon="8.753185"><ele>586.0</ele><time>2026-05-03T08:18:01.676Z</time></trkpt><trkpt lat="39.75365" lon="8.753015"><ele>588.0</ele><time>2026-05-03T08:18:02.676Z</time></trkpt><trkpt lat="39.753705" lon="8.7528533"><ele>590.0</ele><time>2026-05-03T08:18:03.677Z</time></trkpt><trkpt lat="39.7537683" lon="8.7526883"><ele>591.0</ele><time>2026-05-03T08:18:04.677Z</time></trkpt><trkpt lat="39.7538167" lon="8.7525267"><ele>592.0</ele><time>2026-05-03T08:18:05.677Z</time></trkpt><trkpt lat="39.753855" lon="8.752365"><ele>593.0</ele><time>2026-05-03T08:18:06.676Z</time></trkpt><trkpt lat="39.7538833" lon="8.752205"><ele>594.0</ele><time>2026-05-03T08:18:07.677Z</time></trkpt><trkpt lat="39.753895" lon="8.7520367"><ele>594.0</ele><time>2026-05-03T08:18:08.676Z</time></trkpt><trkpt lat="39.75392" lon="8.751885"><ele>594.0</ele><time>2026-05-03T08:18:09.676Z</time></trkpt><trkpt lat="39.7539683" lon="8.75174"><ele>594.0</ele><time>2026-05-03T08:18:10.676Z</time></trkpt><trkpt lat="39.7540367" lon="8.75161"><ele>594.0</ele><time>2026-05-03T08:18:11.676Z</time></trkpt><trkpt lat="39.754135" lon="8.7514967"><ele>594.5</ele><time>2026-05-03T08:18:12.676Z</time></trkpt><trkpt lat="39.75423" lon="8.7513967"><ele>595.0</ele><time>2026-05-03T08:18:13.676Z</time></trkpt><trkpt lat="39.754335" lon="8.7513033"><ele>595.5</ele><time>2026-05-03T08:18:14.676Z</time></trkpt><trkpt lat="39.7544333" lon="8.7512033"><ele>596.0</ele><time>2026-05-03T08:18:15.677Z</time></trkpt><trkpt lat="39.7545333" lon="8.7510833"><ele>597.75</ele><time>2026-05-03T08:18:16.676Z</time></trkpt><trkpt lat="39.7546433" lon="8.7509583"><ele>599.5</ele><time>2026-05-03T08:18:17.676Z</time></trkpt><trkpt lat="39.7547417" lon="8.7508217"><ele>601.25</ele><time>2026-05-03T08:18:18.676Z</time></trkpt><trkpt lat="39.75484" lon="8.7506917"><ele>603.0</ele><time>2026-05-03T08:18:19.677Z</time></trkpt><trkpt lat="39.7549333" lon="8.7505683"><ele>603.0</ele><time>2026-05-03T08:18:20.676Z</time></trkpt><trkpt lat="39.7550217" lon="8.7504367"><ele>603.0</ele><time>2026-05-03T08:18:21.677Z</time></trkpt><trkpt lat="39.7551083" lon="8.75031"><ele>603.0</ele><time>2026-05-03T08:18:22.677Z</time></trkpt><trkpt lat="39.75519" lon="8.750195"><ele>603.0</ele><time>2026-05-03T08:18:23.677Z</time></trkpt><trkpt lat="39.7552617" lon="8.7500933"><ele>604.5</ele><time>2026-05-03T08:18:24.677Z</time></trkpt><trkpt lat="39.7553067" lon="8.7499617"><ele>606.0</ele><time>2026-05-03T08:18:25.676Z</time></trkpt><trkpt lat="39.7553117" lon="8.7498083"><ele>607.5</ele><time>2026-05-03T08:18:26.676Z</time></trkpt><trkpt lat="39.755295" lon="8.749645"><ele>609.0</ele><time>2026-05-03T08:18:27.676Z</time></trkpt><trkpt lat="39.755265" lon="8.7494833"><ele>608.4</ele><time>2026-05-03T08:18:28.676Z</time></trkpt><trkpt lat="39.755255" lon="8.74932"><ele>607.8</ele><time>2026-05-03T08:18:29.676Z</time></trkpt><trkpt lat="39.7552467" lon="8.7491883"><ele>607.2</ele><time>2026-05-03T08:18:30.676Z</time></trkpt><trkpt lat="39.755265" lon="8.7490683"><ele>606.6</ele><time>2026-05-03T08:18:31.676Z</time></trkpt><trkpt lat="39.7552983" lon="8.7489617"><ele>606.0</ele><time>2026-05-03T08:18:32.676Z</time></trkpt><trkpt lat="39.7553283" lon="8.7488717"><ele>606.0</ele><time>2026-05-03T08:18:33.677Z</time></trkpt><trkpt lat="39.7553317" lon="8.7487867"><ele>606.0</ele><time>2026-05-03T08:18:34.676Z</time></trkpt><trkpt lat="39.75526" lon="8.748735"><ele>606.0</ele><time>2026-05-03T08:18:36.676Z</time></trkpt><trkpt lat="39.7551917" lon="8.7487467"><ele>606.0</ele><time>2026-05-03T08:18:37.676Z</time></trkpt><trkpt lat="39.7551083" lon="8.74877"><ele>606.0</ele><time>2026-05-03T08:18:38.677Z</time></trkpt><trkpt lat="39.7549917" lon="8.748815"><ele>606.0</ele><time>2026-05-03T08:18:39.676Z</time></trkpt><trkpt lat="39.7548733" lon="8.748855"><ele>604.8</ele><time>2026-05-03T08:18:40.676Z</time></trkpt><trkpt lat="39.7547567" lon="8.748885"><ele>603.6</ele><time>2026-05-03T08:18:41.676Z</time></trkpt><trkpt lat="39.75465" lon="8.7489283"><ele>602.4</ele><time>2026-05-03T08:18:42.677Z</time></trkpt><trkpt lat="39.7545517" lon="8.7489833"><ele>601.2</ele><time>2026-05-03T08:18:43.676Z</time></trkpt><trkpt lat="39.7544467" lon="8.74903"><ele>600.0</ele><time>2026-05-03T08:18:44.676Z</time></trkpt><trkpt lat="39.7543483" lon="8.74906"><ele>598.8</ele><time>2026-05-03T08:18:45.677Z</time></trkpt><trkpt lat="39.7542533" lon="8.749075"><ele>597.6</ele><time>2026-05-03T08:18:46.676Z</time></trkpt><trkpt lat="39.7541583" lon="8.7490783"><ele>596.4</ele><time>2026-05-03T08:18:47.677Z</time></trkpt><trkpt lat="39.75406" lon="8.7490883"><ele>595.2</ele><time>2026-05-03T08:18:48.676Z</time></trkpt><trkpt lat="39.7539283" lon="8.749105"><ele>594.0</ele><time>2026-05-03T08:18:49.677Z</time></trkpt><trkpt lat="39.75378" lon="8.749125"><ele>594.0</ele><time>2026-05-03T08:18:50.676Z</time></trkpt><trkpt lat="39.7536267" lon="8.7491333"><ele>594.0</ele><time>2026-05-03T08:18:51.677Z</time></trkpt><trkpt lat="39.75347" lon="8.74915"><ele>594.0</ele><time>2026-05-03T08:18:52.676Z</time></trkpt><trkpt lat="39.75332" lon="8.74918"><ele>590.3333333333334</ele><time>2026-05-03T08:18:53.677Z</time></trkpt><trkpt lat="39.7531633" lon="8.749225"><ele>586.6666666666667</ele><time>2026-05-03T08:18:54.677Z</time></trkpt><trkpt lat="39.7530083" lon="8.749285"><ele>583.0</ele><time>2026-05-03T08:18:55.676Z</time></trkpt><trkpt lat="39.7528417" lon="8.7493583"><ele>580.0</ele><time>2026-05-03T08:18:56.676Z</time></trkpt><trkpt lat="39.752665" lon="8.7494517"><ele>577.0</ele><time>2026-05-03T08:18:57.676Z</time></trkpt><trkpt lat="39.752475" lon="8.749555"><ele>574.0</ele><time>2026-05-03T08:18:58.676Z</time></trkpt><trkpt lat="39.7522783" lon="8.7496583"><ele>574.0</ele><time>2026-05-03T08:18:59.676Z</time></trkpt><trkpt lat="39.7520867" lon="8.749755"><ele>574.0</ele><time>2026-05-03T08:19:00.676Z</time></trkpt><trkpt lat="39.7519033" lon="8.7498433"><ele>574.0</ele><time>2026-05-03T08:19:01.676Z</time></trkpt><trkpt lat="39.7517117" lon="8.7499317"><ele>571.3333333333334</ele><time>2026-05-03T08:19:02.676Z</time></trkpt><trkpt lat="39.7515267" lon="8.7500217"><ele>568.6666666666666</ele><time>2026-05-03T08:19:03.676Z</time></trkpt><trkpt lat="39.7513283" lon="8.7501117"><ele>566.0</ele><time>2026-05-03T08:19:04.676Z</time></trkpt><trkpt lat="39.7511267" lon="8.7502033"><ele>564.5</ele><time>2026-05-03T08:19:05.676Z</time></trkpt><trkpt lat="39.7509167" lon="8.75031"><ele>563.0</ele><time>2026-05-03T08:19:06.677Z</time></trkpt><trkpt lat="39.750685" lon="8.7504233"><ele>563.0</ele><time>2026-05-03T08:19:07.677Z</time></trkpt><trkpt lat="39.7504633" lon="8.75055"><ele>563.0</ele><time>2026-05-03T08:19:08.677Z</time></trkpt><trkpt lat="39.750245" lon="8.7506933"><ele>562.0</ele><time>2026-05-03T08:19:09.676Z</time></trkpt><trkpt lat="39.7500483" lon="8.75082"><ele>561.0</ele><time>2026-05-03T08:19:10.676Z</time></trkpt><trkpt lat="39.7498633" lon="8.75095"><ele>560.0</ele><time>2026-05-03T08:19:11.676Z</time></trkpt><trkpt lat="39.74968" lon="8.7510633"><ele>560.0</ele><time>2026-05-03T08:19:12.677Z</time></trkpt><trkpt lat="39.7495067" lon="8.751165"><ele>560.0</ele><time>2026-05-03T08:19:13.676Z</time></trkpt><trkpt lat="39.7493517" lon="8.75125"><ele>560.0</ele><time>2026-05-03T08:19:14.677Z</time></trkpt><trkpt lat="39.749205" lon="8.75133"><ele>557.6666666666666</ele><time>2026-05-03T08:19:15.676Z</time></trkpt><trkpt lat="39.7490633" lon="8.7514"><ele>555.3333333333334</ele><time>2026-05-03T08:19:16.677Z</time></trkpt><trkpt lat="39.7489233" lon="8.7514767"><ele>553.0</ele><time>2026-05-03T08:19:17.677Z</time></trkpt><trkpt lat="39.7487883" lon="8.751585"><ele>553.0</ele><time>2026-05-03T08:19:18.676Z</time></trkpt><trkpt lat="39.7486433" lon="8.75171"><ele>553.0</ele><time>2026-05-03T08:19:19.677Z</time></trkpt><trkpt lat="39.7484983" lon="8.7518467"><ele>553.0</ele><time>2026-05-03T08:19:20.676Z</time></trkpt><trkpt lat="39.7483783" lon="8.7519633"><ele>551.6</ele><time>2026-05-03T08:19:21.676Z</time></trkpt><trkpt lat="39.7482883" lon="8.75206"><ele>550.1999999999999</ele><time>2026-05-03T08:19:22.676Z</time></trkpt><trkpt lat="39.7482067" lon="8.7521567"><ele>548.8</ele><time>2026-05-03T08:19:23.676Z</time></trkpt><trkpt lat="39.7481433" lon="8.7522467"><ele>547.4</ele><time>2026-05-03T08:19:24.677Z</time></trkpt><trkpt lat="39.7480833" lon="8.7522967"><ele>546.0</ele><time>2026-05-03T08:19:25.677Z</time></trkpt><trkpt lat="39.7479533" lon="8.7522667"><ele>546.0</ele><time>2026-05-03T08:19:27.677Z</time></trkpt><trkpt lat="39.7478917" lon="8.7521767"><ele>546.0</ele><time>2026-05-03T08:19:28.676Z</time></trkpt><trkpt lat="39.7478317" lon="8.7520617"><ele>546.0</ele><time>2026-05-03T08:19:29.677Z</time></trkpt><trkpt lat="39.747755" lon="8.75192"><ele>546.0</ele><time>2026-05-03T08:19:30.676Z</time></trkpt><trkpt lat="39.7476667" lon="8.7517683"><ele>544.25</ele><time>2026-05-03T08:19:31.676Z</time></trkpt><trkpt lat="39.7475683" lon="8.7516483"><ele>542.5</ele><time>2026-05-03T08:19:32.677Z</time></trkpt><trkpt lat="39.74747" lon="8.7515333"><ele>540.75</ele><time>2026-05-03T08:19:33.677Z</time></trkpt><trkpt lat="39.747355" lon="8.7514533"><ele>539.0</ele><time>2026-05-03T08:19:34.677Z</time></trkpt><trkpt lat="39.7472117" lon="8.75139"><ele>539.0</ele><time>2026-05-03T08:19:35.677Z</time></trkpt><trkpt lat="39.7470617" lon="8.7513333"><ele>539.0</ele><time>2026-05-03T08:19:36.676Z</time></trkpt><trkpt lat="39.7469167" lon="8.75126"><ele>539.0</ele><time>2026-05-03T08:19:37.676Z</time></trkpt><trkpt lat="39.7467967" lon="8.7511583"><ele>537.0</ele><time>2026-05-03T08:19:38.676Z</time></trkpt><trkpt lat="39.7466933" lon="8.7510717"><ele>535.0</ele><time>2026-05-03T08:19:39.676Z</time></trkpt><trkpt lat="39.7466017" lon="8.7509983"><ele>533.0</ele><time>2026-05-03T08:19:40.676Z</time></trkpt><trkpt lat="39.746505" lon="8.7509533"><ele>531.0</ele><time>2026-05-03T08:19:41.677Z</time></trkpt><trkpt lat="39.746375" lon="8.75091"><ele>531.0</ele><time>2026-05-03T08:19:42.677Z</time></trkpt><trkpt lat="39.7462267" lon="8.7508717"><ele>531.0</ele><time>2026-05-03T08:19:43.676Z</time></trkpt><trkpt lat="39.746075" lon="8.7508517"><ele>531.0</ele><time>2026-05-03T08:19:44.677Z</time></trkpt><trkpt lat="39.7459283" lon="8.7508417"><ele>529.25</ele><time>2026-05-03T08:19:45.676Z</time></trkpt><trkpt lat="39.745795" lon="8.750855"><ele>527.5</ele><time>2026-05-03T08:19:46.677Z</time></trkpt><trkpt lat="39.7456817" lon="8.750885"><ele>525.75</ele><time>2026-05-03T08:19:47.676Z</time></trkpt><trkpt lat="39.7455717" lon="8.7509567"><ele>524.0</ele><time>2026-05-03T08:19:48.677Z</time></trkpt><trkpt lat="39.7454417" lon="8.7510517"><ele>523.0</ele><time>2026-05-03T08:19:49.676Z</time></trkpt><trkpt lat="39.7452967" lon="8.75117"><ele>522.0</ele><time>2026-05-03T08:19:50.676Z</time></trkpt><trkpt lat="39.7451367" lon="8.751275"><ele>521.0</ele><time>2026-05-03T08:19:51.677Z</time></trkpt><trkpt lat="39.74499" lon="8.7513617"><ele>520.0</ele><time>2026-05-03T08:19:52.676Z</time></trkpt><trkpt lat="39.744865" lon="8.75143"><ele>519.0</ele><time>2026-05-03T08:19:53.676Z</time></trkpt><trkpt lat="39.744755" lon="8.7514883"><ele>518.0</ele><time>2026-05-03T08:19:54.676Z</time></trkpt><trkpt lat="39.7446567" lon="8.7515267"><ele>517.0</ele><time>2026-05-03T08:19:55.676Z</time></trkpt><trkpt lat="39.744555" lon="8.7515433"><ele>517.0</ele><time>2026-05-03T08:19:56.677Z</time></trkpt><trkpt lat="39.74447" lon="8.7515683"><ele>517.0</ele><time>2026-05-03T08:19:57.676Z</time></trkpt><trkpt lat="39.7443867" lon="8.7516"><ele>517.0</ele><time>2026-05-03T08:19:58.676Z</time></trkpt><trkpt lat="39.7443017" lon="8.7516533"><ele>517.0</ele><time>2026-05-03T08:19:59.676Z</time></trkpt><trkpt lat="39.74419" lon="8.7517417"><ele>517.0</ele><time>2026-05-03T08:20:00.676Z</time></trkpt><trkpt lat="39.744055" lon="8.75185"><ele>515.0</ele><time>2026-05-03T08:20:01.677Z</time></trkpt><trkpt lat="39.7439183" lon="8.7519633"><ele>513.0</ele><time>2026-05-03T08:20:02.677Z</time></trkpt><trkpt lat="39.7437733" lon="8.7520667"><ele>511.0</ele><time>2026-05-03T08:20:03.676Z</time></trkpt><trkpt lat="39.7436283" lon="8.7521617"><ele>509.6666666666667</ele><time>2026-05-03T08:20:04.677Z</time></trkpt><trkpt lat="39.7435" lon="8.7522683"><ele>508.33333333333337</ele><time>2026-05-03T08:20:05.676Z</time></trkpt><trkpt lat="39.7433633" lon="8.7523933"><ele>507.0</ele><time>2026-05-03T08:20:06.676Z</time></trkpt><trkpt lat="39.7432433" lon="8.7525183"><ele>507.0</ele><time>2026-05-03T08:20:07.676Z</time></trkpt><trkpt lat="39.74313" lon="8.7526367"><ele>507.0</ele><time>2026-05-03T08:20:08.677Z</time></trkpt><trkpt lat="39.7430217" lon="8.752755"><ele>507.0</ele><time>2026-05-03T08:20:09.676Z</time></trkpt><trkpt lat="39.74294" lon="8.7528883"><ele>507.0</ele><time>2026-05-03T08:20:10.676Z</time></trkpt><trkpt lat="39.74287" lon="8.7530217"><ele>507.0</ele><time>2026-05-03T08:20:11.677Z</time></trkpt><trkpt lat="39.7428083" lon="8.7531267"><ele>507.0</ele><time>2026-05-03T08:20:12.677Z</time></trkpt><trkpt lat="39.7427517" lon="8.753195"><ele>507.0</ele><time>2026-05-03T08:20:13.677Z</time></trkpt><trkpt lat="39.7426817" lon="8.7532417"><ele>507.0</ele><time>2026-05-03T08:20:14.676Z</time></trkpt><trkpt lat="39.7426017" lon="8.7532633"><ele>507.0</ele><time>2026-05-03T08:20:15.677Z</time></trkpt><trkpt lat="39.7425133" lon="8.7532583"><ele>507.0</ele><time>2026-05-03T08:20:16.676Z</time></trkpt><trkpt lat="39.7424383" lon="8.75325"><ele>507.0</ele><time>2026-05-03T08:20:17.676Z</time></trkpt><trkpt lat="39.7423467" lon="8.753245"><ele>507.00000000000006</ele><time>2026-05-03T08:20:19.677Z</time></trkpt><trkpt lat="39.7424667" lon="8.7532217"><ele>507.00000000000006</ele><time>2026-05-03T08:20:24.676Z</time></trkpt><trkpt lat="39.742545" lon="8.7532033"><ele>507.0</ele><time>2026-05-03T08:20:25.677Z</time></trkpt><trkpt lat="39.7426367" lon="8.7531683"><ele>507.0</ele><time>2026-05-03T08:20:26.677Z</time></trkpt><trkpt lat="39.742725" lon="8.7531117"><ele>507.0</ele><time>2026-05-03T08:20:27.677Z</time></trkpt><trkpt lat="39.7428167" lon="8.7530283"><ele>507.0</ele><time>2026-05-03T08:20:28.676Z</time></trkpt><trkpt lat="39.74289" lon="8.7529167"><ele>507.0</ele><time>2026-05-03T08:20:29.676Z</time></trkpt><trkpt lat="39.7429683" lon="8.7528183"><ele>507.0</ele><time>2026-05-03T08:20:30.676Z</time></trkpt><trkpt lat="39.74305" lon="8.7527083"><ele>507.0</ele><time>2026-05-03T08:20:31.676Z</time></trkpt><trkpt lat="39.7431167" lon="8.7526183"><ele>507.0</ele><time>2026-05-03T08:20:32.676Z</time></trkpt><trkpt lat="39.7431733" lon="8.752545"><ele>507.0</ele><time>2026-05-03T08:20:33.677Z</time></trkpt><trkpt lat="39.7432183" lon="8.7524867"><ele>507.0</ele><time>2026-05-03T08:20:34.676Z</time></trkpt><trkpt lat="39.743255" lon="8.7523567"><ele>507.0</ele><time>2026-05-03T08:20:36.676Z</time></trkpt><trkpt lat="39.74327" lon="8.7522583"><ele>507.0</ele><time>2026-05-03T08:20:37.676Z</time></trkpt><trkpt lat="39.7432867" lon="8.7521283"><ele>507.0</ele><time>2026-05-03T08:20:38.677Z</time></trkpt><trkpt lat="39.74332" lon="8.7519983"><ele>507.00000000000006</ele><time>2026-05-03T08:20:39.676Z</time></trkpt><trkpt lat="39.74335" lon="8.7518717"><ele>507.00000000000006</ele><time>2026-05-03T08:20:40.676Z</time></trkpt><trkpt lat="39.7433767" lon="8.75176"><ele>507.0</ele><time>2026-05-03T08:20:41.676Z</time></trkpt><trkpt lat="39.743385" lon="8.7516617"><ele>507.0</ele><time>2026-05-03T08:20:42.676Z</time></trkpt><trkpt lat="39.74332" lon="8.75155"><ele>508.0</ele><time>2026-05-03T08:20:44.676Z</time></trkpt><trkpt lat="39.7432667" lon="8.751505"><ele>509.00000000000006</ele><time>2026-05-03T08:20:45.676Z</time></trkpt><trkpt lat="39.7431617" lon="8.7513867"><ele>510.00000000000006</ele><time>2026-05-03T08:20:47.676Z</time></trkpt><trkpt lat="39.74312" lon="8.7512967"><ele>511.0</ele><time>2026-05-03T08:20:48.676Z</time></trkpt><trkpt lat="39.7430933" lon="8.751185"><ele>512.0</ele><time>2026-05-03T08:20:49.676Z</time></trkpt><trkpt lat="39.74307" lon="8.7510483"><ele>513.0</ele><time>2026-05-03T08:20:50.676Z</time></trkpt><trkpt lat="39.7430567" lon="8.7509067"><ele>514.0</ele><time>2026-05-03T08:20:51.676Z</time></trkpt><trkpt lat="39.7430367" lon="8.7507633"><ele>515.0</ele><time>2026-05-03T08:20:52.676Z</time></trkpt><trkpt lat="39.7430117" lon="8.7506067"><ele>516.0</ele><time>2026-05-03T08:20:53.676Z</time></trkpt><trkpt lat="39.7429767" lon="8.75045"><ele>516.0</ele><time>2026-05-03T08:20:54.676Z</time></trkpt><trkpt lat="39.742945" lon="8.750305"><ele>516.0</ele><time>2026-05-03T08:20:55.676Z</time></trkpt><trkpt lat="39.7429167" lon="8.7501433"><ele>516.0</ele><time>2026-05-03T08:20:56.677Z</time></trkpt><trkpt lat="39.7428683" lon="8.7500267"><ele>516.0</ele><time>2026-05-03T08:20:57.677Z</time></trkpt><trkpt lat="39.7428467" lon="8.7499167"><ele>516.0</ele><time>2026-05-03T08:20:58.676Z</time></trkpt><trkpt lat="39.742835" lon="8.74982"><ele>515.4</ele><time>2026-05-03T08:20:59.677Z</time></trkpt><trkpt lat="39.7428667" lon="8.7497017"><ele>514.8</ele><time>2026-05-03T08:21:01.676Z</time></trkpt><trkpt lat="39.7428583" lon="8.7495567"><ele>514.1999999999999</ele><time>2026-05-03T08:21:03.676Z</time></trkpt><trkpt lat="39.7427733" lon="8.7494417"><ele>513.6</ele><time>2026-05-03T08:21:05.677Z</time></trkpt><trkpt lat="39.7427" lon="8.74943"><ele>513.0</ele><time>2026-05-03T08:21:06.676Z</time></trkpt><trkpt lat="39.7426167" lon="8.7494317"><ele>512.6666666666666</ele><time>2026-05-03T08:21:07.676Z</time></trkpt><trkpt lat="39.7425317" lon="8.7494417"><ele>512.3333333333334</ele><time>2026-05-03T08:21:08.676Z</time></trkpt><trkpt lat="39.74246" lon="8.7494467"><ele>512.0</ele><time>2026-05-03T08:21:09.676Z</time></trkpt><trkpt lat="39.7423917" lon="8.7494383"><ele>511.6666666666667</ele><time>2026-05-03T08:21:10.677Z</time></trkpt><trkpt lat="39.7423067" lon="8.7493833"><ele>511.33333333333337</ele><time>2026-05-03T08:21:12.677Z</time></trkpt><trkpt lat="39.7422417" lon="8.74925"><ele>511.0</ele><time>2026-05-03T08:21:14.677Z</time></trkpt><trkpt lat="39.74219" lon="8.7491783"><ele>510.1666666666667</ele><time>2026-05-03T08:21:15.676Z</time></trkpt><trkpt lat="39.742135" lon="8.7490467"><ele>509.33333333333337</ele><time>2026-05-03T08:21:17.676Z</time></trkpt><trkpt lat="39.7421083" lon="8.74894"><ele>508.5</ele><time>2026-05-03T08:21:18.677Z</time></trkpt><trkpt lat="39.74209" lon="8.7488467"><ele>507.66666666666663</ele><time>2026-05-03T08:21:19.676Z</time></trkpt><trkpt lat="39.7420817" lon="8.7487533"><ele>506.8333333333333</ele><time>2026-05-03T08:21:20.676Z</time></trkpt><trkpt lat="39.7420867" lon="8.7486633"><ele>506.0</ele><time>2026-05-03T08:21:21.676Z</time></trkpt><trkpt lat="39.74209" lon="8.748555"><ele>504.49999999999994</ele><time>2026-05-03T08:21:22.676Z</time></trkpt><trkpt lat="39.7421033" lon="8.7484317"><ele>503.0</ele><time>2026-05-03T08:21:23.676Z</time></trkpt><trkpt lat="39.7421267" lon="8.7483267"><ele>501.5</ele><time>2026-05-03T08:21:24.677Z</time></trkpt><trkpt lat="39.74216" lon="8.7482283"><ele>500.0</ele><time>2026-05-03T08:21:25.676Z</time></trkpt><trkpt lat="39.742185" lon="8.7480883"><ele>498.49999999999994</ele><time>2026-05-03T08:21:27.677Z</time></trkpt><trkpt lat="39.74215" lon="8.74802"><ele>497.0</ele><time>2026-05-03T08:21:28.676Z</time></trkpt><trkpt lat="39.7420917" lon="8.7479617"><ele>497.0</ele><time>2026-05-03T08:21:29.677Z</time></trkpt><trkpt lat="39.74201" lon="8.7479167"><ele>497.00000000000006</ele><time>2026-05-03T08:21:30.677Z</time></trkpt><trkpt lat="39.7419117" lon="8.7479"><ele>497.00000000000006</ele><time>2026-05-03T08:21:31.676Z</time></trkpt><trkpt lat="39.7418133" lon="8.7478933"><ele>497.0</ele><time>2026-05-03T08:21:32.677Z</time></trkpt><trkpt lat="39.7417183" lon="8.7478767"><ele>497.0</ele><time>2026-05-03T08:21:33.676Z</time></trkpt><trkpt lat="39.7416283" lon="8.7478233"><ele>497.20000000000005</ele><time>2026-05-03T08:21:34.677Z</time></trkpt><trkpt lat="39.74154" lon="8.747765"><ele>497.40000000000003</ele><time>2026-05-03T08:21:35.677Z</time></trkpt><trkpt lat="39.7414517" lon="8.7476817"><ele>497.59999999999997</ele><time>2026-05-03T08:21:36.677Z</time></trkpt><trkpt lat="39.7413633" lon="8.747595"><ele>497.79999999999995</ele><time>2026-05-03T08:21:37.676Z</time></trkpt><trkpt lat="39.7412833" lon="8.7475083"><ele>498.0</ele><time>2026-05-03T08:21:38.677Z</time></trkpt><trkpt lat="39.7412033" lon="8.7474233"><ele>496.59999999999997</ele><time>2026-05-03T08:21:39.676Z</time></trkpt><trkpt lat="39.7411217" lon="8.74732"><ele>495.19999999999993</ele><time>2026-05-03T08:21:40.676Z</time></trkpt><trkpt lat="39.74104" lon="8.7472033"><ele>493.8</ele><time>2026-05-03T08:21:41.676Z</time></trkpt><trkpt lat="39.7409667" lon="8.7471067"><ele>492.4</ele><time>2026-05-03T08:21:42.676Z</time></trkpt><trkpt lat="39.740885" lon="8.7470233"><ele>491.0</ele><time>2026-05-03T08:21:43.676Z</time></trkpt><trkpt lat="39.74079" lon="8.7469567"><ele>491.0</ele><time>2026-05-03T08:21:44.676Z</time></trkpt><trkpt lat="39.7406967" lon="8.7468933"><ele>491.0</ele><time>2026-05-03T08:21:45.676Z</time></trkpt><trkpt lat="39.7406017" lon="8.74683"><ele>491.0</ele><time>2026-05-03T08:21:46.677Z</time></trkpt><trkpt lat="39.7404867" lon="8.7467867"><ele>491.0</ele><time>2026-05-03T08:21:47.677Z</time></trkpt><trkpt lat="39.7403567" lon="8.7467317"><ele>489.25</ele><time>2026-05-03T08:21:48.676Z</time></trkpt><trkpt lat="39.7402333" lon="8.74668"><ele>487.5</ele><time>2026-05-03T08:21:49.677Z</time></trkpt><trkpt lat="39.7401067" lon="8.74661"><ele>485.75</ele><time>2026-05-03T08:21:50.676Z</time></trkpt><trkpt lat="39.739965" lon="8.7464817"><ele>484.0</ele><time>2026-05-03T08:21:51.676Z</time></trkpt><trkpt lat="39.7398317" lon="8.7463883"><ele>483.0</ele><time>2026-05-03T08:21:52.676Z</time></trkpt><trkpt lat="39.7397017" lon="8.7463"><ele>482.0</ele><time>2026-05-03T08:21:53.676Z</time></trkpt><trkpt lat="39.7395833" lon="8.7462083"><ele>481.0</ele><time>2026-05-03T08:21:54.676Z</time></trkpt><trkpt lat="39.7394783" lon="8.746145"><ele>480.0</ele><time>2026-05-03T08:21:55.676Z</time></trkpt><trkpt lat="39.739385" lon="8.7460967"><ele>478.6</ele><time>2026-05-03T08:21:56.676Z</time></trkpt><trkpt lat="39.73929" lon="8.74607"><ele>477.2</ele><time>2026-05-03T08:21:57.676Z</time></trkpt><trkpt lat="39.7391867" lon="8.74606"><ele>475.79999999999995</ele><time>2026-05-03T08:21:58.676Z</time></trkpt><trkpt lat="39.73907" lon="8.7460733"><ele>474.4</ele><time>2026-05-03T08:21:59.676Z</time></trkpt><trkpt lat="39.7389483" lon="8.7461"><ele>473.0</ele><time>2026-05-03T08:22:00.676Z</time></trkpt><trkpt lat="39.7388283" lon="8.7461283"><ele>473.0</ele><time>2026-05-03T08:22:01.676Z</time></trkpt><trkpt lat="39.7387283" lon="8.7461467"><ele>472.99999999999994</ele><time>2026-05-03T08:22:02.676Z</time></trkpt><trkpt lat="39.7386467" lon="8.7461467"><ele>472.99999999999994</ele><time>2026-05-03T08:22:03.676Z</time></trkpt><trkpt lat="39.7385467" lon="8.74612"><ele>473.0</ele><time>2026-05-03T08:22:04.676Z</time></trkpt><trkpt lat="39.7384533" lon="8.74605"><ele>473.0</ele><time>2026-05-03T08:22:05.677Z</time></trkpt><trkpt lat="39.7383483" lon="8.74597"><ele>473.25</ele><time>2026-05-03T08:22:06.676Z</time></trkpt><trkpt lat="39.7382483" lon="8.7459067"><ele>473.5</ele><time>2026-05-03T08:22:07.676Z</time></trkpt><trkpt lat="39.7381367" lon="8.7458633"><ele>473.75</ele><time>2026-05-03T08:22:08.676Z</time></trkpt><trkpt lat="39.738015" lon="8.7458333"><ele>474.0</ele><time>2026-05-03T08:22:09.676Z</time></trkpt><trkpt lat="39.737885" lon="8.7458"><ele>474.0</ele><time>2026-05-03T08:22:10.677Z</time></trkpt><trkpt lat="39.7377683" lon="8.745745"><ele>474.0</ele><time>2026-05-03T08:22:11.676Z</time></trkpt><trkpt lat="39.7376383" lon="8.745655"><ele>474.0</ele><time>2026-05-03T08:22:12.677Z</time></trkpt><trkpt lat="39.7375267" lon="8.745575"><ele>474.0</ele><time>2026-05-03T08:22:13.677Z</time></trkpt><trkpt lat="39.7374433" lon="8.7454867"><ele>473.5</ele><time>2026-05-03T08:22:14.676Z</time></trkpt><trkpt lat="39.7373867" lon="8.74541"><ele>473.0</ele><time>2026-05-03T08:22:15.677Z</time></trkpt><trkpt lat="39.7373633" lon="8.74533"><ele>472.5</ele><time>2026-05-03T08:22:16.676Z</time></trkpt><trkpt lat="39.73737" lon="8.7451833"><ele>472.0</ele><time>2026-05-03T08:22:18.677Z</time></trkpt><trkpt lat="39.7373667" lon="8.7450767"><ele>471.5</ele><time>2026-05-03T08:22:19.676Z</time></trkpt><trkpt lat="39.7373633" lon="8.74496"><ele>471.0</ele><time>2026-05-03T08:22:20.676Z</time></trkpt><trkpt lat="39.7373617" lon="8.7448417"><ele>473.20000000000005</ele><time>2026-05-03T08:22:21.677Z</time></trkpt><trkpt lat="39.7373467" lon="8.7447367"><ele>475.40000000000003</ele><time>2026-05-03T08:22:22.676Z</time></trkpt><trkpt lat="39.737305" lon="8.744625"><ele>477.6</ele><time>2026-05-03T08:22:23.677Z</time></trkpt><trkpt lat="39.7372467" lon="8.7445067"><ele>479.8</ele><time>2026-05-03T08:22:24.676Z</time></trkpt><trkpt lat="39.7372133" lon="8.744365"><ele>482.0</ele><time>2026-05-03T08:22:25.676Z</time></trkpt><trkpt lat="39.7372083" lon="8.7442117"><ele>482.16666666666663</ele><time>2026-05-03T08:22:26.676Z</time></trkpt><trkpt lat="39.7372" lon="8.7440733"><ele>482.3333333333333</ele><time>2026-05-03T08:22:27.677Z</time></trkpt><trkpt lat="39.7371817" lon="8.7439533"><ele>482.5</ele><time>2026-05-03T08:22:28.676Z</time></trkpt><trkpt lat="39.73715" lon="8.7438567"><ele>482.66666666666663</ele><time>2026-05-03T08:22:29.676Z</time></trkpt><trkpt lat="39.7371033" lon="8.743785"><ele>482.8333333333333</ele><time>2026-05-03T08:22:30.676Z</time></trkpt><trkpt lat="39.737035" lon="8.7437517"><ele>483.0</ele><time>2026-05-03T08:22:31.677Z</time></trkpt><trkpt lat="39.736945" lon="8.7437483"><ele>482.1666666666667</ele><time>2026-05-03T08:22:32.676Z</time></trkpt><trkpt lat="39.736845" lon="8.74376"><ele>481.33333333333337</ele><time>2026-05-03T08:22:33.676Z</time></trkpt><trkpt lat="39.736775" lon="8.7437317"><ele>480.5</ele><time>2026-05-03T08:22:34.676Z</time></trkpt><trkpt lat="39.7367117" lon="8.743655"><ele>479.6666666666667</ele><time>2026-05-03T08:22:36.676Z</time></trkpt><trkpt lat="39.736695" lon="8.7435683"><ele>478.83333333333337</ele><time>2026-05-03T08:22:37.677Z</time></trkpt><trkpt lat="39.7366383" lon="8.7434433"><ele>478.0</ele><time>2026-05-03T08:22:39.676Z</time></trkpt><trkpt lat="39.7365767" lon="8.7434067"><ele>477.4</ele><time>2026-05-03T08:22:40.676Z</time></trkpt><trkpt lat="39.7364983" lon="8.7434033"><ele>476.79999999999995</ele><time>2026-05-03T08:22:41.676Z</time></trkpt><trkpt lat="39.7363967" lon="8.7434167"><ele>476.2</ele><time>2026-05-03T08:22:42.676Z</time></trkpt><trkpt lat="39.73629" lon="8.7434317"><ele>475.6</ele><time>2026-05-03T08:22:43.677Z</time></trkpt><trkpt lat="39.7361917" lon="8.7434217"><ele>475.0</ele><time>2026-05-03T08:22:44.676Z</time></trkpt><trkpt lat="39.7360933" lon="8.7433917"><ele>473.8</ele><time>2026-05-03T08:22:45.677Z</time></trkpt><trkpt lat="39.7360017" lon="8.7433467"><ele>472.6</ele><time>2026-05-03T08:22:46.676Z</time></trkpt><trkpt lat="39.7359167" lon="8.7433017"><ele>471.4</ele><time>2026-05-03T08:22:47.676Z</time></trkpt><trkpt lat="39.7358283" lon="8.7432633"><ele>470.2</ele><time>2026-05-03T08:22:48.676Z</time></trkpt><trkpt lat="39.73573" lon="8.7432283"><ele>469.0</ele><time>2026-05-03T08:22:49.677Z</time></trkpt><trkpt lat="39.735645" lon="8.7432117"><ele>469.00000000000006</ele><time>2026-05-03T08:22:50.677Z</time></trkpt><trkpt lat="39.73557" lon="8.74319"><ele>469.0</ele><time>2026-05-03T08:22:51.676Z</time></trkpt><trkpt lat="39.7354917" lon="8.743155"><ele>469.0</ele><time>2026-05-03T08:22:52.676Z</time></trkpt><trkpt lat="39.7354117" lon="8.7431367"><ele>469.0</ele><time>2026-05-03T08:22:53.676Z</time></trkpt><trkpt lat="39.7353317" lon="8.74314"><ele>469.00000000000006</ele><time>2026-05-03T08:22:54.677Z</time></trkpt><trkpt lat="39.7352533" lon="8.7431767"><ele>469.0</ele><time>2026-05-03T08:22:55.677Z</time></trkpt><trkpt lat="39.7351783" lon="8.7431833"><ele>468.50000000000006</ele><time>2026-05-03T08:22:56.676Z</time></trkpt><trkpt lat="39.73511" lon="8.7431633"><ele>468.0</ele><time>2026-05-03T08:22:57.676Z</time></trkpt><trkpt lat="39.7350433" lon="8.74312"><ele>467.5</ele><time>2026-05-03T08:22:58.677Z</time></trkpt><trkpt lat="39.7349833" lon="8.7430367"><ele>467.0</ele><time>2026-05-03T08:22:59.676Z</time></trkpt><trkpt lat="39.7349233" lon="8.7429567"><ele>466.50000000000006</ele><time>2026-05-03T08:23:00.676Z</time></trkpt><trkpt lat="39.7348617" lon="8.7428783"><ele>466.0</ele><time>2026-05-03T08:23:01.676Z</time></trkpt><trkpt lat="39.7347767" lon="8.742815"><ele>466.0</ele><time>2026-05-03T08:23:02.676Z</time></trkpt><trkpt lat="39.7346617" lon="8.742785"><ele>466.0</ele><time>2026-05-03T08:23:03.677Z</time></trkpt><trkpt lat="39.734545" lon="8.7427483"><ele>466.0</ele><time>2026-05-03T08:23:04.677Z</time></trkpt><trkpt lat="39.7344517" lon="8.7426967"><ele>466.0</ele><time>2026-05-03T08:23:05.676Z</time></trkpt><trkpt lat="39.734375" lon="8.74264"><ele>466.0</ele><time>2026-05-03T08:23:06.676Z</time></trkpt><trkpt lat="39.7343233" lon="8.7425633"><ele>462.75</ele><time>2026-05-03T08:23:07.676Z</time></trkpt><trkpt lat="39.73429" lon="8.7424483"><ele>459.5</ele><time>2026-05-03T08:23:08.677Z</time></trkpt><trkpt lat="39.7342617" lon="8.7422933"><ele>456.25</ele><time>2026-05-03T08:23:09.677Z</time></trkpt><trkpt lat="39.7342333" lon="8.7421317"><ele>453.0</ele><time>2026-05-03T08:23:10.677Z</time></trkpt><trkpt lat="39.7341867" lon="8.7419867"><ele>451.4</ele><time>2026-05-03T08:23:11.675Z</time></trkpt><trkpt lat="39.7341433" lon="8.7418483"><ele>449.79999999999995</ele><time>2026-05-03T08:23:12.676Z</time></trkpt><trkpt lat="39.7340833" lon="8.7417333"><ele>448.2</ele><time>2026-05-03T08:23:13.675Z</time></trkpt><trkpt lat="39.7340083" lon="8.741645"><ele>446.6</ele><time>2026-05-03T08:23:14.676Z</time></trkpt><trkpt lat="39.7339133" lon="8.741555"><ele>445.0</ele><time>2026-05-03T08:23:15.675Z</time></trkpt><trkpt lat="39.7338233" lon="8.74149"><ele>445.00000000000006</ele><time>2026-05-03T08:23:16.675Z</time></trkpt><trkpt lat="39.7337417" lon="8.7414533"><ele>445.0</ele><time>2026-05-03T08:23:17.676Z</time></trkpt><trkpt lat="39.7336683" lon="8.741435"><ele>445.0</ele><time>2026-05-03T08:23:18.676Z</time></trkpt><trkpt lat="39.7336017" lon="8.7414533"><ele>445.0</ele><time>2026-05-03T08:23:19.676Z</time></trkpt><trkpt lat="39.73352" lon="8.7414567"><ele>445.00000000000006</ele><time>2026-05-03T08:23:20.675Z</time></trkpt><trkpt lat="39.7334367" lon="8.7414483"><ele>445.0</ele><time>2026-05-03T08:23:21.676Z</time></trkpt><trkpt lat="39.7333483" lon="8.7414133"><ele>443.0</ele><time>2026-05-03T08:23:22.675Z</time></trkpt><trkpt lat="39.7332533" lon="8.74135"><ele>441.0</ele><time>2026-05-03T08:23:23.675Z</time></trkpt><trkpt lat="39.7331517" lon="8.7412783"><ele>439.0</ele><time>2026-05-03T08:23:24.676Z</time></trkpt><trkpt lat="39.7330533" lon="8.7412067"><ele>437.0</ele><time>2026-05-03T08:23:25.675Z</time></trkpt><trkpt lat="39.7329483" lon="8.7411433"><ele>437.0</ele><time>2026-05-03T08:23:26.676Z</time></trkpt><trkpt lat="39.73283" lon="8.7410783"><ele>437.0</ele><time>2026-05-03T08:23:27.675Z</time></trkpt><trkpt lat="39.7327117" lon="8.7410183"><ele>437.0</ele><time>2026-05-03T08:23:28.675Z</time></trkpt><trkpt lat="39.7325917" lon="8.740965"><ele>437.0</ele><time>2026-05-03T08:23:29.675Z</time></trkpt><trkpt lat="39.7324767" lon="8.74092"><ele>433.0</ele><time>2026-05-03T08:23:30.676Z</time></trkpt><trkpt lat="39.7323633" lon="8.7408767"><ele>429.0</ele><time>2026-05-03T08:23:31.676Z</time></trkpt><trkpt lat="39.7322483" lon="8.7408217"><ele>425.0</ele><time>2026-05-03T08:23:32.675Z</time></trkpt><trkpt lat="39.73213" lon="8.7407717"><ele>421.0</ele><time>2026-05-03T08:23:33.676Z</time></trkpt><trkpt lat="39.73202" lon="8.7407267"><ele>421.0</ele><time>2026-05-03T08:23:34.675Z</time></trkpt><trkpt lat="39.731915" lon="8.7406767"><ele>421.0</ele><time>2026-05-03T08:23:35.675Z</time></trkpt><trkpt lat="39.7318067" lon="8.7406433"><ele>421.0</ele><time>2026-05-03T08:23:36.675Z</time></trkpt><trkpt lat="39.7316983" lon="8.740605"><ele>421.0</ele><time>2026-05-03T08:23:37.675Z</time></trkpt><trkpt lat="39.731585" lon="8.7405683"><ele>419.25</ele><time>2026-05-03T08:23:38.675Z</time></trkpt><trkpt lat="39.731465" lon="8.7405467"><ele>417.5</ele><time>2026-05-03T08:23:39.676Z</time></trkpt><trkpt lat="39.7313317" lon="8.740515"><ele>415.75</ele><time>2026-05-03T08:23:40.676Z</time></trkpt><trkpt lat="39.73121" lon="8.7404767"><ele>414.0</ele><time>2026-05-03T08:23:41.675Z</time></trkpt><trkpt lat="39.731105" lon="8.7404267"><ele>413.75</ele><time>2026-05-03T08:23:42.676Z</time></trkpt><trkpt lat="39.7310133" lon="8.7403817"><ele>413.5</ele><time>2026-05-03T08:23:43.675Z</time></trkpt><trkpt lat="39.7309067" lon="8.7403633"><ele>413.25</ele><time>2026-05-03T08:23:44.675Z</time></trkpt><trkpt lat="39.7307817" lon="8.7403483"><ele>413.0</ele><time>2026-05-03T08:23:45.676Z</time></trkpt><trkpt lat="39.7306467" lon="8.7403333"><ele>413.0</ele><time>2026-05-03T08:23:46.676Z</time></trkpt><trkpt lat="39.730495" lon="8.74032"><ele>413.0</ele><time>2026-05-03T08:23:47.675Z</time></trkpt><trkpt lat="39.7303483" lon="8.740315"><ele>413.0</ele><time>2026-05-03T08:23:48.675Z</time></trkpt><trkpt lat="39.73022" lon="8.7403133"><ele>413.0</ele><time>2026-05-03T08:23:49.676Z</time></trkpt><trkpt lat="39.730105" lon="8.7402917"><ele>411.79999999999995</ele><time>2026-05-03T08:23:50.675Z</time></trkpt><trkpt lat="39.7300117" lon="8.7402533"><ele>410.6</ele><time>2026-05-03T08:23:51.675Z</time></trkpt><trkpt lat="39.7299267" lon="8.7402017"><ele>409.4</ele><time>2026-05-03T08:23:52.675Z</time></trkpt><trkpt lat="39.7298483" lon="8.7401383"><ele>408.20000000000005</ele><time>2026-05-03T08:23:53.676Z</time></trkpt><trkpt lat="39.7297617" lon="8.7400933"><ele>407.0</ele><time>2026-05-03T08:23:54.676Z</time></trkpt><trkpt lat="39.7296617" lon="8.7401017"><ele>407.0</ele><time>2026-05-03T08:23:55.675Z</time></trkpt><trkpt lat="39.7295567" lon="8.74015"><ele>407.0</ele><time>2026-05-03T08:23:56.675Z</time></trkpt><trkpt lat="39.7294467" lon="8.7402233"><ele>407.0</ele><time>2026-05-03T08:23:57.676Z</time></trkpt><trkpt lat="39.7293167" lon="8.7402967"><ele>407.0</ele><time>2026-05-03T08:23:58.676Z</time></trkpt><trkpt lat="39.7291917" lon="8.7403733"><ele>406.0</ele><time>2026-05-03T08:23:59.675Z</time></trkpt><trkpt lat="39.729065" lon="8.7404417"><ele>405.0</ele><time>2026-05-03T08:24:00.675Z</time></trkpt><trkpt lat="39.7289517" lon="8.7404933"><ele>404.0</ele><time>2026-05-03T08:24:01.675Z</time></trkpt><trkpt lat="39.728845" lon="8.7405217"><ele>403.0</ele><time>2026-05-03T08:24:02.675Z</time></trkpt><trkpt lat="39.7287433" lon="8.7405367"><ele>403.0</ele><time>2026-05-03T08:24:03.675Z</time></trkpt><trkpt lat="39.72864" lon="8.7405267"><ele>403.0</ele><time>2026-05-03T08:24:04.676Z</time></trkpt><trkpt lat="39.728545" lon="8.740515"><ele>403.0</ele><time>2026-05-03T08:24:05.675Z</time></trkpt><trkpt lat="39.728455" lon="8.7405017"><ele>403.0</ele><time>2026-05-03T08:24:06.676Z</time></trkpt><trkpt lat="39.72837" lon="8.7405167"><ele>403.0</ele><time>2026-05-03T08:24:07.676Z</time></trkpt><trkpt lat="39.7282633" lon="8.74058"><ele>402.25</ele><time>2026-05-03T08:24:08.675Z</time></trkpt><trkpt lat="39.7281433" lon="8.74066"><ele>401.5</ele><time>2026-05-03T08:24:09.676Z</time></trkpt><trkpt lat="39.728025" lon="8.74074"><ele>400.75</ele><time>2026-05-03T08:24:10.676Z</time></trkpt><trkpt lat="39.7278933" lon="8.740815"><ele>400.0</ele><time>2026-05-03T08:24:11.675Z</time></trkpt><trkpt lat="39.727775" lon="8.7408817"><ele>400.5</ele><time>2026-05-03T08:24:12.676Z</time></trkpt><trkpt lat="39.7276567" lon="8.7409567"><ele>401.0</ele><time>2026-05-03T08:24:13.676Z</time></trkpt><trkpt lat="39.7275517" lon="8.74104"><ele>401.5</ele><time>2026-05-03T08:24:14.675Z</time></trkpt><trkpt lat="39.7274317" lon="8.7411283"><ele>402.0</ele><time>2026-05-03T08:24:15.676Z</time></trkpt><trkpt lat="39.7273167" lon="8.7412083"><ele>402.0</ele><time>2026-05-03T08:24:16.675Z</time></trkpt><trkpt lat="39.7271967" lon="8.741295"><ele>402.0</ele><time>2026-05-03T08:24:17.675Z</time></trkpt><trkpt lat="39.7270817" lon="8.741385"><ele>402.0</ele><time>2026-05-03T08:24:18.675Z</time></trkpt><trkpt lat="39.7269583" lon="8.7414967"><ele>402.0</ele><time>2026-05-03T08:24:19.675Z</time></trkpt><trkpt lat="39.7268333" lon="8.7416017"><ele>401.66666666666663</ele><time>2026-05-03T08:24:20.675Z</time></trkpt><trkpt lat="39.726695" lon="8.7416967"><ele>401.3333333333333</ele><time>2026-05-03T08:24:21.676Z</time></trkpt><trkpt lat="39.7265517" lon="8.7417783"><ele>401.0</ele><time>2026-05-03T08:24:22.676Z</time></trkpt><trkpt lat="39.726405" lon="8.741855"><ele>401.25</ele><time>2026-05-03T08:24:23.675Z</time></trkpt><trkpt lat="39.7262667" lon="8.741935"><ele>401.5</ele><time>2026-05-03T08:24:24.675Z</time></trkpt><trkpt lat="39.72613" lon="8.7420233"><ele>401.75</ele><time>2026-05-03T08:24:25.676Z</time></trkpt><trkpt lat="39.7259983" lon="8.7420983"><ele>402.0</ele><time>2026-05-03T08:24:26.675Z</time></trkpt><trkpt lat="39.7258467" lon="8.7421617"><ele>400.33333333333337</ele><time>2026-05-03T08:24:27.675Z</time></trkpt><trkpt lat="39.7257033" lon="8.74224"><ele>398.6666666666667</ele><time>2026-05-03T08:24:28.676Z</time></trkpt><trkpt lat="39.7255667" lon="8.7423167"><ele>397.0</ele><time>2026-05-03T08:24:29.675Z</time></trkpt><trkpt lat="39.7254217" lon="8.742385"><ele>397.0</ele><time>2026-05-03T08:24:30.675Z</time></trkpt><trkpt lat="39.7252633" lon="8.7424717"><ele>397.0</ele><time>2026-05-03T08:24:31.675Z</time></trkpt><trkpt lat="39.7251083" lon="8.74254"><ele>397.0</ele><time>2026-05-03T08:24:32.676Z</time></trkpt><trkpt lat="39.7249633" lon="8.74261"><ele>396.0</ele><time>2026-05-03T08:24:33.675Z</time></trkpt><trkpt lat="39.724805" lon="8.7426983"><ele>395.0</ele><time>2026-05-03T08:24:34.675Z</time></trkpt><trkpt lat="39.7246533" lon="8.7427883"><ele>394.0</ele><time>2026-05-03T08:24:35.675Z</time></trkpt><trkpt lat="39.7245067" lon="8.7428833"><ele>392.75</ele><time>2026-05-03T08:24:36.675Z</time></trkpt><trkpt lat="39.7243683" lon="8.74298"><ele>391.5</ele><time>2026-05-03T08:24:37.675Z</time></trkpt><trkpt lat="39.7242617" lon="8.7430533"><ele>390.25</ele><time>2026-05-03T08:24:38.676Z</time></trkpt><trkpt lat="39.7241733" lon="8.74311"><ele>389.0</ele><time>2026-05-03T08:24:39.675Z</time></trkpt><trkpt lat="39.72411" lon="8.7431617"><ele>388.99999999999994</ele><time>2026-05-03T08:24:40.676Z</time></trkpt><trkpt lat="39.7240567" lon="8.7432267"><ele>389.0</ele><time>2026-05-03T08:24:41.676Z</time></trkpt><trkpt lat="39.7240167" lon="8.7433067"><ele>389.0</ele><time>2026-05-03T08:24:42.675Z</time></trkpt><trkpt lat="39.7239783" lon="8.7433983"><ele>389.0</ele><time>2026-05-03T08:24:43.675Z</time></trkpt><trkpt lat="39.7239383" lon="8.743515"><ele>388.99999999999994</ele><time>2026-05-03T08:24:44.675Z</time></trkpt><trkpt lat="39.7239133" lon="8.74366"><ele>389.0</ele><time>2026-05-03T08:24:45.676Z</time></trkpt><trkpt lat="39.7238967" lon="8.7438117"><ele>388.79999999999995</ele><time>2026-05-03T08:24:46.676Z</time></trkpt><trkpt lat="39.7238617" lon="8.7439317"><ele>388.59999999999997</ele><time>2026-05-03T08:24:47.676Z</time></trkpt><trkpt lat="39.7238083" lon="8.744025"><ele>388.4</ele><time>2026-05-03T08:24:48.676Z</time></trkpt><trkpt lat="39.7237433" lon="8.7440983"><ele>388.2</ele><time>2026-05-03T08:24:49.675Z</time></trkpt><trkpt lat="39.7236583" lon="8.7441417"><ele>388.0</ele><time>2026-05-03T08:24:50.675Z</time></trkpt><trkpt lat="39.7235617" lon="8.74416"><ele>386.0</ele><time>2026-05-03T08:24:51.675Z</time></trkpt><trkpt lat="39.7234667" lon="8.74419"><ele>384.0</ele><time>2026-05-03T08:24:52.676Z</time></trkpt><trkpt lat="39.7233867" lon="8.7442567"><ele>382.0</ele><time>2026-05-03T08:24:53.675Z</time></trkpt><trkpt lat="39.723315" lon="8.74437"><ele>380.0</ele><time>2026-05-03T08:24:54.675Z</time></trkpt><trkpt lat="39.723265" lon="8.7445217"><ele>378.0</ele><time>2026-05-03T08:24:55.676Z</time></trkpt><trkpt lat="39.7232167" lon="8.7446967"><ele>377.75</ele><time>2026-05-03T08:24:56.676Z</time></trkpt><trkpt lat="39.7231583" lon="8.7448617"><ele>377.5</ele><time>2026-05-03T08:24:57.675Z</time></trkpt><trkpt lat="39.7231" lon="8.744995"><ele>377.25</ele><time>2026-05-03T08:24:58.675Z</time></trkpt><trkpt lat="39.723035" lon="8.7451067"><ele>377.0</ele><time>2026-05-03T08:24:59.676Z</time></trkpt><trkpt lat="39.7229767" lon="8.7452133"><ele>377.0</ele><time>2026-05-03T08:25:00.675Z</time></trkpt><trkpt lat="39.7229267" lon="8.74532"><ele>377.0</ele><time>2026-05-03T08:25:01.675Z</time></trkpt><trkpt lat="39.72288" lon="8.7454183"><ele>377.0</ele><time>2026-05-03T08:25:02.675Z</time></trkpt><trkpt lat="39.7228433" lon="8.7455267"><ele>377.0</ele><time>2026-05-03T08:25:03.675Z</time></trkpt><trkpt lat="39.7228083" lon="8.74564"><ele>377.0</ele><time>2026-05-03T08:25:04.675Z</time></trkpt><trkpt lat="39.7227767" lon="8.7457433"><ele>377.0</ele><time>2026-05-03T08:25:05.676Z</time></trkpt><trkpt lat="39.722745" lon="8.745815"><ele>377.0</ele><time>2026-05-03T08:25:06.675Z</time></trkpt><trkpt lat="39.7226733" lon="8.7458383"><ele>377.0</ele><time>2026-05-03T08:25:08.676Z</time></trkpt><trkpt lat="39.7226483" lon="8.7456983"><ele>377.0</ele><time>2026-05-03T08:25:10.676Z</time></trkpt><trkpt lat="39.7226517" lon="8.7455717"><ele>377.0</ele><time>2026-05-03T08:25:11.676Z</time></trkpt><trkpt lat="39.72265" lon="8.7454133"><ele>372.20000000000005</ele><time>2026-05-03T08:25:12.676Z</time></trkpt><trkpt lat="39.7226367" lon="8.7452367"><ele>367.4</ele><time>2026-05-03T08:25:13.676Z</time></trkpt><trkpt lat="39.72262" lon="8.7450717"><ele>362.6</ele><time>2026-05-03T08:25:14.676Z</time></trkpt><trkpt lat="39.7226" lon="8.7449383"><ele>357.79999999999995</ele><time>2026-05-03T08:25:15.675Z</time></trkpt><trkpt lat="39.7225767" lon="8.744845"><ele>353.0</ele><time>2026-05-03T08:25:16.675Z</time></trkpt><trkpt lat="39.7224833" lon="8.744835"><ele>353.0</ele><time>2026-05-03T08:25:18.675Z</time></trkpt><trkpt lat="39.72243" lon="8.74492"><ele>353.0</ele><time>2026-05-03T08:25:19.676Z</time></trkpt><trkpt lat="39.7223917" lon="8.7450433"><ele>353.0</ele><time>2026-05-03T08:25:20.676Z</time></trkpt><trkpt lat="39.72237" lon="8.7452017"><ele>353.0</ele><time>2026-05-03T08:25:21.676Z</time></trkpt><trkpt lat="39.72238" lon="8.7453867"><ele>351.59999999999997</ele><time>2026-05-03T08:25:22.676Z</time></trkpt><trkpt lat="39.7223783" lon="8.7455633"><ele>350.2</ele><time>2026-05-03T08:25:23.675Z</time></trkpt><trkpt lat="39.7223683" lon="8.74571"><ele>348.8</ele><time>2026-05-03T08:25:24.676Z</time></trkpt><trkpt lat="39.72236" lon="8.7458333"><ele>347.4</ele><time>2026-05-03T08:25:25.675Z</time></trkpt><trkpt lat="39.7223583" lon="8.7459367"><ele>346.0</ele><time>2026-05-03T08:25:26.676Z</time></trkpt><trkpt lat="39.7223517" lon="8.7460383"><ele>346.0</ele><time>2026-05-03T08:25:27.675Z</time></trkpt><trkpt lat="39.72233" lon="8.7461217"><ele>346.0</ele><time>2026-05-03T08:25:28.676Z</time></trkpt><trkpt lat="39.7222617" lon="8.7461767"><ele>346.0</ele><time>2026-05-03T08:25:30.675Z</time></trkpt><trkpt lat="39.7221967" lon="8.7460667"><ele>346.0</ele><time>2026-05-03T08:25:32.676Z</time></trkpt><trkpt lat="39.7221867" lon="8.7459567"><ele>346.0</ele><time>2026-05-03T08:25:33.675Z</time></trkpt><trkpt lat="39.7221883" lon="8.745825"><ele>346.0</ele><time>2026-05-03T08:25:34.676Z</time></trkpt><trkpt lat="39.722195" lon="8.745695"><ele>346.0</ele><time>2026-05-03T08:25:35.675Z</time></trkpt><trkpt lat="39.72218" lon="8.745595"><ele>346.0</ele><time>2026-05-03T08:25:36.676Z</time></trkpt><trkpt lat="39.722135" lon="8.7455367"><ele>346.0</ele><time>2026-05-03T08:25:37.675Z</time></trkpt><trkpt lat="39.7220667" lon="8.7456133"><ele>346.0</ele><time>2026-05-03T08:25:39.675Z</time></trkpt><trkpt lat="39.7220717" lon="8.745695"><ele>346.0</ele><time>2026-05-03T08:25:40.675Z</time></trkpt><trkpt lat="39.72209" lon="8.7458017"><ele>346.0</ele><time>2026-05-03T08:25:41.675Z</time></trkpt><trkpt lat="39.7221067" lon="8.74591"><ele>346.0</ele><time>2026-05-03T08:25:42.676Z</time></trkpt><trkpt lat="39.7221183" lon="8.7460033"><ele>346.0</ele><time>2026-05-03T08:25:43.675Z</time></trkpt><trkpt lat="39.722085" lon="8.74615"><ele>346.0</ele><time>2026-05-03T08:25:45.675Z</time></trkpt><trkpt lat="39.7219983" lon="8.746165"><ele>346.0</ele><time>2026-05-03T08:25:47.675Z</time></trkpt><trkpt lat="39.7219783" lon="8.7460483"><ele>346.0</ele><time>2026-05-03T08:25:48.675Z</time></trkpt><trkpt lat="39.721965" lon="8.7459267"><ele>346.0</ele><time>2026-05-03T08:25:49.675Z</time></trkpt><trkpt lat="39.7219467" lon="8.74582"><ele>346.0</ele><time>2026-05-03T08:25:50.675Z</time></trkpt><trkpt lat="39.7219167" lon="8.7457383"><ele>346.0</ele><time>2026-05-03T08:25:51.675Z</time></trkpt><trkpt lat="39.721835" lon="8.7457983"><ele>346.0</ele><time>2026-05-03T08:25:53.675Z</time></trkpt><trkpt lat="39.7218267" lon="8.745885"><ele>346.0</ele><time>2026-05-03T08:25:54.675Z</time></trkpt><trkpt lat="39.7218233" lon="8.745975"><ele>346.0</ele><time>2026-05-03T08:25:55.675Z</time></trkpt><trkpt lat="39.72181" lon="8.746075"><ele>340.5</ele><time>2026-05-03T08:25:56.675Z</time></trkpt><trkpt lat="39.72174" lon="8.7461417"><ele>335.0</ele><time>2026-05-03T08:25:58.675Z</time></trkpt><trkpt lat="39.721665" lon="8.7460567"><ele>329.5</ele><time>2026-05-03T08:26:00.675Z</time></trkpt><trkpt lat="39.7215733" lon="8.7459733"><ele>324.0</ele><time>2026-05-03T08:26:02.676Z</time></trkpt><trkpt lat="39.7215017" lon="8.7459817"><ele>318.5</ele><time>2026-05-03T08:26:03.676Z</time></trkpt><trkpt lat="39.721465" lon="8.7460617"><ele>313.0</ele><time>2026-05-03T08:26:04.676Z</time></trkpt><trkpt lat="39.72144" lon="8.7461517"><ele>313.0</ele><time>2026-05-03T08:26:05.676Z</time></trkpt><trkpt lat="39.7214067" lon="8.7462317"><ele>313.0</ele><time>2026-05-03T08:26:06.675Z</time></trkpt><trkpt lat="39.72135" lon="8.74628"><ele>313.0</ele><time>2026-05-03T08:26:07.675Z</time></trkpt><trkpt lat="39.721245" lon="8.7462417"><ele>313.0</ele><time>2026-05-03T08:26:08.676Z</time></trkpt><trkpt lat="39.7211217" lon="8.7462033"><ele>313.0</ele><time>2026-05-03T08:26:09.675Z</time></trkpt><trkpt lat="39.7210017" lon="8.7461783"><ele>307.25</ele><time>2026-05-03T08:26:10.676Z</time></trkpt><trkpt lat="39.7208783" lon="8.7461583"><ele>301.5</ele><time>2026-05-03T08:26:11.676Z</time></trkpt><trkpt lat="39.7207633" lon="8.746165"><ele>295.75</ele><time>2026-05-03T08:26:12.675Z</time></trkpt><trkpt lat="39.720655" lon="8.746215"><ele>290.0</ele><time>2026-05-03T08:26:13.676Z</time></trkpt><trkpt lat="39.72057" lon="8.7462933"><ele>290.0</ele><time>2026-05-03T08:26:14.675Z</time></trkpt><trkpt lat="39.7204983" lon="8.7463833"><ele>290.0</ele><time>2026-05-03T08:26:15.676Z</time></trkpt><trkpt lat="39.72042" lon="8.7464667"><ele>290.0</ele><time>2026-05-03T08:26:16.675Z</time></trkpt><trkpt lat="39.7203483" lon="8.7465667"><ele>290.0</ele><time>2026-05-03T08:26:17.676Z</time></trkpt><trkpt lat="39.7202783" lon="8.7466833"><ele>290.0</ele><time>2026-05-03T08:26:18.675Z</time></trkpt><trkpt lat="39.7202267" lon="8.74682"><ele>285.75</ele><time>2026-05-03T08:26:19.675Z</time></trkpt><trkpt lat="39.7201767" lon="8.7469683"><ele>281.5</ele><time>2026-05-03T08:26:20.675Z</time></trkpt><trkpt lat="39.7201217" lon="8.747125"><ele>277.25</ele><time>2026-05-03T08:26:21.676Z</time></trkpt><trkpt lat="39.7200767" lon="8.7472767"><ele>273.0</ele><time>2026-05-03T08:26:22.676Z</time></trkpt><trkpt lat="39.72002" lon="8.7474117"><ele>273.0</ele><time>2026-05-03T08:26:23.675Z</time></trkpt><trkpt lat="39.7199783" lon="8.7475267"><ele>273.0</ele><time>2026-05-03T08:26:24.675Z</time></trkpt><trkpt lat="39.7199583" lon="8.7476067"><ele>273.0</ele><time>2026-05-03T08:26:25.675Z</time></trkpt><trkpt lat="39.7199017" lon="8.7477183"><ele>273.0</ele><time>2026-05-03T08:26:27.676Z</time></trkpt><trkpt lat="39.7197967" lon="8.7477567"><ele>273.0</ele><time>2026-05-03T08:26:29.675Z</time></trkpt><trkpt lat="39.719725" lon="8.7477333"><ele>273.0</ele><time>2026-05-03T08:26:30.676Z</time></trkpt><trkpt lat="39.71964" lon="8.74767"><ele>273.0</ele><time>2026-05-03T08:26:31.675Z</time></trkpt><trkpt lat="39.7195417" lon="8.7475983"><ele>273.0</ele><time>2026-05-03T08:26:32.675Z</time></trkpt><trkpt lat="39.7194283" lon="8.747525"><ele>273.0</ele><time>2026-05-03T08:26:33.675Z</time></trkpt><trkpt lat="39.7193083" lon="8.7474533"><ele>273.0</ele><time>2026-05-03T08:26:34.676Z</time></trkpt><trkpt lat="39.719185" lon="8.7473883"><ele>272.25</ele><time>2026-05-03T08:26:35.676Z</time></trkpt><trkpt lat="39.7190633" lon="8.7473183"><ele>271.5</ele><time>2026-05-03T08:26:36.676Z</time></trkpt><trkpt lat="39.7189433" lon="8.7472383"><ele>270.75</ele><time>2026-05-03T08:26:37.675Z</time></trkpt><trkpt lat="39.71883" lon="8.7471683"><ele>270.0</ele><time>2026-05-03T08:26:38.675Z</time></trkpt><trkpt lat="39.7187167" lon="8.747095"><ele>270.0</ele><time>2026-05-03T08:26:39.675Z</time></trkpt><trkpt lat="39.71861" lon="8.7470217"><ele>270.0</ele><time>2026-05-03T08:26:40.675Z</time></trkpt><trkpt lat="39.7185" lon="8.7469317"><ele>270.0</ele><time>2026-05-03T08:26:41.675Z</time></trkpt><trkpt lat="39.7183867" lon="8.7468433"><ele>270.0</ele><time>2026-05-03T08:26:42.675Z</time></trkpt><trkpt lat="39.7182783" lon="8.746745"><ele>267.25</ele><time>2026-05-03T08:26:43.676Z</time></trkpt><trkpt lat="39.718175" lon="8.74665"><ele>264.5</ele><time>2026-05-03T08:26:44.675Z</time></trkpt><trkpt lat="39.71807" lon="8.7465633"><ele>261.75</ele><time>2026-05-03T08:26:45.676Z</time></trkpt><trkpt lat="39.71796" lon="8.7464817"><ele>259.0</ele><time>2026-05-03T08:26:46.675Z</time></trkpt><trkpt lat="39.71786" lon="8.74645"><ele>259.0</ele><time>2026-05-03T08:26:47.675Z</time></trkpt><trkpt lat="39.7177583" lon="8.7464517"><ele>259.0</ele><time>2026-05-03T08:26:48.675Z</time></trkpt><trkpt lat="39.7176533" lon="8.7464717"><ele>259.0</ele><time>2026-05-03T08:26:49.675Z</time></trkpt><trkpt lat="39.7175467" lon="8.7465117"><ele>259.0</ele><time>2026-05-03T08:26:50.676Z</time></trkpt><trkpt lat="39.7174383" lon="8.7465383"><ele>259.0</ele><time>2026-05-03T08:26:51.676Z</time></trkpt><trkpt lat="39.7173167" lon="8.7465533"><ele>259.59999999999997</ele><time>2026-05-03T08:26:52.676Z</time></trkpt><trkpt lat="39.7171983" lon="8.74655"><ele>260.2</ele><time>2026-05-03T08:26:53.676Z</time></trkpt><trkpt lat="39.7170933" lon="8.7465233"><ele>260.79999999999995</ele><time>2026-05-03T08:26:54.676Z</time></trkpt><trkpt lat="39.7169967" lon="8.746485"><ele>261.4</ele><time>2026-05-03T08:26:55.675Z</time></trkpt><trkpt lat="39.7169133" lon="8.7464533"><ele>262.0</ele><time>2026-05-03T08:26:56.675Z</time></trkpt><trkpt lat="39.7168283" lon="8.7464383"><ele>262.0</ele><time>2026-05-03T08:26:57.676Z</time></trkpt><trkpt lat="39.7167483" lon="8.746425"><ele>262.0</ele><time>2026-05-03T08:26:58.675Z</time></trkpt><trkpt lat="39.7166733" lon="8.7464267"><ele>262.0</ele><time>2026-05-03T08:26:59.676Z</time></trkpt><trkpt lat="39.716595" lon="8.746435"><ele>262.0</ele><time>2026-05-03T08:27:00.675Z</time></trkpt><trkpt lat="39.7164967" lon="8.7464517"><ele>262.0</ele><time>2026-05-03T08:27:01.676Z</time></trkpt><trkpt lat="39.716385" lon="8.746465"><ele>262.0</ele><time>2026-05-03T08:27:02.676Z</time></trkpt><trkpt lat="39.71626" lon="8.7464817"><ele>262.0</ele><time>2026-05-03T08:27:03.675Z</time></trkpt><trkpt lat="39.7161317" lon="8.7465017"><ele>262.0</ele><time>2026-05-03T08:27:04.675Z</time></trkpt><trkpt lat="39.7160183" lon="8.746525"><ele>262.0</ele><time>2026-05-03T08:27:05.676Z</time></trkpt><trkpt lat="39.715915" lon="8.7465383"><ele>262.0</ele><time>2026-05-03T08:27:06.676Z</time></trkpt><trkpt lat="39.7158183" lon="8.7465417"><ele>262.0</ele><time>2026-05-03T08:27:07.675Z</time></trkpt><trkpt lat="39.715745" lon="8.74649"><ele>260.5</ele><time>2026-05-03T08:27:08.676Z</time></trkpt><trkpt lat="39.7156533" lon="8.746425"><ele>259.0</ele><time>2026-05-03T08:27:09.676Z</time></trkpt><trkpt lat="39.7155367" lon="8.7463567"><ele>257.5</ele><time>2026-05-03T08:27:10.675Z</time></trkpt><trkpt lat="39.7154033" lon="8.746295"><ele>256.0</ele><time>2026-05-03T08:27:11.676Z</time></trkpt><trkpt lat="39.7152883" lon="8.746235"><ele>255.0</ele><time>2026-05-03T08:27:12.675Z</time></trkpt><trkpt lat="39.715175" lon="8.7461767"><ele>254.0</ele><time>2026-05-03T08:27:13.675Z</time></trkpt><trkpt lat="39.7150617" lon="8.7461183"><ele>253.0</ele><time>2026-05-03T08:27:14.675Z</time></trkpt><trkpt lat="39.7149517" lon="8.7460683"><ele>252.0</ele><time>2026-05-03T08:27:15.676Z</time></trkpt><trkpt lat="39.71487" lon="8.7460083"><ele>252.0</ele><time>2026-05-03T08:27:16.675Z</time></trkpt><trkpt lat="39.7147983" lon="8.7459233"><ele>252.0</ele><time>2026-05-03T08:27:17.675Z</time></trkpt><trkpt lat="39.714715" lon="8.745815"><ele>252.0</ele><time>2026-05-03T08:27:18.676Z</time></trkpt><trkpt lat="39.7146133" lon="8.7457017"><ele>252.0</ele><time>2026-05-03T08:27:19.676Z</time></trkpt><trkpt lat="39.7145067" lon="8.7456"><ele>252.0</ele><time>2026-05-03T08:27:20.675Z</time></trkpt><trkpt lat="39.7144033" lon="8.745525"><ele>252.0</ele><time>2026-05-03T08:27:21.676Z</time></trkpt><trkpt lat="39.7143183" lon="8.7454617"><ele>252.0</ele><time>2026-05-03T08:27:22.675Z</time></trkpt><trkpt lat="39.714245" lon="8.7453833"><ele>252.0</ele><time>2026-05-03T08:27:23.676Z</time></trkpt><trkpt lat="39.7141917" lon="8.74529"><ele>252.0</ele><time>2026-05-03T08:27:24.675Z</time></trkpt><trkpt lat="39.714145" lon="8.745165"><ele>252.0</ele><time>2026-05-03T08:27:25.676Z</time></trkpt><trkpt lat="39.7140867" lon="8.7450333"><ele>252.0</ele><time>2026-05-03T08:27:26.676Z</time></trkpt><trkpt lat="39.7140083" lon="8.74491"><ele>252.0</ele><time>2026-05-03T08:27:27.675Z</time></trkpt><trkpt lat="39.71392" lon="8.7447767"><ele>252.0</ele><time>2026-05-03T08:27:28.675Z</time></trkpt><trkpt lat="39.7138183" lon="8.74465"><ele>252.0</ele><time>2026-05-03T08:27:29.675Z</time></trkpt><trkpt lat="39.713715" lon="8.744515"><ele>252.0</ele><time>2026-05-03T08:27:30.675Z</time></trkpt><trkpt lat="39.7136133" lon="8.7443867"><ele>252.0</ele><time>2026-05-03T08:27:31.675Z</time></trkpt><trkpt lat="39.713515" lon="8.7442683"><ele>252.0</ele><time>2026-05-03T08:27:32.675Z</time></trkpt><trkpt lat="39.7134217" lon="8.7441583"><ele>250.5</ele><time>2026-05-03T08:27:33.675Z</time></trkpt><trkpt lat="39.7133333" lon="8.7440683"><ele>249.0</ele><time>2026-05-03T08:27:34.675Z</time></trkpt><trkpt lat="39.71325" lon="8.7440117"><ele>247.5</ele><time>2026-05-03T08:27:35.675Z</time></trkpt><trkpt lat="39.713145" lon="8.7439517"><ele>246.0</ele><time>2026-05-03T08:27:36.675Z</time></trkpt><trkpt lat="39.7130267" lon="8.7438783"><ele>246.0</ele><time>2026-05-03T08:27:37.675Z</time></trkpt><trkpt lat="39.7129" lon="8.7437883"><ele>246.0</ele><time>2026-05-03T08:27:38.675Z</time></trkpt><trkpt lat="39.712785" lon="8.7437117"><ele>246.0</ele><time>2026-05-03T08:27:39.675Z</time></trkpt><trkpt lat="39.7126783" lon="8.7436517"><ele>246.0</ele><time>2026-05-03T08:27:40.675Z</time></trkpt><trkpt lat="39.712585" lon="8.743615"><ele>246.0</ele><time>2026-05-03T08:27:41.676Z</time></trkpt><trkpt lat="39.7125067" lon="8.7435817"><ele>246.0</ele><time>2026-05-03T08:27:42.675Z</time></trkpt><trkpt lat="39.712445" lon="8.743525"><ele>246.0</ele><time>2026-05-03T08:27:43.675Z</time></trkpt><trkpt lat="39.7123917" lon="8.7434467"><ele>246.0</ele><time>2026-05-03T08:27:44.675Z</time></trkpt><trkpt lat="39.712345" lon="8.7433517"><ele>246.0</ele><time>2026-05-03T08:27:45.676Z</time></trkpt><trkpt lat="39.7123017" lon="8.74324"><ele>246.0</ele><time>2026-05-03T08:27:46.676Z</time></trkpt><trkpt lat="39.7122567" lon="8.743125"><ele>246.0</ele><time>2026-05-03T08:27:47.675Z</time></trkpt><trkpt lat="39.7122067" lon="8.7430383"><ele>246.00000000000003</ele><time>2026-05-03T08:27:48.675Z</time></trkpt><trkpt lat="39.71214" lon="8.7429533"><ele>246.00000000000003</ele><time>2026-05-03T08:27:49.675Z</time></trkpt><trkpt lat="39.7120633" lon="8.7428667"><ele>246.0</ele><time>2026-05-03T08:27:50.675Z</time></trkpt><trkpt lat="39.7119917" lon="8.742785"><ele>246.0</ele><time>2026-05-03T08:27:51.675Z</time></trkpt><trkpt lat="39.7119317" lon="8.7427083"><ele>243.5</ele><time>2026-05-03T08:27:52.675Z</time></trkpt><trkpt lat="39.71189" lon="8.7426167"><ele>241.0</ele><time>2026-05-03T08:27:53.675Z</time></trkpt><trkpt lat="39.7118583" lon="8.7425333"><ele>238.5</ele><time>2026-05-03T08:27:54.675Z</time></trkpt><trkpt lat="39.7118317" lon="8.7424483"><ele>236.0</ele><time>2026-05-03T08:27:55.675Z</time></trkpt><trkpt lat="39.7118267" lon="8.7423583"><ele>233.5</ele><time>2026-05-03T08:27:56.676Z</time></trkpt><trkpt lat="39.7118317" lon="8.7421917"><ele>231.0</ele><time>2026-05-03T08:27:58.675Z</time></trkpt><trkpt lat="39.7118183" lon="8.7420967"><ele>231.0</ele><time>2026-05-03T08:27:59.676Z</time></trkpt><trkpt lat="39.7118" lon="8.741995"><ele>231.0</ele><time>2026-05-03T08:28:00.675Z</time></trkpt><trkpt lat="39.7117867" lon="8.7418967"><ele>231.0</ele><time>2026-05-03T08:28:01.675Z</time></trkpt><trkpt lat="39.7117767" lon="8.741805"><ele>231.0</ele><time>2026-05-03T08:28:02.675Z</time></trkpt><trkpt lat="39.71176" lon="8.7416933"><ele>231.0</ele><time>2026-05-03T08:28:03.675Z</time></trkpt><trkpt lat="39.7117533" lon="8.7415717"><ele>231.0</ele><time>2026-05-03T08:28:04.675Z</time></trkpt><trkpt lat="39.7117483" lon="8.7414467"><ele>228.83333333333334</ele><time>2026-05-03T08:28:05.676Z</time></trkpt><trkpt lat="39.711745" lon="8.741325"><ele>226.66666666666669</ele><time>2026-05-03T08:28:06.675Z</time></trkpt><trkpt lat="39.7117317" lon="8.7412167"><ele>224.5</ele><time>2026-05-03T08:28:07.675Z</time></trkpt><trkpt lat="39.71171" lon="8.7411333"><ele>222.33333333333334</ele><time>2026-05-03T08:28:08.675Z</time></trkpt><trkpt lat="39.71167" lon="8.7410517"><ele>220.16666666666669</ele><time>2026-05-03T08:28:09.675Z</time></trkpt><trkpt lat="39.7116067" lon="8.7409767"><ele>218.0</ele><time>2026-05-03T08:28:10.676Z</time></trkpt><trkpt lat="39.7115217" lon="8.7409117"><ele>216.0</ele><time>2026-05-03T08:28:11.676Z</time></trkpt><trkpt lat="39.7114267" lon="8.74084"><ele>214.0</ele><time>2026-05-03T08:28:12.675Z</time></trkpt><trkpt lat="39.7113417" lon="8.7407617"><ele>212.0</ele><time>2026-05-03T08:28:13.675Z</time></trkpt><trkpt lat="39.7112633" lon="8.7406583"><ele>210.0</ele><time>2026-05-03T08:28:14.675Z</time></trkpt><trkpt lat="39.71118" lon="8.740545"><ele>208.0</ele><time>2026-05-03T08:28:15.676Z</time></trkpt><trkpt lat="39.7111017" lon="8.74043"><ele>206.75</ele><time>2026-05-03T08:28:16.676Z</time></trkpt><trkpt lat="39.7110017" lon="8.7403083"><ele>205.5</ele><time>2026-05-03T08:28:17.675Z</time></trkpt><trkpt lat="39.7109167" lon="8.7401933"><ele>204.25</ele><time>2026-05-03T08:28:18.676Z</time></trkpt><trkpt lat="39.7108483" lon="8.74008"><ele>203.0</ele><time>2026-05-03T08:28:19.675Z</time></trkpt><trkpt lat="39.7107933" lon="8.7399667"><ele>202.33333333333334</ele><time>2026-05-03T08:28:20.675Z</time></trkpt><trkpt lat="39.7107333" lon="8.7398683"><ele>201.66666666666669</ele><time>2026-05-03T08:28:21.675Z</time></trkpt><trkpt lat="39.7106667" lon="8.7397933"><ele>201.0</ele><time>2026-05-03T08:28:22.676Z</time></trkpt><trkpt lat="39.7105917" lon="8.73973"><ele>200.33333333333331</ele><time>2026-05-03T08:28:23.676Z</time></trkpt><trkpt lat="39.710505" lon="8.7396933"><ele>199.66666666666666</ele><time>2026-05-03T08:28:24.675Z</time></trkpt><trkpt lat="39.710445" lon="8.7396333"><ele>199.0</ele><time>2026-05-03T08:28:25.675Z</time></trkpt><trkpt lat="39.7104" lon="8.739565"><ele>199.0</ele><time>2026-05-03T08:28:26.675Z</time></trkpt><trkpt lat="39.71037" lon="8.7394167"><ele>199.0</ele><time>2026-05-03T08:28:28.676Z</time></trkpt><trkpt lat="39.710315" lon="8.7393017"><ele>199.0</ele><time>2026-05-03T08:28:30.675Z</time></trkpt><trkpt lat="39.7101783" lon="8.7393117"><ele>199.0</ele><time>2026-05-03T08:28:32.675Z</time></trkpt><trkpt lat="39.7100833" lon="8.7393467"><ele>196.6</ele><time>2026-05-03T08:28:33.675Z</time></trkpt><trkpt lat="39.7099867" lon="8.739385"><ele>194.2</ele><time>2026-05-03T08:28:34.676Z</time></trkpt><trkpt lat="39.7099" lon="8.7394217"><ele>191.79999999999998</ele><time>2026-05-03T08:28:35.675Z</time></trkpt><trkpt lat="39.7098183" lon="8.73946"><ele>189.39999999999998</ele><time>2026-05-03T08:28:36.675Z</time></trkpt><trkpt lat="39.7097433" lon="8.7395167"><ele>187.0</ele><time>2026-05-03T08:28:37.675Z</time></trkpt><trkpt lat="39.70966" lon="8.7395883"><ele>187.0</ele><time>2026-05-03T08:28:38.676Z</time></trkpt><trkpt lat="39.709595" lon="8.7396733"><ele>187.0</ele><time>2026-05-03T08:28:39.675Z</time></trkpt><trkpt lat="39.70955" lon="8.7397517"><ele>187.0</ele><time>2026-05-03T08:28:40.675Z</time></trkpt><trkpt lat="39.7095167" lon="8.739865"><ele>187.0</ele><time>2026-05-03T08:28:42.675Z</time></trkpt><trkpt lat="39.7095133" lon="8.73999"><ele>187.0</ele><time>2026-05-03T08:28:44.676Z</time></trkpt><trkpt lat="39.7094617" lon="8.7401"><ele>183.83333333333334</ele><time>2026-05-03T08:28:46.675Z</time></trkpt><trkpt lat="39.7093867" lon="8.7402167"><ele>180.66666666666669</ele><time>2026-05-03T08:28:48.675Z</time></trkpt><trkpt lat="39.709345" lon="8.74028"><ele>177.5</ele><time>2026-05-03T08:28:49.675Z</time></trkpt><trkpt lat="39.7092817" lon="8.740345"><ele>174.33333333333334</ele><time>2026-05-03T08:28:50.676Z</time></trkpt><trkpt lat="39.7092133" lon="8.7404117"><ele>171.16666666666666</ele><time>2026-05-03T08:28:51.676Z</time></trkpt><trkpt lat="39.7091383" lon="8.7404767"><ele>168.0</ele><time>2026-05-03T08:28:52.676Z</time></trkpt><trkpt lat="39.70907" lon="8.7405433"><ele>168.0</ele><time>2026-05-03T08:28:53.676Z</time></trkpt><trkpt lat="39.7090183" lon="8.7406"><ele>168.0</ele><time>2026-05-03T08:28:54.675Z</time></trkpt><trkpt lat="39.70898" lon="8.740665"><ele>168.0</ele><time>2026-05-03T08:28:55.675Z</time></trkpt><trkpt lat="39.70894" lon="8.74073"><ele>168.0</ele><time>2026-05-03T08:28:56.676Z</time></trkpt><trkpt lat="39.7089067" lon="8.7408017"><ele>168.0</ele><time>2026-05-03T08:28:57.675Z</time></trkpt><trkpt lat="39.7088617" lon="8.740955"><ele>168.0</ele><time>2026-05-03T08:28:59.676Z</time></trkpt><trkpt lat="39.708845" lon="8.74105"><ele>169.8</ele><time>2026-05-03T08:29:00.676Z</time></trkpt><trkpt lat="39.7088267" lon="8.7411667"><ele>171.60000000000002</ele><time>2026-05-03T08:29:01.676Z</time></trkpt><trkpt lat="39.70881" lon="8.7412917"><ele>173.39999999999998</ele><time>2026-05-03T08:29:02.676Z</time></trkpt><trkpt lat="39.7087833" lon="8.7414133"><ele>175.2</ele><time>2026-05-03T08:29:03.675Z</time></trkpt><trkpt lat="39.708755" lon="8.74149"><ele>177.0</ele><time>2026-05-03T08:29:04.675Z</time></trkpt><trkpt lat="39.7086583" lon="8.7415383"><ele>177.0</ele><time>2026-05-03T08:29:06.676Z</time></trkpt><trkpt lat="39.708605" lon="8.74149"><ele>177.0</ele><time>2026-05-03T08:29:07.676Z</time></trkpt><trkpt lat="39.70855" lon="8.74142"><ele>177.0</ele><time>2026-05-03T08:29:08.676Z</time></trkpt><trkpt lat="39.7084917" lon="8.741325"><ele>177.0</ele><time>2026-05-03T08:29:09.676Z</time></trkpt><trkpt lat="39.7084317" lon="8.7412333"><ele>177.0</ele><time>2026-05-03T08:29:10.675Z</time></trkpt><trkpt lat="39.70838" lon="8.7411533"><ele>177.0</ele><time>2026-05-03T08:29:11.676Z</time></trkpt><trkpt lat="39.7083317" lon="8.741075"><ele>172.0</ele><time>2026-05-03T08:29:12.675Z</time></trkpt><trkpt lat="39.7082833" lon="8.7409933"><ele>167.0</ele><time>2026-05-03T08:29:13.675Z</time></trkpt><trkpt lat="39.7082383" lon="8.7409117"><ele>162.0</ele><time>2026-05-03T08:29:14.675Z</time></trkpt><trkpt lat="39.7081917" lon="8.740835"><ele>157.0</ele><time>2026-05-03T08:29:15.676Z</time></trkpt><trkpt lat="39.7081383" lon="8.74074"><ele>152.0</ele><time>2026-05-03T08:29:16.675Z</time></trkpt><trkpt lat="39.7080817" lon="8.7406433"><ele>147.0</ele><time>2026-05-03T08:29:17.676Z</time></trkpt><trkpt lat="39.7080333" lon="8.740555"><ele>147.0</ele><time>2026-05-03T08:29:18.675Z</time></trkpt><trkpt lat="39.7079867" lon="8.7404683"><ele>147.0</ele><time>2026-05-03T08:29:19.675Z</time></trkpt><trkpt lat="39.70794" lon="8.7403867"><ele>147.0</ele><time>2026-05-03T08:29:20.675Z</time></trkpt><trkpt lat="39.707885" lon="8.7402967"><ele>147.0</ele><time>2026-05-03T08:29:21.676Z</time></trkpt><trkpt lat="39.7078267" lon="8.7402167"><ele>147.0</ele><time>2026-05-03T08:29:22.676Z</time></trkpt><trkpt lat="39.70779" lon="8.7401467"><ele>147.0</ele><time>2026-05-03T08:29:23.675Z</time></trkpt><trkpt lat="39.7077467" lon="8.740075"><ele>143.33333333333334</ele><time>2026-05-03T08:29:24.676Z</time></trkpt><trkpt lat="39.707705" lon="8.74"><ele>139.66666666666666</ele><time>2026-05-03T08:29:25.675Z</time></trkpt><trkpt lat="39.7076667" lon="8.7399167"><ele>136.0</ele><time>2026-05-03T08:29:26.675Z</time></trkpt><trkpt lat="39.707615" lon="8.7398333"><ele>132.33333333333331</ele><time>2026-05-03T08:29:27.675Z</time></trkpt><trkpt lat="39.7075683" lon="8.7397433"><ele>128.66666666666666</ele><time>2026-05-03T08:29:28.676Z</time></trkpt><trkpt lat="39.7075183" lon="8.7396633"><ele>125.0</ele><time>2026-05-03T08:29:29.676Z</time></trkpt><trkpt lat="39.70746" lon="8.73959"><ele>124.99999999999999</ele><time>2026-05-03T08:29:30.675Z</time></trkpt><trkpt lat="39.7073933" lon="8.7395433"><ele>125.0</ele><time>2026-05-03T08:29:31.675Z</time></trkpt><trkpt lat="39.7073267" lon="8.73951"><ele>125.0</ele><time>2026-05-03T08:29:32.675Z</time></trkpt><trkpt lat="39.7072433" lon="8.73949"><ele>125.0</ele><time>2026-05-03T08:29:33.675Z</time></trkpt><trkpt lat="39.7071517" lon="8.7394383"><ele>124.99999999999999</ele><time>2026-05-03T08:29:34.676Z</time></trkpt><trkpt lat="39.70706" lon="8.7394"><ele>125.0</ele><time>2026-05-03T08:29:35.676Z</time></trkpt><trkpt lat="39.706965" lon="8.7393383"><ele>120.5</ele><time>2026-05-03T08:29:36.675Z</time></trkpt><trkpt lat="39.706865" lon="8.739265"><ele>116.0</ele><time>2026-05-03T08:29:37.676Z</time></trkpt><trkpt lat="39.7067483" lon="8.7391967"><ele>111.5</ele><time>2026-05-03T08:29:38.676Z</time></trkpt><trkpt lat="39.7066467" lon="8.739125"><ele>107.0</ele><time>2026-05-03T08:29:39.676Z</time></trkpt><trkpt lat="39.70655" lon="8.7390567"><ele>107.0</ele><time>2026-05-03T08:29:40.676Z</time></trkpt><trkpt lat="39.7064567" lon="8.7389833"><ele>107.0</ele><time>2026-05-03T08:29:41.675Z</time></trkpt><trkpt lat="39.7063617" lon="8.7388967"><ele>107.0</ele><time>2026-05-03T08:29:42.675Z</time></trkpt><trkpt lat="39.70627" lon="8.738795"><ele>107.0</ele><time>2026-05-03T08:29:43.676Z</time></trkpt><trkpt lat="39.70617" lon="8.7386933"><ele>108.0</ele><time>2026-05-03T08:29:44.675Z</time></trkpt><trkpt lat="39.706065" lon="8.738585"><ele>109.0</ele><time>2026-05-03T08:29:45.676Z</time></trkpt><trkpt lat="39.70596" lon="8.738475"><ele>110.0</ele><time>2026-05-03T08:29:46.675Z</time></trkpt><trkpt lat="39.70584" lon="8.738385"><ele>111.0</ele><time>2026-05-03T08:29:47.675Z</time></trkpt><trkpt lat="39.7057283" lon="8.7383"><ele>107.8</ele><time>2026-05-03T08:29:48.675Z</time></trkpt><trkpt lat="39.7056333" lon="8.73824"><ele>104.6</ele><time>2026-05-03T08:29:49.675Z</time></trkpt><trkpt lat="39.7055383" lon="8.7381683"><ele>101.4</ele><time>2026-05-03T08:29:50.676Z</time></trkpt><trkpt lat="39.705455" lon="8.738095"><ele>98.2</ele><time>2026-05-03T08:29:51.676Z</time></trkpt><trkpt lat="39.705375" lon="8.7380317"><ele>95.0</ele><time>2026-05-03T08:29:52.675Z</time></trkpt><trkpt lat="39.7052983" lon="8.7379833"><ele>94.25</ele><time>2026-05-03T08:29:53.675Z</time></trkpt><trkpt lat="39.7052017" lon="8.737955"><ele>93.5</ele><time>2026-05-03T08:29:54.676Z</time></trkpt><trkpt lat="39.70507" lon="8.7379283"><ele>92.75</ele><time>2026-05-03T08:29:55.676Z</time></trkpt><trkpt lat="39.7049083" lon="8.7378967"><ele>92.0</ele><time>2026-05-03T08:29:56.676Z</time></trkpt><trkpt lat="39.7047217" lon="8.737875"><ele>92.0</ele><time>2026-05-03T08:29:57.676Z</time></trkpt><trkpt lat="39.7045383" lon="8.73787"><ele>92.0</ele><time>2026-05-03T08:29:58.676Z</time></trkpt><trkpt lat="39.7043783" lon="8.7378733"><ele>92.0</ele><time>2026-05-03T08:29:59.675Z</time></trkpt><trkpt lat="39.7042483" lon="8.7378783"><ele>91.0</ele><time>2026-05-03T08:30:00.675Z</time></trkpt><trkpt lat="39.7041433" lon="8.7378783"><ele>90.0</ele><time>2026-05-03T08:30:01.676Z</time></trkpt><trkpt lat="39.7040517" lon="8.73788"><ele>89.0</ele><time>2026-05-03T08:30:02.675Z</time></trkpt><trkpt lat="39.70398" lon="8.737895"><ele>88.0</ele><time>2026-05-03T08:30:03.676Z</time></trkpt><trkpt lat="39.703905" lon="8.7379267"><ele>87.0</ele><time>2026-05-03T08:30:04.675Z</time></trkpt><trkpt lat="39.7038283" lon="8.737975"><ele>86.0</ele><time>2026-05-03T08:30:05.675Z</time></trkpt><trkpt lat="39.7037517" lon="8.7380417"><ele>86.0</ele><time>2026-05-03T08:30:06.675Z</time></trkpt><trkpt lat="39.703665" lon="8.7381133"><ele>86.0</ele><time>2026-05-03T08:30:07.675Z</time></trkpt><trkpt lat="39.70358" lon="8.7381883"><ele>86.0</ele><time>2026-05-03T08:30:08.676Z</time></trkpt><trkpt lat="39.703495" lon="8.7382583"><ele>86.0</ele><time>2026-05-03T08:30:09.675Z</time></trkpt><trkpt lat="39.7034133" lon="8.73833"><ele>86.0</ele><time>2026-05-03T08:30:10.675Z</time></trkpt><trkpt lat="39.7033383" lon="8.7384"><ele>87.19999999999999</ele><time>2026-05-03T08:30:11.676Z</time></trkpt><trkpt lat="39.7032433" lon="8.7384717"><ele>88.39999999999999</ele><time>2026-05-03T08:30:12.675Z</time></trkpt><trkpt lat="39.7031583" lon="8.7385467"><ele>89.6</ele><time>2026-05-03T08:30:13.676Z</time></trkpt><trkpt lat="39.7030917" lon="8.73861"><ele>90.8</ele><time>2026-05-03T08:30:14.675Z</time></trkpt><trkpt lat="39.7030183" lon="8.738675"><ele>92.0</ele><time>2026-05-03T08:30:15.675Z</time></trkpt><trkpt lat="39.70294" lon="8.7387517"><ele>92.0</ele><time>2026-05-03T08:30:16.675Z</time></trkpt><trkpt lat="39.7028567" lon="8.738825"><ele>92.0</ele><time>2026-05-03T08:30:17.675Z</time></trkpt><trkpt lat="39.7027717" lon="8.7389"><ele>92.0</ele><time>2026-05-03T08:30:18.676Z</time></trkpt><trkpt lat="39.70269" lon="8.7389733"><ele>92.0</ele><time>2026-05-03T08:30:19.676Z</time></trkpt><trkpt lat="39.702615" lon="8.73904"><ele>92.0</ele><time>2026-05-03T08:30:20.676Z</time></trkpt><trkpt lat="39.7025283" lon="8.739105"><ele>91.0</ele><time>2026-05-03T08:30:21.676Z</time></trkpt><trkpt lat="39.7024283" lon="8.7391817"><ele>90.0</ele><time>2026-05-03T08:30:22.675Z</time></trkpt><trkpt lat="39.7023267" lon="8.7392733"><ele>89.0</ele><time>2026-05-03T08:30:23.676Z</time></trkpt><trkpt lat="39.702225" lon="8.739365"><ele>88.0</ele><time>2026-05-03T08:30:24.676Z</time></trkpt><trkpt lat="39.70212" lon="8.739455"><ele>89.25</ele><time>2026-05-03T08:30:25.675Z</time></trkpt><trkpt lat="39.70201" lon="8.7395567"><ele>90.5</ele><time>2026-05-03T08:30:26.675Z</time></trkpt><trkpt lat="39.701895" lon="8.739665"><ele>91.75</ele><time>2026-05-03T08:30:27.676Z</time></trkpt><trkpt lat="39.701785" lon="8.73978"><ele>93.0</ele><time>2026-05-03T08:30:28.675Z</time></trkpt><trkpt lat="39.7016733" lon="8.7398917"><ele>93.0</ele><time>2026-05-03T08:30:29.675Z</time></trkpt><trkpt lat="39.7015517" lon="8.739995"><ele>93.0</ele><time>2026-05-03T08:30:30.675Z</time></trkpt><trkpt lat="39.701425" lon="8.74008"><ele>93.0</ele><time>2026-05-03T08:30:31.675Z</time></trkpt><trkpt lat="39.701295" lon="8.7401533"><ele>93.0</ele><time>2026-05-03T08:30:32.675Z</time></trkpt><trkpt lat="39.7011683" lon="8.740225"><ele>92.80000000000001</ele><time>2026-05-03T08:30:33.675Z</time></trkpt><trkpt lat="39.701045" lon="8.74029"><ele>92.6</ele><time>2026-05-03T08:30:34.675Z</time></trkpt><trkpt lat="39.7009367" lon="8.740355"><ele>92.4</ele><time>2026-05-03T08:30:35.675Z</time></trkpt><trkpt lat="39.7008517" lon="8.7404033"><ele>92.19999999999999</ele><time>2026-05-03T08:30:36.675Z</time></trkpt><trkpt lat="39.70078" lon="8.7404367"><ele>92.0</ele><time>2026-05-03T08:30:37.675Z</time></trkpt><trkpt lat="39.7006783" lon="8.740455"><ele>92.0</ele><time>2026-05-03T08:30:39.675Z</time></trkpt><trkpt lat="39.7006117" lon="8.74037"><ele>92.0</ele><time>2026-05-03T08:30:42.676Z</time></trkpt><trkpt lat="39.7005933" lon="8.7402883"><ele>92.0</ele><time>2026-05-03T08:30:43.675Z</time></trkpt><trkpt lat="39.700575" lon="8.74017"><ele>92.0</ele><time>2026-05-03T08:30:44.675Z</time></trkpt><trkpt lat="39.7005517" lon="8.7400383"><ele>92.0</ele><time>2026-05-03T08:30:45.675Z</time></trkpt><trkpt lat="39.70052" lon="8.7398733"><ele>91.0</ele><time>2026-05-03T08:30:46.676Z</time></trkpt><trkpt lat="39.7004817" lon="8.7396667"><ele>90.0</ele><time>2026-05-03T08:30:47.675Z</time></trkpt><trkpt lat="39.7004417" lon="8.739455"><ele>89.0</ele><time>2026-05-03T08:30:48.675Z</time></trkpt><trkpt lat="39.7004133" lon="8.73924"><ele>87.66666666666667</ele><time>2026-05-03T08:30:49.675Z</time></trkpt><trkpt lat="39.7003733" lon="8.7390233"><ele>86.33333333333333</ele><time>2026-05-03T08:30:50.675Z</time></trkpt><trkpt lat="39.700325" lon="8.7387867"><ele>85.0</ele><time>2026-05-03T08:30:51.676Z</time></trkpt><trkpt lat="39.7002783" lon="8.738565"><ele>83.66666666666666</ele><time>2026-05-03T08:30:52.675Z</time></trkpt><trkpt lat="39.7002383" lon="8.7383517"><ele>82.33333333333333</ele><time>2026-05-03T08:30:53.676Z</time></trkpt><trkpt lat="39.7001967" lon="8.7381483"><ele>81.0</ele><time>2026-05-03T08:30:54.676Z</time></trkpt><trkpt lat="39.7001467" lon="8.737935"><ele>81.0</ele><time>2026-05-03T08:30:55.675Z</time></trkpt><trkpt lat="39.700115" lon="8.737725"><ele>81.0</ele><time>2026-05-03T08:30:56.675Z</time></trkpt><trkpt lat="39.7000767" lon="8.73752"><ele>81.0</ele><time>2026-05-03T08:30:57.676Z</time></trkpt><trkpt lat="39.7000333" lon="8.7373033"><ele>79.66666666666667</ele><time>2026-05-03T08:30:58.676Z</time></trkpt><trkpt lat="39.6999967" lon="8.7370883"><ele>78.33333333333334</ele><time>2026-05-03T08:30:59.676Z</time></trkpt><trkpt lat="39.6999617" lon="8.73686"><ele>77.0</ele><time>2026-05-03T08:31:00.676Z</time></trkpt><trkpt lat="39.6999267" lon="8.7366333"><ele>75.5</ele><time>2026-05-03T08:31:01.675Z</time></trkpt><trkpt lat="39.6998383" lon="8.7361883"><ele>74.0</ele><time>2026-05-03T08:31:03.675Z</time></trkpt><trkpt lat="39.6997883" lon="8.7359567"><ele>73.0</ele><time>2026-05-03T08:31:04.676Z</time></trkpt><trkpt lat="39.6997517" lon="8.7357183"><ele>72.0</ele><time>2026-05-03T08:31:05.675Z</time></trkpt><trkpt lat="39.6997517" lon="8.7357183"><ele>71.0</ele><time>2026-05-03T08:31:05.675Z</time></trkpt><trkpt lat="39.699495" lon="8.7342633"><ele>63.0</ele><time>2026-05-03T08:31:11.675Z</time></trkpt><trkpt lat="39.699345" lon="8.733525"><ele>63.0</ele><time>2026-05-03T08:31:14.675Z</time></trkpt><trkpt lat="39.699295" lon="8.733255"><ele>63.0</ele><time>2026-05-03T08:31:15.675Z</time></trkpt><trkpt lat="39.6992417" lon="8.73299"><ele>63.0</ele><time>2026-05-03T08:31:16.675Z</time></trkpt><trkpt lat="39.6991883" lon="8.73273"><ele>61.66666666666667</ele><time>2026-05-03T08:31:17.675Z</time></trkpt><trkpt lat="39.6991417" lon="8.7324533"><ele>60.333333333333336</ele><time>2026-05-03T08:31:18.675Z</time></trkpt><trkpt lat="39.699095" lon="8.732185"><ele>59.0</ele><time>2026-05-03T08:31:19.675Z</time></trkpt><trkpt lat="39.6990567" lon="8.7319133"><ele>58.333333333333336</ele><time>2026-05-03T08:31:20.675Z</time></trkpt><trkpt lat="39.6990033" lon="8.7316517"><ele>57.66666666666667</ele><time>2026-05-03T08:31:21.675Z</time></trkpt><trkpt lat="39.6989567" lon="8.7313867"><ele>57.0</ele><time>2026-05-03T08:31:22.675Z</time></trkpt><trkpt lat="39.6989083" lon="8.7311183"><ele>56.66666666666667</ele><time>2026-05-03T08:31:23.675Z</time></trkpt><trkpt lat="39.6988583" lon="8.7308517"><ele>56.333333333333336</ele><time>2026-05-03T08:31:24.676Z</time></trkpt><trkpt lat="39.6988067" lon="8.7305783"><ele>56.0</ele><time>2026-05-03T08:31:25.676Z</time></trkpt><trkpt lat="39.6987567" lon="8.7303067"><ele>54.66666666666667</ele><time>2026-05-03T08:31:26.675Z</time></trkpt><trkpt lat="39.6987067" lon="8.7300317"><ele>53.33333333333333</ele><time>2026-05-03T08:31:27.676Z</time></trkpt><trkpt lat="39.698655" lon="8.7297533"><ele>52.0</ele><time>2026-05-03T08:31:28.676Z</time></trkpt><trkpt lat="39.6986067" lon="8.7294567"><ele>51.0</ele><time>2026-05-03T08:31:29.675Z</time></trkpt><trkpt lat="39.6985583" lon="8.7291567"><ele>50.0</ele><time>2026-05-03T08:31:30.675Z</time></trkpt><trkpt lat="39.6985083" lon="8.7288783"><ele>50.0</ele><time>2026-05-03T08:31:31.675Z</time></trkpt><trkpt lat="39.6984567" lon="8.72861"><ele>50.0</ele><time>2026-05-03T08:31:32.676Z</time></trkpt><trkpt lat="39.6984183" lon="8.7283483"><ele>50.0</ele><time>2026-05-03T08:31:33.675Z</time></trkpt><trkpt lat="39.6983717" lon="8.7280867"><ele>49.66666666666667</ele><time>2026-05-03T08:31:34.675Z</time></trkpt><trkpt lat="39.698325" lon="8.7278267"><ele>49.33333333333333</ele><time>2026-05-03T08:31:35.675Z</time></trkpt><trkpt lat="39.6982767" lon="8.7275717"><ele>49.0</ele><time>2026-05-03T08:31:36.676Z</time></trkpt><trkpt lat="39.69823" lon="8.7273233"><ele>48.666666666666664</ele><time>2026-05-03T08:31:37.676Z</time></trkpt><trkpt lat="39.6981883" lon="8.727075"><ele>48.33333333333333</ele><time>2026-05-03T08:31:38.676Z</time></trkpt><trkpt lat="39.6981383" lon="8.72682"><ele>48.0</ele><time>2026-05-03T08:31:39.676Z</time></trkpt><trkpt lat="39.6980933" lon="8.7265683"><ele>47.666666666666664</ele><time>2026-05-03T08:31:40.676Z</time></trkpt><trkpt lat="39.6980483" lon="8.7263183"><ele>47.33333333333333</ele><time>2026-05-03T08:31:41.675Z</time></trkpt><trkpt lat="39.6980017" lon="8.726065"><ele>47.0</ele><time>2026-05-03T08:31:42.675Z</time></trkpt><trkpt lat="39.6979533" lon="8.7258167"><ele>46.666666666666664</ele><time>2026-05-03T08:31:43.676Z</time></trkpt><trkpt lat="39.6979133" lon="8.72558"><ele>46.333333333333336</ele><time>2026-05-03T08:31:44.676Z</time></trkpt><trkpt lat="39.69787" lon="8.7253417"><ele>46.0</ele><time>2026-05-03T08:31:45.676Z</time></trkpt><trkpt lat="39.697835" lon="8.7251267"><ele>45.5</ele><time>2026-05-03T08:31:46.675Z</time></trkpt><trkpt lat="39.697795" lon="8.7249233"><ele>45.0</ele><time>2026-05-03T08:31:47.675Z</time></trkpt><trkpt lat="39.697765" lon="8.7247433"><ele>44.5</ele><time>2026-05-03T08:31:48.675Z</time></trkpt><trkpt lat="39.6977283" lon="8.7245683"><ele>44.0</ele><time>2026-05-03T08:31:49.675Z</time></trkpt><trkpt lat="39.6976933" lon="8.7243783"><ele>44.0</ele><time>2026-05-03T08:31:50.675Z</time></trkpt><trkpt lat="39.6976583" lon="8.72418"><ele>44.0</ele><time>2026-05-03T08:31:51.675Z</time></trkpt><trkpt lat="39.69762" lon="8.7239817"><ele>44.0</ele><time>2026-05-03T08:31:52.676Z</time></trkpt><trkpt lat="39.6975883" lon="8.7238017"><ele>44.0</ele><time>2026-05-03T08:31:53.675Z</time></trkpt><trkpt lat="39.697555" lon="8.7236283"><ele>44.0</ele><time>2026-05-03T08:31:54.676Z</time></trkpt><trkpt lat="39.6975267" lon="8.7234717"><ele>44.0</ele><time>2026-05-03T08:31:55.676Z</time></trkpt><trkpt lat="39.6974983" lon="8.7233217"><ele>44.0</ele><time>2026-05-03T08:31:56.675Z</time></trkpt><trkpt lat="39.69747" lon="8.7231867"><ele>43.83333333333333</ele><time>2026-05-03T08:31:57.675Z</time></trkpt><trkpt lat="39.6974583" lon="8.7230667"><ele>43.666666666666664</ele><time>2026-05-03T08:31:58.676Z</time></trkpt><trkpt lat="39.6974517" lon="8.7229783"><ele>43.5</ele><time>2026-05-03T08:31:59.675Z</time></trkpt><trkpt lat="39.6974683" lon="8.7228917"><ele>43.333333333333336</ele><time>2026-05-03T08:32:00.675Z</time></trkpt><trkpt lat="39.6975067" lon="8.722815"><ele>43.16666666666667</ele><time>2026-05-03T08:32:01.675Z</time></trkpt><trkpt lat="39.697565" lon="8.7227417"><ele>43.0</ele><time>2026-05-03T08:32:02.675Z</time></trkpt><trkpt lat="39.697635" lon="8.7226567"><ele>43.0</ele><time>2026-05-03T08:32:03.675Z</time></trkpt><trkpt lat="39.6977183" lon="8.7225617"><ele>43.0</ele><time>2026-05-03T08:32:04.675Z</time></trkpt><trkpt lat="39.6977933" lon="8.72245"><ele>43.0</ele><time>2026-05-03T08:32:05.676Z</time></trkpt><trkpt lat="39.6978767" lon="8.7223433"><ele>43.0</ele><time>2026-05-03T08:32:06.675Z</time></trkpt><trkpt lat="39.6979633" lon="8.72223"><ele>42.75</ele><time>2026-05-03T08:32:07.676Z</time></trkpt><trkpt lat="39.6980567" lon="8.72213"><ele>42.5</ele><time>2026-05-03T08:32:08.676Z</time></trkpt><trkpt lat="39.6981617" lon="8.7220567"><ele>42.25</ele><time>2026-05-03T08:32:09.676Z</time></trkpt><trkpt lat="39.6982767" lon="8.722005"><ele>42.0</ele><time>2026-05-03T08:32:10.676Z</time></trkpt><trkpt lat="39.6983817" lon="8.7220083"><ele>42.0</ele><time>2026-05-03T08:32:11.675Z</time></trkpt><trkpt lat="39.6985" lon="8.722005"><ele>42.0</ele><time>2026-05-03T08:32:12.676Z</time></trkpt><trkpt lat="39.6986233" lon="8.7220567"><ele>42.0</ele><time>2026-05-03T08:32:13.676Z</time></trkpt><trkpt lat="39.6987433" lon="8.722155"><ele>42.0</ele><time>2026-05-03T08:32:14.675Z</time></trkpt><trkpt lat="39.6988533" lon="8.7222883"><ele>42.0</ele><time>2026-05-03T08:32:15.675Z</time></trkpt><trkpt lat="39.69896" lon="8.7224267"><ele>42.0</ele><time>2026-05-03T08:32:16.675Z</time></trkpt><trkpt lat="39.6990817" lon="8.7225783"><ele>42.0</ele><time>2026-05-03T08:32:17.675Z</time></trkpt><trkpt lat="39.6992067" lon="8.72273"><ele>42.666666666666664</ele><time>2026-05-03T08:32:18.675Z</time></trkpt><trkpt lat="39.699335" lon="8.7228867"><ele>43.33333333333333</ele><time>2026-05-03T08:32:19.675Z</time></trkpt><trkpt lat="39.69946" lon="8.7230433"><ele>44.0</ele><time>2026-05-03T08:32:20.675Z</time></trkpt><trkpt lat="39.6995833" lon="8.7231833"><ele>44.33333333333333</ele><time>2026-05-03T08:32:21.676Z</time></trkpt><trkpt lat="39.699695" lon="8.723315"><ele>44.666666666666664</ele><time>2026-05-03T08:32:22.676Z</time></trkpt><trkpt lat="39.6998033" lon="8.7234483"><ele>45.0</ele><time>2026-05-03T08:32:23.676Z</time></trkpt><trkpt lat="39.6999217" lon="8.7235817"><ele>45.666666666666664</ele><time>2026-05-03T08:32:24.675Z</time></trkpt><trkpt lat="39.700045" lon="8.7237183"><ele>46.33333333333333</ele><time>2026-05-03T08:32:25.676Z</time></trkpt><trkpt lat="39.7001683" lon="8.7238617"><ele>47.0</ele><time>2026-05-03T08:32:26.675Z</time></trkpt><trkpt lat="39.7002833" lon="8.7239917"><ele>47.666666666666664</ele><time>2026-05-03T08:32:27.676Z</time></trkpt><trkpt lat="39.7003933" lon="8.724125"><ele>48.33333333333333</ele><time>2026-05-03T08:32:28.675Z</time></trkpt><trkpt lat="39.70051" lon="8.72426"><ele>49.0</ele><time>2026-05-03T08:32:29.675Z</time></trkpt><trkpt lat="39.700625" lon="8.7243883"><ele>49.0</ele><time>2026-05-03T08:32:30.675Z</time></trkpt><trkpt lat="39.700745" lon="8.7245267"><ele>49.0</ele><time>2026-05-03T08:32:31.675Z</time></trkpt><trkpt lat="39.7008533" lon="8.7246633"><ele>49.0</ele><time>2026-05-03T08:32:32.676Z</time></trkpt><trkpt lat="39.7009617" lon="8.724785"><ele>49.0</ele><time>2026-05-03T08:32:33.676Z</time></trkpt><trkpt lat="39.70106" lon="8.7249117"><ele>49.0</ele><time>2026-05-03T08:32:34.675Z</time></trkpt><trkpt lat="39.7011717" lon="8.72504"><ele>49.0</ele><time>2026-05-03T08:32:35.675Z</time></trkpt><trkpt lat="39.7012817" lon="8.7251733"><ele>49.0</ele><time>2026-05-03T08:32:36.676Z</time></trkpt><trkpt lat="39.7014" lon="8.7253033"><ele>50.33333333333333</ele><time>2026-05-03T08:32:37.675Z</time></trkpt><trkpt lat="39.7015183" lon="8.725445"><ele>51.66666666666667</ele><time>2026-05-03T08:32:38.676Z</time></trkpt><trkpt lat="39.7016383" lon="8.7255917"><ele>53.0</ele><time>2026-05-03T08:32:39.675Z</time></trkpt><trkpt lat="39.7017617" lon="8.7257317"><ele>53.0</ele><time>2026-05-03T08:32:40.675Z</time></trkpt><trkpt lat="39.7018883" lon="8.7258767"><ele>53.0</ele><time>2026-05-03T08:32:41.675Z</time></trkpt><trkpt lat="39.70202" lon="8.7260317"><ele>53.0</ele><time>2026-05-03T08:32:42.676Z</time></trkpt><trkpt lat="39.70214" lon="8.7261833"><ele>53.66666666666667</ele><time>2026-05-03T08:32:43.675Z</time></trkpt><trkpt lat="39.7022633" lon="8.7263383"><ele>54.33333333333333</ele><time>2026-05-03T08:32:44.676Z</time></trkpt><trkpt lat="39.7023933" lon="8.7264883"><ele>55.0</ele><time>2026-05-03T08:32:45.676Z</time></trkpt><trkpt lat="39.702525" lon="8.7266383"><ele>55.0</ele><time>2026-05-03T08:32:46.676Z</time></trkpt><trkpt lat="39.7026583" lon="8.72678"><ele>55.0</ele><time>2026-05-03T08:32:47.675Z</time></trkpt><trkpt lat="39.702785" lon="8.7269317"><ele>55.0</ele><time>2026-05-03T08:32:48.676Z</time></trkpt><trkpt lat="39.7029183" lon="8.7270783"><ele>55.666666666666664</ele><time>2026-05-03T08:32:49.675Z</time></trkpt><trkpt lat="39.70305" lon="8.7272317"><ele>56.33333333333333</ele><time>2026-05-03T08:32:50.675Z</time></trkpt><trkpt lat="39.7031783" lon="8.7273733"><ele>57.0</ele><time>2026-05-03T08:32:51.675Z</time></trkpt><trkpt lat="39.7033067" lon="8.7275117"><ele>57.0</ele><time>2026-05-03T08:32:52.675Z</time></trkpt><trkpt lat="39.7034067" lon="8.72764"><ele>57.0</ele><time>2026-05-03T08:32:53.676Z</time></trkpt><trkpt lat="39.703495" lon="8.7277483"><ele>57.0</ele><time>2026-05-03T08:32:54.675Z</time></trkpt><trkpt lat="39.7035633" lon="8.7278417"><ele>57.0</ele><time>2026-05-03T08:32:55.675Z</time></trkpt><trkpt lat="39.7036317" lon="8.727925"><ele>57.8</ele><time>2026-05-03T08:32:56.676Z</time></trkpt><trkpt lat="39.703695" lon="8.728005"><ele>58.6</ele><time>2026-05-03T08:32:57.676Z</time></trkpt><trkpt lat="39.7037517" lon="8.7280733"><ele>59.39999999999999</ele><time>2026-05-03T08:32:58.675Z</time></trkpt><trkpt lat="39.7038167" lon="8.7281033"><ele>60.199999999999996</ele><time>2026-05-03T08:32:59.675Z</time></trkpt><trkpt lat="39.7039183" lon="8.728065"><ele>61.0</ele><time>2026-05-03T08:33:01.675Z</time></trkpt><trkpt lat="39.7039617" lon="8.727895"><ele>61.0</ele><time>2026-05-03T08:33:03.675Z</time></trkpt><trkpt lat="39.7039633" lon="8.7277717"><ele>60.99999999999999</ele><time>2026-05-03T08:33:04.676Z</time></trkpt><trkpt lat="39.7039767" lon="8.7276267"><ele>60.99999999999999</ele><time>2026-05-03T08:33:05.675Z</time></trkpt><trkpt lat="39.7040017" lon="8.72749"><ele>61.0</ele><time>2026-05-03T08:33:06.675Z</time></trkpt><trkpt lat="39.704025" lon="8.72734"><ele>61.0</ele><time>2026-05-03T08:33:07.675Z</time></trkpt><trkpt lat="39.7040317" lon="8.7271817"><ele>60.75</ele><time>2026-05-03T08:33:08.675Z</time></trkpt><trkpt lat="39.70403" lon="8.7270183"><ele>60.5</ele><time>2026-05-03T08:33:09.675Z</time></trkpt><trkpt lat="39.7040333" lon="8.7268567"><ele>60.25</ele><time>2026-05-03T08:33:10.675Z</time></trkpt><trkpt lat="39.7040533" lon="8.7266917"><ele>60.0</ele><time>2026-05-03T08:33:11.675Z</time></trkpt><trkpt lat="39.704095" lon="8.7265333"><ele>60.0</ele><time>2026-05-03T08:33:12.675Z</time></trkpt><trkpt lat="39.7041567" lon="8.726385"><ele>60.0</ele><time>2026-05-03T08:33:13.675Z</time></trkpt><trkpt lat="39.704235" lon="8.7262467"><ele>60.0</ele><time>2026-05-03T08:33:14.675Z</time></trkpt><trkpt lat="39.7043117" lon="8.7261167"><ele>60.0</ele><time>2026-05-03T08:33:15.675Z</time></trkpt><trkpt lat="39.7044033" lon="8.7259867"><ele>59.8</ele><time>2026-05-03T08:33:16.675Z</time></trkpt><trkpt lat="39.7044767" lon="8.7258683"><ele>59.6</ele><time>2026-05-03T08:33:17.676Z</time></trkpt><trkpt lat="39.704545" lon="8.7257533"><ele>59.400000000000006</ele><time>2026-05-03T08:33:18.676Z</time></trkpt><trkpt lat="39.7045917" lon="8.7256633"><ele>59.2</ele><time>2026-05-03T08:33:19.675Z</time></trkpt><trkpt lat="39.7046117" lon="8.7255717"><ele>59.0</ele><time>2026-05-03T08:33:20.675Z</time></trkpt><trkpt lat="39.704615" lon="8.725455"><ele>59.0</ele><time>2026-05-03T08:33:21.676Z</time></trkpt><trkpt lat="39.704605" lon="8.7253133"><ele>59.0</ele><time>2026-05-03T08:33:22.675Z</time></trkpt><trkpt lat="39.7046033" lon="8.725145"><ele>59.0</ele><time>2026-05-03T08:33:23.675Z</time></trkpt><trkpt lat="39.7046067" lon="8.724965"><ele>59.0</ele><time>2026-05-03T08:33:24.675Z</time></trkpt><trkpt lat="39.70461" lon="8.7247883"><ele>59.0</ele><time>2026-05-03T08:33:25.675Z</time></trkpt><trkpt lat="39.7046233" lon="8.7246167"><ele>59.0</ele><time>2026-05-03T08:33:26.675Z</time></trkpt><trkpt lat="39.7046567" lon="8.724435"><ele>59.0</ele><time>2026-05-03T08:33:27.676Z</time></trkpt><trkpt lat="39.7046883" lon="8.724255"><ele>59.0</ele><time>2026-05-03T08:33:28.675Z</time></trkpt><trkpt lat="39.70474" lon="8.724075"><ele>58.333333333333336</ele><time>2026-05-03T08:33:29.675Z</time></trkpt><trkpt lat="39.7048083" lon="8.7238983"><ele>57.66666666666667</ele><time>2026-05-03T08:33:30.675Z</time></trkpt><trkpt lat="39.704895" lon="8.7237333"><ele>57.0</ele><time>2026-05-03T08:33:31.675Z</time></trkpt><trkpt lat="39.70499" lon="8.7235833"><ele>57.0</ele><time>2026-05-03T08:33:32.676Z</time></trkpt><trkpt lat="39.7050917" lon="8.7234533"><ele>57.0</ele><time>2026-05-03T08:33:33.675Z</time></trkpt><trkpt lat="39.70517" lon="8.7233383"><ele>57.0</ele><time>2026-05-03T08:33:34.675Z</time></trkpt><trkpt lat="39.7052283" lon="8.7232083"><ele>57.0</ele><time>2026-05-03T08:33:35.676Z</time></trkpt><trkpt lat="39.70526" lon="8.7230467"><ele>57.0</ele><time>2026-05-03T08:33:36.676Z</time></trkpt><trkpt lat="39.70528" lon="8.7228633"><ele>57.0</ele><time>2026-05-03T08:33:37.675Z</time></trkpt><trkpt lat="39.7052967" lon="8.7226633"><ele>57.0</ele><time>2026-05-03T08:33:38.676Z</time></trkpt><trkpt lat="39.7053267" lon="8.7224583"><ele>56.33333333333333</ele><time>2026-05-03T08:33:39.676Z</time></trkpt><trkpt lat="39.705365" lon="8.7222583"><ele>55.666666666666664</ele><time>2026-05-03T08:33:40.675Z</time></trkpt><trkpt lat="39.7054067" lon="8.7220667"><ele>55.0</ele><time>2026-05-03T08:33:41.675Z</time></trkpt><trkpt lat="39.705435" lon="8.7218833"><ele>54.75</ele><time>2026-05-03T08:33:42.675Z</time></trkpt><trkpt lat="39.705485" lon="8.721695"><ele>54.5</ele><time>2026-05-03T08:33:43.675Z</time></trkpt><trkpt lat="39.7055483" lon="8.72151"><ele>54.25</ele><time>2026-05-03T08:33:44.675Z</time></trkpt><trkpt lat="39.70561" lon="8.7213467"><ele>54.0</ele><time>2026-05-03T08:33:45.675Z</time></trkpt><trkpt lat="39.705665" lon="8.7211967"><ele>54.0</ele><time>2026-05-03T08:33:46.676Z</time></trkpt><trkpt lat="39.705735" lon="8.7210817"><ele>54.0</ele><time>2026-05-03T08:33:47.675Z</time></trkpt><trkpt lat="39.70582" lon="8.7209783"><ele>54.0</ele><time>2026-05-03T08:33:48.676Z</time></trkpt><trkpt lat="39.7059317" lon="8.720895"><ele>54.0</ele><time>2026-05-03T08:33:49.675Z</time></trkpt><trkpt lat="39.7060517" lon="8.7208267"><ele>53.33333333333333</ele><time>2026-05-03T08:33:50.675Z</time></trkpt><trkpt lat="39.7061917" lon="8.7207533"><ele>52.666666666666664</ele><time>2026-05-03T08:33:51.675Z</time></trkpt><trkpt lat="39.706345" lon="8.720675"><ele>52.0</ele><time>2026-05-03T08:33:52.675Z</time></trkpt><trkpt lat="39.7064933" lon="8.72058"><ele>52.0</ele><time>2026-05-03T08:33:53.676Z</time></trkpt><trkpt lat="39.70663" lon="8.7204717"><ele>52.0</ele><time>2026-05-03T08:33:54.675Z</time></trkpt><trkpt lat="39.7067583" lon="8.720345"><ele>52.0</ele><time>2026-05-03T08:33:55.675Z</time></trkpt><trkpt lat="39.706865" lon="8.7201883"><ele>51.0</ele><time>2026-05-03T08:33:56.675Z</time></trkpt><trkpt lat="39.7069617" lon="8.7200067"><ele>50.0</ele><time>2026-05-03T08:33:57.675Z</time></trkpt><trkpt lat="39.707065" lon="8.71982"><ele>49.0</ele><time>2026-05-03T08:33:58.675Z</time></trkpt><trkpt lat="39.7071633" lon="8.71965"><ele>49.0</ele><time>2026-05-03T08:33:59.675Z</time></trkpt><trkpt lat="39.7072483" lon="8.7194933"><ele>49.0</ele><time>2026-05-03T08:34:00.675Z</time></trkpt><trkpt lat="39.7073433" lon="8.71934"><ele>49.0</ele><time>2026-05-03T08:34:01.676Z</time></trkpt><trkpt lat="39.707455" lon="8.7191817"><ele>49.33333333333333</ele><time>2026-05-03T08:34:02.676Z</time></trkpt><trkpt lat="39.7075583" lon="8.7190117"><ele>49.66666666666667</ele><time>2026-05-03T08:34:03.675Z</time></trkpt><trkpt lat="39.7076633" lon="8.71883"><ele>50.0</ele><time>2026-05-03T08:34:04.675Z</time></trkpt><trkpt lat="39.7077633" lon="8.71866"><ele>49.333333333333336</ele><time>2026-05-03T08:34:05.675Z</time></trkpt><trkpt lat="39.7078617" lon="8.71849"><ele>48.66666666666667</ele><time>2026-05-03T08:34:06.676Z</time></trkpt><trkpt lat="39.7079617" lon="8.7183083"><ele>48.0</ele><time>2026-05-03T08:34:07.675Z</time></trkpt><trkpt lat="39.7080567" lon="8.7181267"><ele>48.0</ele><time>2026-05-03T08:34:08.675Z</time></trkpt><trkpt lat="39.7081467" lon="8.7179267"><ele>48.0</ele><time>2026-05-03T08:34:09.675Z</time></trkpt><trkpt lat="39.7082233" lon="8.717745"><ele>48.0</ele><time>2026-05-03T08:34:10.676Z</time></trkpt><trkpt lat="39.708295" lon="8.7175583"><ele>48.66666666666667</ele><time>2026-05-03T08:34:11.676Z</time></trkpt><trkpt lat="39.7083733" lon="8.71737"><ele>49.333333333333336</ele><time>2026-05-03T08:34:12.675Z</time></trkpt><trkpt lat="39.70844" lon="8.7171917"><ele>50.0</ele><time>2026-05-03T08:34:13.675Z</time></trkpt><trkpt lat="39.708515" lon="8.7170333"><ele>50.66666666666667</ele><time>2026-05-03T08:34:14.675Z</time></trkpt><trkpt lat="39.7086017" lon="8.7168883"><ele>51.33333333333333</ele><time>2026-05-03T08:34:15.675Z</time></trkpt><trkpt lat="39.7086983" lon="8.716725"><ele>52.0</ele><time>2026-05-03T08:34:16.675Z</time></trkpt><trkpt lat="39.7088033" lon="8.716565"><ele>52.0</ele><time>2026-05-03T08:34:17.676Z</time></trkpt><trkpt lat="39.708905" lon="8.7164233"><ele>52.0</ele><time>2026-05-03T08:34:18.675Z</time></trkpt><trkpt lat="39.7090067" lon="8.7162833"><ele>52.0</ele><time>2026-05-03T08:34:19.676Z</time></trkpt><trkpt lat="39.7090967" lon="8.7161533"><ele>52.0</ele><time>2026-05-03T08:34:20.676Z</time></trkpt><trkpt lat="39.7091867" lon="8.71604"><ele>52.5</ele><time>2026-05-03T08:34:21.675Z</time></trkpt><trkpt lat="39.709265" lon="8.7159267"><ele>53.0</ele><time>2026-05-03T08:34:22.675Z</time></trkpt><trkpt lat="39.7093433" lon="8.7158283"><ele>53.5</ele><time>2026-05-03T08:34:23.675Z</time></trkpt><trkpt lat="39.7094233" lon="8.71572"><ele>54.0</ele><time>2026-05-03T08:34:24.675Z</time></trkpt><trkpt lat="39.7095017" lon="8.7156217"><ele>54.5</ele><time>2026-05-03T08:34:25.676Z</time></trkpt><trkpt lat="39.7095817" lon="8.7155183"><ele>55.0</ele><time>2026-05-03T08:34:26.675Z</time></trkpt><trkpt lat="39.7096717" lon="8.71541"><ele>55.5</ele><time>2026-05-03T08:34:27.676Z</time></trkpt><trkpt lat="39.70976" lon="8.715305"><ele>56.0</ele><time>2026-05-03T08:34:28.675Z</time></trkpt><trkpt lat="39.709855" lon="8.7152"><ele>56.25</ele><time>2026-05-03T08:34:29.676Z</time></trkpt><trkpt lat="39.7099533" lon="8.715085"><ele>56.5</ele><time>2026-05-03T08:34:30.676Z</time></trkpt><trkpt lat="39.71006" lon="8.7149533"><ele>56.75</ele><time>2026-05-03T08:34:31.676Z</time></trkpt><trkpt lat="39.71016" lon="8.7148183"><ele>57.0</ele><time>2026-05-03T08:34:32.675Z</time></trkpt><trkpt lat="39.710265" lon="8.71468"><ele>57.33333333333333</ele><time>2026-05-03T08:34:33.675Z</time></trkpt><trkpt lat="39.7103833" lon="8.7145283"><ele>57.666666666666664</ele><time>2026-05-03T08:34:34.675Z</time></trkpt><trkpt lat="39.710515" lon="8.7143517"><ele>58.0</ele><time>2026-05-03T08:34:35.675Z</time></trkpt><trkpt lat="39.7106433" lon="8.71419"><ele>58.0</ele><time>2026-05-03T08:34:36.675Z</time></trkpt><trkpt lat="39.71076" lon="8.7140383"><ele>58.0</ele><time>2026-05-03T08:34:37.675Z</time></trkpt><trkpt lat="39.71088" lon="8.7138917"><ele>58.0</ele><time>2026-05-03T08:34:38.676Z</time></trkpt><trkpt lat="39.7109933" lon="8.71375"><ele>58.5</ele><time>2026-05-03T08:34:39.676Z</time></trkpt><trkpt lat="39.711105" lon="8.7136167"><ele>59.0</ele><time>2026-05-03T08:34:40.675Z</time></trkpt><trkpt lat="39.7111917" lon="8.713485"><ele>59.5</ele><time>2026-05-03T08:34:41.676Z</time></trkpt><trkpt lat="39.7112833" lon="8.7133817"><ele>60.0</ele><time>2026-05-03T08:34:42.675Z</time></trkpt><trkpt lat="39.71138" lon="8.7132633"><ele>60.0</ele><time>2026-05-03T08:34:43.676Z</time></trkpt><trkpt lat="39.7114867" lon="8.7131317"><ele>60.0</ele><time>2026-05-03T08:34:44.675Z</time></trkpt><trkpt lat="39.7115883" lon="8.7129867"><ele>60.0</ele><time>2026-05-03T08:34:45.675Z</time></trkpt><trkpt lat="39.7116883" lon="8.7128367"><ele>59.66666666666667</ele><time>2026-05-03T08:34:46.675Z</time></trkpt><trkpt lat="39.7117983" lon="8.7126883"><ele>59.333333333333336</ele><time>2026-05-03T08:34:47.675Z</time></trkpt><trkpt lat="39.7119133" lon="8.7125317"><ele>59.0</ele><time>2026-05-03T08:34:48.676Z</time></trkpt><trkpt lat="39.71202" lon="8.7123867"><ele>59.0</ele><time>2026-05-03T08:34:49.675Z</time></trkpt><trkpt lat="39.712135" lon="8.7122367"><ele>59.0</ele><time>2026-05-03T08:34:50.675Z</time></trkpt><trkpt lat="39.7122633" lon="8.712085"><ele>59.0</ele><time>2026-05-03T08:34:51.675Z</time></trkpt><trkpt lat="39.7123783" lon="8.7119367"><ele>57.66666666666667</ele><time>2026-05-03T08:34:52.675Z</time></trkpt><trkpt lat="39.7124883" lon="8.7118033"><ele>56.33333333333333</ele><time>2026-05-03T08:34:53.676Z</time></trkpt><trkpt lat="39.7125983" lon="8.7116683"><ele>55.0</ele><time>2026-05-03T08:34:54.675Z</time></trkpt><trkpt lat="39.71272" lon="8.7115333"><ele>54.666666666666664</ele><time>2026-05-03T08:34:55.675Z</time></trkpt><trkpt lat="39.7128467" lon="8.7114083"><ele>54.33333333333333</ele><time>2026-05-03T08:34:56.675Z</time></trkpt><trkpt lat="39.7129767" lon="8.711285"><ele>54.0</ele><time>2026-05-03T08:34:57.676Z</time></trkpt><trkpt lat="39.7131083" lon="8.7111633"><ele>52.33333333333333</ele><time>2026-05-03T08:34:58.675Z</time></trkpt><trkpt lat="39.7132383" lon="8.711035"><ele>50.666666666666664</ele><time>2026-05-03T08:34:59.676Z</time></trkpt><trkpt lat="39.7133733" lon="8.71091"><ele>49.0</ele><time>2026-05-03T08:35:00.675Z</time></trkpt><trkpt lat="39.7134883" lon="8.7107883"><ele>49.0</ele><time>2026-05-03T08:35:01.675Z</time></trkpt><trkpt lat="39.7136017" lon="8.71068"><ele>49.0</ele><time>2026-05-03T08:35:02.675Z</time></trkpt><trkpt lat="39.7137117" lon="8.7105717"><ele>49.0</ele><time>2026-05-03T08:35:03.676Z</time></trkpt><trkpt lat="39.7138233" lon="8.7104567"><ele>49.0</ele><time>2026-05-03T08:35:04.676Z</time></trkpt><trkpt lat="39.7139433" lon="8.710335"><ele>48.0</ele><time>2026-05-03T08:35:05.676Z</time></trkpt><trkpt lat="39.7140667" lon="8.7102117"><ele>47.0</ele><time>2026-05-03T08:35:06.675Z</time></trkpt><trkpt lat="39.7141917" lon="8.71009"><ele>46.0</ele><time>2026-05-03T08:35:07.676Z</time></trkpt><trkpt lat="39.7143283" lon="8.7099767"><ele>45.66666666666667</ele><time>2026-05-03T08:35:08.675Z</time></trkpt><trkpt lat="39.7144567" lon="8.7098617"><ele>45.333333333333336</ele><time>2026-05-03T08:35:09.675Z</time></trkpt><trkpt lat="39.7145867" lon="8.7097467"><ele>45.0</ele><time>2026-05-03T08:35:10.675Z</time></trkpt><trkpt lat="39.7147117" lon="8.7096267"><ele>45.0</ele><time>2026-05-03T08:35:11.675Z</time></trkpt><trkpt lat="39.7148417" lon="8.70951"><ele>45.0</ele><time>2026-05-03T08:35:12.675Z</time></trkpt><trkpt lat="39.714985" lon="8.70939"><ele>45.0</ele><time>2026-05-03T08:35:13.676Z</time></trkpt><trkpt lat="39.715125" lon="8.7092717"><ele>44.666666666666664</ele><time>2026-05-03T08:35:14.676Z</time></trkpt><trkpt lat="39.7152633" lon="8.709155"><ele>44.33333333333333</ele><time>2026-05-03T08:35:15.674Z</time></trkpt><trkpt lat="39.7154017" lon="8.7090417"><ele>44.0</ele><time>2026-05-03T08:35:16.674Z</time></trkpt><trkpt lat="39.7155417" lon="8.70893"><ele>44.0</ele><time>2026-05-03T08:35:17.674Z</time></trkpt><trkpt lat="39.7156833" lon="8.7088067"><ele>44.0</ele><time>2026-05-03T08:35:18.675Z</time></trkpt><trkpt lat="39.7158183" lon="8.7086867"><ele>44.0</ele><time>2026-05-03T08:35:19.674Z</time></trkpt><trkpt lat="39.71596" lon="8.70857"><ele>42.0</ele><time>2026-05-03T08:35:20.674Z</time></trkpt><trkpt lat="39.7160917" lon="8.708445"><ele>40.0</ele><time>2026-05-03T08:35:21.675Z</time></trkpt><trkpt lat="39.7162183" lon="8.7083233"><ele>38.0</ele><time>2026-05-03T08:35:22.674Z</time></trkpt><trkpt lat="39.7163483" lon="8.7082133"><ele>38.0</ele><time>2026-05-03T08:35:23.674Z</time></trkpt><trkpt lat="39.71648" lon="8.70809"><ele>38.0</ele><time>2026-05-03T08:35:24.674Z</time></trkpt><trkpt lat="39.71661" lon="8.7079683"><ele>38.0</ele><time>2026-05-03T08:35:25.674Z</time></trkpt><trkpt lat="39.716745" lon="8.7078417"><ele>38.0</ele><time>2026-05-03T08:35:26.674Z</time></trkpt><trkpt lat="39.7168817" lon="8.7077267"><ele>38.0</ele><time>2026-05-03T08:35:27.675Z</time></trkpt><trkpt lat="39.717025" lon="8.7075883"><ele>38.0</ele><time>2026-05-03T08:35:28.674Z</time></trkpt><trkpt lat="39.7171633" lon="8.7074483"><ele>38.0</ele><time>2026-05-03T08:35:29.675Z</time></trkpt><trkpt lat="39.717315" lon="8.7072967"><ele>38.0</ele><time>2026-05-03T08:35:30.675Z</time></trkpt><trkpt lat="39.7174633" lon="8.707145"><ele>38.0</ele><time>2026-05-03T08:35:31.674Z</time></trkpt><trkpt lat="39.7176183" lon="8.7069933"><ele>38.666666666666664</ele><time>2026-05-03T08:35:32.675Z</time></trkpt><trkpt lat="39.717775" lon="8.7068383"><ele>39.333333333333336</ele><time>2026-05-03T08:35:33.675Z</time></trkpt><trkpt lat="39.7179267" lon="8.7066883"><ele>40.0</ele><time>2026-05-03T08:35:34.674Z</time></trkpt><trkpt lat="39.7180567" lon="8.7065467"><ele>40.0</ele><time>2026-05-03T08:35:35.674Z</time></trkpt><trkpt lat="39.71817" lon="8.7064267"><ele>40.0</ele><time>2026-05-03T08:35:36.674Z</time></trkpt><trkpt lat="39.7182817" lon="8.7063167"><ele>40.0</ele><time>2026-05-03T08:35:37.675Z</time></trkpt><trkpt lat="39.718375" lon="8.7062433"><ele>40.0</ele><time>2026-05-03T08:35:38.674Z</time></trkpt><trkpt lat="39.718455" lon="8.70617"><ele>40.0</ele><time>2026-05-03T08:35:39.674Z</time></trkpt><trkpt lat="39.718515" lon="8.706105"><ele>40.0</ele><time>2026-05-03T08:35:40.674Z</time></trkpt><trkpt lat="39.7185717" lon="8.70598"><ele>40.0</ele><time>2026-05-03T08:35:42.674Z</time></trkpt><trkpt lat="39.71854" lon="8.7058617"><ele>40.0</ele><time>2026-05-03T08:35:44.675Z</time></trkpt><trkpt lat="39.7184583" lon="8.705755"><ele>40.0</ele><time>2026-05-03T08:35:46.674Z</time></trkpt><trkpt lat="39.7184283" lon="8.7056567"><ele>40.0</ele><time>2026-05-03T08:35:48.674Z</time></trkpt><trkpt lat="39.7184983" lon="8.705605"><ele>40.0</ele><time>2026-05-03T08:35:50.674Z</time></trkpt><trkpt lat="39.718565" lon="8.7056017"><ele>40.0</ele><time>2026-05-03T08:35:51.674Z</time></trkpt><trkpt lat="39.7186383" lon="8.70559"><ele>40.0</ele><time>2026-05-03T08:35:52.675Z</time></trkpt><trkpt lat="39.7187417" lon="8.705555"><ele>40.0</ele><time>2026-05-03T08:35:53.674Z</time></trkpt><trkpt lat="39.7188533" lon="8.7054983"><ele>40.0</ele><time>2026-05-03T08:35:54.675Z</time></trkpt><trkpt lat="39.71896" lon="8.7054067"><ele>40.0</ele><time>2026-05-03T08:35:55.675Z</time></trkpt><trkpt lat="39.7190533" lon="8.7052783"><ele>40.0</ele><time>2026-05-03T08:35:56.674Z</time></trkpt><trkpt lat="39.7191383" lon="8.7051267"><ele>40.0</ele><time>2026-05-03T08:35:57.674Z</time></trkpt><trkpt lat="39.7192183" lon="8.7049467"><ele>40.0</ele><time>2026-05-03T08:35:58.675Z</time></trkpt><trkpt lat="39.719295" lon="8.70476"><ele>40.0</ele><time>2026-05-03T08:35:59.674Z</time></trkpt><trkpt lat="39.7193667" lon="8.704575"><ele>40.0</ele><time>2026-05-03T08:36:00.675Z</time></trkpt><trkpt lat="39.71945" lon="8.704385"><ele>40.0</ele><time>2026-05-03T08:36:01.675Z</time></trkpt><trkpt lat="39.7195267" lon="8.7041967"><ele>41.0</ele><time>2026-05-03T08:36:02.674Z</time></trkpt><trkpt lat="39.7196083" lon="8.7040017"><ele>42.0</ele><time>2026-05-03T08:36:03.675Z</time></trkpt><trkpt lat="39.7197" lon="8.7038133"><ele>43.0</ele><time>2026-05-03T08:36:04.674Z</time></trkpt><trkpt lat="39.7197917" lon="8.7036333"><ele>42.66666666666667</ele><time>2026-05-03T08:36:05.675Z</time></trkpt><trkpt lat="39.7198783" lon="8.703455"><ele>42.333333333333336</ele><time>2026-05-03T08:36:06.675Z</time></trkpt><trkpt lat="39.7199667" lon="8.70329"><ele>42.0</ele><time>2026-05-03T08:36:07.674Z</time></trkpt><trkpt lat="39.72005" lon="8.70311"><ele>42.0</ele><time>2026-05-03T08:36:08.675Z</time></trkpt><trkpt lat="39.7201183" lon="8.7029283"><ele>42.0</ele><time>2026-05-03T08:36:09.674Z</time></trkpt><trkpt lat="39.72019" lon="8.70274"><ele>42.0</ele><time>2026-05-03T08:36:10.675Z</time></trkpt><trkpt lat="39.7202533" lon="8.7025567"><ele>42.0</ele><time>2026-05-03T08:36:11.674Z</time></trkpt><trkpt lat="39.7203033" lon="8.7023817"><ele>42.0</ele><time>2026-05-03T08:36:12.674Z</time></trkpt><trkpt lat="39.7203567" lon="8.7022067"><ele>42.0</ele><time>2026-05-03T08:36:13.674Z</time></trkpt><trkpt lat="39.72041" lon="8.7020417"><ele>42.0</ele><time>2026-05-03T08:36:14.674Z</time></trkpt><trkpt lat="39.7204567" lon="8.7018767"><ele>42.0</ele><time>2026-05-03T08:36:15.674Z</time></trkpt><trkpt lat="39.7205083" lon="8.70172"><ele>42.0</ele><time>2026-05-03T08:36:16.675Z</time></trkpt><trkpt lat="39.72055" lon="8.701555"><ele>42.0</ele><time>2026-05-03T08:36:17.674Z</time></trkpt><trkpt lat="39.7205933" lon="8.7013917"><ele>42.0</ele><time>2026-05-03T08:36:18.674Z</time></trkpt><trkpt lat="39.72063" lon="8.701215"><ele>41.5</ele><time>2026-05-03T08:36:19.674Z</time></trkpt><trkpt lat="39.7206717" lon="8.7010333"><ele>41.0</ele><time>2026-05-03T08:36:20.675Z</time></trkpt><trkpt lat="39.7207183" lon="8.700855"><ele>40.5</ele><time>2026-05-03T08:36:21.674Z</time></trkpt><trkpt lat="39.7207633" lon="8.7006667"><ele>40.0</ele><time>2026-05-03T08:36:22.674Z</time></trkpt><trkpt lat="39.72081" lon="8.70047"><ele>40.0</ele><time>2026-05-03T08:36:23.674Z</time></trkpt><trkpt lat="39.7208583" lon="8.7002717"><ele>40.0</ele><time>2026-05-03T08:36:24.674Z</time></trkpt><trkpt lat="39.72091" lon="8.7000717"><ele>40.0</ele><time>2026-05-03T08:36:25.675Z</time></trkpt><trkpt lat="39.7209517" lon="8.6998967"><ele>40.0</ele><time>2026-05-03T08:36:26.674Z</time></trkpt><trkpt lat="39.721" lon="8.6997167"><ele>40.0</ele><time>2026-05-03T08:36:27.674Z</time></trkpt><trkpt lat="39.72106" lon="8.69954"><ele>40.0</ele><time>2026-05-03T08:36:28.675Z</time></trkpt><trkpt lat="39.72111" lon="8.6993433"><ele>40.66666666666667</ele><time>2026-05-03T08:36:29.674Z</time></trkpt><trkpt lat="39.7211633" lon="8.6991367"><ele>41.333333333333336</ele><time>2026-05-03T08:36:30.675Z</time></trkpt><trkpt lat="39.7212117" lon="8.698935"><ele>42.0</ele><time>2026-05-03T08:36:31.674Z</time></trkpt><trkpt lat="39.7212633" lon="8.6987333"><ele>42.0</ele><time>2026-05-03T08:36:32.674Z</time></trkpt><trkpt lat="39.7213117" lon="8.69854"><ele>42.0</ele><time>2026-05-03T08:36:33.674Z</time></trkpt><trkpt lat="39.7213617" lon="8.698355"><ele>42.0</ele><time>2026-05-03T08:36:34.674Z</time></trkpt><trkpt lat="39.721405" lon="8.6981617"><ele>42.0</ele><time>2026-05-03T08:36:35.674Z</time></trkpt><trkpt lat="39.72145" lon="8.6979767"><ele>42.0</ele><time>2026-05-03T08:36:36.675Z</time></trkpt><trkpt lat="39.7214933" lon="8.6977967"><ele>42.0</ele><time>2026-05-03T08:36:37.674Z</time></trkpt><trkpt lat="39.7215417" lon="8.69762"><ele>42.0</ele><time>2026-05-03T08:36:38.674Z</time></trkpt><trkpt lat="39.7215933" lon="8.6974617"><ele>42.0</ele><time>2026-05-03T08:36:39.675Z</time></trkpt><trkpt lat="39.7216417" lon="8.6972867"><ele>42.0</ele><time>2026-05-03T08:36:40.674Z</time></trkpt><trkpt lat="39.7216833" lon="8.69709"><ele>42.0</ele><time>2026-05-03T08:36:41.675Z</time></trkpt><trkpt lat="39.721725" lon="8.6968867"><ele>42.0</ele><time>2026-05-03T08:36:42.674Z</time></trkpt><trkpt lat="39.7217683" lon="8.69669"><ele>42.0</ele><time>2026-05-03T08:36:43.675Z</time></trkpt><trkpt lat="39.721815" lon="8.6965"><ele>42.0</ele><time>2026-05-03T08:36:44.674Z</time></trkpt><trkpt lat="39.7218767" lon="8.6962983"><ele>42.333333333333336</ele><time>2026-05-03T08:36:45.674Z</time></trkpt><trkpt lat="39.7219417" lon="8.6960833"><ele>42.66666666666667</ele><time>2026-05-03T08:36:46.674Z</time></trkpt><trkpt lat="39.7219883" lon="8.6958717"><ele>43.0</ele><time>2026-05-03T08:36:47.675Z</time></trkpt><trkpt lat="39.7220417" lon="8.6956617"><ele>43.0</ele><time>2026-05-03T08:36:48.674Z</time></trkpt><trkpt lat="39.7220983" lon="8.6954483"><ele>43.0</ele><time>2026-05-03T08:36:49.674Z</time></trkpt><trkpt lat="39.7221467" lon="8.69523"><ele>43.0</ele><time>2026-05-03T08:36:50.674Z</time></trkpt><trkpt lat="39.7222083" lon="8.69501"><ele>42.333333333333336</ele><time>2026-05-03T08:36:51.674Z</time></trkpt><trkpt lat="39.72227" lon="8.69479"><ele>41.666666666666664</ele><time>2026-05-03T08:36:52.674Z</time></trkpt><trkpt lat="39.7223267" lon="8.6945533"><ele>41.0</ele><time>2026-05-03T08:36:53.674Z</time></trkpt><trkpt lat="39.7223917" lon="8.6943167"><ele>40.666666666666664</ele><time>2026-05-03T08:36:54.674Z</time></trkpt><trkpt lat="39.7224633" lon="8.6940683"><ele>40.333333333333336</ele><time>2026-05-03T08:36:55.675Z</time></trkpt><trkpt lat="39.7225333" lon="8.6938133"><ele>40.0</ele><time>2026-05-03T08:36:56.675Z</time></trkpt><trkpt lat="39.7225917" lon="8.6935633"><ele>40.0</ele><time>2026-05-03T08:36:57.674Z</time></trkpt><trkpt lat="39.7226467" lon="8.6933233"><ele>40.0</ele><time>2026-05-03T08:36:58.674Z</time></trkpt><trkpt lat="39.7227067" lon="8.6931067"><ele>40.0</ele><time>2026-05-03T08:36:59.675Z</time></trkpt><trkpt lat="39.72277" lon="8.6928983"><ele>40.75</ele><time>2026-05-03T08:37:00.675Z</time></trkpt><trkpt lat="39.7228133" lon="8.6927283"><ele>41.5</ele><time>2026-05-03T08:37:01.674Z</time></trkpt><trkpt lat="39.7228767" lon="8.69257"><ele>42.25</ele><time>2026-05-03T08:37:02.675Z</time></trkpt><trkpt lat="39.7229567" lon="8.6924133"><ele>43.0</ele><time>2026-05-03T08:37:03.674Z</time></trkpt><trkpt lat="39.7230617" lon="8.6922633"><ele>43.0</ele><time>2026-05-03T08:37:04.675Z</time></trkpt><trkpt lat="39.72318" lon="8.6921267"><ele>43.0</ele><time>2026-05-03T08:37:05.674Z</time></trkpt><trkpt lat="39.72332" lon="8.6920067"><ele>43.0</ele><time>2026-05-03T08:37:06.674Z</time></trkpt><trkpt lat="39.7234717" lon="8.6919183"><ele>43.0</ele><time>2026-05-03T08:37:07.675Z</time></trkpt><trkpt lat="39.7236133" lon="8.6918317"><ele>43.0</ele><time>2026-05-03T08:37:08.674Z</time></trkpt><trkpt lat="39.72375" lon="8.6917517"><ele>43.0</ele><time>2026-05-03T08:37:09.674Z</time></trkpt><trkpt lat="39.72387" lon="8.691675"><ele>43.0</ele><time>2026-05-03T08:37:10.674Z</time></trkpt><trkpt lat="39.7239883" lon="8.6915983"><ele>43.0</ele><time>2026-05-03T08:37:11.675Z</time></trkpt><trkpt lat="39.72411" lon="8.6915317"><ele>43.0</ele><time>2026-05-03T08:37:12.675Z</time></trkpt><trkpt lat="39.72422" lon="8.6914767"><ele>43.0</ele><time>2026-05-03T08:37:13.675Z</time></trkpt><trkpt lat="39.7243283" lon="8.6914217"><ele>43.0</ele><time>2026-05-03T08:37:14.674Z</time></trkpt><trkpt lat="39.7244317" lon="8.691355"><ele>43.0</ele><time>2026-05-03T08:37:15.675Z</time></trkpt><trkpt lat="39.72452" lon="8.6913083"><ele>43.0</ele><time>2026-05-03T08:37:16.674Z</time></trkpt><trkpt lat="39.7246233" lon="8.6912433"><ele>43.0</ele><time>2026-05-03T08:37:17.674Z</time></trkpt><trkpt lat="39.7247283" lon="8.691175"><ele>43.0</ele><time>2026-05-03T08:37:18.674Z</time></trkpt><trkpt lat="39.7248383" lon="8.691115"><ele>43.0</ele><time>2026-05-03T08:37:19.674Z</time></trkpt><trkpt lat="39.7249617" lon="8.6910417"><ele>43.0</ele><time>2026-05-03T08:37:20.674Z</time></trkpt><trkpt lat="39.7250983" lon="8.6909683"><ele>43.0</ele><time>2026-05-03T08:37:21.674Z</time></trkpt><trkpt lat="39.7252483" lon="8.6908867"><ele>43.0</ele><time>2026-05-03T08:37:22.674Z</time></trkpt><trkpt lat="39.7254" lon="8.690805"><ele>44.0</ele><time>2026-05-03T08:37:23.674Z</time></trkpt><trkpt lat="39.725555" lon="8.6907183"><ele>45.0</ele><time>2026-05-03T08:37:24.674Z</time></trkpt><trkpt lat="39.7256967" lon="8.6906283"><ele>46.0</ele><time>2026-05-03T08:37:25.675Z</time></trkpt><trkpt lat="39.7258367" lon="8.6905517"><ele>46.0</ele><time>2026-05-03T08:37:26.674Z</time></trkpt><trkpt lat="39.7259733" lon="8.6904633"><ele>46.0</ele><time>2026-05-03T08:37:27.675Z</time></trkpt><trkpt lat="39.726115" lon="8.69038"><ele>46.0</ele><time>2026-05-03T08:37:28.674Z</time></trkpt><trkpt lat="39.7262683" lon="8.6902933"><ele>46.333333333333336</ele><time>2026-05-03T08:37:29.674Z</time></trkpt><trkpt lat="39.726415" lon="8.6902167"><ele>46.666666666666664</ele><time>2026-05-03T08:37:30.674Z</time></trkpt><trkpt lat="39.7265683" lon="8.69012"><ele>47.0</ele><time>2026-05-03T08:37:31.674Z</time></trkpt><trkpt lat="39.7267233" lon="8.690035"><ele>47.0</ele><time>2026-05-03T08:37:32.674Z</time></trkpt><trkpt lat="39.7268717" lon="8.6899383"><ele>47.0</ele><time>2026-05-03T08:37:33.674Z</time></trkpt><trkpt lat="39.7270233" lon="8.6898467"><ele>47.0</ele><time>2026-05-03T08:37:34.674Z</time></trkpt><trkpt lat="39.7271667" lon="8.68976"><ele>47.666666666666664</ele><time>2026-05-03T08:37:35.675Z</time></trkpt><trkpt lat="39.7273167" lon="8.6896733"><ele>48.33333333333333</ele><time>2026-05-03T08:37:36.674Z</time></trkpt><trkpt lat="39.727465" lon="8.6895817"><ele>49.0</ele><time>2026-05-03T08:37:37.674Z</time></trkpt><trkpt lat="39.7276283" lon="8.6894917"><ele>49.33333333333333</ele><time>2026-05-03T08:37:38.674Z</time></trkpt><trkpt lat="39.7277917" lon="8.6894017"><ele>49.66666666666667</ele><time>2026-05-03T08:37:39.674Z</time></trkpt><trkpt lat="39.7279583" lon="8.6893067"><ele>50.0</ele><time>2026-05-03T08:37:40.674Z</time></trkpt><trkpt lat="39.7281233" lon="8.689205"><ele>50.0</ele><time>2026-05-03T08:37:41.674Z</time></trkpt><trkpt lat="39.7282883" lon="8.68912"><ele>50.0</ele><time>2026-05-03T08:37:42.674Z</time></trkpt><trkpt lat="39.728455" lon="8.6890317"><ele>50.0</ele><time>2026-05-03T08:37:43.675Z</time></trkpt><trkpt lat="39.728615" lon="8.688945"><ele>50.66666666666667</ele><time>2026-05-03T08:37:44.674Z</time></trkpt><trkpt lat="39.7287733" lon="8.6888483"><ele>51.33333333333333</ele><time>2026-05-03T08:37:45.674Z</time></trkpt><trkpt lat="39.7289267" lon="8.688745"><ele>52.0</ele><time>2026-05-03T08:37:46.675Z</time></trkpt><trkpt lat="39.7290933" lon="8.688645"><ele>51.666666666666664</ele><time>2026-05-03T08:37:47.674Z</time></trkpt><trkpt lat="39.729275" lon="8.68853"><ele>51.33333333333333</ele><time>2026-05-03T08:37:48.674Z</time></trkpt><trkpt lat="39.72945" lon="8.6884383"><ele>51.0</ele><time>2026-05-03T08:37:49.675Z</time></trkpt><trkpt lat="39.7296167" lon="8.688345"><ele>51.66666666666667</ele><time>2026-05-03T08:37:50.674Z</time></trkpt><trkpt lat="39.7297833" lon="8.6882567"><ele>52.333333333333336</ele><time>2026-05-03T08:37:51.674Z</time></trkpt><trkpt lat="39.7299317" lon="8.68817"><ele>53.0</ele><time>2026-05-03T08:37:52.674Z</time></trkpt><trkpt lat="39.7300617" lon="8.6880833"><ele>53.0</ele><time>2026-05-03T08:37:53.675Z</time></trkpt><trkpt lat="39.7301733" lon="8.6880083"><ele>53.0</ele><time>2026-05-03T08:37:54.674Z</time></trkpt><trkpt lat="39.7302783" lon="8.687945"><ele>53.0</ele><time>2026-05-03T08:37:55.675Z</time></trkpt><trkpt lat="39.730395" lon="8.6878867"><ele>53.0</ele><time>2026-05-03T08:37:56.674Z</time></trkpt><trkpt lat="39.730515" lon="8.6878283"><ele>53.25</ele><time>2026-05-03T08:37:57.675Z</time></trkpt><trkpt lat="39.7306433" lon="8.68777"><ele>53.5</ele><time>2026-05-03T08:37:58.675Z</time></trkpt><trkpt lat="39.7307783" lon="8.6877"><ele>53.75</ele><time>2026-05-03T08:37:59.674Z</time></trkpt><trkpt lat="39.73092" lon="8.6876217"><ele>54.0</ele><time>2026-05-03T08:38:00.674Z</time></trkpt><trkpt lat="39.73107" lon="8.6875383"><ele>54.33333333333333</ele><time>2026-05-03T08:38:01.674Z</time></trkpt><trkpt lat="39.7312183" lon="8.6874467"><ele>54.666666666666664</ele><time>2026-05-03T08:38:02.674Z</time></trkpt><trkpt lat="39.7313733" lon="8.6873567"><ele>55.0</ele><time>2026-05-03T08:38:03.674Z</time></trkpt><trkpt lat="39.731535" lon="8.6872633"><ele>55.0</ele><time>2026-05-03T08:38:04.675Z</time></trkpt><trkpt lat="39.7317033" lon="8.687175"><ele>55.0</ele><time>2026-05-03T08:38:05.674Z</time></trkpt><trkpt lat="39.7318733" lon="8.6870883"><ele>55.0</ele><time>2026-05-03T08:38:06.675Z</time></trkpt><trkpt lat="39.732035" lon="8.687"><ele>55.0</ele><time>2026-05-03T08:38:07.674Z</time></trkpt><trkpt lat="39.73219" lon="8.6869167"><ele>55.0</ele><time>2026-05-03T08:38:08.675Z</time></trkpt><trkpt lat="39.73235" lon="8.6868333"><ele>55.0</ele><time>2026-05-03T08:38:09.674Z</time></trkpt><trkpt lat="39.7325083" lon="8.6867567"><ele>55.0</ele><time>2026-05-03T08:38:10.675Z</time></trkpt><trkpt lat="39.73267" lon="8.68668"><ele>55.0</ele><time>2026-05-03T08:38:11.675Z</time></trkpt><trkpt lat="39.73282" lon="8.6866"><ele>55.0</ele><time>2026-05-03T08:38:12.675Z</time></trkpt><trkpt lat="39.732965" lon="8.68651"><ele>55.666666666666664</ele><time>2026-05-03T08:38:13.675Z</time></trkpt><trkpt lat="39.7331167" lon="8.6864217"><ele>56.33333333333333</ele><time>2026-05-03T08:38:14.674Z</time></trkpt><trkpt lat="39.7332683" lon="8.6863417"><ele>57.0</ele><time>2026-05-03T08:38:15.674Z</time></trkpt><trkpt lat="39.7334133" lon="8.6862583"><ele>57.0</ele><time>2026-05-03T08:38:16.675Z</time></trkpt><trkpt lat="39.7335567" lon="8.6861817"><ele>57.0</ele><time>2026-05-03T08:38:17.675Z</time></trkpt><trkpt lat="39.7337" lon="8.6860967"><ele>57.0</ele><time>2026-05-03T08:38:18.674Z</time></trkpt><trkpt lat="39.73385" lon="8.686025"><ele>57.0</ele><time>2026-05-03T08:38:19.674Z</time></trkpt><trkpt lat="39.734" lon="8.685965"><ele>57.0</ele><time>2026-05-03T08:38:20.675Z</time></trkpt><trkpt lat="39.73415" lon="8.685885"><ele>57.0</ele><time>2026-05-03T08:38:21.674Z</time></trkpt><trkpt lat="39.7343017" lon="8.6858"><ele>56.66666666666667</ele><time>2026-05-03T08:38:22.674Z</time></trkpt><trkpt lat="39.7344433" lon="8.6857283"><ele>56.333333333333336</ele><time>2026-05-03T08:38:23.675Z</time></trkpt><trkpt lat="39.7345933" lon="8.685645"><ele>56.0</ele><time>2026-05-03T08:38:24.675Z</time></trkpt><trkpt lat="39.734745" lon="8.68556"><ele>56.0</ele><time>2026-05-03T08:38:25.674Z</time></trkpt><trkpt lat="39.7348983" lon="8.6854667"><ele>56.0</ele><time>2026-05-03T08:38:26.674Z</time></trkpt><trkpt lat="39.7350683" lon="8.68538"><ele>56.0</ele><time>2026-05-03T08:38:27.674Z</time></trkpt><trkpt lat="39.7352333" lon="8.6852833"><ele>55.66666666666667</ele><time>2026-05-03T08:38:28.675Z</time></trkpt><trkpt lat="39.735395" lon="8.6851883"><ele>55.33333333333333</ele><time>2026-05-03T08:38:29.675Z</time></trkpt><trkpt lat="39.735565" lon="8.6850917"><ele>55.0</ele><time>2026-05-03T08:38:30.675Z</time></trkpt><trkpt lat="39.73574" lon="8.6849983"><ele>55.0</ele><time>2026-05-03T08:38:31.674Z</time></trkpt><trkpt lat="39.735915" lon="8.6849083"><ele>55.0</ele><time>2026-05-03T08:38:32.674Z</time></trkpt><trkpt lat="39.7360867" lon="8.684825"><ele>55.0</ele><time>2026-05-03T08:38:33.674Z</time></trkpt><trkpt lat="39.7362583" lon="8.6847333"><ele>54.666666666666664</ele><time>2026-05-03T08:38:34.674Z</time></trkpt><trkpt lat="39.73643" lon="8.684645"><ele>54.33333333333333</ele><time>2026-05-03T08:38:35.675Z</time></trkpt><trkpt lat="39.7366" lon="8.6845517"><ele>54.0</ele><time>2026-05-03T08:38:36.674Z</time></trkpt><trkpt lat="39.7367667" lon="8.6844733"><ele>53.66666666666667</ele><time>2026-05-03T08:38:37.674Z</time></trkpt><trkpt lat="39.73693" lon="8.6843833"><ele>53.333333333333336</ele><time>2026-05-03T08:38:38.675Z</time></trkpt><trkpt lat="39.7371" lon="8.6842783"><ele>53.0</ele><time>2026-05-03T08:38:39.675Z</time></trkpt><trkpt lat="39.73727" lon="8.684185"><ele>53.0</ele><time>2026-05-03T08:38:40.675Z</time></trkpt><trkpt lat="39.7374417" lon="8.6840833"><ele>53.0</ele><time>2026-05-03T08:38:41.674Z</time></trkpt><trkpt lat="39.73762" lon="8.68399"><ele>53.0</ele><time>2026-05-03T08:38:42.674Z</time></trkpt><trkpt lat="39.7378017" lon="8.6839"><ele>53.66666666666667</ele><time>2026-05-03T08:38:43.675Z</time></trkpt><trkpt lat="39.7379767" lon="8.6838183"><ele>54.33333333333333</ele><time>2026-05-03T08:38:44.674Z</time></trkpt><trkpt lat="39.738145" lon="8.6837217"><ele>55.0</ele><time>2026-05-03T08:38:45.674Z</time></trkpt><trkpt lat="39.7383167" lon="8.683625"><ele>54.33333333333333</ele><time>2026-05-03T08:38:46.675Z</time></trkpt><trkpt lat="39.7384917" lon="8.6835333"><ele>53.66666666666667</ele><time>2026-05-03T08:38:47.674Z</time></trkpt><trkpt lat="39.7386633" lon="8.6834533"><ele>53.0</ele><time>2026-05-03T08:38:48.674Z</time></trkpt><trkpt lat="39.73884" lon="8.6833733"><ele>52.66666666666667</ele><time>2026-05-03T08:38:49.674Z</time></trkpt><trkpt lat="39.739005" lon="8.683285"><ele>52.33333333333333</ele><time>2026-05-03T08:38:50.674Z</time></trkpt><trkpt lat="39.7391733" lon="8.6831917"><ele>52.0</ele><time>2026-05-03T08:38:51.675Z</time></trkpt><trkpt lat="39.7393383" lon="8.6831067"><ele>52.0</ele><time>2026-05-03T08:38:52.674Z</time></trkpt><trkpt lat="39.7394933" lon="8.6830217"><ele>52.0</ele><time>2026-05-03T08:38:53.674Z</time></trkpt><trkpt lat="39.7396333" lon="8.6829383"><ele>52.0</ele><time>2026-05-03T08:38:54.674Z</time></trkpt><trkpt lat="39.7397583" lon="8.6828617"><ele>52.0</ele><time>2026-05-03T08:38:55.674Z</time></trkpt><trkpt lat="39.7398683" lon="8.6827867"><ele>52.0</ele><time>2026-05-03T08:38:56.674Z</time></trkpt><trkpt lat="39.7400017" lon="8.6827217"><ele>52.0</ele><time>2026-05-03T08:38:57.674Z</time></trkpt><trkpt lat="39.7401333" lon="8.68265"><ele>52.0</ele><time>2026-05-03T08:38:58.674Z</time></trkpt><trkpt lat="39.7402633" lon="8.6825683"><ele>51.33333333333333</ele><time>2026-05-03T08:38:59.674Z</time></trkpt><trkpt lat="39.7404067" lon="8.6824867"><ele>50.66666666666667</ele><time>2026-05-03T08:39:00.674Z</time></trkpt><trkpt lat="39.74056" lon="8.6824167"><ele>50.0</ele><time>2026-05-03T08:39:01.674Z</time></trkpt><trkpt lat="39.7407017" lon="8.6823367"><ele>50.0</ele><time>2026-05-03T08:39:02.674Z</time></trkpt><trkpt lat="39.7408367" lon="8.68227"><ele>50.0</ele><time>2026-05-03T08:39:03.675Z</time></trkpt><trkpt lat="39.7409717" lon="8.6822033"><ele>50.0</ele><time>2026-05-03T08:39:04.675Z</time></trkpt><trkpt lat="39.7410967" lon="8.6821383"><ele>50.0</ele><time>2026-05-03T08:39:05.674Z</time></trkpt><trkpt lat="39.74122" lon="8.6820717"><ele>50.0</ele><time>2026-05-03T08:39:06.674Z</time></trkpt><trkpt lat="39.74134" lon="8.6820133"><ele>50.0</ele><time>2026-05-03T08:39:07.674Z</time></trkpt><trkpt lat="39.741455" lon="8.6819467"><ele>50.0</ele><time>2026-05-03T08:39:08.675Z</time></trkpt><trkpt lat="39.7415933" lon="8.6818733"><ele>50.0</ele><time>2026-05-03T08:39:09.675Z</time></trkpt><trkpt lat="39.74174" lon="8.6817883"><ele>50.333333333333336</ele><time>2026-05-03T08:39:10.675Z</time></trkpt><trkpt lat="39.74189" lon="8.6816967"><ele>50.66666666666667</ele><time>2026-05-03T08:39:11.675Z</time></trkpt><trkpt lat="39.74206" lon="8.681605"><ele>51.0</ele><time>2026-05-03T08:39:12.674Z</time></trkpt><trkpt lat="39.74223" lon="8.6815067"><ele>51.0</ele><time>2026-05-03T08:39:13.674Z</time></trkpt><trkpt lat="39.7423983" lon="8.6814083"><ele>51.0</ele><time>2026-05-03T08:39:14.675Z</time></trkpt><trkpt lat="39.7425733" lon="8.6813117"><ele>51.0</ele><time>2026-05-03T08:39:15.674Z</time></trkpt><trkpt lat="39.7427567" lon="8.6812233"><ele>51.0</ele><time>2026-05-03T08:39:16.674Z</time></trkpt><trkpt lat="39.7429433" lon="8.681135"><ele>51.0</ele><time>2026-05-03T08:39:17.674Z</time></trkpt><trkpt lat="39.7431183" lon="8.6810317"><ele>51.0</ele><time>2026-05-03T08:39:18.674Z</time></trkpt><trkpt lat="39.7432917" lon="8.6809383"><ele>51.0</ele><time>2026-05-03T08:39:19.674Z</time></trkpt><trkpt lat="39.743475" lon="8.6808483"><ele>51.0</ele><time>2026-05-03T08:39:20.675Z</time></trkpt><trkpt lat="39.7436617" lon="8.680755"><ele>51.0</ele><time>2026-05-03T08:39:21.674Z</time></trkpt><trkpt lat="39.743865" lon="8.6806583"><ele>51.66666666666667</ele><time>2026-05-03T08:39:22.675Z</time></trkpt><trkpt lat="39.7440617" lon="8.68055"><ele>52.333333333333336</ele><time>2026-05-03T08:39:23.675Z</time></trkpt><trkpt lat="39.7442533" lon="8.680455"><ele>53.0</ele><time>2026-05-03T08:39:24.674Z</time></trkpt><trkpt lat="39.7444267" lon="8.680355"><ele>53.66666666666667</ele><time>2026-05-03T08:39:25.675Z</time></trkpt><trkpt lat="39.7445933" lon="8.6802567"><ele>54.33333333333333</ele><time>2026-05-03T08:39:26.674Z</time></trkpt><trkpt lat="39.7447717" lon="8.6801633"><ele>55.0</ele><time>2026-05-03T08:39:27.674Z</time></trkpt><trkpt lat="39.7449433" lon="8.6800733"><ele>55.0</ele><time>2026-05-03T08:39:28.674Z</time></trkpt><trkpt lat="39.745115" lon="8.67998"><ele>55.0</ele><time>2026-05-03T08:39:29.675Z</time></trkpt><trkpt lat="39.7452967" lon="8.67988"><ele>55.0</ele><time>2026-05-03T08:39:30.675Z</time></trkpt><trkpt lat="39.7454767" lon="8.6797717"><ele>55.666666666666664</ele><time>2026-05-03T08:39:31.674Z</time></trkpt><trkpt lat="39.7456517" lon="8.6796717"><ele>56.33333333333333</ele><time>2026-05-03T08:39:32.674Z</time></trkpt><trkpt lat="39.745825" lon="8.6795767"><ele>57.0</ele><time>2026-05-03T08:39:33.675Z</time></trkpt><trkpt lat="39.7459917" lon="8.6794833"><ele>56.66666666666667</ele><time>2026-05-03T08:39:34.674Z</time></trkpt><trkpt lat="39.7461517" lon="8.6793983"><ele>56.333333333333336</ele><time>2026-05-03T08:39:35.674Z</time></trkpt><trkpt lat="39.7463183" lon="8.6793167"><ele>56.0</ele><time>2026-05-03T08:39:36.674Z</time></trkpt><trkpt lat="39.7464767" lon="8.6792267"><ele>56.0</ele><time>2026-05-03T08:39:37.675Z</time></trkpt><trkpt lat="39.7466333" lon="8.679145"><ele>56.0</ele><time>2026-05-03T08:39:38.674Z</time></trkpt><trkpt lat="39.746795" lon="8.67906"><ele>56.0</ele><time>2026-05-03T08:39:39.674Z</time></trkpt><trkpt lat="39.746965" lon="8.6789767"><ele>56.0</ele><time>2026-05-03T08:39:40.674Z</time></trkpt><trkpt lat="39.74714" lon="8.678895"><ele>56.0</ele><time>2026-05-03T08:39:41.674Z</time></trkpt><trkpt lat="39.7472983" lon="8.6788067"><ele>56.0</ele><time>2026-05-03T08:39:42.674Z</time></trkpt><trkpt lat="39.747445" lon="8.6787183"><ele>56.0</ele><time>2026-05-03T08:39:43.675Z</time></trkpt><trkpt lat="39.7476" lon="8.678635"><ele>56.0</ele><time>2026-05-03T08:39:44.675Z</time></trkpt><trkpt lat="39.7477517" lon="8.6785517"><ele>56.0</ele><time>2026-05-03T08:39:45.675Z</time></trkpt><trkpt lat="39.7479" lon="8.6784683"><ele>56.0</ele><time>2026-05-03T08:39:46.674Z</time></trkpt><trkpt lat="39.748025" lon="8.6783883"><ele>55.99999999999999</ele><time>2026-05-03T08:39:47.675Z</time></trkpt><trkpt lat="39.7481333" lon="8.678335"><ele>55.99999999999999</ele><time>2026-05-03T08:39:48.675Z</time></trkpt><trkpt lat="39.7482" lon="8.6783017"><ele>56.0</ele><time>2026-05-03T08:39:49.675Z</time></trkpt><trkpt lat="39.748265" lon="8.67828"><ele>56.0</ele><time>2026-05-03T08:39:52.674Z</time></trkpt><trkpt lat="39.7482317" lon="8.67836"><ele>56.0</ele><time>2026-05-03T08:40:00.675Z</time></trkpt><trkpt lat="39.7482733" lon="8.678515"><ele>55.99999999999999</ele><time>2026-05-03T08:40:02.675Z</time></trkpt><trkpt lat="39.7483083" lon="8.6785933"><ele>55.99999999999999</ele><time>2026-05-03T08:40:03.674Z</time></trkpt><trkpt lat="39.7483483" lon="8.6786917"><ele>56.0</ele><time>2026-05-03T08:40:04.675Z</time></trkpt><trkpt lat="39.7483917" lon="8.67881"><ele>56.0</ele><time>2026-05-03T08:40:05.675Z</time></trkpt><trkpt lat="39.748435" lon="8.67895"><ele>56.5</ele><time>2026-05-03T08:40:06.674Z</time></trkpt><trkpt lat="39.7484917" lon="8.6791033"><ele>57.0</ele><time>2026-05-03T08:40:07.674Z</time></trkpt><trkpt lat="39.7485467" lon="8.6792683"><ele>57.5</ele><time>2026-05-03T08:40:08.674Z</time></trkpt><trkpt lat="39.748605" lon="8.679455"><ele>58.0</ele><time>2026-05-03T08:40:09.674Z</time></trkpt><trkpt lat="39.7486633" lon="8.679645"><ele>59.0</ele><time>2026-05-03T08:40:10.674Z</time></trkpt><trkpt lat="39.7487233" lon="8.679825"><ele>60.0</ele><time>2026-05-03T08:40:11.675Z</time></trkpt><trkpt lat="39.748775" lon="8.679985"><ele>61.0</ele><time>2026-05-03T08:40:12.674Z</time></trkpt><trkpt lat="39.7488133" lon="8.68012"><ele>62.0</ele><time>2026-05-03T08:40:13.674Z</time></trkpt><trkpt lat="39.7488517" lon="8.6802267"><ele>62.0</ele><time>2026-05-03T08:40:14.674Z</time></trkpt><trkpt lat="39.7489067" lon="8.68029"><ele>62.0</ele><time>2026-05-03T08:40:16.674Z</time></trkpt><trkpt lat="39.7489833" lon="8.6802517"><ele>62.0</ele><time>2026-05-03T08:40:17.674Z</time></trkpt><trkpt lat="39.7490883" lon="8.680185"><ele>62.0</ele><time>2026-05-03T08:40:18.674Z</time></trkpt><trkpt lat="39.7492133" lon="8.6801083"><ele>62.0</ele><time>2026-05-03T08:40:19.674Z</time></trkpt><trkpt lat="39.7493367" lon="8.680025"><ele>62.25</ele><time>2026-05-03T08:40:20.675Z</time></trkpt><trkpt lat="39.7494717" lon="8.6799583"><ele>62.5</ele><time>2026-05-03T08:40:21.674Z</time></trkpt><trkpt lat="39.749605" lon="8.679885"><ele>62.75</ele><time>2026-05-03T08:40:22.674Z</time></trkpt><trkpt lat="39.7497517" lon="8.679805"><ele>63.0</ele><time>2026-05-03T08:40:23.675Z</time></trkpt><trkpt lat="39.7499" lon="8.6797317"><ele>63.0</ele><time>2026-05-03T08:40:24.675Z</time></trkpt><trkpt lat="39.7500383" lon="8.67966"><ele>63.0</ele><time>2026-05-03T08:40:25.675Z</time></trkpt><trkpt lat="39.7501783" lon="8.6795883"><ele>63.0</ele><time>2026-05-03T08:40:26.674Z</time></trkpt><trkpt lat="39.75031" lon="8.6795083"><ele>63.0</ele><time>2026-05-03T08:40:27.674Z</time></trkpt><trkpt lat="39.7504417" lon="8.6794517"><ele>62.5</ele><time>2026-05-03T08:40:28.675Z</time></trkpt><trkpt lat="39.75057" lon="8.6793883"><ele>62.0</ele><time>2026-05-03T08:40:29.674Z</time></trkpt><trkpt lat="39.750695" lon="8.6793333"><ele>61.5</ele><time>2026-05-03T08:40:30.674Z</time></trkpt><trkpt lat="39.7508183" lon="8.67927"><ele>61.0</ele><time>2026-05-03T08:40:31.675Z</time></trkpt><trkpt lat="39.7509383" lon="8.6791967"><ele>61.666666666666664</ele><time>2026-05-03T08:40:32.674Z</time></trkpt><trkpt lat="39.7510667" lon="8.6791267"><ele>62.33333333333333</ele><time>2026-05-03T08:40:33.675Z</time></trkpt><trkpt lat="39.7512067" lon="8.679055"><ele>63.0</ele><time>2026-05-03T08:40:34.674Z</time></trkpt><trkpt lat="39.7513583" lon="8.6789783"><ele>63.0</ele><time>2026-05-03T08:40:35.674Z</time></trkpt><trkpt lat="39.7515067" lon="8.6789"><ele>63.0</ele><time>2026-05-03T08:40:36.675Z</time></trkpt><trkpt lat="39.7516433" lon="8.6788183"><ele>63.0</ele><time>2026-05-03T08:40:37.675Z</time></trkpt><trkpt lat="39.75178" lon="8.67873"><ele>63.5</ele><time>2026-05-03T08:40:38.674Z</time></trkpt><trkpt lat="39.7519117" lon="8.6786533"><ele>64.0</ele><time>2026-05-03T08:40:39.675Z</time></trkpt><trkpt lat="39.7520467" lon="8.6785817"><ele>64.5</ele><time>2026-05-03T08:40:40.675Z</time></trkpt><trkpt lat="39.75219" lon="8.6785033"><ele>65.0</ele><time>2026-05-03T08:40:41.674Z</time></trkpt><trkpt lat="39.7523433" lon="8.6784283"><ele>63.66666666666667</ele><time>2026-05-03T08:40:42.675Z</time></trkpt><trkpt lat="39.7524983" lon="8.67834"><ele>62.33333333333333</ele><time>2026-05-03T08:40:43.674Z</time></trkpt><trkpt lat="39.7526483" lon="8.6782583"><ele>61.0</ele><time>2026-05-03T08:40:44.674Z</time></trkpt><trkpt lat="39.7527883" lon="8.6781833"><ele>61.0</ele><time>2026-05-03T08:40:45.675Z</time></trkpt><trkpt lat="39.7529067" lon="8.67812"><ele>60.99999999999999</ele><time>2026-05-03T08:40:46.674Z</time></trkpt><trkpt lat="39.7530083" lon="8.6780617"><ele>60.99999999999999</ele><time>2026-05-03T08:40:47.674Z</time></trkpt><trkpt lat="39.7530967" lon="8.6780217"><ele>61.0</ele><time>2026-05-03T08:40:48.674Z</time></trkpt><trkpt lat="39.7531867" lon="8.67798"><ele>61.0</ele><time>2026-05-03T08:40:49.674Z</time></trkpt><trkpt lat="39.7532767" lon="8.6779367"><ele>61.0</ele><time>2026-05-03T08:40:50.674Z</time></trkpt><trkpt lat="39.7533633" lon="8.6778833"><ele>60.99999999999999</ele><time>2026-05-03T08:40:51.674Z</time></trkpt><trkpt lat="39.7534583" lon="8.6778267"><ele>60.99999999999999</ele><time>2026-05-03T08:40:52.675Z</time></trkpt><trkpt lat="39.7535367" lon="8.677775"><ele>61.0</ele><time>2026-05-03T08:40:53.674Z</time></trkpt><trkpt lat="39.7536333" lon="8.6777717"><ele>61.0</ele><time>2026-05-03T08:40:55.675Z</time></trkpt><trkpt lat="39.7536933" lon="8.6778917"><ele>61.4</ele><time>2026-05-03T08:40:57.674Z</time></trkpt><trkpt lat="39.753725" lon="8.67802"><ele>61.8</ele><time>2026-05-03T08:40:58.675Z</time></trkpt><trkpt lat="39.75377" lon="8.6781767"><ele>62.199999999999996</ele><time>2026-05-03T08:40:59.674Z</time></trkpt><trkpt lat="39.7538067" lon="8.678315"><ele>62.599999999999994</ele><time>2026-05-03T08:41:00.675Z</time></trkpt><trkpt lat="39.753845" lon="8.6784167"><ele>63.0</ele><time>2026-05-03T08:41:01.675Z</time></trkpt><trkpt lat="39.7539033" lon="8.6784983"><ele>63.0</ele><time>2026-05-03T08:41:02.674Z</time></trkpt><trkpt lat="39.7539783" lon="8.67855"><ele>63.0</ele><time>2026-05-03T08:41:03.674Z</time></trkpt><trkpt lat="39.75406" lon="8.6785733"><ele>63.0</ele><time>2026-05-03T08:41:04.674Z</time></trkpt><trkpt lat="39.754145" lon="8.6785733"><ele>63.0</ele><time>2026-05-03T08:41:05.674Z</time></trkpt><trkpt lat="39.75421" lon="8.6785683"><ele>63.0</ele><time>2026-05-03T08:41:06.674Z</time></trkpt><trkpt lat="39.754315" lon="8.678575"><ele>63.0</ele><time>2026-05-03T08:41:08.674Z</time></trkpt><trkpt lat="39.7543733" lon="8.67863"><ele>63.0</ele><time>2026-05-03T08:41:10.675Z</time></trkpt><trkpt lat="39.7543833" lon="8.6787217"><ele>63.0</ele><time>2026-05-03T08:41:12.674Z</time></trkpt><trkpt lat="39.7543283" lon="8.67861"><ele>63.0</ele><time>2026-05-03T08:41:19.675Z</time></trkpt><trkpt lat="39.75438" lon="8.6785417"><ele>63.0</ele><time>2026-05-03T08:41:21.674Z</time></trkpt><trkpt lat="39.7544433" lon="8.6785367"><ele>63.0</ele><time>2026-05-03T08:41:22.674Z</time></trkpt><trkpt lat="39.754545" lon="8.6785317"><ele>63.0</ele><time>2026-05-03T08:41:23.674Z</time></trkpt><trkpt lat="39.75466" lon="8.6785167"><ele>63.0</ele><time>2026-05-03T08:41:24.674Z</time></trkpt><trkpt lat="39.7547783" lon="8.6785083"><ele>63.0</ele><time>2026-05-03T08:41:25.674Z</time></trkpt><trkpt lat="39.754885" lon="8.678495"><ele>63.0</ele><time>2026-05-03T08:41:26.674Z</time></trkpt><trkpt lat="39.75499" lon="8.678485"><ele>63.0</ele><time>2026-05-03T08:41:27.674Z</time></trkpt><trkpt lat="39.755095" lon="8.678465"><ele>63.0</ele><time>2026-05-03T08:41:28.674Z</time></trkpt><trkpt lat="39.7552" lon="8.6784383"><ele>63.25</ele><time>2026-05-03T08:41:29.675Z</time></trkpt><trkpt lat="39.7553083" lon="8.6784133"><ele>63.5</ele><time>2026-05-03T08:41:30.674Z</time></trkpt><trkpt lat="39.755425" lon="8.6783967"><ele>63.75</ele><time>2026-05-03T08:41:31.675Z</time></trkpt><trkpt lat="39.755545" lon="8.678375"><ele>64.0</ele><time>2026-05-03T08:41:32.675Z</time></trkpt><trkpt lat="39.75566" lon="8.6783633"><ele>64.0</ele><time>2026-05-03T08:41:33.674Z</time></trkpt><trkpt lat="39.7557733" lon="8.67835"><ele>64.0</ele><time>2026-05-03T08:41:34.675Z</time></trkpt><trkpt lat="39.755885" lon="8.6783433"><ele>64.0</ele><time>2026-05-03T08:41:35.674Z</time></trkpt><trkpt lat="39.7560033" lon="8.67836"><ele>64.0</ele><time>2026-05-03T08:41:36.674Z</time></trkpt><trkpt lat="39.756125" lon="8.6783883"><ele>63.75</ele><time>2026-05-03T08:41:37.674Z</time></trkpt><trkpt lat="39.7562417" lon="8.6784183"><ele>63.5</ele><time>2026-05-03T08:41:38.674Z</time></trkpt><trkpt lat="39.7563617" lon="8.6784683"><ele>63.25</ele><time>2026-05-03T08:41:39.675Z</time></trkpt><trkpt lat="39.7564883" lon="8.6785183"><ele>63.0</ele><time>2026-05-03T08:41:40.674Z</time></trkpt><trkpt lat="39.75661" lon="8.678565"><ele>63.5</ele><time>2026-05-03T08:41:41.675Z</time></trkpt><trkpt lat="39.7567317" lon="8.6786117"><ele>64.0</ele><time>2026-05-03T08:41:42.674Z</time></trkpt><trkpt lat="39.75686" lon="8.6786533"><ele>64.5</ele><time>2026-05-03T08:41:43.674Z</time></trkpt><trkpt lat="39.7569883" lon="8.6786917"><ele>65.0</ele><time>2026-05-03T08:41:44.674Z</time></trkpt><trkpt lat="39.7571083" lon="8.6787383"><ele>65.0</ele><time>2026-05-03T08:41:45.674Z</time></trkpt><trkpt lat="39.7572317" lon="8.6787833"><ele>65.0</ele><time>2026-05-03T08:41:46.675Z</time></trkpt><trkpt lat="39.7573617" lon="8.6788167"><ele>65.0</ele><time>2026-05-03T08:41:47.675Z</time></trkpt><trkpt lat="39.7574883" lon="8.6788383"><ele>65.0</ele><time>2026-05-03T08:41:48.674Z</time></trkpt><trkpt lat="39.75761" lon="8.6788583"><ele>65.0</ele><time>2026-05-03T08:41:49.675Z</time></trkpt><trkpt lat="39.757735" lon="8.678875"><ele>65.0</ele><time>2026-05-03T08:41:50.675Z</time></trkpt><trkpt lat="39.7578683" lon="8.67889"><ele>65.0</ele><time>2026-05-03T08:41:51.674Z</time></trkpt><trkpt lat="39.75799" lon="8.678915"><ele>65.0</ele><time>2026-05-03T08:41:52.675Z</time></trkpt><trkpt lat="39.7581083" lon="8.6789433"><ele>65.0</ele><time>2026-05-03T08:41:53.674Z</time></trkpt><trkpt lat="39.758225" lon="8.6789567"><ele>65.0</ele><time>2026-05-03T08:41:54.675Z</time></trkpt><trkpt lat="39.7583333" lon="8.6789717"><ele>65.0</ele><time>2026-05-03T08:41:55.675Z</time></trkpt><trkpt lat="39.7584483" lon="8.6790183"><ele>65.0</ele><time>2026-05-03T08:41:56.675Z</time></trkpt><trkpt lat="39.7585667" lon="8.6790733"><ele>64.5</ele><time>2026-05-03T08:41:57.675Z</time></trkpt><trkpt lat="39.75868" lon="8.6791467"><ele>64.0</ele><time>2026-05-03T08:41:58.674Z</time></trkpt><trkpt lat="39.758785" lon="8.6792383"><ele>63.5</ele><time>2026-05-03T08:41:59.674Z</time></trkpt><trkpt lat="39.75888" lon="8.6793383"><ele>63.0</ele><time>2026-05-03T08:42:00.675Z</time></trkpt><trkpt lat="39.7589817" lon="8.6794333"><ele>63.0</ele><time>2026-05-03T08:42:01.675Z</time></trkpt><trkpt lat="39.7590783" lon="8.67952"><ele>63.0</ele><time>2026-05-03T08:42:02.675Z</time></trkpt><trkpt lat="39.7591783" lon="8.6796217"><ele>63.0</ele><time>2026-05-03T08:42:03.675Z</time></trkpt><trkpt lat="39.7592783" lon="8.6797333"><ele>63.0</ele><time>2026-05-03T08:42:04.675Z</time></trkpt><trkpt lat="39.7593717" lon="8.679825"><ele>63.0</ele><time>2026-05-03T08:42:05.674Z</time></trkpt><trkpt lat="39.7594683" lon="8.6799067"><ele>63.0</ele><time>2026-05-03T08:42:06.674Z</time></trkpt><trkpt lat="39.7595617" lon="8.67997"><ele>63.0</ele><time>2026-05-03T08:42:07.675Z</time></trkpt><trkpt lat="39.75967" lon="8.680025"><ele>63.0</ele><time>2026-05-03T08:42:08.675Z</time></trkpt><trkpt lat="39.75979" lon="8.6800817"><ele>63.0</ele><time>2026-05-03T08:42:09.674Z</time></trkpt><trkpt lat="39.75991" lon="8.68012"><ele>63.0</ele><time>2026-05-03T08:42:10.674Z</time></trkpt><trkpt lat="39.7600267" lon="8.6801533"><ele>63.0</ele><time>2026-05-03T08:42:11.675Z</time></trkpt><trkpt lat="39.7601517" lon="8.6801983"><ele>63.0</ele><time>2026-05-03T08:42:12.674Z</time></trkpt><trkpt lat="39.7602617" lon="8.680235"><ele>63.5</ele><time>2026-05-03T08:42:13.674Z</time></trkpt><trkpt lat="39.760375" lon="8.68028"><ele>64.0</ele><time>2026-05-03T08:42:14.674Z</time></trkpt><trkpt lat="39.7604967" lon="8.680325"><ele>64.5</ele><time>2026-05-03T08:42:15.674Z</time></trkpt><trkpt lat="39.76062" lon="8.680365"><ele>65.0</ele><time>2026-05-03T08:42:16.675Z</time></trkpt><trkpt lat="39.760745" lon="8.680405"><ele>65.0</ele><time>2026-05-03T08:42:17.674Z</time></trkpt><trkpt lat="39.7608783" lon="8.6804417"><ele>65.0</ele><time>2026-05-03T08:42:18.675Z</time></trkpt><trkpt lat="39.7610033" lon="8.680485"><ele>65.0</ele><time>2026-05-03T08:42:19.674Z</time></trkpt><trkpt lat="39.7611233" lon="8.6805117"><ele>65.0</ele><time>2026-05-03T08:42:20.675Z</time></trkpt><trkpt lat="39.761245" lon="8.680525"><ele>65.0</ele><time>2026-05-03T08:42:21.674Z</time></trkpt><trkpt lat="39.7613633" lon="8.68052"><ele>65.0</ele><time>2026-05-03T08:42:22.674Z</time></trkpt><trkpt lat="39.7614833" lon="8.6804983"><ele>65.0</ele><time>2026-05-03T08:42:23.675Z</time></trkpt><trkpt lat="39.76161" lon="8.6804583"><ele>65.0</ele><time>2026-05-03T08:42:24.675Z</time></trkpt><trkpt lat="39.7617433" lon="8.6804117"><ele>65.0</ele><time>2026-05-03T08:42:25.675Z</time></trkpt><trkpt lat="39.761865" lon="8.6803617"><ele>65.0</ele><time>2026-05-03T08:42:26.674Z</time></trkpt><trkpt lat="39.7619867" lon="8.680325"><ele>65.0</ele><time>2026-05-03T08:42:27.674Z</time></trkpt><trkpt lat="39.76212" lon="8.680295"><ele>65.0</ele><time>2026-05-03T08:42:28.674Z</time></trkpt><trkpt lat="39.7622617" lon="8.68026"><ele>64.75</ele><time>2026-05-03T08:42:29.675Z</time></trkpt><trkpt lat="39.7624083" lon="8.68023"><ele>64.5</ele><time>2026-05-03T08:42:30.674Z</time></trkpt><trkpt lat="39.7625517" lon="8.680205"><ele>64.25</ele><time>2026-05-03T08:42:31.674Z</time></trkpt><trkpt lat="39.7626917" lon="8.6802083"><ele>64.0</ele><time>2026-05-03T08:42:32.674Z</time></trkpt><trkpt lat="39.7628383" lon="8.6802317"><ele>63.666666666666664</ele><time>2026-05-03T08:42:33.674Z</time></trkpt><trkpt lat="39.7629867" lon="8.68026"><ele>63.33333333333333</ele><time>2026-05-03T08:42:34.675Z</time></trkpt><trkpt lat="39.7631383" lon="8.680305"><ele>63.0</ele><time>2026-05-03T08:42:35.674Z</time></trkpt><trkpt lat="39.763315" lon="8.6803583"><ele>63.33333333333333</ele><time>2026-05-03T08:42:36.674Z</time></trkpt><trkpt lat="39.7634867" lon="8.68042"><ele>63.666666666666664</ele><time>2026-05-03T08:42:37.674Z</time></trkpt><trkpt lat="39.7636433" lon="8.6804667"><ele>64.0</ele><time>2026-05-03T08:42:38.674Z</time></trkpt><trkpt lat="39.7637917" lon="8.6805167"><ele>64.0</ele><time>2026-05-03T08:42:39.674Z</time></trkpt><trkpt lat="39.763945" lon="8.680575"><ele>64.0</ele><time>2026-05-03T08:42:40.675Z</time></trkpt><trkpt lat="39.764105" lon="8.680655"><ele>64.0</ele><time>2026-05-03T08:42:41.675Z</time></trkpt><trkpt lat="39.7642833" lon="8.6807567"><ele>64.0</ele><time>2026-05-03T08:42:42.674Z</time></trkpt><trkpt lat="39.7644467" lon="8.6808583"><ele>64.0</ele><time>2026-05-03T08:42:43.674Z</time></trkpt><trkpt lat="39.7646017" lon="8.6809483"><ele>64.0</ele><time>2026-05-03T08:42:44.675Z</time></trkpt><trkpt lat="39.7647567" lon="8.6810233"><ele>64.5</ele><time>2026-05-03T08:42:45.675Z</time></trkpt><trkpt lat="39.76491" lon="8.6811"><ele>65.0</ele><time>2026-05-03T08:42:46.674Z</time></trkpt><trkpt lat="39.7650517" lon="8.681175"><ele>65.5</ele><time>2026-05-03T08:42:47.675Z</time></trkpt><trkpt lat="39.7651683" lon="8.6812133"><ele>66.0</ele><time>2026-05-03T08:42:48.674Z</time></trkpt><trkpt lat="39.7652667" lon="8.6812117"><ele>66.0</ele><time>2026-05-03T08:42:49.674Z</time></trkpt><trkpt lat="39.7653617" lon="8.681165"><ele>66.0</ele><time>2026-05-03T08:42:50.675Z</time></trkpt><trkpt lat="39.7654733" lon="8.6810933"><ele>66.0</ele><time>2026-05-03T08:42:51.675Z</time></trkpt><trkpt lat="39.7655883" lon="8.6809883"><ele>66.0</ele><time>2026-05-03T08:42:52.674Z</time></trkpt><trkpt lat="39.765715" lon="8.68086"><ele>66.0</ele><time>2026-05-03T08:42:53.674Z</time></trkpt><trkpt lat="39.7658467" lon="8.6807217"><ele>66.0</ele><time>2026-05-03T08:42:54.674Z</time></trkpt><trkpt lat="39.7659883" lon="8.6805933"><ele>66.0</ele><time>2026-05-03T08:42:55.675Z</time></trkpt><trkpt lat="39.7661317" lon="8.68046"><ele>66.0</ele><time>2026-05-03T08:42:56.674Z</time></trkpt><trkpt lat="39.7662733" lon="8.680325"><ele>66.0</ele><time>2026-05-03T08:42:57.674Z</time></trkpt><trkpt lat="39.7664083" lon="8.6802067"><ele>66.0</ele><time>2026-05-03T08:42:58.674Z</time></trkpt><trkpt lat="39.76653" lon="8.6801067"><ele>65.0</ele><time>2026-05-03T08:42:59.674Z</time></trkpt><trkpt lat="39.7666683" lon="8.6800267"><ele>64.0</ele><time>2026-05-03T08:43:00.674Z</time></trkpt><trkpt lat="39.7668183" lon="8.6799567"><ele>63.0</ele><time>2026-05-03T08:43:01.674Z</time></trkpt><trkpt lat="39.7669833" lon="8.67989"><ele>63.0</ele><time>2026-05-03T08:43:02.674Z</time></trkpt><trkpt lat="39.767165" lon="8.6798367"><ele>63.0</ele><time>2026-05-03T08:43:03.673Z</time></trkpt><trkpt lat="39.7673533" lon="8.6797717"><ele>63.0</ele><time>2026-05-03T08:43:04.673Z</time></trkpt><trkpt lat="39.76754" lon="8.6796967"><ele>63.66666666666667</ele><time>2026-05-03T08:43:05.674Z</time></trkpt><trkpt lat="39.7677267" lon="8.6796133"><ele>64.33333333333334</ele><time>2026-05-03T08:43:06.674Z</time></trkpt><trkpt lat="39.76791" lon="8.679545"><ele>65.0</ele><time>2026-05-03T08:43:07.673Z</time></trkpt><trkpt lat="39.768105" lon="8.6794717"><ele>64.0</ele><time>2026-05-03T08:43:08.674Z</time></trkpt><trkpt lat="39.7682983" lon="8.6794017"><ele>63.0</ele><time>2026-05-03T08:43:09.674Z</time></trkpt><trkpt lat="39.7684983" lon="8.6793383"><ele>62.0</ele><time>2026-05-03T08:43:10.673Z</time></trkpt><trkpt lat="39.7686983" lon="8.6792733"><ele>62.0</ele><time>2026-05-03T08:43:11.673Z</time></trkpt><trkpt lat="39.7688967" lon="8.6792"><ele>62.0</ele><time>2026-05-03T08:43:12.673Z</time></trkpt><trkpt lat="39.7690933" lon="8.6791267"><ele>62.0</ele><time>2026-05-03T08:43:13.674Z</time></trkpt><trkpt lat="39.7692783" lon="8.67905"><ele>63.0</ele><time>2026-05-03T08:43:14.673Z</time></trkpt><trkpt lat="39.7694683" lon="8.6789767"><ele>64.0</ele><time>2026-05-03T08:43:15.673Z</time></trkpt><trkpt lat="39.76965" lon="8.6789117"><ele>65.0</ele><time>2026-05-03T08:43:16.673Z</time></trkpt><trkpt lat="39.7698267" lon="8.6788417"><ele>65.0</ele><time>2026-05-03T08:43:17.673Z</time></trkpt><trkpt lat="39.77001" lon="8.6787733"><ele>65.0</ele><time>2026-05-03T08:43:18.673Z</time></trkpt><trkpt lat="39.7701867" lon="8.6787067"><ele>65.0</ele><time>2026-05-03T08:43:19.673Z</time></trkpt><trkpt lat="39.7703483" lon="8.6786383"><ele>65.0</ele><time>2026-05-03T08:43:20.673Z</time></trkpt><trkpt lat="39.7705033" lon="8.6785567"><ele>65.0</ele><time>2026-05-03T08:43:21.674Z</time></trkpt><trkpt lat="39.7706583" lon="8.6784783"><ele>65.0</ele><time>2026-05-03T08:43:22.674Z</time></trkpt><trkpt lat="39.7708067" lon="8.6784"><ele>65.0</ele><time>2026-05-03T08:43:23.673Z</time></trkpt><trkpt lat="39.770945" lon="8.6783267"><ele>65.0</ele><time>2026-05-03T08:43:24.674Z</time></trkpt><trkpt lat="39.77105" lon="8.6782567"><ele>65.0</ele><time>2026-05-03T08:43:25.673Z</time></trkpt><trkpt lat="39.7711383" lon="8.6781933"><ele>65.0</ele><time>2026-05-03T08:43:26.673Z</time></trkpt><trkpt lat="39.7711967" lon="8.67815"><ele>65.0</ele><time>2026-05-03T08:43:27.673Z</time></trkpt><trkpt lat="39.77131" lon="8.6780883"><ele>65.0</ele><time>2026-05-03T08:43:29.674Z</time></trkpt><trkpt lat="39.7714167" lon="8.6780433"><ele>65.0</ele><time>2026-05-03T08:43:31.673Z</time></trkpt><trkpt lat="39.7715017" lon="8.6780083"><ele>65.0</ele><time>2026-05-03T08:43:32.674Z</time></trkpt><trkpt lat="39.7716217" lon="8.677945"><ele>65.0</ele><time>2026-05-03T08:43:33.673Z</time></trkpt><trkpt lat="39.7717767" lon="8.67786"><ele>64.0</ele><time>2026-05-03T08:43:34.673Z</time></trkpt><trkpt lat="39.771935" lon="8.677765"><ele>63.0</ele><time>2026-05-03T08:43:35.673Z</time></trkpt><trkpt lat="39.7720883" lon="8.67768"><ele>62.0</ele><time>2026-05-03T08:43:36.673Z</time></trkpt><trkpt lat="39.7722383" lon="8.6776067"><ele>62.0</ele><time>2026-05-03T08:43:37.673Z</time></trkpt><trkpt lat="39.77237" lon="8.67756"><ele>62.0</ele><time>2026-05-03T08:43:38.674Z</time></trkpt><trkpt lat="39.772515" lon="8.6775517"><ele>62.0</ele><time>2026-05-03T08:43:39.673Z</time></trkpt><trkpt lat="39.77265" lon="8.6775583"><ele>62.0</ele><time>2026-05-03T08:43:40.674Z</time></trkpt><trkpt lat="39.772765" lon="8.67757"><ele>62.0</ele><time>2026-05-03T08:43:41.673Z</time></trkpt><trkpt lat="39.77286" lon="8.677605"><ele>62.0</ele><time>2026-05-03T08:43:42.673Z</time></trkpt><trkpt lat="39.7729433" lon="8.677655"><ele>62.0</ele><time>2026-05-03T08:43:43.673Z</time></trkpt><trkpt lat="39.773025" lon="8.677725"><ele>62.0</ele><time>2026-05-03T08:43:44.674Z</time></trkpt><trkpt lat="39.7731233" lon="8.6777967"><ele>62.0</ele><time>2026-05-03T08:43:45.673Z</time></trkpt><trkpt lat="39.773215" lon="8.677875"><ele>62.0</ele><time>2026-05-03T08:43:46.673Z</time></trkpt><trkpt lat="39.7733067" lon="8.6779733"><ele>62.0</ele><time>2026-05-03T08:43:47.674Z</time></trkpt><trkpt lat="39.7734133" lon="8.6781017"><ele>62.0</ele><time>2026-05-03T08:43:48.673Z</time></trkpt><trkpt lat="39.77353" lon="8.6782533"><ele>62.0</ele><time>2026-05-03T08:43:49.674Z</time></trkpt><trkpt lat="39.7736467" lon="8.678405"><ele>61.8</ele><time>2026-05-03T08:43:50.673Z</time></trkpt><trkpt lat="39.7737483" lon="8.6785267"><ele>61.6</ele><time>2026-05-03T08:43:51.674Z</time></trkpt><trkpt lat="39.7738267" lon="8.6786133"><ele>61.39999999999999</ele><time>2026-05-03T08:43:52.673Z</time></trkpt><trkpt lat="39.7739033" lon="8.6786417"><ele>61.199999999999996</ele><time>2026-05-03T08:43:53.674Z</time></trkpt><trkpt lat="39.7739867" lon="8.67864"><ele>61.0</ele><time>2026-05-03T08:43:54.674Z</time></trkpt><trkpt lat="39.7740667" lon="8.678595"><ele>61.0</ele><time>2026-05-03T08:43:55.673Z</time></trkpt><trkpt lat="39.7741617" lon="8.6784917"><ele>61.0</ele><time>2026-05-03T08:43:56.673Z</time></trkpt><trkpt lat="39.7742617" lon="8.6783517"><ele>61.0</ele><time>2026-05-03T08:43:57.673Z</time></trkpt><trkpt lat="39.7743733" lon="8.678205"><ele>61.0</ele><time>2026-05-03T08:43:58.673Z</time></trkpt><trkpt lat="39.7744967" lon="8.6780633"><ele>61.5</ele><time>2026-05-03T08:43:59.673Z</time></trkpt><trkpt lat="39.7746217" lon="8.6779467"><ele>62.0</ele><time>2026-05-03T08:44:00.674Z</time></trkpt><trkpt lat="39.7747367" lon="8.677845"><ele>62.5</ele><time>2026-05-03T08:44:01.673Z</time></trkpt><trkpt lat="39.7748517" lon="8.6777317"><ele>63.0</ele><time>2026-05-03T08:44:02.674Z</time></trkpt><trkpt lat="39.7749617" lon="8.6776183"><ele>63.0</ele><time>2026-05-03T08:44:03.674Z</time></trkpt><trkpt lat="39.775075" lon="8.6775"><ele>63.0</ele><time>2026-05-03T08:44:04.673Z</time></trkpt><trkpt lat="39.7751833" lon="8.67734"><ele>63.0</ele><time>2026-05-03T08:44:05.673Z</time></trkpt><trkpt lat="39.775285" lon="8.6771567"><ele>63.0</ele><time>2026-05-03T08:44:06.673Z</time></trkpt><trkpt lat="39.77539" lon="8.6769533"><ele>63.0</ele><time>2026-05-03T08:44:07.673Z</time></trkpt><trkpt lat="39.7754883" lon="8.6767483"><ele>63.0</ele><time>2026-05-03T08:44:08.673Z</time></trkpt><trkpt lat="39.7755917" lon="8.6765283"><ele>63.0</ele><time>2026-05-03T08:44:09.673Z</time></trkpt><trkpt lat="39.7757033" lon="8.6763017"><ele>63.0</ele><time>2026-05-03T08:44:10.674Z</time></trkpt><trkpt lat="39.7758167" lon="8.676075"><ele>63.0</ele><time>2026-05-03T08:44:11.673Z</time></trkpt><trkpt lat="39.7759183" lon="8.6758617"><ele>62.33333333333333</ele><time>2026-05-03T08:44:12.674Z</time></trkpt><trkpt lat="39.7760067" lon="8.67566"><ele>61.666666666666664</ele><time>2026-05-03T08:44:13.673Z</time></trkpt><trkpt lat="39.776095" lon="8.6754767"><ele>61.0</ele><time>2026-05-03T08:44:14.673Z</time></trkpt><trkpt lat="39.7761817" lon="8.6752983"><ele>61.25</ele><time>2026-05-03T08:44:15.673Z</time></trkpt><trkpt lat="39.7762683" lon="8.6751383"><ele>61.5</ele><time>2026-05-03T08:44:16.673Z</time></trkpt><trkpt lat="39.7763567" lon="8.6750033"><ele>61.75</ele><time>2026-05-03T08:44:17.673Z</time></trkpt><trkpt lat="39.776465" lon="8.6748883"><ele>62.0</ele><time>2026-05-03T08:44:18.674Z</time></trkpt><trkpt lat="39.776605" lon="8.6747783"><ele>62.0</ele><time>2026-05-03T08:44:19.674Z</time></trkpt><trkpt lat="39.77675" lon="8.6746717"><ele>62.0</ele><time>2026-05-03T08:44:20.673Z</time></trkpt><trkpt lat="39.776895" lon="8.6745867"><ele>62.0</ele><time>2026-05-03T08:44:21.673Z</time></trkpt><trkpt lat="39.7770233" lon="8.6745067"><ele>62.2</ele><time>2026-05-03T08:44:22.673Z</time></trkpt><trkpt lat="39.7771417" lon="8.6744517"><ele>62.400000000000006</ele><time>2026-05-03T08:44:23.674Z</time></trkpt><trkpt lat="39.77725" lon="8.6744067"><ele>62.599999999999994</ele><time>2026-05-03T08:44:24.674Z</time></trkpt><trkpt lat="39.7773333" lon="8.6743817"><ele>62.8</ele><time>2026-05-03T08:44:25.674Z</time></trkpt><trkpt lat="39.7774033" lon="8.6743617"><ele>63.0</ele><time>2026-05-03T08:44:26.673Z</time></trkpt><trkpt lat="39.7774717" lon="8.6743383"><ele>63.0</ele><time>2026-05-03T08:44:28.673Z</time></trkpt><trkpt lat="39.7775533" lon="8.6743883"><ele>63.0</ele><time>2026-05-03T08:44:30.674Z</time></trkpt><trkpt lat="39.7776017" lon="8.67447"><ele>63.0</ele><time>2026-05-03T08:44:31.673Z</time></trkpt><trkpt lat="39.777665" lon="8.6745767"><ele>63.0</ele><time>2026-05-03T08:44:32.673Z</time></trkpt><trkpt lat="39.7777767" lon="8.674715"><ele>63.0</ele><time>2026-05-03T08:44:33.674Z</time></trkpt><trkpt lat="39.7779083" lon="8.674855"><ele>63.33333333333333</ele><time>2026-05-03T08:44:34.674Z</time></trkpt><trkpt lat="39.778045" lon="8.675005"><ele>63.666666666666664</ele><time>2026-05-03T08:44:35.673Z</time></trkpt><trkpt lat="39.778175" lon="8.6751633"><ele>64.0</ele><time>2026-05-03T08:44:36.674Z</time></trkpt><trkpt lat="39.778305" lon="8.6753283"><ele>65.33333333333333</ele><time>2026-05-03T08:44:37.673Z</time></trkpt><trkpt lat="39.7784283" lon="8.675495"><ele>66.66666666666667</ele><time>2026-05-03T08:44:38.673Z</time></trkpt><trkpt lat="39.778545" lon="8.6756383"><ele>68.0</ele><time>2026-05-03T08:44:39.673Z</time></trkpt><trkpt lat="39.7786583" lon="8.6757717"><ele>68.0</ele><time>2026-05-03T08:44:40.674Z</time></trkpt><trkpt lat="39.7787733" lon="8.6759133"><ele>68.0</ele><time>2026-05-03T08:44:41.673Z</time></trkpt><trkpt lat="39.7788933" lon="8.6760633"><ele>68.0</ele><time>2026-05-03T08:44:42.674Z</time></trkpt><trkpt lat="39.7790183" lon="8.6762117"><ele>68.66666666666667</ele><time>2026-05-03T08:44:43.673Z</time></trkpt><trkpt lat="39.7791417" lon="8.6763533"><ele>69.33333333333333</ele><time>2026-05-03T08:44:44.673Z</time></trkpt><trkpt lat="39.779275" lon="8.6764967"><ele>70.0</ele><time>2026-05-03T08:44:45.673Z</time></trkpt><trkpt lat="39.7794033" lon="8.6766333"><ele>70.0</ele><time>2026-05-03T08:44:46.673Z</time></trkpt><trkpt lat="39.7795333" lon="8.6767817"><ele>70.0</ele><time>2026-05-03T08:44:47.673Z</time></trkpt><trkpt lat="39.7796583" lon="8.6769267"><ele>70.0</ele><time>2026-05-03T08:44:48.673Z</time></trkpt><trkpt lat="39.779785" lon="8.6770833"><ele>71.66666666666666</ele><time>2026-05-03T08:44:49.673Z</time></trkpt><trkpt lat="39.77992" lon="8.6772433"><ele>73.33333333333333</ele><time>2026-05-03T08:44:50.673Z</time></trkpt><trkpt lat="39.7800533" lon="8.6774117"><ele>75.0</ele><time>2026-05-03T08:44:51.674Z</time></trkpt><trkpt lat="39.7801867" lon="8.6775817"><ele>75.0</ele><time>2026-05-03T08:44:52.673Z</time></trkpt><trkpt lat="39.7803117" lon="8.6777433"><ele>75.0</ele><time>2026-05-03T08:44:53.674Z</time></trkpt><trkpt lat="39.7804417" lon="8.677895"><ele>75.0</ele><time>2026-05-03T08:44:54.673Z</time></trkpt><trkpt lat="39.7805567" lon="8.6780333"><ele>75.75</ele><time>2026-05-03T08:44:55.673Z</time></trkpt><trkpt lat="39.7806683" lon="8.678175"><ele>76.5</ele><time>2026-05-03T08:44:56.673Z</time></trkpt><trkpt lat="39.7807767" lon="8.678305"><ele>77.25</ele><time>2026-05-03T08:44:57.673Z</time></trkpt><trkpt lat="39.7808817" lon="8.6784317"><ele>78.0</ele><time>2026-05-03T08:44:58.673Z</time></trkpt><trkpt lat="39.781" lon="8.678555"><ele>79.0</ele><time>2026-05-03T08:44:59.673Z</time></trkpt><trkpt lat="39.7811317" lon="8.6786633"><ele>80.0</ele><time>2026-05-03T08:45:00.673Z</time></trkpt><trkpt lat="39.781265" lon="8.678765"><ele>81.0</ele><time>2026-05-03T08:45:01.673Z</time></trkpt><trkpt lat="39.7814183" lon="8.6788583"><ele>81.0</ele><time>2026-05-03T08:45:02.673Z</time></trkpt><trkpt lat="39.7815717" lon="8.6789467"><ele>81.0</ele><time>2026-05-03T08:45:03.673Z</time></trkpt><trkpt lat="39.78173" lon="8.679025"><ele>81.0</ele><time>2026-05-03T08:45:04.674Z</time></trkpt><trkpt lat="39.7818917" lon="8.679095"><ele>81.25</ele><time>2026-05-03T08:45:05.674Z</time></trkpt><trkpt lat="39.7820333" lon="8.67915"><ele>81.5</ele><time>2026-05-03T08:45:06.673Z</time></trkpt><trkpt lat="39.78217" lon="8.679185"><ele>81.75</ele><time>2026-05-03T08:45:07.674Z</time></trkpt><trkpt lat="39.782295" lon="8.679205"><ele>82.0</ele><time>2026-05-03T08:45:08.673Z</time></trkpt><trkpt lat="39.7824267" lon="8.6792283"><ele>82.0</ele><time>2026-05-03T08:45:09.673Z</time></trkpt><trkpt lat="39.7825517" lon="8.6792417"><ele>82.0</ele><time>2026-05-03T08:45:10.673Z</time></trkpt><trkpt lat="39.7826683" lon="8.6792433"><ele>82.0</ele><time>2026-05-03T08:45:11.673Z</time></trkpt><trkpt lat="39.7827617" lon="8.67924"><ele>82.0</ele><time>2026-05-03T08:45:12.673Z</time></trkpt><trkpt lat="39.7828333" lon="8.67925"><ele>82.0</ele><time>2026-05-03T08:45:13.674Z</time></trkpt><trkpt lat="39.7829083" lon="8.679275"><ele>82.33333333333333</ele><time>2026-05-03T08:45:14.674Z</time></trkpt><trkpt lat="39.7829583" lon="8.67933"><ele>82.66666666666666</ele><time>2026-05-03T08:45:15.673Z</time></trkpt><trkpt lat="39.78299" lon="8.67941"><ele>83.0</ele><time>2026-05-03T08:45:16.673Z</time></trkpt><trkpt lat="39.7830033" lon="8.679495"><ele>83.33333333333333</ele><time>2026-05-03T08:45:17.674Z</time></trkpt><trkpt lat="39.7830083" lon="8.6796083"><ele>83.66666666666667</ele><time>2026-05-03T08:45:18.673Z</time></trkpt><trkpt lat="39.7830117" lon="8.6797383"><ele>84.0</ele><time>2026-05-03T08:45:19.673Z</time></trkpt><trkpt lat="39.78303" lon="8.6798767"><ele>84.75</ele><time>2026-05-03T08:45:20.673Z</time></trkpt><trkpt lat="39.7830683" lon="8.680015"><ele>85.5</ele><time>2026-05-03T08:45:21.674Z</time></trkpt><trkpt lat="39.7831083" lon="8.680155"><ele>86.25</ele><time>2026-05-03T08:45:22.674Z</time></trkpt><trkpt lat="39.7831517" lon="8.68031"><ele>87.0</ele><time>2026-05-03T08:45:23.673Z</time></trkpt><trkpt lat="39.7832067" lon="8.6804683"><ele>88.0</ele><time>2026-05-03T08:45:24.673Z</time></trkpt><trkpt lat="39.7832567" lon="8.680625"><ele>89.0</ele><time>2026-05-03T08:45:25.673Z</time></trkpt><trkpt lat="39.7833" lon="8.68079"><ele>90.0</ele><time>2026-05-03T08:45:26.673Z</time></trkpt><trkpt lat="39.783335" lon="8.68097"><ele>91.0</ele><time>2026-05-03T08:45:27.674Z</time></trkpt><trkpt lat="39.7833783" lon="8.68116"><ele>91.66666666666666</ele><time>2026-05-03T08:45:28.673Z</time></trkpt><trkpt lat="39.7834217" lon="8.6813517"><ele>92.33333333333333</ele><time>2026-05-03T08:45:29.673Z</time></trkpt><trkpt lat="39.783465" lon="8.6815417"><ele>93.0</ele><time>2026-05-03T08:45:30.674Z</time></trkpt><trkpt lat="39.7835" lon="8.6817333"><ele>93.75</ele><time>2026-05-03T08:45:31.673Z</time></trkpt><trkpt lat="39.7835283" lon="8.6819033"><ele>94.5</ele><time>2026-05-03T08:45:32.673Z</time></trkpt><trkpt lat="39.783565" lon="8.6820583"><ele>95.25</ele><time>2026-05-03T08:45:33.673Z</time></trkpt><trkpt lat="39.7836083" lon="8.682225"><ele>96.0</ele><time>2026-05-03T08:45:34.673Z</time></trkpt><trkpt lat="39.7836567" lon="8.6824017"><ele>97.0</ele><time>2026-05-03T08:45:35.674Z</time></trkpt><trkpt lat="39.7837083" lon="8.6825783"><ele>98.0</ele><time>2026-05-03T08:45:36.673Z</time></trkpt><trkpt lat="39.7837583" lon="8.682745"><ele>99.0</ele><time>2026-05-03T08:45:37.674Z</time></trkpt><trkpt lat="39.7838033" lon="8.6828917"><ele>100.0</ele><time>2026-05-03T08:45:38.673Z</time></trkpt><trkpt lat="39.78385" lon="8.68305"><ele>100.5</ele><time>2026-05-03T08:45:39.673Z</time></trkpt><trkpt lat="39.783895" lon="8.683215"><ele>101.0</ele><time>2026-05-03T08:45:40.674Z</time></trkpt><trkpt lat="39.7839367" lon="8.6833733"><ele>101.5</ele><time>2026-05-03T08:45:41.674Z</time></trkpt><trkpt lat="39.7839833" lon="8.6835333"><ele>102.0</ele><time>2026-05-03T08:45:42.673Z</time></trkpt><trkpt lat="39.7840267" lon="8.6836967"><ele>103.0</ele><time>2026-05-03T08:45:43.674Z</time></trkpt><trkpt lat="39.78407" lon="8.6838583"><ele>104.0</ele><time>2026-05-03T08:45:44.673Z</time></trkpt><trkpt lat="39.7841067" lon="8.6840183"><ele>105.0</ele><time>2026-05-03T08:45:45.673Z</time></trkpt><trkpt lat="39.78414" lon="8.6841633"><ele>106.0</ele><time>2026-05-03T08:45:46.674Z</time></trkpt><trkpt lat="39.7841717" lon="8.6842983"><ele>106.00000000000001</ele><time>2026-05-03T08:45:47.674Z</time></trkpt><trkpt lat="39.7842" lon="8.6844183"><ele>106.0</ele><time>2026-05-03T08:45:48.673Z</time></trkpt><trkpt lat="39.7842317" lon="8.6845283"><ele>106.0</ele><time>2026-05-03T08:45:49.674Z</time></trkpt><trkpt lat="39.78426" lon="8.6846233"><ele>106.0</ele><time>2026-05-03T08:45:50.673Z</time></trkpt><trkpt lat="39.7842783" lon="8.6847117"><ele>106.00000000000001</ele><time>2026-05-03T08:45:51.674Z</time></trkpt><trkpt lat="39.7843067" lon="8.6848417"><ele>106.0</ele><time>2026-05-03T08:45:53.674Z</time></trkpt><trkpt lat="39.784335" lon="8.6849617"><ele>108.25</ele><time>2026-05-03T08:45:55.673Z</time></trkpt><trkpt lat="39.78438" lon="8.6851067"><ele>110.5</ele><time>2026-05-03T08:45:57.674Z</time></trkpt><trkpt lat="39.78442" lon="8.6852517"><ele>112.75</ele><time>2026-05-03T08:45:59.674Z</time></trkpt><trkpt lat="39.7845" lon="8.6854083"><ele>115.0</ele><time>2026-05-03T08:46:01.674Z</time></trkpt><trkpt lat="39.7845533" lon="8.6854967"><ele>115.50000000000001</ele><time>2026-05-03T08:46:02.673Z</time></trkpt><trkpt lat="39.7846017" lon="8.68559"><ele>116.0</ele><time>2026-05-03T08:46:03.673Z</time></trkpt><trkpt lat="39.7846567" lon="8.6856817"><ele>116.5</ele><time>2026-05-03T08:46:04.674Z</time></trkpt><trkpt lat="39.78471" lon="8.6857783"><ele>117.0</ele><time>2026-05-03T08:46:05.674Z</time></trkpt><trkpt lat="39.7847583" lon="8.685875"><ele>117.50000000000001</ele><time>2026-05-03T08:46:06.673Z</time></trkpt><trkpt lat="39.7848117" lon="8.68596"><ele>118.0</ele><time>2026-05-03T08:46:07.674Z</time></trkpt><trkpt lat="39.7848567" lon="8.6860633"><ele>118.2</ele><time>2026-05-03T08:46:08.673Z</time></trkpt><trkpt lat="39.7848883" lon="8.6861667"><ele>118.4</ele><time>2026-05-03T08:46:09.673Z</time></trkpt><trkpt lat="39.78492" lon="8.6862533"><ele>118.60000000000001</ele><time>2026-05-03T08:46:10.674Z</time></trkpt><trkpt lat="39.7849583" lon="8.6863317"><ele>118.80000000000001</ele><time>2026-05-03T08:46:11.673Z</time></trkpt><trkpt lat="39.7850317" lon="8.6864533"><ele>119.0</ele><time>2026-05-03T08:46:13.674Z</time></trkpt><trkpt lat="39.785095" lon="8.6865967"><ele>118.99999999999999</ele><time>2026-05-03T08:46:15.674Z</time></trkpt><trkpt lat="39.7851467" lon="8.686715"><ele>119.0</ele><time>2026-05-03T08:46:17.674Z</time></trkpt><trkpt lat="39.78521" lon="8.686845"><ele>119.0</ele><time>2026-05-03T08:46:19.674Z</time></trkpt><trkpt lat="39.7852517" lon="8.686925"><ele>119.0</ele><time>2026-05-03T08:46:20.673Z</time></trkpt><trkpt lat="39.7852967" lon="8.6869917"><ele>118.99999999999999</ele><time>2026-05-03T08:46:21.673Z</time></trkpt><trkpt lat="39.7853317" lon="8.6870667"><ele>119.0</ele><time>2026-05-03T08:46:22.674Z</time></trkpt><trkpt lat="39.785395" lon="8.6871967"><ele>120.6</ele><time>2026-05-03T08:46:24.674Z</time></trkpt><trkpt lat="39.7854583" lon="8.687315"><ele>122.2</ele><time>2026-05-03T08:46:26.673Z</time></trkpt><trkpt lat="39.7855233" lon="8.68743"><ele>123.79999999999998</ele><time>2026-05-03T08:46:28.673Z</time></trkpt><trkpt lat="39.7855733" lon="8.6875367"><ele>125.39999999999999</ele><time>2026-05-03T08:46:30.674Z</time></trkpt><trkpt lat="39.78562" lon="8.6876167"><ele>127.0</ele><time>2026-05-03T08:46:32.673Z</time></trkpt><trkpt lat="39.7856617" lon="8.6877017"><ele>127.16666666666667</ele><time>2026-05-03T08:46:34.673Z</time></trkpt><trkpt lat="39.785705" lon="8.6877783"><ele>127.33333333333334</ele><time>2026-05-03T08:46:36.674Z</time></trkpt><trkpt lat="39.7857467" lon="8.68786"><ele>127.5</ele><time>2026-05-03T08:46:38.673Z</time></trkpt><trkpt lat="39.7857817" lon="8.6879533"><ele>127.66666666666666</ele><time>2026-05-03T08:46:41.674Z</time></trkpt><trkpt lat="39.7857333" lon="8.68807"><ele>127.83333333333333</ele><time>2026-05-03T08:46:44.673Z</time></trkpt><trkpt lat="39.7857033" lon="8.688155"><ele>128.0</ele><time>2026-05-03T08:46:46.673Z</time></trkpt><trkpt lat="39.78572" lon="8.6882633"><ele>128.0</ele><time>2026-05-03T08:46:48.673Z</time></trkpt><trkpt lat="39.7857717" lon="8.688365"><ele>128.0</ele><time>2026-05-03T08:46:50.674Z</time></trkpt><trkpt lat="39.7858433" lon="8.6884683"><ele>128.0</ele><time>2026-05-03T08:46:52.673Z</time></trkpt><trkpt lat="39.785915" lon="8.688575"><ele>128.0</ele><time>2026-05-03T08:46:54.674Z</time></trkpt><trkpt lat="39.7859933" lon="8.688685"><ele>128.0</ele><time>2026-05-03T08:46:56.673Z</time></trkpt><trkpt lat="39.7860767" lon="8.6887533"><ele>127.80000000000001</ele><time>2026-05-03T08:46:58.674Z</time></trkpt><trkpt lat="39.78619" lon="8.688805"><ele>127.60000000000001</ele><time>2026-05-03T08:47:00.673Z</time></trkpt><trkpt lat="39.78631" lon="8.68886"><ele>127.39999999999999</ele><time>2026-05-03T08:47:02.673Z</time></trkpt><trkpt lat="39.7863767" lon="8.6888933"><ele>127.19999999999999</ele><time>2026-05-03T08:47:03.673Z</time></trkpt><trkpt lat="39.7864483" lon="8.68893"><ele>127.0</ele><time>2026-05-03T08:47:04.673Z</time></trkpt><trkpt lat="39.7865217" lon="8.688955"><ele>127.00000000000001</ele><time>2026-05-03T08:47:05.673Z</time></trkpt><trkpt lat="39.7865967" lon="8.688965"><ele>127.0</ele><time>2026-05-03T08:47:06.673Z</time></trkpt><trkpt lat="39.7866717" lon="8.688945"><ele>127.0</ele><time>2026-05-03T08:47:07.674Z</time></trkpt><trkpt lat="39.7867433" lon="8.6889033"><ele>127.0</ele><time>2026-05-03T08:47:08.673Z</time></trkpt><trkpt lat="39.7868117" lon="8.6888467"><ele>127.00000000000001</ele><time>2026-05-03T08:47:09.673Z</time></trkpt><trkpt lat="39.7868817" lon="8.688795"><ele>127.0</ele><time>2026-05-03T08:47:10.673Z</time></trkpt><trkpt lat="39.7869517" lon="8.688765"><ele>126.50000000000001</ele><time>2026-05-03T08:47:11.673Z</time></trkpt><trkpt lat="39.7870217" lon="8.688735"><ele>126.0</ele><time>2026-05-03T08:47:12.673Z</time></trkpt><trkpt lat="39.787085" lon="8.68871"><ele>125.5</ele><time>2026-05-03T08:47:13.673Z</time></trkpt><trkpt lat="39.7872" lon="8.6886717"><ele>125.0</ele><time>2026-05-03T08:47:15.673Z</time></trkpt><trkpt lat="39.7872683" lon="8.6886583"><ele>124.50000000000001</ele><time>2026-05-03T08:47:16.673Z</time></trkpt><trkpt lat="39.7873433" lon="8.6886417"><ele>124.0</ele><time>2026-05-03T08:47:17.674Z</time></trkpt><trkpt lat="39.7874283" lon="8.6886217"><ele>123.25</ele><time>2026-05-03T08:47:18.673Z</time></trkpt><trkpt lat="39.7875283" lon="8.68859"><ele>122.5</ele><time>2026-05-03T08:47:19.673Z</time></trkpt><trkpt lat="39.7876433" lon="8.6885733"><ele>121.75</ele><time>2026-05-03T08:47:20.673Z</time></trkpt><trkpt lat="39.78777" lon="8.6885633"><ele>121.0</ele><time>2026-05-03T08:47:21.673Z</time></trkpt><trkpt lat="39.7878983" lon="8.6885633"><ele>119.75</ele><time>2026-05-03T08:47:22.673Z</time></trkpt><trkpt lat="39.7880317" lon="8.68856"><ele>118.5</ele><time>2026-05-03T08:47:23.674Z</time></trkpt><trkpt lat="39.7881683" lon="8.6885533"><ele>117.25</ele><time>2026-05-03T08:47:24.673Z</time></trkpt><trkpt lat="39.788315" lon="8.6885433"><ele>116.0</ele><time>2026-05-03T08:47:25.673Z</time></trkpt><trkpt lat="39.7884617" lon="8.6885333"><ele>114.5</ele><time>2026-05-03T08:47:26.674Z</time></trkpt><trkpt lat="39.788605" lon="8.6885217"><ele>113.0</ele><time>2026-05-03T08:47:27.674Z</time></trkpt><trkpt lat="39.7887467" lon="8.6885217"><ele>111.5</ele><time>2026-05-03T08:47:28.674Z</time></trkpt><trkpt lat="39.7888667" lon="8.6885167"><ele>110.0</ele><time>2026-05-03T08:47:29.673Z</time></trkpt><trkpt lat="39.788985" lon="8.6885"><ele>110.0</ele><time>2026-05-03T08:47:30.673Z</time></trkpt><trkpt lat="39.789105" lon="8.688485"><ele>110.0</ele><time>2026-05-03T08:47:31.673Z</time></trkpt><trkpt lat="39.78923" lon="8.6884767"><ele>110.0</ele><time>2026-05-03T08:47:32.673Z</time></trkpt><trkpt lat="39.78936" lon="8.68847"><ele>110.0</ele><time>2026-05-03T08:47:33.673Z</time></trkpt><trkpt lat="39.7895017" lon="8.6884617"><ele>109.25</ele><time>2026-05-03T08:47:34.673Z</time></trkpt><trkpt lat="39.7896383" lon="8.6884583"><ele>108.5</ele><time>2026-05-03T08:47:35.673Z</time></trkpt><trkpt lat="39.7897683" lon="8.68845"><ele>107.75</ele><time>2026-05-03T08:47:36.673Z</time></trkpt><trkpt lat="39.7898983" lon="8.6884417"><ele>107.0</ele><time>2026-05-03T08:47:37.673Z</time></trkpt><trkpt lat="39.7900183" lon="8.6884283"><ele>107.0</ele><time>2026-05-03T08:47:38.674Z</time></trkpt><trkpt lat="39.7901267" lon="8.6884117"><ele>106.99999999999999</ele><time>2026-05-03T08:47:39.673Z</time></trkpt><trkpt lat="39.7902367" lon="8.6884033"><ele>106.99999999999999</ele><time>2026-05-03T08:47:40.674Z</time></trkpt><trkpt lat="39.7903467" lon="8.688395"><ele>107.0</ele><time>2026-05-03T08:47:41.673Z</time></trkpt><trkpt lat="39.7904483" lon="8.6883783"><ele>107.0</ele><time>2026-05-03T08:47:42.674Z</time></trkpt><trkpt lat="39.79053" lon="8.688365"><ele>106.16666666666666</ele><time>2026-05-03T08:47:43.673Z</time></trkpt><trkpt lat="39.790595" lon="8.6883367"><ele>105.33333333333333</ele><time>2026-05-03T08:47:44.673Z</time></trkpt><trkpt lat="39.7906483" lon="8.6882883"><ele>104.5</ele><time>2026-05-03T08:47:45.673Z</time></trkpt><trkpt lat="39.79073" lon="8.6881983"><ele>103.66666666666666</ele><time>2026-05-03T08:47:47.673Z</time></trkpt><trkpt lat="39.79084" lon="8.688135"><ele>102.83333333333333</ele><time>2026-05-03T08:47:49.673Z</time></trkpt><trkpt lat="39.79091" lon="8.688105"><ele>102.0</ele><time>2026-05-03T08:47:50.673Z</time></trkpt><trkpt lat="39.790975" lon="8.6880833"><ele>100.83333333333333</ele><time>2026-05-03T08:47:51.673Z</time></trkpt><trkpt lat="39.7910533" lon="8.68807"><ele>99.66666666666667</ele><time>2026-05-03T08:47:52.673Z</time></trkpt><trkpt lat="39.7911383" lon="8.688055"><ele>98.5</ele><time>2026-05-03T08:47:53.673Z</time></trkpt><trkpt lat="39.7912217" lon="8.6880433"><ele>97.33333333333334</ele><time>2026-05-03T08:47:54.674Z</time></trkpt><trkpt lat="39.7913183" lon="8.688035"><ele>96.16666666666667</ele><time>2026-05-03T08:47:55.673Z</time></trkpt><trkpt lat="39.7914133" lon="8.68802"><ele>95.0</ele><time>2026-05-03T08:47:56.674Z</time></trkpt><trkpt lat="39.79151" lon="8.6880033"><ele>95.0</ele><time>2026-05-03T08:47:57.674Z</time></trkpt><trkpt lat="39.79161" lon="8.687995"><ele>95.0</ele><time>2026-05-03T08:47:58.673Z</time></trkpt><trkpt lat="39.791705" lon="8.6879933"><ele>95.0</ele><time>2026-05-03T08:47:59.674Z</time></trkpt><trkpt lat="39.7917967" lon="8.688005"><ele>95.0</ele><time>2026-05-03T08:48:00.673Z</time></trkpt><trkpt lat="39.791885" lon="8.6880267"><ele>95.0</ele><time>2026-05-03T08:48:01.674Z</time></trkpt><trkpt lat="39.7919667" lon="8.688045"><ele>94.16666666666667</ele><time>2026-05-03T08:48:02.673Z</time></trkpt><trkpt lat="39.792035" lon="8.688085"><ele>93.33333333333334</ele><time>2026-05-03T08:48:03.673Z</time></trkpt><trkpt lat="39.7920983" lon="8.6881333"><ele>92.5</ele><time>2026-05-03T08:48:04.673Z</time></trkpt><trkpt lat="39.7921933" lon="8.6882067"><ele>91.66666666666667</ele><time>2026-05-03T08:48:06.674Z</time></trkpt><trkpt lat="39.7922683" lon="8.6881967"><ele>90.83333333333333</ele><time>2026-05-03T08:48:07.673Z</time></trkpt><trkpt lat="39.792355" lon="8.6881817"><ele>90.0</ele><time>2026-05-03T08:48:08.673Z</time></trkpt><trkpt lat="39.7924567" lon="8.6881783"><ele>90.0</ele><time>2026-05-03T08:48:09.673Z</time></trkpt><trkpt lat="39.7925633" lon="8.6881933"><ele>90.0</ele><time>2026-05-03T08:48:10.673Z</time></trkpt><trkpt lat="39.7926733" lon="8.688225"><ele>90.0</ele><time>2026-05-03T08:48:11.673Z</time></trkpt><trkpt lat="39.79279" lon="8.6882617"><ele>90.0</ele><time>2026-05-03T08:48:12.673Z</time></trkpt><trkpt lat="39.7928933" lon="8.6882933"><ele>90.0</ele><time>2026-05-03T08:48:13.673Z</time></trkpt><trkpt lat="39.7930133" lon="8.688325"><ele>89.5</ele><time>2026-05-03T08:48:14.674Z</time></trkpt><trkpt lat="39.7931367" lon="8.68836"><ele>89.0</ele><time>2026-05-03T08:48:15.673Z</time></trkpt><trkpt lat="39.79326" lon="8.6883917"><ele>88.5</ele><time>2026-05-03T08:48:16.673Z</time></trkpt><trkpt lat="39.7933667" lon="8.688415"><ele>88.0</ele><time>2026-05-03T08:48:17.673Z</time></trkpt><trkpt lat="39.7934783" lon="8.68844"><ele>88.0</ele><time>2026-05-03T08:48:18.673Z</time></trkpt><trkpt lat="39.7935967" lon="8.688465"><ele>88.0</ele><time>2026-05-03T08:48:19.673Z</time></trkpt><trkpt lat="39.79372" lon="8.6884833"><ele>88.0</ele><time>2026-05-03T08:48:20.674Z</time></trkpt><trkpt lat="39.7938433" lon="8.6884933"><ele>88.0</ele><time>2026-05-03T08:48:21.673Z</time></trkpt><trkpt lat="39.7939633" lon="8.6885033"><ele>88.0</ele><time>2026-05-03T08:48:22.673Z</time></trkpt><trkpt lat="39.794075" lon="8.6885267"><ele>88.0</ele><time>2026-05-03T08:48:23.673Z</time></trkpt><trkpt lat="39.7941983" lon="8.688565"><ele>88.0</ele><time>2026-05-03T08:48:24.673Z</time></trkpt><trkpt lat="39.7943217" lon="8.68862"><ele>88.0</ele><time>2026-05-03T08:48:25.674Z</time></trkpt><trkpt lat="39.7944483" lon="8.6886767"><ele>88.66666666666666</ele><time>2026-05-03T08:48:26.673Z</time></trkpt><trkpt lat="39.79458" lon="8.6887367"><ele>89.33333333333333</ele><time>2026-05-03T08:48:27.674Z</time></trkpt><trkpt lat="39.7947283" lon="8.6887983"><ele>90.0</ele><time>2026-05-03T08:48:28.673Z</time></trkpt><trkpt lat="39.794885" lon="8.6888583"><ele>90.0</ele><time>2026-05-03T08:48:29.674Z</time></trkpt><trkpt lat="39.7950433" lon="8.6889067"><ele>90.0</ele><time>2026-05-03T08:48:30.674Z</time></trkpt><trkpt lat="39.795205" lon="8.6889417"><ele>90.0</ele><time>2026-05-03T08:48:31.673Z</time></trkpt><trkpt lat="39.79538" lon="8.688975"><ele>90.66666666666667</ele><time>2026-05-03T08:48:32.673Z</time></trkpt><trkpt lat="39.7955567" lon="8.68901"><ele>91.33333333333334</ele><time>2026-05-03T08:48:33.674Z</time></trkpt><trkpt lat="39.7957283" lon="8.68905"><ele>92.0</ele><time>2026-05-03T08:48:34.673Z</time></trkpt><trkpt lat="39.7958767" lon="8.689095"><ele>92.0</ele><time>2026-05-03T08:48:35.674Z</time></trkpt><trkpt lat="39.7959917" lon="8.6891517"><ele>92.0</ele><time>2026-05-03T08:48:36.673Z</time></trkpt><trkpt lat="39.79607" lon="8.6892133"><ele>92.0</ele><time>2026-05-03T08:48:37.673Z</time></trkpt><trkpt lat="39.796135" lon="8.6892733"><ele>92.0</ele><time>2026-05-03T08:48:38.673Z</time></trkpt><trkpt lat="39.7962017" lon="8.6893183"><ele>92.0</ele><time>2026-05-03T08:48:39.673Z</time></trkpt><trkpt lat="39.7962683" lon="8.6893383"><ele>92.0</ele><time>2026-05-03T08:48:40.673Z</time></trkpt><trkpt lat="39.7963483" lon="8.689335"><ele>92.19999999999999</ele><time>2026-05-03T08:48:41.673Z</time></trkpt><trkpt lat="39.7964283" lon="8.689315"><ele>92.4</ele><time>2026-05-03T08:48:42.673Z</time></trkpt><trkpt lat="39.796515" lon="8.6893083"><ele>92.6</ele><time>2026-05-03T08:48:43.673Z</time></trkpt><trkpt lat="39.796595" lon="8.6893217"><ele>92.80000000000001</ele><time>2026-05-03T08:48:44.673Z</time></trkpt><trkpt lat="39.7966967" lon="8.689345"><ele>93.0</ele><time>2026-05-03T08:48:45.673Z</time></trkpt><trkpt lat="39.7968067" lon="8.6893833"><ele>93.0</ele><time>2026-05-03T08:48:46.673Z</time></trkpt><trkpt lat="39.79693" lon="8.6894183"><ele>93.0</ele><time>2026-05-03T08:48:47.674Z</time></trkpt><trkpt lat="39.7970483" lon="8.6894567"><ele>93.0</ele><time>2026-05-03T08:48:48.673Z</time></trkpt><trkpt lat="39.7971483" lon="8.68949"><ele>93.0</ele><time>2026-05-03T08:48:49.674Z</time></trkpt><trkpt lat="39.797225" lon="8.6895067"><ele>93.0</ele><time>2026-05-03T08:48:50.673Z</time></trkpt><trkpt lat="39.79733" lon="8.689595"><ele>93.80000000000001</ele><time>2026-05-03T08:48:52.673Z</time></trkpt><trkpt lat="39.7973667" lon="8.6896767"><ele>94.6</ele><time>2026-05-03T08:48:53.673Z</time></trkpt><trkpt lat="39.7974033" lon="8.689795"><ele>95.4</ele><time>2026-05-03T08:48:54.673Z</time></trkpt><trkpt lat="39.7974467" lon="8.6899533"><ele>96.19999999999999</ele><time>2026-05-03T08:48:55.673Z</time></trkpt><trkpt lat="39.7975083" lon="8.6901267"><ele>97.0</ele><time>2026-05-03T08:48:56.673Z</time></trkpt><trkpt lat="39.79758" lon="8.6902817"><ele>98.0</ele><time>2026-05-03T08:48:57.673Z</time></trkpt><trkpt lat="39.7976517" lon="8.6904317"><ele>99.0</ele><time>2026-05-03T08:48:58.674Z</time></trkpt><trkpt lat="39.7977167" lon="8.69058"><ele>100.0</ele><time>2026-05-03T08:48:59.674Z</time></trkpt><trkpt lat="39.7977817" lon="8.690725"><ele>101.0</ele><time>2026-05-03T08:49:00.673Z</time></trkpt><trkpt lat="39.7978533" lon="8.6908733"><ele>101.0</ele><time>2026-05-03T08:49:01.673Z</time></trkpt><trkpt lat="39.7979267" lon="8.69102"><ele>101.0</ele><time>2026-05-03T08:49:02.674Z</time></trkpt><trkpt lat="39.798" lon="8.6911667"><ele>101.0</ele><time>2026-05-03T08:49:03.673Z</time></trkpt><trkpt lat="39.7980683" lon="8.691305"><ele>101.0</ele><time>2026-05-03T08:49:04.674Z</time></trkpt><trkpt lat="39.7981367" lon="8.6914383"><ele>101.5</ele><time>2026-05-03T08:49:05.674Z</time></trkpt><trkpt lat="39.79823" lon="8.6915417"><ele>102.0</ele><time>2026-05-03T08:49:06.673Z</time></trkpt><trkpt lat="39.7983433" lon="8.691625"><ele>102.5</ele><time>2026-05-03T08:49:07.674Z</time></trkpt><trkpt lat="39.7984817" lon="8.6916817"><ele>103.0</ele><time>2026-05-03T08:49:08.673Z</time></trkpt><trkpt lat="39.7986283" lon="8.6917517"><ele>103.75</ele><time>2026-05-03T08:49:09.674Z</time></trkpt><trkpt lat="39.7987583" lon="8.691835"><ele>104.5</ele><time>2026-05-03T08:49:10.674Z</time></trkpt><trkpt lat="39.7988567" lon="8.6919417"><ele>105.25</ele><time>2026-05-03T08:49:11.673Z</time></trkpt><trkpt lat="39.7989383" lon="8.6920617"><ele>106.0</ele><time>2026-05-03T08:49:12.673Z</time></trkpt><trkpt lat="39.7990133" lon="8.6921917"><ele>106.8</ele><time>2026-05-03T08:49:13.673Z</time></trkpt><trkpt lat="39.79908" lon="8.692305"><ele>107.6</ele><time>2026-05-03T08:49:14.673Z</time></trkpt><trkpt lat="39.7991533" lon="8.6924267"><ele>108.4</ele><time>2026-05-03T08:49:15.674Z</time></trkpt><trkpt lat="39.799215" lon="8.6925317"><ele>109.2</ele><time>2026-05-03T08:49:16.673Z</time></trkpt><trkpt lat="39.7992967" lon="8.6926117"><ele>110.0</ele><time>2026-05-03T08:49:17.674Z</time></trkpt><trkpt lat="39.799385" lon="8.6926733"><ele>110.75</ele><time>2026-05-03T08:49:18.674Z</time></trkpt><trkpt lat="39.799475" lon="8.6926967"><ele>111.5</ele><time>2026-05-03T08:49:19.673Z</time></trkpt><trkpt lat="39.7995983" lon="8.6927533"><ele>112.25</ele><time>2026-05-03T08:49:20.674Z</time></trkpt><trkpt lat="39.7997367" lon="8.69281"><ele>113.0</ele><time>2026-05-03T08:49:21.674Z</time></trkpt><trkpt lat="39.7998783" lon="8.69288"><ele>115.0</ele><time>2026-05-03T08:49:22.674Z</time></trkpt><trkpt lat="39.800035" lon="8.69295"><ele>117.0</ele><time>2026-05-03T08:49:23.673Z</time></trkpt><trkpt lat="39.8001867" lon="8.6929983"><ele>119.0</ele><time>2026-05-03T08:49:24.674Z</time></trkpt><trkpt lat="39.8003383" lon="8.693065"><ele>120.0</ele><time>2026-05-03T08:49:25.673Z</time></trkpt><trkpt lat="39.8004883" lon="8.6931367"><ele>121.0</ele><time>2026-05-03T08:49:26.673Z</time></trkpt><trkpt lat="39.8006333" lon="8.6932067"><ele>122.0</ele><time>2026-05-03T08:49:27.673Z</time></trkpt><trkpt lat="39.80078" lon="8.6933133"><ele>122.0</ele><time>2026-05-03T08:49:28.673Z</time></trkpt><trkpt lat="39.8008967" lon="8.693395"><ele>122.0</ele><time>2026-05-03T08:49:29.674Z</time></trkpt><trkpt lat="39.8010183" lon="8.6934917"><ele>122.0</ele><time>2026-05-03T08:49:30.674Z</time></trkpt><trkpt lat="39.8011283" lon="8.6935983"><ele>122.0</ele><time>2026-05-03T08:49:31.674Z</time></trkpt><trkpt lat="39.80124" lon="8.693725"><ele>123.75</ele><time>2026-05-03T08:49:32.673Z</time></trkpt><trkpt lat="39.8013417" lon="8.6938467"><ele>125.5</ele><time>2026-05-03T08:49:33.673Z</time></trkpt><trkpt lat="39.801445" lon="8.6939467"><ele>127.25</ele><time>2026-05-03T08:49:34.673Z</time></trkpt><trkpt lat="39.8015483" lon="8.6940233"><ele>129.0</ele><time>2026-05-03T08:49:35.674Z</time></trkpt><trkpt lat="39.80165" lon="8.6940517"><ele>129.0</ele><time>2026-05-03T08:49:36.673Z</time></trkpt><trkpt lat="39.8017567" lon="8.6940467"><ele>129.0</ele><time>2026-05-03T08:49:37.674Z</time></trkpt><trkpt lat="39.8018733" lon="8.69404"><ele>129.0</ele><time>2026-05-03T08:49:38.673Z</time></trkpt><trkpt lat="39.8020083" lon="8.6940383"><ele>129.0</ele><time>2026-05-03T08:49:39.674Z</time></trkpt><trkpt lat="39.8021583" lon="8.6940517"><ele>129.0</ele><time>2026-05-03T08:49:40.674Z</time></trkpt><trkpt lat="39.8023167" lon="8.6940867"><ele>129.0</ele><time>2026-05-03T08:49:41.673Z</time></trkpt><trkpt lat="39.8024517" lon="8.6941217"><ele>129.0</ele><time>2026-05-03T08:49:42.673Z</time></trkpt><trkpt lat="39.8025767" lon="8.69417"><ele>129.0</ele><time>2026-05-03T08:49:43.673Z</time></trkpt><trkpt lat="39.8026933" lon="8.694205"><ele>129.2</ele><time>2026-05-03T08:49:44.673Z</time></trkpt><trkpt lat="39.8027983" lon="8.6942367"><ele>129.4</ele><time>2026-05-03T08:49:45.673Z</time></trkpt><trkpt lat="39.8028867" lon="8.6942583"><ele>129.6</ele><time>2026-05-03T08:49:46.674Z</time></trkpt><trkpt lat="39.8029533" lon="8.6942533"><ele>129.8</ele><time>2026-05-03T08:49:47.673Z</time></trkpt><trkpt lat="39.803055" lon="8.6941783"><ele>130.0</ele><time>2026-05-03T08:49:49.674Z</time></trkpt><trkpt lat="39.803175" lon="8.694115"><ele>130.0</ele><time>2026-05-03T08:49:51.673Z</time></trkpt><trkpt lat="39.8032517" lon="8.6941067"><ele>130.0</ele><time>2026-05-03T08:49:52.674Z</time></trkpt><trkpt lat="39.8033483" lon="8.6941167"><ele>130.0</ele><time>2026-05-03T08:49:53.673Z</time></trkpt><trkpt lat="39.80349" lon="8.69414"><ele>130.0</ele><time>2026-05-03T08:49:54.673Z</time></trkpt><trkpt lat="39.80365" lon="8.694175"><ele>130.5</ele><time>2026-05-03T08:49:55.673Z</time></trkpt><trkpt lat="39.8038117" lon="8.6941983"><ele>131.0</ele><time>2026-05-03T08:49:56.673Z</time></trkpt><trkpt lat="39.8039617" lon="8.6942167"><ele>131.5</ele><time>2026-05-03T08:49:57.673Z</time></trkpt><trkpt lat="39.8040817" lon="8.6942283"><ele>132.0</ele><time>2026-05-03T08:49:58.673Z</time></trkpt><trkpt lat="39.8041967" lon="8.6942517"><ele>132.0</ele><time>2026-05-03T08:49:59.672Z</time></trkpt><trkpt lat="39.8042983" lon="8.6942667"><ele>132.0</ele><time>2026-05-03T08:50:00.672Z</time></trkpt><trkpt lat="39.8043967" lon="8.6942833"><ele>132.0</ele><time>2026-05-03T08:50:01.673Z</time></trkpt><trkpt lat="39.804485" lon="8.6943"><ele>132.0</ele><time>2026-05-03T08:50:02.673Z</time></trkpt><trkpt lat="39.8045633" lon="8.6943183"><ele>132.0</ele><time>2026-05-03T08:50:03.673Z</time></trkpt><trkpt lat="39.80463" lon="8.6943217"><ele>132.0</ele><time>2026-05-03T08:50:04.672Z</time></trkpt><trkpt lat="39.8047217" lon="8.694265"><ele>131.5</ele><time>2026-05-03T08:50:06.673Z</time></trkpt><trkpt lat="39.804785" lon="8.6940967"><ele>131.0</ele><time>2026-05-03T08:50:08.673Z</time></trkpt><trkpt lat="39.8048217" lon="8.6939667"><ele>130.5</ele><time>2026-05-03T08:50:09.673Z</time></trkpt><trkpt lat="39.8048717" lon="8.6938067"><ele>130.0</ele><time>2026-05-03T08:50:10.672Z</time></trkpt><trkpt lat="39.8049233" lon="8.69364"><ele>129.0</ele><time>2026-05-03T08:50:11.672Z</time></trkpt><trkpt lat="39.8049867" lon="8.6934633"><ele>128.0</ele><time>2026-05-03T08:50:12.673Z</time></trkpt><trkpt lat="39.805045" lon="8.6932933"><ele>127.0</ele><time>2026-05-03T08:50:13.672Z</time></trkpt><trkpt lat="39.8050933" lon="8.6931133"><ele>126.0</ele><time>2026-05-03T08:50:14.672Z</time></trkpt><trkpt lat="39.805145" lon="8.69293"><ele>123.66666666666666</ele><time>2026-05-03T08:50:15.672Z</time></trkpt><trkpt lat="39.80519" lon="8.6927417"><ele>121.33333333333333</ele><time>2026-05-03T08:50:16.672Z</time></trkpt><trkpt lat="39.8052333" lon="8.6925467"><ele>119.0</ele><time>2026-05-03T08:50:17.672Z</time></trkpt><trkpt lat="39.8052683" lon="8.692355"><ele>119.0</ele><time>2026-05-03T08:50:18.672Z</time></trkpt><trkpt lat="39.805295" lon="8.69215"><ele>119.0</ele><time>2026-05-03T08:50:19.673Z</time></trkpt><trkpt lat="39.8053317" lon="8.69194"><ele>119.0</ele><time>2026-05-03T08:50:20.673Z</time></trkpt><trkpt lat="39.8053833" lon="8.6917233"><ele>118.0</ele><time>2026-05-03T08:50:21.673Z</time></trkpt><trkpt lat="39.8054433" lon="8.691495"><ele>117.0</ele><time>2026-05-03T08:50:22.673Z</time></trkpt><trkpt lat="39.8055083" lon="8.6912583"><ele>116.0</ele><time>2026-05-03T08:50:23.673Z</time></trkpt><trkpt lat="39.8055583" lon="8.6910317"><ele>114.66666666666666</ele><time>2026-05-03T08:50:24.672Z</time></trkpt><trkpt lat="39.8056133" lon="8.6908"><ele>113.33333333333334</ele><time>2026-05-03T08:50:25.672Z</time></trkpt><trkpt lat="39.8056683" lon="8.690545"><ele>112.0</ele><time>2026-05-03T08:50:26.672Z</time></trkpt><trkpt lat="39.8057267" lon="8.6902867"><ele>110.66666666666667</ele><time>2026-05-03T08:50:27.672Z</time></trkpt><trkpt lat="39.8058" lon="8.6900417"><ele>109.33333333333334</ele><time>2026-05-03T08:50:28.673Z</time></trkpt><trkpt lat="39.80586" lon="8.6897967"><ele>108.0</ele><time>2026-05-03T08:50:29.672Z</time></trkpt><trkpt lat="39.8059183" lon="8.6895433"><ele>106.66666666666666</ele><time>2026-05-03T08:50:30.672Z</time></trkpt><trkpt lat="39.8059767" lon="8.6892867"><ele>105.33333333333333</ele><time>2026-05-03T08:50:31.672Z</time></trkpt><trkpt lat="39.806035" lon="8.689025"><ele>104.0</ele><time>2026-05-03T08:50:32.672Z</time></trkpt><trkpt lat="39.8060967" lon="8.68877"><ele>101.33333333333333</ele><time>2026-05-03T08:50:33.672Z</time></trkpt><trkpt lat="39.80615" lon="8.688515"><ele>98.66666666666666</ele><time>2026-05-03T08:50:34.672Z</time></trkpt><trkpt lat="39.8062183" lon="8.688245"><ele>96.0</ele><time>2026-05-03T08:50:35.672Z</time></trkpt><trkpt lat="39.8062767" lon="8.6879733"><ele>94.66666666666667</ele><time>2026-05-03T08:50:36.672Z</time></trkpt><trkpt lat="39.8063283" lon="8.6877167"><ele>93.33333333333334</ele><time>2026-05-03T08:50:37.673Z</time></trkpt><trkpt lat="39.8063867" lon="8.6874533"><ele>92.0</ele><time>2026-05-03T08:50:38.672Z</time></trkpt><trkpt lat="39.8064467" lon="8.6871917"><ele>92.0</ele><time>2026-05-03T08:50:39.672Z</time></trkpt><trkpt lat="39.8065017" lon="8.6869467"><ele>92.0</ele><time>2026-05-03T08:50:40.672Z</time></trkpt><trkpt lat="39.8065617" lon="8.686705"><ele>92.0</ele><time>2026-05-03T08:50:41.673Z</time></trkpt><trkpt lat="39.806625" lon="8.6864717"><ele>91.0</ele><time>2026-05-03T08:50:42.673Z</time></trkpt><trkpt lat="39.8066967" lon="8.6862133"><ele>90.0</ele><time>2026-05-03T08:50:43.673Z</time></trkpt><trkpt lat="39.8067517" lon="8.685955"><ele>89.0</ele><time>2026-05-03T08:50:44.672Z</time></trkpt><trkpt lat="39.806815" lon="8.6857083"><ele>87.66666666666667</ele><time>2026-05-03T08:50:45.672Z</time></trkpt><trkpt lat="39.8068717" lon="8.685465"><ele>86.33333333333333</ele><time>2026-05-03T08:50:46.672Z</time></trkpt><trkpt lat="39.806935" lon="8.6852367"><ele>85.0</ele><time>2026-05-03T08:50:47.672Z</time></trkpt><trkpt lat="39.8069917" lon="8.6850233"><ele>84.25</ele><time>2026-05-03T08:50:48.673Z</time></trkpt><trkpt lat="39.8070383" lon="8.68484"><ele>83.5</ele><time>2026-05-03T08:50:49.672Z</time></trkpt><trkpt lat="39.8070783" lon="8.6846883"><ele>82.75</ele><time>2026-05-03T08:50:50.672Z</time></trkpt><trkpt lat="39.8071233" lon="8.6845517"><ele>82.0</ele><time>2026-05-03T08:50:51.673Z</time></trkpt><trkpt lat="39.807155" lon="8.6844283"><ele>81.25</ele><time>2026-05-03T08:50:52.672Z</time></trkpt><trkpt lat="39.8071917" lon="8.6843"><ele>80.5</ele><time>2026-05-03T08:50:53.672Z</time></trkpt><trkpt lat="39.8072333" lon="8.6841617"><ele>79.75</ele><time>2026-05-03T08:50:54.673Z</time></trkpt><trkpt lat="39.80727" lon="8.6840233"><ele>79.0</ele><time>2026-05-03T08:50:55.672Z</time></trkpt><trkpt lat="39.8073117" lon="8.68387"><ele>79.0</ele><time>2026-05-03T08:50:56.672Z</time></trkpt><trkpt lat="39.807355" lon="8.6837083"><ele>79.0</ele><time>2026-05-03T08:50:57.672Z</time></trkpt><trkpt lat="39.8074067" lon="8.6835383"><ele>79.0</ele><time>2026-05-03T08:50:58.673Z</time></trkpt><trkpt lat="39.8074533" lon="8.6833683"><ele>79.0</ele><time>2026-05-03T08:50:59.672Z</time></trkpt><trkpt lat="39.807505" lon="8.683215"><ele>78.0</ele><time>2026-05-03T08:51:00.672Z</time></trkpt><trkpt lat="39.8075533" lon="8.683065"><ele>77.0</ele><time>2026-05-03T08:51:01.672Z</time></trkpt><trkpt lat="39.80759" lon="8.6829167"><ele>76.0</ele><time>2026-05-03T08:51:02.672Z</time></trkpt><trkpt lat="39.807635" lon="8.6827667"><ele>75.0</ele><time>2026-05-03T08:51:03.673Z</time></trkpt><trkpt lat="39.8076867" lon="8.6826033"><ele>73.75</ele><time>2026-05-03T08:51:04.673Z</time></trkpt><trkpt lat="39.807735" lon="8.6824417"><ele>72.5</ele><time>2026-05-03T08:51:05.672Z</time></trkpt><trkpt lat="39.8077817" lon="8.682285"><ele>71.25</ele><time>2026-05-03T08:51:06.672Z</time></trkpt><trkpt lat="39.8078317" lon="8.6821217"><ele>70.0</ele><time>2026-05-03T08:51:07.672Z</time></trkpt><trkpt lat="39.8078833" lon="8.6819633"><ele>69.75</ele><time>2026-05-03T08:51:08.673Z</time></trkpt><trkpt lat="39.8079367" lon="8.681795"><ele>69.5</ele><time>2026-05-03T08:51:09.673Z</time></trkpt><trkpt lat="39.80799" lon="8.6816267"><ele>69.25</ele><time>2026-05-03T08:51:10.672Z</time></trkpt><trkpt lat="39.8080383" lon="8.681455"><ele>69.0</ele><time>2026-05-03T08:51:11.672Z</time></trkpt><trkpt lat="39.808095" lon="8.68128"><ele>69.0</ele><time>2026-05-03T08:51:12.673Z</time></trkpt><trkpt lat="39.808145" lon="8.6811067"><ele>69.0</ele><time>2026-05-03T08:51:13.672Z</time></trkpt><trkpt lat="39.808195" lon="8.6809367"><ele>69.0</ele><time>2026-05-03T08:51:14.672Z</time></trkpt><trkpt lat="39.808245" lon="8.6807717"><ele>69.0</ele><time>2026-05-03T08:51:15.672Z</time></trkpt><trkpt lat="39.8082917" lon="8.6806017"><ele>68.25</ele><time>2026-05-03T08:51:16.672Z</time></trkpt><trkpt lat="39.8083367" lon="8.6804333"><ele>67.5</ele><time>2026-05-03T08:51:17.672Z</time></trkpt><trkpt lat="39.80839" lon="8.68026"><ele>66.75</ele><time>2026-05-03T08:51:18.672Z</time></trkpt><trkpt lat="39.8084433" lon="8.68009"><ele>66.0</ele><time>2026-05-03T08:51:19.672Z</time></trkpt><trkpt lat="39.8085033" lon="8.6799167"><ele>65.25</ele><time>2026-05-03T08:51:20.672Z</time></trkpt><trkpt lat="39.8085517" lon="8.679735"><ele>64.5</ele><time>2026-05-03T08:51:21.672Z</time></trkpt><trkpt lat="39.8086083" lon="8.6795667"><ele>63.75</ele><time>2026-05-03T08:51:22.672Z</time></trkpt><trkpt lat="39.80866" lon="8.679415"><ele>63.0</ele><time>2026-05-03T08:51:23.673Z</time></trkpt><trkpt lat="39.8087033" lon="8.67927"><ele>62.4</ele><time>2026-05-03T08:51:24.673Z</time></trkpt><trkpt lat="39.808745" lon="8.67913"><ele>61.8</ele><time>2026-05-03T08:51:25.672Z</time></trkpt><trkpt lat="39.8087883" lon="8.6790017"><ele>61.2</ele><time>2026-05-03T08:51:26.672Z</time></trkpt><trkpt lat="39.8088283" lon="8.6788817"><ele>60.6</ele><time>2026-05-03T08:51:27.672Z</time></trkpt><trkpt lat="39.808875" lon="8.67875"><ele>60.0</ele><time>2026-05-03T08:51:28.672Z</time></trkpt><trkpt lat="39.80891" lon="8.6786417"><ele>59.333333333333336</ele><time>2026-05-03T08:51:29.673Z</time></trkpt><trkpt lat="39.8089333" lon="8.6785483"><ele>58.66666666666667</ele><time>2026-05-03T08:51:30.673Z</time></trkpt><trkpt lat="39.8089483" lon="8.6784433"><ele>58.0</ele><time>2026-05-03T08:51:32.672Z</time></trkpt><trkpt lat="39.8089567" lon="8.67832"><ele>57.333333333333336</ele><time>2026-05-03T08:51:36.673Z</time></trkpt><trkpt lat="39.8089617" lon="8.6782217"><ele>56.66666666666667</ele><time>2026-05-03T08:51:37.673Z</time></trkpt><trkpt lat="39.808965" lon="8.67808"><ele>56.0</ele><time>2026-05-03T08:51:38.672Z</time></trkpt><trkpt lat="39.8089667" lon="8.67789"><ele>55.66666666666667</ele><time>2026-05-03T08:51:39.672Z</time></trkpt><trkpt lat="39.8089683" lon="8.67768"><ele>55.33333333333333</ele><time>2026-05-03T08:51:40.672Z</time></trkpt><trkpt lat="39.8089683" lon="8.6774717"><ele>55.0</ele><time>2026-05-03T08:51:41.672Z</time></trkpt><trkpt lat="39.8089633" lon="8.6772733"><ele>55.0</ele><time>2026-05-03T08:51:42.673Z</time></trkpt><trkpt lat="39.80896" lon="8.6770583"><ele>55.0</ele><time>2026-05-03T08:51:43.673Z</time></trkpt><trkpt lat="39.80896" lon="8.6768217"><ele>55.0</ele><time>2026-05-03T08:51:44.673Z</time></trkpt><trkpt lat="39.8089583" lon="8.67659"><ele>54.33333333333333</ele><time>2026-05-03T08:51:45.672Z</time></trkpt><trkpt lat="39.8089583" lon="8.67636"><ele>53.66666666666667</ele><time>2026-05-03T08:51:46.672Z</time></trkpt><trkpt lat="39.8089583" lon="8.67612"><ele>53.0</ele><time>2026-05-03T08:51:47.672Z</time></trkpt><trkpt lat="39.8089567" lon="8.67588"><ele>52.333333333333336</ele><time>2026-05-03T08:51:48.672Z</time></trkpt><trkpt lat="39.8089517" lon="8.67565"><ele>51.66666666666667</ele><time>2026-05-03T08:51:49.672Z</time></trkpt><trkpt lat="39.8089417" lon="8.6754217"><ele>51.0</ele><time>2026-05-03T08:51:50.672Z</time></trkpt><trkpt lat="39.808935" lon="8.6752033"><ele>51.0</ele><time>2026-05-03T08:51:51.673Z</time></trkpt><trkpt lat="39.8089417" lon="8.67499"><ele>51.0</ele><time>2026-05-03T08:51:52.672Z</time></trkpt><trkpt lat="39.808935" lon="8.6747867"><ele>51.0</ele><time>2026-05-03T08:51:53.673Z</time></trkpt><trkpt lat="39.808935" lon="8.6745917"><ele>50.5</ele><time>2026-05-03T08:51:54.672Z</time></trkpt><trkpt lat="39.8089317" lon="8.674395"><ele>50.0</ele><time>2026-05-03T08:51:55.673Z</time></trkpt><trkpt lat="39.8089217" lon="8.6742017"><ele>49.5</ele><time>2026-05-03T08:51:56.673Z</time></trkpt><trkpt lat="39.8089233" lon="8.67401"><ele>49.0</ele><time>2026-05-03T08:51:57.672Z</time></trkpt><trkpt lat="39.8089233" lon="8.67382"><ele>49.0</ele><time>2026-05-03T08:51:58.672Z</time></trkpt><trkpt lat="39.8089233" lon="8.67362"><ele>49.0</ele><time>2026-05-03T08:51:59.672Z</time></trkpt><trkpt lat="39.8089267" lon="8.6734217"><ele>49.0</ele><time>2026-05-03T08:52:00.672Z</time></trkpt><trkpt lat="39.8089267" lon="8.6732283"><ele>48.5</ele><time>2026-05-03T08:52:01.672Z</time></trkpt><trkpt lat="39.80893" lon="8.673035"><ele>48.0</ele><time>2026-05-03T08:52:02.672Z</time></trkpt><trkpt lat="39.8089217" lon="8.67285"><ele>47.5</ele><time>2026-05-03T08:52:03.673Z</time></trkpt><trkpt lat="39.8089183" lon="8.67267"><ele>47.0</ele><time>2026-05-03T08:52:04.672Z</time></trkpt><trkpt lat="39.808925" lon="8.6724833"><ele>46.75</ele><time>2026-05-03T08:52:05.672Z</time></trkpt><trkpt lat="39.80891" lon="8.67231"><ele>46.5</ele><time>2026-05-03T08:52:06.672Z</time></trkpt><trkpt lat="39.8089083" lon="8.6721217"><ele>46.25</ele><time>2026-05-03T08:52:07.672Z</time></trkpt><trkpt lat="39.808895" lon="8.671955"><ele>46.0</ele><time>2026-05-03T08:52:08.672Z</time></trkpt><trkpt lat="39.808895" lon="8.67179"><ele>46.0</ele><time>2026-05-03T08:52:09.672Z</time></trkpt><trkpt lat="39.8089017" lon="8.6715917"><ele>46.0</ele><time>2026-05-03T08:52:10.673Z</time></trkpt><trkpt lat="39.80891" lon="8.671405"><ele>46.0</ele><time>2026-05-03T08:52:11.673Z</time></trkpt><trkpt lat="39.8089083" lon="8.6712167"><ele>46.0</ele><time>2026-05-03T08:52:12.672Z</time></trkpt><trkpt lat="39.8089033" lon="8.6710367"><ele>45.75</ele><time>2026-05-03T08:52:13.673Z</time></trkpt><trkpt lat="39.808905" lon="8.67085"><ele>45.5</ele><time>2026-05-03T08:52:14.672Z</time></trkpt><trkpt lat="39.8089117" lon="8.6706783"><ele>45.25</ele><time>2026-05-03T08:52:15.673Z</time></trkpt><trkpt lat="39.80891" lon="8.670515"><ele>45.0</ele><time>2026-05-03T08:52:16.673Z</time></trkpt><trkpt lat="39.8089183" lon="8.670345"><ele>44.5</ele><time>2026-05-03T08:52:17.672Z</time></trkpt><trkpt lat="39.808915" lon="8.6701667"><ele>44.0</ele><time>2026-05-03T08:52:18.673Z</time></trkpt><trkpt lat="39.8089183" lon="8.6699983"><ele>43.5</ele><time>2026-05-03T08:52:19.672Z</time></trkpt><trkpt lat="39.8089167" lon="8.6698317"><ele>43.0</ele><time>2026-05-03T08:52:20.673Z</time></trkpt><trkpt lat="39.808915" lon="8.6696583"><ele>43.0</ele><time>2026-05-03T08:52:21.673Z</time></trkpt><trkpt lat="39.8089317" lon="8.6695017"><ele>43.0</ele><time>2026-05-03T08:52:22.672Z</time></trkpt><trkpt lat="39.8089717" lon="8.6693417"><ele>43.0</ele><time>2026-05-03T08:52:23.673Z</time></trkpt><trkpt lat="39.8090267" lon="8.6691817"><ele>43.0</ele><time>2026-05-03T08:52:24.672Z</time></trkpt><trkpt lat="39.8090817" lon="8.6690167"><ele>43.0</ele><time>2026-05-03T08:52:25.672Z</time></trkpt><trkpt lat="39.8091533" lon="8.66885"><ele>43.0</ele><time>2026-05-03T08:52:26.672Z</time></trkpt><trkpt lat="39.80924" lon="8.668665"><ele>43.0</ele><time>2026-05-03T08:52:27.672Z</time></trkpt><trkpt lat="39.8093233" lon="8.6684767"><ele>42.0</ele><time>2026-05-03T08:52:28.672Z</time></trkpt><trkpt lat="39.8093933" lon="8.66829"><ele>41.0</ele><time>2026-05-03T08:52:29.672Z</time></trkpt><trkpt lat="39.809465" lon="8.6681117"><ele>40.0</ele><time>2026-05-03T08:52:30.673Z</time></trkpt><trkpt lat="39.8095217" lon="8.66793"><ele>40.25</ele><time>2026-05-03T08:52:31.672Z</time></trkpt><trkpt lat="39.809585" lon="8.667775"><ele>40.5</ele><time>2026-05-03T08:52:32.672Z</time></trkpt><trkpt lat="39.8096433" lon="8.6676267"><ele>40.75</ele><time>2026-05-03T08:52:33.673Z</time></trkpt><trkpt lat="39.8097133" lon="8.6674833"><ele>41.0</ele><time>2026-05-03T08:52:34.673Z</time></trkpt><trkpt lat="39.8097767" lon="8.66733"><ele>41.0</ele><time>2026-05-03T08:52:35.672Z</time></trkpt><trkpt lat="39.80983" lon="8.6671733"><ele>41.0</ele><time>2026-05-03T08:52:36.672Z</time></trkpt><trkpt lat="39.8098683" lon="8.6670217"><ele>41.0</ele><time>2026-05-03T08:52:37.672Z</time></trkpt><trkpt lat="39.8098917" lon="8.666855"><ele>41.0</ele><time>2026-05-03T08:52:38.672Z</time></trkpt><trkpt lat="39.8098917" lon="8.66671"><ele>40.599999999999994</ele><time>2026-05-03T08:52:39.672Z</time></trkpt><trkpt lat="39.809895" lon="8.6665683"><ele>40.199999999999996</ele><time>2026-05-03T08:52:40.673Z</time></trkpt><trkpt lat="39.8098967" lon="8.6664367"><ele>39.8</ele><time>2026-05-03T08:52:41.673Z</time></trkpt><trkpt lat="39.80989" lon="8.6663483"><ele>39.4</ele><time>2026-05-03T08:52:42.672Z</time></trkpt><trkpt lat="39.8098417" lon="8.66623"><ele>39.0</ele><time>2026-05-03T08:52:44.673Z</time></trkpt><trkpt lat="39.809705" lon="8.6662183"><ele>39.0</ele><time>2026-05-03T08:52:46.672Z</time></trkpt><trkpt lat="39.8096033" lon="8.66623"><ele>39.0</ele><time>2026-05-03T08:52:47.673Z</time></trkpt><trkpt lat="39.80948" lon="8.6662367"><ele>39.0</ele><time>2026-05-03T08:52:48.672Z</time></trkpt><trkpt lat="39.8093483" lon="8.6662383"><ele>39.0</ele><time>2026-05-03T08:52:49.672Z</time></trkpt><trkpt lat="39.8091933" lon="8.66624"><ele>39.333333333333336</ele><time>2026-05-03T08:52:50.672Z</time></trkpt><trkpt lat="39.809035" lon="8.6662383"><ele>39.66666666666667</ele><time>2026-05-03T08:52:51.672Z</time></trkpt><trkpt lat="39.8088717" lon="8.6662467"><ele>40.0</ele><time>2026-05-03T08:52:52.673Z</time></trkpt><trkpt lat="39.8087" lon="8.6662467"><ele>40.0</ele><time>2026-05-03T08:52:53.672Z</time></trkpt><trkpt lat="39.8085333" lon="8.6662383"><ele>40.0</ele><time>2026-05-03T08:52:54.672Z</time></trkpt><trkpt lat="39.808365" lon="8.666235"><ele>40.0</ele><time>2026-05-03T08:52:55.673Z</time></trkpt><trkpt lat="39.8082117" lon="8.6662283"><ele>40.0</ele><time>2026-05-03T08:52:56.672Z</time></trkpt><trkpt lat="39.8080633" lon="8.6662233"><ele>40.0</ele><time>2026-05-03T08:52:57.673Z</time></trkpt><trkpt lat="39.80792" lon="8.6662033"><ele>40.0</ele><time>2026-05-03T08:52:58.672Z</time></trkpt><trkpt lat="39.8077783" lon="8.6661917"><ele>40.0</ele><time>2026-05-03T08:52:59.673Z</time></trkpt><trkpt lat="39.8076433" lon="8.6661867"><ele>40.0</ele><time>2026-05-03T08:53:00.673Z</time></trkpt><trkpt lat="39.8075033" lon="8.6661767"><ele>40.0</ele><time>2026-05-03T08:53:01.672Z</time></trkpt><trkpt lat="39.80736" lon="8.6661517"><ele>40.0</ele><time>2026-05-03T08:53:02.673Z</time></trkpt><trkpt lat="39.807215" lon="8.6661417"><ele>40.0</ele><time>2026-05-03T08:53:03.672Z</time></trkpt><trkpt lat="39.8070683" lon="8.6661167"><ele>40.0</ele><time>2026-05-03T08:53:04.672Z</time></trkpt><trkpt lat="39.8069183" lon="8.666075"><ele>40.0</ele><time>2026-05-03T08:53:05.672Z</time></trkpt><trkpt lat="39.806775" lon="8.6660117"><ele>40.0</ele><time>2026-05-03T08:53:06.672Z</time></trkpt><trkpt lat="39.8066217" lon="8.6659283"><ele>40.0</ele><time>2026-05-03T08:53:07.673Z</time></trkpt><trkpt lat="39.8064683" lon="8.6658483"><ele>40.0</ele><time>2026-05-03T08:53:08.673Z</time></trkpt><trkpt lat="39.8063217" lon="8.6657683"><ele>40.0</ele><time>2026-05-03T08:53:09.672Z</time></trkpt><trkpt lat="39.806175" lon="8.66569"><ele>40.0</ele><time>2026-05-03T08:53:10.672Z</time></trkpt><trkpt lat="39.8060383" lon="8.66562"><ele>40.0</ele><time>2026-05-03T08:53:11.672Z</time></trkpt><trkpt lat="39.8059017" lon="8.6655517"><ele>40.0</ele><time>2026-05-03T08:53:12.672Z</time></trkpt><trkpt lat="39.805765" lon="8.6654917"><ele>40.0</ele><time>2026-05-03T08:53:13.672Z</time></trkpt><trkpt lat="39.8056183" lon="8.665415"><ele>40.0</ele><time>2026-05-03T08:53:14.673Z</time></trkpt><trkpt lat="39.8054683" lon="8.6653283"><ele>40.0</ele><time>2026-05-03T08:53:15.672Z</time></trkpt><trkpt lat="39.8053183" lon="8.6652433"><ele>40.0</ele><time>2026-05-03T08:53:16.673Z</time></trkpt><trkpt lat="39.8051717" lon="8.6651567"><ele>39.66666666666667</ele><time>2026-05-03T08:53:17.673Z</time></trkpt><trkpt lat="39.8050133" lon="8.66508"><ele>39.333333333333336</ele><time>2026-05-03T08:53:18.672Z</time></trkpt><trkpt lat="39.8048617" lon="8.6650067"><ele>39.0</ele><time>2026-05-03T08:53:19.673Z</time></trkpt><trkpt lat="39.8047067" lon="8.6649333"><ele>39.0</ele><time>2026-05-03T08:53:20.672Z</time></trkpt><trkpt lat="39.8045533" lon="8.6648617"><ele>39.0</ele><time>2026-05-03T08:53:21.672Z</time></trkpt><trkpt lat="39.804395" lon="8.6647817"><ele>39.0</ele><time>2026-05-03T08:53:22.672Z</time></trkpt><trkpt lat="39.8042467" lon="8.6646983"><ele>39.0</ele><time>2026-05-03T08:53:23.673Z</time></trkpt><trkpt lat="39.8041033" lon="8.664625"><ele>39.0</ele><time>2026-05-03T08:53:24.672Z</time></trkpt><trkpt lat="39.8039583" lon="8.6645517"><ele>39.0</ele><time>2026-05-03T08:53:25.672Z</time></trkpt><trkpt lat="39.8038167" lon="8.6644667"><ele>39.0</ele><time>2026-05-03T08:53:26.672Z</time></trkpt><trkpt lat="39.8036617" lon="8.6643983"><ele>39.0</ele><time>2026-05-03T08:53:27.673Z</time></trkpt><trkpt lat="39.8035067" lon="8.6643417"><ele>39.0</ele><time>2026-05-03T08:53:28.672Z</time></trkpt><trkpt lat="39.8033383" lon="8.6642983"><ele>39.0</ele><time>2026-05-03T08:53:29.673Z</time></trkpt><trkpt lat="39.803175" lon="8.6642633"><ele>39.0</ele><time>2026-05-03T08:53:30.672Z</time></trkpt><trkpt lat="39.8030083" lon="8.664225"><ele>39.0</ele><time>2026-05-03T08:53:31.672Z</time></trkpt><trkpt lat="39.80284" lon="8.66419"><ele>39.0</ele><time>2026-05-03T08:53:32.672Z</time></trkpt><trkpt lat="39.80268" lon="8.6641533"><ele>39.0</ele><time>2026-05-03T08:53:33.672Z</time></trkpt><trkpt lat="39.8025217" lon="8.6641183"><ele>39.0</ele><time>2026-05-03T08:53:34.673Z</time></trkpt><trkpt lat="39.80235" lon="8.66408"><ele>39.0</ele><time>2026-05-03T08:53:35.672Z</time></trkpt><trkpt lat="39.8021667" lon="8.66403"><ele>39.0</ele><time>2026-05-03T08:53:36.672Z</time></trkpt><trkpt lat="39.8019917" lon="8.6639867"><ele>39.0</ele><time>2026-05-03T08:53:37.672Z</time></trkpt><trkpt lat="39.80181" lon="8.663955"><ele>39.333333333333336</ele><time>2026-05-03T08:53:38.672Z</time></trkpt><trkpt lat="39.8016283" lon="8.6639233"><ele>39.66666666666667</ele><time>2026-05-03T08:53:39.673Z</time></trkpt><trkpt lat="39.801445" lon="8.6638833"><ele>40.0</ele><time>2026-05-03T08:53:40.672Z</time></trkpt><trkpt lat="39.8012517" lon="8.6638333"><ele>40.0</ele><time>2026-05-03T08:53:41.672Z</time></trkpt><trkpt lat="39.80105" lon="8.6637917"><ele>40.0</ele><time>2026-05-03T08:53:42.672Z</time></trkpt><trkpt lat="39.8008533" lon="8.6637517"><ele>40.0</ele><time>2026-05-03T08:53:43.672Z</time></trkpt><trkpt lat="39.8006567" lon="8.6637017"><ele>39.66666666666667</ele><time>2026-05-03T08:53:44.673Z</time></trkpt><trkpt lat="39.8004517" lon="8.6636533"><ele>39.333333333333336</ele><time>2026-05-03T08:53:45.672Z</time></trkpt><trkpt lat="39.80023" lon="8.6635983"><ele>39.0</ele><time>2026-05-03T08:53:46.672Z</time></trkpt><trkpt lat="39.8000167" lon="8.6635483"><ele>38.666666666666664</ele><time>2026-05-03T08:53:47.673Z</time></trkpt><trkpt lat="39.7998017" lon="8.6635033"><ele>38.33333333333333</ele><time>2026-05-03T08:53:48.673Z</time></trkpt><trkpt lat="39.799595" lon="8.6634517"><ele>38.0</ele><time>2026-05-03T08:53:49.672Z</time></trkpt><trkpt lat="39.7993917" lon="8.6634067"><ele>38.33333333333333</ele><time>2026-05-03T08:53:50.672Z</time></trkpt><trkpt lat="39.7991883" lon="8.6633717"><ele>38.666666666666664</ele><time>2026-05-03T08:53:51.672Z</time></trkpt><trkpt lat="39.7989917" lon="8.6633267"><ele>39.0</ele><time>2026-05-03T08:53:52.673Z</time></trkpt><trkpt lat="39.7987967" lon="8.6632633"><ele>39.0</ele><time>2026-05-03T08:53:53.672Z</time></trkpt><trkpt lat="39.798605" lon="8.6632133"><ele>39.0</ele><time>2026-05-03T08:53:54.673Z</time></trkpt><trkpt lat="39.7984167" lon="8.6631767"><ele>39.0</ele><time>2026-05-03T08:53:55.673Z</time></trkpt><trkpt lat="39.79824" lon="8.6631467"><ele>39.333333333333336</ele><time>2026-05-03T08:53:56.673Z</time></trkpt><trkpt lat="39.7980733" lon="8.663115"><ele>39.66666666666667</ele><time>2026-05-03T08:53:57.672Z</time></trkpt><trkpt lat="39.7979083" lon="8.6630767"><ele>40.0</ele><time>2026-05-03T08:53:58.672Z</time></trkpt><trkpt lat="39.7977483" lon="8.6630317"><ele>39.66666666666667</ele><time>2026-05-03T08:53:59.673Z</time></trkpt><trkpt lat="39.7975967" lon="8.6629967"><ele>39.333333333333336</ele><time>2026-05-03T08:54:00.672Z</time></trkpt><trkpt lat="39.797425" lon="8.6629517"><ele>39.0</ele><time>2026-05-03T08:54:01.672Z</time></trkpt><trkpt lat="39.797265" lon="8.66292"><ele>39.0</ele><time>2026-05-03T08:54:02.673Z</time></trkpt><trkpt lat="39.7971117" lon="8.6628817"><ele>39.0</ele><time>2026-05-03T08:54:03.672Z</time></trkpt><trkpt lat="39.7969933" lon="8.6628467"><ele>39.0</ele><time>2026-05-03T08:54:04.672Z</time></trkpt><trkpt lat="39.7968767" lon="8.662825"><ele>39.0</ele><time>2026-05-03T08:54:05.673Z</time></trkpt><trkpt lat="39.79676" lon="8.66282"><ele>39.0</ele><time>2026-05-03T08:54:06.673Z</time></trkpt><trkpt lat="39.7966417" lon="8.6627983"><ele>39.0</ele><time>2026-05-03T08:54:07.673Z</time></trkpt><trkpt lat="39.7965083" lon="8.66279"><ele>39.0</ele><time>2026-05-03T08:54:08.672Z</time></trkpt><trkpt lat="39.796385" lon="8.6628133"><ele>39.0</ele><time>2026-05-03T08:54:09.672Z</time></trkpt><trkpt lat="39.7962767" lon="8.66288"><ele>39.0</ele><time>2026-05-03T08:54:10.673Z</time></trkpt><trkpt lat="39.7961567" lon="8.6629567"><ele>39.0</ele><time>2026-05-03T08:54:11.673Z</time></trkpt><trkpt lat="39.7960367" lon="8.6630417"><ele>39.0</ele><time>2026-05-03T08:54:12.672Z</time></trkpt><trkpt lat="39.7959067" lon="8.6631083"><ele>39.0</ele><time>2026-05-03T08:54:13.673Z</time></trkpt><trkpt lat="39.7957783" lon="8.6631567"><ele>38.75</ele><time>2026-05-03T08:54:14.673Z</time></trkpt><trkpt lat="39.7956583" lon="8.6631683"><ele>38.5</ele><time>2026-05-03T08:54:15.673Z</time></trkpt><trkpt lat="39.7955467" lon="8.6631517"><ele>38.25</ele><time>2026-05-03T08:54:16.672Z</time></trkpt><trkpt lat="39.7954433" lon="8.66309"><ele>38.0</ele><time>2026-05-03T08:54:17.673Z</time></trkpt><trkpt lat="39.7953483" lon="8.6630067"><ele>38.0</ele><time>2026-05-03T08:54:18.672Z</time></trkpt><trkpt lat="39.79525" lon="8.662905"><ele>38.0</ele><time>2026-05-03T08:54:19.673Z</time></trkpt><trkpt lat="39.7951517" lon="8.6628183"><ele>38.0</ele><time>2026-05-03T08:54:20.672Z</time></trkpt><trkpt lat="39.79504" lon="8.6627383"><ele>38.0</ele><time>2026-05-03T08:54:21.672Z</time></trkpt><trkpt lat="39.7949267" lon="8.662655"><ele>37.75</ele><time>2026-05-03T08:54:22.673Z</time></trkpt><trkpt lat="39.794805" lon="8.662575"><ele>37.5</ele><time>2026-05-03T08:54:23.672Z</time></trkpt><trkpt lat="39.7946833" lon="8.66249"><ele>37.25</ele><time>2026-05-03T08:54:24.673Z</time></trkpt><trkpt lat="39.7945417" lon="8.6623983"><ele>37.0</ele><time>2026-05-03T08:54:25.672Z</time></trkpt><trkpt lat="39.7944017" lon="8.6623133"><ele>37.25</ele><time>2026-05-03T08:54:26.672Z</time></trkpt><trkpt lat="39.794275" lon="8.6622533"><ele>37.5</ele><time>2026-05-03T08:54:27.673Z</time></trkpt><trkpt lat="39.7941433" lon="8.66222"><ele>37.75</ele><time>2026-05-03T08:54:28.673Z</time></trkpt><trkpt lat="39.7939983" lon="8.6622117"><ele>38.0</ele><time>2026-05-03T08:54:29.673Z</time></trkpt><trkpt lat="39.79386" lon="8.6622583"><ele>38.0</ele><time>2026-05-03T08:54:30.672Z</time></trkpt><trkpt lat="39.793715" lon="8.6623333"><ele>38.0</ele><time>2026-05-03T08:54:31.673Z</time></trkpt><trkpt lat="39.7935567" lon="8.662405"><ele>38.0</ele><time>2026-05-03T08:54:32.672Z</time></trkpt><trkpt lat="39.7934217" lon="8.6624917"><ele>37.75</ele><time>2026-05-03T08:54:33.672Z</time></trkpt><trkpt lat="39.7933083" lon="8.662605"><ele>37.5</ele><time>2026-05-03T08:54:34.673Z</time></trkpt><trkpt lat="39.7932167" lon="8.662735"><ele>37.25</ele><time>2026-05-03T08:54:35.672Z</time></trkpt><trkpt lat="39.7931667" lon="8.6629083"><ele>37.0</ele><time>2026-05-03T08:54:36.672Z</time></trkpt><trkpt lat="39.7931033" lon="8.66308"><ele>37.0</ele><time>2026-05-03T08:54:37.672Z</time></trkpt><trkpt lat="39.793015" lon="8.6632033"><ele>37.0</ele><time>2026-05-03T08:54:38.673Z</time></trkpt><trkpt lat="39.7929167" lon="8.663285"><ele>37.0</ele><time>2026-05-03T08:54:39.673Z</time></trkpt><trkpt lat="39.792825" lon="8.663345"><ele>37.0</ele><time>2026-05-03T08:54:40.672Z</time></trkpt><trkpt lat="39.7927317" lon="8.663365"><ele>37.0</ele><time>2026-05-03T08:54:41.672Z</time></trkpt><trkpt lat="39.7926533" lon="8.6633483"><ele>37.0</ele><time>2026-05-03T08:54:42.673Z</time></trkpt><trkpt lat="39.7925783" lon="8.6633083"><ele>37.0</ele><time>2026-05-03T08:54:43.672Z</time></trkpt><trkpt lat="39.792515" lon="8.6632183"><ele>37.0</ele><time>2026-05-03T08:54:44.672Z</time></trkpt><trkpt lat="39.79245" lon="8.6630817"><ele>37.0</ele><time>2026-05-03T08:54:45.672Z</time></trkpt><trkpt lat="39.79239" lon="8.6629167"><ele>37.0</ele><time>2026-05-03T08:54:46.672Z</time></trkpt><trkpt lat="39.7923383" lon="8.66273"><ele>36.333333333333336</ele><time>2026-05-03T08:54:47.672Z</time></trkpt><trkpt lat="39.792265" lon="8.66253"><ele>35.666666666666664</ele><time>2026-05-03T08:54:48.672Z</time></trkpt><trkpt lat="39.7921917" lon="8.6623317"><ele>35.0</ele><time>2026-05-03T08:54:49.672Z</time></trkpt><trkpt lat="39.7921" lon="8.6621217"><ele>35.0</ele><time>2026-05-03T08:54:50.672Z</time></trkpt><trkpt lat="39.7919983" lon="8.6619267"><ele>35.0</ele><time>2026-05-03T08:54:51.672Z</time></trkpt><trkpt lat="39.7918917" lon="8.6617383"><ele>35.0</ele><time>2026-05-03T08:54:52.672Z</time></trkpt><trkpt lat="39.79177" lon="8.6615517"><ele>35.666666666666664</ele><time>2026-05-03T08:54:53.673Z</time></trkpt><trkpt lat="39.7916317" lon="8.6613933"><ele>36.333333333333336</ele><time>2026-05-03T08:54:54.672Z</time></trkpt><trkpt lat="39.7914717" lon="8.6612467"><ele>37.0</ele><time>2026-05-03T08:54:55.672Z</time></trkpt><trkpt lat="39.7912983" lon="8.66112"><ele>36.66666666666667</ele><time>2026-05-03T08:54:56.672Z</time></trkpt><trkpt lat="39.79113" lon="8.66101"><ele>36.333333333333336</ele><time>2026-05-03T08:54:57.672Z</time></trkpt><trkpt lat="39.7909433" lon="8.6608917"><ele>36.0</ele><time>2026-05-03T08:54:58.672Z</time></trkpt><trkpt lat="39.7907633" lon="8.6607817"><ele>36.0</ele><time>2026-05-03T08:54:59.672Z</time></trkpt><trkpt lat="39.7905717" lon="8.66066"><ele>36.0</ele><time>2026-05-03T08:55:00.672Z</time></trkpt><trkpt lat="39.7903833" lon="8.6605233"><ele>36.0</ele><time>2026-05-03T08:55:01.673Z</time></trkpt><trkpt lat="39.7902" lon="8.6604067"><ele>36.333333333333336</ele><time>2026-05-03T08:55:02.672Z</time></trkpt><trkpt lat="39.7899983" lon="8.6602917"><ele>36.66666666666667</ele><time>2026-05-03T08:55:03.672Z</time></trkpt><trkpt lat="39.7898117" lon="8.6601933"><ele>37.0</ele><time>2026-05-03T08:55:04.673Z</time></trkpt><trkpt lat="39.7896267" lon="8.6601017"><ele>36.66666666666667</ele><time>2026-05-03T08:55:05.672Z</time></trkpt><trkpt lat="39.7894333" lon="8.6600117"><ele>36.333333333333336</ele><time>2026-05-03T08:55:06.672Z</time></trkpt><trkpt lat="39.7892317" lon="8.6599"><ele>36.0</ele><time>2026-05-03T08:55:07.672Z</time></trkpt><trkpt lat="39.7890267" lon="8.659795"><ele>36.0</ele><time>2026-05-03T08:55:08.672Z</time></trkpt><trkpt lat="39.7888233" lon="8.6596717"><ele>36.0</ele><time>2026-05-03T08:55:09.672Z</time></trkpt><trkpt lat="39.7886133" lon="8.65956"><ele>36.5</ele><time>2026-05-03T08:55:10.673Z</time></trkpt><trkpt lat="39.788395" lon="8.6594533"><ele>37.0</ele><time>2026-05-03T08:55:11.672Z</time></trkpt><trkpt lat="39.7881883" lon="8.6593517"><ele>37.0</ele><time>2026-05-03T08:55:12.673Z</time></trkpt><trkpt lat="39.7880083" lon="8.65926"><ele>37.0</ele><time>2026-05-03T08:55:13.672Z</time></trkpt><trkpt lat="39.7878517" lon="8.65918"><ele>37.0</ele><time>2026-05-03T08:55:14.673Z</time></trkpt><trkpt lat="39.7877067" lon="8.6591067"><ele>36.66666666666667</ele><time>2026-05-03T08:55:15.672Z</time></trkpt><trkpt lat="39.78755" lon="8.6590567"><ele>36.333333333333336</ele><time>2026-05-03T08:55:16.672Z</time></trkpt><trkpt lat="39.7873867" lon="8.6590367"><ele>36.0</ele><time>2026-05-03T08:55:17.673Z</time></trkpt><trkpt lat="39.787205" lon="8.6590183"><ele>36.0</ele><time>2026-05-03T08:55:18.673Z</time></trkpt><trkpt lat="39.787025" lon="8.6590067"><ele>36.0</ele><time>2026-05-03T08:55:19.673Z</time></trkpt><trkpt lat="39.78684" lon="8.6589967"><ele>36.0</ele><time>2026-05-03T08:55:20.672Z</time></trkpt><trkpt lat="39.786675" lon="8.658985"><ele>36.4</ele><time>2026-05-03T08:55:21.673Z</time></trkpt><trkpt lat="39.7865333" lon="8.6589533"><ele>36.8</ele><time>2026-05-03T08:55:22.672Z</time></trkpt><trkpt lat="39.7864217" lon="8.6589317"><ele>37.199999999999996</ele><time>2026-05-03T08:55:23.672Z</time></trkpt><trkpt lat="39.786325" lon="8.658925"><ele>37.6</ele><time>2026-05-03T08:55:24.672Z</time></trkpt><trkpt lat="39.7862517" lon="8.6589167"><ele>38.0</ele><time>2026-05-03T08:55:25.672Z</time></trkpt><trkpt lat="39.786185" lon="8.6588733"><ele>38.0</ele><time>2026-05-03T08:55:27.672Z</time></trkpt><trkpt lat="39.7861683" lon="8.6587867"><ele>38.0</ele><time>2026-05-03T08:55:29.672Z</time></trkpt><trkpt lat="39.7861883" lon="8.65861"><ele>38.0</ele><time>2026-05-03T08:55:31.673Z</time></trkpt><trkpt lat="39.786195" lon="8.6584683"><ele>38.0</ele><time>2026-05-03T08:55:32.672Z</time></trkpt><trkpt lat="39.7861883" lon="8.6582817"><ele>37.0</ele><time>2026-05-03T08:55:33.672Z</time></trkpt><trkpt lat="39.78619" lon="8.6580233"><ele>36.0</ele><time>2026-05-03T08:55:34.673Z</time></trkpt><trkpt lat="39.7861933" lon="8.6577467"><ele>35.0</ele><time>2026-05-03T08:55:35.672Z</time></trkpt><trkpt lat="39.7862" lon="8.657475"><ele>34.33333333333333</ele><time>2026-05-03T08:55:36.673Z</time></trkpt><trkpt lat="39.7862017" lon="8.65722"><ele>33.666666666666664</ele><time>2026-05-03T08:55:37.673Z</time></trkpt><trkpt lat="39.7862033" lon="8.6569783"><ele>33.0</ele><time>2026-05-03T08:55:38.673Z</time></trkpt><trkpt lat="39.786205" lon="8.6567483"><ele>32.666666666666664</ele><time>2026-05-03T08:55:39.672Z</time></trkpt><trkpt lat="39.7862067" lon="8.6565183"><ele>32.33333333333333</ele><time>2026-05-03T08:55:40.672Z</time></trkpt><trkpt lat="39.786215" lon="8.6562667"><ele>32.0</ele><time>2026-05-03T08:55:41.672Z</time></trkpt><trkpt lat="39.78623" lon="8.656005"><ele>32.0</ele><time>2026-05-03T08:55:42.673Z</time></trkpt><trkpt lat="39.7862317" lon="8.6557467"><ele>32.0</ele><time>2026-05-03T08:55:43.672Z</time></trkpt><trkpt lat="39.7862433" lon="8.655485"><ele>32.0</ele><time>2026-05-03T08:55:44.673Z</time></trkpt><trkpt lat="39.7862583" lon="8.6552267"><ele>31.333333333333332</ele><time>2026-05-03T08:55:45.672Z</time></trkpt><trkpt lat="39.7862617" lon="8.6550017"><ele>30.666666666666664</ele><time>2026-05-03T08:55:46.672Z</time></trkpt><trkpt lat="39.786265" lon="8.6547917"><ele>30.0</ele><time>2026-05-03T08:55:47.672Z</time></trkpt><trkpt lat="39.7862533" lon="8.6546133"><ele>30.0</ele><time>2026-05-03T08:55:48.672Z</time></trkpt><trkpt lat="39.7862467" lon="8.654455"><ele>30.0</ele><time>2026-05-03T08:55:49.672Z</time></trkpt><trkpt lat="39.786245" lon="8.6542817"><ele>30.0</ele><time>2026-05-03T08:55:50.673Z</time></trkpt><trkpt lat="39.786255" lon="8.6541117"><ele>30.0</ele><time>2026-05-03T08:55:51.673Z</time></trkpt><trkpt lat="39.7862583" lon="8.6539767"><ele>29.833333333333332</ele><time>2026-05-03T08:55:52.672Z</time></trkpt><trkpt lat="39.786255" lon="8.6538683"><ele>29.666666666666664</ele><time>2026-05-03T08:55:53.672Z</time></trkpt><trkpt lat="39.7862667" lon="8.6537783"><ele>29.5</ele><time>2026-05-03T08:55:54.672Z</time></trkpt><trkpt lat="39.7863033" lon="8.65364"><ele>29.333333333333332</ele><time>2026-05-03T08:55:56.672Z</time></trkpt><trkpt lat="39.78635" lon="8.6535683"><ele>29.166666666666664</ele><time>2026-05-03T08:55:57.672Z</time></trkpt><trkpt lat="39.78644" lon="8.6534933"><ele>29.0</ele><time>2026-05-03T08:55:58.673Z</time></trkpt><trkpt lat="39.7865533" lon="8.6534233"><ele>29.0</ele><time>2026-05-03T08:55:59.673Z</time></trkpt><trkpt lat="39.7866767" lon="8.6533583"><ele>29.0</ele><time>2026-05-03T08:56:00.673Z</time></trkpt><trkpt lat="39.786795" lon="8.653295"><ele>29.0</ele><time>2026-05-03T08:56:01.672Z</time></trkpt><trkpt lat="39.78692" lon="8.65323"><ele>29.0</ele><time>2026-05-03T08:56:02.673Z</time></trkpt><trkpt lat="39.787035" lon="8.6531667"><ele>28.75</ele><time>2026-05-03T08:56:03.673Z</time></trkpt><trkpt lat="39.7871467" lon="8.653105"><ele>28.5</ele><time>2026-05-03T08:56:04.672Z</time></trkpt><trkpt lat="39.7872567" lon="8.653045"><ele>28.25</ele><time>2026-05-03T08:56:05.672Z</time></trkpt><trkpt lat="39.7873717" lon="8.6529867"><ele>28.0</ele><time>2026-05-03T08:56:06.673Z</time></trkpt><trkpt lat="39.7875017" lon="8.652925"><ele>28.0</ele><time>2026-05-03T08:56:07.673Z</time></trkpt><trkpt lat="39.7876333" lon="8.6528633"><ele>28.0</ele><time>2026-05-03T08:56:08.672Z</time></trkpt><trkpt lat="39.7877883" lon="8.652795"><ele>28.0</ele><time>2026-05-03T08:56:09.673Z</time></trkpt><trkpt lat="39.7879383" lon="8.652715"><ele>28.0</ele><time>2026-05-03T08:56:10.673Z</time></trkpt><trkpt lat="39.7880967" lon="8.652635"><ele>28.0</ele><time>2026-05-03T08:56:11.672Z</time></trkpt><trkpt lat="39.7882567" lon="8.65256"><ele>28.0</ele><time>2026-05-03T08:56:12.673Z</time></trkpt><trkpt lat="39.7884217" lon="8.6524817"><ele>28.0</ele><time>2026-05-03T08:56:13.672Z</time></trkpt><trkpt lat="39.78858" lon="8.6524"><ele>28.0</ele><time>2026-05-03T08:56:14.672Z</time></trkpt><trkpt lat="39.7887417" lon="8.6523217"><ele>28.0</ele><time>2026-05-03T08:56:15.672Z</time></trkpt><trkpt lat="39.788915" lon="8.6522317"><ele>28.0</ele><time>2026-05-03T08:56:16.672Z</time></trkpt><trkpt lat="39.789075" lon="8.6521333"><ele>28.0</ele><time>2026-05-03T08:56:17.673Z</time></trkpt><trkpt lat="39.7892567" lon="8.65205"><ele>28.0</ele><time>2026-05-03T08:56:18.673Z</time></trkpt><trkpt lat="39.7894317" lon="8.6519617"><ele>27.333333333333336</ele><time>2026-05-03T08:56:19.672Z</time></trkpt><trkpt lat="39.7896033" lon="8.6518683"><ele>26.666666666666664</ele><time>2026-05-03T08:56:20.672Z</time></trkpt><trkpt lat="39.78978" lon="8.65177"><ele>26.0</ele><time>2026-05-03T08:56:21.672Z</time></trkpt><trkpt lat="39.7899683" lon="8.6516833"><ele>26.0</ele><time>2026-05-03T08:56:22.672Z</time></trkpt><trkpt lat="39.7901433" lon="8.6515767"><ele>26.0</ele><time>2026-05-03T08:56:23.673Z</time></trkpt><trkpt lat="39.7903217" lon="8.65146"><ele>26.0</ele><time>2026-05-03T08:56:24.672Z</time></trkpt><trkpt lat="39.7904983" lon="8.6513567"><ele>26.0</ele><time>2026-05-03T08:56:25.672Z</time></trkpt><trkpt lat="39.7906717" lon="8.65125"><ele>26.0</ele><time>2026-05-03T08:56:26.672Z</time></trkpt><trkpt lat="39.7908467" lon="8.6511517"><ele>26.0</ele><time>2026-05-03T08:56:27.672Z</time></trkpt><trkpt lat="39.7910317" lon="8.6510533"><ele>25.333333333333332</ele><time>2026-05-03T08:56:28.673Z</time></trkpt><trkpt lat="39.79121" lon="8.65095"><ele>24.666666666666664</ele><time>2026-05-03T08:56:29.672Z</time></trkpt><trkpt lat="39.7913783" lon="8.6508567"><ele>24.0</ele><time>2026-05-03T08:56:30.672Z</time></trkpt><trkpt lat="39.7915467" lon="8.650765"><ele>24.0</ele><time>2026-05-03T08:56:31.673Z</time></trkpt><trkpt lat="39.7917083" lon="8.6506783"><ele>24.0</ele><time>2026-05-03T08:56:32.672Z</time></trkpt><trkpt lat="39.79186" lon="8.6505983"><ele>24.0</ele><time>2026-05-03T08:56:33.672Z</time></trkpt><trkpt lat="39.7919917" lon="8.6505217"><ele>24.25</ele><time>2026-05-03T08:56:34.672Z</time></trkpt><trkpt lat="39.7921083" lon="8.6504617"><ele>24.5</ele><time>2026-05-03T08:56:35.673Z</time></trkpt><trkpt lat="39.7922233" lon="8.6504033"><ele>24.75</ele><time>2026-05-03T08:56:36.672Z</time></trkpt><trkpt lat="39.7923433" lon="8.6503317"><ele>25.0</ele><time>2026-05-03T08:56:37.673Z</time></trkpt><trkpt lat="39.792455" lon="8.6502733"><ele>24.6</ele><time>2026-05-03T08:56:38.672Z</time></trkpt><trkpt lat="39.7925667" lon="8.6502317"><ele>24.2</ele><time>2026-05-03T08:56:39.672Z</time></trkpt><trkpt lat="39.792675" lon="8.6502083"><ele>23.799999999999997</ele><time>2026-05-03T08:56:40.672Z</time></trkpt><trkpt lat="39.79278" lon="8.6501933"><ele>23.4</ele><time>2026-05-03T08:56:41.672Z</time></trkpt><trkpt lat="39.79289" lon="8.6501767"><ele>23.0</ele><time>2026-05-03T08:56:42.672Z</time></trkpt><trkpt lat="39.793005" lon="8.6501367"><ele>23.0</ele><time>2026-05-03T08:56:43.673Z</time></trkpt><trkpt lat="39.7930967" lon="8.6500767"><ele>23.0</ele><time>2026-05-03T08:56:44.673Z</time></trkpt><trkpt lat="39.7931683" lon="8.650005"><ele>23.0</ele><time>2026-05-03T08:56:45.672Z</time></trkpt><trkpt lat="39.7932217" lon="8.6499433"><ele>23.0</ele><time>2026-05-03T08:56:46.672Z</time></trkpt><trkpt lat="39.7932567" lon="8.6498667"><ele>23.0</ele><time>2026-05-03T08:56:47.672Z</time></trkpt><trkpt lat="39.7932583" lon="8.6497267"><ele>23.0</ele><time>2026-05-03T08:56:49.673Z</time></trkpt><trkpt lat="39.7932083" lon="8.6496117"><ele>23.0</ele><time>2026-05-03T08:56:51.672Z</time></trkpt><trkpt lat="39.7931583" lon="8.6494967"><ele>23.0</ele><time>2026-05-03T08:56:53.672Z</time></trkpt><trkpt lat="39.7931033" lon="8.6494417"><ele>23.0</ele><time>2026-05-03T08:56:55.672Z</time></trkpt><trkpt lat="39.7930517" lon="8.6493733"><ele>23.0</ele><time>2026-05-03T08:56:57.673Z</time></trkpt><trkpt lat="39.792985" lon="8.6492883"><ele>23.0</ele><time>2026-05-03T08:56:59.672Z</time></trkpt><trkpt lat="39.7929383" lon="8.64915"><ele>22.666666666666668</ele><time>2026-05-03T08:57:01.672Z</time></trkpt><trkpt lat="39.7929567" lon="8.6490417"><ele>22.333333333333336</ele><time>2026-05-03T08:57:07.673Z</time></trkpt><trkpt lat="39.7930133" lon="8.64892"><ele>22.0</ele><time>2026-05-03T08:57:09.672Z</time></trkpt><trkpt lat="39.79304" lon="8.6488167"><ele>21.666666666666668</ele><time>2026-05-03T08:57:10.672Z</time></trkpt><trkpt lat="39.7930517" lon="8.648715"><ele>21.333333333333332</ele><time>2026-05-03T08:57:11.673Z</time></trkpt><trkpt lat="39.7930517" lon="8.6486267"><ele>21.0</ele><time>2026-05-03T08:57:12.672Z</time></trkpt><trkpt lat="39.7930167" lon="8.64848"><ele>20.2</ele><time>2026-05-03T08:57:14.671Z</time></trkpt><trkpt lat="39.7929933" lon="8.6484033"><ele>19.400000000000002</ele><time>2026-05-03T08:57:15.671Z</time></trkpt><trkpt lat="39.7929517" lon="8.648225"><ele>18.6</ele><time>2026-05-03T08:57:17.671Z</time></trkpt><trkpt lat="39.7929333" lon="8.648095"><ele>17.8</ele><time>2026-05-03T08:57:18.672Z</time></trkpt><trkpt lat="39.7929183" lon="8.6479717"><ele>17.0</ele><time>2026-05-03T08:57:19.672Z</time></trkpt><trkpt lat="39.7929017" lon="8.6478583"><ele>17.0</ele><time>2026-05-03T08:57:20.672Z</time></trkpt><trkpt lat="39.7928867" lon="8.6477533"><ele>17.0</ele><time>2026-05-03T08:57:21.671Z</time></trkpt><trkpt lat="39.7928683" lon="8.6476517"><ele>17.0</ele><time>2026-05-03T08:57:22.672Z</time></trkpt><trkpt lat="39.79285" lon="8.64754"><ele>17.0</ele><time>2026-05-03T08:57:23.671Z</time></trkpt><trkpt lat="39.7928283" lon="8.6474217"><ele>17.0</ele><time>2026-05-03T08:57:24.671Z</time></trkpt><trkpt lat="39.7928" lon="8.6473117"><ele>17.0</ele><time>2026-05-03T08:57:25.671Z</time></trkpt><trkpt lat="39.7927733" lon="8.6472033"><ele>17.0</ele><time>2026-05-03T08:57:26.671Z</time></trkpt><trkpt lat="39.79275" lon="8.6470833"><ele>17.0</ele><time>2026-05-03T08:57:27.671Z</time></trkpt><trkpt lat="39.7927217" lon="8.6469733"><ele>17.0</ele><time>2026-05-03T08:57:28.671Z</time></trkpt><trkpt lat="39.792695" lon="8.6468783"><ele>17.0</ele><time>2026-05-03T08:57:29.671Z</time></trkpt><trkpt lat="39.79267" lon="8.6467783"><ele>17.0</ele><time>2026-05-03T08:57:30.671Z</time></trkpt><trkpt lat="39.7926533" lon="8.6466767"><ele>17.0</ele><time>2026-05-03T08:57:31.671Z</time></trkpt><trkpt lat="39.7926367" lon="8.646585"><ele>16.4</ele><time>2026-05-03T08:57:32.671Z</time></trkpt><trkpt lat="39.792625" lon="8.6465017"><ele>15.799999999999999</ele><time>2026-05-03T08:57:33.671Z</time></trkpt><trkpt lat="39.7925833" lon="8.6463783"><ele>15.2</ele><time>2026-05-03T08:57:35.671Z</time></trkpt><trkpt lat="39.792515" lon="8.6463"><ele>14.6</ele><time>2026-05-03T08:57:37.672Z</time></trkpt><trkpt lat="39.79242" lon="8.6462683"><ele>14.0</ele><time>2026-05-03T08:57:39.671Z</time></trkpt><trkpt lat="39.79231" lon="8.6462017"><ele>14.0</ele><time>2026-05-03T08:57:41.671Z</time></trkpt><trkpt lat="39.79226" lon="8.6461383"><ele>13.999999999999998</ele><time>2026-05-03T08:57:42.671Z</time></trkpt><trkpt lat="39.79221" lon="8.6460567"><ele>13.999999999999998</ele><time>2026-05-03T08:57:43.671Z</time></trkpt><trkpt lat="39.7921567" lon="8.6459617"><ele>14.0</ele><time>2026-05-03T08:57:44.671Z</time></trkpt><trkpt lat="39.7921067" lon="8.6458367"><ele>14.0</ele><time>2026-05-03T08:57:45.672Z</time></trkpt><trkpt lat="39.7920467" lon="8.6457133"><ele>14.2</ele><time>2026-05-03T08:57:46.672Z</time></trkpt><trkpt lat="39.79198" lon="8.6456"><ele>14.399999999999999</ele><time>2026-05-03T08:57:47.672Z</time></trkpt><trkpt lat="39.7919283" lon="8.6454833"><ele>14.6</ele><time>2026-05-03T08:57:48.672Z</time></trkpt><trkpt lat="39.7918717" lon="8.6453733"><ele>14.8</ele><time>2026-05-03T08:57:49.672Z</time></trkpt><trkpt lat="39.7918183" lon="8.6452767"><ele>15.0</ele><time>2026-05-03T08:57:50.671Z</time></trkpt><trkpt lat="39.791765" lon="8.64517"><ele>15.0</ele><time>2026-05-03T08:57:51.671Z</time></trkpt><trkpt lat="39.7917183" lon="8.6450517"><ele>15.0</ele><time>2026-05-03T08:57:52.671Z</time></trkpt><trkpt lat="39.7916833" lon="8.6449583"><ele>15.0</ele><time>2026-05-03T08:57:53.671Z</time></trkpt><trkpt lat="39.7916433" lon="8.644825"><ele>15.0</ele><time>2026-05-03T08:57:55.672Z</time></trkpt><trkpt lat="39.7916017" lon="8.6447083"><ele>15.0</ele><time>2026-05-03T08:57:57.672Z</time></trkpt><trkpt lat="39.7916033" lon="8.64461"><ele>15.0</ele><time>2026-05-03T08:57:59.672Z</time></trkpt><trkpt lat="39.7915967" lon="8.6444933"><ele>15.0</ele><time>2026-05-03T08:58:01.671Z</time></trkpt><trkpt lat="39.7915967" lon="8.6443267"><ele>15.0</ele><time>2026-05-03T08:58:03.672Z</time></trkpt><trkpt lat="39.7915983" lon="8.6442267"><ele>15.0</ele><time>2026-05-03T08:58:04.671Z</time></trkpt><trkpt lat="39.7916" lon="8.6441233"><ele>15.0</ele><time>2026-05-03T08:58:05.671Z</time></trkpt><trkpt lat="39.7916117" lon="8.64404"><ele>15.0</ele><time>2026-05-03T08:58:06.671Z</time></trkpt><trkpt lat="39.7916317" lon="8.64389"><ele>14.833333333333334</ele><time>2026-05-03T08:58:08.672Z</time></trkpt><trkpt lat="39.7916617" lon="8.6438117"><ele>14.666666666666668</ele><time>2026-05-03T08:58:09.671Z</time></trkpt><trkpt lat="39.7917083" lon="8.6437"><ele>14.5</ele><time>2026-05-03T08:58:11.671Z</time></trkpt><trkpt lat="39.7917533" lon="8.6436"><ele>14.333333333333334</ele><time>2026-05-03T08:58:13.671Z</time></trkpt><trkpt lat="39.79179" lon="8.6435317"><ele>14.166666666666668</ele><time>2026-05-03T08:58:14.672Z</time></trkpt><trkpt lat="39.7918317" lon="8.6434517"><ele>14.0</ele><time>2026-05-03T08:58:15.672Z</time></trkpt><trkpt lat="39.7918817" lon="8.6433767"><ele>13.833333333333334</ele><time>2026-05-03T08:58:16.671Z</time></trkpt><trkpt lat="39.79194" lon="8.6432967"><ele>13.666666666666668</ele><time>2026-05-03T08:58:17.671Z</time></trkpt><trkpt lat="39.79199" lon="8.64324"><ele>13.5</ele><time>2026-05-03T08:58:18.672Z</time></trkpt><trkpt lat="39.7920667" lon="8.6431433"><ele>13.333333333333332</ele><time>2026-05-03T08:58:20.671Z</time></trkpt><trkpt lat="39.7921183" lon="8.6430467"><ele>13.166666666666666</ele><time>2026-05-03T08:58:22.671Z</time></trkpt><trkpt lat="39.7921" lon="8.6429183"><ele>13.0</ele><time>2026-05-03T08:58:24.671Z</time></trkpt><trkpt lat="39.7920617" lon="8.6428367"><ele>12.8</ele><time>2026-05-03T08:58:25.672Z</time></trkpt><trkpt lat="39.79202" lon="8.642725"><ele>12.600000000000001</ele><time>2026-05-03T08:58:26.671Z</time></trkpt><trkpt lat="39.7919867" lon="8.642595"><ele>12.399999999999999</ele><time>2026-05-03T08:58:27.672Z</time></trkpt><trkpt lat="39.7919517" lon="8.642465"><ele>12.2</ele><time>2026-05-03T08:58:28.671Z</time></trkpt><trkpt lat="39.7919133" lon="8.642335"><ele>12.0</ele><time>2026-05-03T08:58:29.671Z</time></trkpt><trkpt lat="39.7918867" lon="8.6422167"><ele>12.0</ele><time>2026-05-03T08:58:30.671Z</time></trkpt><trkpt lat="39.7918583" lon="8.6421"><ele>12.0</ele><time>2026-05-03T08:58:31.672Z</time></trkpt><trkpt lat="39.7918317" lon="8.6419817"><ele>12.0</ele><time>2026-05-03T08:58:32.672Z</time></trkpt><trkpt lat="39.7917983" lon="8.6418667"><ele>12.0</ele><time>2026-05-03T08:58:33.672Z</time></trkpt><trkpt lat="39.79175" lon="8.64175"><ele>12.0</ele><time>2026-05-03T08:58:34.672Z</time></trkpt><trkpt lat="39.7917017" lon="8.6416517"><ele>12.0</ele><time>2026-05-03T08:58:35.671Z</time></trkpt><trkpt lat="39.7916417" lon="8.6415483"><ele>12.0</ele><time>2026-05-03T08:58:36.672Z</time></trkpt><trkpt lat="39.7915717" lon="8.6414483"><ele>12.0</ele><time>2026-05-03T08:58:37.671Z</time></trkpt><trkpt lat="39.7914967" lon="8.6413533"><ele>12.0</ele><time>2026-05-03T08:58:38.671Z</time></trkpt><trkpt lat="39.7914133" lon="8.6412717"><ele>12.0</ele><time>2026-05-03T08:58:39.671Z</time></trkpt><trkpt lat="39.7913317" lon="8.6412017"><ele>12.0</ele><time>2026-05-03T08:58:40.672Z</time></trkpt><trkpt lat="39.79125" lon="8.6411383"><ele>12.0</ele><time>2026-05-03T08:58:41.672Z</time></trkpt><trkpt lat="39.79118" lon="8.64106"><ele>12.0</ele><time>2026-05-03T08:58:42.672Z</time></trkpt><trkpt lat="39.7911233" lon="8.6409667"><ele>12.0</ele><time>2026-05-03T08:58:43.671Z</time></trkpt><trkpt lat="39.7910667" lon="8.6408583"><ele>12.0</ele><time>2026-05-03T08:58:44.671Z</time></trkpt><trkpt lat="39.79101" lon="8.6407417"><ele>12.399999999999999</ele><time>2026-05-03T08:58:45.672Z</time></trkpt><trkpt lat="39.790955" lon="8.6406317"><ele>12.799999999999999</ele><time>2026-05-03T08:58:46.671Z</time></trkpt><trkpt lat="39.7909033" lon="8.640515"><ele>13.2</ele><time>2026-05-03T08:58:47.671Z</time></trkpt><trkpt lat="39.7908533" lon="8.640405"><ele>13.6</ele><time>2026-05-03T08:58:48.672Z</time></trkpt><trkpt lat="39.7907783" lon="8.6403217"><ele>14.0</ele><time>2026-05-03T08:58:49.672Z</time></trkpt><trkpt lat="39.7906883" lon="8.6402433"><ele>14.25</ele><time>2026-05-03T08:58:50.671Z</time></trkpt><trkpt lat="39.7905867" lon="8.6401767"><ele>14.5</ele><time>2026-05-03T08:58:51.671Z</time></trkpt><trkpt lat="39.7904783" lon="8.640095"><ele>14.75</ele><time>2026-05-03T08:58:52.672Z</time></trkpt><trkpt lat="39.7903567" lon="8.6400017"><ele>15.0</ele><time>2026-05-03T08:58:53.671Z</time></trkpt><trkpt lat="39.7902467" lon="8.6399117"><ele>15.0</ele><time>2026-05-03T08:58:54.671Z</time></trkpt><trkpt lat="39.7901483" lon="8.6398317"><ele>15.0</ele><time>2026-05-03T08:58:55.671Z</time></trkpt><trkpt lat="39.7900567" lon="8.6397867"><ele>15.0</ele><time>2026-05-03T08:58:56.671Z</time></trkpt><trkpt lat="39.7899533" lon="8.63975"><ele>15.0</ele><time>2026-05-03T08:58:57.671Z</time></trkpt><trkpt lat="39.789845" lon="8.6397283"><ele>15.0</ele><time>2026-05-03T08:58:58.672Z</time></trkpt><trkpt lat="39.78975" lon="8.6397033"><ele>15.0</ele><time>2026-05-03T08:58:59.672Z</time></trkpt><trkpt lat="39.789675" lon="8.639675"><ele>15.0</ele><time>2026-05-03T08:59:00.672Z</time></trkpt><trkpt lat="39.7896183" lon="8.639625"><ele>15.0</ele><time>2026-05-03T08:59:01.671Z</time></trkpt><trkpt lat="39.7895583" lon="8.6395767"><ele>15.0</ele><time>2026-05-03T08:59:02.671Z</time></trkpt><trkpt lat="39.7894933" lon="8.6395367"><ele>15.0</ele><time>2026-05-03T08:59:03.671Z</time></trkpt><trkpt lat="39.78941" lon="8.63953"><ele>15.0</ele><time>2026-05-03T08:59:04.672Z</time></trkpt><trkpt lat="39.7893133" lon="8.6395267"><ele>15.0</ele><time>2026-05-03T08:59:05.672Z</time></trkpt><trkpt lat="39.78921" lon="8.6395033"><ele>15.0</ele><time>2026-05-03T08:59:06.671Z</time></trkpt><trkpt lat="39.7891067" lon="8.6394417"><ele>15.0</ele><time>2026-05-03T08:59:07.672Z</time></trkpt><trkpt lat="39.7889983" lon="8.6393683"><ele>15.0</ele><time>2026-05-03T08:59:08.671Z</time></trkpt><trkpt lat="39.7888833" lon="8.6392967"><ele>14.5</ele><time>2026-05-03T08:59:09.671Z</time></trkpt><trkpt lat="39.78877" lon="8.6392367"><ele>14.0</ele><time>2026-05-03T08:59:10.671Z</time></trkpt><trkpt lat="39.7886433" lon="8.63919"><ele>13.5</ele><time>2026-05-03T08:59:11.671Z</time></trkpt><trkpt lat="39.78853" lon="8.639115"><ele>13.0</ele><time>2026-05-03T08:59:12.671Z</time></trkpt><trkpt lat="39.78841" lon="8.639035"><ele>13.0</ele><time>2026-05-03T08:59:13.672Z</time></trkpt><trkpt lat="39.7882967" lon="8.6389517"><ele>13.0</ele><time>2026-05-03T08:59:14.672Z</time></trkpt><trkpt lat="39.7881883" lon="8.638875"><ele>13.0</ele><time>2026-05-03T08:59:15.671Z</time></trkpt><trkpt lat="39.7880817" lon="8.6387883"><ele>13.0</ele><time>2026-05-03T08:59:16.672Z</time></trkpt><trkpt lat="39.7879867" lon="8.6387117"><ele>13.0</ele><time>2026-05-03T08:59:17.672Z</time></trkpt><trkpt lat="39.787865" lon="8.6386517"><ele>13.0</ele><time>2026-05-03T08:59:18.671Z</time></trkpt><trkpt lat="39.787725" lon="8.638595"><ele>13.0</ele><time>2026-05-03T08:59:19.671Z</time></trkpt><trkpt lat="39.7875933" lon="8.63855"><ele>13.0</ele><time>2026-05-03T08:59:20.671Z</time></trkpt><trkpt lat="39.7874667" lon="8.63852"><ele>13.0</ele><time>2026-05-03T08:59:21.671Z</time></trkpt><trkpt lat="39.7873217" lon="8.6385017"><ele>13.0</ele><time>2026-05-03T08:59:22.671Z</time></trkpt><trkpt lat="39.7871783" lon="8.6385017"><ele>13.0</ele><time>2026-05-03T08:59:23.672Z</time></trkpt><trkpt lat="39.7870583" lon="8.6385083"><ele>13.0</ele><time>2026-05-03T08:59:24.671Z</time></trkpt><trkpt lat="39.78695" lon="8.6385033"><ele>13.0</ele><time>2026-05-03T08:59:25.671Z</time></trkpt><trkpt lat="39.7868483" lon="8.6384733"><ele>13.0</ele><time>2026-05-03T08:59:26.671Z</time></trkpt><trkpt lat="39.7867383" lon="8.638415"><ele>13.0</ele><time>2026-05-03T08:59:27.672Z</time></trkpt><trkpt lat="39.7866183" lon="8.6383433"><ele>13.0</ele><time>2026-05-03T08:59:28.671Z</time></trkpt><trkpt lat="39.78648" lon="8.638285"><ele>13.0</ele><time>2026-05-03T08:59:29.671Z</time></trkpt><trkpt lat="39.7863383" lon="8.638235"><ele>13.0</ele><time>2026-05-03T08:59:30.672Z</time></trkpt><trkpt lat="39.7862033" lon="8.6381783"><ele>13.0</ele><time>2026-05-03T08:59:31.672Z</time></trkpt><trkpt lat="39.7860717" lon="8.6381217"><ele>13.0</ele><time>2026-05-03T08:59:32.671Z</time></trkpt><trkpt lat="39.7859367" lon="8.6380533"><ele>13.25</ele><time>2026-05-03T08:59:33.671Z</time></trkpt><trkpt lat="39.785805" lon="8.6379983"><ele>13.5</ele><time>2026-05-03T08:59:34.671Z</time></trkpt><trkpt lat="39.7856717" lon="8.63796"><ele>13.75</ele><time>2026-05-03T08:59:35.671Z</time></trkpt><trkpt lat="39.7855317" lon="8.6379467"><ele>14.0</ele><time>2026-05-03T08:59:36.672Z</time></trkpt><trkpt lat="39.7853933" lon="8.6379517"><ele>14.0</ele><time>2026-05-03T08:59:37.672Z</time></trkpt><trkpt lat="39.7852567" lon="8.6379433"><ele>14.0</ele><time>2026-05-03T08:59:38.671Z</time></trkpt><trkpt lat="39.7851283" lon="8.6378983"><ele>14.0</ele><time>2026-05-03T08:59:39.671Z</time></trkpt><trkpt lat="39.785" lon="8.637865"><ele>14.0</ele><time>2026-05-03T08:59:40.671Z</time></trkpt><trkpt lat="39.784875" lon="8.63784"><ele>14.25</ele><time>2026-05-03T08:59:41.671Z</time></trkpt><trkpt lat="39.7847483" lon="8.63785"><ele>14.5</ele><time>2026-05-03T08:59:42.672Z</time></trkpt><trkpt lat="39.7846267" lon="8.637875"><ele>14.75</ele><time>2026-05-03T08:59:43.672Z</time></trkpt><trkpt lat="39.7845117" lon="8.6379083"><ele>15.0</ele><time>2026-05-03T08:59:44.671Z</time></trkpt><trkpt lat="39.784395" lon="8.6379567"><ele>14.75</ele><time>2026-05-03T08:59:45.671Z</time></trkpt><trkpt lat="39.7842717" lon="8.6380083"><ele>14.5</ele><time>2026-05-03T08:59:46.672Z</time></trkpt><trkpt lat="39.7841417" lon="8.63805"><ele>14.25</ele><time>2026-05-03T08:59:47.671Z</time></trkpt><trkpt lat="39.7839967" lon="8.6380617"><ele>14.0</ele><time>2026-05-03T08:59:48.672Z</time></trkpt><trkpt lat="39.7838467" lon="8.6380767"><ele>14.0</ele><time>2026-05-03T08:59:49.671Z</time></trkpt><trkpt lat="39.7837" lon="8.6381033"><ele>14.0</ele><time>2026-05-03T08:59:50.672Z</time></trkpt><trkpt lat="39.7835617" lon="8.6381433"><ele>14.0</ele><time>2026-05-03T08:59:51.671Z</time></trkpt><trkpt lat="39.7834317" lon="8.6381717"><ele>14.0</ele><time>2026-05-03T08:59:52.671Z</time></trkpt><trkpt lat="39.78331" lon="8.6381783"><ele>14.0</ele><time>2026-05-03T08:59:53.672Z</time></trkpt><trkpt lat="39.7832017" lon="8.6381467"><ele>14.0</ele><time>2026-05-03T08:59:54.671Z</time></trkpt><trkpt lat="39.7830983" lon="8.63807"><ele>14.0</ele><time>2026-05-03T08:59:55.672Z</time></trkpt><trkpt lat="39.7829933" lon="8.6379567"><ele>14.0</ele><time>2026-05-03T08:59:56.671Z</time></trkpt><trkpt lat="39.7828883" lon="8.637825"><ele>14.0</ele><time>2026-05-03T08:59:57.671Z</time></trkpt><trkpt lat="39.782785" lon="8.637675"><ele>14.0</ele><time>2026-05-03T08:59:58.672Z</time></trkpt><trkpt lat="39.7826867" lon="8.6375133"><ele>14.0</ele><time>2026-05-03T08:59:59.671Z</time></trkpt><trkpt lat="39.7826033" lon="8.6373433"><ele>13.75</ele><time>2026-05-03T09:00:00.671Z</time></trkpt><trkpt lat="39.7825317" lon="8.6371567"><ele>13.5</ele><time>2026-05-03T09:00:01.672Z</time></trkpt><trkpt lat="39.78249" lon="8.6369717"><ele>13.25</ele><time>2026-05-03T09:00:02.671Z</time></trkpt><trkpt lat="39.78246" lon="8.6367983"><ele>13.0</ele><time>2026-05-03T09:00:03.672Z</time></trkpt><trkpt lat="39.7824367" lon="8.63664"><ele>12.75</ele><time>2026-05-03T09:00:04.672Z</time></trkpt><trkpt lat="39.7824167" lon="8.6364933"><ele>12.5</ele><time>2026-05-03T09:00:05.672Z</time></trkpt><trkpt lat="39.7823683" lon="8.6363567"><ele>12.25</ele><time>2026-05-03T09:00:06.671Z</time></trkpt><trkpt lat="39.78229" lon="8.6362383"><ele>12.0</ele><time>2026-05-03T09:00:07.671Z</time></trkpt><trkpt lat="39.782195" lon="8.6361267"><ele>11.75</ele><time>2026-05-03T09:00:08.671Z</time></trkpt><trkpt lat="39.7820933" lon="8.63601"><ele>11.5</ele><time>2026-05-03T09:00:09.671Z</time></trkpt><trkpt lat="39.7819917" lon="8.6358633"><ele>11.25</ele><time>2026-05-03T09:00:10.671Z</time></trkpt><trkpt lat="39.7818967" lon="8.6357133"><ele>11.0</ele><time>2026-05-03T09:00:11.671Z</time></trkpt><trkpt lat="39.7817967" lon="8.6355633"><ele>10.25</ele><time>2026-05-03T09:00:12.672Z</time></trkpt><trkpt lat="39.78169" lon="8.6354233"><ele>9.5</ele><time>2026-05-03T09:00:13.671Z</time></trkpt><trkpt lat="39.78158" lon="8.6353117"><ele>8.75</ele><time>2026-05-03T09:00:14.672Z</time></trkpt><trkpt lat="39.7814667" lon="8.6352317"><ele>8.0</ele><time>2026-05-03T09:00:15.671Z</time></trkpt><trkpt lat="39.7813517" lon="8.6351633"><ele>8.0</ele><time>2026-05-03T09:00:16.671Z</time></trkpt><trkpt lat="39.7812267" lon="8.6351067"><ele>8.0</ele><time>2026-05-03T09:00:17.672Z</time></trkpt><trkpt lat="39.7811183" lon="8.6350483"><ele>8.0</ele><time>2026-05-03T09:00:18.671Z</time></trkpt><trkpt lat="39.7810333" lon="8.6349683"><ele>8.0</ele><time>2026-05-03T09:00:19.672Z</time></trkpt><trkpt lat="39.7809567" lon="8.634855"><ele>8.4</ele><time>2026-05-03T09:00:20.671Z</time></trkpt><trkpt lat="39.7808867" lon="8.6347517"><ele>8.8</ele><time>2026-05-03T09:00:21.672Z</time></trkpt><trkpt lat="39.7807983" lon="8.6346783"><ele>9.2</ele><time>2026-05-03T09:00:22.671Z</time></trkpt><trkpt lat="39.7806917" lon="8.6346383"><ele>9.6</ele><time>2026-05-03T09:00:23.671Z</time></trkpt><trkpt lat="39.78057" lon="8.6346233"><ele>10.0</ele><time>2026-05-03T09:00:24.671Z</time></trkpt><trkpt lat="39.7804317" lon="8.6346083"><ele>10.0</ele><time>2026-05-03T09:00:25.671Z</time></trkpt><trkpt lat="39.7802917" lon="8.63463"><ele>10.0</ele><time>2026-05-03T09:00:26.671Z</time></trkpt><trkpt lat="39.78014" lon="8.6346717"><ele>10.0</ele><time>2026-05-03T09:00:27.671Z</time></trkpt><trkpt lat="39.779975" lon="8.6347233"><ele>9.666666666666668</ele><time>2026-05-03T09:00:28.671Z</time></trkpt><trkpt lat="39.779815" lon="8.634785"><ele>9.333333333333334</ele><time>2026-05-03T09:00:29.672Z</time></trkpt><trkpt lat="39.7796717" lon="8.6348567"><ele>9.0</ele><time>2026-05-03T09:00:30.672Z</time></trkpt><trkpt lat="39.77955" lon="8.6349533"><ele>9.0</ele><time>2026-05-03T09:00:31.671Z</time></trkpt><trkpt lat="39.7794383" lon="8.6350717"><ele>9.0</ele><time>2026-05-03T09:00:32.671Z</time></trkpt><trkpt lat="39.77935" lon="8.6352117"><ele>9.0</ele><time>2026-05-03T09:00:33.671Z</time></trkpt><trkpt lat="39.779285" lon="8.635385"><ele>9.0</ele><time>2026-05-03T09:00:34.671Z</time></trkpt><trkpt lat="39.7792567" lon="8.6355767"><ele>8.333333333333334</ele><time>2026-05-03T09:00:35.671Z</time></trkpt><trkpt lat="39.7792433" lon="8.6358017"><ele>7.666666666666667</ele><time>2026-05-03T09:00:36.671Z</time></trkpt><trkpt lat="39.7792367" lon="8.6360167"><ele>7.0</ele><time>2026-05-03T09:00:37.672Z</time></trkpt><trkpt lat="39.7792133" lon="8.6362067"><ele>7.0</ele><time>2026-05-03T09:00:38.671Z</time></trkpt><trkpt lat="39.7791633" lon="8.6363767"><ele>7.0</ele><time>2026-05-03T09:00:39.671Z</time></trkpt><trkpt lat="39.7790883" lon="8.63654"><ele>7.0</ele><time>2026-05-03T09:00:40.671Z</time></trkpt><trkpt lat="39.7789883" lon="8.6366933"><ele>7.0</ele><time>2026-05-03T09:00:41.672Z</time></trkpt><trkpt lat="39.77887" lon="8.6368117"><ele>7.0</ele><time>2026-05-03T09:00:42.672Z</time></trkpt><trkpt lat="39.7787517" lon="8.6368867"><ele>7.0</ele><time>2026-05-03T09:00:43.671Z</time></trkpt><trkpt lat="39.778615" lon="8.6369283"><ele>7.0</ele><time>2026-05-03T09:00:44.671Z</time></trkpt><trkpt lat="39.7784617" lon="8.6369533"><ele>7.0</ele><time>2026-05-03T09:00:45.671Z</time></trkpt><trkpt lat="39.7782917" lon="8.6369767"><ele>6.333333333333334</ele><time>2026-05-03T09:00:46.671Z</time></trkpt><trkpt lat="39.7781183" lon="8.6369967"><ele>5.666666666666667</ele><time>2026-05-03T09:00:47.671Z</time></trkpt><trkpt lat="39.7779567" lon="8.6370033"><ele>5.0</ele><time>2026-05-03T09:00:48.671Z</time></trkpt><trkpt lat="39.7778017" lon="8.636985"><ele>5.25</ele><time>2026-05-03T09:00:49.672Z</time></trkpt><trkpt lat="39.7776633" lon="8.63694"><ele>5.5</ele><time>2026-05-03T09:00:50.671Z</time></trkpt><trkpt lat="39.7775317" lon="8.6368717"><ele>5.75</ele><time>2026-05-03T09:00:51.671Z</time></trkpt><trkpt lat="39.7774033" lon="8.636775"><ele>6.0</ele><time>2026-05-03T09:00:52.671Z</time></trkpt><trkpt lat="39.7772917" lon="8.63664"><ele>6.0</ele><time>2026-05-03T09:00:53.672Z</time></trkpt><trkpt lat="39.7771817" lon="8.63648"><ele>6.0</ele><time>2026-05-03T09:00:54.672Z</time></trkpt><trkpt lat="39.77709" lon="8.6362883"><ele>6.0</ele><time>2026-05-03T09:00:55.671Z</time></trkpt><trkpt lat="39.7770017" lon="8.6360817"><ele>5.666666666666667</ele><time>2026-05-03T09:00:56.672Z</time></trkpt><trkpt lat="39.7769217" lon="8.6358867"><ele>5.333333333333334</ele><time>2026-05-03T09:00:57.671Z</time></trkpt><trkpt lat="39.7768517" lon="8.635685"><ele>5.0</ele><time>2026-05-03T09:00:58.671Z</time></trkpt><trkpt lat="39.77678" lon="8.6354817"><ele>5.666666666666667</ele><time>2026-05-03T09:00:59.671Z</time></trkpt><trkpt lat="39.776725" lon="8.6352533"><ele>6.333333333333334</ele><time>2026-05-03T09:01:00.671Z</time></trkpt><trkpt lat="39.776695" lon="8.6350333"><ele>7.0</ele><time>2026-05-03T09:01:01.671Z</time></trkpt><trkpt lat="39.77668" lon="8.6348183"><ele>7.0</ele><time>2026-05-03T09:01:02.671Z</time></trkpt><trkpt lat="39.7766883" lon="8.63461"><ele>7.0</ele><time>2026-05-03T09:01:03.671Z</time></trkpt><trkpt lat="39.7767167" lon="8.6343833"><ele>7.0</ele><time>2026-05-03T09:01:04.671Z</time></trkpt><trkpt lat="39.7767517" lon="8.6341567"><ele>7.0</ele><time>2026-05-03T09:01:05.671Z</time></trkpt><trkpt lat="39.7767583" lon="8.63393"><ele>7.0</ele><time>2026-05-03T09:01:06.671Z</time></trkpt><trkpt lat="39.7767533" lon="8.6337067"><ele>7.0</ele><time>2026-05-03T09:01:07.672Z</time></trkpt><trkpt lat="39.7767233" lon="8.6334767"><ele>7.0</ele><time>2026-05-03T09:01:08.671Z</time></trkpt><trkpt lat="39.7766883" lon="8.6332617"><ele>7.0</ele><time>2026-05-03T09:01:09.671Z</time></trkpt><trkpt lat="39.7766467" lon="8.633075"><ele>7.0</ele><time>2026-05-03T09:01:10.671Z</time></trkpt><trkpt lat="39.7766067" lon="8.6329133"><ele>7.0</ele><time>2026-05-03T09:01:11.672Z</time></trkpt><trkpt lat="39.776575" lon="8.63277"><ele>7.0</ele><time>2026-05-03T09:01:12.671Z</time></trkpt><trkpt lat="39.776545" lon="8.6326433"><ele>6.999999999999999</ele><time>2026-05-03T09:01:13.671Z</time></trkpt><trkpt lat="39.776515" lon="8.6325283"><ele>6.999999999999999</ele><time>2026-05-03T09:01:14.672Z</time></trkpt><trkpt lat="39.7765017" lon="8.632435"><ele>7.0</ele><time>2026-05-03T09:01:15.671Z</time></trkpt><trkpt lat="39.7765283" lon="8.6323267"><ele>7.0</ele><time>2026-05-03T09:01:17.672Z</time></trkpt><trkpt lat="39.7766333" lon="8.6322817"><ele>7.000000000000001</ele><time>2026-05-03T09:01:19.671Z</time></trkpt><trkpt lat="39.7767067" lon="8.6322567"><ele>7.0</ele><time>2026-05-03T09:01:21.671Z</time></trkpt><trkpt lat="39.77672" lon="8.63217"><ele>7.0</ele><time>2026-05-03T09:01:23.671Z</time></trkpt><trkpt lat="39.776665" lon="8.6320517"><ele>7.0</ele><time>2026-05-03T09:01:25.672Z</time></trkpt><trkpt lat="39.7766267" lon="8.6319767"><ele>7.000000000000001</ele><time>2026-05-03T09:01:26.671Z</time></trkpt><trkpt lat="39.7765783" lon="8.6318833"><ele>7.0</ele><time>2026-05-03T09:01:27.672Z</time></trkpt><trkpt lat="39.776525" lon="8.6317933"><ele>7.0</ele><time>2026-05-03T09:01:28.672Z</time></trkpt><trkpt lat="39.7764733" lon="8.631695"><ele>6.999999999999999</ele><time>2026-05-03T09:01:29.671Z</time></trkpt><trkpt lat="39.7764167" lon="8.6316"><ele>6.999999999999999</ele><time>2026-05-03T09:01:30.671Z</time></trkpt><trkpt lat="39.7763617" lon="8.631495"><ele>7.0</ele><time>2026-05-03T09:01:31.672Z</time></trkpt><trkpt lat="39.7763183" lon="8.6314033"><ele>7.0</ele><time>2026-05-03T09:01:32.671Z</time></trkpt><trkpt lat="39.7762683" lon="8.6312567"><ele>7.0</ele><time>2026-05-03T09:01:34.671Z</time></trkpt><trkpt lat="39.7762217" lon="8.6311767"><ele>6.999999999999999</ele><time>2026-05-03T09:01:35.672Z</time></trkpt><trkpt lat="39.776145" lon="8.631095"><ele>6.999999999999999</ele><time>2026-05-03T09:01:36.671Z</time></trkpt><trkpt lat="39.7760433" lon="8.6310083"><ele>7.0</ele><time>2026-05-03T09:01:37.672Z</time></trkpt><trkpt lat="39.7759383" lon="8.63092"><ele>7.0</ele><time>2026-05-03T09:01:38.671Z</time></trkpt><trkpt lat="39.775835" lon="8.63084"><ele>7.8</ele><time>2026-05-03T09:01:39.671Z</time></trkpt><trkpt lat="39.7757433" lon="8.630775"><ele>8.6</ele><time>2026-05-03T09:01:40.671Z</time></trkpt><trkpt lat="39.7756617" lon="8.6307133"><ele>9.4</ele><time>2026-05-03T09:01:41.672Z</time></trkpt><trkpt lat="39.7755733" lon="8.6306533"><ele>10.200000000000001</ele><time>2026-05-03T09:01:42.672Z</time></trkpt><trkpt lat="39.7754567" lon="8.6305833"><ele>11.0</ele><time>2026-05-03T09:01:43.672Z</time></trkpt><trkpt lat="39.775315" lon="8.63051"><ele>10.0</ele><time>2026-05-03T09:01:44.672Z</time></trkpt><trkpt lat="39.77516" lon="8.6304433"><ele>9.0</ele><time>2026-05-03T09:01:45.672Z</time></trkpt><trkpt lat="39.7750067" lon="8.6303733"><ele>8.0</ele><time>2026-05-03T09:01:46.671Z</time></trkpt><trkpt lat="39.7748617" lon="8.6303167"><ele>8.4</ele><time>2026-05-03T09:01:47.672Z</time></trkpt><trkpt lat="39.7747383" lon="8.630255"><ele>8.8</ele><time>2026-05-03T09:01:48.672Z</time></trkpt><trkpt lat="39.7746383" lon="8.6302217"><ele>9.2</ele><time>2026-05-03T09:01:49.671Z</time></trkpt><trkpt lat="39.7745617" lon="8.6301817"><ele>9.6</ele><time>2026-05-03T09:01:50.671Z</time></trkpt><trkpt lat="39.7745067" lon="8.6300617"><ele>10.0</ele><time>2026-05-03T09:01:52.671Z</time></trkpt><trkpt lat="39.77453" lon="8.629955"><ele>10.0</ele><time>2026-05-03T09:01:53.671Z</time></trkpt><trkpt lat="39.7745733" lon="8.629825"><ele>10.0</ele><time>2026-05-03T09:01:54.672Z</time></trkpt><trkpt lat="39.774635" lon="8.6296683"><ele>10.0</ele><time>2026-05-03T09:01:55.671Z</time></trkpt><trkpt lat="39.7747017" lon="8.62951"><ele>10.0</ele><time>2026-05-03T09:01:56.671Z</time></trkpt><trkpt lat="39.7747833" lon="8.6293533"><ele>8.666666666666668</ele><time>2026-05-03T09:01:57.671Z</time></trkpt><trkpt lat="39.774865" lon="8.62918"><ele>7.333333333333334</ele><time>2026-05-03T09:01:58.671Z</time></trkpt><trkpt lat="39.77495" lon="8.6290033"><ele>6.0</ele><time>2026-05-03T09:01:59.671Z</time></trkpt><trkpt lat="39.7750333" lon="8.6288233"><ele>6.0</ele><time>2026-05-03T09:02:00.672Z</time></trkpt><trkpt lat="39.7751167" lon="8.6286433"><ele>6.0</ele><time>2026-05-03T09:02:01.671Z</time></trkpt><trkpt lat="39.7752133" lon="8.6284783"><ele>6.0</ele><time>2026-05-03T09:02:02.671Z</time></trkpt><trkpt lat="39.775325" lon="8.62831"><ele>5.333333333333333</ele><time>2026-05-03T09:02:03.672Z</time></trkpt><trkpt lat="39.7754483" lon="8.6281433"><ele>4.666666666666666</ele><time>2026-05-03T09:02:04.672Z</time></trkpt><trkpt lat="39.7755533" lon="8.62799"><ele>4.0</ele><time>2026-05-03T09:02:05.671Z</time></trkpt><trkpt lat="39.775655" lon="8.6278183"><ele>3.6666666666666665</ele><time>2026-05-03T09:02:06.671Z</time></trkpt><trkpt lat="39.7757467" lon="8.627625"><ele>3.333333333333333</ele><time>2026-05-03T09:02:07.672Z</time></trkpt><trkpt lat="39.7758283" lon="8.6274233"><ele>3.0</ele><time>2026-05-03T09:02:08.671Z</time></trkpt><trkpt lat="39.775915" lon="8.6272217"><ele>3.0</ele><time>2026-05-03T09:02:09.672Z</time></trkpt><trkpt lat="39.7760033" lon="8.6270583"><ele>3.0</ele><time>2026-05-03T09:02:10.672Z</time></trkpt><trkpt lat="39.776095" lon="8.6269333"><ele>3.0</ele><time>2026-05-03T09:02:11.672Z</time></trkpt><trkpt lat="39.7761917" lon="8.6268333"><ele>3.0</ele><time>2026-05-03T09:02:12.671Z</time></trkpt><trkpt lat="39.7763083" lon="8.6267417"><ele>4.0</ele><time>2026-05-03T09:02:13.672Z</time></trkpt><trkpt lat="39.7764367" lon="8.6266317"><ele>5.0</ele><time>2026-05-03T09:02:14.672Z</time></trkpt><trkpt lat="39.7765583" lon="8.62651"><ele>6.0</ele><time>2026-05-03T09:02:15.672Z</time></trkpt><trkpt lat="39.7766767" lon="8.6263533"><ele>6.0</ele><time>2026-05-03T09:02:16.671Z</time></trkpt><trkpt lat="39.7767817" lon="8.626205"><ele>6.0</ele><time>2026-05-03T09:02:17.671Z</time></trkpt><trkpt lat="39.7768917" lon="8.6260517"><ele>6.0</ele><time>2026-05-03T09:02:18.671Z</time></trkpt><trkpt lat="39.7770033" lon="8.62592"><ele>5.0</ele><time>2026-05-03T09:02:19.672Z</time></trkpt><trkpt lat="39.7771183" lon="8.6258033"><ele>4.0</ele><time>2026-05-03T09:02:20.671Z</time></trkpt><trkpt lat="39.7772483" lon="8.6257"><ele>3.0</ele><time>2026-05-03T09:02:21.672Z</time></trkpt><trkpt lat="39.7773733" lon="8.6256"><ele>2.0</ele><time>2026-05-03T09:02:22.672Z</time></trkpt><trkpt lat="39.7775" lon="8.6255083"><ele>2.0</ele><time>2026-05-03T09:02:23.672Z</time></trkpt><trkpt lat="39.7776167" lon="8.6254067"><ele>2.0</ele><time>2026-05-03T09:02:24.671Z</time></trkpt><trkpt lat="39.777735" lon="8.625275"><ele>2.0</ele><time>2026-05-03T09:02:25.671Z</time></trkpt><trkpt lat="39.7778567" lon="8.6251433"><ele>2.333333333333333</ele><time>2026-05-03T09:02:26.672Z</time></trkpt><trkpt lat="39.7779817" lon="8.6250133"><ele>2.6666666666666665</ele><time>2026-05-03T09:02:27.672Z</time></trkpt><trkpt lat="39.7780983" lon="8.6249017"><ele>3.0</ele><time>2026-05-03T09:02:28.671Z</time></trkpt><trkpt lat="39.7782333" lon="8.6248117"><ele>3.0</ele><time>2026-05-03T09:02:29.672Z</time></trkpt><trkpt lat="39.7783733" lon="8.62474"><ele>3.0</ele><time>2026-05-03T09:02:30.671Z</time></trkpt><trkpt lat="39.778505" lon="8.6246733"><ele>3.0</ele><time>2026-05-03T09:02:31.671Z</time></trkpt><trkpt lat="39.7786383" lon="8.6246283"><ele>3.0</ele><time>2026-05-03T09:02:32.671Z</time></trkpt><trkpt lat="39.7787817" lon="8.6246017"><ele>2.75</ele><time>2026-05-03T09:02:33.672Z</time></trkpt><trkpt lat="39.7789233" lon="8.6245817"><ele>2.5</ele><time>2026-05-03T09:02:34.671Z</time></trkpt><trkpt lat="39.7790417" lon="8.624555"><ele>2.25</ele><time>2026-05-03T09:02:35.672Z</time></trkpt><trkpt lat="39.779145" lon="8.6245317"><ele>2.0</ele><time>2026-05-03T09:02:36.672Z</time></trkpt><trkpt lat="39.779245" lon="8.6244933"><ele>1.75</ele><time>2026-05-03T09:02:37.672Z</time></trkpt><trkpt lat="39.7793483" lon="8.6244683"><ele>1.5</ele><time>2026-05-03T09:02:38.672Z</time></trkpt><trkpt lat="39.77947" lon="8.6244467"><ele>1.25</ele><time>2026-05-03T09:02:39.671Z</time></trkpt><trkpt lat="39.7796067" lon="8.6244267"><ele>1.0</ele><time>2026-05-03T09:02:40.671Z</time></trkpt><trkpt lat="39.7797483" lon="8.6244067"><ele>1.0</ele><time>2026-05-03T09:02:41.671Z</time></trkpt><trkpt lat="39.7798983" lon="8.6243717"><ele>1.0</ele><time>2026-05-03T09:02:42.671Z</time></trkpt><trkpt lat="39.7800367" lon="8.624325"><ele>1.0</ele><time>2026-05-03T09:02:43.671Z</time></trkpt><trkpt lat="39.7801567" lon="8.624275"><ele>1.0</ele><time>2026-05-03T09:02:44.671Z</time></trkpt><trkpt lat="39.7802517" lon="8.6242233"><ele>1.1666666666666665</ele><time>2026-05-03T09:02:45.672Z</time></trkpt><trkpt lat="39.7803217" lon="8.6241583"><ele>1.3333333333333333</ele><time>2026-05-03T09:02:46.671Z</time></trkpt><trkpt lat="39.7803617" lon="8.6240817"><ele>1.5</ele><time>2026-05-03T09:02:47.671Z</time></trkpt><trkpt lat="39.780375" lon="8.624"><ele>1.6666666666666665</ele><time>2026-05-03T09:02:48.672Z</time></trkpt><trkpt lat="39.7803717" lon="8.6239133"><ele>1.8333333333333333</ele><time>2026-05-03T09:02:49.671Z</time></trkpt><trkpt lat="39.7803033" lon="8.62379"><ele>2.0</ele><time>2026-05-03T09:02:51.671Z</time></trkpt><trkpt lat="39.780185" lon="8.62373"><ele>1.8333333333333333</ele><time>2026-05-03T09:02:53.671Z</time></trkpt><trkpt lat="39.780095" lon="8.6236933"><ele>1.6666666666666665</ele><time>2026-05-03T09:02:54.672Z</time></trkpt><trkpt lat="39.7800017" lon="8.6236567"><ele>1.5</ele><time>2026-05-03T09:02:55.671Z</time></trkpt><trkpt lat="39.7799233" lon="8.623595"><ele>1.3333333333333333</ele><time>2026-05-03T09:02:56.672Z</time></trkpt><trkpt lat="39.7798633" lon="8.623545"><ele>1.1666666666666665</ele><time>2026-05-03T09:02:57.671Z</time></trkpt><trkpt lat="39.779805" lon="8.6234983"><ele>1.0</ele><time>2026-05-03T09:02:58.671Z</time></trkpt><trkpt lat="39.7797417" lon="8.62347"><ele>0.8</ele><time>2026-05-03T09:02:59.671Z</time></trkpt><trkpt lat="39.7796617" lon="8.6234767"><ele>0.6000000000000001</ele><time>2026-05-03T09:03:00.671Z</time></trkpt><trkpt lat="39.7795633" lon="8.6235067"><ele>0.4</ele><time>2026-05-03T09:03:01.671Z</time></trkpt><trkpt lat="39.7794333" lon="8.623535"><ele>0.2</ele><time>2026-05-03T09:03:02.671Z</time></trkpt><trkpt lat="39.7793017" lon="8.6235683"><ele>0.0</ele><time>2026-05-03T09:03:03.672Z</time></trkpt><trkpt lat="39.7791783" lon="8.6236033"><ele>0.25</ele><time>2026-05-03T09:03:04.671Z</time></trkpt><trkpt lat="39.7790567" lon="8.6236417"><ele>0.5</ele><time>2026-05-03T09:03:05.671Z</time></trkpt><trkpt lat="39.77894" lon="8.6236533"><ele>0.75</ele><time>2026-05-03T09:03:06.671Z</time></trkpt><trkpt lat="39.7788133" lon="8.62362"><ele>1.0</ele><time>2026-05-03T09:03:07.672Z</time></trkpt><trkpt lat="39.7786867" lon="8.6235617"><ele>1.3333333333333333</ele><time>2026-05-03T09:03:08.672Z</time></trkpt><trkpt lat="39.7785517" lon="8.6234683"><ele>1.6666666666666665</ele><time>2026-05-03T09:03:09.671Z</time></trkpt><trkpt lat="39.7783967" lon="8.6233483"><ele>2.0</ele><time>2026-05-03T09:03:10.672Z</time></trkpt><trkpt lat="39.778235" lon="8.62322"><ele>2.0</ele><time>2026-05-03T09:03:11.672Z</time></trkpt><trkpt lat="39.7780733" lon="8.6230933"><ele>2.0</ele><time>2026-05-03T09:03:12.672Z</time></trkpt><trkpt lat="39.7779067" lon="8.6230033"><ele>2.0</ele><time>2026-05-03T09:03:13.671Z</time></trkpt><trkpt lat="39.777745" lon="8.6229117"><ele>2.333333333333333</ele><time>2026-05-03T09:03:14.671Z</time></trkpt><trkpt lat="39.77756" lon="8.622845"><ele>2.6666666666666665</ele><time>2026-05-03T09:03:15.671Z</time></trkpt><trkpt lat="39.7773717" lon="8.6227833"><ele>3.0</ele><time>2026-05-03T09:03:16.672Z</time></trkpt><trkpt lat="39.7771733" lon="8.62273"><ele>2.3333333333333335</ele><time>2026-05-03T09:03:17.671Z</time></trkpt><trkpt lat="39.77697" lon="8.6226783"><ele>1.6666666666666665</ele><time>2026-05-03T09:03:18.671Z</time></trkpt><trkpt lat="39.7767717" lon="8.6226267"><ele>1.0</ele><time>2026-05-03T09:03:19.671Z</time></trkpt><trkpt lat="39.77657" lon="8.62258"><ele>1.0</ele><time>2026-05-03T09:03:20.67Z</time></trkpt><trkpt lat="39.776385" lon="8.6225267"><ele>1.0</ele><time>2026-05-03T09:03:21.671Z</time></trkpt><trkpt lat="39.7762083" lon="8.62247"><ele>1.0</ele><time>2026-05-03T09:03:22.67Z</time></trkpt><trkpt lat="39.7760467" lon="8.6223983"><ele>1.6666666666666665</ele><time>2026-05-03T09:03:23.67Z</time></trkpt><trkpt lat="39.775885" lon="8.6223133"><ele>2.3333333333333335</ele><time>2026-05-03T09:03:24.67Z</time></trkpt><trkpt lat="39.7757217" lon="8.6222067"><ele>3.0</ele><time>2026-05-03T09:03:25.671Z</time></trkpt><trkpt lat="39.7755467" lon="8.6220667"><ele>2.3333333333333335</ele><time>2026-05-03T09:03:26.67Z</time></trkpt><trkpt lat="39.77538" lon="8.621935"><ele>1.6666666666666665</ele><time>2026-05-03T09:03:27.67Z</time></trkpt><trkpt lat="39.7752033" lon="8.6217933"><ele>1.0</ele><time>2026-05-03T09:03:28.67Z</time></trkpt><trkpt lat="39.7750317" lon="8.62166"><ele>1.0</ele><time>2026-05-03T09:03:29.67Z</time></trkpt><trkpt lat="39.77486" lon="8.6215483"><ele>1.0</ele><time>2026-05-03T09:03:30.67Z</time></trkpt><trkpt lat="39.774695" lon="8.62146"><ele>1.0</ele><time>2026-05-03T09:03:31.67Z</time></trkpt><trkpt lat="39.7745483" lon="8.62139"><ele>1.0</ele><time>2026-05-03T09:03:32.671Z</time></trkpt><trkpt lat="39.7744233" lon="8.62134"><ele>1.0</ele><time>2026-05-03T09:03:33.671Z</time></trkpt><trkpt lat="39.774315" lon="8.6213133"><ele>1.0</ele><time>2026-05-03T09:03:34.671Z</time></trkpt><trkpt lat="39.774215" lon="8.621285"><ele>1.0</ele><time>2026-05-03T09:03:35.671Z</time></trkpt><trkpt lat="39.7741433" lon="8.621255"><ele>1.0</ele><time>2026-05-03T09:03:36.671Z</time></trkpt><trkpt lat="39.7740967" lon="8.6211967"><ele>1.25</ele><time>2026-05-03T09:03:37.671Z</time></trkpt><trkpt lat="39.7740533" lon="8.6210067"><ele>1.5</ele><time>2026-05-03T09:03:39.671Z</time></trkpt><trkpt lat="39.7740567" lon="8.62087"><ele>1.75</ele><time>2026-05-03T09:03:40.67Z</time></trkpt><trkpt lat="39.77408" lon="8.62069"><ele>2.0</ele><time>2026-05-03T09:03:41.67Z</time></trkpt><trkpt lat="39.7741" lon="8.6204617"><ele>1.3333333333333333</ele><time>2026-05-03T09:03:42.67Z</time></trkpt><trkpt lat="39.7741" lon="8.6202133"><ele>0.6666666666666666</ele><time>2026-05-03T09:03:43.67Z</time></trkpt><trkpt lat="39.7741067" lon="8.6199367"><ele>0.0</ele><time>2026-05-03T09:03:44.67Z</time></trkpt><trkpt lat="39.7741033" lon="8.61966"><ele>0.0</ele><time>2026-05-03T09:03:45.671Z</time></trkpt><trkpt lat="39.7740983" lon="8.6193817"><ele>0.0</ele><time>2026-05-03T09:03:46.67Z</time></trkpt><trkpt lat="39.7741117" lon="8.6190967"><ele>0.0</ele><time>2026-05-03T09:03:47.67Z</time></trkpt><trkpt lat="39.7741183" lon="8.6188283"><ele>0.3333333333333333</ele><time>2026-05-03T09:03:48.671Z</time></trkpt><trkpt lat="39.774115" lon="8.6185783"><ele>0.6666666666666666</ele><time>2026-05-03T09:03:49.67Z</time></trkpt><trkpt lat="39.774105" lon="8.6183483"><ele>1.0</ele><time>2026-05-03T09:03:50.671Z</time></trkpt><trkpt lat="39.7741067" lon="8.6181267"><ele>1.0</ele><time>2026-05-03T09:03:51.671Z</time></trkpt><trkpt lat="39.774115" lon="8.6179317"><ele>1.0</ele><time>2026-05-03T09:03:52.67Z</time></trkpt><trkpt lat="39.774115" lon="8.6177083"><ele>1.0</ele><time>2026-05-03T09:03:53.67Z</time></trkpt><trkpt lat="39.7741133" lon="8.6175017"><ele>0.6666666666666666</ele><time>2026-05-03T09:03:54.67Z</time></trkpt><trkpt lat="39.7741117" lon="8.6172917"><ele>0.3333333333333333</ele><time>2026-05-03T09:03:55.67Z</time></trkpt><trkpt lat="39.7741167" lon="8.6170867"><ele>0.0</ele><time>2026-05-03T09:03:56.67Z</time></trkpt><trkpt lat="39.77412" lon="8.6168733"><ele>-0.3333333333333333</ele><time>2026-05-03T09:03:57.67Z</time></trkpt><trkpt lat="39.7741083" lon="8.6166583"><ele>-0.6666666666666666</ele><time>2026-05-03T09:03:58.67Z</time></trkpt><trkpt lat="39.7741083" lon="8.6164367"><ele>-1.0</ele><time>2026-05-03T09:03:59.67Z</time></trkpt><trkpt lat="39.77411" lon="8.6162133"><ele>-1.0</ele><time>2026-05-03T09:04:00.67Z</time></trkpt><trkpt lat="39.774105" lon="8.6159833"><ele>-1.0</ele><time>2026-05-03T09:04:01.67Z</time></trkpt><trkpt lat="39.774105" lon="8.6157367"><ele>-1.0</ele><time>2026-05-03T09:04:02.67Z</time></trkpt><trkpt lat="39.7740967" lon="8.6154983"><ele>-1.0</ele><time>2026-05-03T09:04:03.67Z</time></trkpt><trkpt lat="39.7740983" lon="8.615235"><ele>-1.0</ele><time>2026-05-03T09:04:04.67Z</time></trkpt><trkpt lat="39.7741017" lon="8.6149583"><ele>-1.0</ele><time>2026-05-03T09:04:05.67Z</time></trkpt><trkpt lat="39.7741033" lon="8.6146633"><ele>-1.0</ele><time>2026-05-03T09:04:06.671Z</time></trkpt><trkpt lat="39.7740983" lon="8.614345"><ele>-1.0</ele><time>2026-05-03T09:04:07.67Z</time></trkpt><trkpt lat="39.7740833" lon="8.6140283"><ele>-1.0</ele><time>2026-05-03T09:04:08.67Z</time></trkpt><trkpt lat="39.7740883" lon="8.6136817"><ele>-1.0</ele><time>2026-05-03T09:04:09.671Z</time></trkpt><trkpt lat="39.7740967" lon="8.6133483"><ele>-1.0</ele><time>2026-05-03T09:04:10.67Z</time></trkpt><trkpt lat="39.77409" lon="8.6130567"><ele>-1.0</ele><time>2026-05-03T09:04:11.671Z</time></trkpt><trkpt lat="39.774085" lon="8.6127933"><ele>-1.0</ele><time>2026-05-03T09:04:12.67Z</time></trkpt><trkpt lat="39.77409" lon="8.6125333"><ele>-1.0</ele><time>2026-05-03T09:04:13.67Z</time></trkpt><trkpt lat="39.7740867" lon="8.6122833"><ele>-1.0</ele><time>2026-05-03T09:04:14.67Z</time></trkpt><trkpt lat="39.7740917" lon="8.61203"><ele>-1.0</ele><time>2026-05-03T09:04:15.67Z</time></trkpt><trkpt lat="39.774085" lon="8.61181"><ele>-0.75</ele><time>2026-05-03T09:04:16.67Z</time></trkpt><trkpt lat="39.7740817" lon="8.6116233"><ele>-0.5</ele><time>2026-05-03T09:04:17.67Z</time></trkpt><trkpt lat="39.7740767" lon="8.61143"><ele>-0.25</ele><time>2026-05-03T09:04:18.67Z</time></trkpt><trkpt lat="39.77407" lon="8.61124"><ele>0.0</ele><time>2026-05-03T09:04:19.67Z</time></trkpt><trkpt lat="39.7740733" lon="8.611035"><ele>0.0</ele><time>2026-05-03T09:04:20.67Z</time></trkpt><trkpt lat="39.7740767" lon="8.6108233"><ele>0.0</ele><time>2026-05-03T09:04:21.67Z</time></trkpt><trkpt lat="39.7740717" lon="8.610615"><ele>0.0</ele><time>2026-05-03T09:04:22.671Z</time></trkpt><trkpt lat="39.7740767" lon="8.610395"><ele>0.0</ele><time>2026-05-03T09:04:23.671Z</time></trkpt><trkpt lat="39.7740817" lon="8.6101717"><ele>0.0</ele><time>2026-05-03T09:04:24.67Z</time></trkpt><trkpt lat="39.7740883" lon="8.6099283"><ele>0.0</ele><time>2026-05-03T09:04:25.67Z</time></trkpt><trkpt lat="39.7740917" lon="8.6096833"><ele>0.3333333333333333</ele><time>2026-05-03T09:04:26.671Z</time></trkpt><trkpt lat="39.7740933" lon="8.6094483"><ele>0.6666666666666666</ele><time>2026-05-03T09:04:27.671Z</time></trkpt><trkpt lat="39.7740967" lon="8.6092133"><ele>1.0</ele><time>2026-05-03T09:04:28.671Z</time></trkpt><trkpt lat="39.7740983" lon="8.608995"><ele>1.0</ele><time>2026-05-03T09:04:29.671Z</time></trkpt><trkpt lat="39.774095" lon="8.60879"><ele>1.0</ele><time>2026-05-03T09:04:30.67Z</time></trkpt><trkpt lat="39.7741017" lon="8.608605"><ele>1.0</ele><time>2026-05-03T09:04:31.67Z</time></trkpt><trkpt lat="39.7740967" lon="8.6084283"><ele>1.0</ele><time>2026-05-03T09:04:32.671Z</time></trkpt><trkpt lat="39.7740917" lon="8.6082583"><ele>0.75</ele><time>2026-05-03T09:04:33.67Z</time></trkpt><trkpt lat="39.77409" lon="8.6080933"><ele>0.5</ele><time>2026-05-03T09:04:34.671Z</time></trkpt><trkpt lat="39.7740933" lon="8.6079383"><ele>0.25</ele><time>2026-05-03T09:04:35.67Z</time></trkpt><trkpt lat="39.7740983" lon="8.6077867"><ele>0.0</ele><time>2026-05-03T09:04:36.67Z</time></trkpt><trkpt lat="39.7741033" lon="8.6076217"><ele>-0.25</ele><time>2026-05-03T09:04:37.67Z</time></trkpt><trkpt lat="39.7741067" lon="8.6074583"><ele>-0.5</ele><time>2026-05-03T09:04:38.67Z</time></trkpt><trkpt lat="39.7741017" lon="8.6072983"><ele>-0.75</ele><time>2026-05-03T09:04:39.67Z</time></trkpt><trkpt lat="39.7741067" lon="8.6071283"><ele>-1.0</ele><time>2026-05-03T09:04:40.67Z</time></trkpt><trkpt lat="39.7741033" lon="8.6069617"><ele>-1.0</ele><time>2026-05-03T09:04:41.67Z</time></trkpt><trkpt lat="39.7741117" lon="8.606785"><ele>-1.0</ele><time>2026-05-03T09:04:42.67Z</time></trkpt><trkpt lat="39.7741083" lon="8.6066083"><ele>-1.0</ele><time>2026-05-03T09:04:43.671Z</time></trkpt><trkpt lat="39.7740967" lon="8.606425"><ele>-1.0</ele><time>2026-05-03T09:04:44.67Z</time></trkpt><trkpt lat="39.7740933" lon="8.6062367"><ele>-1.0</ele><time>2026-05-03T09:04:45.671Z</time></trkpt><trkpt lat="39.774085" lon="8.6060533"><ele>-1.0</ele><time>2026-05-03T09:04:46.671Z</time></trkpt><trkpt lat="39.7740817" lon="8.6058683"><ele>-1.0</ele><time>2026-05-03T09:04:47.67Z</time></trkpt><trkpt lat="39.7740783" lon="8.6056883"><ele>-1.0</ele><time>2026-05-03T09:04:48.67Z</time></trkpt><trkpt lat="39.7740817" lon="8.6055067"><ele>-1.25</ele><time>2026-05-03T09:04:49.671Z</time></trkpt><trkpt lat="39.7740783" lon="8.6053167"><ele>-1.5</ele><time>2026-05-03T09:04:50.671Z</time></trkpt><trkpt lat="39.774085" lon="8.605125"><ele>-1.75</ele><time>2026-05-03T09:04:51.671Z</time></trkpt><trkpt lat="39.7740867" lon="8.6049533"><ele>-2.0</ele><time>2026-05-03T09:04:52.67Z</time></trkpt><trkpt lat="39.7740833" lon="8.604795"><ele>-2.0</ele><time>2026-05-03T09:04:53.67Z</time></trkpt><trkpt lat="39.774085" lon="8.6046667"><ele>-2.0</ele><time>2026-05-03T09:04:54.671Z</time></trkpt><trkpt lat="39.7741133" lon="8.60453"><ele>-2.0</ele><time>2026-05-03T09:04:56.67Z</time></trkpt><trkpt lat="39.7742033" lon="8.6045383"><ele>-2.0</ele><time>2026-05-03T09:04:58.671Z</time></trkpt><trkpt lat="39.77428" lon="8.6045567"><ele>-2.0</ele><time>2026-05-03T09:04:59.67Z</time></trkpt><trkpt lat="39.7743867" lon="8.6045667"><ele>-2.0</ele><time>2026-05-03T09:05:00.671Z</time></trkpt><trkpt lat="39.774515" lon="8.6045683"><ele>-2.0</ele><time>2026-05-03T09:05:01.67Z</time></trkpt><trkpt lat="39.7746567" lon="8.60456"><ele>-2.0</ele><time>2026-05-03T09:05:02.67Z</time></trkpt><trkpt lat="39.7748067" lon="8.60455"><ele>-2.0</ele><time>2026-05-03T09:05:03.67Z</time></trkpt><trkpt lat="39.7749617" lon="8.6045383"><ele>-2.0</ele><time>2026-05-03T09:05:04.671Z</time></trkpt><trkpt lat="39.7751317" lon="8.6045333"><ele>-2.0</ele><time>2026-05-03T09:05:05.67Z</time></trkpt><trkpt lat="39.7753017" lon="8.6045233"><ele>-2.0</ele><time>2026-05-03T09:05:06.671Z</time></trkpt><trkpt lat="39.77546" lon="8.604515"><ele>-2.0</ele><time>2026-05-03T09:05:07.671Z</time></trkpt><trkpt lat="39.7756133" lon="8.60452"><ele>-2.0</ele><time>2026-05-03T09:05:08.67Z</time></trkpt><trkpt lat="39.7757667" lon="8.604525"><ele>-2.0</ele><time>2026-05-03T09:05:09.67Z</time></trkpt><trkpt lat="39.77592" lon="8.6045317"><ele>-2.0</ele><time>2026-05-03T09:05:10.67Z</time></trkpt><trkpt lat="39.77608" lon="8.6045333"><ele>-2.0</ele><time>2026-05-03T09:05:11.671Z</time></trkpt><trkpt lat="39.7762467" lon="8.6045283"><ele>-2.0</ele><time>2026-05-03T09:05:12.67Z</time></trkpt><trkpt lat="39.77641" lon="8.6045083"><ele>-2.0</ele><time>2026-05-03T09:05:13.67Z</time></trkpt><trkpt lat="39.776575" lon="8.604505"><ele>-2.0</ele><time>2026-05-03T09:05:14.67Z</time></trkpt><trkpt lat="39.7767417" lon="8.6045167"><ele>-2.0</ele><time>2026-05-03T09:05:15.671Z</time></trkpt><trkpt lat="39.7769117" lon="8.6045183"><ele>-2.0</ele><time>2026-05-03T09:05:16.67Z</time></trkpt><trkpt lat="39.7770967" lon="8.6045117"><ele>-2.0</ele><time>2026-05-03T09:05:17.67Z</time></trkpt><trkpt lat="39.77728" lon="8.6045133"><ele>-2.0</ele><time>2026-05-03T09:05:18.671Z</time></trkpt><trkpt lat="39.7774533" lon="8.6045083"><ele>-2.0</ele><time>2026-05-03T09:05:19.67Z</time></trkpt><trkpt lat="39.7776167" lon="8.6045117"><ele>-2.0</ele><time>2026-05-03T09:05:20.67Z</time></trkpt><trkpt lat="39.7777683" lon="8.6045167"><ele>-2.0</ele><time>2026-05-03T09:05:21.67Z</time></trkpt><trkpt lat="39.7779217" lon="8.60452"><ele>-2.0</ele><time>2026-05-03T09:05:22.67Z</time></trkpt><trkpt lat="39.778075" lon="8.6045283"><ele>-2.0</ele><time>2026-05-03T09:05:23.67Z</time></trkpt><trkpt lat="39.7782417" lon="8.6045283"><ele>-2.0</ele><time>2026-05-03T09:05:24.67Z</time></trkpt><trkpt lat="39.7784333" lon="8.604525"><ele>-1.6666666666666665</ele><time>2026-05-03T09:05:25.671Z</time></trkpt><trkpt lat="39.7786183" lon="8.6045183"><ele>-1.3333333333333333</ele><time>2026-05-03T09:05:26.67Z</time></trkpt><trkpt lat="39.778815" lon="8.6045217"><ele>-1.0</ele><time>2026-05-03T09:05:27.67Z</time></trkpt><trkpt lat="39.7790033" lon="8.6045217"><ele>-1.0</ele><time>2026-05-03T09:05:28.671Z</time></trkpt><trkpt lat="39.77918" lon="8.6045267"><ele>-1.0</ele><time>2026-05-03T09:05:29.67Z</time></trkpt><trkpt lat="39.7793567" lon="8.6045217"><ele>-1.0</ele><time>2026-05-03T09:05:30.671Z</time></trkpt><trkpt lat="39.779535" lon="8.6045167"><ele>-0.6666666666666666</ele><time>2026-05-03T09:05:31.67Z</time></trkpt><trkpt lat="39.7797133" lon="8.60452"><ele>-0.3333333333333333</ele><time>2026-05-03T09:05:32.671Z</time></trkpt><trkpt lat="39.7798983" lon="8.60452"><ele>0.0</ele><time>2026-05-03T09:05:33.67Z</time></trkpt><trkpt lat="39.7801033" lon="8.60452"><ele>-0.3333333333333333</ele><time>2026-05-03T09:05:34.67Z</time></trkpt><trkpt lat="39.7803017" lon="8.604505"><ele>-0.6666666666666666</ele><time>2026-05-03T09:05:35.67Z</time></trkpt><trkpt lat="39.7804783" lon="8.6045033"><ele>-1.0</ele><time>2026-05-03T09:05:36.67Z</time></trkpt><trkpt lat="39.7806633" lon="8.604515"><ele>-1.0</ele><time>2026-05-03T09:05:37.67Z</time></trkpt><trkpt lat="39.78084" lon="8.6045183"><ele>-1.0</ele><time>2026-05-03T09:05:38.67Z</time></trkpt><trkpt lat="39.7810133" lon="8.6045167"><ele>-1.0</ele><time>2026-05-03T09:05:39.67Z</time></trkpt><trkpt lat="39.7811733" lon="8.604525"><ele>-1.0</ele><time>2026-05-03T09:05:40.671Z</time></trkpt><trkpt lat="39.7813183" lon="8.60452"><ele>-1.0</ele><time>2026-05-03T09:05:41.67Z</time></trkpt><trkpt lat="39.781435" lon="8.6045133"><ele>-1.0</ele><time>2026-05-03T09:05:42.67Z</time></trkpt><trkpt lat="39.781545" lon="8.604505"><ele>-1.0</ele><time>2026-05-03T09:05:43.67Z</time></trkpt><trkpt lat="39.78167" lon="8.6045033"><ele>-1.0</ele><time>2026-05-03T09:05:44.671Z</time></trkpt><trkpt lat="39.781815" lon="8.6044983"><ele>-1.0</ele><time>2026-05-03T09:05:45.671Z</time></trkpt><trkpt lat="39.78198" lon="8.604495"><ele>-1.0</ele><time>2026-05-03T09:05:46.67Z</time></trkpt><trkpt lat="39.78214" lon="8.6045033"><ele>-1.3333333333333333</ele><time>2026-05-03T09:05:47.671Z</time></trkpt><trkpt lat="39.7823133" lon="8.6045033"><ele>-1.6666666666666665</ele><time>2026-05-03T09:05:48.67Z</time></trkpt><trkpt lat="39.7824917" lon="8.6045"><ele>-2.0</ele><time>2026-05-03T09:05:49.67Z</time></trkpt><trkpt lat="39.7826667" lon="8.6044933"><ele>-2.0</ele><time>2026-05-03T09:05:50.67Z</time></trkpt><trkpt lat="39.782835" lon="8.6044967"><ele>-2.0</ele><time>2026-05-03T09:05:51.671Z</time></trkpt><trkpt lat="39.783" lon="8.6045033"><ele>-2.0</ele><time>2026-05-03T09:05:52.67Z</time></trkpt><trkpt lat="39.7831733" lon="8.6044967"><ele>-2.0</ele><time>2026-05-03T09:05:53.671Z</time></trkpt><trkpt lat="39.783345" lon="8.604495"><ele>-2.0</ele><time>2026-05-03T09:05:54.671Z</time></trkpt><trkpt lat="39.78351" lon="8.6044867"><ele>-2.0</ele><time>2026-05-03T09:05:55.67Z</time></trkpt><trkpt lat="39.7836817" lon="8.6044967"><ele>-2.0</ele><time>2026-05-03T09:05:56.67Z</time></trkpt><trkpt lat="39.7838433" lon="8.6045067"><ele>-2.0</ele><time>2026-05-03T09:05:57.671Z</time></trkpt><trkpt lat="39.7840083" lon="8.6045017"><ele>-2.0</ele><time>2026-05-03T09:05:58.67Z</time></trkpt><trkpt lat="39.7841917" lon="8.60449"><ele>-2.0</ele><time>2026-05-03T09:05:59.67Z</time></trkpt><trkpt lat="39.7843767" lon="8.6045"><ele>-2.0</ele><time>2026-05-03T09:06:00.671Z</time></trkpt><trkpt lat="39.7845617" lon="8.6044883"><ele>-2.0</ele><time>2026-05-03T09:06:01.67Z</time></trkpt><trkpt lat="39.7847533" lon="8.6044883"><ele>-2.0</ele><time>2026-05-03T09:06:02.67Z</time></trkpt><trkpt lat="39.7849183" lon="8.6044967"><ele>-2.0</ele><time>2026-05-03T09:06:03.671Z</time></trkpt><trkpt lat="39.785065" lon="8.6044883"><ele>-2.0</ele><time>2026-05-03T09:06:04.67Z</time></trkpt><trkpt lat="39.7851967" lon="8.6044683"><ele>-2.0</ele><time>2026-05-03T09:06:05.67Z</time></trkpt><trkpt lat="39.7853283" lon="8.604465"><ele>-1.6666666666666665</ele><time>2026-05-03T09:06:06.67Z</time></trkpt><trkpt lat="39.78547" lon="8.6044567"><ele>-1.3333333333333333</ele><time>2026-05-03T09:06:07.671Z</time></trkpt><trkpt lat="39.7856267" lon="8.60446"><ele>-1.0</ele><time>2026-05-03T09:06:08.67Z</time></trkpt><trkpt lat="39.7857933" lon="8.6044583"><ele>-1.0</ele><time>2026-05-03T09:06:09.67Z</time></trkpt><trkpt lat="39.7859533" lon="8.604465"><ele>-1.0</ele><time>2026-05-03T09:06:10.671Z</time></trkpt><trkpt lat="39.7861167" lon="8.6044617"><ele>-1.0</ele><time>2026-05-03T09:06:11.67Z</time></trkpt><trkpt lat="39.7862767" lon="8.6044733"><ele>-1.0</ele><time>2026-05-03T09:06:12.67Z</time></trkpt><trkpt lat="39.78643" lon="8.60448"><ele>-1.0</ele><time>2026-05-03T09:06:13.671Z</time></trkpt><trkpt lat="39.7865783" lon="8.604485"><ele>-1.0</ele><time>2026-05-03T09:06:14.67Z</time></trkpt><trkpt lat="39.7867183" lon="8.6044867"><ele>-1.0</ele><time>2026-05-03T09:06:15.67Z</time></trkpt><trkpt lat="39.7868417" lon="8.6044867"><ele>-1.0</ele><time>2026-05-03T09:06:16.67Z</time></trkpt><trkpt lat="39.7869633" lon="8.6044783"><ele>-1.0</ele><time>2026-05-03T09:06:17.671Z</time></trkpt><trkpt lat="39.7870817" lon="8.60448"><ele>-1.0</ele><time>2026-05-03T09:06:18.671Z</time></trkpt><trkpt lat="39.7871983" lon="8.6044883"><ele>-1.0</ele><time>2026-05-03T09:06:19.671Z</time></trkpt><trkpt lat="39.7873217" lon="8.60449"><ele>-1.0</ele><time>2026-05-03T09:06:20.67Z</time></trkpt><trkpt lat="39.787455" lon="8.6044917"><ele>-1.0</ele><time>2026-05-03T09:06:21.67Z</time></trkpt><trkpt lat="39.7875867" lon="8.604495"><ele>-1.0</ele><time>2026-05-03T09:06:22.67Z</time></trkpt><trkpt lat="39.7877133" lon="8.6044883"><ele>-1.0</ele><time>2026-05-03T09:06:23.67Z</time></trkpt><trkpt lat="39.7878283" lon="8.604465"><ele>-1.25</ele><time>2026-05-03T09:06:24.67Z</time></trkpt><trkpt lat="39.7879583" lon="8.604455"><ele>-1.5</ele><time>2026-05-03T09:06:25.67Z</time></trkpt><trkpt lat="39.7880983" lon="8.6044467"><ele>-1.75</ele><time>2026-05-03T09:06:26.671Z</time></trkpt><trkpt lat="39.7882417" lon="8.604455"><ele>-2.0</ele><time>2026-05-03T09:06:27.671Z</time></trkpt><trkpt lat="39.7883683" lon="8.6044583"><ele>-2.0</ele><time>2026-05-03T09:06:28.67Z</time></trkpt><trkpt lat="39.788485" lon="8.6044567"><ele>-2.0</ele><time>2026-05-03T09:06:29.671Z</time></trkpt><trkpt lat="39.78859" lon="8.6044583"><ele>-2.0</ele><time>2026-05-03T09:06:30.671Z</time></trkpt><trkpt lat="39.7886833" lon="8.6044533"><ele>-2.0</ele><time>2026-05-03T09:06:31.671Z</time></trkpt><trkpt lat="39.7887667" lon="8.604455"><ele>-2.0</ele><time>2026-05-03T09:06:32.67Z</time></trkpt><trkpt lat="39.78884" lon="8.6044483"><ele>-2.0</ele><time>2026-05-03T09:06:33.67Z</time></trkpt><trkpt lat="39.7889283" lon="8.604435"><ele>-2.0</ele><time>2026-05-03T09:06:35.67Z</time></trkpt><trkpt lat="39.7889617" lon="8.6043283"><ele>-2.0</ele><time>2026-05-03T09:06:37.671Z</time></trkpt><trkpt lat="39.7889533" lon="8.6042267"><ele>-2.0</ele><time>2026-05-03T09:06:38.67Z</time></trkpt><trkpt lat="39.7889383" lon="8.6041017"><ele>-2.0</ele><time>2026-05-03T09:06:39.67Z</time></trkpt><trkpt lat="39.7889267" lon="8.60395"><ele>-2.0</ele><time>2026-05-03T09:06:40.671Z</time></trkpt><trkpt lat="39.78892" lon="8.6037767"><ele>-2.0</ele><time>2026-05-03T09:06:41.67Z</time></trkpt><trkpt lat="39.7889183" lon="8.6035683"><ele>-2.0</ele><time>2026-05-03T09:06:42.67Z</time></trkpt><trkpt lat="39.7889183" lon="8.6033133"><ele>-2.0</ele><time>2026-05-03T09:06:43.671Z</time></trkpt><trkpt lat="39.78892" lon="8.60304"><ele>-2.0</ele><time>2026-05-03T09:06:44.67Z</time></trkpt><trkpt lat="39.7889217" lon="8.602755"><ele>-2.0</ele><time>2026-05-03T09:06:45.67Z</time></trkpt><trkpt lat="39.788915" lon="8.6024567"><ele>-1.5</ele><time>2026-05-03T09:06:46.671Z</time></trkpt><trkpt lat="39.7889117" lon="8.6021383"><ele>-1.0</ele><time>2026-05-03T09:06:47.67Z</time></trkpt><trkpt lat="39.7889167" lon="8.6018133"><ele>-0.5</ele><time>2026-05-03T09:06:48.67Z</time></trkpt><trkpt lat="39.7889233" lon="8.6014933"><ele>0.0</ele><time>2026-05-03T09:06:49.67Z</time></trkpt><trkpt lat="39.7889267" lon="8.6011683"><ele>0.0</ele><time>2026-05-03T09:06:50.67Z</time></trkpt><trkpt lat="39.7889283" lon="8.6008083"><ele>0.0</ele><time>2026-05-03T09:06:51.67Z</time></trkpt><trkpt lat="39.7889183" lon="8.6004483"><ele>-0.5</ele><time>2026-05-03T09:06:52.67Z</time></trkpt><trkpt lat="39.7889217" lon="8.6000833"><ele>-1.0</ele><time>2026-05-03T09:06:53.67Z</time></trkpt><trkpt lat="39.788925" lon="8.599705"><ele>-0.5</ele><time>2026-05-03T09:06:54.67Z</time></trkpt><trkpt lat="39.7889217" lon="8.59936"><ele>0.0</ele><time>2026-05-03T09:06:55.67Z</time></trkpt><trkpt lat="39.7889183" lon="8.5990467"><ele>0.0</ele><time>2026-05-03T09:06:56.67Z</time></trkpt><trkpt lat="39.78891" lon="8.5987233"><ele>0.0</ele><time>2026-05-03T09:06:57.67Z</time></trkpt><trkpt lat="39.788905" lon="8.598395"><ele>0.0</ele><time>2026-05-03T09:06:58.67Z</time></trkpt><trkpt lat="39.7888983" lon="8.598065"><ele>0.0</ele><time>2026-05-03T09:06:59.67Z</time></trkpt><trkpt lat="39.7888967" lon="8.597755"><ele>-0.3333333333333333</ele><time>2026-05-03T09:07:00.671Z</time></trkpt><trkpt lat="39.7888983" lon="8.5974567"><ele>-0.6666666666666666</ele><time>2026-05-03T09:07:01.67Z</time></trkpt><trkpt lat="39.7888983" lon="8.59719"><ele>-1.0</ele><time>2026-05-03T09:07:02.67Z</time></trkpt><trkpt lat="39.7888967" lon="8.5969417"><ele>-1.0</ele><time>2026-05-03T09:07:03.67Z</time></trkpt><trkpt lat="39.7889083" lon="8.5966867"><ele>-1.0</ele><time>2026-05-03T09:07:04.67Z</time></trkpt><trkpt lat="39.7889083" lon="8.596435"><ele>-1.0</ele><time>2026-05-03T09:07:05.671Z</time></trkpt><trkpt lat="39.7889083" lon="8.59618"><ele>-0.3333333333333333</ele><time>2026-05-03T09:07:06.67Z</time></trkpt><trkpt lat="39.7889067" lon="8.5959117"><ele>0.3333333333333333</ele><time>2026-05-03T09:07:07.67Z</time></trkpt><trkpt lat="39.7889067" lon="8.5956433"><ele>1.0</ele><time>2026-05-03T09:07:08.67Z</time></trkpt><trkpt lat="39.7889083" lon="8.595385"><ele>1.0</ele><time>2026-05-03T09:07:09.67Z</time></trkpt><trkpt lat="39.7888967" lon="8.595115"><ele>1.0</ele><time>2026-05-03T09:07:10.67Z</time></trkpt><trkpt lat="39.7888933" lon="8.5948333"><ele>1.0</ele><time>2026-05-03T09:07:11.67Z</time></trkpt><trkpt lat="39.7889" lon="8.594555"><ele>1.3333333333333333</ele><time>2026-05-03T09:07:12.671Z</time></trkpt><trkpt lat="39.7889033" lon="8.5942817"><ele>1.6666666666666665</ele><time>2026-05-03T09:07:13.67Z</time></trkpt><trkpt lat="39.7889" lon="8.5940617"><ele>2.0</ele><time>2026-05-03T09:07:14.67Z</time></trkpt><trkpt lat="39.7889017" lon="8.59387"><ele>2.0</ele><time>2026-05-03T09:07:15.671Z</time></trkpt><trkpt lat="39.7888983" lon="8.5937"><ele>2.0</ele><time>2026-05-03T09:07:16.67Z</time></trkpt><trkpt lat="39.788895" lon="8.593575"><ele>2.0</ele><time>2026-05-03T09:07:17.671Z</time></trkpt><trkpt lat="39.7888967" lon="8.5934867"><ele>2.0</ele><time>2026-05-03T09:07:18.671Z</time></trkpt><trkpt lat="39.788885" lon="8.5933667"><ele>2.0</ele><time>2026-05-03T09:07:20.67Z</time></trkpt><trkpt lat="39.78888" lon="8.593235"><ele>2.0</ele><time>2026-05-03T09:07:22.67Z</time></trkpt><trkpt lat="39.7888767" lon="8.5931433"><ele>2.0</ele><time>2026-05-03T09:07:23.67Z</time></trkpt><trkpt lat="39.788785" lon="8.593085"><ele>2.0</ele><time>2026-05-03T09:07:25.67Z</time></trkpt><trkpt lat="39.7886983" lon="8.5930883"><ele>2.0</ele><time>2026-05-03T09:07:26.67Z</time></trkpt><trkpt lat="39.7886033" lon="8.5931017"><ele>2.0</ele><time>2026-05-03T09:07:27.67Z</time></trkpt><trkpt lat="39.7885033" lon="8.5931233"><ele>2.0</ele><time>2026-05-03T09:07:28.67Z</time></trkpt><trkpt lat="39.7883817" lon="8.5931517"><ele>2.0</ele><time>2026-05-03T09:07:29.67Z</time></trkpt><trkpt lat="39.788235" lon="8.593215"><ele>2.0</ele><time>2026-05-03T09:07:30.671Z</time></trkpt><trkpt lat="39.7880683" lon="8.5933033"><ele>2.0</ele><time>2026-05-03T09:07:31.67Z</time></trkpt><trkpt lat="39.78789" lon="8.5934083"><ele>2.0</ele><time>2026-05-03T09:07:32.67Z</time></trkpt><trkpt lat="39.7877" lon="8.5935167"><ele>2.0</ele><time>2026-05-03T09:07:33.67Z</time></trkpt><trkpt lat="39.7875367" lon="8.59361"><ele>1.8</ele><time>2026-05-03T09:07:34.67Z</time></trkpt><trkpt lat="39.7874" lon="8.5936917"><ele>1.6</ele><time>2026-05-03T09:07:35.67Z</time></trkpt><trkpt lat="39.7872883" lon="8.5937533"><ele>1.4000000000000001</ele><time>2026-05-03T09:07:36.67Z</time></trkpt><trkpt lat="39.7872" lon="8.5937983"><ele>1.2000000000000002</ele><time>2026-05-03T09:07:37.67Z</time></trkpt><trkpt lat="39.787135" lon="8.5938083"><ele>1.0</ele><time>2026-05-03T09:07:38.67Z</time></trkpt><trkpt lat="39.7870567" lon="8.5936967"><ele>1.25</ele><time>2026-05-03T09:07:40.67Z</time></trkpt><trkpt lat="39.7870567" lon="8.5935417"><ele>1.5</ele><time>2026-05-03T09:07:41.67Z</time></trkpt><trkpt lat="39.787075" lon="8.5933617"><ele>1.75</ele><time>2026-05-03T09:07:42.67Z</time></trkpt><trkpt lat="39.7870867" lon="8.5931533"><ele>2.0</ele><time>2026-05-03T09:07:43.67Z</time></trkpt><trkpt lat="39.7870883" lon="8.5929133"><ele>2.6666666666666665</ele><time>2026-05-03T09:07:44.671Z</time></trkpt><trkpt lat="39.78709" lon="8.5926433"><ele>3.333333333333333</ele><time>2026-05-03T09:07:45.671Z</time></trkpt><trkpt lat="39.7870933" lon="8.59234"><ele>4.0</ele><time>2026-05-03T09:07:46.67Z</time></trkpt><trkpt lat="39.787095" lon="8.5920317"><ele>4.5</ele><time>2026-05-03T09:07:47.67Z</time></trkpt><trkpt lat="39.7870883" lon="8.5917067"><ele>5.0</ele><time>2026-05-03T09:07:48.671Z</time></trkpt><trkpt lat="39.7870917" lon="8.59137"><ele>5.5</ele><time>2026-05-03T09:07:49.67Z</time></trkpt><trkpt lat="39.7870933" lon="8.5910333"><ele>6.0</ele><time>2026-05-03T09:07:50.67Z</time></trkpt><trkpt lat="39.7870933" lon="8.5907067"><ele>6.0</ele><time>2026-05-03T09:07:51.67Z</time></trkpt><trkpt lat="39.787095" lon="8.5903783"><ele>6.0</ele><time>2026-05-03T09:07:52.67Z</time></trkpt><trkpt lat="39.7870983" lon="8.590055"><ele>6.0</ele><time>2026-05-03T09:07:53.67Z</time></trkpt><trkpt lat="39.787095" lon="8.5897267"><ele>6.0</ele><time>2026-05-03T09:07:54.671Z</time></trkpt><trkpt lat="39.7870917" lon="8.5894033"><ele>6.0</ele><time>2026-05-03T09:07:55.67Z</time></trkpt><trkpt lat="39.787085" lon="8.5890883"><ele>6.0</ele><time>2026-05-03T09:07:56.671Z</time></trkpt><trkpt lat="39.7870783" lon="8.58877"><ele>6.0</ele><time>2026-05-03T09:07:57.671Z</time></trkpt><trkpt lat="39.7870833" lon="8.5884483"><ele>6.0</ele><time>2026-05-03T09:07:58.671Z</time></trkpt><trkpt lat="39.7870783" lon="8.5881417"><ele>5.5</ele><time>2026-05-03T09:07:59.671Z</time></trkpt><trkpt lat="39.7870783" lon="8.5878267"><ele>5.0</ele><time>2026-05-03T09:08:00.67Z</time></trkpt><trkpt lat="39.7870767" lon="8.587515"><ele>5.0</ele><time>2026-05-03T09:08:01.67Z</time></trkpt><trkpt lat="39.78708" lon="8.5871933"><ele>5.0</ele><time>2026-05-03T09:08:02.67Z</time></trkpt><trkpt lat="39.78708" lon="8.5868717"><ele>5.0</ele><time>2026-05-03T09:08:03.671Z</time></trkpt><trkpt lat="39.7870817" lon="8.5865483"><ele>5.0</ele><time>2026-05-03T09:08:04.671Z</time></trkpt><trkpt lat="39.7870817" lon="8.586235"><ele>6.0</ele><time>2026-05-03T09:08:05.67Z</time></trkpt><trkpt lat="39.78708" lon="8.5859233"><ele>7.0</ele><time>2026-05-03T09:08:06.671Z</time></trkpt><trkpt lat="39.78708" lon="8.5856033"><ele>7.5</ele><time>2026-05-03T09:08:07.67Z</time></trkpt><trkpt lat="39.7870883" lon="8.58528"><ele>8.0</ele><time>2026-05-03T09:08:08.67Z</time></trkpt><trkpt lat="39.7870883" lon="8.584955"><ele>8.0</ele><time>2026-05-03T09:08:09.67Z</time></trkpt><trkpt lat="39.787085" lon="8.584625"><ele>8.0</ele><time>2026-05-03T09:08:10.67Z</time></trkpt><trkpt lat="39.78709" lon="8.5842983"><ele>7.5</ele><time>2026-05-03T09:08:11.67Z</time></trkpt><trkpt lat="39.7870883" lon="8.5839867"><ele>7.0</ele><time>2026-05-03T09:08:12.67Z</time></trkpt><trkpt lat="39.7870867" lon="8.5837017"><ele>7.333333333333334</ele><time>2026-05-03T09:08:13.671Z</time></trkpt><trkpt lat="39.7870817" lon="8.5834383"><ele>7.666666666666666</ele><time>2026-05-03T09:08:14.67Z</time></trkpt><trkpt lat="39.7870867" lon="8.5831867"><ele>8.0</ele><time>2026-05-03T09:08:15.67Z</time></trkpt><trkpt lat="39.787075" lon="8.582965"><ele>8.5</ele><time>2026-05-03T09:08:16.671Z</time></trkpt><trkpt lat="39.787075" lon="8.58276"><ele>9.0</ele><time>2026-05-03T09:08:17.67Z</time></trkpt><trkpt lat="39.78708" lon="8.582585"><ele>9.5</ele><time>2026-05-03T09:08:18.67Z</time></trkpt><trkpt lat="39.787095" lon="8.5824683"><ele>10.0</ele><time>2026-05-03T09:08:19.67Z</time></trkpt><trkpt lat="39.7871217" lon="8.5823717"><ele>10.0</ele><time>2026-05-03T09:08:20.67Z</time></trkpt><trkpt lat="39.7872183" lon="8.5822867"><ele>10.0</ele><time>2026-05-03T09:08:22.671Z</time></trkpt><trkpt lat="39.7873067" lon="8.5822767"><ele>10.0</ele><time>2026-05-03T09:08:23.671Z</time></trkpt><trkpt lat="39.787415" lon="8.5822767"><ele>10.0</ele><time>2026-05-03T09:08:24.671Z</time></trkpt><trkpt lat="39.7875417" lon="8.5822767"><ele>10.0</ele><time>2026-05-03T09:08:25.67Z</time></trkpt><trkpt lat="39.7876917" lon="8.5822817"><ele>9.666666666666668</ele><time>2026-05-03T09:08:26.67Z</time></trkpt><trkpt lat="39.7878533" lon="8.5822733"><ele>9.333333333333334</ele><time>2026-05-03T09:08:27.671Z</time></trkpt><trkpt lat="39.78802" lon="8.58227"><ele>9.0</ele><time>2026-05-03T09:08:28.671Z</time></trkpt><trkpt lat="39.7882083" lon="8.58228"><ele>9.0</ele><time>2026-05-03T09:08:29.67Z</time></trkpt><trkpt lat="39.7884033" lon="8.58228"><ele>9.0</ele><time>2026-05-03T09:08:30.671Z</time></trkpt><trkpt lat="39.788625" lon="8.58228"><ele>9.0</ele><time>2026-05-03T09:08:31.671Z</time></trkpt><trkpt lat="39.7888417" lon="8.5822817"><ele>9.0</ele><time>2026-05-03T09:08:32.671Z</time></trkpt><trkpt lat="39.7890617" lon="8.58228"><ele>9.0</ele><time>2026-05-03T09:08:33.67Z</time></trkpt><trkpt lat="39.7892883" lon="8.5822817"><ele>9.0</ele><time>2026-05-03T09:08:34.671Z</time></trkpt><trkpt lat="39.789525" lon="8.582275"><ele>8.5</ele><time>2026-05-03T09:08:35.67Z</time></trkpt><trkpt lat="39.7897767" lon="8.5822717"><ele>8.0</ele><time>2026-05-03T09:08:36.67Z</time></trkpt><trkpt lat="39.79003" lon="8.5822717"><ele>8.0</ele><time>2026-05-03T09:08:37.67Z</time></trkpt><trkpt lat="39.7902883" lon="8.5822733"><ele>8.0</ele><time>2026-05-03T09:08:38.67Z</time></trkpt><trkpt lat="39.7905567" lon="8.5822683"><ele>8.0</ele><time>2026-05-03T09:08:39.67Z</time></trkpt><trkpt lat="39.7908283" lon="8.582265"><ele>8.0</ele><time>2026-05-03T09:08:40.671Z</time></trkpt><trkpt lat="39.79111" lon="8.5822633"><ele>8.0</ele><time>2026-05-03T09:08:41.67Z</time></trkpt><trkpt lat="39.79138" lon="8.5822617"><ele>8.0</ele><time>2026-05-03T09:08:42.67Z</time></trkpt><trkpt lat="39.7916383" lon="8.582255"><ele>8.0</ele><time>2026-05-03T09:08:43.671Z</time></trkpt><trkpt lat="39.791885" lon="8.58225"><ele>8.0</ele><time>2026-05-03T09:08:44.671Z</time></trkpt><trkpt lat="39.7921233" lon="8.5822567"><ele>8.0</ele><time>2026-05-03T09:08:45.671Z</time></trkpt><trkpt lat="39.792355" lon="8.5822667"><ele>8.0</ele><time>2026-05-03T09:08:46.671Z</time></trkpt><trkpt lat="39.7925967" lon="8.582265"><ele>8.0</ele><time>2026-05-03T09:08:47.67Z</time></trkpt><trkpt lat="39.7928417" lon="8.58226"><ele>8.0</ele><time>2026-05-03T09:08:48.67Z</time></trkpt><trkpt lat="39.7930933" lon="8.5822517"><ele>8.0</ele><time>2026-05-03T09:08:49.67Z</time></trkpt><trkpt lat="39.793345" lon="8.5822467"><ele>8.0</ele><time>2026-05-03T09:08:50.67Z</time></trkpt><trkpt lat="39.7935767" lon="8.5822417"><ele>8.666666666666666</ele><time>2026-05-03T09:08:51.67Z</time></trkpt><trkpt lat="39.793785" lon="8.5822383"><ele>9.333333333333334</ele><time>2026-05-03T09:08:52.671Z</time></trkpt><trkpt lat="39.7939717" lon="8.582225"><ele>10.0</ele><time>2026-05-03T09:08:53.67Z</time></trkpt><trkpt lat="39.7941333" lon="8.5822117"><ele>10.0</ele><time>2026-05-03T09:08:54.67Z</time></trkpt><trkpt lat="39.794285" lon="8.5822267"><ele>10.0</ele><time>2026-05-03T09:08:55.671Z</time></trkpt><trkpt lat="39.7943967" lon="8.5822333"><ele>10.0</ele><time>2026-05-03T09:08:56.671Z</time></trkpt><trkpt lat="39.794475" lon="8.5822133"><ele>10.0</ele><time>2026-05-03T09:08:57.67Z</time></trkpt><trkpt lat="39.7945517" lon="8.5821233"><ele>10.0</ele><time>2026-05-03T09:08:59.67Z</time></trkpt><trkpt lat="39.794545" lon="8.581955"><ele>9.75</ele><time>2026-05-03T09:09:01.671Z</time></trkpt><trkpt lat="39.7945267" lon="8.5818317"><ele>9.5</ele><time>2026-05-03T09:09:02.67Z</time></trkpt><trkpt lat="39.794515" lon="8.58169"><ele>9.25</ele><time>2026-05-03T09:09:03.67Z</time></trkpt><trkpt lat="39.79451" lon="8.5815133"><ele>9.0</ele><time>2026-05-03T09:09:04.67Z</time></trkpt><trkpt lat="39.794505" lon="8.5813033"><ele>7.333333333333333</ele><time>2026-05-03T09:09:05.671Z</time></trkpt><trkpt lat="39.7944967" lon="8.5810917"><ele>5.666666666666666</ele><time>2026-05-03T09:09:06.67Z</time></trkpt><trkpt lat="39.794495" lon="8.580875"><ele>4.0</ele><time>2026-05-03T09:09:07.67Z</time></trkpt><trkpt lat="39.7944967" lon="8.5806467"><ele>4.0</ele><time>2026-05-03T09:09:08.671Z</time></trkpt><trkpt lat="39.7944967" lon="8.5804117"><ele>4.0</ele><time>2026-05-03T09:09:09.67Z</time></trkpt><trkpt lat="39.7944917" lon="8.580165"><ele>4.0</ele><time>2026-05-03T09:09:10.671Z</time></trkpt><trkpt lat="39.7944967" lon="8.5799117"><ele>5.0</ele><time>2026-05-03T09:09:11.671Z</time></trkpt><trkpt lat="39.7944967" lon="8.5796633"><ele>6.0</ele><time>2026-05-03T09:09:12.671Z</time></trkpt><trkpt lat="39.7944967" lon="8.579405"><ele>7.0</ele><time>2026-05-03T09:09:13.671Z</time></trkpt><trkpt lat="39.794495" lon="8.5791533"><ele>7.0</ele><time>2026-05-03T09:09:14.67Z</time></trkpt><trkpt lat="39.79448" lon="8.5789117"><ele>7.0</ele><time>2026-05-03T09:09:15.671Z</time></trkpt><trkpt lat="39.794475" lon="8.578665"><ele>7.0</ele><time>2026-05-03T09:09:16.67Z</time></trkpt><trkpt lat="39.7944767" lon="8.578405"><ele>7.0</ele><time>2026-05-03T09:09:17.67Z</time></trkpt><trkpt lat="39.7944783" lon="8.57814"><ele>7.0</ele><time>2026-05-03T09:09:18.671Z</time></trkpt><trkpt lat="39.7944767" lon="8.577865"><ele>7.0</ele><time>2026-05-03T09:09:19.67Z</time></trkpt><trkpt lat="39.794475" lon="8.5775933"><ele>6.333333333333334</ele><time>2026-05-03T09:09:20.671Z</time></trkpt><trkpt lat="39.7944767" lon="8.5773283"><ele>5.666666666666667</ele><time>2026-05-03T09:09:21.671Z</time></trkpt><trkpt lat="39.7944717" lon="8.5770767"><ele>5.0</ele><time>2026-05-03T09:09:22.67Z</time></trkpt><trkpt lat="39.7944633" lon="8.5768567"><ele>5.0</ele><time>2026-05-03T09:09:23.67Z</time></trkpt><trkpt lat="39.7944633" lon="8.57665"><ele>5.0</ele><time>2026-05-03T09:09:24.67Z</time></trkpt><trkpt lat="39.7944683" lon="8.5764317"><ele>5.0</ele><time>2026-05-03T09:09:25.671Z</time></trkpt><trkpt lat="39.7944717" lon="8.5762067"><ele>5.0</ele><time>2026-05-03T09:09:26.67Z</time></trkpt><trkpt lat="39.79447" lon="8.575965"><ele>5.0</ele><time>2026-05-03T09:09:27.67Z</time></trkpt><trkpt lat="39.794465" lon="8.5757267"><ele>5.0</ele><time>2026-05-03T09:09:28.67Z</time></trkpt><trkpt lat="39.79447" lon="8.575475"><ele>5.333333333333334</ele><time>2026-05-03T09:09:29.671Z</time></trkpt><trkpt lat="39.79447" lon="8.5752183"><ele>5.666666666666667</ele><time>2026-05-03T09:09:30.67Z</time></trkpt><trkpt lat="39.7944717" lon="8.57496"><ele>6.0</ele><time>2026-05-03T09:09:31.67Z</time></trkpt><trkpt lat="39.7944783" lon="8.5746833"><ele>6.0</ele><time>2026-05-03T09:09:32.67Z</time></trkpt><trkpt lat="39.7944733" lon="8.5744233"><ele>6.0</ele><time>2026-05-03T09:09:33.67Z</time></trkpt><trkpt lat="39.7944733" lon="8.5742067"><ele>6.0</ele><time>2026-05-03T09:09:34.67Z</time></trkpt><trkpt lat="39.7944667" lon="8.5740183"><ele>6.0</ele><time>2026-05-03T09:09:35.669Z</time></trkpt><trkpt lat="39.7944517" lon="8.5738367"><ele>6.0</ele><time>2026-05-03T09:09:36.67Z</time></trkpt><trkpt lat="39.7944367" lon="8.5736583"><ele>6.0</ele><time>2026-05-03T09:09:37.669Z</time></trkpt><trkpt lat="39.79444" lon="8.5734867"><ele>6.0</ele><time>2026-05-03T09:09:38.669Z</time></trkpt><trkpt lat="39.7944533" lon="8.573305"><ele>6.666666666666666</ele><time>2026-05-03T09:09:39.669Z</time></trkpt><trkpt lat="39.79447" lon="8.5731017"><ele>7.333333333333333</ele><time>2026-05-03T09:09:40.67Z</time></trkpt><trkpt lat="39.79448" lon="8.572895"><ele>8.0</ele><time>2026-05-03T09:09:41.67Z</time></trkpt><trkpt lat="39.794475" lon="8.57271"><ele>8.333333333333332</ele><time>2026-05-03T09:09:42.67Z</time></trkpt><trkpt lat="39.7944733" lon="8.572525"><ele>8.666666666666666</ele><time>2026-05-03T09:09:43.669Z</time></trkpt><trkpt lat="39.794475" lon="8.5723233"><ele>9.0</ele><time>2026-05-03T09:09:44.67Z</time></trkpt><trkpt lat="39.794475" lon="8.5721133"><ele>8.666666666666666</ele><time>2026-05-03T09:09:45.669Z</time></trkpt><trkpt lat="39.79447" lon="8.57189"><ele>8.333333333333332</ele><time>2026-05-03T09:09:46.669Z</time></trkpt><trkpt lat="39.79446" lon="8.57167"><ele>8.0</ele><time>2026-05-03T09:09:47.669Z</time></trkpt><trkpt lat="39.7944267" lon="8.5714783"><ele>8.0</ele><time>2026-05-03T09:09:48.67Z</time></trkpt><trkpt lat="39.7944533" lon="8.5712667"><ele>8.0</ele><time>2026-05-03T09:09:49.669Z</time></trkpt><trkpt lat="39.7944667" lon="8.5710533"><ele>8.0</ele><time>2026-05-03T09:09:50.669Z</time></trkpt><trkpt lat="39.7944667" lon="8.57083"><ele>7.333333333333333</ele><time>2026-05-03T09:09:51.669Z</time></trkpt><trkpt lat="39.7944683" lon="8.5706117"><ele>6.666666666666666</ele><time>2026-05-03T09:09:52.669Z</time></trkpt><trkpt lat="39.7944717" lon="8.570395"><ele>6.0</ele><time>2026-05-03T09:09:53.669Z</time></trkpt><trkpt lat="39.7944733" lon="8.5702017"><ele>5.666666666666667</ele><time>2026-05-03T09:09:54.669Z</time></trkpt><trkpt lat="39.7944767" lon="8.570015"><ele>5.333333333333334</ele><time>2026-05-03T09:09:55.669Z</time></trkpt><trkpt lat="39.7944733" lon="8.569825"><ele>5.0</ele><time>2026-05-03T09:09:56.669Z</time></trkpt><trkpt lat="39.79446" lon="8.5696133"><ele>4.666666666666667</ele><time>2026-05-03T09:09:57.67Z</time></trkpt><trkpt lat="39.7944567" lon="8.56938"><ele>4.333333333333333</ele><time>2026-05-03T09:09:58.669Z</time></trkpt><trkpt lat="39.79446" lon="8.5691467"><ele>4.0</ele><time>2026-05-03T09:09:59.669Z</time></trkpt><trkpt lat="39.794455" lon="8.5689183"><ele>4.0</ele><time>2026-05-03T09:10:00.67Z</time></trkpt><trkpt lat="39.7944617" lon="8.568685"><ele>4.0</ele><time>2026-05-03T09:10:01.669Z</time></trkpt><trkpt lat="39.7944633" lon="8.568465"><ele>4.0</ele><time>2026-05-03T09:10:02.669Z</time></trkpt><trkpt lat="39.7944617" lon="8.5682267"><ele>4.0</ele><time>2026-05-03T09:10:03.669Z</time></trkpt><trkpt lat="39.7944633" lon="8.5679833"><ele>4.0</ele><time>2026-05-03T09:10:04.669Z</time></trkpt><trkpt lat="39.7944633" lon="8.567745"><ele>4.0</ele><time>2026-05-03T09:10:05.669Z</time></trkpt><trkpt lat="39.7944683" lon="8.5675217"><ele>4.333333333333333</ele><time>2026-05-03T09:10:06.669Z</time></trkpt><trkpt lat="39.79447" lon="8.5673"><ele>4.666666666666667</ele><time>2026-05-03T09:10:07.67Z</time></trkpt><trkpt lat="39.7944683" lon="8.567095"><ele>5.0</ele><time>2026-05-03T09:10:08.669Z</time></trkpt><trkpt lat="39.7944633" lon="8.5668917"><ele>5.0</ele><time>2026-05-03T09:10:09.67Z</time></trkpt><trkpt lat="39.794465" lon="8.5666883"><ele>5.0</ele><time>2026-05-03T09:10:10.669Z</time></trkpt><trkpt lat="39.794475" lon="8.5664717"><ele>5.0</ele><time>2026-05-03T09:10:11.669Z</time></trkpt><trkpt lat="39.7944733" lon="8.5662567"><ele>5.0</ele><time>2026-05-03T09:10:12.669Z</time></trkpt><trkpt lat="39.79448" lon="8.5660333"><ele>5.0</ele><time>2026-05-03T09:10:13.669Z</time></trkpt><trkpt lat="39.7944783" lon="8.5657967"><ele>5.0</ele><time>2026-05-03T09:10:14.669Z</time></trkpt><trkpt lat="39.7944883" lon="8.5655683"><ele>4.666666666666667</ele><time>2026-05-03T09:10:15.669Z</time></trkpt><trkpt lat="39.7944917" lon="8.56533"><ele>4.333333333333333</ele><time>2026-05-03T09:10:16.669Z</time></trkpt><trkpt lat="39.794485" lon="8.5650833"><ele>4.0</ele><time>2026-05-03T09:10:17.669Z</time></trkpt><trkpt lat="39.79448" lon="8.5648283"><ele>4.0</ele><time>2026-05-03T09:10:18.669Z</time></trkpt><trkpt lat="39.7944633" lon="8.5645683"><ele>4.0</ele><time>2026-05-03T09:10:19.669Z</time></trkpt><trkpt lat="39.7944583" lon="8.56429"><ele>4.0</ele><time>2026-05-03T09:10:20.669Z</time></trkpt><trkpt lat="39.7944567" lon="8.564025"><ele>4.0</ele><time>2026-05-03T09:10:21.669Z</time></trkpt><trkpt lat="39.7944583" lon="8.5637583"><ele>4.0</ele><time>2026-05-03T09:10:22.669Z</time></trkpt><trkpt lat="39.7944583" lon="8.56348"><ele>4.0</ele><time>2026-05-03T09:10:23.67Z</time></trkpt><trkpt lat="39.794455" lon="8.5632083"><ele>4.0</ele><time>2026-05-03T09:10:24.669Z</time></trkpt><trkpt lat="39.794455" lon="8.5629333"><ele>4.0</ele><time>2026-05-03T09:10:25.669Z</time></trkpt><trkpt lat="39.7944617" lon="8.5626567"><ele>4.0</ele><time>2026-05-03T09:10:26.669Z</time></trkpt><trkpt lat="39.7944667" lon="8.56239"><ele>4.0</ele><time>2026-05-03T09:10:27.669Z</time></trkpt><trkpt lat="39.7944667" lon="8.5621267"><ele>4.0</ele><time>2026-05-03T09:10:28.669Z</time></trkpt><trkpt lat="39.794455" lon="8.561885"><ele>4.0</ele><time>2026-05-03T09:10:29.67Z</time></trkpt><trkpt lat="39.79445" lon="8.561635"><ele>3.6666666666666665</ele><time>2026-05-03T09:10:30.669Z</time></trkpt><trkpt lat="39.79444" lon="8.5613933"><ele>3.333333333333333</ele><time>2026-05-03T09:10:31.669Z</time></trkpt><trkpt lat="39.7944367" lon="8.5611567"><ele>3.0</ele><time>2026-05-03T09:10:32.669Z</time></trkpt><trkpt lat="39.794435" lon="8.5609317"><ele>3.0</ele><time>2026-05-03T09:10:33.669Z</time></trkpt><trkpt lat="39.79445" lon="8.5607"><ele>3.0</ele><time>2026-05-03T09:10:34.67Z</time></trkpt><trkpt lat="39.7944583" lon="8.5604667"><ele>3.0</ele><time>2026-05-03T09:10:35.669Z</time></trkpt><trkpt lat="39.7944583" lon="8.5602283"><ele>3.333333333333333</ele><time>2026-05-03T09:10:36.67Z</time></trkpt><trkpt lat="39.7944583" lon="8.5599933"><ele>3.6666666666666665</ele><time>2026-05-03T09:10:37.67Z</time></trkpt><trkpt lat="39.794445" lon="8.5597583"><ele>4.0</ele><time>2026-05-03T09:10:38.669Z</time></trkpt><trkpt lat="39.7944433" lon="8.5595133"><ele>4.333333333333333</ele><time>2026-05-03T09:10:39.67Z</time></trkpt><trkpt lat="39.7944417" lon="8.5592817"><ele>4.666666666666667</ele><time>2026-05-03T09:10:40.67Z</time></trkpt><trkpt lat="39.7944367" lon="8.55905"><ele>5.0</ele><time>2026-05-03T09:10:41.669Z</time></trkpt><trkpt lat="39.7944333" lon="8.5588217"><ele>5.333333333333334</ele><time>2026-05-03T09:10:42.669Z</time></trkpt><trkpt lat="39.79443" lon="8.558595"><ele>5.666666666666667</ele><time>2026-05-03T09:10:43.669Z</time></trkpt><trkpt lat="39.794425" lon="8.558375"><ele>6.0</ele><time>2026-05-03T09:10:44.669Z</time></trkpt><trkpt lat="39.7944267" lon="8.5581383"><ele>6.0</ele><time>2026-05-03T09:10:45.67Z</time></trkpt><trkpt lat="39.7944417" lon="8.5579083"><ele>6.0</ele><time>2026-05-03T09:10:46.669Z</time></trkpt><trkpt lat="39.7944417" lon="8.5576833"><ele>6.0</ele><time>2026-05-03T09:10:47.669Z</time></trkpt><trkpt lat="39.7944467" lon="8.5574583"><ele>6.0</ele><time>2026-05-03T09:10:48.669Z</time></trkpt><trkpt lat="39.7944567" lon="8.5572233"><ele>6.0</ele><time>2026-05-03T09:10:49.67Z</time></trkpt><trkpt lat="39.7944667" lon="8.5570017"><ele>6.0</ele><time>2026-05-03T09:10:50.67Z</time></trkpt><trkpt lat="39.7944683" lon="8.556785"><ele>5.666666666666667</ele><time>2026-05-03T09:10:51.669Z</time></trkpt><trkpt lat="39.794465" lon="8.5565683"><ele>5.333333333333334</ele><time>2026-05-03T09:10:52.67Z</time></trkpt><trkpt lat="39.7944633" lon="8.5563633"><ele>5.0</ele><time>2026-05-03T09:10:53.67Z</time></trkpt><trkpt lat="39.7944517" lon="8.5561717"><ele>5.0</ele><time>2026-05-03T09:10:54.67Z</time></trkpt><trkpt lat="39.7944517" lon="8.5559917"><ele>5.0</ele><time>2026-05-03T09:10:55.67Z</time></trkpt><trkpt lat="39.79445" lon="8.5558233"><ele>5.0</ele><time>2026-05-03T09:10:56.669Z</time></trkpt><trkpt lat="39.7944517" lon="8.5556533"><ele>5.0</ele><time>2026-05-03T09:10:57.67Z</time></trkpt><trkpt lat="39.7944517" lon="8.555485"><ele>4.75</ele><time>2026-05-03T09:10:58.67Z</time></trkpt><trkpt lat="39.7944467" lon="8.5553017"><ele>4.5</ele><time>2026-05-03T09:10:59.669Z</time></trkpt><trkpt lat="39.7944433" lon="8.5551283"><ele>4.25</ele><time>2026-05-03T09:11:00.67Z</time></trkpt><trkpt lat="39.7944367" lon="8.554975"><ele>4.0</ele><time>2026-05-03T09:11:01.67Z</time></trkpt><trkpt lat="39.7944417" lon="8.554835"><ele>3.9999999999999996</ele><time>2026-05-03T09:11:02.669Z</time></trkpt><trkpt lat="39.794445" lon="8.554705"><ele>4.0</ele><time>2026-05-03T09:11:03.669Z</time></trkpt><trkpt lat="39.7944417" lon="8.55458"><ele>4.0</ele><time>2026-05-03T09:11:04.669Z</time></trkpt><trkpt lat="39.7944417" lon="8.5544833"><ele>4.0</ele><time>2026-05-03T09:11:05.669Z</time></trkpt><trkpt lat="39.7944467" lon="8.5543917"><ele>3.9999999999999996</ele><time>2026-05-03T09:11:06.669Z</time></trkpt><trkpt lat="39.7944517" lon="8.5543017"><ele>4.0</ele><time>2026-05-03T09:11:07.67Z</time></trkpt><trkpt lat="39.7944433" lon="8.5541567"><ele>3.833333333333333</ele><time>2026-05-03T09:11:09.67Z</time></trkpt><trkpt lat="39.7944383" lon="8.55403"><ele>3.6666666666666665</ele><time>2026-05-03T09:11:11.669Z</time></trkpt><trkpt lat="39.794435" lon="8.5539283"><ele>3.5</ele><time>2026-05-03T09:11:14.67Z</time></trkpt><trkpt lat="39.79444" lon="8.553815"><ele>3.333333333333333</ele><time>2026-05-03T09:11:17.67Z</time></trkpt><trkpt lat="39.7944383" lon="8.5537083"><ele>3.1666666666666665</ele><time>2026-05-03T09:11:19.67Z</time></trkpt><trkpt lat="39.7944367" lon="8.5535733"><ele>3.0</ele><time>2026-05-03T09:11:21.669Z</time></trkpt><trkpt lat="39.79444" lon="8.5534883"><ele>3.0</ele><time>2026-05-03T09:11:22.669Z</time></trkpt><trkpt lat="39.7944383" lon="8.553335"><ele>3.0</ele><time>2026-05-03T09:11:24.669Z</time></trkpt><trkpt lat="39.794435" lon="8.55319"><ele>3.0</ele><time>2026-05-03T09:11:26.669Z</time></trkpt><trkpt lat="39.7944317" lon="8.55304"><ele>3.0</ele><time>2026-05-03T09:11:28.669Z</time></trkpt><trkpt lat="39.7944383" lon="8.5528983"><ele>3.666666666666667</ele><time>2026-05-03T09:11:30.669Z</time></trkpt><trkpt lat="39.7944433" lon="8.55276"><ele>4.333333333333334</ele><time>2026-05-03T09:11:32.669Z</time></trkpt><trkpt lat="39.7944433" lon="8.55264"><ele>5.0</ele><time>2026-05-03T09:11:34.669Z</time></trkpt><trkpt lat="39.79445" lon="8.5525367"><ele>5.666666666666667</ele><time>2026-05-03T09:11:36.669Z</time></trkpt><trkpt lat="39.7944417" lon="8.5524417"><ele>6.333333333333334</ele><time>2026-05-03T09:11:38.67Z</time></trkpt><trkpt lat="39.7944133" lon="8.5523367"><ele>7.0</ele><time>2026-05-03T09:11:40.669Z</time></trkpt><trkpt lat="39.7943983" lon="8.5522417"><ele>7.000000000000001</ele><time>2026-05-03T09:11:42.669Z</time></trkpt><trkpt lat="39.79442" lon="8.5520917"><ele>7.0</ele><time>2026-05-03T09:11:44.669Z</time></trkpt><trkpt lat="39.79442" lon="8.5520017"><ele>7.0</ele><time>2026-05-03T09:11:45.67Z</time></trkpt><trkpt lat="39.794425" lon="8.55191"><ele>7.0</ele><time>2026-05-03T09:11:46.669Z</time></trkpt><trkpt lat="39.7944217" lon="8.5518167"><ele>7.000000000000001</ele><time>2026-05-03T09:11:47.669Z</time></trkpt><trkpt lat="39.794415" lon="8.5517183"><ele>7.0</ele><time>2026-05-03T09:11:48.67Z</time></trkpt><trkpt lat="39.7944133" lon="8.55162"><ele>7.000000000000001</ele><time>2026-05-03T09:11:49.67Z</time></trkpt><trkpt lat="39.7944183" lon="8.551535"><ele>7.0</ele><time>2026-05-03T09:11:50.669Z</time></trkpt><trkpt lat="39.7944267" lon="8.55144"><ele>7.0</ele><time>2026-05-03T09:11:51.669Z</time></trkpt><trkpt lat="39.7944283" lon="8.5513483"><ele>7.0</ele><time>2026-05-03T09:11:52.67Z</time></trkpt><trkpt lat="39.794425" lon="8.551195"><ele>7.000000000000001</ele><time>2026-05-03T09:11:54.669Z</time></trkpt><trkpt lat="39.7944183" lon="8.55111"><ele>7.0</ele><time>2026-05-03T09:11:55.669Z</time></trkpt><trkpt lat="39.7944083" lon="8.5510233"><ele>7.000000000000001</ele><time>2026-05-03T09:11:56.669Z</time></trkpt><trkpt lat="39.7944017" lon="8.5509367"><ele>7.0</ele><time>2026-05-03T09:11:57.67Z</time></trkpt><trkpt lat="39.7943833" lon="8.5508567"><ele>7.0</ele><time>2026-05-03T09:11:58.669Z</time></trkpt><trkpt lat="39.79438" lon="8.5506967"><ele>7.0</ele><time>2026-05-03T09:12:00.669Z</time></trkpt><trkpt lat="39.7943917" lon="8.5506083"><ele>7.000000000000001</ele><time>2026-05-03T09:12:01.669Z</time></trkpt><trkpt lat="39.7944017" lon="8.5505167"><ele>7.0</ele><time>2026-05-03T09:12:02.67Z</time></trkpt><trkpt lat="39.79441" lon="8.5504233"><ele>7.500000000000001</ele><time>2026-05-03T09:12:03.669Z</time></trkpt><trkpt lat="39.794415" lon="8.550325"><ele>8.0</ele><time>2026-05-03T09:12:04.67Z</time></trkpt><trkpt lat="39.7944167" lon="8.5502283"><ele>8.5</ele><time>2026-05-03T09:12:05.669Z</time></trkpt><trkpt lat="39.79442" lon="8.5501383"><ele>9.0</ele><time>2026-05-03T09:12:06.669Z</time></trkpt><trkpt lat="39.7944217" lon="8.5500483"><ele>9.5</ele><time>2026-05-03T09:12:07.67Z</time></trkpt><trkpt lat="39.7944233" lon="8.5499633"><ele>10.0</ele><time>2026-05-03T09:12:08.669Z</time></trkpt><trkpt lat="39.7944183" lon="8.549805"><ele>10.0</ele><time>2026-05-03T09:12:10.67Z</time></trkpt><trkpt lat="39.7944183" lon="8.5496517"><ele>10.0</ele><time>2026-05-03T09:12:12.669Z</time></trkpt><trkpt lat="39.7944133" lon="8.549505"><ele>10.0</ele><time>2026-05-03T09:12:14.669Z</time></trkpt><trkpt lat="39.7944217" lon="8.5493617"><ele>10.0</ele><time>2026-05-03T09:12:16.67Z</time></trkpt><trkpt lat="39.7944267" lon="8.5492183"><ele>10.0</ele><time>2026-05-03T09:12:18.669Z</time></trkpt><trkpt lat="39.79444" lon="8.5491067"><ele>10.0</ele><time>2026-05-03T09:12:20.67Z</time></trkpt><trkpt lat="39.7944483" lon="8.548995"><ele>10.0</ele><time>2026-05-03T09:12:22.669Z</time></trkpt><trkpt lat="39.7944383" lon="8.5488917"><ele>10.0</ele><time>2026-05-03T09:12:24.67Z</time></trkpt></trkseg></trk></gpx>